<?xml version="1.0" encoding="UTF-8"?>
<gpx creator="Wikiloc - http://www.wikiloc.com" version="1.1" xmlns="http://www.topografix.com/GPX/1/1" xmlns:xsi="http://www.w3.org/2001/XMLSchema-instance" xsi:schemaLocation="http://www.topografix.com/GPX/1/1 http://www.topografix.com/GPX/1/1/gpx.xsd">
  <trk>
    <name>Xurés - Gerês - Xurés 10 (Blacbay)</name>
    <cmt>Mais informações em: http://solopisadas.blogspot.com/2010/08/btt-xures-geres-xures-10.html</cmt>
    <desc>Mais informações em: http://solopisadas.blogspot.com/2010/08/btt-xures-geres-xures-10.html</desc>
    <trkseg>
      <trkpt lat="41.862250" lon="-8.106317">
        <ele>385.0</ele>
        <time>2010-08-26T10:58:02Z</time>
      </trkpt>
      <trkpt lat="41.862233" lon="-8.106250">
        <ele>382.0</ele>
        <time>2010-08-26T10:58:38Z</time>
      </trkpt>
      <trkpt lat="41.862250" lon="-8.106300">
        <ele>389.0</ele>
        <time>2010-08-26T11:00:29Z</time>
      </trkpt>
      <trkpt lat="41.862300" lon="-8.106317">
        <ele>389.0</ele>
        <time>2010-08-26T11:00:33Z</time>
      </trkpt>
      <trkpt lat="41.862317" lon="-8.106350">
        <ele>390.0</ele>
        <time>2010-08-26T11:00:36Z</time>
      </trkpt>
      <trkpt lat="41.862317" lon="-8.106400">
        <ele>390.0</ele>
        <time>2010-08-26T11:00:40Z</time>
      </trkpt>
      <trkpt lat="41.862283" lon="-8.106400">
        <ele>390.0</ele>
        <time>2010-08-26T11:00:42Z</time>
      </trkpt>
      <trkpt lat="41.862250" lon="-8.106417">
        <ele>390.0</ele>
        <time>2010-08-26T11:00:44Z</time>
      </trkpt>
      <trkpt lat="41.862250" lon="-8.106467">
        <ele>390.0</ele>
        <time>2010-08-26T11:00:46Z</time>
      </trkpt>
      <trkpt lat="41.862250" lon="-8.106517">
        <ele>390.0</ele>
        <time>2010-08-26T11:00:49Z</time>
      </trkpt>
      <trkpt lat="41.862233" lon="-8.106483">
        <ele>386.0</ele>
        <time>2010-08-26T11:01:23Z</time>
      </trkpt>
      <trkpt lat="41.862200" lon="-8.106467">
        <ele>386.0</ele>
        <time>2010-08-26T11:01:25Z</time>
      </trkpt>
      <trkpt lat="41.862167" lon="-8.106433">
        <ele>386.0</ele>
        <time>2010-08-26T11:01:27Z</time>
      </trkpt>
      <trkpt lat="41.862133" lon="-8.106400">
        <ele>386.0</ele>
        <time>2010-08-26T11:01:29Z</time>
      </trkpt>
      <trkpt lat="41.862100" lon="-8.106383">
        <ele>386.0</ele>
        <time>2010-08-26T11:01:31Z</time>
      </trkpt>
      <trkpt lat="41.862067" lon="-8.106383">
        <ele>385.0</ele>
        <time>2010-08-26T11:01:33Z</time>
      </trkpt>
      <trkpt lat="41.862033" lon="-8.106383">
        <ele>385.0</ele>
        <time>2010-08-26T11:01:35Z</time>
      </trkpt>
      <trkpt lat="41.862000" lon="-8.106367">
        <ele>385.0</ele>
        <time>2010-08-26T11:01:37Z</time>
      </trkpt>
      <trkpt lat="41.861983" lon="-8.106367">
        <ele>385.0</ele>
        <time>2010-08-26T11:01:39Z</time>
      </trkpt>
      <trkpt lat="41.861950" lon="-8.106367">
        <ele>385.0</ele>
        <time>2010-08-26T11:01:41Z</time>
      </trkpt>
      <trkpt lat="41.861917" lon="-8.106350">
        <ele>385.0</ele>
        <time>2010-08-26T11:01:43Z</time>
      </trkpt>
      <trkpt lat="41.861883" lon="-8.106350">
        <ele>385.0</ele>
        <time>2010-08-26T11:01:45Z</time>
      </trkpt>
      <trkpt lat="41.861850" lon="-8.106350">
        <ele>384.0</ele>
        <time>2010-08-26T11:01:47Z</time>
      </trkpt>
      <trkpt lat="41.861817" lon="-8.106333">
        <ele>384.0</ele>
        <time>2010-08-26T11:01:49Z</time>
      </trkpt>
      <trkpt lat="41.861783" lon="-8.106333">
        <ele>384.0</ele>
        <time>2010-08-26T11:01:51Z</time>
      </trkpt>
      <trkpt lat="41.861750" lon="-8.106317">
        <ele>384.0</ele>
        <time>2010-08-26T11:01:53Z</time>
      </trkpt>
      <trkpt lat="41.861717" lon="-8.106317">
        <ele>384.0</ele>
        <time>2010-08-26T11:01:55Z</time>
      </trkpt>
      <trkpt lat="41.861683" lon="-8.106300">
        <ele>384.0</ele>
        <time>2010-08-26T11:01:57Z</time>
      </trkpt>
      <trkpt lat="41.861650" lon="-8.106300">
        <ele>384.0</ele>
        <time>2010-08-26T11:01:59Z</time>
      </trkpt>
      <trkpt lat="41.861617" lon="-8.106283">
        <ele>384.0</ele>
        <time>2010-08-26T11:02:01Z</time>
      </trkpt>
      <trkpt lat="41.861567" lon="-8.106283">
        <ele>385.0</ele>
        <time>2010-08-26T11:02:03Z</time>
      </trkpt>
      <trkpt lat="41.861533" lon="-8.106267">
        <ele>385.0</ele>
        <time>2010-08-26T11:02:05Z</time>
      </trkpt>
      <trkpt lat="41.861500" lon="-8.106267">
        <ele>386.0</ele>
        <time>2010-08-26T11:02:07Z</time>
      </trkpt>
      <trkpt lat="41.861467" lon="-8.106267">
        <ele>386.0</ele>
        <time>2010-08-26T11:02:09Z</time>
      </trkpt>
      <trkpt lat="41.861433" lon="-8.106250">
        <ele>386.0</ele>
        <time>2010-08-26T11:02:11Z</time>
      </trkpt>
      <trkpt lat="41.861400" lon="-8.106250">
        <ele>387.0</ele>
        <time>2010-08-26T11:02:13Z</time>
      </trkpt>
      <trkpt lat="41.861367" lon="-8.106250">
        <ele>387.0</ele>
        <time>2010-08-26T11:02:15Z</time>
      </trkpt>
      <trkpt lat="41.861317" lon="-8.106233">
        <ele>387.0</ele>
        <time>2010-08-26T11:02:18Z</time>
      </trkpt>
      <trkpt lat="41.861283" lon="-8.106217">
        <ele>387.0</ele>
        <time>2010-08-26T11:02:21Z</time>
      </trkpt>
      <trkpt lat="41.861250" lon="-8.106200">
        <ele>388.0</ele>
        <time>2010-08-26T11:02:24Z</time>
      </trkpt>
      <trkpt lat="41.861200" lon="-8.106183">
        <ele>388.0</ele>
        <time>2010-08-26T11:02:27Z</time>
      </trkpt>
      <trkpt lat="41.861167" lon="-8.106167">
        <ele>389.0</ele>
        <time>2010-08-26T11:02:30Z</time>
      </trkpt>
      <trkpt lat="41.861133" lon="-8.106150">
        <ele>389.0</ele>
        <time>2010-08-26T11:02:47Z</time>
      </trkpt>
      <trkpt lat="41.861083" lon="-8.106150">
        <ele>389.0</ele>
        <time>2010-08-26T11:02:50Z</time>
      </trkpt>
      <trkpt lat="41.861050" lon="-8.106150">
        <ele>390.0</ele>
        <time>2010-08-26T11:02:53Z</time>
      </trkpt>
      <trkpt lat="41.861000" lon="-8.106133">
        <ele>391.0</ele>
        <time>2010-08-26T11:02:56Z</time>
      </trkpt>
      <trkpt lat="41.860983" lon="-8.106117">
        <ele>391.0</ele>
        <time>2010-08-26T11:02:58Z</time>
      </trkpt>
      <trkpt lat="41.860950" lon="-8.106100">
        <ele>391.0</ele>
        <time>2010-08-26T11:03:00Z</time>
      </trkpt>
      <trkpt lat="41.860933" lon="-8.106083">
        <ele>392.0</ele>
        <time>2010-08-26T11:03:02Z</time>
      </trkpt>
      <trkpt lat="41.860900" lon="-8.106067">
        <ele>392.0</ele>
        <time>2010-08-26T11:03:04Z</time>
      </trkpt>
      <trkpt lat="41.860867" lon="-8.106050">
        <ele>392.0</ele>
        <time>2010-08-26T11:03:06Z</time>
      </trkpt>
      <trkpt lat="41.860833" lon="-8.106017">
        <ele>393.0</ele>
        <time>2010-08-26T11:03:09Z</time>
      </trkpt>
      <trkpt lat="41.860800" lon="-8.106000">
        <ele>394.0</ele>
        <time>2010-08-26T11:03:12Z</time>
      </trkpt>
      <trkpt lat="41.860750" lon="-8.105967">
        <ele>394.0</ele>
        <time>2010-08-26T11:03:15Z</time>
      </trkpt>
      <trkpt lat="41.860717" lon="-8.105950">
        <ele>394.0</ele>
        <time>2010-08-26T11:03:18Z</time>
      </trkpt>
      <trkpt lat="41.860683" lon="-8.105917">
        <ele>395.0</ele>
        <time>2010-08-26T11:03:21Z</time>
      </trkpt>
      <trkpt lat="41.860633" lon="-8.105900">
        <ele>396.0</ele>
        <time>2010-08-26T11:03:24Z</time>
      </trkpt>
      <trkpt lat="41.860600" lon="-8.105900">
        <ele>396.0</ele>
        <time>2010-08-26T11:03:27Z</time>
      </trkpt>
      <trkpt lat="41.860567" lon="-8.105883">
        <ele>396.0</ele>
        <time>2010-08-26T11:03:30Z</time>
      </trkpt>
      <trkpt lat="41.860517" lon="-8.105867">
        <ele>397.0</ele>
        <time>2010-08-26T11:03:33Z</time>
      </trkpt>
      <trkpt lat="41.860483" lon="-8.105867">
        <ele>397.0</ele>
        <time>2010-08-26T11:03:35Z</time>
      </trkpt>
      <trkpt lat="41.860467" lon="-8.105867">
        <ele>397.0</ele>
        <time>2010-08-26T11:03:37Z</time>
      </trkpt>
      <trkpt lat="41.860417" lon="-8.105850">
        <ele>397.0</ele>
        <time>2010-08-26T11:03:40Z</time>
      </trkpt>
      <trkpt lat="41.860367" lon="-8.105850">
        <ele>398.0</ele>
        <time>2010-08-26T11:03:43Z</time>
      </trkpt>
      <trkpt lat="41.860333" lon="-8.105833">
        <ele>398.0</ele>
        <time>2010-08-26T11:03:46Z</time>
      </trkpt>
      <trkpt lat="41.860300" lon="-8.105833">
        <ele>398.0</ele>
        <time>2010-08-26T11:03:48Z</time>
      </trkpt>
      <trkpt lat="41.860250" lon="-8.105817">
        <ele>398.0</ele>
        <time>2010-08-26T11:03:51Z</time>
      </trkpt>
      <trkpt lat="41.860233" lon="-8.105817">
        <ele>399.0</ele>
        <time>2010-08-26T11:03:53Z</time>
      </trkpt>
      <trkpt lat="41.860200" lon="-8.105800">
        <ele>399.0</ele>
        <time>2010-08-26T11:03:55Z</time>
      </trkpt>
      <trkpt lat="41.860167" lon="-8.105783">
        <ele>399.0</ele>
        <time>2010-08-26T11:03:57Z</time>
      </trkpt>
      <trkpt lat="41.860133" lon="-8.105783">
        <ele>399.0</ele>
        <time>2010-08-26T11:03:59Z</time>
      </trkpt>
      <trkpt lat="41.860100" lon="-8.105767">
        <ele>400.0</ele>
        <time>2010-08-26T11:04:01Z</time>
      </trkpt>
      <trkpt lat="41.860067" lon="-8.105767">
        <ele>400.0</ele>
        <time>2010-08-26T11:04:03Z</time>
      </trkpt>
      <trkpt lat="41.860033" lon="-8.105783">
        <ele>400.0</ele>
        <time>2010-08-26T11:04:05Z</time>
      </trkpt>
      <trkpt lat="41.860000" lon="-8.105783">
        <ele>400.0</ele>
        <time>2010-08-26T11:04:08Z</time>
      </trkpt>
      <trkpt lat="41.859950" lon="-8.105800">
        <ele>401.0</ele>
        <time>2010-08-26T11:04:11Z</time>
      </trkpt>
      <trkpt lat="41.859917" lon="-8.105800">
        <ele>401.0</ele>
        <time>2010-08-26T11:04:14Z</time>
      </trkpt>
      <trkpt lat="41.859867" lon="-8.105817">
        <ele>401.0</ele>
        <time>2010-08-26T11:04:17Z</time>
      </trkpt>
      <trkpt lat="41.859850" lon="-8.105833">
        <ele>402.0</ele>
        <time>2010-08-26T11:04:19Z</time>
      </trkpt>
      <trkpt lat="41.859817" lon="-8.105833">
        <ele>402.0</ele>
        <time>2010-08-26T11:04:21Z</time>
      </trkpt>
      <trkpt lat="41.859783" lon="-8.105833">
        <ele>402.0</ele>
        <time>2010-08-26T11:04:23Z</time>
      </trkpt>
      <trkpt lat="41.859750" lon="-8.105833">
        <ele>402.0</ele>
        <time>2010-08-26T11:04:25Z</time>
      </trkpt>
      <trkpt lat="41.859717" lon="-8.105833">
        <ele>402.0</ele>
        <time>2010-08-26T11:04:27Z</time>
      </trkpt>
      <trkpt lat="41.859683" lon="-8.105817">
        <ele>402.0</ele>
        <time>2010-08-26T11:04:29Z</time>
      </trkpt>
      <trkpt lat="41.859650" lon="-8.105800">
        <ele>402.0</ele>
        <time>2010-08-26T11:04:31Z</time>
      </trkpt>
      <trkpt lat="41.859617" lon="-8.105783">
        <ele>402.0</ele>
        <time>2010-08-26T11:04:33Z</time>
      </trkpt>
      <trkpt lat="41.859567" lon="-8.105767">
        <ele>402.0</ele>
        <time>2010-08-26T11:04:35Z</time>
      </trkpt>
      <trkpt lat="41.859533" lon="-8.105750">
        <ele>402.0</ele>
        <time>2010-08-26T11:04:37Z</time>
      </trkpt>
      <trkpt lat="41.859517" lon="-8.105750">
        <ele>402.0</ele>
        <time>2010-08-26T11:04:38Z</time>
      </trkpt>
      <trkpt lat="41.859483" lon="-8.105750">
        <ele>402.0</ele>
        <time>2010-08-26T11:04:39Z</time>
      </trkpt>
      <trkpt lat="41.859467" lon="-8.105733">
        <ele>402.0</ele>
        <time>2010-08-26T11:04:40Z</time>
      </trkpt>
      <trkpt lat="41.859433" lon="-8.105733">
        <ele>402.0</ele>
        <time>2010-08-26T11:04:41Z</time>
      </trkpt>
      <trkpt lat="41.859417" lon="-8.105733">
        <ele>402.0</ele>
        <time>2010-08-26T11:04:42Z</time>
      </trkpt>
      <trkpt lat="41.859383" lon="-8.105717">
        <ele>402.0</ele>
        <time>2010-08-26T11:04:43Z</time>
      </trkpt>
      <trkpt lat="41.859367" lon="-8.105717">
        <ele>402.0</ele>
        <time>2010-08-26T11:04:44Z</time>
      </trkpt>
      <trkpt lat="41.859333" lon="-8.105717">
        <ele>402.0</ele>
        <time>2010-08-26T11:04:45Z</time>
      </trkpt>
      <trkpt lat="41.859317" lon="-8.105717">
        <ele>402.0</ele>
        <time>2010-08-26T11:04:46Z</time>
      </trkpt>
      <trkpt lat="41.859283" lon="-8.105717">
        <ele>402.0</ele>
        <time>2010-08-26T11:04:47Z</time>
      </trkpt>
      <trkpt lat="41.859267" lon="-8.105700">
        <ele>403.0</ele>
        <time>2010-08-26T11:04:48Z</time>
      </trkpt>
      <trkpt lat="41.859233" lon="-8.105700">
        <ele>403.0</ele>
        <time>2010-08-26T11:04:49Z</time>
      </trkpt>
      <trkpt lat="41.859200" lon="-8.105700">
        <ele>403.0</ele>
        <time>2010-08-26T11:04:50Z</time>
      </trkpt>
      <trkpt lat="41.859183" lon="-8.105700">
        <ele>403.0</ele>
        <time>2010-08-26T11:04:51Z</time>
      </trkpt>
      <trkpt lat="41.859150" lon="-8.105700">
        <ele>403.0</ele>
        <time>2010-08-26T11:04:52Z</time>
      </trkpt>
      <trkpt lat="41.859133" lon="-8.105717">
        <ele>403.0</ele>
        <time>2010-08-26T11:04:53Z</time>
      </trkpt>
      <trkpt lat="41.859100" lon="-8.105717">
        <ele>403.0</ele>
        <time>2010-08-26T11:04:54Z</time>
      </trkpt>
      <trkpt lat="41.859083" lon="-8.105717">
        <ele>403.0</ele>
        <time>2010-08-26T11:04:55Z</time>
      </trkpt>
      <trkpt lat="41.859050" lon="-8.105700">
        <ele>403.0</ele>
        <time>2010-08-26T11:04:56Z</time>
      </trkpt>
      <trkpt lat="41.859033" lon="-8.105700">
        <ele>403.0</ele>
        <time>2010-08-26T11:04:57Z</time>
      </trkpt>
      <trkpt lat="41.859000" lon="-8.105700">
        <ele>403.0</ele>
        <time>2010-08-26T11:04:58Z</time>
      </trkpt>
      <trkpt lat="41.858983" lon="-8.105700">
        <ele>403.0</ele>
        <time>2010-08-26T11:04:59Z</time>
      </trkpt>
      <trkpt lat="41.858950" lon="-8.105700">
        <ele>403.0</ele>
        <time>2010-08-26T11:05:00Z</time>
      </trkpt>
      <trkpt lat="41.858933" lon="-8.105700">
        <ele>403.0</ele>
        <time>2010-08-26T11:05:01Z</time>
      </trkpt>
      <trkpt lat="41.858900" lon="-8.105700">
        <ele>403.0</ele>
        <time>2010-08-26T11:05:02Z</time>
      </trkpt>
      <trkpt lat="41.858883" lon="-8.105717">
        <ele>403.0</ele>
        <time>2010-08-26T11:05:03Z</time>
      </trkpt>
      <trkpt lat="41.858867" lon="-8.105717">
        <ele>403.0</ele>
        <time>2010-08-26T11:05:04Z</time>
      </trkpt>
      <trkpt lat="41.858833" lon="-8.105717">
        <ele>404.0</ele>
        <time>2010-08-26T11:05:05Z</time>
      </trkpt>
      <trkpt lat="41.858817" lon="-8.105717">
        <ele>404.0</ele>
        <time>2010-08-26T11:05:06Z</time>
      </trkpt>
      <trkpt lat="41.858767" lon="-8.105717">
        <ele>404.0</ele>
        <time>2010-08-26T11:05:08Z</time>
      </trkpt>
      <trkpt lat="41.858750" lon="-8.105717">
        <ele>404.0</ele>
        <time>2010-08-26T11:05:09Z</time>
      </trkpt>
      <trkpt lat="41.858717" lon="-8.105733">
        <ele>404.0</ele>
        <time>2010-08-26T11:05:10Z</time>
      </trkpt>
      <trkpt lat="41.858700" lon="-8.105733">
        <ele>404.0</ele>
        <time>2010-08-26T11:05:11Z</time>
      </trkpt>
      <trkpt lat="41.858667" lon="-8.105750">
        <ele>404.0</ele>
        <time>2010-08-26T11:05:12Z</time>
      </trkpt>
      <trkpt lat="41.858650" lon="-8.105767">
        <ele>404.0</ele>
        <time>2010-08-26T11:05:13Z</time>
      </trkpt>
      <trkpt lat="41.858617" lon="-8.105767">
        <ele>404.0</ele>
        <time>2010-08-26T11:05:14Z</time>
      </trkpt>
      <trkpt lat="41.858583" lon="-8.105767">
        <ele>404.0</ele>
        <time>2010-08-26T11:05:16Z</time>
      </trkpt>
      <trkpt lat="41.858550" lon="-8.105767">
        <ele>404.0</ele>
        <time>2010-08-26T11:05:17Z</time>
      </trkpt>
      <trkpt lat="41.858517" lon="-8.105767">
        <ele>404.0</ele>
        <time>2010-08-26T11:05:19Z</time>
      </trkpt>
      <trkpt lat="41.858467" lon="-8.105750">
        <ele>404.0</ele>
        <time>2010-08-26T11:05:21Z</time>
      </trkpt>
      <trkpt lat="41.858433" lon="-8.105750">
        <ele>404.0</ele>
        <time>2010-08-26T11:05:23Z</time>
      </trkpt>
      <trkpt lat="41.858383" lon="-8.105750">
        <ele>405.0</ele>
        <time>2010-08-26T11:05:25Z</time>
      </trkpt>
      <trkpt lat="41.858333" lon="-8.105750">
        <ele>405.0</ele>
        <time>2010-08-26T11:05:27Z</time>
      </trkpt>
      <trkpt lat="41.858300" lon="-8.105750">
        <ele>405.0</ele>
        <time>2010-08-26T11:05:29Z</time>
      </trkpt>
      <trkpt lat="41.858250" lon="-8.105767">
        <ele>405.0</ele>
        <time>2010-08-26T11:05:31Z</time>
      </trkpt>
      <trkpt lat="41.858217" lon="-8.105767">
        <ele>405.0</ele>
        <time>2010-08-26T11:05:33Z</time>
      </trkpt>
      <trkpt lat="41.858167" lon="-8.105783">
        <ele>405.0</ele>
        <time>2010-08-26T11:05:35Z</time>
      </trkpt>
      <trkpt lat="41.858133" lon="-8.105800">
        <ele>405.0</ele>
        <time>2010-08-26T11:05:37Z</time>
      </trkpt>
      <trkpt lat="41.858100" lon="-8.105817">
        <ele>406.0</ele>
        <time>2010-08-26T11:05:39Z</time>
      </trkpt>
      <trkpt lat="41.858067" lon="-8.105833">
        <ele>406.0</ele>
        <time>2010-08-26T11:05:41Z</time>
      </trkpt>
      <trkpt lat="41.858033" lon="-8.105833">
        <ele>407.0</ele>
        <time>2010-08-26T11:05:44Z</time>
      </trkpt>
      <trkpt lat="41.858000" lon="-8.105867">
        <ele>407.0</ele>
        <time>2010-08-26T11:05:46Z</time>
      </trkpt>
      <trkpt lat="41.857983" lon="-8.105900">
        <ele>407.0</ele>
        <time>2010-08-26T11:05:48Z</time>
      </trkpt>
      <trkpt lat="41.857967" lon="-8.105933">
        <ele>407.0</ele>
        <time>2010-08-26T11:05:50Z</time>
      </trkpt>
      <trkpt lat="41.857933" lon="-8.105983">
        <ele>411.0</ele>
        <time>2010-08-26T11:06:22Z</time>
      </trkpt>
      <trkpt lat="41.857917" lon="-8.106017">
        <ele>412.0</ele>
        <time>2010-08-26T11:06:25Z</time>
      </trkpt>
      <trkpt lat="41.857883" lon="-8.106050">
        <ele>412.0</ele>
        <time>2010-08-26T11:06:27Z</time>
      </trkpt>
      <trkpt lat="41.857833" lon="-8.106067">
        <ele>411.0</ele>
        <time>2010-08-26T11:06:29Z</time>
      </trkpt>
      <trkpt lat="41.857817" lon="-8.106067">
        <ele>410.0</ele>
        <time>2010-08-26T11:06:30Z</time>
      </trkpt>
      <trkpt lat="41.857800" lon="-8.106083">
        <ele>410.0</ele>
        <time>2010-08-26T11:06:31Z</time>
      </trkpt>
      <trkpt lat="41.857767" lon="-8.106100">
        <ele>410.0</ele>
        <time>2010-08-26T11:06:32Z</time>
      </trkpt>
      <trkpt lat="41.857750" lon="-8.106117">
        <ele>409.0</ele>
        <time>2010-08-26T11:06:33Z</time>
      </trkpt>
      <trkpt lat="41.857717" lon="-8.106133">
        <ele>408.0</ele>
        <time>2010-08-26T11:06:35Z</time>
      </trkpt>
      <trkpt lat="41.857683" lon="-8.106150">
        <ele>408.0</ele>
        <time>2010-08-26T11:06:36Z</time>
      </trkpt>
      <trkpt lat="41.857667" lon="-8.106150">
        <ele>408.0</ele>
        <time>2010-08-26T11:06:37Z</time>
      </trkpt>
      <trkpt lat="41.857633" lon="-8.106167">
        <ele>407.0</ele>
        <time>2010-08-26T11:06:38Z</time>
      </trkpt>
      <trkpt lat="41.857617" lon="-8.106183">
        <ele>407.0</ele>
        <time>2010-08-26T11:06:39Z</time>
      </trkpt>
      <trkpt lat="41.857583" lon="-8.106183">
        <ele>406.0</ele>
        <time>2010-08-26T11:06:40Z</time>
      </trkpt>
      <trkpt lat="41.857550" lon="-8.106200">
        <ele>406.0</ele>
        <time>2010-08-26T11:06:41Z</time>
      </trkpt>
      <trkpt lat="41.857533" lon="-8.106200">
        <ele>406.0</ele>
        <time>2010-08-26T11:06:42Z</time>
      </trkpt>
      <trkpt lat="41.857500" lon="-8.106217">
        <ele>405.0</ele>
        <time>2010-08-26T11:06:43Z</time>
      </trkpt>
      <trkpt lat="41.857483" lon="-8.106217">
        <ele>405.0</ele>
        <time>2010-08-26T11:06:44Z</time>
      </trkpt>
      <trkpt lat="41.857450" lon="-8.106233">
        <ele>405.0</ele>
        <time>2010-08-26T11:06:45Z</time>
      </trkpt>
      <trkpt lat="41.857433" lon="-8.106233">
        <ele>404.0</ele>
        <time>2010-08-26T11:06:46Z</time>
      </trkpt>
      <trkpt lat="41.857400" lon="-8.106250">
        <ele>404.0</ele>
        <time>2010-08-26T11:06:47Z</time>
      </trkpt>
      <trkpt lat="41.857383" lon="-8.106250">
        <ele>404.0</ele>
        <time>2010-08-26T11:06:48Z</time>
      </trkpt>
      <trkpt lat="41.857350" lon="-8.106250">
        <ele>403.0</ele>
        <time>2010-08-26T11:06:49Z</time>
      </trkpt>
      <trkpt lat="41.857333" lon="-8.106267">
        <ele>403.0</ele>
        <time>2010-08-26T11:06:50Z</time>
      </trkpt>
      <trkpt lat="41.857300" lon="-8.106267">
        <ele>403.0</ele>
        <time>2010-08-26T11:06:51Z</time>
      </trkpt>
      <trkpt lat="41.857267" lon="-8.106267">
        <ele>403.0</ele>
        <time>2010-08-26T11:06:52Z</time>
      </trkpt>
      <trkpt lat="41.857233" lon="-8.106283">
        <ele>402.0</ele>
        <time>2010-08-26T11:06:53Z</time>
      </trkpt>
      <trkpt lat="41.857217" lon="-8.106283">
        <ele>402.0</ele>
        <time>2010-08-26T11:06:54Z</time>
      </trkpt>
      <trkpt lat="41.857183" lon="-8.106300">
        <ele>402.0</ele>
        <time>2010-08-26T11:06:55Z</time>
      </trkpt>
      <trkpt lat="41.857150" lon="-8.106300">
        <ele>402.0</ele>
        <time>2010-08-26T11:06:56Z</time>
      </trkpt>
      <trkpt lat="41.857133" lon="-8.106317">
        <ele>401.0</ele>
        <time>2010-08-26T11:06:57Z</time>
      </trkpt>
      <trkpt lat="41.857100" lon="-8.106333">
        <ele>401.0</ele>
        <time>2010-08-26T11:06:58Z</time>
      </trkpt>
      <trkpt lat="41.857083" lon="-8.106350">
        <ele>401.0</ele>
        <time>2010-08-26T11:06:59Z</time>
      </trkpt>
      <trkpt lat="41.857050" lon="-8.106367">
        <ele>401.0</ele>
        <time>2010-08-26T11:07:00Z</time>
      </trkpt>
      <trkpt lat="41.857033" lon="-8.106383">
        <ele>401.0</ele>
        <time>2010-08-26T11:07:01Z</time>
      </trkpt>
      <trkpt lat="41.857000" lon="-8.106400">
        <ele>400.0</ele>
        <time>2010-08-26T11:07:02Z</time>
      </trkpt>
      <trkpt lat="41.856983" lon="-8.106400">
        <ele>400.0</ele>
        <time>2010-08-26T11:07:03Z</time>
      </trkpt>
      <trkpt lat="41.856967" lon="-8.106417">
        <ele>400.0</ele>
        <time>2010-08-26T11:07:04Z</time>
      </trkpt>
      <trkpt lat="41.856933" lon="-8.106433">
        <ele>400.0</ele>
        <time>2010-08-26T11:07:05Z</time>
      </trkpt>
      <trkpt lat="41.856917" lon="-8.106450">
        <ele>400.0</ele>
        <time>2010-08-26T11:07:06Z</time>
      </trkpt>
      <trkpt lat="41.856900" lon="-8.106450">
        <ele>401.0</ele>
        <time>2010-08-26T11:07:07Z</time>
      </trkpt>
      <trkpt lat="41.856867" lon="-8.106467">
        <ele>401.0</ele>
        <time>2010-08-26T11:07:08Z</time>
      </trkpt>
      <trkpt lat="41.856850" lon="-8.106467">
        <ele>401.0</ele>
        <time>2010-08-26T11:07:09Z</time>
      </trkpt>
      <trkpt lat="41.856817" lon="-8.106483">
        <ele>401.0</ele>
        <time>2010-08-26T11:07:10Z</time>
      </trkpt>
      <trkpt lat="41.856800" lon="-8.106500">
        <ele>401.0</ele>
        <time>2010-08-26T11:07:11Z</time>
      </trkpt>
      <trkpt lat="41.856783" lon="-8.106500">
        <ele>401.0</ele>
        <time>2010-08-26T11:07:12Z</time>
      </trkpt>
      <trkpt lat="41.856750" lon="-8.106517">
        <ele>401.0</ele>
        <time>2010-08-26T11:07:13Z</time>
      </trkpt>
      <trkpt lat="41.856733" lon="-8.106533">
        <ele>402.0</ele>
        <time>2010-08-26T11:07:14Z</time>
      </trkpt>
      <trkpt lat="41.856717" lon="-8.106533">
        <ele>402.0</ele>
        <time>2010-08-26T11:07:15Z</time>
      </trkpt>
      <trkpt lat="41.856683" lon="-8.106550">
        <ele>402.0</ele>
        <time>2010-08-26T11:07:16Z</time>
      </trkpt>
      <trkpt lat="41.856667" lon="-8.106567">
        <ele>402.0</ele>
        <time>2010-08-26T11:07:17Z</time>
      </trkpt>
      <trkpt lat="41.856633" lon="-8.106600">
        <ele>402.0</ele>
        <time>2010-08-26T11:07:18Z</time>
      </trkpt>
      <trkpt lat="41.856600" lon="-8.106617">
        <ele>402.0</ele>
        <time>2010-08-26T11:07:19Z</time>
      </trkpt>
      <trkpt lat="41.856567" lon="-8.106633">
        <ele>402.0</ele>
        <time>2010-08-26T11:07:20Z</time>
      </trkpt>
      <trkpt lat="41.856533" lon="-8.106650">
        <ele>401.0</ele>
        <time>2010-08-26T11:07:21Z</time>
      </trkpt>
      <trkpt lat="41.856500" lon="-8.106667">
        <ele>401.0</ele>
        <time>2010-08-26T11:07:22Z</time>
      </trkpt>
      <trkpt lat="41.856450" lon="-8.106700">
        <ele>401.0</ele>
        <time>2010-08-26T11:07:23Z</time>
      </trkpt>
      <trkpt lat="41.856417" lon="-8.106717">
        <ele>401.0</ele>
        <time>2010-08-26T11:07:24Z</time>
      </trkpt>
      <trkpt lat="41.856383" lon="-8.106750">
        <ele>401.0</ele>
        <time>2010-08-26T11:07:25Z</time>
      </trkpt>
      <trkpt lat="41.856367" lon="-8.106783">
        <ele>401.0</ele>
        <time>2010-08-26T11:07:26Z</time>
      </trkpt>
      <trkpt lat="41.856367" lon="-8.106833">
        <ele>400.0</ele>
        <time>2010-08-26T11:07:27Z</time>
      </trkpt>
      <trkpt lat="41.856350" lon="-8.106883">
        <ele>400.0</ele>
        <time>2010-08-26T11:07:28Z</time>
      </trkpt>
      <trkpt lat="41.856350" lon="-8.106933">
        <ele>400.0</ele>
        <time>2010-08-26T11:07:29Z</time>
      </trkpt>
      <trkpt lat="41.856333" lon="-8.106950">
        <ele>400.0</ele>
        <time>2010-08-26T11:07:30Z</time>
      </trkpt>
      <trkpt lat="41.856300" lon="-8.106983">
        <ele>400.0</ele>
        <time>2010-08-26T11:07:31Z</time>
      </trkpt>
      <trkpt lat="41.856283" lon="-8.107017">
        <ele>401.0</ele>
        <time>2010-08-26T11:07:33Z</time>
      </trkpt>
      <trkpt lat="41.856250" lon="-8.107050">
        <ele>401.0</ele>
        <time>2010-08-26T11:07:40Z</time>
      </trkpt>
      <trkpt lat="41.856250" lon="-8.107100">
        <ele>402.0</ele>
        <time>2010-08-26T11:07:44Z</time>
      </trkpt>
      <trkpt lat="41.856283" lon="-8.107133">
        <ele>403.0</ele>
        <time>2010-08-26T11:07:57Z</time>
      </trkpt>
      <trkpt lat="41.856333" lon="-8.107133">
        <ele>404.0</ele>
        <time>2010-08-26T11:08:06Z</time>
      </trkpt>
      <trkpt lat="41.856333" lon="-8.107200">
        <ele>403.0</ele>
        <time>2010-08-26T11:08:12Z</time>
      </trkpt>
      <trkpt lat="41.856300" lon="-8.107233">
        <ele>405.0</ele>
        <time>2010-08-26T11:08:50Z</time>
      </trkpt>
      <trkpt lat="41.856283" lon="-8.107200">
        <ele>408.0</ele>
        <time>2010-08-26T11:09:20Z</time>
      </trkpt>
      <trkpt lat="41.856267" lon="-8.107150">
        <ele>408.0</ele>
        <time>2010-08-26T11:09:24Z</time>
      </trkpt>
      <trkpt lat="41.856250" lon="-8.107100">
        <ele>409.0</ele>
        <time>2010-08-26T11:09:28Z</time>
      </trkpt>
      <trkpt lat="41.856233" lon="-8.107067">
        <ele>409.0</ele>
        <time>2010-08-26T11:09:43Z</time>
      </trkpt>
      <trkpt lat="41.856233" lon="-8.107033">
        <ele>409.0</ele>
        <time>2010-08-26T11:09:45Z</time>
      </trkpt>
      <trkpt lat="41.856233" lon="-8.106967">
        <ele>408.0</ele>
        <time>2010-08-26T11:09:47Z</time>
      </trkpt>
      <trkpt lat="41.856233" lon="-8.106917">
        <ele>408.0</ele>
        <time>2010-08-26T11:09:49Z</time>
      </trkpt>
      <trkpt lat="41.856233" lon="-8.106867">
        <ele>408.0</ele>
        <time>2010-08-26T11:09:51Z</time>
      </trkpt>
      <trkpt lat="41.856233" lon="-8.106800">
        <ele>408.0</ele>
        <time>2010-08-26T11:09:53Z</time>
      </trkpt>
      <trkpt lat="41.856250" lon="-8.106767">
        <ele>408.0</ele>
        <time>2010-08-26T11:09:59Z</time>
      </trkpt>
      <trkpt lat="41.856233" lon="-8.106717">
        <ele>409.0</ele>
        <time>2010-08-26T11:10:06Z</time>
      </trkpt>
      <trkpt lat="41.856200" lon="-8.106717">
        <ele>409.0</ele>
        <time>2010-08-26T11:10:08Z</time>
      </trkpt>
      <trkpt lat="41.856167" lon="-8.106733">
        <ele>409.0</ele>
        <time>2010-08-26T11:10:10Z</time>
      </trkpt>
      <trkpt lat="41.856150" lon="-8.106750">
        <ele>409.0</ele>
        <time>2010-08-26T11:10:11Z</time>
      </trkpt>
      <trkpt lat="41.856117" lon="-8.106767">
        <ele>409.0</ele>
        <time>2010-08-26T11:10:12Z</time>
      </trkpt>
      <trkpt lat="41.856100" lon="-8.106783">
        <ele>409.0</ele>
        <time>2010-08-26T11:10:13Z</time>
      </trkpt>
      <trkpt lat="41.856083" lon="-8.106783">
        <ele>409.0</ele>
        <time>2010-08-26T11:10:14Z</time>
      </trkpt>
      <trkpt lat="41.856033" lon="-8.106817">
        <ele>409.0</ele>
        <time>2010-08-26T11:10:16Z</time>
      </trkpt>
      <trkpt lat="41.856000" lon="-8.106833">
        <ele>409.0</ele>
        <time>2010-08-26T11:10:47Z</time>
      </trkpt>
      <trkpt lat="41.855983" lon="-8.106850">
        <ele>409.0</ele>
        <time>2010-08-26T11:10:48Z</time>
      </trkpt>
      <trkpt lat="41.855950" lon="-8.106867">
        <ele>409.0</ele>
        <time>2010-08-26T11:10:49Z</time>
      </trkpt>
      <trkpt lat="41.855933" lon="-8.106883">
        <ele>409.0</ele>
        <time>2010-08-26T11:10:50Z</time>
      </trkpt>
      <trkpt lat="41.855917" lon="-8.106917">
        <ele>410.0</ele>
        <time>2010-08-26T11:10:51Z</time>
      </trkpt>
      <trkpt lat="41.855900" lon="-8.106933">
        <ele>410.0</ele>
        <time>2010-08-26T11:10:52Z</time>
      </trkpt>
      <trkpt lat="41.855867" lon="-8.106933">
        <ele>410.0</ele>
        <time>2010-08-26T11:10:53Z</time>
      </trkpt>
      <trkpt lat="41.855850" lon="-8.106950">
        <ele>411.0</ele>
        <time>2010-08-26T11:10:54Z</time>
      </trkpt>
      <trkpt lat="41.855833" lon="-8.106967">
        <ele>411.0</ele>
        <time>2010-08-26T11:10:55Z</time>
      </trkpt>
      <trkpt lat="41.855800" lon="-8.106983">
        <ele>411.0</ele>
        <time>2010-08-26T11:10:56Z</time>
      </trkpt>
      <trkpt lat="41.855767" lon="-8.107017">
        <ele>411.0</ele>
        <time>2010-08-26T11:10:57Z</time>
      </trkpt>
      <trkpt lat="41.855750" lon="-8.107017">
        <ele>411.0</ele>
        <time>2010-08-26T11:10:58Z</time>
      </trkpt>
      <trkpt lat="41.855717" lon="-8.107033">
        <ele>411.0</ele>
        <time>2010-08-26T11:10:59Z</time>
      </trkpt>
      <trkpt lat="41.855667" lon="-8.107033">
        <ele>411.0</ele>
        <time>2010-08-26T11:11:00Z</time>
      </trkpt>
      <trkpt lat="41.855633" lon="-8.107033">
        <ele>411.0</ele>
        <time>2010-08-26T11:11:01Z</time>
      </trkpt>
      <trkpt lat="41.855600" lon="-8.107050">
        <ele>411.0</ele>
        <time>2010-08-26T11:11:02Z</time>
      </trkpt>
      <trkpt lat="41.855550" lon="-8.107067">
        <ele>411.0</ele>
        <time>2010-08-26T11:11:03Z</time>
      </trkpt>
      <trkpt lat="41.855500" lon="-8.107083">
        <ele>410.0</ele>
        <time>2010-08-26T11:11:04Z</time>
      </trkpt>
      <trkpt lat="41.855467" lon="-8.107117">
        <ele>410.0</ele>
        <time>2010-08-26T11:11:05Z</time>
      </trkpt>
      <trkpt lat="41.855417" lon="-8.107133">
        <ele>410.0</ele>
        <time>2010-08-26T11:11:06Z</time>
      </trkpt>
      <trkpt lat="41.855383" lon="-8.107167">
        <ele>409.0</ele>
        <time>2010-08-26T11:11:07Z</time>
      </trkpt>
      <trkpt lat="41.855350" lon="-8.107183">
        <ele>409.0</ele>
        <time>2010-08-26T11:11:08Z</time>
      </trkpt>
      <trkpt lat="41.855317" lon="-8.107217">
        <ele>409.0</ele>
        <time>2010-08-26T11:11:09Z</time>
      </trkpt>
      <trkpt lat="41.855267" lon="-8.107233">
        <ele>409.0</ele>
        <time>2010-08-26T11:11:10Z</time>
      </trkpt>
      <trkpt lat="41.855217" lon="-8.107267">
        <ele>408.0</ele>
        <time>2010-08-26T11:11:11Z</time>
      </trkpt>
      <trkpt lat="41.855183" lon="-8.107300">
        <ele>408.0</ele>
        <time>2010-08-26T11:11:12Z</time>
      </trkpt>
      <trkpt lat="41.855150" lon="-8.107333">
        <ele>407.0</ele>
        <time>2010-08-26T11:11:13Z</time>
      </trkpt>
      <trkpt lat="41.855117" lon="-8.107367">
        <ele>407.0</ele>
        <time>2010-08-26T11:11:14Z</time>
      </trkpt>
      <trkpt lat="41.855067" lon="-8.107417">
        <ele>407.0</ele>
        <time>2010-08-26T11:11:15Z</time>
      </trkpt>
      <trkpt lat="41.855033" lon="-8.107450">
        <ele>407.0</ele>
        <time>2010-08-26T11:11:16Z</time>
      </trkpt>
      <trkpt lat="41.855000" lon="-8.107467">
        <ele>407.0</ele>
        <time>2010-08-26T11:11:17Z</time>
      </trkpt>
      <trkpt lat="41.854950" lon="-8.107500">
        <ele>406.0</ele>
        <time>2010-08-26T11:11:18Z</time>
      </trkpt>
      <trkpt lat="41.854917" lon="-8.107533">
        <ele>406.0</ele>
        <time>2010-08-26T11:11:19Z</time>
      </trkpt>
      <trkpt lat="41.854867" lon="-8.107550">
        <ele>406.0</ele>
        <time>2010-08-26T11:11:20Z</time>
      </trkpt>
      <trkpt lat="41.854833" lon="-8.107550">
        <ele>406.0</ele>
        <time>2010-08-26T11:11:21Z</time>
      </trkpt>
      <trkpt lat="41.854800" lon="-8.107567">
        <ele>406.0</ele>
        <time>2010-08-26T11:11:22Z</time>
      </trkpt>
      <trkpt lat="41.854767" lon="-8.107583">
        <ele>406.0</ele>
        <time>2010-08-26T11:11:23Z</time>
      </trkpt>
      <trkpt lat="41.854733" lon="-8.107600">
        <ele>406.0</ele>
        <time>2010-08-26T11:11:24Z</time>
      </trkpt>
      <trkpt lat="41.854700" lon="-8.107600">
        <ele>406.0</ele>
        <time>2010-08-26T11:11:25Z</time>
      </trkpt>
      <trkpt lat="41.854667" lon="-8.107600">
        <ele>406.0</ele>
        <time>2010-08-26T11:11:26Z</time>
      </trkpt>
      <trkpt lat="41.854633" lon="-8.107600">
        <ele>406.0</ele>
        <time>2010-08-26T11:11:27Z</time>
      </trkpt>
      <trkpt lat="41.854600" lon="-8.107600">
        <ele>406.0</ele>
        <time>2010-08-26T11:11:28Z</time>
      </trkpt>
      <trkpt lat="41.854567" lon="-8.107617">
        <ele>406.0</ele>
        <time>2010-08-26T11:11:29Z</time>
      </trkpt>
      <trkpt lat="41.854533" lon="-8.107617">
        <ele>406.0</ele>
        <time>2010-08-26T11:11:30Z</time>
      </trkpt>
      <trkpt lat="41.854500" lon="-8.107617">
        <ele>406.0</ele>
        <time>2010-08-26T11:11:31Z</time>
      </trkpt>
      <trkpt lat="41.854483" lon="-8.107617">
        <ele>406.0</ele>
        <time>2010-08-26T11:11:32Z</time>
      </trkpt>
      <trkpt lat="41.854450" lon="-8.107617">
        <ele>406.0</ele>
        <time>2010-08-26T11:11:33Z</time>
      </trkpt>
      <trkpt lat="41.854417" lon="-8.107617">
        <ele>406.0</ele>
        <time>2010-08-26T11:11:34Z</time>
      </trkpt>
      <trkpt lat="41.854383" lon="-8.107633">
        <ele>406.0</ele>
        <time>2010-08-26T11:11:35Z</time>
      </trkpt>
      <trkpt lat="41.854350" lon="-8.107633">
        <ele>406.0</ele>
        <time>2010-08-26T11:11:36Z</time>
      </trkpt>
      <trkpt lat="41.854317" lon="-8.107650">
        <ele>406.0</ele>
        <time>2010-08-26T11:11:37Z</time>
      </trkpt>
      <trkpt lat="41.854283" lon="-8.107667">
        <ele>406.0</ele>
        <time>2010-08-26T11:11:38Z</time>
      </trkpt>
      <trkpt lat="41.854250" lon="-8.107700">
        <ele>406.0</ele>
        <time>2010-08-26T11:11:39Z</time>
      </trkpt>
      <trkpt lat="41.854233" lon="-8.107717">
        <ele>406.0</ele>
        <time>2010-08-26T11:11:40Z</time>
      </trkpt>
      <trkpt lat="41.854200" lon="-8.107750">
        <ele>406.0</ele>
        <time>2010-08-26T11:11:41Z</time>
      </trkpt>
      <trkpt lat="41.854183" lon="-8.107783">
        <ele>406.0</ele>
        <time>2010-08-26T11:11:42Z</time>
      </trkpt>
      <trkpt lat="41.854167" lon="-8.107817">
        <ele>406.0</ele>
        <time>2010-08-26T11:11:43Z</time>
      </trkpt>
      <trkpt lat="41.854150" lon="-8.107833">
        <ele>406.0</ele>
        <time>2010-08-26T11:11:44Z</time>
      </trkpt>
      <trkpt lat="41.854133" lon="-8.107867">
        <ele>406.0</ele>
        <time>2010-08-26T11:11:45Z</time>
      </trkpt>
      <trkpt lat="41.854100" lon="-8.107900">
        <ele>406.0</ele>
        <time>2010-08-26T11:11:46Z</time>
      </trkpt>
      <trkpt lat="41.854083" lon="-8.107917">
        <ele>406.0</ele>
        <time>2010-08-26T11:11:47Z</time>
      </trkpt>
      <trkpt lat="41.854067" lon="-8.107950">
        <ele>406.0</ele>
        <time>2010-08-26T11:11:48Z</time>
      </trkpt>
      <trkpt lat="41.854050" lon="-8.107967">
        <ele>406.0</ele>
        <time>2010-08-26T11:11:49Z</time>
      </trkpt>
      <trkpt lat="41.854033" lon="-8.107983">
        <ele>406.0</ele>
        <time>2010-08-26T11:11:50Z</time>
      </trkpt>
      <trkpt lat="41.854017" lon="-8.108017">
        <ele>406.0</ele>
        <time>2010-08-26T11:11:51Z</time>
      </trkpt>
      <trkpt lat="41.853983" lon="-8.108050">
        <ele>406.0</ele>
        <time>2010-08-26T11:11:52Z</time>
      </trkpt>
      <trkpt lat="41.853967" lon="-8.108067">
        <ele>406.0</ele>
        <time>2010-08-26T11:11:53Z</time>
      </trkpt>
      <trkpt lat="41.853950" lon="-8.108100">
        <ele>406.0</ele>
        <time>2010-08-26T11:11:54Z</time>
      </trkpt>
      <trkpt lat="41.853917" lon="-8.108117">
        <ele>406.0</ele>
        <time>2010-08-26T11:11:55Z</time>
      </trkpt>
      <trkpt lat="41.853900" lon="-8.108150">
        <ele>406.0</ele>
        <time>2010-08-26T11:11:56Z</time>
      </trkpt>
      <trkpt lat="41.853883" lon="-8.108167">
        <ele>406.0</ele>
        <time>2010-08-26T11:11:57Z</time>
      </trkpt>
      <trkpt lat="41.853850" lon="-8.108183">
        <ele>406.0</ele>
        <time>2010-08-26T11:11:58Z</time>
      </trkpt>
      <trkpt lat="41.853833" lon="-8.108217">
        <ele>406.0</ele>
        <time>2010-08-26T11:11:59Z</time>
      </trkpt>
      <trkpt lat="41.853800" lon="-8.108217">
        <ele>406.0</ele>
        <time>2010-08-26T11:12:00Z</time>
      </trkpt>
      <trkpt lat="41.853783" lon="-8.108233">
        <ele>407.0</ele>
        <time>2010-08-26T11:12:01Z</time>
      </trkpt>
      <trkpt lat="41.853767" lon="-8.108250">
        <ele>407.0</ele>
        <time>2010-08-26T11:12:02Z</time>
      </trkpt>
      <trkpt lat="41.853733" lon="-8.108267">
        <ele>407.0</ele>
        <time>2010-08-26T11:12:03Z</time>
      </trkpt>
      <trkpt lat="41.853700" lon="-8.108300">
        <ele>407.0</ele>
        <time>2010-08-26T11:12:05Z</time>
      </trkpt>
      <trkpt lat="41.853667" lon="-8.108333">
        <ele>410.0</ele>
        <time>2010-08-26T11:12:13Z</time>
      </trkpt>
      <trkpt lat="41.853633" lon="-8.108367">
        <ele>410.0</ele>
        <time>2010-08-26T11:12:16Z</time>
      </trkpt>
      <trkpt lat="41.853600" lon="-8.108400">
        <ele>410.0</ele>
        <time>2010-08-26T11:12:18Z</time>
      </trkpt>
      <trkpt lat="41.853583" lon="-8.108433">
        <ele>410.0</ele>
        <time>2010-08-26T11:12:19Z</time>
      </trkpt>
      <trkpt lat="41.853567" lon="-8.108450">
        <ele>410.0</ele>
        <time>2010-08-26T11:12:20Z</time>
      </trkpt>
      <trkpt lat="41.853550" lon="-8.108483">
        <ele>410.0</ele>
        <time>2010-08-26T11:12:21Z</time>
      </trkpt>
      <trkpt lat="41.853533" lon="-8.108517">
        <ele>410.0</ele>
        <time>2010-08-26T11:12:22Z</time>
      </trkpt>
      <trkpt lat="41.853517" lon="-8.108533">
        <ele>410.0</ele>
        <time>2010-08-26T11:12:23Z</time>
      </trkpt>
      <trkpt lat="41.853500" lon="-8.108567">
        <ele>410.0</ele>
        <time>2010-08-26T11:12:24Z</time>
      </trkpt>
      <trkpt lat="41.853483" lon="-8.108600">
        <ele>410.0</ele>
        <time>2010-08-26T11:12:26Z</time>
      </trkpt>
      <trkpt lat="41.853450" lon="-8.108650">
        <ele>411.0</ele>
        <time>2010-08-26T11:12:28Z</time>
      </trkpt>
      <trkpt lat="41.853433" lon="-8.108683">
        <ele>411.0</ele>
        <time>2010-08-26T11:12:29Z</time>
      </trkpt>
      <trkpt lat="41.853417" lon="-8.108700">
        <ele>411.0</ele>
        <time>2010-08-26T11:12:30Z</time>
      </trkpt>
      <trkpt lat="41.853400" lon="-8.108733">
        <ele>411.0</ele>
        <time>2010-08-26T11:12:31Z</time>
      </trkpt>
      <trkpt lat="41.853383" lon="-8.108767">
        <ele>411.0</ele>
        <time>2010-08-26T11:12:32Z</time>
      </trkpt>
      <trkpt lat="41.853383" lon="-8.108800">
        <ele>411.0</ele>
        <time>2010-08-26T11:12:33Z</time>
      </trkpt>
      <trkpt lat="41.853367" lon="-8.108833">
        <ele>411.0</ele>
        <time>2010-08-26T11:12:34Z</time>
      </trkpt>
      <trkpt lat="41.853350" lon="-8.108850">
        <ele>411.0</ele>
        <time>2010-08-26T11:12:35Z</time>
      </trkpt>
      <trkpt lat="41.853317" lon="-8.108883">
        <ele>411.0</ele>
        <time>2010-08-26T11:12:36Z</time>
      </trkpt>
      <trkpt lat="41.853300" lon="-8.108917">
        <ele>411.0</ele>
        <time>2010-08-26T11:12:37Z</time>
      </trkpt>
      <trkpt lat="41.853283" lon="-8.108933">
        <ele>411.0</ele>
        <time>2010-08-26T11:12:38Z</time>
      </trkpt>
      <trkpt lat="41.853250" lon="-8.108967">
        <ele>411.0</ele>
        <time>2010-08-26T11:12:39Z</time>
      </trkpt>
      <trkpt lat="41.853233" lon="-8.108983">
        <ele>410.0</ele>
        <time>2010-08-26T11:12:40Z</time>
      </trkpt>
      <trkpt lat="41.853217" lon="-8.109000">
        <ele>410.0</ele>
        <time>2010-08-26T11:12:41Z</time>
      </trkpt>
      <trkpt lat="41.853200" lon="-8.109017">
        <ele>410.0</ele>
        <time>2010-08-26T11:12:42Z</time>
      </trkpt>
      <trkpt lat="41.853183" lon="-8.109033">
        <ele>410.0</ele>
        <time>2010-08-26T11:12:43Z</time>
      </trkpt>
      <trkpt lat="41.853167" lon="-8.109050">
        <ele>410.0</ele>
        <time>2010-08-26T11:12:44Z</time>
      </trkpt>
      <trkpt lat="41.853133" lon="-8.109067">
        <ele>410.0</ele>
        <time>2010-08-26T11:12:45Z</time>
      </trkpt>
      <trkpt lat="41.853117" lon="-8.109100">
        <ele>410.0</ele>
        <time>2010-08-26T11:12:46Z</time>
      </trkpt>
      <trkpt lat="41.853100" lon="-8.109117">
        <ele>410.0</ele>
        <time>2010-08-26T11:12:47Z</time>
      </trkpt>
      <trkpt lat="41.853067" lon="-8.109150">
        <ele>410.0</ele>
        <time>2010-08-26T11:12:49Z</time>
      </trkpt>
      <trkpt lat="41.853033" lon="-8.109183">
        <ele>410.0</ele>
        <time>2010-08-26T11:12:51Z</time>
      </trkpt>
      <trkpt lat="41.853000" lon="-8.109200">
        <ele>411.0</ele>
        <time>2010-08-26T11:12:53Z</time>
      </trkpt>
      <trkpt lat="41.852967" lon="-8.109233">
        <ele>411.0</ele>
        <time>2010-08-26T11:12:55Z</time>
      </trkpt>
      <trkpt lat="41.852933" lon="-8.109250">
        <ele>411.0</ele>
        <time>2010-08-26T11:12:57Z</time>
      </trkpt>
      <trkpt lat="41.852900" lon="-8.109283">
        <ele>412.0</ele>
        <time>2010-08-26T11:12:59Z</time>
      </trkpt>
      <trkpt lat="41.852867" lon="-8.109317">
        <ele>412.0</ele>
        <time>2010-08-26T11:13:01Z</time>
      </trkpt>
      <trkpt lat="41.852833" lon="-8.109350">
        <ele>413.0</ele>
        <time>2010-08-26T11:13:03Z</time>
      </trkpt>
      <trkpt lat="41.852800" lon="-8.109383">
        <ele>413.0</ele>
        <time>2010-08-26T11:13:05Z</time>
      </trkpt>
      <trkpt lat="41.852767" lon="-8.109400">
        <ele>414.0</ele>
        <time>2010-08-26T11:13:07Z</time>
      </trkpt>
      <trkpt lat="41.852733" lon="-8.109433">
        <ele>414.0</ele>
        <time>2010-08-26T11:13:09Z</time>
      </trkpt>
      <trkpt lat="41.852717" lon="-8.109450">
        <ele>414.0</ele>
        <time>2010-08-26T11:13:11Z</time>
      </trkpt>
      <trkpt lat="41.852683" lon="-8.109500">
        <ele>415.0</ele>
        <time>2010-08-26T11:13:13Z</time>
      </trkpt>
      <trkpt lat="41.852667" lon="-8.109517">
        <ele>415.0</ele>
        <time>2010-08-26T11:13:14Z</time>
      </trkpt>
      <trkpt lat="41.852633" lon="-8.109567">
        <ele>415.0</ele>
        <time>2010-08-26T11:13:16Z</time>
      </trkpt>
      <trkpt lat="41.852600" lon="-8.109600">
        <ele>415.0</ele>
        <time>2010-08-26T11:13:18Z</time>
      </trkpt>
      <trkpt lat="41.852567" lon="-8.109633">
        <ele>416.0</ele>
        <time>2010-08-26T11:13:20Z</time>
      </trkpt>
      <trkpt lat="41.852550" lon="-8.109650">
        <ele>416.0</ele>
        <time>2010-08-26T11:13:21Z</time>
      </trkpt>
      <trkpt lat="41.852533" lon="-8.109667">
        <ele>416.0</ele>
        <time>2010-08-26T11:13:22Z</time>
      </trkpt>
      <trkpt lat="41.852517" lon="-8.109683">
        <ele>417.0</ele>
        <time>2010-08-26T11:13:23Z</time>
      </trkpt>
      <trkpt lat="41.852500" lon="-8.109700">
        <ele>417.0</ele>
        <time>2010-08-26T11:13:24Z</time>
      </trkpt>
      <trkpt lat="41.852483" lon="-8.109717">
        <ele>417.0</ele>
        <time>2010-08-26T11:13:25Z</time>
      </trkpt>
      <trkpt lat="41.852450" lon="-8.109733">
        <ele>417.0</ele>
        <time>2010-08-26T11:13:26Z</time>
      </trkpt>
      <trkpt lat="41.852433" lon="-8.109750">
        <ele>417.0</ele>
        <time>2010-08-26T11:13:27Z</time>
      </trkpt>
      <trkpt lat="41.852417" lon="-8.109767">
        <ele>417.0</ele>
        <time>2010-08-26T11:13:28Z</time>
      </trkpt>
      <trkpt lat="41.852383" lon="-8.109783">
        <ele>416.0</ele>
        <time>2010-08-26T11:13:29Z</time>
      </trkpt>
      <trkpt lat="41.852367" lon="-8.109800">
        <ele>416.0</ele>
        <time>2010-08-26T11:13:30Z</time>
      </trkpt>
      <trkpt lat="41.852350" lon="-8.109817">
        <ele>416.0</ele>
        <time>2010-08-26T11:13:31Z</time>
      </trkpt>
      <trkpt lat="41.852333" lon="-8.109833">
        <ele>416.0</ele>
        <time>2010-08-26T11:13:32Z</time>
      </trkpt>
      <trkpt lat="41.852317" lon="-8.109850">
        <ele>416.0</ele>
        <time>2010-08-26T11:13:33Z</time>
      </trkpt>
      <trkpt lat="41.852283" lon="-8.109883">
        <ele>416.0</ele>
        <time>2010-08-26T11:13:34Z</time>
      </trkpt>
      <trkpt lat="41.852267" lon="-8.109917">
        <ele>416.0</ele>
        <time>2010-08-26T11:13:36Z</time>
      </trkpt>
      <trkpt lat="41.852250" lon="-8.109950">
        <ele>416.0</ele>
        <time>2010-08-26T11:13:37Z</time>
      </trkpt>
      <trkpt lat="41.852217" lon="-8.109967">
        <ele>416.0</ele>
        <time>2010-08-26T11:13:38Z</time>
      </trkpt>
      <trkpt lat="41.852200" lon="-8.110000">
        <ele>416.0</ele>
        <time>2010-08-26T11:13:39Z</time>
      </trkpt>
      <trkpt lat="41.852183" lon="-8.110017">
        <ele>416.0</ele>
        <time>2010-08-26T11:13:40Z</time>
      </trkpt>
      <trkpt lat="41.852150" lon="-8.110050">
        <ele>416.0</ele>
        <time>2010-08-26T11:13:41Z</time>
      </trkpt>
      <trkpt lat="41.852133" lon="-8.110083">
        <ele>417.0</ele>
        <time>2010-08-26T11:13:42Z</time>
      </trkpt>
      <trkpt lat="41.852117" lon="-8.110117">
        <ele>417.0</ele>
        <time>2010-08-26T11:13:43Z</time>
      </trkpt>
      <trkpt lat="41.852100" lon="-8.110133">
        <ele>417.0</ele>
        <time>2010-08-26T11:13:44Z</time>
      </trkpt>
      <trkpt lat="41.852067" lon="-8.110167">
        <ele>417.0</ele>
        <time>2010-08-26T11:13:45Z</time>
      </trkpt>
      <trkpt lat="41.852050" lon="-8.110200">
        <ele>418.0</ele>
        <time>2010-08-26T11:13:46Z</time>
      </trkpt>
      <trkpt lat="41.852033" lon="-8.110217">
        <ele>418.0</ele>
        <time>2010-08-26T11:13:47Z</time>
      </trkpt>
      <trkpt lat="41.852000" lon="-8.110233">
        <ele>418.0</ele>
        <time>2010-08-26T11:13:48Z</time>
      </trkpt>
      <trkpt lat="41.851983" lon="-8.110267">
        <ele>419.0</ele>
        <time>2010-08-26T11:13:49Z</time>
      </trkpt>
      <trkpt lat="41.851967" lon="-8.110300">
        <ele>419.0</ele>
        <time>2010-08-26T11:13:50Z</time>
      </trkpt>
      <trkpt lat="41.851950" lon="-8.110333">
        <ele>419.0</ele>
        <time>2010-08-26T11:13:51Z</time>
      </trkpt>
      <trkpt lat="41.851933" lon="-8.110350">
        <ele>420.0</ele>
        <time>2010-08-26T11:13:52Z</time>
      </trkpt>
      <trkpt lat="41.851900" lon="-8.110383">
        <ele>421.0</ele>
        <time>2010-08-26T11:13:54Z</time>
      </trkpt>
      <trkpt lat="41.851883" lon="-8.110433">
        <ele>422.0</ele>
        <time>2010-08-26T11:13:56Z</time>
      </trkpt>
      <trkpt lat="41.851850" lon="-8.110450">
        <ele>422.0</ele>
        <time>2010-08-26T11:13:57Z</time>
      </trkpt>
      <trkpt lat="41.851833" lon="-8.110483">
        <ele>423.0</ele>
        <time>2010-08-26T11:13:58Z</time>
      </trkpt>
      <trkpt lat="41.851817" lon="-8.110500">
        <ele>423.0</ele>
        <time>2010-08-26T11:13:59Z</time>
      </trkpt>
      <trkpt lat="41.851800" lon="-8.110550">
        <ele>424.0</ele>
        <time>2010-08-26T11:14:00Z</time>
      </trkpt>
      <trkpt lat="41.851783" lon="-8.110567">
        <ele>424.0</ele>
        <time>2010-08-26T11:14:01Z</time>
      </trkpt>
      <trkpt lat="41.851767" lon="-8.110600">
        <ele>424.0</ele>
        <time>2010-08-26T11:14:02Z</time>
      </trkpt>
      <trkpt lat="41.851733" lon="-8.110633">
        <ele>424.0</ele>
        <time>2010-08-26T11:14:03Z</time>
      </trkpt>
      <trkpt lat="41.851700" lon="-8.110667">
        <ele>424.0</ele>
        <time>2010-08-26T11:14:04Z</time>
      </trkpt>
      <trkpt lat="41.851683" lon="-8.110700">
        <ele>425.0</ele>
        <time>2010-08-26T11:14:05Z</time>
      </trkpt>
      <trkpt lat="41.851650" lon="-8.110750">
        <ele>424.0</ele>
        <time>2010-08-26T11:14:06Z</time>
      </trkpt>
      <trkpt lat="41.851617" lon="-8.110783">
        <ele>424.0</ele>
        <time>2010-08-26T11:14:07Z</time>
      </trkpt>
      <trkpt lat="41.851583" lon="-8.110817">
        <ele>424.0</ele>
        <time>2010-08-26T11:14:08Z</time>
      </trkpt>
      <trkpt lat="41.851550" lon="-8.110850">
        <ele>424.0</ele>
        <time>2010-08-26T11:14:09Z</time>
      </trkpt>
      <trkpt lat="41.851517" lon="-8.110867">
        <ele>424.0</ele>
        <time>2010-08-26T11:14:10Z</time>
      </trkpt>
      <trkpt lat="41.851467" lon="-8.110900">
        <ele>423.0</ele>
        <time>2010-08-26T11:14:11Z</time>
      </trkpt>
      <trkpt lat="41.851417" lon="-8.110917">
        <ele>422.0</ele>
        <time>2010-08-26T11:14:12Z</time>
      </trkpt>
      <trkpt lat="41.851350" lon="-8.110933">
        <ele>422.0</ele>
        <time>2010-08-26T11:14:13Z</time>
      </trkpt>
      <trkpt lat="41.851283" lon="-8.110950">
        <ele>421.0</ele>
        <time>2010-08-26T11:14:14Z</time>
      </trkpt>
      <trkpt lat="41.851217" lon="-8.110950">
        <ele>419.0</ele>
        <time>2010-08-26T11:14:15Z</time>
      </trkpt>
      <trkpt lat="41.851133" lon="-8.110967">
        <ele>418.0</ele>
        <time>2010-08-26T11:14:16Z</time>
      </trkpt>
      <trkpt lat="41.851067" lon="-8.110983">
        <ele>417.0</ele>
        <time>2010-08-26T11:14:17Z</time>
      </trkpt>
      <trkpt lat="41.850983" lon="-8.111000">
        <ele>416.0</ele>
        <time>2010-08-26T11:14:18Z</time>
      </trkpt>
      <trkpt lat="41.850917" lon="-8.111033">
        <ele>416.0</ele>
        <time>2010-08-26T11:14:19Z</time>
      </trkpt>
      <trkpt lat="41.850850" lon="-8.111050">
        <ele>415.0</ele>
        <time>2010-08-26T11:14:20Z</time>
      </trkpt>
      <trkpt lat="41.850783" lon="-8.111100">
        <ele>415.0</ele>
        <time>2010-08-26T11:14:21Z</time>
      </trkpt>
      <trkpt lat="41.850733" lon="-8.111133">
        <ele>415.0</ele>
        <time>2010-08-26T11:14:22Z</time>
      </trkpt>
      <trkpt lat="41.850683" lon="-8.111183">
        <ele>415.0</ele>
        <time>2010-08-26T11:14:23Z</time>
      </trkpt>
      <trkpt lat="41.850633" lon="-8.111217">
        <ele>414.0</ele>
        <time>2010-08-26T11:14:24Z</time>
      </trkpt>
      <trkpt lat="41.850600" lon="-8.111250">
        <ele>414.0</ele>
        <time>2010-08-26T11:14:25Z</time>
      </trkpt>
      <trkpt lat="41.850550" lon="-8.111283">
        <ele>414.0</ele>
        <time>2010-08-26T11:14:26Z</time>
      </trkpt>
      <trkpt lat="41.850517" lon="-8.111317">
        <ele>414.0</ele>
        <time>2010-08-26T11:14:27Z</time>
      </trkpt>
      <trkpt lat="41.850483" lon="-8.111333">
        <ele>414.0</ele>
        <time>2010-08-26T11:14:28Z</time>
      </trkpt>
      <trkpt lat="41.850450" lon="-8.111350">
        <ele>413.0</ele>
        <time>2010-08-26T11:14:29Z</time>
      </trkpt>
      <trkpt lat="41.850417" lon="-8.111383">
        <ele>413.0</ele>
        <time>2010-08-26T11:14:30Z</time>
      </trkpt>
      <trkpt lat="41.850400" lon="-8.111400">
        <ele>413.0</ele>
        <time>2010-08-26T11:14:31Z</time>
      </trkpt>
      <trkpt lat="41.850367" lon="-8.111417">
        <ele>412.0</ele>
        <time>2010-08-26T11:14:32Z</time>
      </trkpt>
      <trkpt lat="41.850333" lon="-8.111433">
        <ele>412.0</ele>
        <time>2010-08-26T11:14:33Z</time>
      </trkpt>
      <trkpt lat="41.850317" lon="-8.111450">
        <ele>412.0</ele>
        <time>2010-08-26T11:14:34Z</time>
      </trkpt>
      <trkpt lat="41.850267" lon="-8.111467">
        <ele>412.0</ele>
        <time>2010-08-26T11:14:36Z</time>
      </trkpt>
      <trkpt lat="41.850250" lon="-8.111483">
        <ele>412.0</ele>
        <time>2010-08-26T11:14:37Z</time>
      </trkpt>
      <trkpt lat="41.850217" lon="-8.111500">
        <ele>412.0</ele>
        <time>2010-08-26T11:14:38Z</time>
      </trkpt>
      <trkpt lat="41.850200" lon="-8.111517">
        <ele>412.0</ele>
        <time>2010-08-26T11:14:39Z</time>
      </trkpt>
      <trkpt lat="41.850167" lon="-8.111533">
        <ele>412.0</ele>
        <time>2010-08-26T11:14:40Z</time>
      </trkpt>
      <trkpt lat="41.850150" lon="-8.111550">
        <ele>412.0</ele>
        <time>2010-08-26T11:14:41Z</time>
      </trkpt>
      <trkpt lat="41.850117" lon="-8.111567">
        <ele>412.0</ele>
        <time>2010-08-26T11:14:42Z</time>
      </trkpt>
      <trkpt lat="41.850083" lon="-8.111600">
        <ele>412.0</ele>
        <time>2010-08-26T11:14:43Z</time>
      </trkpt>
      <trkpt lat="41.850067" lon="-8.111617">
        <ele>412.0</ele>
        <time>2010-08-26T11:14:44Z</time>
      </trkpt>
      <trkpt lat="41.850033" lon="-8.111633">
        <ele>412.0</ele>
        <time>2010-08-26T11:14:45Z</time>
      </trkpt>
      <trkpt lat="41.850017" lon="-8.111650">
        <ele>412.0</ele>
        <time>2010-08-26T11:14:46Z</time>
      </trkpt>
      <trkpt lat="41.849983" lon="-8.111667">
        <ele>412.0</ele>
        <time>2010-08-26T11:14:47Z</time>
      </trkpt>
      <trkpt lat="41.849950" lon="-8.111700">
        <ele>411.0</ele>
        <time>2010-08-26T11:14:48Z</time>
      </trkpt>
      <trkpt lat="41.849933" lon="-8.111717">
        <ele>411.0</ele>
        <time>2010-08-26T11:14:49Z</time>
      </trkpt>
      <trkpt lat="41.849900" lon="-8.111733">
        <ele>411.0</ele>
        <time>2010-08-26T11:14:50Z</time>
      </trkpt>
      <trkpt lat="41.849867" lon="-8.111750">
        <ele>411.0</ele>
        <time>2010-08-26T11:14:51Z</time>
      </trkpt>
      <trkpt lat="41.849850" lon="-8.111750">
        <ele>410.0</ele>
        <time>2010-08-26T11:14:52Z</time>
      </trkpt>
      <trkpt lat="41.849817" lon="-8.111767">
        <ele>410.0</ele>
        <time>2010-08-26T11:14:53Z</time>
      </trkpt>
      <trkpt lat="41.849800" lon="-8.111783">
        <ele>410.0</ele>
        <time>2010-08-26T11:14:54Z</time>
      </trkpt>
      <trkpt lat="41.849767" lon="-8.111800">
        <ele>409.0</ele>
        <time>2010-08-26T11:14:55Z</time>
      </trkpt>
      <trkpt lat="41.849733" lon="-8.111800">
        <ele>409.0</ele>
        <time>2010-08-26T11:14:56Z</time>
      </trkpt>
      <trkpt lat="41.849700" lon="-8.111817">
        <ele>409.0</ele>
        <time>2010-08-26T11:14:57Z</time>
      </trkpt>
      <trkpt lat="41.849683" lon="-8.111817">
        <ele>409.0</ele>
        <time>2010-08-26T11:14:58Z</time>
      </trkpt>
      <trkpt lat="41.849650" lon="-8.111833">
        <ele>409.0</ele>
        <time>2010-08-26T11:14:59Z</time>
      </trkpt>
      <trkpt lat="41.849617" lon="-8.111833">
        <ele>409.0</ele>
        <time>2010-08-26T11:15:00Z</time>
      </trkpt>
      <trkpt lat="41.849600" lon="-8.111833">
        <ele>409.0</ele>
        <time>2010-08-26T11:15:01Z</time>
      </trkpt>
      <trkpt lat="41.849567" lon="-8.111850">
        <ele>409.0</ele>
        <time>2010-08-26T11:15:02Z</time>
      </trkpt>
      <trkpt lat="41.849533" lon="-8.111850">
        <ele>409.0</ele>
        <time>2010-08-26T11:15:03Z</time>
      </trkpt>
      <trkpt lat="41.849500" lon="-8.111850">
        <ele>409.0</ele>
        <time>2010-08-26T11:15:04Z</time>
      </trkpt>
      <trkpt lat="41.849467" lon="-8.111850">
        <ele>409.0</ele>
        <time>2010-08-26T11:15:05Z</time>
      </trkpt>
      <trkpt lat="41.849417" lon="-8.111850">
        <ele>410.0</ele>
        <time>2010-08-26T11:15:06Z</time>
      </trkpt>
      <trkpt lat="41.849383" lon="-8.111850">
        <ele>410.0</ele>
        <time>2010-08-26T11:15:07Z</time>
      </trkpt>
      <trkpt lat="41.849333" lon="-8.111833">
        <ele>410.0</ele>
        <time>2010-08-26T11:15:08Z</time>
      </trkpt>
      <trkpt lat="41.849300" lon="-8.111817">
        <ele>410.0</ele>
        <time>2010-08-26T11:15:09Z</time>
      </trkpt>
      <trkpt lat="41.849267" lon="-8.111800">
        <ele>411.0</ele>
        <time>2010-08-26T11:15:10Z</time>
      </trkpt>
      <trkpt lat="41.849233" lon="-8.111800">
        <ele>411.0</ele>
        <time>2010-08-26T11:15:11Z</time>
      </trkpt>
      <trkpt lat="41.849200" lon="-8.111800">
        <ele>411.0</ele>
        <time>2010-08-26T11:15:12Z</time>
      </trkpt>
      <trkpt lat="41.849183" lon="-8.111800">
        <ele>411.0</ele>
        <time>2010-08-26T11:15:13Z</time>
      </trkpt>
      <trkpt lat="41.849150" lon="-8.111783">
        <ele>411.0</ele>
        <time>2010-08-26T11:15:14Z</time>
      </trkpt>
      <trkpt lat="41.849117" lon="-8.111783">
        <ele>411.0</ele>
        <time>2010-08-26T11:15:15Z</time>
      </trkpt>
      <trkpt lat="41.849083" lon="-8.111783">
        <ele>412.0</ele>
        <time>2010-08-26T11:15:16Z</time>
      </trkpt>
      <trkpt lat="41.849067" lon="-8.111783">
        <ele>412.0</ele>
        <time>2010-08-26T11:15:17Z</time>
      </trkpt>
      <trkpt lat="41.849033" lon="-8.111783">
        <ele>412.0</ele>
        <time>2010-08-26T11:15:18Z</time>
      </trkpt>
      <trkpt lat="41.849017" lon="-8.111783">
        <ele>412.0</ele>
        <time>2010-08-26T11:15:19Z</time>
      </trkpt>
      <trkpt lat="41.848983" lon="-8.111783">
        <ele>412.0</ele>
        <time>2010-08-26T11:15:20Z</time>
      </trkpt>
      <trkpt lat="41.848950" lon="-8.111800">
        <ele>413.0</ele>
        <time>2010-08-26T11:15:21Z</time>
      </trkpt>
      <trkpt lat="41.848917" lon="-8.111800">
        <ele>413.0</ele>
        <time>2010-08-26T11:15:22Z</time>
      </trkpt>
      <trkpt lat="41.848867" lon="-8.111817">
        <ele>413.0</ele>
        <time>2010-08-26T11:15:23Z</time>
      </trkpt>
      <trkpt lat="41.848833" lon="-8.111850">
        <ele>413.0</ele>
        <time>2010-08-26T11:15:24Z</time>
      </trkpt>
      <trkpt lat="41.848783" lon="-8.111850">
        <ele>413.0</ele>
        <time>2010-08-26T11:15:25Z</time>
      </trkpt>
      <trkpt lat="41.848750" lon="-8.111867">
        <ele>413.0</ele>
        <time>2010-08-26T11:15:26Z</time>
      </trkpt>
      <trkpt lat="41.848717" lon="-8.111867">
        <ele>413.0</ele>
        <time>2010-08-26T11:15:27Z</time>
      </trkpt>
      <trkpt lat="41.848683" lon="-8.111883">
        <ele>413.0</ele>
        <time>2010-08-26T11:15:28Z</time>
      </trkpt>
      <trkpt lat="41.848667" lon="-8.111900">
        <ele>413.0</ele>
        <time>2010-08-26T11:15:29Z</time>
      </trkpt>
      <trkpt lat="41.848633" lon="-8.111933">
        <ele>413.0</ele>
        <time>2010-08-26T11:15:30Z</time>
      </trkpt>
      <trkpt lat="41.848617" lon="-8.111950">
        <ele>413.0</ele>
        <time>2010-08-26T11:15:31Z</time>
      </trkpt>
      <trkpt lat="41.848600" lon="-8.111983">
        <ele>413.0</ele>
        <time>2010-08-26T11:15:32Z</time>
      </trkpt>
      <trkpt lat="41.848583" lon="-8.112017">
        <ele>413.0</ele>
        <time>2010-08-26T11:15:33Z</time>
      </trkpt>
      <trkpt lat="41.848583" lon="-8.112067">
        <ele>413.0</ele>
        <time>2010-08-26T11:15:34Z</time>
      </trkpt>
      <trkpt lat="41.848567" lon="-8.112100">
        <ele>413.0</ele>
        <time>2010-08-26T11:15:35Z</time>
      </trkpt>
      <trkpt lat="41.848567" lon="-8.112150">
        <ele>413.0</ele>
        <time>2010-08-26T11:15:36Z</time>
      </trkpt>
      <trkpt lat="41.848583" lon="-8.112200">
        <ele>414.0</ele>
        <time>2010-08-26T11:15:38Z</time>
      </trkpt>
      <trkpt lat="41.848617" lon="-8.112233">
        <ele>414.0</ele>
        <time>2010-08-26T11:15:40Z</time>
      </trkpt>
      <trkpt lat="41.848633" lon="-8.112250">
        <ele>414.0</ele>
        <time>2010-08-26T11:15:41Z</time>
      </trkpt>
      <trkpt lat="41.848667" lon="-8.112283">
        <ele>414.0</ele>
        <time>2010-08-26T11:15:42Z</time>
      </trkpt>
      <trkpt lat="41.848683" lon="-8.112317">
        <ele>413.0</ele>
        <time>2010-08-26T11:15:43Z</time>
      </trkpt>
      <trkpt lat="41.848683" lon="-8.112350">
        <ele>413.0</ele>
        <time>2010-08-26T11:15:44Z</time>
      </trkpt>
      <trkpt lat="41.848683" lon="-8.112383">
        <ele>413.0</ele>
        <time>2010-08-26T11:15:45Z</time>
      </trkpt>
      <trkpt lat="41.848683" lon="-8.112417">
        <ele>413.0</ele>
        <time>2010-08-26T11:15:46Z</time>
      </trkpt>
      <trkpt lat="41.848667" lon="-8.112433">
        <ele>413.0</ele>
        <time>2010-08-26T11:15:47Z</time>
      </trkpt>
      <trkpt lat="41.848617" lon="-8.112467">
        <ele>413.0</ele>
        <time>2010-08-26T11:15:49Z</time>
      </trkpt>
      <trkpt lat="41.848583" lon="-8.112483">
        <ele>413.0</ele>
        <time>2010-08-26T11:15:51Z</time>
      </trkpt>
      <trkpt lat="41.848550" lon="-8.112467">
        <ele>414.0</ele>
        <time>2010-08-26T11:16:20Z</time>
      </trkpt>
      <trkpt lat="41.848517" lon="-8.112500">
        <ele>415.0</ele>
        <time>2010-08-26T11:16:24Z</time>
      </trkpt>
      <trkpt lat="41.848467" lon="-8.112517">
        <ele>415.0</ele>
        <time>2010-08-26T11:16:26Z</time>
      </trkpt>
      <trkpt lat="41.848433" lon="-8.112533">
        <ele>415.0</ele>
        <time>2010-08-26T11:16:28Z</time>
      </trkpt>
      <trkpt lat="41.848400" lon="-8.112533">
        <ele>415.0</ele>
        <time>2010-08-26T11:16:29Z</time>
      </trkpt>
      <trkpt lat="41.848367" lon="-8.112533">
        <ele>415.0</ele>
        <time>2010-08-26T11:16:31Z</time>
      </trkpt>
      <trkpt lat="41.848333" lon="-8.112533">
        <ele>415.0</ele>
        <time>2010-08-26T11:16:32Z</time>
      </trkpt>
      <trkpt lat="41.848317" lon="-8.112517">
        <ele>415.0</ele>
        <time>2010-08-26T11:16:33Z</time>
      </trkpt>
      <trkpt lat="41.848300" lon="-8.112500">
        <ele>415.0</ele>
        <time>2010-08-26T11:16:34Z</time>
      </trkpt>
      <trkpt lat="41.848267" lon="-8.112483">
        <ele>415.0</ele>
        <time>2010-08-26T11:16:35Z</time>
      </trkpt>
      <trkpt lat="41.848250" lon="-8.112467">
        <ele>415.0</ele>
        <time>2010-08-26T11:16:36Z</time>
      </trkpt>
      <trkpt lat="41.848233" lon="-8.112450">
        <ele>415.0</ele>
        <time>2010-08-26T11:16:37Z</time>
      </trkpt>
      <trkpt lat="41.848217" lon="-8.112433">
        <ele>415.0</ele>
        <time>2010-08-26T11:16:38Z</time>
      </trkpt>
      <trkpt lat="41.848183" lon="-8.112433">
        <ele>415.0</ele>
        <time>2010-08-26T11:16:39Z</time>
      </trkpt>
      <trkpt lat="41.848150" lon="-8.112400">
        <ele>416.0</ele>
        <time>2010-08-26T11:16:41Z</time>
      </trkpt>
      <trkpt lat="41.848117" lon="-8.112383">
        <ele>416.0</ele>
        <time>2010-08-26T11:16:43Z</time>
      </trkpt>
      <trkpt lat="41.848100" lon="-8.112367">
        <ele>416.0</ele>
        <time>2010-08-26T11:16:45Z</time>
      </trkpt>
      <trkpt lat="41.848067" lon="-8.112350">
        <ele>417.0</ele>
        <time>2010-08-26T11:16:47Z</time>
      </trkpt>
      <trkpt lat="41.848033" lon="-8.112350">
        <ele>417.0</ele>
        <time>2010-08-26T11:16:49Z</time>
      </trkpt>
      <trkpt lat="41.848000" lon="-8.112350">
        <ele>417.0</ele>
        <time>2010-08-26T11:16:51Z</time>
      </trkpt>
      <trkpt lat="41.847967" lon="-8.112333">
        <ele>417.0</ele>
        <time>2010-08-26T11:16:53Z</time>
      </trkpt>
      <trkpt lat="41.847917" lon="-8.112333">
        <ele>418.0</ele>
        <time>2010-08-26T11:16:55Z</time>
      </trkpt>
      <trkpt lat="41.847900" lon="-8.112333">
        <ele>418.0</ele>
        <time>2010-08-26T11:16:57Z</time>
      </trkpt>
      <trkpt lat="41.847867" lon="-8.112317">
        <ele>419.0</ele>
        <time>2010-08-26T11:16:59Z</time>
      </trkpt>
      <trkpt lat="41.847833" lon="-8.112333">
        <ele>419.0</ele>
        <time>2010-08-26T11:17:01Z</time>
      </trkpt>
      <trkpt lat="41.847800" lon="-8.112317">
        <ele>419.0</ele>
        <time>2010-08-26T11:17:03Z</time>
      </trkpt>
      <trkpt lat="41.847750" lon="-8.112317">
        <ele>420.0</ele>
        <time>2010-08-26T11:17:06Z</time>
      </trkpt>
      <trkpt lat="41.847717" lon="-8.112317">
        <ele>421.0</ele>
        <time>2010-08-26T11:17:09Z</time>
      </trkpt>
      <trkpt lat="41.847683" lon="-8.112317">
        <ele>421.0</ele>
        <time>2010-08-26T11:17:11Z</time>
      </trkpt>
      <trkpt lat="41.847633" lon="-8.112317">
        <ele>421.0</ele>
        <time>2010-08-26T11:17:14Z</time>
      </trkpt>
      <trkpt lat="41.847600" lon="-8.112333">
        <ele>422.0</ele>
        <time>2010-08-26T11:17:17Z</time>
      </trkpt>
      <trkpt lat="41.847567" lon="-8.112350">
        <ele>422.0</ele>
        <time>2010-08-26T11:17:20Z</time>
      </trkpt>
      <trkpt lat="41.847533" lon="-8.112350">
        <ele>423.0</ele>
        <time>2010-08-26T11:17:23Z</time>
      </trkpt>
      <trkpt lat="41.847483" lon="-8.112367">
        <ele>423.0</ele>
        <time>2010-08-26T11:17:26Z</time>
      </trkpt>
      <trkpt lat="41.847450" lon="-8.112383">
        <ele>424.0</ele>
        <time>2010-08-26T11:17:29Z</time>
      </trkpt>
      <trkpt lat="41.847417" lon="-8.112400">
        <ele>425.0</ele>
        <time>2010-08-26T11:17:32Z</time>
      </trkpt>
      <trkpt lat="41.847383" lon="-8.112433">
        <ele>425.0</ele>
        <time>2010-08-26T11:17:35Z</time>
      </trkpt>
      <trkpt lat="41.847350" lon="-8.112433">
        <ele>426.0</ele>
        <time>2010-08-26T11:17:37Z</time>
      </trkpt>
      <trkpt lat="41.847317" lon="-8.112450">
        <ele>426.0</ele>
        <time>2010-08-26T11:17:39Z</time>
      </trkpt>
      <trkpt lat="41.847283" lon="-8.112467">
        <ele>427.0</ele>
        <time>2010-08-26T11:17:41Z</time>
      </trkpt>
      <trkpt lat="41.847267" lon="-8.112483">
        <ele>427.0</ele>
        <time>2010-08-26T11:17:43Z</time>
      </trkpt>
      <trkpt lat="41.847233" lon="-8.112500">
        <ele>427.0</ele>
        <time>2010-08-26T11:17:45Z</time>
      </trkpt>
      <trkpt lat="41.847200" lon="-8.112517">
        <ele>427.0</ele>
        <time>2010-08-26T11:17:47Z</time>
      </trkpt>
      <trkpt lat="41.847167" lon="-8.112550">
        <ele>427.0</ele>
        <time>2010-08-26T11:17:49Z</time>
      </trkpt>
      <trkpt lat="41.847150" lon="-8.112567">
        <ele>427.0</ele>
        <time>2010-08-26T11:17:51Z</time>
      </trkpt>
      <trkpt lat="41.847117" lon="-8.112600">
        <ele>427.0</ele>
        <time>2010-08-26T11:17:53Z</time>
      </trkpt>
      <trkpt lat="41.847083" lon="-8.112617">
        <ele>427.0</ele>
        <time>2010-08-26T11:17:55Z</time>
      </trkpt>
      <trkpt lat="41.847050" lon="-8.112650">
        <ele>427.0</ele>
        <time>2010-08-26T11:17:57Z</time>
      </trkpt>
      <trkpt lat="41.847033" lon="-8.112667">
        <ele>427.0</ele>
        <time>2010-08-26T11:17:59Z</time>
      </trkpt>
      <trkpt lat="41.847000" lon="-8.112683">
        <ele>427.0</ele>
        <time>2010-08-26T11:18:01Z</time>
      </trkpt>
      <trkpt lat="41.846967" lon="-8.112700">
        <ele>427.0</ele>
        <time>2010-08-26T11:18:03Z</time>
      </trkpt>
      <trkpt lat="41.846933" lon="-8.112717">
        <ele>427.0</ele>
        <time>2010-08-26T11:18:05Z</time>
      </trkpt>
      <trkpt lat="41.846900" lon="-8.112733">
        <ele>427.0</ele>
        <time>2010-08-26T11:18:07Z</time>
      </trkpt>
      <trkpt lat="41.846867" lon="-8.112733">
        <ele>427.0</ele>
        <time>2010-08-26T11:18:09Z</time>
      </trkpt>
      <trkpt lat="41.846817" lon="-8.112733">
        <ele>427.0</ele>
        <time>2010-08-26T11:18:11Z</time>
      </trkpt>
      <trkpt lat="41.846783" lon="-8.112733">
        <ele>427.0</ele>
        <time>2010-08-26T11:18:13Z</time>
      </trkpt>
      <trkpt lat="41.846750" lon="-8.112717">
        <ele>427.0</ele>
        <time>2010-08-26T11:18:15Z</time>
      </trkpt>
      <trkpt lat="41.846717" lon="-8.112717">
        <ele>427.0</ele>
        <time>2010-08-26T11:18:17Z</time>
      </trkpt>
      <trkpt lat="41.846700" lon="-8.112717">
        <ele>428.0</ele>
        <time>2010-08-26T11:18:19Z</time>
      </trkpt>
      <trkpt lat="41.846667" lon="-8.112717">
        <ele>428.0</ele>
        <time>2010-08-26T11:18:21Z</time>
      </trkpt>
      <trkpt lat="41.846633" lon="-8.112717">
        <ele>429.0</ele>
        <time>2010-08-26T11:18:23Z</time>
      </trkpt>
      <trkpt lat="41.846600" lon="-8.112700">
        <ele>429.0</ele>
        <time>2010-08-26T11:18:25Z</time>
      </trkpt>
      <trkpt lat="41.846567" lon="-8.112700">
        <ele>430.0</ele>
        <time>2010-08-26T11:18:27Z</time>
      </trkpt>
      <trkpt lat="41.846533" lon="-8.112700">
        <ele>431.0</ele>
        <time>2010-08-26T11:18:29Z</time>
      </trkpt>
      <trkpt lat="41.846500" lon="-8.112717">
        <ele>431.0</ele>
        <time>2010-08-26T11:18:31Z</time>
      </trkpt>
      <trkpt lat="41.846467" lon="-8.112717">
        <ele>432.0</ele>
        <time>2010-08-26T11:18:33Z</time>
      </trkpt>
      <trkpt lat="41.846433" lon="-8.112717">
        <ele>432.0</ele>
        <time>2010-08-26T11:18:35Z</time>
      </trkpt>
      <trkpt lat="41.846400" lon="-8.112717">
        <ele>432.0</ele>
        <time>2010-08-26T11:18:37Z</time>
      </trkpt>
      <trkpt lat="41.846367" lon="-8.112717">
        <ele>433.0</ele>
        <time>2010-08-26T11:18:39Z</time>
      </trkpt>
      <trkpt lat="41.846333" lon="-8.112733">
        <ele>433.0</ele>
        <time>2010-08-26T11:18:41Z</time>
      </trkpt>
      <trkpt lat="41.846300" lon="-8.112733">
        <ele>433.0</ele>
        <time>2010-08-26T11:18:43Z</time>
      </trkpt>
      <trkpt lat="41.846267" lon="-8.112750">
        <ele>433.0</ele>
        <time>2010-08-26T11:18:45Z</time>
      </trkpt>
      <trkpt lat="41.846233" lon="-8.112750">
        <ele>434.0</ele>
        <time>2010-08-26T11:18:47Z</time>
      </trkpt>
      <trkpt lat="41.846200" lon="-8.112767">
        <ele>434.0</ele>
        <time>2010-08-26T11:18:49Z</time>
      </trkpt>
      <trkpt lat="41.846167" lon="-8.112800">
        <ele>434.0</ele>
        <time>2010-08-26T11:18:51Z</time>
      </trkpt>
      <trkpt lat="41.846133" lon="-8.112817">
        <ele>434.0</ele>
        <time>2010-08-26T11:18:53Z</time>
      </trkpt>
      <trkpt lat="41.846100" lon="-8.112850">
        <ele>434.0</ele>
        <time>2010-08-26T11:18:55Z</time>
      </trkpt>
      <trkpt lat="41.846083" lon="-8.112867">
        <ele>434.0</ele>
        <time>2010-08-26T11:18:57Z</time>
      </trkpt>
      <trkpt lat="41.846050" lon="-8.112883">
        <ele>434.0</ele>
        <time>2010-08-26T11:18:59Z</time>
      </trkpt>
      <trkpt lat="41.846017" lon="-8.112917">
        <ele>434.0</ele>
        <time>2010-08-26T11:19:01Z</time>
      </trkpt>
      <trkpt lat="41.845983" lon="-8.112933">
        <ele>434.0</ele>
        <time>2010-08-26T11:19:03Z</time>
      </trkpt>
      <trkpt lat="41.845950" lon="-8.112950">
        <ele>435.0</ele>
        <time>2010-08-26T11:19:05Z</time>
      </trkpt>
      <trkpt lat="41.845933" lon="-8.112967">
        <ele>435.0</ele>
        <time>2010-08-26T11:19:07Z</time>
      </trkpt>
      <trkpt lat="41.845900" lon="-8.112983">
        <ele>435.0</ele>
        <time>2010-08-26T11:19:09Z</time>
      </trkpt>
      <trkpt lat="41.845867" lon="-8.113000">
        <ele>435.0</ele>
        <time>2010-08-26T11:19:11Z</time>
      </trkpt>
      <trkpt lat="41.845833" lon="-8.113033">
        <ele>435.0</ele>
        <time>2010-08-26T11:19:13Z</time>
      </trkpt>
      <trkpt lat="41.845800" lon="-8.113050">
        <ele>435.0</ele>
        <time>2010-08-26T11:19:15Z</time>
      </trkpt>
      <trkpt lat="41.845767" lon="-8.113067">
        <ele>436.0</ele>
        <time>2010-08-26T11:19:17Z</time>
      </trkpt>
      <trkpt lat="41.845750" lon="-8.113083">
        <ele>436.0</ele>
        <time>2010-08-26T11:19:19Z</time>
      </trkpt>
      <trkpt lat="41.845717" lon="-8.113117">
        <ele>436.0</ele>
        <time>2010-08-26T11:19:21Z</time>
      </trkpt>
      <trkpt lat="41.845683" lon="-8.113133">
        <ele>436.0</ele>
        <time>2010-08-26T11:19:23Z</time>
      </trkpt>
      <trkpt lat="41.845667" lon="-8.113150">
        <ele>437.0</ele>
        <time>2010-08-26T11:19:25Z</time>
      </trkpt>
      <trkpt lat="41.845617" lon="-8.113167">
        <ele>437.0</ele>
        <time>2010-08-26T11:19:28Z</time>
      </trkpt>
      <trkpt lat="41.845583" lon="-8.113200">
        <ele>437.0</ele>
        <time>2010-08-26T11:19:31Z</time>
      </trkpt>
      <trkpt lat="41.845550" lon="-8.113200">
        <ele>438.0</ele>
        <time>2010-08-26T11:19:33Z</time>
      </trkpt>
      <trkpt lat="41.845517" lon="-8.113217">
        <ele>438.0</ele>
        <time>2010-08-26T11:19:35Z</time>
      </trkpt>
      <trkpt lat="41.845483" lon="-8.113233">
        <ele>438.0</ele>
        <time>2010-08-26T11:19:38Z</time>
      </trkpt>
      <trkpt lat="41.845433" lon="-8.113267">
        <ele>438.0</ele>
        <time>2010-08-26T11:19:41Z</time>
      </trkpt>
      <trkpt lat="41.845400" lon="-8.113283">
        <ele>439.0</ele>
        <time>2010-08-26T11:19:44Z</time>
      </trkpt>
      <trkpt lat="41.845367" lon="-8.113317">
        <ele>439.0</ele>
        <time>2010-08-26T11:19:46Z</time>
      </trkpt>
      <trkpt lat="41.845350" lon="-8.113333">
        <ele>439.0</ele>
        <time>2010-08-26T11:19:48Z</time>
      </trkpt>
      <trkpt lat="41.845317" lon="-8.113383">
        <ele>439.0</ele>
        <time>2010-08-26T11:19:51Z</time>
      </trkpt>
      <trkpt lat="41.845300" lon="-8.113417">
        <ele>440.0</ele>
        <time>2010-08-26T11:19:53Z</time>
      </trkpt>
      <trkpt lat="41.845267" lon="-8.113433">
        <ele>440.0</ele>
        <time>2010-08-26T11:19:55Z</time>
      </trkpt>
      <trkpt lat="41.845250" lon="-8.113467">
        <ele>440.0</ele>
        <time>2010-08-26T11:19:57Z</time>
      </trkpt>
      <trkpt lat="41.845217" lon="-8.113500">
        <ele>440.0</ele>
        <time>2010-08-26T11:19:59Z</time>
      </trkpt>
      <trkpt lat="41.845183" lon="-8.113533">
        <ele>440.0</ele>
        <time>2010-08-26T11:20:01Z</time>
      </trkpt>
      <trkpt lat="41.845150" lon="-8.113550">
        <ele>439.0</ele>
        <time>2010-08-26T11:20:03Z</time>
      </trkpt>
      <trkpt lat="41.845117" lon="-8.113583">
        <ele>439.0</ele>
        <time>2010-08-26T11:20:05Z</time>
      </trkpt>
      <trkpt lat="41.845083" lon="-8.113617">
        <ele>439.0</ele>
        <time>2010-08-26T11:20:07Z</time>
      </trkpt>
      <trkpt lat="41.845050" lon="-8.113650">
        <ele>439.0</ele>
        <time>2010-08-26T11:20:09Z</time>
      </trkpt>
      <trkpt lat="41.845017" lon="-8.113683">
        <ele>439.0</ele>
        <time>2010-08-26T11:20:11Z</time>
      </trkpt>
      <trkpt lat="41.845000" lon="-8.113700">
        <ele>439.0</ele>
        <time>2010-08-26T11:20:12Z</time>
      </trkpt>
      <trkpt lat="41.844967" lon="-8.113733">
        <ele>439.0</ele>
        <time>2010-08-26T11:20:14Z</time>
      </trkpt>
      <trkpt lat="41.844933" lon="-8.113733">
        <ele>439.0</ele>
        <time>2010-08-26T11:20:15Z</time>
      </trkpt>
      <trkpt lat="41.844917" lon="-8.113750">
        <ele>439.0</ele>
        <time>2010-08-26T11:20:16Z</time>
      </trkpt>
      <trkpt lat="41.844900" lon="-8.113767">
        <ele>439.0</ele>
        <time>2010-08-26T11:20:17Z</time>
      </trkpt>
      <trkpt lat="41.844883" lon="-8.113783">
        <ele>439.0</ele>
        <time>2010-08-26T11:20:18Z</time>
      </trkpt>
      <trkpt lat="41.844850" lon="-8.113800">
        <ele>439.0</ele>
        <time>2010-08-26T11:20:19Z</time>
      </trkpt>
      <trkpt lat="41.844833" lon="-8.113817">
        <ele>439.0</ele>
        <time>2010-08-26T11:20:20Z</time>
      </trkpt>
      <trkpt lat="41.844817" lon="-8.113817">
        <ele>439.0</ele>
        <time>2010-08-26T11:20:21Z</time>
      </trkpt>
      <trkpt lat="41.844783" lon="-8.113833">
        <ele>439.0</ele>
        <time>2010-08-26T11:20:22Z</time>
      </trkpt>
      <trkpt lat="41.844767" lon="-8.113850">
        <ele>439.0</ele>
        <time>2010-08-26T11:20:23Z</time>
      </trkpt>
      <trkpt lat="41.844750" lon="-8.113850">
        <ele>439.0</ele>
        <time>2010-08-26T11:20:24Z</time>
      </trkpt>
      <trkpt lat="41.844717" lon="-8.113867">
        <ele>439.0</ele>
        <time>2010-08-26T11:20:25Z</time>
      </trkpt>
      <trkpt lat="41.844700" lon="-8.113883">
        <ele>439.0</ele>
        <time>2010-08-26T11:20:26Z</time>
      </trkpt>
      <trkpt lat="41.844683" lon="-8.113883">
        <ele>439.0</ele>
        <time>2010-08-26T11:20:27Z</time>
      </trkpt>
      <trkpt lat="41.844650" lon="-8.113900">
        <ele>439.0</ele>
        <time>2010-08-26T11:20:28Z</time>
      </trkpt>
      <trkpt lat="41.844633" lon="-8.113900">
        <ele>439.0</ele>
        <time>2010-08-26T11:20:29Z</time>
      </trkpt>
      <trkpt lat="41.844600" lon="-8.113917">
        <ele>439.0</ele>
        <time>2010-08-26T11:20:30Z</time>
      </trkpt>
      <trkpt lat="41.844583" lon="-8.113933">
        <ele>439.0</ele>
        <time>2010-08-26T11:20:31Z</time>
      </trkpt>
      <trkpt lat="41.844567" lon="-8.113933">
        <ele>439.0</ele>
        <time>2010-08-26T11:20:32Z</time>
      </trkpt>
      <trkpt lat="41.844533" lon="-8.113950">
        <ele>439.0</ele>
        <time>2010-08-26T11:20:33Z</time>
      </trkpt>
      <trkpt lat="41.844517" lon="-8.113967">
        <ele>439.0</ele>
        <time>2010-08-26T11:20:34Z</time>
      </trkpt>
      <trkpt lat="41.844500" lon="-8.113967">
        <ele>439.0</ele>
        <time>2010-08-26T11:20:35Z</time>
      </trkpt>
      <trkpt lat="41.844467" lon="-8.113983">
        <ele>439.0</ele>
        <time>2010-08-26T11:20:36Z</time>
      </trkpt>
      <trkpt lat="41.844450" lon="-8.114000">
        <ele>439.0</ele>
        <time>2010-08-26T11:20:37Z</time>
      </trkpt>
      <trkpt lat="41.844433" lon="-8.114000">
        <ele>439.0</ele>
        <time>2010-08-26T11:20:38Z</time>
      </trkpt>
      <trkpt lat="41.844400" lon="-8.114017">
        <ele>440.0</ele>
        <time>2010-08-26T11:20:39Z</time>
      </trkpt>
      <trkpt lat="41.844383" lon="-8.114033">
        <ele>440.0</ele>
        <time>2010-08-26T11:20:40Z</time>
      </trkpt>
      <trkpt lat="41.844350" lon="-8.114033">
        <ele>440.0</ele>
        <time>2010-08-26T11:20:41Z</time>
      </trkpt>
      <trkpt lat="41.844333" lon="-8.114050">
        <ele>440.0</ele>
        <time>2010-08-26T11:20:42Z</time>
      </trkpt>
      <trkpt lat="41.844317" lon="-8.114067">
        <ele>440.0</ele>
        <time>2010-08-26T11:20:43Z</time>
      </trkpt>
      <trkpt lat="41.844283" lon="-8.114083">
        <ele>440.0</ele>
        <time>2010-08-26T11:20:44Z</time>
      </trkpt>
      <trkpt lat="41.844267" lon="-8.114100">
        <ele>440.0</ele>
        <time>2010-08-26T11:20:45Z</time>
      </trkpt>
      <trkpt lat="41.844250" lon="-8.114100">
        <ele>440.0</ele>
        <time>2010-08-26T11:20:46Z</time>
      </trkpt>
      <trkpt lat="41.844217" lon="-8.114117">
        <ele>440.0</ele>
        <time>2010-08-26T11:20:47Z</time>
      </trkpt>
      <trkpt lat="41.844200" lon="-8.114133">
        <ele>440.0</ele>
        <time>2010-08-26T11:20:48Z</time>
      </trkpt>
      <trkpt lat="41.844167" lon="-8.114150">
        <ele>440.0</ele>
        <time>2010-08-26T11:20:49Z</time>
      </trkpt>
      <trkpt lat="41.844150" lon="-8.114150">
        <ele>440.0</ele>
        <time>2010-08-26T11:20:50Z</time>
      </trkpt>
      <trkpt lat="41.844117" lon="-8.114150">
        <ele>440.0</ele>
        <time>2010-08-26T11:20:51Z</time>
      </trkpt>
      <trkpt lat="41.844100" lon="-8.114150">
        <ele>440.0</ele>
        <time>2010-08-26T11:20:52Z</time>
      </trkpt>
      <trkpt lat="41.844067" lon="-8.114150">
        <ele>440.0</ele>
        <time>2010-08-26T11:20:53Z</time>
      </trkpt>
      <trkpt lat="41.844033" lon="-8.114167">
        <ele>440.0</ele>
        <time>2010-08-26T11:20:55Z</time>
      </trkpt>
      <trkpt lat="41.844000" lon="-8.114183">
        <ele>440.0</ele>
        <time>2010-08-26T11:20:56Z</time>
      </trkpt>
      <trkpt lat="41.843983" lon="-8.114200">
        <ele>440.0</ele>
        <time>2010-08-26T11:20:57Z</time>
      </trkpt>
      <trkpt lat="41.843967" lon="-8.114217">
        <ele>440.0</ele>
        <time>2010-08-26T11:20:58Z</time>
      </trkpt>
      <trkpt lat="41.843950" lon="-8.114233">
        <ele>440.0</ele>
        <time>2010-08-26T11:20:59Z</time>
      </trkpt>
      <trkpt lat="41.843917" lon="-8.114250">
        <ele>440.0</ele>
        <time>2010-08-26T11:21:00Z</time>
      </trkpt>
      <trkpt lat="41.843900" lon="-8.114267">
        <ele>440.0</ele>
        <time>2010-08-26T11:21:01Z</time>
      </trkpt>
      <trkpt lat="41.843883" lon="-8.114283">
        <ele>440.0</ele>
        <time>2010-08-26T11:21:02Z</time>
      </trkpt>
      <trkpt lat="41.843867" lon="-8.114300">
        <ele>440.0</ele>
        <time>2010-08-26T11:21:03Z</time>
      </trkpt>
      <trkpt lat="41.843850" lon="-8.114317">
        <ele>441.0</ele>
        <time>2010-08-26T11:21:04Z</time>
      </trkpt>
      <trkpt lat="41.843817" lon="-8.114333">
        <ele>441.0</ele>
        <time>2010-08-26T11:21:05Z</time>
      </trkpt>
      <trkpt lat="41.843800" lon="-8.114350">
        <ele>441.0</ele>
        <time>2010-08-26T11:21:06Z</time>
      </trkpt>
      <trkpt lat="41.843783" lon="-8.114367">
        <ele>441.0</ele>
        <time>2010-08-26T11:21:07Z</time>
      </trkpt>
      <trkpt lat="41.843750" lon="-8.114367">
        <ele>441.0</ele>
        <time>2010-08-26T11:21:08Z</time>
      </trkpt>
      <trkpt lat="41.843733" lon="-8.114383">
        <ele>441.0</ele>
        <time>2010-08-26T11:21:09Z</time>
      </trkpt>
      <trkpt lat="41.843717" lon="-8.114400">
        <ele>442.0</ele>
        <time>2010-08-26T11:21:10Z</time>
      </trkpt>
      <trkpt lat="41.843683" lon="-8.114417">
        <ele>442.0</ele>
        <time>2010-08-26T11:21:11Z</time>
      </trkpt>
      <trkpt lat="41.843667" lon="-8.114417">
        <ele>442.0</ele>
        <time>2010-08-26T11:21:12Z</time>
      </trkpt>
      <trkpt lat="41.843650" lon="-8.114417">
        <ele>442.0</ele>
        <time>2010-08-26T11:21:13Z</time>
      </trkpt>
      <trkpt lat="41.843600" lon="-8.114433">
        <ele>443.0</ele>
        <time>2010-08-26T11:21:15Z</time>
      </trkpt>
      <trkpt lat="41.843550" lon="-8.114433">
        <ele>443.0</ele>
        <time>2010-08-26T11:21:17Z</time>
      </trkpt>
      <trkpt lat="41.843517" lon="-8.114450">
        <ele>444.0</ele>
        <time>2010-08-26T11:21:19Z</time>
      </trkpt>
      <trkpt lat="41.843467" lon="-8.114450">
        <ele>444.0</ele>
        <time>2010-08-26T11:21:21Z</time>
      </trkpt>
      <trkpt lat="41.843450" lon="-8.114467">
        <ele>444.0</ele>
        <time>2010-08-26T11:21:22Z</time>
      </trkpt>
      <trkpt lat="41.843433" lon="-8.114467">
        <ele>444.0</ele>
        <time>2010-08-26T11:21:23Z</time>
      </trkpt>
      <trkpt lat="41.843400" lon="-8.114483">
        <ele>444.0</ele>
        <time>2010-08-26T11:21:24Z</time>
      </trkpt>
      <trkpt lat="41.843383" lon="-8.114483">
        <ele>444.0</ele>
        <time>2010-08-26T11:21:25Z</time>
      </trkpt>
      <trkpt lat="41.843367" lon="-8.114500">
        <ele>444.0</ele>
        <time>2010-08-26T11:21:26Z</time>
      </trkpt>
      <trkpt lat="41.843333" lon="-8.114517">
        <ele>444.0</ele>
        <time>2010-08-26T11:21:27Z</time>
      </trkpt>
      <trkpt lat="41.843317" lon="-8.114517">
        <ele>444.0</ele>
        <time>2010-08-26T11:21:28Z</time>
      </trkpt>
      <trkpt lat="41.843300" lon="-8.114533">
        <ele>444.0</ele>
        <time>2010-08-26T11:21:29Z</time>
      </trkpt>
      <trkpt lat="41.843267" lon="-8.114550">
        <ele>444.0</ele>
        <time>2010-08-26T11:21:30Z</time>
      </trkpt>
      <trkpt lat="41.843250" lon="-8.114567">
        <ele>444.0</ele>
        <time>2010-08-26T11:21:31Z</time>
      </trkpt>
      <trkpt lat="41.843233" lon="-8.114583">
        <ele>444.0</ele>
        <time>2010-08-26T11:21:32Z</time>
      </trkpt>
      <trkpt lat="41.843200" lon="-8.114583">
        <ele>444.0</ele>
        <time>2010-08-26T11:21:33Z</time>
      </trkpt>
      <trkpt lat="41.843183" lon="-8.114600">
        <ele>444.0</ele>
        <time>2010-08-26T11:21:34Z</time>
      </trkpt>
      <trkpt lat="41.843167" lon="-8.114617">
        <ele>444.0</ele>
        <time>2010-08-26T11:21:35Z</time>
      </trkpt>
      <trkpt lat="41.843150" lon="-8.114633">
        <ele>445.0</ele>
        <time>2010-08-26T11:21:36Z</time>
      </trkpt>
      <trkpt lat="41.843117" lon="-8.114650">
        <ele>445.0</ele>
        <time>2010-08-26T11:21:37Z</time>
      </trkpt>
      <trkpt lat="41.843100" lon="-8.114667">
        <ele>445.0</ele>
        <time>2010-08-26T11:21:38Z</time>
      </trkpt>
      <trkpt lat="41.843067" lon="-8.114667">
        <ele>445.0</ele>
        <time>2010-08-26T11:21:39Z</time>
      </trkpt>
      <trkpt lat="41.843050" lon="-8.114683">
        <ele>445.0</ele>
        <time>2010-08-26T11:21:40Z</time>
      </trkpt>
      <trkpt lat="41.843033" lon="-8.114700">
        <ele>445.0</ele>
        <time>2010-08-26T11:21:41Z</time>
      </trkpt>
      <trkpt lat="41.843000" lon="-8.114717">
        <ele>445.0</ele>
        <time>2010-08-26T11:21:42Z</time>
      </trkpt>
      <trkpt lat="41.842983" lon="-8.114733">
        <ele>445.0</ele>
        <time>2010-08-26T11:21:43Z</time>
      </trkpt>
      <trkpt lat="41.842967" lon="-8.114733">
        <ele>445.0</ele>
        <time>2010-08-26T11:21:44Z</time>
      </trkpt>
      <trkpt lat="41.842933" lon="-8.114750">
        <ele>445.0</ele>
        <time>2010-08-26T11:21:45Z</time>
      </trkpt>
      <trkpt lat="41.842917" lon="-8.114767">
        <ele>445.0</ele>
        <time>2010-08-26T11:21:46Z</time>
      </trkpt>
      <trkpt lat="41.842883" lon="-8.114783">
        <ele>445.0</ele>
        <time>2010-08-26T11:21:47Z</time>
      </trkpt>
      <trkpt lat="41.842867" lon="-8.114783">
        <ele>445.0</ele>
        <time>2010-08-26T11:21:48Z</time>
      </trkpt>
      <trkpt lat="41.842833" lon="-8.114800">
        <ele>446.0</ele>
        <time>2010-08-26T11:21:50Z</time>
      </trkpt>
      <trkpt lat="41.842800" lon="-8.114833">
        <ele>446.0</ele>
        <time>2010-08-26T11:21:52Z</time>
      </trkpt>
      <trkpt lat="41.842767" lon="-8.114850">
        <ele>446.0</ele>
        <time>2010-08-26T11:21:54Z</time>
      </trkpt>
      <trkpt lat="41.842733" lon="-8.114850">
        <ele>447.0</ele>
        <time>2010-08-26T11:21:56Z</time>
      </trkpt>
      <trkpt lat="41.842700" lon="-8.114867">
        <ele>447.0</ele>
        <time>2010-08-26T11:21:58Z</time>
      </trkpt>
      <trkpt lat="41.842667" lon="-8.114867">
        <ele>447.0</ele>
        <time>2010-08-26T11:22:00Z</time>
      </trkpt>
      <trkpt lat="41.842617" lon="-8.114883">
        <ele>447.0</ele>
        <time>2010-08-26T11:22:02Z</time>
      </trkpt>
      <trkpt lat="41.842583" lon="-8.114883">
        <ele>447.0</ele>
        <time>2010-08-26T11:22:04Z</time>
      </trkpt>
      <trkpt lat="41.842567" lon="-8.114900">
        <ele>448.0</ele>
        <time>2010-08-26T11:22:05Z</time>
      </trkpt>
      <trkpt lat="41.842533" lon="-8.114900">
        <ele>448.0</ele>
        <time>2010-08-26T11:22:06Z</time>
      </trkpt>
      <trkpt lat="41.842517" lon="-8.114900">
        <ele>448.0</ele>
        <time>2010-08-26T11:22:07Z</time>
      </trkpt>
      <trkpt lat="41.842483" lon="-8.114883">
        <ele>448.0</ele>
        <time>2010-08-26T11:22:08Z</time>
      </trkpt>
      <trkpt lat="41.842467" lon="-8.114883">
        <ele>448.0</ele>
        <time>2010-08-26T11:22:09Z</time>
      </trkpt>
      <trkpt lat="41.842433" lon="-8.114883">
        <ele>448.0</ele>
        <time>2010-08-26T11:22:10Z</time>
      </trkpt>
      <trkpt lat="41.842417" lon="-8.114883">
        <ele>448.0</ele>
        <time>2010-08-26T11:22:11Z</time>
      </trkpt>
      <trkpt lat="41.842400" lon="-8.114883">
        <ele>448.0</ele>
        <time>2010-08-26T11:22:12Z</time>
      </trkpt>
      <trkpt lat="41.842350" lon="-8.114900">
        <ele>448.0</ele>
        <time>2010-08-26T11:22:14Z</time>
      </trkpt>
      <trkpt lat="41.842300" lon="-8.114917">
        <ele>448.0</ele>
        <time>2010-08-26T11:22:16Z</time>
      </trkpt>
      <trkpt lat="41.842283" lon="-8.114917">
        <ele>448.0</ele>
        <time>2010-08-26T11:22:17Z</time>
      </trkpt>
      <trkpt lat="41.842267" lon="-8.114933">
        <ele>448.0</ele>
        <time>2010-08-26T11:22:18Z</time>
      </trkpt>
      <trkpt lat="41.842233" lon="-8.114933">
        <ele>448.0</ele>
        <time>2010-08-26T11:22:19Z</time>
      </trkpt>
      <trkpt lat="41.842217" lon="-8.114950">
        <ele>448.0</ele>
        <time>2010-08-26T11:22:20Z</time>
      </trkpt>
      <trkpt lat="41.842183" lon="-8.114950">
        <ele>449.0</ele>
        <time>2010-08-26T11:22:21Z</time>
      </trkpt>
      <trkpt lat="41.842150" lon="-8.114967">
        <ele>449.0</ele>
        <time>2010-08-26T11:22:23Z</time>
      </trkpt>
      <trkpt lat="41.842117" lon="-8.114983">
        <ele>449.0</ele>
        <time>2010-08-26T11:22:24Z</time>
      </trkpt>
      <trkpt lat="41.842100" lon="-8.114983">
        <ele>449.0</ele>
        <time>2010-08-26T11:22:25Z</time>
      </trkpt>
      <trkpt lat="41.842083" lon="-8.115000">
        <ele>449.0</ele>
        <time>2010-08-26T11:22:26Z</time>
      </trkpt>
      <trkpt lat="41.842050" lon="-8.115000">
        <ele>449.0</ele>
        <time>2010-08-26T11:22:27Z</time>
      </trkpt>
      <trkpt lat="41.842033" lon="-8.115017">
        <ele>449.0</ele>
        <time>2010-08-26T11:22:28Z</time>
      </trkpt>
      <trkpt lat="41.842017" lon="-8.115017">
        <ele>449.0</ele>
        <time>2010-08-26T11:22:29Z</time>
      </trkpt>
      <trkpt lat="41.841983" lon="-8.115033">
        <ele>449.0</ele>
        <time>2010-08-26T11:22:30Z</time>
      </trkpt>
      <trkpt lat="41.841967" lon="-8.115033">
        <ele>449.0</ele>
        <time>2010-08-26T11:22:31Z</time>
      </trkpt>
      <trkpt lat="41.841950" lon="-8.115050">
        <ele>449.0</ele>
        <time>2010-08-26T11:22:32Z</time>
      </trkpt>
      <trkpt lat="41.841917" lon="-8.115050">
        <ele>450.0</ele>
        <time>2010-08-26T11:22:33Z</time>
      </trkpt>
      <trkpt lat="41.841883" lon="-8.115067">
        <ele>450.0</ele>
        <time>2010-08-26T11:22:35Z</time>
      </trkpt>
      <trkpt lat="41.841850" lon="-8.115100">
        <ele>450.0</ele>
        <time>2010-08-26T11:22:37Z</time>
      </trkpt>
      <trkpt lat="41.841800" lon="-8.115117">
        <ele>451.0</ele>
        <time>2010-08-26T11:22:39Z</time>
      </trkpt>
      <trkpt lat="41.841767" lon="-8.115133">
        <ele>451.0</ele>
        <time>2010-08-26T11:22:41Z</time>
      </trkpt>
      <trkpt lat="41.841733" lon="-8.115133">
        <ele>451.0</ele>
        <time>2010-08-26T11:22:43Z</time>
      </trkpt>
      <trkpt lat="41.841700" lon="-8.115133">
        <ele>452.0</ele>
        <time>2010-08-26T11:22:45Z</time>
      </trkpt>
      <trkpt lat="41.841650" lon="-8.115133">
        <ele>452.0</ele>
        <time>2010-08-26T11:22:47Z</time>
      </trkpt>
      <trkpt lat="41.841617" lon="-8.115133">
        <ele>452.0</ele>
        <time>2010-08-26T11:22:49Z</time>
      </trkpt>
      <trkpt lat="41.841583" lon="-8.115150">
        <ele>453.0</ele>
        <time>2010-08-26T11:22:51Z</time>
      </trkpt>
      <trkpt lat="41.841550" lon="-8.115150">
        <ele>453.0</ele>
        <time>2010-08-26T11:22:53Z</time>
      </trkpt>
      <trkpt lat="41.841500" lon="-8.115167">
        <ele>453.0</ele>
        <time>2010-08-26T11:22:55Z</time>
      </trkpt>
      <trkpt lat="41.841467" lon="-8.115183">
        <ele>453.0</ele>
        <time>2010-08-26T11:22:57Z</time>
      </trkpt>
      <trkpt lat="41.841433" lon="-8.115183">
        <ele>453.0</ele>
        <time>2010-08-26T11:22:59Z</time>
      </trkpt>
      <trkpt lat="41.841417" lon="-8.115200">
        <ele>453.0</ele>
        <time>2010-08-26T11:23:01Z</time>
      </trkpt>
      <trkpt lat="41.841383" lon="-8.115217">
        <ele>454.0</ele>
        <time>2010-08-26T11:23:03Z</time>
      </trkpt>
      <trkpt lat="41.841350" lon="-8.115217">
        <ele>454.0</ele>
        <time>2010-08-26T11:23:05Z</time>
      </trkpt>
      <trkpt lat="41.841317" lon="-8.115233">
        <ele>454.0</ele>
        <time>2010-08-26T11:23:07Z</time>
      </trkpt>
      <trkpt lat="41.841283" lon="-8.115250">
        <ele>455.0</ele>
        <time>2010-08-26T11:23:09Z</time>
      </trkpt>
      <trkpt lat="41.841250" lon="-8.115267">
        <ele>455.0</ele>
        <time>2010-08-26T11:23:11Z</time>
      </trkpt>
      <trkpt lat="41.841200" lon="-8.115267">
        <ele>456.0</ele>
        <time>2010-08-26T11:23:14Z</time>
      </trkpt>
      <trkpt lat="41.841183" lon="-8.115267">
        <ele>456.0</ele>
        <time>2010-08-26T11:23:16Z</time>
      </trkpt>
      <trkpt lat="41.841133" lon="-8.115267">
        <ele>456.0</ele>
        <time>2010-08-26T11:23:18Z</time>
      </trkpt>
      <trkpt lat="41.841100" lon="-8.115267">
        <ele>456.0</ele>
        <time>2010-08-26T11:23:20Z</time>
      </trkpt>
      <trkpt lat="41.841067" lon="-8.115267">
        <ele>457.0</ele>
        <time>2010-08-26T11:23:23Z</time>
      </trkpt>
      <trkpt lat="41.841017" lon="-8.115283">
        <ele>457.0</ele>
        <time>2010-08-26T11:23:26Z</time>
      </trkpt>
      <trkpt lat="41.841000" lon="-8.115283">
        <ele>457.0</ele>
        <time>2010-08-26T11:23:28Z</time>
      </trkpt>
      <trkpt lat="41.840967" lon="-8.115300">
        <ele>458.0</ele>
        <time>2010-08-26T11:23:30Z</time>
      </trkpt>
      <trkpt lat="41.840917" lon="-8.115333">
        <ele>458.0</ele>
        <time>2010-08-26T11:23:33Z</time>
      </trkpt>
      <trkpt lat="41.840883" lon="-8.115367">
        <ele>458.0</ele>
        <time>2010-08-26T11:23:36Z</time>
      </trkpt>
      <trkpt lat="41.840867" lon="-8.115400">
        <ele>458.0</ele>
        <time>2010-08-26T11:23:38Z</time>
      </trkpt>
      <trkpt lat="41.840850" lon="-8.115433">
        <ele>458.0</ele>
        <time>2010-08-26T11:23:41Z</time>
      </trkpt>
      <trkpt lat="41.840817" lon="-8.115483">
        <ele>458.0</ele>
        <time>2010-08-26T11:23:44Z</time>
      </trkpt>
      <trkpt lat="41.840800" lon="-8.115517">
        <ele>458.0</ele>
        <time>2010-08-26T11:23:47Z</time>
      </trkpt>
      <trkpt lat="41.840783" lon="-8.115550">
        <ele>459.0</ele>
        <time>2010-08-26T11:24:01Z</time>
      </trkpt>
      <trkpt lat="41.840750" lon="-8.115583">
        <ele>459.0</ele>
        <time>2010-08-26T11:24:04Z</time>
      </trkpt>
      <trkpt lat="41.840717" lon="-8.115617">
        <ele>460.0</ele>
        <time>2010-08-26T11:24:07Z</time>
      </trkpt>
      <trkpt lat="41.840683" lon="-8.115617">
        <ele>460.0</ele>
        <time>2010-08-26T11:24:09Z</time>
      </trkpt>
      <trkpt lat="41.840650" lon="-8.115633">
        <ele>460.0</ele>
        <time>2010-08-26T11:24:11Z</time>
      </trkpt>
      <trkpt lat="41.840617" lon="-8.115633">
        <ele>461.0</ele>
        <time>2010-08-26T11:24:13Z</time>
      </trkpt>
      <trkpt lat="41.840583" lon="-8.115650">
        <ele>461.0</ele>
        <time>2010-08-26T11:24:15Z</time>
      </trkpt>
      <trkpt lat="41.840550" lon="-8.115667">
        <ele>461.0</ele>
        <time>2010-08-26T11:24:17Z</time>
      </trkpt>
      <trkpt lat="41.840517" lon="-8.115667">
        <ele>461.0</ele>
        <time>2010-08-26T11:24:19Z</time>
      </trkpt>
      <trkpt lat="41.840483" lon="-8.115683">
        <ele>461.0</ele>
        <time>2010-08-26T11:24:21Z</time>
      </trkpt>
      <trkpt lat="41.840450" lon="-8.115700">
        <ele>461.0</ele>
        <time>2010-08-26T11:24:23Z</time>
      </trkpt>
      <trkpt lat="41.840417" lon="-8.115717">
        <ele>461.0</ele>
        <time>2010-08-26T11:24:25Z</time>
      </trkpt>
      <trkpt lat="41.840400" lon="-8.115733">
        <ele>461.0</ele>
        <time>2010-08-26T11:24:27Z</time>
      </trkpt>
      <trkpt lat="41.840367" lon="-8.115750">
        <ele>461.0</ele>
        <time>2010-08-26T11:24:29Z</time>
      </trkpt>
      <trkpt lat="41.840333" lon="-8.115783">
        <ele>461.0</ele>
        <time>2010-08-26T11:24:31Z</time>
      </trkpt>
      <trkpt lat="41.840317" lon="-8.115800">
        <ele>461.0</ele>
        <time>2010-08-26T11:24:33Z</time>
      </trkpt>
      <trkpt lat="41.840283" lon="-8.115833">
        <ele>461.0</ele>
        <time>2010-08-26T11:24:35Z</time>
      </trkpt>
      <trkpt lat="41.840267" lon="-8.115867">
        <ele>461.0</ele>
        <time>2010-08-26T11:24:37Z</time>
      </trkpt>
      <trkpt lat="41.840233" lon="-8.115900">
        <ele>462.0</ele>
        <time>2010-08-26T11:24:39Z</time>
      </trkpt>
      <trkpt lat="41.840217" lon="-8.115933">
        <ele>462.0</ele>
        <time>2010-08-26T11:24:41Z</time>
      </trkpt>
      <trkpt lat="41.840200" lon="-8.115983">
        <ele>463.0</ele>
        <time>2010-08-26T11:24:44Z</time>
      </trkpt>
      <trkpt lat="41.840183" lon="-8.116017">
        <ele>463.0</ele>
        <time>2010-08-26T11:24:47Z</time>
      </trkpt>
      <trkpt lat="41.840150" lon="-8.116050">
        <ele>464.0</ele>
        <time>2010-08-26T11:24:49Z</time>
      </trkpt>
      <trkpt lat="41.840117" lon="-8.116067">
        <ele>464.0</ele>
        <time>2010-08-26T11:24:51Z</time>
      </trkpt>
      <trkpt lat="41.840100" lon="-8.116083">
        <ele>464.0</ele>
        <time>2010-08-26T11:24:53Z</time>
      </trkpt>
      <trkpt lat="41.840050" lon="-8.116100">
        <ele>465.0</ele>
        <time>2010-08-26T11:24:56Z</time>
      </trkpt>
      <trkpt lat="41.840017" lon="-8.116117">
        <ele>465.0</ele>
        <time>2010-08-26T11:24:59Z</time>
      </trkpt>
      <trkpt lat="41.839983" lon="-8.116117">
        <ele>466.0</ele>
        <time>2010-08-26T11:25:02Z</time>
      </trkpt>
      <trkpt lat="41.839933" lon="-8.116117">
        <ele>466.0</ele>
        <time>2010-08-26T11:25:05Z</time>
      </trkpt>
      <trkpt lat="41.839900" lon="-8.116100">
        <ele>467.0</ele>
        <time>2010-08-26T11:25:08Z</time>
      </trkpt>
      <trkpt lat="41.839867" lon="-8.116100">
        <ele>467.0</ele>
        <time>2010-08-26T11:25:11Z</time>
      </trkpt>
      <trkpt lat="41.839833" lon="-8.116100">
        <ele>468.0</ele>
        <time>2010-08-26T11:25:14Z</time>
      </trkpt>
      <trkpt lat="41.839783" lon="-8.116100">
        <ele>468.0</ele>
        <time>2010-08-26T11:25:17Z</time>
      </trkpt>
      <trkpt lat="41.839750" lon="-8.116100">
        <ele>468.0</ele>
        <time>2010-08-26T11:25:19Z</time>
      </trkpt>
      <trkpt lat="41.839717" lon="-8.116083">
        <ele>469.0</ele>
        <time>2010-08-26T11:25:21Z</time>
      </trkpt>
      <trkpt lat="41.839683" lon="-8.116100">
        <ele>469.0</ele>
        <time>2010-08-26T11:25:24Z</time>
      </trkpt>
      <trkpt lat="41.839633" lon="-8.116133">
        <ele>469.0</ele>
        <time>2010-08-26T11:25:27Z</time>
      </trkpt>
      <trkpt lat="41.839617" lon="-8.116150">
        <ele>470.0</ele>
        <time>2010-08-26T11:25:29Z</time>
      </trkpt>
      <trkpt lat="41.839567" lon="-8.116167">
        <ele>470.0</ele>
        <time>2010-08-26T11:25:32Z</time>
      </trkpt>
      <trkpt lat="41.839550" lon="-8.116183">
        <ele>470.0</ele>
        <time>2010-08-26T11:25:34Z</time>
      </trkpt>
      <trkpt lat="41.839517" lon="-8.116200">
        <ele>470.0</ele>
        <time>2010-08-26T11:25:36Z</time>
      </trkpt>
      <trkpt lat="41.839483" lon="-8.116200">
        <ele>470.0</ele>
        <time>2010-08-26T11:25:38Z</time>
      </trkpt>
      <trkpt lat="41.839450" lon="-8.116200">
        <ele>470.0</ele>
        <time>2010-08-26T11:25:40Z</time>
      </trkpt>
      <trkpt lat="41.839417" lon="-8.116200">
        <ele>470.0</ele>
        <time>2010-08-26T11:25:42Z</time>
      </trkpt>
      <trkpt lat="41.839383" lon="-8.116217">
        <ele>470.0</ele>
        <time>2010-08-26T11:25:44Z</time>
      </trkpt>
      <trkpt lat="41.839350" lon="-8.116217">
        <ele>471.0</ele>
        <time>2010-08-26T11:25:46Z</time>
      </trkpt>
      <trkpt lat="41.839317" lon="-8.116217">
        <ele>471.0</ele>
        <time>2010-08-26T11:25:48Z</time>
      </trkpt>
      <trkpt lat="41.839283" lon="-8.116217">
        <ele>471.0</ele>
        <time>2010-08-26T11:25:50Z</time>
      </trkpt>
      <trkpt lat="41.839250" lon="-8.116217">
        <ele>471.0</ele>
        <time>2010-08-26T11:25:52Z</time>
      </trkpt>
      <trkpt lat="41.839217" lon="-8.116200">
        <ele>471.0</ele>
        <time>2010-08-26T11:25:54Z</time>
      </trkpt>
      <trkpt lat="41.839183" lon="-8.116200">
        <ele>472.0</ele>
        <time>2010-08-26T11:25:56Z</time>
      </trkpt>
      <trkpt lat="41.839150" lon="-8.116200">
        <ele>472.0</ele>
        <time>2010-08-26T11:25:58Z</time>
      </trkpt>
      <trkpt lat="41.839117" lon="-8.116183">
        <ele>472.0</ele>
        <time>2010-08-26T11:26:00Z</time>
      </trkpt>
      <trkpt lat="41.839083" lon="-8.116183">
        <ele>472.0</ele>
        <time>2010-08-26T11:26:02Z</time>
      </trkpt>
      <trkpt lat="41.839067" lon="-8.116167">
        <ele>473.0</ele>
        <time>2010-08-26T11:26:04Z</time>
      </trkpt>
      <trkpt lat="41.839033" lon="-8.116167">
        <ele>473.0</ele>
        <time>2010-08-26T11:26:06Z</time>
      </trkpt>
      <trkpt lat="41.839000" lon="-8.116167">
        <ele>473.0</ele>
        <time>2010-08-26T11:26:08Z</time>
      </trkpt>
      <trkpt lat="41.838967" lon="-8.116150">
        <ele>474.0</ele>
        <time>2010-08-26T11:26:10Z</time>
      </trkpt>
      <trkpt lat="41.838917" lon="-8.116133">
        <ele>475.0</ele>
        <time>2010-08-26T11:26:13Z</time>
      </trkpt>
      <trkpt lat="41.838883" lon="-8.116133">
        <ele>475.0</ele>
        <time>2010-08-26T11:26:16Z</time>
      </trkpt>
      <trkpt lat="41.838833" lon="-8.116117">
        <ele>476.0</ele>
        <time>2010-08-26T11:26:19Z</time>
      </trkpt>
      <trkpt lat="41.838800" lon="-8.116117">
        <ele>476.0</ele>
        <time>2010-08-26T11:26:21Z</time>
      </trkpt>
      <trkpt lat="41.838767" lon="-8.116117">
        <ele>476.0</ele>
        <time>2010-08-26T11:26:23Z</time>
      </trkpt>
      <trkpt lat="41.838733" lon="-8.116117">
        <ele>476.0</ele>
        <time>2010-08-26T11:26:25Z</time>
      </trkpt>
      <trkpt lat="41.838700" lon="-8.116117">
        <ele>476.0</ele>
        <time>2010-08-26T11:26:27Z</time>
      </trkpt>
      <trkpt lat="41.838650" lon="-8.116133">
        <ele>476.0</ele>
        <time>2010-08-26T11:26:29Z</time>
      </trkpt>
      <trkpt lat="41.838633" lon="-8.116133">
        <ele>476.0</ele>
        <time>2010-08-26T11:26:30Z</time>
      </trkpt>
      <trkpt lat="41.838600" lon="-8.116150">
        <ele>476.0</ele>
        <time>2010-08-26T11:26:31Z</time>
      </trkpt>
      <trkpt lat="41.838567" lon="-8.116150">
        <ele>476.0</ele>
        <time>2010-08-26T11:26:33Z</time>
      </trkpt>
      <trkpt lat="41.838533" lon="-8.116167">
        <ele>476.0</ele>
        <time>2010-08-26T11:26:35Z</time>
      </trkpt>
      <trkpt lat="41.838500" lon="-8.116200">
        <ele>476.0</ele>
        <time>2010-08-26T11:26:37Z</time>
      </trkpt>
      <trkpt lat="41.838467" lon="-8.116217">
        <ele>476.0</ele>
        <time>2010-08-26T11:26:39Z</time>
      </trkpt>
      <trkpt lat="41.838433" lon="-8.116217">
        <ele>477.0</ele>
        <time>2010-08-26T11:26:41Z</time>
      </trkpt>
      <trkpt lat="41.838400" lon="-8.116217">
        <ele>477.0</ele>
        <time>2010-08-26T11:26:43Z</time>
      </trkpt>
      <trkpt lat="41.838367" lon="-8.116217">
        <ele>478.0</ele>
        <time>2010-08-26T11:26:45Z</time>
      </trkpt>
      <trkpt lat="41.838333" lon="-8.116233">
        <ele>478.0</ele>
        <time>2010-08-26T11:26:47Z</time>
      </trkpt>
      <trkpt lat="41.838300" lon="-8.116233">
        <ele>478.0</ele>
        <time>2010-08-26T11:26:49Z</time>
      </trkpt>
      <trkpt lat="41.838267" lon="-8.116250">
        <ele>478.0</ele>
        <time>2010-08-26T11:26:51Z</time>
      </trkpt>
      <trkpt lat="41.838233" lon="-8.116267">
        <ele>478.0</ele>
        <time>2010-08-26T11:26:53Z</time>
      </trkpt>
      <trkpt lat="41.838183" lon="-8.116300">
        <ele>478.0</ele>
        <time>2010-08-26T11:27:10Z</time>
      </trkpt>
      <trkpt lat="41.838150" lon="-8.116300">
        <ele>479.0</ele>
        <time>2010-08-26T11:27:34Z</time>
      </trkpt>
      <trkpt lat="41.838117" lon="-8.116317">
        <ele>479.0</ele>
        <time>2010-08-26T11:27:37Z</time>
      </trkpt>
      <trkpt lat="41.838067" lon="-8.116317">
        <ele>479.0</ele>
        <time>2010-08-26T11:27:40Z</time>
      </trkpt>
      <trkpt lat="41.838050" lon="-8.116317">
        <ele>479.0</ele>
        <time>2010-08-26T11:27:42Z</time>
      </trkpt>
      <trkpt lat="41.838000" lon="-8.116333">
        <ele>479.0</ele>
        <time>2010-08-26T11:27:44Z</time>
      </trkpt>
      <trkpt lat="41.837967" lon="-8.116333">
        <ele>480.0</ele>
        <time>2010-08-26T11:27:46Z</time>
      </trkpt>
      <trkpt lat="41.837933" lon="-8.116333">
        <ele>481.0</ele>
        <time>2010-08-26T11:27:48Z</time>
      </trkpt>
      <trkpt lat="41.837900" lon="-8.116333">
        <ele>481.0</ele>
        <time>2010-08-26T11:27:50Z</time>
      </trkpt>
      <trkpt lat="41.837867" lon="-8.116350">
        <ele>481.0</ele>
        <time>2010-08-26T11:27:52Z</time>
      </trkpt>
      <trkpt lat="41.837833" lon="-8.116383">
        <ele>481.0</ele>
        <time>2010-08-26T11:27:54Z</time>
      </trkpt>
      <trkpt lat="41.837800" lon="-8.116383">
        <ele>482.0</ele>
        <time>2010-08-26T11:27:56Z</time>
      </trkpt>
      <trkpt lat="41.837767" lon="-8.116400">
        <ele>482.0</ele>
        <time>2010-08-26T11:27:58Z</time>
      </trkpt>
      <trkpt lat="41.837733" lon="-8.116417">
        <ele>482.0</ele>
        <time>2010-08-26T11:28:00Z</time>
      </trkpt>
      <trkpt lat="41.837700" lon="-8.116417">
        <ele>483.0</ele>
        <time>2010-08-26T11:28:02Z</time>
      </trkpt>
      <trkpt lat="41.837667" lon="-8.116417">
        <ele>483.0</ele>
        <time>2010-08-26T11:28:04Z</time>
      </trkpt>
      <trkpt lat="41.837633" lon="-8.116433">
        <ele>484.0</ele>
        <time>2010-08-26T11:28:07Z</time>
      </trkpt>
      <trkpt lat="41.837600" lon="-8.116433">
        <ele>484.0</ele>
        <time>2010-08-26T11:28:09Z</time>
      </trkpt>
      <trkpt lat="41.837567" lon="-8.116450">
        <ele>484.0</ele>
        <time>2010-08-26T11:28:11Z</time>
      </trkpt>
      <trkpt lat="41.837533" lon="-8.116450">
        <ele>484.0</ele>
        <time>2010-08-26T11:28:13Z</time>
      </trkpt>
      <trkpt lat="41.837500" lon="-8.116450">
        <ele>485.0</ele>
        <time>2010-08-26T11:28:15Z</time>
      </trkpt>
      <trkpt lat="41.837467" lon="-8.116450">
        <ele>485.0</ele>
        <time>2010-08-26T11:28:17Z</time>
      </trkpt>
      <trkpt lat="41.837433" lon="-8.116450">
        <ele>485.0</ele>
        <time>2010-08-26T11:28:19Z</time>
      </trkpt>
      <trkpt lat="41.837400" lon="-8.116450">
        <ele>486.0</ele>
        <time>2010-08-26T11:28:21Z</time>
      </trkpt>
      <trkpt lat="41.837367" lon="-8.116450">
        <ele>486.0</ele>
        <time>2010-08-26T11:28:23Z</time>
      </trkpt>
      <trkpt lat="41.837333" lon="-8.116450">
        <ele>486.0</ele>
        <time>2010-08-26T11:28:25Z</time>
      </trkpt>
      <trkpt lat="41.837300" lon="-8.116467">
        <ele>487.0</ele>
        <time>2010-08-26T11:28:27Z</time>
      </trkpt>
      <trkpt lat="41.837267" lon="-8.116483">
        <ele>487.0</ele>
        <time>2010-08-26T11:28:29Z</time>
      </trkpt>
      <trkpt lat="41.837233" lon="-8.116500">
        <ele>487.0</ele>
        <time>2010-08-26T11:28:31Z</time>
      </trkpt>
      <trkpt lat="41.837200" lon="-8.116500">
        <ele>487.0</ele>
        <time>2010-08-26T11:28:33Z</time>
      </trkpt>
      <trkpt lat="41.837167" lon="-8.116500">
        <ele>487.0</ele>
        <time>2010-08-26T11:28:35Z</time>
      </trkpt>
      <trkpt lat="41.837133" lon="-8.116500">
        <ele>488.0</ele>
        <time>2010-08-26T11:28:37Z</time>
      </trkpt>
      <trkpt lat="41.837100" lon="-8.116500">
        <ele>488.0</ele>
        <time>2010-08-26T11:28:39Z</time>
      </trkpt>
      <trkpt lat="41.837067" lon="-8.116500">
        <ele>488.0</ele>
        <time>2010-08-26T11:28:41Z</time>
      </trkpt>
      <trkpt lat="41.837033" lon="-8.116500">
        <ele>488.0</ele>
        <time>2010-08-26T11:28:43Z</time>
      </trkpt>
      <trkpt lat="41.837000" lon="-8.116500">
        <ele>488.0</ele>
        <time>2010-08-26T11:28:45Z</time>
      </trkpt>
      <trkpt lat="41.836967" lon="-8.116500">
        <ele>488.0</ele>
        <time>2010-08-26T11:28:47Z</time>
      </trkpt>
      <trkpt lat="41.836933" lon="-8.116483">
        <ele>489.0</ele>
        <time>2010-08-26T11:28:49Z</time>
      </trkpt>
      <trkpt lat="41.836900" lon="-8.116483">
        <ele>489.0</ele>
        <time>2010-08-26T11:28:52Z</time>
      </trkpt>
      <trkpt lat="41.836867" lon="-8.116483">
        <ele>489.0</ele>
        <time>2010-08-26T11:28:54Z</time>
      </trkpt>
      <trkpt lat="41.836833" lon="-8.116483">
        <ele>490.0</ele>
        <time>2010-08-26T11:28:56Z</time>
      </trkpt>
      <trkpt lat="41.836800" lon="-8.116467">
        <ele>490.0</ele>
        <time>2010-08-26T11:28:58Z</time>
      </trkpt>
      <trkpt lat="41.836767" lon="-8.116450">
        <ele>490.0</ele>
        <time>2010-08-26T11:29:00Z</time>
      </trkpt>
      <trkpt lat="41.836750" lon="-8.116450">
        <ele>490.0</ele>
        <time>2010-08-26T11:29:02Z</time>
      </trkpt>
      <trkpt lat="41.836700" lon="-8.116450">
        <ele>491.0</ele>
        <time>2010-08-26T11:29:05Z</time>
      </trkpt>
      <trkpt lat="41.836667" lon="-8.116467">
        <ele>491.0</ele>
        <time>2010-08-26T11:29:08Z</time>
      </trkpt>
      <trkpt lat="41.836633" lon="-8.116467">
        <ele>491.0</ele>
        <time>2010-08-26T11:29:11Z</time>
      </trkpt>
      <trkpt lat="41.836583" lon="-8.116483">
        <ele>492.0</ele>
        <time>2010-08-26T11:29:14Z</time>
      </trkpt>
      <trkpt lat="41.836550" lon="-8.116500">
        <ele>492.0</ele>
        <time>2010-08-26T11:29:17Z</time>
      </trkpt>
      <trkpt lat="41.836517" lon="-8.116533">
        <ele>492.0</ele>
        <time>2010-08-26T11:29:20Z</time>
      </trkpt>
      <trkpt lat="41.836500" lon="-8.116567">
        <ele>493.0</ele>
        <time>2010-08-26T11:29:23Z</time>
      </trkpt>
      <trkpt lat="41.836483" lon="-8.116617">
        <ele>493.0</ele>
        <time>2010-08-26T11:29:26Z</time>
      </trkpt>
      <trkpt lat="41.836467" lon="-8.116667">
        <ele>493.0</ele>
        <time>2010-08-26T11:29:29Z</time>
      </trkpt>
      <trkpt lat="41.836467" lon="-8.116717">
        <ele>493.0</ele>
        <time>2010-08-26T11:29:32Z</time>
      </trkpt>
      <trkpt lat="41.836467" lon="-8.116767">
        <ele>493.0</ele>
        <time>2010-08-26T11:29:35Z</time>
      </trkpt>
      <trkpt lat="41.836450" lon="-8.116817">
        <ele>494.0</ele>
        <time>2010-08-26T11:29:38Z</time>
      </trkpt>
      <trkpt lat="41.836450" lon="-8.116867">
        <ele>494.0</ele>
        <time>2010-08-26T11:29:41Z</time>
      </trkpt>
      <trkpt lat="41.836450" lon="-8.116933">
        <ele>494.0</ele>
        <time>2010-08-26T11:29:44Z</time>
      </trkpt>
      <trkpt lat="41.836433" lon="-8.116983">
        <ele>496.0</ele>
        <time>2010-08-26T11:29:47Z</time>
      </trkpt>
      <trkpt lat="41.836433" lon="-8.117050">
        <ele>497.0</ele>
        <time>2010-08-26T11:29:50Z</time>
      </trkpt>
      <trkpt lat="41.836417" lon="-8.117083">
        <ele>497.0</ele>
        <time>2010-08-26T11:29:52Z</time>
      </trkpt>
      <trkpt lat="41.836400" lon="-8.117117">
        <ele>498.0</ele>
        <time>2010-08-26T11:29:54Z</time>
      </trkpt>
      <trkpt lat="41.836383" lon="-8.117150">
        <ele>498.0</ele>
        <time>2010-08-26T11:29:56Z</time>
      </trkpt>
      <trkpt lat="41.836367" lon="-8.117183">
        <ele>499.0</ele>
        <time>2010-08-26T11:29:58Z</time>
      </trkpt>
      <trkpt lat="41.836333" lon="-8.117217">
        <ele>499.0</ele>
        <time>2010-08-26T11:30:00Z</time>
      </trkpt>
      <trkpt lat="41.836317" lon="-8.117250">
        <ele>500.0</ele>
        <time>2010-08-26T11:30:02Z</time>
      </trkpt>
      <trkpt lat="41.836283" lon="-8.117283">
        <ele>500.0</ele>
        <time>2010-08-26T11:30:04Z</time>
      </trkpt>
      <trkpt lat="41.836267" lon="-8.117300">
        <ele>500.0</ele>
        <time>2010-08-26T11:30:06Z</time>
      </trkpt>
      <trkpt lat="41.836233" lon="-8.117317">
        <ele>501.0</ele>
        <time>2010-08-26T11:30:08Z</time>
      </trkpt>
      <trkpt lat="41.836200" lon="-8.117333">
        <ele>502.0</ele>
        <time>2010-08-26T11:30:10Z</time>
      </trkpt>
      <trkpt lat="41.836183" lon="-8.117350">
        <ele>502.0</ele>
        <time>2010-08-26T11:30:12Z</time>
      </trkpt>
      <trkpt lat="41.836150" lon="-8.117367">
        <ele>503.0</ele>
        <time>2010-08-26T11:30:14Z</time>
      </trkpt>
      <trkpt lat="41.836117" lon="-8.117400">
        <ele>503.0</ele>
        <time>2010-08-26T11:30:16Z</time>
      </trkpt>
      <trkpt lat="41.836083" lon="-8.117433">
        <ele>503.0</ele>
        <time>2010-08-26T11:30:18Z</time>
      </trkpt>
      <trkpt lat="41.836050" lon="-8.117450">
        <ele>503.0</ele>
        <time>2010-08-26T11:30:20Z</time>
      </trkpt>
      <trkpt lat="41.836017" lon="-8.117450">
        <ele>503.0</ele>
        <time>2010-08-26T11:30:22Z</time>
      </trkpt>
      <trkpt lat="41.836000" lon="-8.117483">
        <ele>504.0</ele>
        <time>2010-08-26T11:30:24Z</time>
      </trkpt>
      <trkpt lat="41.835967" lon="-8.117500">
        <ele>504.0</ele>
        <time>2010-08-26T11:30:26Z</time>
      </trkpt>
      <trkpt lat="41.835950" lon="-8.117550">
        <ele>504.0</ele>
        <time>2010-08-26T11:30:28Z</time>
      </trkpt>
      <trkpt lat="41.835900" lon="-8.117550">
        <ele>505.0</ele>
        <time>2010-08-26T11:30:31Z</time>
      </trkpt>
      <trkpt lat="41.835867" lon="-8.117567">
        <ele>505.0</ele>
        <time>2010-08-26T11:30:34Z</time>
      </trkpt>
      <trkpt lat="41.835833" lon="-8.117600">
        <ele>505.0</ele>
        <time>2010-08-26T11:30:36Z</time>
      </trkpt>
      <trkpt lat="41.835800" lon="-8.117617">
        <ele>506.0</ele>
        <time>2010-08-26T11:30:38Z</time>
      </trkpt>
      <trkpt lat="41.835783" lon="-8.117617">
        <ele>506.0</ele>
        <time>2010-08-26T11:30:40Z</time>
      </trkpt>
      <trkpt lat="41.835733" lon="-8.117617">
        <ele>506.0</ele>
        <time>2010-08-26T11:30:42Z</time>
      </trkpt>
      <trkpt lat="41.835700" lon="-8.117617">
        <ele>506.0</ele>
        <time>2010-08-26T11:30:44Z</time>
      </trkpt>
      <trkpt lat="41.835667" lon="-8.117633">
        <ele>506.0</ele>
        <time>2010-08-26T11:30:46Z</time>
      </trkpt>
      <trkpt lat="41.835633" lon="-8.117633">
        <ele>507.0</ele>
        <time>2010-08-26T11:30:48Z</time>
      </trkpt>
      <trkpt lat="41.835600" lon="-8.117650">
        <ele>507.0</ele>
        <time>2010-08-26T11:30:50Z</time>
      </trkpt>
      <trkpt lat="41.835567" lon="-8.117650">
        <ele>507.0</ele>
        <time>2010-08-26T11:30:52Z</time>
      </trkpt>
      <trkpt lat="41.835533" lon="-8.117650">
        <ele>507.0</ele>
        <time>2010-08-26T11:30:54Z</time>
      </trkpt>
      <trkpt lat="41.835500" lon="-8.117667">
        <ele>507.0</ele>
        <time>2010-08-26T11:30:56Z</time>
      </trkpt>
      <trkpt lat="41.835467" lon="-8.117683">
        <ele>507.0</ele>
        <time>2010-08-26T11:30:58Z</time>
      </trkpt>
      <trkpt lat="41.835450" lon="-8.117700">
        <ele>507.0</ele>
        <time>2010-08-26T11:31:00Z</time>
      </trkpt>
      <trkpt lat="41.835417" lon="-8.117717">
        <ele>507.0</ele>
        <time>2010-08-26T11:31:02Z</time>
      </trkpt>
      <trkpt lat="41.835383" lon="-8.117733">
        <ele>507.0</ele>
        <time>2010-08-26T11:31:04Z</time>
      </trkpt>
      <trkpt lat="41.835333" lon="-8.117767">
        <ele>507.0</ele>
        <time>2010-08-26T11:31:07Z</time>
      </trkpt>
      <trkpt lat="41.835300" lon="-8.117767">
        <ele>508.0</ele>
        <time>2010-08-26T11:31:10Z</time>
      </trkpt>
      <trkpt lat="41.835267" lon="-8.117783">
        <ele>508.0</ele>
        <time>2010-08-26T11:31:13Z</time>
      </trkpt>
      <trkpt lat="41.835217" lon="-8.117800">
        <ele>508.0</ele>
        <time>2010-08-26T11:31:16Z</time>
      </trkpt>
      <trkpt lat="41.835183" lon="-8.117800">
        <ele>508.0</ele>
        <time>2010-08-26T11:31:19Z</time>
      </trkpt>
      <trkpt lat="41.835150" lon="-8.117817">
        <ele>509.0</ele>
        <time>2010-08-26T11:31:21Z</time>
      </trkpt>
      <trkpt lat="41.835133" lon="-8.117850">
        <ele>509.0</ele>
        <time>2010-08-26T11:31:23Z</time>
      </trkpt>
      <trkpt lat="41.835100" lon="-8.117867">
        <ele>509.0</ele>
        <time>2010-08-26T11:31:26Z</time>
      </trkpt>
      <trkpt lat="41.835067" lon="-8.117883">
        <ele>509.0</ele>
        <time>2010-08-26T11:31:28Z</time>
      </trkpt>
      <trkpt lat="41.835033" lon="-8.117883">
        <ele>509.0</ele>
        <time>2010-08-26T11:31:30Z</time>
      </trkpt>
      <trkpt lat="41.835000" lon="-8.117883">
        <ele>509.0</ele>
        <time>2010-08-26T11:31:32Z</time>
      </trkpt>
      <trkpt lat="41.834967" lon="-8.117900">
        <ele>510.0</ele>
        <time>2010-08-26T11:31:34Z</time>
      </trkpt>
      <trkpt lat="41.834950" lon="-8.117917">
        <ele>510.0</ele>
        <time>2010-08-26T11:31:36Z</time>
      </trkpt>
      <trkpt lat="41.834917" lon="-8.117933">
        <ele>510.0</ele>
        <time>2010-08-26T11:31:38Z</time>
      </trkpt>
      <trkpt lat="41.834883" lon="-8.117950">
        <ele>511.0</ele>
        <time>2010-08-26T11:31:40Z</time>
      </trkpt>
      <trkpt lat="41.834850" lon="-8.117967">
        <ele>511.0</ele>
        <time>2010-08-26T11:31:42Z</time>
      </trkpt>
      <trkpt lat="41.834817" lon="-8.117983">
        <ele>512.0</ele>
        <time>2010-08-26T11:31:45Z</time>
      </trkpt>
      <trkpt lat="41.834783" lon="-8.118017">
        <ele>512.0</ele>
        <time>2010-08-26T11:31:47Z</time>
      </trkpt>
      <trkpt lat="41.834767" lon="-8.118050">
        <ele>512.0</ele>
        <time>2010-08-26T11:31:49Z</time>
      </trkpt>
      <trkpt lat="41.834750" lon="-8.118083">
        <ele>512.0</ele>
        <time>2010-08-26T11:31:50Z</time>
      </trkpt>
      <trkpt lat="41.834733" lon="-8.118117">
        <ele>512.0</ele>
        <time>2010-08-26T11:31:51Z</time>
      </trkpt>
      <trkpt lat="41.834717" lon="-8.118150">
        <ele>512.0</ele>
        <time>2010-08-26T11:31:52Z</time>
      </trkpt>
      <trkpt lat="41.834700" lon="-8.118183">
        <ele>511.0</ele>
        <time>2010-08-26T11:31:53Z</time>
      </trkpt>
      <trkpt lat="41.834683" lon="-8.118233">
        <ele>511.0</ele>
        <time>2010-08-26T11:31:54Z</time>
      </trkpt>
      <trkpt lat="41.834667" lon="-8.118283">
        <ele>511.0</ele>
        <time>2010-08-26T11:31:55Z</time>
      </trkpt>
      <trkpt lat="41.834633" lon="-8.118317">
        <ele>511.0</ele>
        <time>2010-08-26T11:31:56Z</time>
      </trkpt>
      <trkpt lat="41.834617" lon="-8.118367">
        <ele>510.0</ele>
        <time>2010-08-26T11:31:57Z</time>
      </trkpt>
      <trkpt lat="41.834583" lon="-8.118433">
        <ele>510.0</ele>
        <time>2010-08-26T11:31:58Z</time>
      </trkpt>
      <trkpt lat="41.834567" lon="-8.118483">
        <ele>509.0</ele>
        <time>2010-08-26T11:31:59Z</time>
      </trkpt>
      <trkpt lat="41.834533" lon="-8.118550">
        <ele>509.0</ele>
        <time>2010-08-26T11:32:00Z</time>
      </trkpt>
      <trkpt lat="41.834500" lon="-8.118600">
        <ele>509.0</ele>
        <time>2010-08-26T11:32:01Z</time>
      </trkpt>
      <trkpt lat="41.834467" lon="-8.118667">
        <ele>508.0</ele>
        <time>2010-08-26T11:32:02Z</time>
      </trkpt>
      <trkpt lat="41.834433" lon="-8.118733">
        <ele>508.0</ele>
        <time>2010-08-26T11:32:03Z</time>
      </trkpt>
      <trkpt lat="41.834400" lon="-8.118800">
        <ele>507.0</ele>
        <time>2010-08-26T11:32:04Z</time>
      </trkpt>
      <trkpt lat="41.834350" lon="-8.118850">
        <ele>507.0</ele>
        <time>2010-08-26T11:32:05Z</time>
      </trkpt>
      <trkpt lat="41.834317" lon="-8.118917">
        <ele>506.0</ele>
        <time>2010-08-26T11:32:06Z</time>
      </trkpt>
      <trkpt lat="41.834283" lon="-8.118967">
        <ele>506.0</ele>
        <time>2010-08-26T11:32:07Z</time>
      </trkpt>
      <trkpt lat="41.834250" lon="-8.119033">
        <ele>505.0</ele>
        <time>2010-08-26T11:32:08Z</time>
      </trkpt>
      <trkpt lat="41.834217" lon="-8.119083">
        <ele>505.0</ele>
        <time>2010-08-26T11:32:09Z</time>
      </trkpt>
      <trkpt lat="41.834200" lon="-8.119150">
        <ele>504.0</ele>
        <time>2010-08-26T11:32:10Z</time>
      </trkpt>
      <trkpt lat="41.834183" lon="-8.119200">
        <ele>504.0</ele>
        <time>2010-08-26T11:32:11Z</time>
      </trkpt>
      <trkpt lat="41.834167" lon="-8.119250">
        <ele>504.0</ele>
        <time>2010-08-26T11:32:12Z</time>
      </trkpt>
      <trkpt lat="41.834133" lon="-8.119300">
        <ele>503.0</ele>
        <time>2010-08-26T11:32:13Z</time>
      </trkpt>
      <trkpt lat="41.834117" lon="-8.119317">
        <ele>503.0</ele>
        <time>2010-08-26T11:32:14Z</time>
      </trkpt>
      <trkpt lat="41.834083" lon="-8.119333">
        <ele>503.0</ele>
        <time>2010-08-26T11:32:15Z</time>
      </trkpt>
      <trkpt lat="41.834067" lon="-8.119333">
        <ele>503.0</ele>
        <time>2010-08-26T11:32:16Z</time>
      </trkpt>
      <trkpt lat="41.834017" lon="-8.119350">
        <ele>503.0</ele>
        <time>2010-08-26T11:32:18Z</time>
      </trkpt>
      <trkpt lat="41.833983" lon="-8.119350">
        <ele>504.0</ele>
        <time>2010-08-26T11:32:34Z</time>
      </trkpt>
      <trkpt lat="41.833933" lon="-8.119333">
        <ele>505.0</ele>
        <time>2010-08-26T11:32:39Z</time>
      </trkpt>
      <trkpt lat="41.833933" lon="-8.119400">
        <ele>509.0</ele>
        <time>2010-08-26T11:33:45Z</time>
      </trkpt>
      <trkpt lat="41.833950" lon="-8.119350">
        <ele>511.0</ele>
        <time>2010-08-26T11:34:42Z</time>
      </trkpt>
      <trkpt lat="41.834000" lon="-8.119350">
        <ele>509.0</ele>
        <time>2010-08-26T11:35:03Z</time>
      </trkpt>
      <trkpt lat="41.834033" lon="-8.119317">
        <ele>507.0</ele>
        <time>2010-08-26T11:35:38Z</time>
      </trkpt>
      <trkpt lat="41.834050" lon="-8.119267">
        <ele>509.0</ele>
        <time>2010-08-26T11:35:52Z</time>
      </trkpt>
      <trkpt lat="41.834050" lon="-8.119333">
        <ele>508.0</ele>
        <time>2010-08-26T11:36:05Z</time>
      </trkpt>
      <trkpt lat="41.834017" lon="-8.119367">
        <ele>508.0</ele>
        <time>2010-08-26T11:36:08Z</time>
      </trkpt>
      <trkpt lat="41.833983" lon="-8.119400">
        <ele>508.0</ele>
        <time>2010-08-26T11:36:15Z</time>
      </trkpt>
      <trkpt lat="41.834017" lon="-8.119417">
        <ele>508.0</ele>
        <time>2010-08-26T11:36:29Z</time>
      </trkpt>
      <trkpt lat="41.834050" lon="-8.119383">
        <ele>507.0</ele>
        <time>2010-08-26T11:36:31Z</time>
      </trkpt>
      <trkpt lat="41.834050" lon="-8.119350">
        <ele>507.0</ele>
        <time>2010-08-26T11:36:33Z</time>
      </trkpt>
      <trkpt lat="41.834050" lon="-8.119300">
        <ele>507.0</ele>
        <time>2010-08-26T11:36:35Z</time>
      </trkpt>
      <trkpt lat="41.834050" lon="-8.119250">
        <ele>507.0</ele>
        <time>2010-08-26T11:36:37Z</time>
      </trkpt>
      <trkpt lat="41.834050" lon="-8.119217">
        <ele>507.0</ele>
        <time>2010-08-26T11:36:39Z</time>
      </trkpt>
      <trkpt lat="41.834033" lon="-8.119150">
        <ele>507.0</ele>
        <time>2010-08-26T11:36:42Z</time>
      </trkpt>
      <trkpt lat="41.834067" lon="-8.119183">
        <ele>509.0</ele>
        <time>2010-08-26T11:37:48Z</time>
      </trkpt>
      <trkpt lat="41.834067" lon="-8.119217">
        <ele>509.0</ele>
        <time>2010-08-26T11:37:50Z</time>
      </trkpt>
      <trkpt lat="41.834067" lon="-8.119283">
        <ele>508.0</ele>
        <time>2010-08-26T11:37:53Z</time>
      </trkpt>
      <trkpt lat="41.834067" lon="-8.119333">
        <ele>508.0</ele>
        <time>2010-08-26T11:37:55Z</time>
      </trkpt>
      <trkpt lat="41.834083" lon="-8.119383">
        <ele>508.0</ele>
        <time>2010-08-26T11:37:57Z</time>
      </trkpt>
      <trkpt lat="41.834100" lon="-8.119417">
        <ele>508.0</ele>
        <time>2010-08-26T11:37:59Z</time>
      </trkpt>
      <trkpt lat="41.834133" lon="-8.119450">
        <ele>508.0</ele>
        <time>2010-08-26T11:38:01Z</time>
      </trkpt>
      <trkpt lat="41.834150" lon="-8.119483">
        <ele>508.0</ele>
        <time>2010-08-26T11:38:02Z</time>
      </trkpt>
      <trkpt lat="41.834167" lon="-8.119500">
        <ele>508.0</ele>
        <time>2010-08-26T11:38:03Z</time>
      </trkpt>
      <trkpt lat="41.834183" lon="-8.119533">
        <ele>508.0</ele>
        <time>2010-08-26T11:38:04Z</time>
      </trkpt>
      <trkpt lat="41.834200" lon="-8.119567">
        <ele>508.0</ele>
        <time>2010-08-26T11:38:05Z</time>
      </trkpt>
      <trkpt lat="41.834217" lon="-8.119600">
        <ele>508.0</ele>
        <time>2010-08-26T11:38:06Z</time>
      </trkpt>
      <trkpt lat="41.834233" lon="-8.119633">
        <ele>507.0</ele>
        <time>2010-08-26T11:38:07Z</time>
      </trkpt>
      <trkpt lat="41.834250" lon="-8.119667">
        <ele>507.0</ele>
        <time>2010-08-26T11:38:08Z</time>
      </trkpt>
      <trkpt lat="41.834267" lon="-8.119700">
        <ele>507.0</ele>
        <time>2010-08-26T11:38:09Z</time>
      </trkpt>
      <trkpt lat="41.834283" lon="-8.119717">
        <ele>507.0</ele>
        <time>2010-08-26T11:38:10Z</time>
      </trkpt>
      <trkpt lat="41.834300" lon="-8.119750">
        <ele>507.0</ele>
        <time>2010-08-26T11:38:11Z</time>
      </trkpt>
      <trkpt lat="41.834317" lon="-8.119783">
        <ele>507.0</ele>
        <time>2010-08-26T11:38:12Z</time>
      </trkpt>
      <trkpt lat="41.834333" lon="-8.119817">
        <ele>506.0</ele>
        <time>2010-08-26T11:38:13Z</time>
      </trkpt>
      <trkpt lat="41.834350" lon="-8.119833">
        <ele>506.0</ele>
        <time>2010-08-26T11:38:14Z</time>
      </trkpt>
      <trkpt lat="41.834383" lon="-8.119883">
        <ele>506.0</ele>
        <time>2010-08-26T11:38:19Z</time>
      </trkpt>
      <trkpt lat="41.834383" lon="-8.119900">
        <ele>505.0</ele>
        <time>2010-08-26T11:38:20Z</time>
      </trkpt>
      <trkpt lat="41.834400" lon="-8.119950">
        <ele>505.0</ele>
        <time>2010-08-26T11:38:21Z</time>
      </trkpt>
      <trkpt lat="41.834417" lon="-8.119983">
        <ele>505.0</ele>
        <time>2010-08-26T11:38:22Z</time>
      </trkpt>
      <trkpt lat="41.834450" lon="-8.120017">
        <ele>505.0</ele>
        <time>2010-08-26T11:38:23Z</time>
      </trkpt>
      <trkpt lat="41.834483" lon="-8.120067">
        <ele>505.0</ele>
        <time>2010-08-26T11:38:24Z</time>
      </trkpt>
      <trkpt lat="41.834500" lon="-8.120100">
        <ele>505.0</ele>
        <time>2010-08-26T11:38:25Z</time>
      </trkpt>
      <trkpt lat="41.834517" lon="-8.120150">
        <ele>505.0</ele>
        <time>2010-08-26T11:38:26Z</time>
      </trkpt>
      <trkpt lat="41.834517" lon="-8.120200">
        <ele>505.0</ele>
        <time>2010-08-26T11:38:27Z</time>
      </trkpt>
      <trkpt lat="41.834483" lon="-8.120250">
        <ele>504.0</ele>
        <time>2010-08-26T11:39:04Z</time>
      </trkpt>
      <trkpt lat="41.834450" lon="-8.120250">
        <ele>504.0</ele>
        <time>2010-08-26T11:39:08Z</time>
      </trkpt>
      <trkpt lat="41.834417" lon="-8.120267">
        <ele>504.0</ele>
        <time>2010-08-26T11:39:10Z</time>
      </trkpt>
      <trkpt lat="41.834383" lon="-8.120283">
        <ele>504.0</ele>
        <time>2010-08-26T11:39:12Z</time>
      </trkpt>
      <trkpt lat="41.834350" lon="-8.120300">
        <ele>504.0</ele>
        <time>2010-08-26T11:39:14Z</time>
      </trkpt>
      <trkpt lat="41.834317" lon="-8.120333">
        <ele>504.0</ele>
        <time>2010-08-26T11:39:16Z</time>
      </trkpt>
      <trkpt lat="41.834300" lon="-8.120367">
        <ele>503.0</ele>
        <time>2010-08-26T11:39:17Z</time>
      </trkpt>
      <trkpt lat="41.834283" lon="-8.120383">
        <ele>503.0</ele>
        <time>2010-08-26T11:39:18Z</time>
      </trkpt>
      <trkpt lat="41.834267" lon="-8.120417">
        <ele>503.0</ele>
        <time>2010-08-26T11:39:19Z</time>
      </trkpt>
      <trkpt lat="41.834233" lon="-8.120433">
        <ele>503.0</ele>
        <time>2010-08-26T11:39:20Z</time>
      </trkpt>
      <trkpt lat="41.834217" lon="-8.120450">
        <ele>503.0</ele>
        <time>2010-08-26T11:39:21Z</time>
      </trkpt>
      <trkpt lat="41.834183" lon="-8.120467">
        <ele>503.0</ele>
        <time>2010-08-26T11:39:22Z</time>
      </trkpt>
      <trkpt lat="41.834167" lon="-8.120483">
        <ele>503.0</ele>
        <time>2010-08-26T11:39:23Z</time>
      </trkpt>
      <trkpt lat="41.834133" lon="-8.120483">
        <ele>503.0</ele>
        <time>2010-08-26T11:39:24Z</time>
      </trkpt>
      <trkpt lat="41.834117" lon="-8.120483">
        <ele>503.0</ele>
        <time>2010-08-26T11:39:25Z</time>
      </trkpt>
      <trkpt lat="41.834067" lon="-8.120467">
        <ele>503.0</ele>
        <time>2010-08-26T11:39:27Z</time>
      </trkpt>
      <trkpt lat="41.834033" lon="-8.120450">
        <ele>503.0</ele>
        <time>2010-08-26T11:39:29Z</time>
      </trkpt>
      <trkpt lat="41.834000" lon="-8.120450">
        <ele>503.0</ele>
        <time>2010-08-26T11:39:31Z</time>
      </trkpt>
      <trkpt lat="41.833967" lon="-8.120417">
        <ele>503.0</ele>
        <time>2010-08-26T11:39:33Z</time>
      </trkpt>
      <trkpt lat="41.833933" lon="-8.120400">
        <ele>504.0</ele>
        <time>2010-08-26T11:39:35Z</time>
      </trkpt>
      <trkpt lat="41.833900" lon="-8.120383">
        <ele>504.0</ele>
        <time>2010-08-26T11:39:37Z</time>
      </trkpt>
      <trkpt lat="41.833867" lon="-8.120350">
        <ele>504.0</ele>
        <time>2010-08-26T11:39:39Z</time>
      </trkpt>
      <trkpt lat="41.833833" lon="-8.120333">
        <ele>504.0</ele>
        <time>2010-08-26T11:39:41Z</time>
      </trkpt>
      <trkpt lat="41.833800" lon="-8.120317">
        <ele>505.0</ele>
        <time>2010-08-26T11:39:43Z</time>
      </trkpt>
      <trkpt lat="41.833767" lon="-8.120300">
        <ele>505.0</ele>
        <time>2010-08-26T11:39:45Z</time>
      </trkpt>
      <trkpt lat="41.833733" lon="-8.120283">
        <ele>505.0</ele>
        <time>2010-08-26T11:39:47Z</time>
      </trkpt>
      <trkpt lat="41.833700" lon="-8.120283">
        <ele>505.0</ele>
        <time>2010-08-26T11:39:49Z</time>
      </trkpt>
      <trkpt lat="41.833683" lon="-8.120267">
        <ele>505.0</ele>
        <time>2010-08-26T11:39:51Z</time>
      </trkpt>
      <trkpt lat="41.833650" lon="-8.120267">
        <ele>506.0</ele>
        <time>2010-08-26T11:39:53Z</time>
      </trkpt>
      <trkpt lat="41.833600" lon="-8.120250">
        <ele>507.0</ele>
        <time>2010-08-26T11:39:56Z</time>
      </trkpt>
      <trkpt lat="41.833567" lon="-8.120250">
        <ele>508.0</ele>
        <time>2010-08-26T11:39:59Z</time>
      </trkpt>
      <trkpt lat="41.833517" lon="-8.120250">
        <ele>509.0</ele>
        <time>2010-08-26T11:40:02Z</time>
      </trkpt>
      <trkpt lat="41.833483" lon="-8.120233">
        <ele>510.0</ele>
        <time>2010-08-26T11:40:05Z</time>
      </trkpt>
      <trkpt lat="41.833433" lon="-8.120233">
        <ele>511.0</ele>
        <time>2010-08-26T11:40:08Z</time>
      </trkpt>
      <trkpt lat="41.833400" lon="-8.120233">
        <ele>511.0</ele>
        <time>2010-08-26T11:40:11Z</time>
      </trkpt>
      <trkpt lat="41.833400" lon="-8.120300">
        <ele>511.0</ele>
        <time>2010-08-26T11:40:36Z</time>
      </trkpt>
      <trkpt lat="41.833367" lon="-8.120317">
        <ele>512.0</ele>
        <time>2010-08-26T11:40:47Z</time>
      </trkpt>
      <trkpt lat="41.833350" lon="-8.120317">
        <ele>512.0</ele>
        <time>2010-08-26T11:40:49Z</time>
      </trkpt>
      <trkpt lat="41.833317" lon="-8.120317">
        <ele>513.0</ele>
        <time>2010-08-26T11:40:51Z</time>
      </trkpt>
      <trkpt lat="41.833283" lon="-8.120317">
        <ele>513.0</ele>
        <time>2010-08-26T11:40:53Z</time>
      </trkpt>
      <trkpt lat="41.833250" lon="-8.120300">
        <ele>514.0</ele>
        <time>2010-08-26T11:40:55Z</time>
      </trkpt>
      <trkpt lat="41.833217" lon="-8.120300">
        <ele>515.0</ele>
        <time>2010-08-26T11:40:57Z</time>
      </trkpt>
      <trkpt lat="41.833183" lon="-8.120300">
        <ele>516.0</ele>
        <time>2010-08-26T11:40:59Z</time>
      </trkpt>
      <trkpt lat="41.833150" lon="-8.120300">
        <ele>516.0</ele>
        <time>2010-08-26T11:41:01Z</time>
      </trkpt>
      <trkpt lat="41.833117" lon="-8.120300">
        <ele>517.0</ele>
        <time>2010-08-26T11:41:03Z</time>
      </trkpt>
      <trkpt lat="41.833083" lon="-8.120317">
        <ele>517.0</ele>
        <time>2010-08-26T11:41:05Z</time>
      </trkpt>
      <trkpt lat="41.833050" lon="-8.120317">
        <ele>518.0</ele>
        <time>2010-08-26T11:41:07Z</time>
      </trkpt>
      <trkpt lat="41.833017" lon="-8.120317">
        <ele>519.0</ele>
        <time>2010-08-26T11:41:09Z</time>
      </trkpt>
      <trkpt lat="41.832983" lon="-8.120317">
        <ele>519.0</ele>
        <time>2010-08-26T11:41:11Z</time>
      </trkpt>
      <trkpt lat="41.832950" lon="-8.120333">
        <ele>520.0</ele>
        <time>2010-08-26T11:41:13Z</time>
      </trkpt>
      <trkpt lat="41.832917" lon="-8.120333">
        <ele>520.0</ele>
        <time>2010-08-26T11:41:15Z</time>
      </trkpt>
      <trkpt lat="41.832883" lon="-8.120350">
        <ele>521.0</ele>
        <time>2010-08-26T11:41:17Z</time>
      </trkpt>
      <trkpt lat="41.832850" lon="-8.120350">
        <ele>521.0</ele>
        <time>2010-08-26T11:41:19Z</time>
      </trkpt>
      <trkpt lat="41.832817" lon="-8.120367">
        <ele>522.0</ele>
        <time>2010-08-26T11:41:21Z</time>
      </trkpt>
      <trkpt lat="41.832800" lon="-8.120367">
        <ele>523.0</ele>
        <time>2010-08-26T11:41:23Z</time>
      </trkpt>
      <trkpt lat="41.832767" lon="-8.120367">
        <ele>524.0</ele>
        <time>2010-08-26T11:41:25Z</time>
      </trkpt>
      <trkpt lat="41.832733" lon="-8.120383">
        <ele>524.0</ele>
        <time>2010-08-26T11:41:27Z</time>
      </trkpt>
      <trkpt lat="41.832700" lon="-8.120400">
        <ele>525.0</ele>
        <time>2010-08-26T11:41:29Z</time>
      </trkpt>
      <trkpt lat="41.832667" lon="-8.120400">
        <ele>525.0</ele>
        <time>2010-08-26T11:41:31Z</time>
      </trkpt>
      <trkpt lat="41.832633" lon="-8.120417">
        <ele>526.0</ele>
        <time>2010-08-26T11:41:33Z</time>
      </trkpt>
      <trkpt lat="41.832600" lon="-8.120417">
        <ele>527.0</ele>
        <time>2010-08-26T11:41:35Z</time>
      </trkpt>
      <trkpt lat="41.832567" lon="-8.120433">
        <ele>527.0</ele>
        <time>2010-08-26T11:41:37Z</time>
      </trkpt>
      <trkpt lat="41.832533" lon="-8.120450">
        <ele>528.0</ele>
        <time>2010-08-26T11:41:39Z</time>
      </trkpt>
      <trkpt lat="41.832500" lon="-8.120450">
        <ele>528.0</ele>
        <time>2010-08-26T11:41:41Z</time>
      </trkpt>
      <trkpt lat="41.832467" lon="-8.120467">
        <ele>529.0</ele>
        <time>2010-08-26T11:41:43Z</time>
      </trkpt>
      <trkpt lat="41.832433" lon="-8.120483">
        <ele>529.0</ele>
        <time>2010-08-26T11:41:45Z</time>
      </trkpt>
      <trkpt lat="41.832417" lon="-8.120500">
        <ele>530.0</ele>
        <time>2010-08-26T11:41:47Z</time>
      </trkpt>
      <trkpt lat="41.832383" lon="-8.120500">
        <ele>531.0</ele>
        <time>2010-08-26T11:41:49Z</time>
      </trkpt>
      <trkpt lat="41.832350" lon="-8.120517">
        <ele>531.0</ele>
        <time>2010-08-26T11:41:51Z</time>
      </trkpt>
      <trkpt lat="41.832317" lon="-8.120533">
        <ele>532.0</ele>
        <time>2010-08-26T11:41:53Z</time>
      </trkpt>
      <trkpt lat="41.832283" lon="-8.120550">
        <ele>533.0</ele>
        <time>2010-08-26T11:41:55Z</time>
      </trkpt>
      <trkpt lat="41.832250" lon="-8.120567">
        <ele>533.0</ele>
        <time>2010-08-26T11:41:57Z</time>
      </trkpt>
      <trkpt lat="41.832217" lon="-8.120583">
        <ele>533.0</ele>
        <time>2010-08-26T11:41:59Z</time>
      </trkpt>
      <trkpt lat="41.832183" lon="-8.120583">
        <ele>533.0</ele>
        <time>2010-08-26T11:42:01Z</time>
      </trkpt>
      <trkpt lat="41.832150" lon="-8.120600">
        <ele>533.0</ele>
        <time>2010-08-26T11:42:03Z</time>
      </trkpt>
      <trkpt lat="41.832117" lon="-8.120617">
        <ele>534.0</ele>
        <time>2010-08-26T11:42:05Z</time>
      </trkpt>
      <trkpt lat="41.832100" lon="-8.120633">
        <ele>534.0</ele>
        <time>2010-08-26T11:42:07Z</time>
      </trkpt>
      <trkpt lat="41.832067" lon="-8.120667">
        <ele>535.0</ele>
        <time>2010-08-26T11:42:09Z</time>
      </trkpt>
      <trkpt lat="41.832033" lon="-8.120683">
        <ele>535.0</ele>
        <time>2010-08-26T11:42:12Z</time>
      </trkpt>
      <trkpt lat="41.832000" lon="-8.120700">
        <ele>536.0</ele>
        <time>2010-08-26T11:42:14Z</time>
      </trkpt>
      <trkpt lat="41.831967" lon="-8.120717">
        <ele>537.0</ele>
        <time>2010-08-26T11:42:16Z</time>
      </trkpt>
      <trkpt lat="41.831933" lon="-8.120733">
        <ele>538.0</ele>
        <time>2010-08-26T11:42:18Z</time>
      </trkpt>
      <trkpt lat="41.831900" lon="-8.120750">
        <ele>539.0</ele>
        <time>2010-08-26T11:42:20Z</time>
      </trkpt>
      <trkpt lat="41.831867" lon="-8.120750">
        <ele>540.0</ele>
        <time>2010-08-26T11:42:22Z</time>
      </trkpt>
      <trkpt lat="41.831833" lon="-8.120767">
        <ele>541.0</ele>
        <time>2010-08-26T11:42:24Z</time>
      </trkpt>
      <trkpt lat="41.831817" lon="-8.120767">
        <ele>542.0</ele>
        <time>2010-08-26T11:42:26Z</time>
      </trkpt>
      <trkpt lat="41.831783" lon="-8.120783">
        <ele>543.0</ele>
        <time>2010-08-26T11:42:28Z</time>
      </trkpt>
      <trkpt lat="41.831750" lon="-8.120783">
        <ele>544.0</ele>
        <time>2010-08-26T11:42:30Z</time>
      </trkpt>
      <trkpt lat="41.831717" lon="-8.120800">
        <ele>545.0</ele>
        <time>2010-08-26T11:42:32Z</time>
      </trkpt>
      <trkpt lat="41.831683" lon="-8.120817">
        <ele>545.0</ele>
        <time>2010-08-26T11:42:34Z</time>
      </trkpt>
      <trkpt lat="41.831650" lon="-8.120833">
        <ele>545.0</ele>
        <time>2010-08-26T11:42:36Z</time>
      </trkpt>
      <trkpt lat="41.831617" lon="-8.120850">
        <ele>545.0</ele>
        <time>2010-08-26T11:42:38Z</time>
      </trkpt>
      <trkpt lat="41.831583" lon="-8.120850">
        <ele>546.0</ele>
        <time>2010-08-26T11:42:40Z</time>
      </trkpt>
      <trkpt lat="41.831550" lon="-8.120867">
        <ele>546.0</ele>
        <time>2010-08-26T11:42:42Z</time>
      </trkpt>
      <trkpt lat="41.831517" lon="-8.120883">
        <ele>546.0</ele>
        <time>2010-08-26T11:42:44Z</time>
      </trkpt>
      <trkpt lat="41.831483" lon="-8.120883">
        <ele>546.0</ele>
        <time>2010-08-26T11:42:46Z</time>
      </trkpt>
      <trkpt lat="41.831450" lon="-8.120917">
        <ele>546.0</ele>
        <time>2010-08-26T11:42:48Z</time>
      </trkpt>
      <trkpt lat="41.831417" lon="-8.120933">
        <ele>545.0</ele>
        <time>2010-08-26T11:42:50Z</time>
      </trkpt>
      <trkpt lat="41.831383" lon="-8.120950">
        <ele>545.0</ele>
        <time>2010-08-26T11:42:52Z</time>
      </trkpt>
      <trkpt lat="41.831350" lon="-8.120967">
        <ele>544.0</ele>
        <time>2010-08-26T11:42:54Z</time>
      </trkpt>
      <trkpt lat="41.831333" lon="-8.120983">
        <ele>544.0</ele>
        <time>2010-08-26T11:42:56Z</time>
      </trkpt>
      <trkpt lat="41.831300" lon="-8.121017">
        <ele>544.0</ele>
        <time>2010-08-26T11:42:58Z</time>
      </trkpt>
      <trkpt lat="41.831267" lon="-8.121033">
        <ele>543.0</ele>
        <time>2010-08-26T11:43:01Z</time>
      </trkpt>
      <trkpt lat="41.831233" lon="-8.121067">
        <ele>543.0</ele>
        <time>2010-08-26T11:43:04Z</time>
      </trkpt>
      <trkpt lat="41.831200" lon="-8.121100">
        <ele>543.0</ele>
        <time>2010-08-26T11:43:06Z</time>
      </trkpt>
      <trkpt lat="41.831167" lon="-8.121117">
        <ele>542.0</ele>
        <time>2010-08-26T11:43:08Z</time>
      </trkpt>
      <trkpt lat="41.831150" lon="-8.121117">
        <ele>542.0</ele>
        <time>2010-08-26T11:43:10Z</time>
      </trkpt>
      <trkpt lat="41.831100" lon="-8.121150">
        <ele>542.0</ele>
        <time>2010-08-26T11:43:13Z</time>
      </trkpt>
      <trkpt lat="41.831067" lon="-8.121150">
        <ele>542.0</ele>
        <time>2010-08-26T11:43:15Z</time>
      </trkpt>
      <trkpt lat="41.831033" lon="-8.121167">
        <ele>542.0</ele>
        <time>2010-08-26T11:43:18Z</time>
      </trkpt>
      <trkpt lat="41.830983" lon="-8.121183">
        <ele>542.0</ele>
        <time>2010-08-26T11:43:21Z</time>
      </trkpt>
      <trkpt lat="41.830950" lon="-8.121200">
        <ele>543.0</ele>
        <time>2010-08-26T11:43:24Z</time>
      </trkpt>
      <trkpt lat="41.830900" lon="-8.121200">
        <ele>544.0</ele>
        <time>2010-08-26T11:43:27Z</time>
      </trkpt>
      <trkpt lat="41.830867" lon="-8.121217">
        <ele>545.0</ele>
        <time>2010-08-26T11:43:30Z</time>
      </trkpt>
      <trkpt lat="41.830817" lon="-8.121233">
        <ele>546.0</ele>
        <time>2010-08-26T11:43:33Z</time>
      </trkpt>
      <trkpt lat="41.830783" lon="-8.121233">
        <ele>547.0</ele>
        <time>2010-08-26T11:43:36Z</time>
      </trkpt>
      <trkpt lat="41.830767" lon="-8.121250">
        <ele>548.0</ele>
        <time>2010-08-26T11:43:39Z</time>
      </trkpt>
      <trkpt lat="41.830717" lon="-8.121267">
        <ele>548.0</ele>
        <time>2010-08-26T11:43:42Z</time>
      </trkpt>
      <trkpt lat="41.830683" lon="-8.121300">
        <ele>549.0</ele>
        <time>2010-08-26T11:43:45Z</time>
      </trkpt>
      <trkpt lat="41.830650" lon="-8.121317">
        <ele>549.0</ele>
        <time>2010-08-26T11:43:48Z</time>
      </trkpt>
      <trkpt lat="41.830617" lon="-8.121333">
        <ele>548.0</ele>
        <time>2010-08-26T11:43:51Z</time>
      </trkpt>
      <trkpt lat="41.830583" lon="-8.121367">
        <ele>548.0</ele>
        <time>2010-08-26T11:43:54Z</time>
      </trkpt>
      <trkpt lat="41.830533" lon="-8.121367">
        <ele>549.0</ele>
        <time>2010-08-26T11:43:57Z</time>
      </trkpt>
      <trkpt lat="41.830500" lon="-8.121400">
        <ele>549.0</ele>
        <time>2010-08-26T11:44:00Z</time>
      </trkpt>
      <trkpt lat="41.830467" lon="-8.121417">
        <ele>550.0</ele>
        <time>2010-08-26T11:44:04Z</time>
      </trkpt>
      <trkpt lat="41.830433" lon="-8.121417">
        <ele>551.0</ele>
        <time>2010-08-26T11:44:07Z</time>
      </trkpt>
      <trkpt lat="41.830400" lon="-8.121417">
        <ele>552.0</ele>
        <time>2010-08-26T11:44:10Z</time>
      </trkpt>
      <trkpt lat="41.830350" lon="-8.121433">
        <ele>553.0</ele>
        <time>2010-08-26T11:44:13Z</time>
      </trkpt>
      <trkpt lat="41.830317" lon="-8.121450">
        <ele>554.0</ele>
        <time>2010-08-26T11:44:17Z</time>
      </trkpt>
      <trkpt lat="41.830283" lon="-8.121450">
        <ele>555.0</ele>
        <time>2010-08-26T11:44:20Z</time>
      </trkpt>
      <trkpt lat="41.830233" lon="-8.121433">
        <ele>557.0</ele>
        <time>2010-08-26T11:44:23Z</time>
      </trkpt>
      <trkpt lat="41.830200" lon="-8.121433">
        <ele>559.0</ele>
        <time>2010-08-26T11:44:27Z</time>
      </trkpt>
      <trkpt lat="41.830167" lon="-8.121450">
        <ele>559.0</ele>
        <time>2010-08-26T11:44:30Z</time>
      </trkpt>
      <trkpt lat="41.830117" lon="-8.121467">
        <ele>560.0</ele>
        <time>2010-08-26T11:44:34Z</time>
      </trkpt>
      <trkpt lat="41.830083" lon="-8.121467">
        <ele>561.0</ele>
        <time>2010-08-26T11:44:37Z</time>
      </trkpt>
      <trkpt lat="41.830050" lon="-8.121467">
        <ele>561.0</ele>
        <time>2010-08-26T11:44:40Z</time>
      </trkpt>
      <trkpt lat="41.830017" lon="-8.121517">
        <ele>563.0</ele>
        <time>2010-08-26T11:45:18Z</time>
      </trkpt>
      <trkpt lat="41.829983" lon="-8.121550">
        <ele>563.0</ele>
        <time>2010-08-26T11:45:59Z</time>
      </trkpt>
      <trkpt lat="41.829950" lon="-8.121583">
        <ele>563.0</ele>
        <time>2010-08-26T11:46:03Z</time>
      </trkpt>
      <trkpt lat="41.829917" lon="-8.121600">
        <ele>565.0</ele>
        <time>2010-08-26T11:46:07Z</time>
      </trkpt>
      <trkpt lat="41.829867" lon="-8.121617">
        <ele>566.0</ele>
        <time>2010-08-26T11:46:10Z</time>
      </trkpt>
      <trkpt lat="41.829833" lon="-8.121633">
        <ele>567.0</ele>
        <time>2010-08-26T11:46:13Z</time>
      </trkpt>
      <trkpt lat="41.829783" lon="-8.121650">
        <ele>567.0</ele>
        <time>2010-08-26T11:46:16Z</time>
      </trkpt>
      <trkpt lat="41.829750" lon="-8.121650">
        <ele>568.0</ele>
        <time>2010-08-26T11:46:19Z</time>
      </trkpt>
      <trkpt lat="41.829700" lon="-8.121667">
        <ele>569.0</ele>
        <time>2010-08-26T11:46:22Z</time>
      </trkpt>
      <trkpt lat="41.829667" lon="-8.121683">
        <ele>569.0</ele>
        <time>2010-08-26T11:46:25Z</time>
      </trkpt>
      <trkpt lat="41.829633" lon="-8.121700">
        <ele>570.0</ele>
        <time>2010-08-26T11:46:28Z</time>
      </trkpt>
      <trkpt lat="41.829583" lon="-8.121717">
        <ele>571.0</ele>
        <time>2010-08-26T11:46:31Z</time>
      </trkpt>
      <trkpt lat="41.829550" lon="-8.121733">
        <ele>571.0</ele>
        <time>2010-08-26T11:46:34Z</time>
      </trkpt>
      <trkpt lat="41.829517" lon="-8.121767">
        <ele>572.0</ele>
        <time>2010-08-26T11:46:37Z</time>
      </trkpt>
      <trkpt lat="41.829467" lon="-8.121783">
        <ele>572.0</ele>
        <time>2010-08-26T11:46:40Z</time>
      </trkpt>
      <trkpt lat="41.829433" lon="-8.121817">
        <ele>573.0</ele>
        <time>2010-08-26T11:46:43Z</time>
      </trkpt>
      <trkpt lat="41.829400" lon="-8.121833">
        <ele>573.0</ele>
        <time>2010-08-26T11:46:46Z</time>
      </trkpt>
      <trkpt lat="41.829367" lon="-8.121867">
        <ele>573.0</ele>
        <time>2010-08-26T11:46:49Z</time>
      </trkpt>
      <trkpt lat="41.829333" lon="-8.121900">
        <ele>573.0</ele>
        <time>2010-08-26T11:46:52Z</time>
      </trkpt>
      <trkpt lat="41.829300" lon="-8.121917">
        <ele>574.0</ele>
        <time>2010-08-26T11:46:55Z</time>
      </trkpt>
      <trkpt lat="41.829283" lon="-8.121950">
        <ele>574.0</ele>
        <time>2010-08-26T11:46:58Z</time>
      </trkpt>
      <trkpt lat="41.829233" lon="-8.121983">
        <ele>575.0</ele>
        <time>2010-08-26T11:47:01Z</time>
      </trkpt>
      <trkpt lat="41.829200" lon="-8.122000">
        <ele>575.0</ele>
        <time>2010-08-26T11:47:04Z</time>
      </trkpt>
      <trkpt lat="41.829183" lon="-8.122033">
        <ele>576.0</ele>
        <time>2010-08-26T11:47:07Z</time>
      </trkpt>
      <trkpt lat="41.829150" lon="-8.122067">
        <ele>576.0</ele>
        <time>2010-08-26T11:47:10Z</time>
      </trkpt>
      <trkpt lat="41.829117" lon="-8.122100">
        <ele>576.0</ele>
        <time>2010-08-26T11:47:13Z</time>
      </trkpt>
      <trkpt lat="41.829083" lon="-8.122133">
        <ele>577.0</ele>
        <time>2010-08-26T11:47:16Z</time>
      </trkpt>
      <trkpt lat="41.829050" lon="-8.122150">
        <ele>577.0</ele>
        <time>2010-08-26T11:47:19Z</time>
      </trkpt>
      <trkpt lat="41.829017" lon="-8.122167">
        <ele>577.0</ele>
        <time>2010-08-26T11:47:21Z</time>
      </trkpt>
      <trkpt lat="41.829000" lon="-8.122183">
        <ele>577.0</ele>
        <time>2010-08-26T11:47:23Z</time>
      </trkpt>
      <trkpt lat="41.828967" lon="-8.122200">
        <ele>577.0</ele>
        <time>2010-08-26T11:47:25Z</time>
      </trkpt>
      <trkpt lat="41.828933" lon="-8.122233">
        <ele>577.0</ele>
        <time>2010-08-26T11:47:27Z</time>
      </trkpt>
      <trkpt lat="41.828917" lon="-8.122250">
        <ele>578.0</ele>
        <time>2010-08-26T11:47:29Z</time>
      </trkpt>
      <trkpt lat="41.828883" lon="-8.122283">
        <ele>578.0</ele>
        <time>2010-08-26T11:47:32Z</time>
      </trkpt>
      <trkpt lat="41.828850" lon="-8.122300">
        <ele>578.0</ele>
        <time>2010-08-26T11:47:34Z</time>
      </trkpt>
      <trkpt lat="41.828833" lon="-8.122333">
        <ele>579.0</ele>
        <time>2010-08-26T11:47:36Z</time>
      </trkpt>
      <trkpt lat="41.828783" lon="-8.122367">
        <ele>579.0</ele>
        <time>2010-08-26T11:47:39Z</time>
      </trkpt>
      <trkpt lat="41.828767" lon="-8.122383">
        <ele>579.0</ele>
        <time>2010-08-26T11:47:41Z</time>
      </trkpt>
      <trkpt lat="41.828750" lon="-8.122417">
        <ele>579.0</ele>
        <time>2010-08-26T11:47:43Z</time>
      </trkpt>
      <trkpt lat="41.828717" lon="-8.122467">
        <ele>579.0</ele>
        <time>2010-08-26T11:47:46Z</time>
      </trkpt>
      <trkpt lat="41.828683" lon="-8.122500">
        <ele>580.0</ele>
        <time>2010-08-26T11:47:49Z</time>
      </trkpt>
      <trkpt lat="41.828650" lon="-8.122550">
        <ele>580.0</ele>
        <time>2010-08-26T11:47:52Z</time>
      </trkpt>
      <trkpt lat="41.828633" lon="-8.122583">
        <ele>581.0</ele>
        <time>2010-08-26T11:47:55Z</time>
      </trkpt>
      <trkpt lat="41.828600" lon="-8.122617">
        <ele>581.0</ele>
        <time>2010-08-26T11:47:58Z</time>
      </trkpt>
      <trkpt lat="41.828567" lon="-8.122650">
        <ele>582.0</ele>
        <time>2010-08-26T11:48:00Z</time>
      </trkpt>
      <trkpt lat="41.828533" lon="-8.122650">
        <ele>582.0</ele>
        <time>2010-08-26T11:48:02Z</time>
      </trkpt>
      <trkpt lat="41.828500" lon="-8.122683">
        <ele>583.0</ele>
        <time>2010-08-26T11:48:04Z</time>
      </trkpt>
      <trkpt lat="41.828483" lon="-8.122683">
        <ele>583.0</ele>
        <time>2010-08-26T11:48:06Z</time>
      </trkpt>
      <trkpt lat="41.828450" lon="-8.122700">
        <ele>584.0</ele>
        <time>2010-08-26T11:48:08Z</time>
      </trkpt>
      <trkpt lat="41.828417" lon="-8.122717">
        <ele>584.0</ele>
        <time>2010-08-26T11:48:10Z</time>
      </trkpt>
      <trkpt lat="41.828383" lon="-8.122733">
        <ele>585.0</ele>
        <time>2010-08-26T11:48:12Z</time>
      </trkpt>
      <trkpt lat="41.828350" lon="-8.122733">
        <ele>586.0</ele>
        <time>2010-08-26T11:48:14Z</time>
      </trkpt>
      <trkpt lat="41.828300" lon="-8.122733">
        <ele>587.0</ele>
        <time>2010-08-26T11:48:16Z</time>
      </trkpt>
      <trkpt lat="41.828267" lon="-8.122750">
        <ele>588.0</ele>
        <time>2010-08-26T11:48:18Z</time>
      </trkpt>
      <trkpt lat="41.828233" lon="-8.122750">
        <ele>588.0</ele>
        <time>2010-08-26T11:48:20Z</time>
      </trkpt>
      <trkpt lat="41.828200" lon="-8.122767">
        <ele>588.0</ele>
        <time>2010-08-26T11:48:22Z</time>
      </trkpt>
      <trkpt lat="41.828167" lon="-8.122767">
        <ele>589.0</ele>
        <time>2010-08-26T11:48:24Z</time>
      </trkpt>
      <trkpt lat="41.828133" lon="-8.122783">
        <ele>590.0</ele>
        <time>2010-08-26T11:48:26Z</time>
      </trkpt>
      <trkpt lat="41.828100" lon="-8.122783">
        <ele>590.0</ele>
        <time>2010-08-26T11:48:29Z</time>
      </trkpt>
      <trkpt lat="41.828067" lon="-8.122800">
        <ele>590.0</ele>
        <time>2010-08-26T11:48:31Z</time>
      </trkpt>
      <trkpt lat="41.828033" lon="-8.122817">
        <ele>590.0</ele>
        <time>2010-08-26T11:48:34Z</time>
      </trkpt>
      <trkpt lat="41.827983" lon="-8.122833">
        <ele>591.0</ele>
        <time>2010-08-26T11:48:38Z</time>
      </trkpt>
      <trkpt lat="41.827950" lon="-8.122817">
        <ele>592.0</ele>
        <time>2010-08-26T11:48:40Z</time>
      </trkpt>
      <trkpt lat="41.827917" lon="-8.122817">
        <ele>593.0</ele>
        <time>2010-08-26T11:48:42Z</time>
      </trkpt>
      <trkpt lat="41.827883" lon="-8.122817">
        <ele>593.0</ele>
        <time>2010-08-26T11:48:44Z</time>
      </trkpt>
      <trkpt lat="41.827850" lon="-8.122817">
        <ele>593.0</ele>
        <time>2010-08-26T11:48:46Z</time>
      </trkpt>
      <trkpt lat="41.827817" lon="-8.122817">
        <ele>593.0</ele>
        <time>2010-08-26T11:48:48Z</time>
      </trkpt>
      <trkpt lat="41.827783" lon="-8.122817">
        <ele>593.0</ele>
        <time>2010-08-26T11:48:50Z</time>
      </trkpt>
      <trkpt lat="41.827750" lon="-8.122833">
        <ele>593.0</ele>
        <time>2010-08-26T11:48:52Z</time>
      </trkpt>
      <trkpt lat="41.827717" lon="-8.122850">
        <ele>593.0</ele>
        <time>2010-08-26T11:48:54Z</time>
      </trkpt>
      <trkpt lat="41.827683" lon="-8.122867">
        <ele>593.0</ele>
        <time>2010-08-26T11:48:56Z</time>
      </trkpt>
      <trkpt lat="41.827650" lon="-8.122883">
        <ele>593.0</ele>
        <time>2010-08-26T11:48:58Z</time>
      </trkpt>
      <trkpt lat="41.827617" lon="-8.122900">
        <ele>593.0</ele>
        <time>2010-08-26T11:49:00Z</time>
      </trkpt>
      <trkpt lat="41.827600" lon="-8.122933">
        <ele>593.0</ele>
        <time>2010-08-26T11:49:02Z</time>
      </trkpt>
      <trkpt lat="41.827567" lon="-8.122950">
        <ele>593.0</ele>
        <time>2010-08-26T11:49:04Z</time>
      </trkpt>
      <trkpt lat="41.827550" lon="-8.122983">
        <ele>593.0</ele>
        <time>2010-08-26T11:49:06Z</time>
      </trkpt>
      <trkpt lat="41.827517" lon="-8.123017">
        <ele>593.0</ele>
        <time>2010-08-26T11:49:08Z</time>
      </trkpt>
      <trkpt lat="41.827500" lon="-8.123050">
        <ele>593.0</ele>
        <time>2010-08-26T11:49:10Z</time>
      </trkpt>
      <trkpt lat="41.827467" lon="-8.123067">
        <ele>593.0</ele>
        <time>2010-08-26T11:49:12Z</time>
      </trkpt>
      <trkpt lat="41.827450" lon="-8.123100">
        <ele>593.0</ele>
        <time>2010-08-26T11:49:14Z</time>
      </trkpt>
      <trkpt lat="41.827417" lon="-8.123117">
        <ele>593.0</ele>
        <time>2010-08-26T11:49:16Z</time>
      </trkpt>
      <trkpt lat="41.827383" lon="-8.123133">
        <ele>593.0</ele>
        <time>2010-08-26T11:49:18Z</time>
      </trkpt>
      <trkpt lat="41.827350" lon="-8.123167">
        <ele>593.0</ele>
        <time>2010-08-26T11:49:20Z</time>
      </trkpt>
      <trkpt lat="41.827317" lon="-8.123183">
        <ele>594.0</ele>
        <time>2010-08-26T11:49:23Z</time>
      </trkpt>
      <trkpt lat="41.827283" lon="-8.123200">
        <ele>594.0</ele>
        <time>2010-08-26T11:49:25Z</time>
      </trkpt>
      <trkpt lat="41.827250" lon="-8.123217">
        <ele>595.0</ele>
        <time>2010-08-26T11:49:28Z</time>
      </trkpt>
      <trkpt lat="41.827217" lon="-8.123250">
        <ele>595.0</ele>
        <time>2010-08-26T11:49:31Z</time>
      </trkpt>
      <trkpt lat="41.827183" lon="-8.123283">
        <ele>595.0</ele>
        <time>2010-08-26T11:49:33Z</time>
      </trkpt>
      <trkpt lat="41.827167" lon="-8.123300">
        <ele>595.0</ele>
        <time>2010-08-26T11:49:35Z</time>
      </trkpt>
      <trkpt lat="41.827133" lon="-8.123317">
        <ele>595.0</ele>
        <time>2010-08-26T11:49:37Z</time>
      </trkpt>
      <trkpt lat="41.827100" lon="-8.123350">
        <ele>595.0</ele>
        <time>2010-08-26T11:49:40Z</time>
      </trkpt>
      <trkpt lat="41.827067" lon="-8.123367">
        <ele>595.0</ele>
        <time>2010-08-26T11:49:42Z</time>
      </trkpt>
      <trkpt lat="41.827033" lon="-8.123383">
        <ele>595.0</ele>
        <time>2010-08-26T11:49:44Z</time>
      </trkpt>
      <trkpt lat="41.827000" lon="-8.123417">
        <ele>595.0</ele>
        <time>2010-08-26T11:49:46Z</time>
      </trkpt>
      <trkpt lat="41.826983" lon="-8.123450">
        <ele>594.0</ele>
        <time>2010-08-26T11:49:48Z</time>
      </trkpt>
      <trkpt lat="41.826933" lon="-8.123483">
        <ele>594.0</ele>
        <time>2010-08-26T11:49:50Z</time>
      </trkpt>
      <trkpt lat="41.826900" lon="-8.123517">
        <ele>593.0</ele>
        <time>2010-08-26T11:49:52Z</time>
      </trkpt>
      <trkpt lat="41.826867" lon="-8.123550">
        <ele>593.0</ele>
        <time>2010-08-26T11:49:54Z</time>
      </trkpt>
      <trkpt lat="41.826833" lon="-8.123583">
        <ele>592.0</ele>
        <time>2010-08-26T11:49:56Z</time>
      </trkpt>
      <trkpt lat="41.826800" lon="-8.123617">
        <ele>592.0</ele>
        <time>2010-08-26T11:49:58Z</time>
      </trkpt>
      <trkpt lat="41.826767" lon="-8.123650">
        <ele>592.0</ele>
        <time>2010-08-26T11:50:00Z</time>
      </trkpt>
      <trkpt lat="41.826733" lon="-8.123667">
        <ele>592.0</ele>
        <time>2010-08-26T11:50:02Z</time>
      </trkpt>
      <trkpt lat="41.826700" lon="-8.123700">
        <ele>592.0</ele>
        <time>2010-08-26T11:50:04Z</time>
      </trkpt>
      <trkpt lat="41.826650" lon="-8.123733">
        <ele>592.0</ele>
        <time>2010-08-26T11:50:06Z</time>
      </trkpt>
      <trkpt lat="41.826633" lon="-8.123750">
        <ele>592.0</ele>
        <time>2010-08-26T11:50:07Z</time>
      </trkpt>
      <trkpt lat="41.826617" lon="-8.123767">
        <ele>591.0</ele>
        <time>2010-08-26T11:50:08Z</time>
      </trkpt>
      <trkpt lat="41.826600" lon="-8.123783">
        <ele>591.0</ele>
        <time>2010-08-26T11:50:09Z</time>
      </trkpt>
      <trkpt lat="41.826567" lon="-8.123817">
        <ele>591.0</ele>
        <time>2010-08-26T11:50:11Z</time>
      </trkpt>
      <trkpt lat="41.826533" lon="-8.123850">
        <ele>590.0</ele>
        <time>2010-08-26T11:50:13Z</time>
      </trkpt>
      <trkpt lat="41.826500" lon="-8.123900">
        <ele>590.0</ele>
        <time>2010-08-26T11:50:15Z</time>
      </trkpt>
      <trkpt lat="41.826467" lon="-8.123933">
        <ele>589.0</ele>
        <time>2010-08-26T11:50:17Z</time>
      </trkpt>
      <trkpt lat="41.826433" lon="-8.123967">
        <ele>589.0</ele>
        <time>2010-08-26T11:50:19Z</time>
      </trkpt>
      <trkpt lat="41.826383" lon="-8.123983">
        <ele>589.0</ele>
        <time>2010-08-26T11:50:21Z</time>
      </trkpt>
      <trkpt lat="41.826350" lon="-8.124017">
        <ele>589.0</ele>
        <time>2010-08-26T11:50:23Z</time>
      </trkpt>
      <trkpt lat="41.826317" lon="-8.124050">
        <ele>589.0</ele>
        <time>2010-08-26T11:50:25Z</time>
      </trkpt>
      <trkpt lat="41.826283" lon="-8.124083">
        <ele>589.0</ele>
        <time>2010-08-26T11:50:27Z</time>
      </trkpt>
      <trkpt lat="41.826250" lon="-8.124100">
        <ele>589.0</ele>
        <time>2010-08-26T11:50:29Z</time>
      </trkpt>
      <trkpt lat="41.826217" lon="-8.124133">
        <ele>589.0</ele>
        <time>2010-08-26T11:50:31Z</time>
      </trkpt>
      <trkpt lat="41.826183" lon="-8.124150">
        <ele>590.0</ele>
        <time>2010-08-26T11:50:33Z</time>
      </trkpt>
      <trkpt lat="41.826150" lon="-8.124167">
        <ele>592.0</ele>
        <time>2010-08-26T11:50:35Z</time>
      </trkpt>
      <trkpt lat="41.826117" lon="-8.124167">
        <ele>594.0</ele>
        <time>2010-08-26T11:50:37Z</time>
      </trkpt>
      <trkpt lat="41.826083" lon="-8.124183">
        <ele>596.0</ele>
        <time>2010-08-26T11:50:39Z</time>
      </trkpt>
      <trkpt lat="41.826067" lon="-8.124183">
        <ele>598.0</ele>
        <time>2010-08-26T11:50:41Z</time>
      </trkpt>
      <trkpt lat="41.826033" lon="-8.124183">
        <ele>599.0</ele>
        <time>2010-08-26T11:50:43Z</time>
      </trkpt>
      <trkpt lat="41.826000" lon="-8.124200">
        <ele>601.0</ele>
        <time>2010-08-26T11:50:45Z</time>
      </trkpt>
      <trkpt lat="41.825967" lon="-8.124217">
        <ele>602.0</ele>
        <time>2010-08-26T11:50:47Z</time>
      </trkpt>
      <trkpt lat="41.825933" lon="-8.124233">
        <ele>604.0</ele>
        <time>2010-08-26T11:50:50Z</time>
      </trkpt>
      <trkpt lat="41.825900" lon="-8.124250">
        <ele>605.0</ele>
        <time>2010-08-26T11:50:52Z</time>
      </trkpt>
      <trkpt lat="41.825867" lon="-8.124267">
        <ele>606.0</ele>
        <time>2010-08-26T11:50:54Z</time>
      </trkpt>
      <trkpt lat="41.825833" lon="-8.124283">
        <ele>606.0</ele>
        <time>2010-08-26T11:50:56Z</time>
      </trkpt>
      <trkpt lat="41.825800" lon="-8.124300">
        <ele>607.0</ele>
        <time>2010-08-26T11:50:58Z</time>
      </trkpt>
      <trkpt lat="41.825767" lon="-8.124317">
        <ele>608.0</ele>
        <time>2010-08-26T11:51:00Z</time>
      </trkpt>
      <trkpt lat="41.825733" lon="-8.124333">
        <ele>609.0</ele>
        <time>2010-08-26T11:51:02Z</time>
      </trkpt>
      <trkpt lat="41.825700" lon="-8.124350">
        <ele>609.0</ele>
        <time>2010-08-26T11:51:04Z</time>
      </trkpt>
      <trkpt lat="41.825667" lon="-8.124367">
        <ele>609.0</ele>
        <time>2010-08-26T11:51:06Z</time>
      </trkpt>
      <trkpt lat="41.825617" lon="-8.124367">
        <ele>608.0</ele>
        <time>2010-08-26T11:51:08Z</time>
      </trkpt>
      <trkpt lat="41.825583" lon="-8.124400">
        <ele>608.0</ele>
        <time>2010-08-26T11:51:10Z</time>
      </trkpt>
      <trkpt lat="41.825550" lon="-8.124417">
        <ele>607.0</ele>
        <time>2010-08-26T11:51:12Z</time>
      </trkpt>
      <trkpt lat="41.825517" lon="-8.124433">
        <ele>606.0</ele>
        <time>2010-08-26T11:51:14Z</time>
      </trkpt>
      <trkpt lat="41.825483" lon="-8.124450">
        <ele>606.0</ele>
        <time>2010-08-26T11:51:16Z</time>
      </trkpt>
      <trkpt lat="41.825450" lon="-8.124467">
        <ele>605.0</ele>
        <time>2010-08-26T11:51:18Z</time>
      </trkpt>
      <trkpt lat="41.825400" lon="-8.124500">
        <ele>604.0</ele>
        <time>2010-08-26T11:51:20Z</time>
      </trkpt>
      <trkpt lat="41.825367" lon="-8.124517">
        <ele>603.0</ele>
        <time>2010-08-26T11:51:22Z</time>
      </trkpt>
      <trkpt lat="41.825317" lon="-8.124550">
        <ele>603.0</ele>
        <time>2010-08-26T11:51:24Z</time>
      </trkpt>
      <trkpt lat="41.825283" lon="-8.124567">
        <ele>602.0</ele>
        <time>2010-08-26T11:51:26Z</time>
      </trkpt>
      <trkpt lat="41.825250" lon="-8.124583">
        <ele>602.0</ele>
        <time>2010-08-26T11:51:28Z</time>
      </trkpt>
      <trkpt lat="41.825200" lon="-8.124600">
        <ele>601.0</ele>
        <time>2010-08-26T11:51:30Z</time>
      </trkpt>
      <trkpt lat="41.825167" lon="-8.124617">
        <ele>601.0</ele>
        <time>2010-08-26T11:51:32Z</time>
      </trkpt>
      <trkpt lat="41.825117" lon="-8.124633">
        <ele>601.0</ele>
        <time>2010-08-26T11:51:34Z</time>
      </trkpt>
      <trkpt lat="41.825083" lon="-8.124633">
        <ele>601.0</ele>
        <time>2010-08-26T11:51:36Z</time>
      </trkpt>
      <trkpt lat="41.825033" lon="-8.124650">
        <ele>600.0</ele>
        <time>2010-08-26T11:51:38Z</time>
      </trkpt>
      <trkpt lat="41.825000" lon="-8.124650">
        <ele>600.0</ele>
        <time>2010-08-26T11:51:40Z</time>
      </trkpt>
      <trkpt lat="41.824950" lon="-8.124650">
        <ele>601.0</ele>
        <time>2010-08-26T11:51:42Z</time>
      </trkpt>
      <trkpt lat="41.824917" lon="-8.124650">
        <ele>601.0</ele>
        <time>2010-08-26T11:51:44Z</time>
      </trkpt>
      <trkpt lat="41.824883" lon="-8.124650">
        <ele>601.0</ele>
        <time>2010-08-26T11:51:46Z</time>
      </trkpt>
      <trkpt lat="41.824850" lon="-8.124650">
        <ele>601.0</ele>
        <time>2010-08-26T11:51:48Z</time>
      </trkpt>
      <trkpt lat="41.824800" lon="-8.124650">
        <ele>602.0</ele>
        <time>2010-08-26T11:51:50Z</time>
      </trkpt>
      <trkpt lat="41.824767" lon="-8.124650">
        <ele>602.0</ele>
        <time>2010-08-26T11:51:52Z</time>
      </trkpt>
      <trkpt lat="41.824733" lon="-8.124650">
        <ele>602.0</ele>
        <time>2010-08-26T11:51:54Z</time>
      </trkpt>
      <trkpt lat="41.824700" lon="-8.124667">
        <ele>602.0</ele>
        <time>2010-08-26T11:51:56Z</time>
      </trkpt>
      <trkpt lat="41.824667" lon="-8.124667">
        <ele>603.0</ele>
        <time>2010-08-26T11:51:58Z</time>
      </trkpt>
      <trkpt lat="41.824633" lon="-8.124683">
        <ele>603.0</ele>
        <time>2010-08-26T11:52:00Z</time>
      </trkpt>
      <trkpt lat="41.824600" lon="-8.124683">
        <ele>603.0</ele>
        <time>2010-08-26T11:52:02Z</time>
      </trkpt>
      <trkpt lat="41.824567" lon="-8.124700">
        <ele>603.0</ele>
        <time>2010-08-26T11:52:05Z</time>
      </trkpt>
      <trkpt lat="41.824533" lon="-8.124717">
        <ele>603.0</ele>
        <time>2010-08-26T11:52:07Z</time>
      </trkpt>
      <trkpt lat="41.824517" lon="-8.124750">
        <ele>603.0</ele>
        <time>2010-08-26T11:52:09Z</time>
      </trkpt>
      <trkpt lat="41.824467" lon="-8.124767">
        <ele>604.0</ele>
        <time>2010-08-26T11:52:12Z</time>
      </trkpt>
      <trkpt lat="41.824433" lon="-8.124800">
        <ele>604.0</ele>
        <time>2010-08-26T11:52:15Z</time>
      </trkpt>
      <trkpt lat="41.824417" lon="-8.124833">
        <ele>605.0</ele>
        <time>2010-08-26T11:52:18Z</time>
      </trkpt>
      <trkpt lat="41.824383" lon="-8.124867">
        <ele>605.0</ele>
        <time>2010-08-26T11:52:21Z</time>
      </trkpt>
      <trkpt lat="41.824350" lon="-8.124900">
        <ele>606.0</ele>
        <time>2010-08-26T11:52:24Z</time>
      </trkpt>
      <trkpt lat="41.824317" lon="-8.124933">
        <ele>607.0</ele>
        <time>2010-08-26T11:52:27Z</time>
      </trkpt>
      <trkpt lat="41.824300" lon="-8.124983">
        <ele>608.0</ele>
        <time>2010-08-26T11:52:30Z</time>
      </trkpt>
      <trkpt lat="41.824283" lon="-8.125017">
        <ele>608.0</ele>
        <time>2010-08-26T11:52:33Z</time>
      </trkpt>
      <trkpt lat="41.824267" lon="-8.125067">
        <ele>609.0</ele>
        <time>2010-08-26T11:52:36Z</time>
      </trkpt>
      <trkpt lat="41.824250" lon="-8.125117">
        <ele>609.0</ele>
        <time>2010-08-26T11:52:39Z</time>
      </trkpt>
      <trkpt lat="41.824233" lon="-8.125167">
        <ele>610.0</ele>
        <time>2010-08-26T11:52:42Z</time>
      </trkpt>
      <trkpt lat="41.824217" lon="-8.125217">
        <ele>610.0</ele>
        <time>2010-08-26T11:52:45Z</time>
      </trkpt>
      <trkpt lat="41.824200" lon="-8.125250">
        <ele>611.0</ele>
        <time>2010-08-26T11:52:48Z</time>
      </trkpt>
      <trkpt lat="41.824183" lon="-8.125300">
        <ele>612.0</ele>
        <time>2010-08-26T11:52:51Z</time>
      </trkpt>
      <trkpt lat="41.824167" lon="-8.125350">
        <ele>613.0</ele>
        <time>2010-08-26T11:52:54Z</time>
      </trkpt>
      <trkpt lat="41.824150" lon="-8.125400">
        <ele>614.0</ele>
        <time>2010-08-26T11:52:57Z</time>
      </trkpt>
      <trkpt lat="41.824133" lon="-8.125450">
        <ele>615.0</ele>
        <time>2010-08-26T11:53:00Z</time>
      </trkpt>
      <trkpt lat="41.824117" lon="-8.125500">
        <ele>615.0</ele>
        <time>2010-08-26T11:53:03Z</time>
      </trkpt>
      <trkpt lat="41.824100" lon="-8.125550">
        <ele>615.0</ele>
        <time>2010-08-26T11:53:06Z</time>
      </trkpt>
      <trkpt lat="41.824083" lon="-8.125617">
        <ele>615.0</ele>
        <time>2010-08-26T11:53:09Z</time>
      </trkpt>
      <trkpt lat="41.824067" lon="-8.125667">
        <ele>615.0</ele>
        <time>2010-08-26T11:53:12Z</time>
      </trkpt>
      <trkpt lat="41.824050" lon="-8.125700">
        <ele>616.0</ele>
        <time>2010-08-26T11:53:14Z</time>
      </trkpt>
      <trkpt lat="41.824033" lon="-8.125733">
        <ele>616.0</ele>
        <time>2010-08-26T11:53:16Z</time>
      </trkpt>
      <trkpt lat="41.824017" lon="-8.125767">
        <ele>616.0</ele>
        <time>2010-08-26T11:53:18Z</time>
      </trkpt>
      <trkpt lat="41.824017" lon="-8.125800">
        <ele>616.0</ele>
        <time>2010-08-26T11:53:20Z</time>
      </trkpt>
      <trkpt lat="41.823983" lon="-8.125833">
        <ele>617.0</ele>
        <time>2010-08-26T11:53:22Z</time>
      </trkpt>
      <trkpt lat="41.823967" lon="-8.125883">
        <ele>617.0</ele>
        <time>2010-08-26T11:53:24Z</time>
      </trkpt>
      <trkpt lat="41.823950" lon="-8.125917">
        <ele>617.0</ele>
        <time>2010-08-26T11:53:26Z</time>
      </trkpt>
      <trkpt lat="41.823933" lon="-8.125950">
        <ele>616.0</ele>
        <time>2010-08-26T11:53:28Z</time>
      </trkpt>
      <trkpt lat="41.823917" lon="-8.125983">
        <ele>616.0</ele>
        <time>2010-08-26T11:53:30Z</time>
      </trkpt>
      <trkpt lat="41.823883" lon="-8.126033">
        <ele>616.0</ele>
        <time>2010-08-26T11:53:32Z</time>
      </trkpt>
      <trkpt lat="41.823867" lon="-8.126067">
        <ele>615.0</ele>
        <time>2010-08-26T11:53:34Z</time>
      </trkpt>
      <trkpt lat="41.823850" lon="-8.126117">
        <ele>615.0</ele>
        <time>2010-08-26T11:53:36Z</time>
      </trkpt>
      <trkpt lat="41.823833" lon="-8.126167">
        <ele>615.0</ele>
        <time>2010-08-26T11:53:38Z</time>
      </trkpt>
      <trkpt lat="41.823817" lon="-8.126217">
        <ele>615.0</ele>
        <time>2010-08-26T11:53:40Z</time>
      </trkpt>
      <trkpt lat="41.823800" lon="-8.126267">
        <ele>615.0</ele>
        <time>2010-08-26T11:53:42Z</time>
      </trkpt>
      <trkpt lat="41.823800" lon="-8.126317">
        <ele>615.0</ele>
        <time>2010-08-26T11:53:44Z</time>
      </trkpt>
      <trkpt lat="41.823800" lon="-8.126350">
        <ele>615.0</ele>
        <time>2010-08-26T11:53:46Z</time>
      </trkpt>
      <trkpt lat="41.823800" lon="-8.126400">
        <ele>616.0</ele>
        <time>2010-08-26T11:53:48Z</time>
      </trkpt>
      <trkpt lat="41.823800" lon="-8.126450">
        <ele>616.0</ele>
        <time>2010-08-26T11:53:50Z</time>
      </trkpt>
      <trkpt lat="41.823817" lon="-8.126483">
        <ele>616.0</ele>
        <time>2010-08-26T11:53:52Z</time>
      </trkpt>
      <trkpt lat="41.823817" lon="-8.126533">
        <ele>616.0</ele>
        <time>2010-08-26T11:53:54Z</time>
      </trkpt>
      <trkpt lat="41.823817" lon="-8.126583">
        <ele>617.0</ele>
        <time>2010-08-26T11:53:56Z</time>
      </trkpt>
      <trkpt lat="41.823817" lon="-8.126633">
        <ele>617.0</ele>
        <time>2010-08-26T11:53:58Z</time>
      </trkpt>
      <trkpt lat="41.823833" lon="-8.126683">
        <ele>618.0</ele>
        <time>2010-08-26T11:54:01Z</time>
      </trkpt>
      <trkpt lat="41.823817" lon="-8.126733">
        <ele>619.0</ele>
        <time>2010-08-26T11:54:09Z</time>
      </trkpt>
      <trkpt lat="41.823850" lon="-8.126717">
        <ele>619.0</ele>
        <time>2010-08-26T11:54:16Z</time>
      </trkpt>
      <trkpt lat="41.823867" lon="-8.126667">
        <ele>619.0</ele>
        <time>2010-08-26T11:54:21Z</time>
      </trkpt>
      <trkpt lat="41.823867" lon="-8.126617">
        <ele>619.0</ele>
        <time>2010-08-26T11:54:25Z</time>
      </trkpt>
      <trkpt lat="41.823883" lon="-8.126567">
        <ele>618.0</ele>
        <time>2010-08-26T11:54:29Z</time>
      </trkpt>
      <trkpt lat="41.823917" lon="-8.126533">
        <ele>618.0</ele>
        <time>2010-08-26T11:54:38Z</time>
      </trkpt>
      <trkpt lat="41.823900" lon="-8.126600">
        <ele>617.0</ele>
        <time>2010-08-26T11:54:49Z</time>
      </trkpt>
      <trkpt lat="41.823900" lon="-8.126650">
        <ele>617.0</ele>
        <time>2010-08-26T11:54:53Z</time>
      </trkpt>
      <trkpt lat="41.823900" lon="-8.126700">
        <ele>618.0</ele>
        <time>2010-08-26T11:54:57Z</time>
      </trkpt>
      <trkpt lat="41.823867" lon="-8.126750">
        <ele>617.0</ele>
        <time>2010-08-26T11:55:02Z</time>
      </trkpt>
      <trkpt lat="41.823833" lon="-8.126800">
        <ele>617.0</ele>
        <time>2010-08-26T11:55:10Z</time>
      </trkpt>
      <trkpt lat="41.823850" lon="-8.126833">
        <ele>616.0</ele>
        <time>2010-08-26T11:55:12Z</time>
      </trkpt>
      <trkpt lat="41.823833" lon="-8.126883">
        <ele>616.0</ele>
        <time>2010-08-26T11:55:14Z</time>
      </trkpt>
      <trkpt lat="41.823817" lon="-8.126917">
        <ele>617.0</ele>
        <time>2010-08-26T11:55:16Z</time>
      </trkpt>
      <trkpt lat="41.823783" lon="-8.126950">
        <ele>617.0</ele>
        <time>2010-08-26T11:55:18Z</time>
      </trkpt>
      <trkpt lat="41.823750" lon="-8.126933">
        <ele>618.0</ele>
        <time>2010-08-26T11:55:20Z</time>
      </trkpt>
      <trkpt lat="41.823717" lon="-8.126933">
        <ele>618.0</ele>
        <time>2010-08-26T11:55:22Z</time>
      </trkpt>
      <trkpt lat="41.823683" lon="-8.126917">
        <ele>619.0</ele>
        <time>2010-08-26T11:55:24Z</time>
      </trkpt>
      <trkpt lat="41.823650" lon="-8.126900">
        <ele>619.0</ele>
        <time>2010-08-26T11:55:26Z</time>
      </trkpt>
      <trkpt lat="41.823617" lon="-8.126883">
        <ele>619.0</ele>
        <time>2010-08-26T11:55:28Z</time>
      </trkpt>
      <trkpt lat="41.823583" lon="-8.126867">
        <ele>619.0</ele>
        <time>2010-08-26T11:55:30Z</time>
      </trkpt>
      <trkpt lat="41.823550" lon="-8.126850">
        <ele>620.0</ele>
        <time>2010-08-26T11:55:32Z</time>
      </trkpt>
      <trkpt lat="41.823517" lon="-8.126833">
        <ele>620.0</ele>
        <time>2010-08-26T11:55:34Z</time>
      </trkpt>
      <trkpt lat="41.823483" lon="-8.126817">
        <ele>620.0</ele>
        <time>2010-08-26T11:55:36Z</time>
      </trkpt>
      <trkpt lat="41.823467" lon="-8.126800">
        <ele>620.0</ele>
        <time>2010-08-26T11:55:38Z</time>
      </trkpt>
      <trkpt lat="41.823417" lon="-8.126783">
        <ele>620.0</ele>
        <time>2010-08-26T11:55:40Z</time>
      </trkpt>
      <trkpt lat="41.823383" lon="-8.126767">
        <ele>620.0</ele>
        <time>2010-08-26T11:55:42Z</time>
      </trkpt>
      <trkpt lat="41.823350" lon="-8.126767">
        <ele>620.0</ele>
        <time>2010-08-26T11:55:44Z</time>
      </trkpt>
      <trkpt lat="41.823317" lon="-8.126750">
        <ele>620.0</ele>
        <time>2010-08-26T11:55:45Z</time>
      </trkpt>
      <trkpt lat="41.823300" lon="-8.126733">
        <ele>620.0</ele>
        <time>2010-08-26T11:55:46Z</time>
      </trkpt>
      <trkpt lat="41.823267" lon="-8.126733">
        <ele>620.0</ele>
        <time>2010-08-26T11:55:47Z</time>
      </trkpt>
      <trkpt lat="41.823250" lon="-8.126717">
        <ele>620.0</ele>
        <time>2010-08-26T11:55:48Z</time>
      </trkpt>
      <trkpt lat="41.823233" lon="-8.126717">
        <ele>620.0</ele>
        <time>2010-08-26T11:55:49Z</time>
      </trkpt>
      <trkpt lat="41.823183" lon="-8.126700">
        <ele>620.0</ele>
        <time>2010-08-26T11:55:51Z</time>
      </trkpt>
      <trkpt lat="41.823167" lon="-8.126700">
        <ele>620.0</ele>
        <time>2010-08-26T11:55:52Z</time>
      </trkpt>
      <trkpt lat="41.823133" lon="-8.126700">
        <ele>620.0</ele>
        <time>2010-08-26T11:55:53Z</time>
      </trkpt>
      <trkpt lat="41.823117" lon="-8.126683">
        <ele>620.0</ele>
        <time>2010-08-26T11:55:54Z</time>
      </trkpt>
      <trkpt lat="41.823083" lon="-8.126683">
        <ele>619.0</ele>
        <time>2010-08-26T11:55:55Z</time>
      </trkpt>
      <trkpt lat="41.823050" lon="-8.126667">
        <ele>619.0</ele>
        <time>2010-08-26T11:55:56Z</time>
      </trkpt>
      <trkpt lat="41.823033" lon="-8.126667">
        <ele>619.0</ele>
        <time>2010-08-26T11:55:57Z</time>
      </trkpt>
      <trkpt lat="41.823000" lon="-8.126667">
        <ele>619.0</ele>
        <time>2010-08-26T11:55:58Z</time>
      </trkpt>
      <trkpt lat="41.822983" lon="-8.126667">
        <ele>619.0</ele>
        <time>2010-08-26T11:55:59Z</time>
      </trkpt>
      <trkpt lat="41.822967" lon="-8.126667">
        <ele>619.0</ele>
        <time>2010-08-26T11:56:00Z</time>
      </trkpt>
      <trkpt lat="41.822933" lon="-8.126650">
        <ele>619.0</ele>
        <time>2010-08-26T11:56:01Z</time>
      </trkpt>
      <trkpt lat="41.822917" lon="-8.126650">
        <ele>620.0</ele>
        <time>2010-08-26T11:56:02Z</time>
      </trkpt>
      <trkpt lat="41.822883" lon="-8.126650">
        <ele>620.0</ele>
        <time>2010-08-26T11:56:03Z</time>
      </trkpt>
      <trkpt lat="41.822867" lon="-8.126650">
        <ele>620.0</ele>
        <time>2010-08-26T11:56:04Z</time>
      </trkpt>
      <trkpt lat="41.822850" lon="-8.126650">
        <ele>620.0</ele>
        <time>2010-08-26T11:56:05Z</time>
      </trkpt>
      <trkpt lat="41.822817" lon="-8.126650">
        <ele>620.0</ele>
        <time>2010-08-26T11:56:06Z</time>
      </trkpt>
      <trkpt lat="41.822800" lon="-8.126650">
        <ele>620.0</ele>
        <time>2010-08-26T11:56:07Z</time>
      </trkpt>
      <trkpt lat="41.822767" lon="-8.126667">
        <ele>620.0</ele>
        <time>2010-08-26T11:56:08Z</time>
      </trkpt>
      <trkpt lat="41.822733" lon="-8.126667">
        <ele>620.0</ele>
        <time>2010-08-26T11:56:10Z</time>
      </trkpt>
      <trkpt lat="41.822683" lon="-8.126683">
        <ele>621.0</ele>
        <time>2010-08-26T11:56:12Z</time>
      </trkpt>
      <trkpt lat="41.822650" lon="-8.126683">
        <ele>621.0</ele>
        <time>2010-08-26T11:56:14Z</time>
      </trkpt>
      <trkpt lat="41.822600" lon="-8.126700">
        <ele>621.0</ele>
        <time>2010-08-26T11:56:16Z</time>
      </trkpt>
      <trkpt lat="41.822567" lon="-8.126717">
        <ele>621.0</ele>
        <time>2010-08-26T11:56:18Z</time>
      </trkpt>
      <trkpt lat="41.822517" lon="-8.126717">
        <ele>622.0</ele>
        <time>2010-08-26T11:56:20Z</time>
      </trkpt>
      <trkpt lat="41.822483" lon="-8.126733">
        <ele>622.0</ele>
        <time>2010-08-26T11:56:22Z</time>
      </trkpt>
      <trkpt lat="41.822450" lon="-8.126750">
        <ele>623.0</ele>
        <time>2010-08-26T11:56:24Z</time>
      </trkpt>
      <trkpt lat="41.822417" lon="-8.126767">
        <ele>623.0</ele>
        <time>2010-08-26T11:56:26Z</time>
      </trkpt>
      <trkpt lat="41.822383" lon="-8.126783">
        <ele>624.0</ele>
        <time>2010-08-26T11:56:28Z</time>
      </trkpt>
      <trkpt lat="41.822350" lon="-8.126800">
        <ele>624.0</ele>
        <time>2010-08-26T11:56:30Z</time>
      </trkpt>
      <trkpt lat="41.822317" lon="-8.126817">
        <ele>624.0</ele>
        <time>2010-08-26T11:56:32Z</time>
      </trkpt>
      <trkpt lat="41.822267" lon="-8.126850">
        <ele>625.0</ele>
        <time>2010-08-26T11:56:34Z</time>
      </trkpt>
      <trkpt lat="41.822233" lon="-8.126867">
        <ele>625.0</ele>
        <time>2010-08-26T11:56:36Z</time>
      </trkpt>
      <trkpt lat="41.822200" lon="-8.126883">
        <ele>625.0</ele>
        <time>2010-08-26T11:56:38Z</time>
      </trkpt>
      <trkpt lat="41.822167" lon="-8.126900">
        <ele>625.0</ele>
        <time>2010-08-26T11:56:40Z</time>
      </trkpt>
      <trkpt lat="41.822117" lon="-8.126917">
        <ele>625.0</ele>
        <time>2010-08-26T11:56:43Z</time>
      </trkpt>
      <trkpt lat="41.822083" lon="-8.126933">
        <ele>626.0</ele>
        <time>2010-08-26T11:56:46Z</time>
      </trkpt>
      <trkpt lat="41.822033" lon="-8.126933">
        <ele>627.0</ele>
        <time>2010-08-26T11:57:05Z</time>
      </trkpt>
      <trkpt lat="41.822000" lon="-8.126950">
        <ele>627.0</ele>
        <time>2010-08-26T11:57:09Z</time>
      </trkpt>
      <trkpt lat="41.821967" lon="-8.126967">
        <ele>627.0</ele>
        <time>2010-08-26T11:57:12Z</time>
      </trkpt>
      <trkpt lat="41.821917" lon="-8.126983">
        <ele>627.0</ele>
        <time>2010-08-26T11:57:15Z</time>
      </trkpt>
      <trkpt lat="41.821883" lon="-8.126983">
        <ele>627.0</ele>
        <time>2010-08-26T11:57:17Z</time>
      </trkpt>
      <trkpt lat="41.821867" lon="-8.126983">
        <ele>627.0</ele>
        <time>2010-08-26T11:57:18Z</time>
      </trkpt>
      <trkpt lat="41.821850" lon="-8.127000">
        <ele>626.0</ele>
        <time>2010-08-26T11:57:19Z</time>
      </trkpt>
      <trkpt lat="41.821817" lon="-8.127000">
        <ele>626.0</ele>
        <time>2010-08-26T11:57:20Z</time>
      </trkpt>
      <trkpt lat="41.821783" lon="-8.127000">
        <ele>626.0</ele>
        <time>2010-08-26T11:57:21Z</time>
      </trkpt>
      <trkpt lat="41.821750" lon="-8.127000">
        <ele>626.0</ele>
        <time>2010-08-26T11:57:22Z</time>
      </trkpt>
      <trkpt lat="41.821717" lon="-8.127000">
        <ele>626.0</ele>
        <time>2010-08-26T11:57:23Z</time>
      </trkpt>
      <trkpt lat="41.821683" lon="-8.127000">
        <ele>626.0</ele>
        <time>2010-08-26T11:57:24Z</time>
      </trkpt>
      <trkpt lat="41.821650" lon="-8.127017">
        <ele>626.0</ele>
        <time>2010-08-26T11:57:25Z</time>
      </trkpt>
      <trkpt lat="41.821600" lon="-8.127017">
        <ele>626.0</ele>
        <time>2010-08-26T11:57:26Z</time>
      </trkpt>
      <trkpt lat="41.821567" lon="-8.127033">
        <ele>625.0</ele>
        <time>2010-08-26T11:57:27Z</time>
      </trkpt>
      <trkpt lat="41.821517" lon="-8.127033">
        <ele>625.0</ele>
        <time>2010-08-26T11:57:28Z</time>
      </trkpt>
      <trkpt lat="41.821483" lon="-8.127050">
        <ele>625.0</ele>
        <time>2010-08-26T11:57:29Z</time>
      </trkpt>
      <trkpt lat="41.821433" lon="-8.127050">
        <ele>625.0</ele>
        <time>2010-08-26T11:57:30Z</time>
      </trkpt>
      <trkpt lat="41.821400" lon="-8.127050">
        <ele>624.0</ele>
        <time>2010-08-26T11:57:31Z</time>
      </trkpt>
      <trkpt lat="41.821367" lon="-8.127050">
        <ele>624.0</ele>
        <time>2010-08-26T11:57:32Z</time>
      </trkpt>
      <trkpt lat="41.821333" lon="-8.127050">
        <ele>624.0</ele>
        <time>2010-08-26T11:57:33Z</time>
      </trkpt>
      <trkpt lat="41.821300" lon="-8.127050">
        <ele>624.0</ele>
        <time>2010-08-26T11:57:34Z</time>
      </trkpt>
      <trkpt lat="41.821283" lon="-8.127050">
        <ele>623.0</ele>
        <time>2010-08-26T11:57:35Z</time>
      </trkpt>
      <trkpt lat="41.821250" lon="-8.127050">
        <ele>623.0</ele>
        <time>2010-08-26T11:57:36Z</time>
      </trkpt>
      <trkpt lat="41.821233" lon="-8.127050">
        <ele>623.0</ele>
        <time>2010-08-26T11:57:37Z</time>
      </trkpt>
      <trkpt lat="41.821200" lon="-8.127050">
        <ele>623.0</ele>
        <time>2010-08-26T11:57:38Z</time>
      </trkpt>
      <trkpt lat="41.821167" lon="-8.127067">
        <ele>623.0</ele>
        <time>2010-08-26T11:57:39Z</time>
      </trkpt>
      <trkpt lat="41.821150" lon="-8.127067">
        <ele>623.0</ele>
        <time>2010-08-26T11:57:40Z</time>
      </trkpt>
      <trkpt lat="41.821117" lon="-8.127083">
        <ele>623.0</ele>
        <time>2010-08-26T11:57:42Z</time>
      </trkpt>
      <trkpt lat="41.821083" lon="-8.127117">
        <ele>623.0</ele>
        <time>2010-08-26T11:57:44Z</time>
      </trkpt>
      <trkpt lat="41.821050" lon="-8.127167">
        <ele>623.0</ele>
        <time>2010-08-26T11:57:46Z</time>
      </trkpt>
      <trkpt lat="41.821017" lon="-8.127183">
        <ele>624.0</ele>
        <time>2010-08-26T11:57:48Z</time>
      </trkpt>
      <trkpt lat="41.820983" lon="-8.127217">
        <ele>624.0</ele>
        <time>2010-08-26T11:57:50Z</time>
      </trkpt>
      <trkpt lat="41.820950" lon="-8.127233">
        <ele>624.0</ele>
        <time>2010-08-26T11:57:52Z</time>
      </trkpt>
      <trkpt lat="41.820933" lon="-8.127267">
        <ele>625.0</ele>
        <time>2010-08-26T11:57:54Z</time>
      </trkpt>
      <trkpt lat="41.820900" lon="-8.127283">
        <ele>625.0</ele>
        <time>2010-08-26T11:57:56Z</time>
      </trkpt>
      <trkpt lat="41.820867" lon="-8.127317">
        <ele>626.0</ele>
        <time>2010-08-26T11:57:59Z</time>
      </trkpt>
      <trkpt lat="41.820833" lon="-8.127350">
        <ele>628.0</ele>
        <time>2010-08-26T11:58:02Z</time>
      </trkpt>
      <trkpt lat="41.820783" lon="-8.127383">
        <ele>629.0</ele>
        <time>2010-08-26T11:58:05Z</time>
      </trkpt>
      <trkpt lat="41.820750" lon="-8.127417">
        <ele>631.0</ele>
        <time>2010-08-26T11:58:08Z</time>
      </trkpt>
      <trkpt lat="41.820717" lon="-8.127433">
        <ele>632.0</ele>
        <time>2010-08-26T11:58:11Z</time>
      </trkpt>
      <trkpt lat="41.820683" lon="-8.127467">
        <ele>633.0</ele>
        <time>2010-08-26T11:58:14Z</time>
      </trkpt>
      <trkpt lat="41.820650" lon="-8.127500">
        <ele>633.0</ele>
        <time>2010-08-26T11:58:17Z</time>
      </trkpt>
      <trkpt lat="41.820633" lon="-8.127517">
        <ele>633.0</ele>
        <time>2010-08-26T11:58:19Z</time>
      </trkpt>
      <trkpt lat="41.820600" lon="-8.127533">
        <ele>634.0</ele>
        <time>2010-08-26T11:58:21Z</time>
      </trkpt>
      <trkpt lat="41.820550" lon="-8.127567">
        <ele>634.0</ele>
        <time>2010-08-26T11:58:24Z</time>
      </trkpt>
      <trkpt lat="41.820533" lon="-8.127583">
        <ele>634.0</ele>
        <time>2010-08-26T11:58:26Z</time>
      </trkpt>
      <trkpt lat="41.820500" lon="-8.127600">
        <ele>634.0</ele>
        <time>2010-08-26T11:58:28Z</time>
      </trkpt>
      <trkpt lat="41.820450" lon="-8.127617">
        <ele>634.0</ele>
        <time>2010-08-26T11:58:30Z</time>
      </trkpt>
      <trkpt lat="41.820433" lon="-8.127617">
        <ele>634.0</ele>
        <time>2010-08-26T11:58:31Z</time>
      </trkpt>
      <trkpt lat="41.820417" lon="-8.127600">
        <ele>633.0</ele>
        <time>2010-08-26T11:58:32Z</time>
      </trkpt>
      <trkpt lat="41.820383" lon="-8.127600">
        <ele>633.0</ele>
        <time>2010-08-26T11:58:33Z</time>
      </trkpt>
      <trkpt lat="41.820350" lon="-8.127567">
        <ele>633.0</ele>
        <time>2010-08-26T11:58:35Z</time>
      </trkpt>
      <trkpt lat="41.820317" lon="-8.127550">
        <ele>632.0</ele>
        <time>2010-08-26T11:58:37Z</time>
      </trkpt>
      <trkpt lat="41.820283" lon="-8.127567">
        <ele>630.0</ele>
        <time>2010-08-26T11:59:44Z</time>
      </trkpt>
      <trkpt lat="41.820300" lon="-8.127600">
        <ele>630.0</ele>
        <time>2010-08-26T11:59:45Z</time>
      </trkpt>
      <trkpt lat="41.820317" lon="-8.127633">
        <ele>630.0</ele>
        <time>2010-08-26T11:59:46Z</time>
      </trkpt>
      <trkpt lat="41.820350" lon="-8.127667">
        <ele>629.0</ele>
        <time>2010-08-26T11:59:47Z</time>
      </trkpt>
      <trkpt lat="41.820350" lon="-8.127700">
        <ele>629.0</ele>
        <time>2010-08-26T11:59:48Z</time>
      </trkpt>
      <trkpt lat="41.820333" lon="-8.127733">
        <ele>629.0</ele>
        <time>2010-08-26T11:59:49Z</time>
      </trkpt>
      <trkpt lat="41.820317" lon="-8.127767">
        <ele>629.0</ele>
        <time>2010-08-26T11:59:50Z</time>
      </trkpt>
      <trkpt lat="41.820300" lon="-8.127783">
        <ele>629.0</ele>
        <time>2010-08-26T11:59:51Z</time>
      </trkpt>
      <trkpt lat="41.820267" lon="-8.127817">
        <ele>629.0</ele>
        <time>2010-08-26T11:59:52Z</time>
      </trkpt>
      <trkpt lat="41.820233" lon="-8.127833">
        <ele>629.0</ele>
        <time>2010-08-26T11:59:54Z</time>
      </trkpt>
      <trkpt lat="41.820217" lon="-8.127867">
        <ele>629.0</ele>
        <time>2010-08-26T11:59:56Z</time>
      </trkpt>
      <trkpt lat="41.820183" lon="-8.127883">
        <ele>629.0</ele>
        <time>2010-08-26T11:59:58Z</time>
      </trkpt>
      <trkpt lat="41.820150" lon="-8.127900">
        <ele>630.0</ele>
        <time>2010-08-26T12:00:00Z</time>
      </trkpt>
      <trkpt lat="41.820100" lon="-8.127900">
        <ele>631.0</ele>
        <time>2010-08-26T12:00:02Z</time>
      </trkpt>
      <trkpt lat="41.820067" lon="-8.127917">
        <ele>632.0</ele>
        <time>2010-08-26T12:00:04Z</time>
      </trkpt>
      <trkpt lat="41.820033" lon="-8.127917">
        <ele>633.0</ele>
        <time>2010-08-26T12:00:06Z</time>
      </trkpt>
      <trkpt lat="41.820000" lon="-8.127917">
        <ele>633.0</ele>
        <time>2010-08-26T12:00:08Z</time>
      </trkpt>
      <trkpt lat="41.819967" lon="-8.127917">
        <ele>634.0</ele>
        <time>2010-08-26T12:00:10Z</time>
      </trkpt>
      <trkpt lat="41.819933" lon="-8.127917">
        <ele>634.0</ele>
        <time>2010-08-26T12:00:12Z</time>
      </trkpt>
      <trkpt lat="41.819917" lon="-8.127933">
        <ele>635.0</ele>
        <time>2010-08-26T12:00:14Z</time>
      </trkpt>
      <trkpt lat="41.819883" lon="-8.127933">
        <ele>635.0</ele>
        <time>2010-08-26T12:00:16Z</time>
      </trkpt>
      <trkpt lat="41.819850" lon="-8.127933">
        <ele>635.0</ele>
        <time>2010-08-26T12:00:18Z</time>
      </trkpt>
      <trkpt lat="41.819817" lon="-8.127933">
        <ele>636.0</ele>
        <time>2010-08-26T12:00:20Z</time>
      </trkpt>
      <trkpt lat="41.819783" lon="-8.127933">
        <ele>636.0</ele>
        <time>2010-08-26T12:00:22Z</time>
      </trkpt>
      <trkpt lat="41.819750" lon="-8.127950">
        <ele>636.0</ele>
        <time>2010-08-26T12:00:24Z</time>
      </trkpt>
      <trkpt lat="41.819717" lon="-8.127950">
        <ele>636.0</ele>
        <time>2010-08-26T12:00:26Z</time>
      </trkpt>
      <trkpt lat="41.819667" lon="-8.127967">
        <ele>636.0</ele>
        <time>2010-08-26T12:00:28Z</time>
      </trkpt>
      <trkpt lat="41.819633" lon="-8.127967">
        <ele>637.0</ele>
        <time>2010-08-26T12:00:30Z</time>
      </trkpt>
      <trkpt lat="41.819600" lon="-8.127967">
        <ele>637.0</ele>
        <time>2010-08-26T12:00:32Z</time>
      </trkpt>
      <trkpt lat="41.819550" lon="-8.127967">
        <ele>637.0</ele>
        <time>2010-08-26T12:00:34Z</time>
      </trkpt>
      <trkpt lat="41.819517" lon="-8.127967">
        <ele>638.0</ele>
        <time>2010-08-26T12:00:36Z</time>
      </trkpt>
      <trkpt lat="41.819483" lon="-8.127983">
        <ele>639.0</ele>
        <time>2010-08-26T12:00:38Z</time>
      </trkpt>
      <trkpt lat="41.819450" lon="-8.128017">
        <ele>639.0</ele>
        <time>2010-08-26T12:00:40Z</time>
      </trkpt>
      <trkpt lat="41.819417" lon="-8.128033">
        <ele>639.0</ele>
        <time>2010-08-26T12:00:42Z</time>
      </trkpt>
      <trkpt lat="41.819383" lon="-8.128050">
        <ele>640.0</ele>
        <time>2010-08-26T12:00:44Z</time>
      </trkpt>
      <trkpt lat="41.819367" lon="-8.128083">
        <ele>640.0</ele>
        <time>2010-08-26T12:00:46Z</time>
      </trkpt>
      <trkpt lat="41.819333" lon="-8.128117">
        <ele>640.0</ele>
        <time>2010-08-26T12:00:48Z</time>
      </trkpt>
      <trkpt lat="41.819300" lon="-8.128133">
        <ele>641.0</ele>
        <time>2010-08-26T12:00:50Z</time>
      </trkpt>
      <trkpt lat="41.819267" lon="-8.128167">
        <ele>641.0</ele>
        <time>2010-08-26T12:00:52Z</time>
      </trkpt>
      <trkpt lat="41.819217" lon="-8.128200">
        <ele>641.0</ele>
        <time>2010-08-26T12:00:54Z</time>
      </trkpt>
      <trkpt lat="41.819183" lon="-8.128233">
        <ele>641.0</ele>
        <time>2010-08-26T12:00:56Z</time>
      </trkpt>
      <trkpt lat="41.819150" lon="-8.128250">
        <ele>641.0</ele>
        <time>2010-08-26T12:00:58Z</time>
      </trkpt>
      <trkpt lat="41.819117" lon="-8.128283">
        <ele>642.0</ele>
        <time>2010-08-26T12:01:00Z</time>
      </trkpt>
      <trkpt lat="41.819100" lon="-8.128300">
        <ele>642.0</ele>
        <time>2010-08-26T12:01:02Z</time>
      </trkpt>
      <trkpt lat="41.819067" lon="-8.128333">
        <ele>642.0</ele>
        <time>2010-08-26T12:01:04Z</time>
      </trkpt>
      <trkpt lat="41.819033" lon="-8.128367">
        <ele>642.0</ele>
        <time>2010-08-26T12:01:06Z</time>
      </trkpt>
      <trkpt lat="41.819000" lon="-8.128383">
        <ele>643.0</ele>
        <time>2010-08-26T12:01:08Z</time>
      </trkpt>
      <trkpt lat="41.818967" lon="-8.128400">
        <ele>643.0</ele>
        <time>2010-08-26T12:01:10Z</time>
      </trkpt>
      <trkpt lat="41.818933" lon="-8.128433">
        <ele>644.0</ele>
        <time>2010-08-26T12:01:12Z</time>
      </trkpt>
      <trkpt lat="41.818900" lon="-8.128450">
        <ele>644.0</ele>
        <time>2010-08-26T12:01:14Z</time>
      </trkpt>
      <trkpt lat="41.818867" lon="-8.128483">
        <ele>644.0</ele>
        <time>2010-08-26T12:01:16Z</time>
      </trkpt>
      <trkpt lat="41.818833" lon="-8.128500">
        <ele>645.0</ele>
        <time>2010-08-26T12:01:18Z</time>
      </trkpt>
      <trkpt lat="41.818800" lon="-8.128517">
        <ele>645.0</ele>
        <time>2010-08-26T12:01:20Z</time>
      </trkpt>
      <trkpt lat="41.818767" lon="-8.128533">
        <ele>645.0</ele>
        <time>2010-08-26T12:01:22Z</time>
      </trkpt>
      <trkpt lat="41.818733" lon="-8.128550">
        <ele>645.0</ele>
        <time>2010-08-26T12:01:24Z</time>
      </trkpt>
      <trkpt lat="41.818700" lon="-8.128567">
        <ele>645.0</ele>
        <time>2010-08-26T12:01:26Z</time>
      </trkpt>
      <trkpt lat="41.818650" lon="-8.128583">
        <ele>645.0</ele>
        <time>2010-08-26T12:01:28Z</time>
      </trkpt>
      <trkpt lat="41.818617" lon="-8.128600">
        <ele>645.0</ele>
        <time>2010-08-26T12:01:30Z</time>
      </trkpt>
      <trkpt lat="41.818583" lon="-8.128617">
        <ele>644.0</ele>
        <time>2010-08-26T12:01:32Z</time>
      </trkpt>
      <trkpt lat="41.818550" lon="-8.128650">
        <ele>644.0</ele>
        <time>2010-08-26T12:01:34Z</time>
      </trkpt>
      <trkpt lat="41.818517" lon="-8.128667">
        <ele>644.0</ele>
        <time>2010-08-26T12:01:36Z</time>
      </trkpt>
      <trkpt lat="41.818483" lon="-8.128683">
        <ele>644.0</ele>
        <time>2010-08-26T12:01:38Z</time>
      </trkpt>
      <trkpt lat="41.818450" lon="-8.128700">
        <ele>644.0</ele>
        <time>2010-08-26T12:01:40Z</time>
      </trkpt>
      <trkpt lat="41.818417" lon="-8.128717">
        <ele>644.0</ele>
        <time>2010-08-26T12:01:42Z</time>
      </trkpt>
      <trkpt lat="41.818383" lon="-8.128717">
        <ele>644.0</ele>
        <time>2010-08-26T12:01:44Z</time>
      </trkpt>
      <trkpt lat="41.818350" lon="-8.128733">
        <ele>645.0</ele>
        <time>2010-08-26T12:01:46Z</time>
      </trkpt>
      <trkpt lat="41.818317" lon="-8.128750">
        <ele>645.0</ele>
        <time>2010-08-26T12:01:48Z</time>
      </trkpt>
      <trkpt lat="41.818283" lon="-8.128767">
        <ele>645.0</ele>
        <time>2010-08-26T12:01:50Z</time>
      </trkpt>
      <trkpt lat="41.818250" lon="-8.128783">
        <ele>645.0</ele>
        <time>2010-08-26T12:01:52Z</time>
      </trkpt>
      <trkpt lat="41.818217" lon="-8.128783">
        <ele>646.0</ele>
        <time>2010-08-26T12:01:54Z</time>
      </trkpt>
      <trkpt lat="41.818183" lon="-8.128800">
        <ele>646.0</ele>
        <time>2010-08-26T12:01:56Z</time>
      </trkpt>
      <trkpt lat="41.818150" lon="-8.128800">
        <ele>647.0</ele>
        <time>2010-08-26T12:01:58Z</time>
      </trkpt>
      <trkpt lat="41.818117" lon="-8.128817">
        <ele>647.0</ele>
        <time>2010-08-26T12:02:00Z</time>
      </trkpt>
      <trkpt lat="41.818083" lon="-8.128817">
        <ele>647.0</ele>
        <time>2010-08-26T12:02:02Z</time>
      </trkpt>
      <trkpt lat="41.818050" lon="-8.128833">
        <ele>648.0</ele>
        <time>2010-08-26T12:02:04Z</time>
      </trkpt>
      <trkpt lat="41.818017" lon="-8.128833">
        <ele>648.0</ele>
        <time>2010-08-26T12:02:06Z</time>
      </trkpt>
      <trkpt lat="41.817983" lon="-8.128833">
        <ele>648.0</ele>
        <time>2010-08-26T12:02:08Z</time>
      </trkpt>
      <trkpt lat="41.817950" lon="-8.128850">
        <ele>648.0</ele>
        <time>2010-08-26T12:02:10Z</time>
      </trkpt>
      <trkpt lat="41.817917" lon="-8.128850">
        <ele>648.0</ele>
        <time>2010-08-26T12:02:12Z</time>
      </trkpt>
      <trkpt lat="41.817883" lon="-8.128850">
        <ele>648.0</ele>
        <time>2010-08-26T12:02:14Z</time>
      </trkpt>
      <trkpt lat="41.817850" lon="-8.128850">
        <ele>649.0</ele>
        <time>2010-08-26T12:02:16Z</time>
      </trkpt>
      <trkpt lat="41.817817" lon="-8.128867">
        <ele>649.0</ele>
        <time>2010-08-26T12:02:18Z</time>
      </trkpt>
      <trkpt lat="41.817783" lon="-8.128867">
        <ele>649.0</ele>
        <time>2010-08-26T12:02:20Z</time>
      </trkpt>
      <trkpt lat="41.817733" lon="-8.128867">
        <ele>649.0</ele>
        <time>2010-08-26T12:02:23Z</time>
      </trkpt>
      <trkpt lat="41.817700" lon="-8.128867">
        <ele>650.0</ele>
        <time>2010-08-26T12:02:25Z</time>
      </trkpt>
      <trkpt lat="41.817667" lon="-8.128867">
        <ele>650.0</ele>
        <time>2010-08-26T12:02:27Z</time>
      </trkpt>
      <trkpt lat="41.817633" lon="-8.128867">
        <ele>650.0</ele>
        <time>2010-08-26T12:02:29Z</time>
      </trkpt>
      <trkpt lat="41.817600" lon="-8.128867">
        <ele>650.0</ele>
        <time>2010-08-26T12:02:31Z</time>
      </trkpt>
      <trkpt lat="41.817567" lon="-8.128867">
        <ele>651.0</ele>
        <time>2010-08-26T12:02:33Z</time>
      </trkpt>
      <trkpt lat="41.817533" lon="-8.128867">
        <ele>651.0</ele>
        <time>2010-08-26T12:02:35Z</time>
      </trkpt>
      <trkpt lat="41.817500" lon="-8.128867">
        <ele>651.0</ele>
        <time>2010-08-26T12:02:37Z</time>
      </trkpt>
      <trkpt lat="41.817467" lon="-8.128867">
        <ele>651.0</ele>
        <time>2010-08-26T12:02:39Z</time>
      </trkpt>
      <trkpt lat="41.817417" lon="-8.128883">
        <ele>652.0</ele>
        <time>2010-08-26T12:02:41Z</time>
      </trkpt>
      <trkpt lat="41.817383" lon="-8.128883">
        <ele>652.0</ele>
        <time>2010-08-26T12:02:43Z</time>
      </trkpt>
      <trkpt lat="41.817367" lon="-8.128900">
        <ele>652.0</ele>
        <time>2010-08-26T12:02:45Z</time>
      </trkpt>
      <trkpt lat="41.817333" lon="-8.128900">
        <ele>652.0</ele>
        <time>2010-08-26T12:02:47Z</time>
      </trkpt>
      <trkpt lat="41.817300" lon="-8.128917">
        <ele>652.0</ele>
        <time>2010-08-26T12:02:49Z</time>
      </trkpt>
      <trkpt lat="41.817267" lon="-8.128933">
        <ele>653.0</ele>
        <time>2010-08-26T12:02:51Z</time>
      </trkpt>
      <trkpt lat="41.817233" lon="-8.128933">
        <ele>653.0</ele>
        <time>2010-08-26T12:02:53Z</time>
      </trkpt>
      <trkpt lat="41.817183" lon="-8.128933">
        <ele>653.0</ele>
        <time>2010-08-26T12:02:55Z</time>
      </trkpt>
      <trkpt lat="41.817150" lon="-8.128950">
        <ele>653.0</ele>
        <time>2010-08-26T12:02:57Z</time>
      </trkpt>
      <trkpt lat="41.817117" lon="-8.128950">
        <ele>653.0</ele>
        <time>2010-08-26T12:02:59Z</time>
      </trkpt>
      <trkpt lat="41.817083" lon="-8.128967">
        <ele>654.0</ele>
        <time>2010-08-26T12:03:01Z</time>
      </trkpt>
      <trkpt lat="41.817050" lon="-8.128967">
        <ele>654.0</ele>
        <time>2010-08-26T12:03:03Z</time>
      </trkpt>
      <trkpt lat="41.817017" lon="-8.128967">
        <ele>654.0</ele>
        <time>2010-08-26T12:03:05Z</time>
      </trkpt>
      <trkpt lat="41.816983" lon="-8.128983">
        <ele>655.0</ele>
        <time>2010-08-26T12:03:07Z</time>
      </trkpt>
      <trkpt lat="41.816950" lon="-8.128983">
        <ele>655.0</ele>
        <time>2010-08-26T12:03:09Z</time>
      </trkpt>
      <trkpt lat="41.816917" lon="-8.128983">
        <ele>656.0</ele>
        <time>2010-08-26T12:03:11Z</time>
      </trkpt>
      <trkpt lat="41.816883" lon="-8.129000">
        <ele>656.0</ele>
        <time>2010-08-26T12:03:13Z</time>
      </trkpt>
      <trkpt lat="41.816850" lon="-8.129000">
        <ele>657.0</ele>
        <time>2010-08-26T12:03:15Z</time>
      </trkpt>
      <trkpt lat="41.816817" lon="-8.129000">
        <ele>657.0</ele>
        <time>2010-08-26T12:03:17Z</time>
      </trkpt>
      <trkpt lat="41.816783" lon="-8.129017">
        <ele>657.0</ele>
        <time>2010-08-26T12:03:19Z</time>
      </trkpt>
      <trkpt lat="41.816750" lon="-8.129017">
        <ele>658.0</ele>
        <time>2010-08-26T12:03:21Z</time>
      </trkpt>
      <trkpt lat="41.816717" lon="-8.129017">
        <ele>658.0</ele>
        <time>2010-08-26T12:03:23Z</time>
      </trkpt>
      <trkpt lat="41.816683" lon="-8.129017">
        <ele>659.0</ele>
        <time>2010-08-26T12:03:25Z</time>
      </trkpt>
      <trkpt lat="41.816650" lon="-8.129033">
        <ele>659.0</ele>
        <time>2010-08-26T12:03:27Z</time>
      </trkpt>
      <trkpt lat="41.816617" lon="-8.129033">
        <ele>660.0</ele>
        <time>2010-08-26T12:03:29Z</time>
      </trkpt>
      <trkpt lat="41.816583" lon="-8.129033">
        <ele>660.0</ele>
        <time>2010-08-26T12:03:31Z</time>
      </trkpt>
      <trkpt lat="41.816550" lon="-8.129033">
        <ele>661.0</ele>
        <time>2010-08-26T12:03:33Z</time>
      </trkpt>
      <trkpt lat="41.816517" lon="-8.129033">
        <ele>662.0</ele>
        <time>2010-08-26T12:03:36Z</time>
      </trkpt>
      <trkpt lat="41.816483" lon="-8.129033">
        <ele>662.0</ele>
        <time>2010-08-26T12:03:39Z</time>
      </trkpt>
      <trkpt lat="41.816450" lon="-8.129033">
        <ele>663.0</ele>
        <time>2010-08-26T12:03:41Z</time>
      </trkpt>
      <trkpt lat="41.816417" lon="-8.129033">
        <ele>664.0</ele>
        <time>2010-08-26T12:03:43Z</time>
      </trkpt>
      <trkpt lat="41.816383" lon="-8.129033">
        <ele>664.0</ele>
        <time>2010-08-26T12:03:45Z</time>
      </trkpt>
      <trkpt lat="41.816350" lon="-8.129033">
        <ele>665.0</ele>
        <time>2010-08-26T12:03:47Z</time>
      </trkpt>
      <trkpt lat="41.816317" lon="-8.129033">
        <ele>665.0</ele>
        <time>2010-08-26T12:03:49Z</time>
      </trkpt>
      <trkpt lat="41.816283" lon="-8.129033">
        <ele>666.0</ele>
        <time>2010-08-26T12:03:51Z</time>
      </trkpt>
      <trkpt lat="41.816250" lon="-8.129017">
        <ele>667.0</ele>
        <time>2010-08-26T12:03:53Z</time>
      </trkpt>
      <trkpt lat="41.816200" lon="-8.129017">
        <ele>668.0</ele>
        <time>2010-08-26T12:03:55Z</time>
      </trkpt>
      <trkpt lat="41.816167" lon="-8.129017">
        <ele>668.0</ele>
        <time>2010-08-26T12:03:57Z</time>
      </trkpt>
      <trkpt lat="41.816133" lon="-8.129017">
        <ele>669.0</ele>
        <time>2010-08-26T12:03:59Z</time>
      </trkpt>
      <trkpt lat="41.816100" lon="-8.129017">
        <ele>669.0</ele>
        <time>2010-08-26T12:04:01Z</time>
      </trkpt>
      <trkpt lat="41.816083" lon="-8.129017">
        <ele>669.0</ele>
        <time>2010-08-26T12:04:03Z</time>
      </trkpt>
      <trkpt lat="41.816050" lon="-8.129033">
        <ele>669.0</ele>
        <time>2010-08-26T12:04:05Z</time>
      </trkpt>
      <trkpt lat="41.816017" lon="-8.129050">
        <ele>669.0</ele>
        <time>2010-08-26T12:04:07Z</time>
      </trkpt>
      <trkpt lat="41.815983" lon="-8.129050">
        <ele>669.0</ele>
        <time>2010-08-26T12:04:09Z</time>
      </trkpt>
      <trkpt lat="41.815950" lon="-8.129067">
        <ele>669.0</ele>
        <time>2010-08-26T12:04:11Z</time>
      </trkpt>
      <trkpt lat="41.815917" lon="-8.129067">
        <ele>670.0</ele>
        <time>2010-08-26T12:04:13Z</time>
      </trkpt>
      <trkpt lat="41.815883" lon="-8.129083">
        <ele>670.0</ele>
        <time>2010-08-26T12:04:15Z</time>
      </trkpt>
      <trkpt lat="41.815850" lon="-8.129100">
        <ele>670.0</ele>
        <time>2010-08-26T12:04:18Z</time>
      </trkpt>
      <trkpt lat="41.815817" lon="-8.129100">
        <ele>670.0</ele>
        <time>2010-08-26T12:04:20Z</time>
      </trkpt>
      <trkpt lat="41.815783" lon="-8.129117">
        <ele>670.0</ele>
        <time>2010-08-26T12:04:22Z</time>
      </trkpt>
      <trkpt lat="41.815750" lon="-8.129117">
        <ele>670.0</ele>
        <time>2010-08-26T12:04:24Z</time>
      </trkpt>
      <trkpt lat="41.815717" lon="-8.129133">
        <ele>670.0</ele>
        <time>2010-08-26T12:04:26Z</time>
      </trkpt>
      <trkpt lat="41.815683" lon="-8.129133">
        <ele>670.0</ele>
        <time>2010-08-26T12:04:28Z</time>
      </trkpt>
      <trkpt lat="41.815650" lon="-8.129150">
        <ele>670.0</ele>
        <time>2010-08-26T12:04:30Z</time>
      </trkpt>
      <trkpt lat="41.815633" lon="-8.129150">
        <ele>670.0</ele>
        <time>2010-08-26T12:04:32Z</time>
      </trkpt>
      <trkpt lat="41.815600" lon="-8.129150">
        <ele>670.0</ele>
        <time>2010-08-26T12:04:34Z</time>
      </trkpt>
      <trkpt lat="41.815567" lon="-8.129150">
        <ele>670.0</ele>
        <time>2010-08-26T12:04:36Z</time>
      </trkpt>
      <trkpt lat="41.815533" lon="-8.129167">
        <ele>670.0</ele>
        <time>2010-08-26T12:04:38Z</time>
      </trkpt>
      <trkpt lat="41.815483" lon="-8.129167">
        <ele>671.0</ele>
        <time>2010-08-26T12:04:41Z</time>
      </trkpt>
      <trkpt lat="41.815450" lon="-8.129167">
        <ele>672.0</ele>
        <time>2010-08-26T12:04:44Z</time>
      </trkpt>
      <trkpt lat="41.815417" lon="-8.129167">
        <ele>672.0</ele>
        <time>2010-08-26T12:04:46Z</time>
      </trkpt>
      <trkpt lat="41.815383" lon="-8.129183">
        <ele>673.0</ele>
        <time>2010-08-26T12:04:48Z</time>
      </trkpt>
      <trkpt lat="41.815350" lon="-8.129183">
        <ele>673.0</ele>
        <time>2010-08-26T12:04:50Z</time>
      </trkpt>
      <trkpt lat="41.815317" lon="-8.129183">
        <ele>673.0</ele>
        <time>2010-08-26T12:04:52Z</time>
      </trkpt>
      <trkpt lat="41.815283" lon="-8.129200">
        <ele>674.0</ele>
        <time>2010-08-26T12:04:54Z</time>
      </trkpt>
      <trkpt lat="41.815250" lon="-8.129200">
        <ele>674.0</ele>
        <time>2010-08-26T12:04:56Z</time>
      </trkpt>
      <trkpt lat="41.815217" lon="-8.129217">
        <ele>674.0</ele>
        <time>2010-08-26T12:04:58Z</time>
      </trkpt>
      <trkpt lat="41.815183" lon="-8.129217">
        <ele>674.0</ele>
        <time>2010-08-26T12:05:00Z</time>
      </trkpt>
      <trkpt lat="41.815150" lon="-8.129217">
        <ele>675.0</ele>
        <time>2010-08-26T12:05:02Z</time>
      </trkpt>
      <trkpt lat="41.815117" lon="-8.129233">
        <ele>675.0</ele>
        <time>2010-08-26T12:05:04Z</time>
      </trkpt>
      <trkpt lat="41.815083" lon="-8.129250">
        <ele>675.0</ele>
        <time>2010-08-26T12:05:06Z</time>
      </trkpt>
      <trkpt lat="41.815050" lon="-8.129250">
        <ele>675.0</ele>
        <time>2010-08-26T12:05:08Z</time>
      </trkpt>
      <trkpt lat="41.815017" lon="-8.129250">
        <ele>676.0</ele>
        <time>2010-08-26T12:05:10Z</time>
      </trkpt>
      <trkpt lat="41.814983" lon="-8.129267">
        <ele>676.0</ele>
        <time>2010-08-26T12:05:12Z</time>
      </trkpt>
      <trkpt lat="41.814967" lon="-8.129283">
        <ele>676.0</ele>
        <time>2010-08-26T12:05:14Z</time>
      </trkpt>
      <trkpt lat="41.814933" lon="-8.129300">
        <ele>676.0</ele>
        <time>2010-08-26T12:05:16Z</time>
      </trkpt>
      <trkpt lat="41.814900" lon="-8.129317">
        <ele>676.0</ele>
        <time>2010-08-26T12:05:18Z</time>
      </trkpt>
      <trkpt lat="41.814867" lon="-8.129333">
        <ele>676.0</ele>
        <time>2010-08-26T12:05:20Z</time>
      </trkpt>
      <trkpt lat="41.814833" lon="-8.129350">
        <ele>677.0</ele>
        <time>2010-08-26T12:05:22Z</time>
      </trkpt>
      <trkpt lat="41.814817" lon="-8.129350">
        <ele>676.0</ele>
        <time>2010-08-26T12:05:24Z</time>
      </trkpt>
      <trkpt lat="41.814783" lon="-8.129367">
        <ele>677.0</ele>
        <time>2010-08-26T12:05:26Z</time>
      </trkpt>
      <trkpt lat="41.814750" lon="-8.129383">
        <ele>677.0</ele>
        <time>2010-08-26T12:05:28Z</time>
      </trkpt>
      <trkpt lat="41.814717" lon="-8.129400">
        <ele>678.0</ele>
        <time>2010-08-26T12:05:31Z</time>
      </trkpt>
      <trkpt lat="41.814683" lon="-8.129417">
        <ele>678.0</ele>
        <time>2010-08-26T12:05:33Z</time>
      </trkpt>
      <trkpt lat="41.814650" lon="-8.129433">
        <ele>678.0</ele>
        <time>2010-08-26T12:05:35Z</time>
      </trkpt>
      <trkpt lat="41.814617" lon="-8.129450">
        <ele>679.0</ele>
        <time>2010-08-26T12:05:37Z</time>
      </trkpt>
      <trkpt lat="41.814583" lon="-8.129467">
        <ele>679.0</ele>
        <time>2010-08-26T12:05:39Z</time>
      </trkpt>
      <trkpt lat="41.814567" lon="-8.129483">
        <ele>679.0</ele>
        <time>2010-08-26T12:05:41Z</time>
      </trkpt>
      <trkpt lat="41.814533" lon="-8.129500">
        <ele>679.0</ele>
        <time>2010-08-26T12:05:43Z</time>
      </trkpt>
      <trkpt lat="41.814500" lon="-8.129517">
        <ele>679.0</ele>
        <time>2010-08-26T12:05:45Z</time>
      </trkpt>
      <trkpt lat="41.814467" lon="-8.129533">
        <ele>680.0</ele>
        <time>2010-08-26T12:05:47Z</time>
      </trkpt>
      <trkpt lat="41.814450" lon="-8.129550">
        <ele>680.0</ele>
        <time>2010-08-26T12:05:49Z</time>
      </trkpt>
      <trkpt lat="41.814417" lon="-8.129567">
        <ele>681.0</ele>
        <time>2010-08-26T12:05:51Z</time>
      </trkpt>
      <trkpt lat="41.814383" lon="-8.129600">
        <ele>682.0</ele>
        <time>2010-08-26T12:05:54Z</time>
      </trkpt>
      <trkpt lat="41.814333" lon="-8.129617">
        <ele>682.0</ele>
        <time>2010-08-26T12:05:57Z</time>
      </trkpt>
      <trkpt lat="41.814300" lon="-8.129633">
        <ele>683.0</ele>
        <time>2010-08-26T12:06:00Z</time>
      </trkpt>
      <trkpt lat="41.814267" lon="-8.129667">
        <ele>684.0</ele>
        <time>2010-08-26T12:06:03Z</time>
      </trkpt>
      <trkpt lat="41.814217" lon="-8.129683">
        <ele>685.0</ele>
        <time>2010-08-26T12:06:06Z</time>
      </trkpt>
      <trkpt lat="41.814183" lon="-8.129717">
        <ele>686.0</ele>
        <time>2010-08-26T12:06:09Z</time>
      </trkpt>
      <trkpt lat="41.814150" lon="-8.129733">
        <ele>686.0</ele>
        <time>2010-08-26T12:06:12Z</time>
      </trkpt>
      <trkpt lat="41.814100" lon="-8.129750">
        <ele>687.0</ele>
        <time>2010-08-26T12:06:15Z</time>
      </trkpt>
      <trkpt lat="41.814067" lon="-8.129767">
        <ele>688.0</ele>
        <time>2010-08-26T12:06:18Z</time>
      </trkpt>
      <trkpt lat="41.814017" lon="-8.129783">
        <ele>689.0</ele>
        <time>2010-08-26T12:06:21Z</time>
      </trkpt>
      <trkpt lat="41.813983" lon="-8.129800">
        <ele>690.0</ele>
        <time>2010-08-26T12:06:24Z</time>
      </trkpt>
      <trkpt lat="41.813950" lon="-8.129833">
        <ele>691.0</ele>
        <time>2010-08-26T12:06:27Z</time>
      </trkpt>
      <trkpt lat="41.813900" lon="-8.129850">
        <ele>691.0</ele>
        <time>2010-08-26T12:06:30Z</time>
      </trkpt>
      <trkpt lat="41.813867" lon="-8.129867">
        <ele>691.0</ele>
        <time>2010-08-26T12:06:33Z</time>
      </trkpt>
      <trkpt lat="41.813817" lon="-8.129900">
        <ele>691.0</ele>
        <time>2010-08-26T12:06:36Z</time>
      </trkpt>
      <trkpt lat="41.813800" lon="-8.129917">
        <ele>691.0</ele>
        <time>2010-08-26T12:06:38Z</time>
      </trkpt>
      <trkpt lat="41.813750" lon="-8.129933">
        <ele>691.0</ele>
        <time>2010-08-26T12:06:41Z</time>
      </trkpt>
      <trkpt lat="41.813717" lon="-8.129933">
        <ele>691.0</ele>
        <time>2010-08-26T12:06:44Z</time>
      </trkpt>
      <trkpt lat="41.813683" lon="-8.129917">
        <ele>692.0</ele>
        <time>2010-08-26T12:06:47Z</time>
      </trkpt>
      <trkpt lat="41.813633" lon="-8.129917">
        <ele>693.0</ele>
        <time>2010-08-26T12:06:51Z</time>
      </trkpt>
      <trkpt lat="41.813600" lon="-8.129883">
        <ele>693.0</ele>
        <time>2010-08-26T12:06:55Z</time>
      </trkpt>
      <trkpt lat="41.813567" lon="-8.129883">
        <ele>694.0</ele>
        <time>2010-08-26T12:06:59Z</time>
      </trkpt>
      <trkpt lat="41.813517" lon="-8.129883">
        <ele>695.0</ele>
        <time>2010-08-26T12:07:02Z</time>
      </trkpt>
      <trkpt lat="41.813483" lon="-8.129883">
        <ele>695.0</ele>
        <time>2010-08-26T12:07:05Z</time>
      </trkpt>
      <trkpt lat="41.813450" lon="-8.129883">
        <ele>695.0</ele>
        <time>2010-08-26T12:07:08Z</time>
      </trkpt>
      <trkpt lat="41.813417" lon="-8.129883">
        <ele>696.0</ele>
        <time>2010-08-26T12:07:11Z</time>
      </trkpt>
      <trkpt lat="41.813383" lon="-8.129883">
        <ele>697.0</ele>
        <time>2010-08-26T12:07:14Z</time>
      </trkpt>
      <trkpt lat="41.813350" lon="-8.129883">
        <ele>697.0</ele>
        <time>2010-08-26T12:07:16Z</time>
      </trkpt>
      <trkpt lat="41.813317" lon="-8.129883">
        <ele>697.0</ele>
        <time>2010-08-26T12:07:18Z</time>
      </trkpt>
      <trkpt lat="41.813283" lon="-8.129883">
        <ele>697.0</ele>
        <time>2010-08-26T12:07:20Z</time>
      </trkpt>
      <trkpt lat="41.813233" lon="-8.129883">
        <ele>697.0</ele>
        <time>2010-08-26T12:07:23Z</time>
      </trkpt>
      <trkpt lat="41.813200" lon="-8.129883">
        <ele>698.0</ele>
        <time>2010-08-26T12:07:25Z</time>
      </trkpt>
      <trkpt lat="41.813167" lon="-8.129900">
        <ele>698.0</ele>
        <time>2010-08-26T12:07:28Z</time>
      </trkpt>
      <trkpt lat="41.813133" lon="-8.129917">
        <ele>699.0</ele>
        <time>2010-08-26T12:07:31Z</time>
      </trkpt>
      <trkpt lat="41.813100" lon="-8.129933">
        <ele>700.0</ele>
        <time>2010-08-26T12:07:34Z</time>
      </trkpt>
      <trkpt lat="41.813067" lon="-8.129933">
        <ele>700.0</ele>
        <time>2010-08-26T12:07:37Z</time>
      </trkpt>
      <trkpt lat="41.813017" lon="-8.129933">
        <ele>700.0</ele>
        <time>2010-08-26T12:07:40Z</time>
      </trkpt>
      <trkpt lat="41.812967" lon="-8.129933">
        <ele>700.0</ele>
        <time>2010-08-26T12:07:43Z</time>
      </trkpt>
      <trkpt lat="41.812933" lon="-8.129933">
        <ele>700.0</ele>
        <time>2010-08-26T12:07:46Z</time>
      </trkpt>
      <trkpt lat="41.812900" lon="-8.129933">
        <ele>701.0</ele>
        <time>2010-08-26T12:07:49Z</time>
      </trkpt>
      <trkpt lat="41.812867" lon="-8.129933">
        <ele>701.0</ele>
        <time>2010-08-26T12:07:51Z</time>
      </trkpt>
      <trkpt lat="41.812833" lon="-8.129933">
        <ele>701.0</ele>
        <time>2010-08-26T12:07:53Z</time>
      </trkpt>
      <trkpt lat="41.812783" lon="-8.129933">
        <ele>701.0</ele>
        <time>2010-08-26T12:07:56Z</time>
      </trkpt>
      <trkpt lat="41.812750" lon="-8.129933">
        <ele>701.0</ele>
        <time>2010-08-26T12:07:59Z</time>
      </trkpt>
      <trkpt lat="41.812717" lon="-8.129950">
        <ele>702.0</ele>
        <time>2010-08-26T12:08:01Z</time>
      </trkpt>
      <trkpt lat="41.812683" lon="-8.129950">
        <ele>702.0</ele>
        <time>2010-08-26T12:08:03Z</time>
      </trkpt>
      <trkpt lat="41.812667" lon="-8.129950">
        <ele>702.0</ele>
        <time>2010-08-26T12:08:05Z</time>
      </trkpt>
      <trkpt lat="41.812633" lon="-8.129950">
        <ele>702.0</ele>
        <time>2010-08-26T12:08:07Z</time>
      </trkpt>
      <trkpt lat="41.812600" lon="-8.129950">
        <ele>702.0</ele>
        <time>2010-08-26T12:08:09Z</time>
      </trkpt>
      <trkpt lat="41.812567" lon="-8.129967">
        <ele>702.0</ele>
        <time>2010-08-26T12:08:11Z</time>
      </trkpt>
      <trkpt lat="41.812533" lon="-8.129967">
        <ele>702.0</ele>
        <time>2010-08-26T12:08:14Z</time>
      </trkpt>
      <trkpt lat="41.812500" lon="-8.129983">
        <ele>703.0</ele>
        <time>2010-08-26T12:08:16Z</time>
      </trkpt>
      <trkpt lat="41.812467" lon="-8.130000">
        <ele>703.0</ele>
        <time>2010-08-26T12:08:18Z</time>
      </trkpt>
      <trkpt lat="41.812433" lon="-8.130017">
        <ele>703.0</ele>
        <time>2010-08-26T12:08:20Z</time>
      </trkpt>
      <trkpt lat="41.812417" lon="-8.130033">
        <ele>703.0</ele>
        <time>2010-08-26T12:08:22Z</time>
      </trkpt>
      <trkpt lat="41.812383" lon="-8.130050">
        <ele>703.0</ele>
        <time>2010-08-26T12:08:24Z</time>
      </trkpt>
      <trkpt lat="41.812350" lon="-8.130083">
        <ele>703.0</ele>
        <time>2010-08-26T12:08:27Z</time>
      </trkpt>
      <trkpt lat="41.812317" lon="-8.130100">
        <ele>703.0</ele>
        <time>2010-08-26T12:08:29Z</time>
      </trkpt>
      <trkpt lat="41.812300" lon="-8.130117">
        <ele>704.0</ele>
        <time>2010-08-26T12:08:31Z</time>
      </trkpt>
      <trkpt lat="41.812250" lon="-8.130133">
        <ele>704.0</ele>
        <time>2010-08-26T12:08:34Z</time>
      </trkpt>
      <trkpt lat="41.812217" lon="-8.130150">
        <ele>704.0</ele>
        <time>2010-08-26T12:08:36Z</time>
      </trkpt>
      <trkpt lat="41.812183" lon="-8.130167">
        <ele>704.0</ele>
        <time>2010-08-26T12:08:38Z</time>
      </trkpt>
      <trkpt lat="41.812150" lon="-8.130183">
        <ele>705.0</ele>
        <time>2010-08-26T12:08:41Z</time>
      </trkpt>
      <trkpt lat="41.812117" lon="-8.130200">
        <ele>705.0</ele>
        <time>2010-08-26T12:08:44Z</time>
      </trkpt>
      <trkpt lat="41.812067" lon="-8.130233">
        <ele>706.0</ele>
        <time>2010-08-26T12:08:47Z</time>
      </trkpt>
      <trkpt lat="41.812033" lon="-8.130250">
        <ele>706.0</ele>
        <time>2010-08-26T12:08:50Z</time>
      </trkpt>
      <trkpt lat="41.812000" lon="-8.130267">
        <ele>708.0</ele>
        <time>2010-08-26T12:08:53Z</time>
      </trkpt>
      <trkpt lat="41.811967" lon="-8.130283">
        <ele>709.0</ele>
        <time>2010-08-26T12:08:56Z</time>
      </trkpt>
      <trkpt lat="41.811933" lon="-8.130300">
        <ele>710.0</ele>
        <time>2010-08-26T12:09:00Z</time>
      </trkpt>
      <trkpt lat="41.811883" lon="-8.130300">
        <ele>710.0</ele>
        <time>2010-08-26T12:09:03Z</time>
      </trkpt>
      <trkpt lat="41.811850" lon="-8.130317">
        <ele>711.0</ele>
        <time>2010-08-26T12:09:06Z</time>
      </trkpt>
      <trkpt lat="41.811833" lon="-8.130367">
        <ele>712.0</ele>
        <time>2010-08-26T12:09:09Z</time>
      </trkpt>
      <trkpt lat="41.811833" lon="-8.130417">
        <ele>712.0</ele>
        <time>2010-08-26T12:09:12Z</time>
      </trkpt>
      <trkpt lat="41.811850" lon="-8.130450">
        <ele>713.0</ele>
        <time>2010-08-26T12:09:16Z</time>
      </trkpt>
      <trkpt lat="41.811900" lon="-8.130467">
        <ele>713.0</ele>
        <time>2010-08-26T12:09:19Z</time>
      </trkpt>
      <trkpt lat="41.811933" lon="-8.130467">
        <ele>714.0</ele>
        <time>2010-08-26T12:09:22Z</time>
      </trkpt>
      <trkpt lat="41.811967" lon="-8.130483">
        <ele>714.0</ele>
        <time>2010-08-26T12:09:25Z</time>
      </trkpt>
      <trkpt lat="41.812000" lon="-8.130500">
        <ele>715.0</ele>
        <time>2010-08-26T12:09:29Z</time>
      </trkpt>
      <trkpt lat="41.812050" lon="-8.130517">
        <ele>716.0</ele>
        <time>2010-08-26T12:09:32Z</time>
      </trkpt>
      <trkpt lat="41.812083" lon="-8.130533">
        <ele>716.0</ele>
        <time>2010-08-26T12:09:35Z</time>
      </trkpt>
      <trkpt lat="41.812117" lon="-8.130533">
        <ele>716.0</ele>
        <time>2010-08-26T12:09:37Z</time>
      </trkpt>
      <trkpt lat="41.812150" lon="-8.130533">
        <ele>716.0</ele>
        <time>2010-08-26T12:09:39Z</time>
      </trkpt>
      <trkpt lat="41.812183" lon="-8.130533">
        <ele>716.0</ele>
        <time>2010-08-26T12:09:41Z</time>
      </trkpt>
      <trkpt lat="41.812217" lon="-8.130550">
        <ele>716.0</ele>
        <time>2010-08-26T12:09:43Z</time>
      </trkpt>
      <trkpt lat="41.812250" lon="-8.130550">
        <ele>716.0</ele>
        <time>2010-08-26T12:09:45Z</time>
      </trkpt>
      <trkpt lat="41.812283" lon="-8.130567">
        <ele>716.0</ele>
        <time>2010-08-26T12:09:47Z</time>
      </trkpt>
      <trkpt lat="41.812317" lon="-8.130583">
        <ele>716.0</ele>
        <time>2010-08-26T12:09:50Z</time>
      </trkpt>
      <trkpt lat="41.812333" lon="-8.130633">
        <ele>716.0</ele>
        <time>2010-08-26T12:09:53Z</time>
      </trkpt>
      <trkpt lat="41.812317" lon="-8.130667">
        <ele>717.0</ele>
        <time>2010-08-26T12:09:56Z</time>
      </trkpt>
      <trkpt lat="41.812283" lon="-8.130683">
        <ele>719.0</ele>
        <time>2010-08-26T12:09:59Z</time>
      </trkpt>
      <trkpt lat="41.812233" lon="-8.130700">
        <ele>720.0</ele>
        <time>2010-08-26T12:10:02Z</time>
      </trkpt>
      <trkpt lat="41.812200" lon="-8.130717">
        <ele>722.0</ele>
        <time>2010-08-26T12:10:05Z</time>
      </trkpt>
      <trkpt lat="41.812150" lon="-8.130717">
        <ele>723.0</ele>
        <time>2010-08-26T12:10:08Z</time>
      </trkpt>
      <trkpt lat="41.812117" lon="-8.130733">
        <ele>723.0</ele>
        <time>2010-08-26T12:10:11Z</time>
      </trkpt>
      <trkpt lat="41.812083" lon="-8.130750">
        <ele>724.0</ele>
        <time>2010-08-26T12:10:14Z</time>
      </trkpt>
      <trkpt lat="41.812050" lon="-8.130750">
        <ele>725.0</ele>
        <time>2010-08-26T12:10:18Z</time>
      </trkpt>
      <trkpt lat="41.812000" lon="-8.130767">
        <ele>726.0</ele>
        <time>2010-08-26T12:10:22Z</time>
      </trkpt>
      <trkpt lat="41.811967" lon="-8.130767">
        <ele>726.0</ele>
        <time>2010-08-26T12:10:25Z</time>
      </trkpt>
      <trkpt lat="41.811933" lon="-8.130783">
        <ele>727.0</ele>
        <time>2010-08-26T12:10:28Z</time>
      </trkpt>
      <trkpt lat="41.811900" lon="-8.130783">
        <ele>727.0</ele>
        <time>2010-08-26T12:10:31Z</time>
      </trkpt>
      <trkpt lat="41.811850" lon="-8.130783">
        <ele>728.0</ele>
        <time>2010-08-26T12:10:34Z</time>
      </trkpt>
      <trkpt lat="41.811817" lon="-8.130783">
        <ele>728.0</ele>
        <time>2010-08-26T12:10:37Z</time>
      </trkpt>
      <trkpt lat="41.811783" lon="-8.130800">
        <ele>729.0</ele>
        <time>2010-08-26T12:10:40Z</time>
      </trkpt>
      <trkpt lat="41.811750" lon="-8.130817">
        <ele>729.0</ele>
        <time>2010-08-26T12:10:43Z</time>
      </trkpt>
      <trkpt lat="41.811700" lon="-8.130833">
        <ele>730.0</ele>
        <time>2010-08-26T12:10:46Z</time>
      </trkpt>
      <trkpt lat="41.811667" lon="-8.130850">
        <ele>731.0</ele>
        <time>2010-08-26T12:10:49Z</time>
      </trkpt>
      <trkpt lat="41.811633" lon="-8.130883">
        <ele>731.0</ele>
        <time>2010-08-26T12:10:52Z</time>
      </trkpt>
      <trkpt lat="41.811600" lon="-8.130900">
        <ele>732.0</ele>
        <time>2010-08-26T12:10:55Z</time>
      </trkpt>
      <trkpt lat="41.811567" lon="-8.130900">
        <ele>732.0</ele>
        <time>2010-08-26T12:10:57Z</time>
      </trkpt>
      <trkpt lat="41.811533" lon="-8.130917">
        <ele>733.0</ele>
        <time>2010-08-26T12:11:00Z</time>
      </trkpt>
      <trkpt lat="41.811500" lon="-8.130900">
        <ele>733.0</ele>
        <time>2010-08-26T12:11:02Z</time>
      </trkpt>
      <trkpt lat="41.811467" lon="-8.130900">
        <ele>733.0</ele>
        <time>2010-08-26T12:11:04Z</time>
      </trkpt>
      <trkpt lat="41.811450" lon="-8.130867">
        <ele>733.0</ele>
        <time>2010-08-26T12:11:06Z</time>
      </trkpt>
      <trkpt lat="41.811417" lon="-8.130833">
        <ele>733.0</ele>
        <time>2010-08-26T12:11:08Z</time>
      </trkpt>
      <trkpt lat="41.811383" lon="-8.130817">
        <ele>733.0</ele>
        <time>2010-08-26T12:11:10Z</time>
      </trkpt>
      <trkpt lat="41.811350" lon="-8.130800">
        <ele>733.0</ele>
        <time>2010-08-26T12:11:13Z</time>
      </trkpt>
      <trkpt lat="41.811317" lon="-8.130800">
        <ele>733.0</ele>
        <time>2010-08-26T12:11:15Z</time>
      </trkpt>
      <trkpt lat="41.811283" lon="-8.130800">
        <ele>734.0</ele>
        <time>2010-08-26T12:11:17Z</time>
      </trkpt>
      <trkpt lat="41.811250" lon="-8.130800">
        <ele>734.0</ele>
        <time>2010-08-26T12:11:19Z</time>
      </trkpt>
      <trkpt lat="41.811217" lon="-8.130817">
        <ele>735.0</ele>
        <time>2010-08-26T12:11:21Z</time>
      </trkpt>
      <trkpt lat="41.811183" lon="-8.130833">
        <ele>736.0</ele>
        <time>2010-08-26T12:11:23Z</time>
      </trkpt>
      <trkpt lat="41.811150" lon="-8.130850">
        <ele>736.0</ele>
        <time>2010-08-26T12:11:25Z</time>
      </trkpt>
      <trkpt lat="41.811117" lon="-8.130867">
        <ele>736.0</ele>
        <time>2010-08-26T12:11:27Z</time>
      </trkpt>
      <trkpt lat="41.811083" lon="-8.130883">
        <ele>736.0</ele>
        <time>2010-08-26T12:11:29Z</time>
      </trkpt>
      <trkpt lat="41.811050" lon="-8.130883">
        <ele>736.0</ele>
        <time>2010-08-26T12:11:31Z</time>
      </trkpt>
      <trkpt lat="41.811017" lon="-8.130900">
        <ele>736.0</ele>
        <time>2010-08-26T12:11:33Z</time>
      </trkpt>
      <trkpt lat="41.810967" lon="-8.130900">
        <ele>736.0</ele>
        <time>2010-08-26T12:11:35Z</time>
      </trkpt>
      <trkpt lat="41.810933" lon="-8.130900">
        <ele>736.0</ele>
        <time>2010-08-26T12:11:37Z</time>
      </trkpt>
      <trkpt lat="41.810900" lon="-8.130917">
        <ele>736.0</ele>
        <time>2010-08-26T12:11:39Z</time>
      </trkpt>
      <trkpt lat="41.810867" lon="-8.130917">
        <ele>735.0</ele>
        <time>2010-08-26T12:11:41Z</time>
      </trkpt>
      <trkpt lat="41.810833" lon="-8.130933">
        <ele>735.0</ele>
        <time>2010-08-26T12:11:43Z</time>
      </trkpt>
      <trkpt lat="41.810800" lon="-8.130950">
        <ele>736.0</ele>
        <time>2010-08-26T12:11:46Z</time>
      </trkpt>
      <trkpt lat="41.810750" lon="-8.130950">
        <ele>736.0</ele>
        <time>2010-08-26T12:11:49Z</time>
      </trkpt>
      <trkpt lat="41.810717" lon="-8.130950">
        <ele>736.0</ele>
        <time>2010-08-26T12:11:53Z</time>
      </trkpt>
      <trkpt lat="41.810683" lon="-8.130933">
        <ele>736.0</ele>
        <time>2010-08-26T12:11:58Z</time>
      </trkpt>
      <trkpt lat="41.810633" lon="-8.130933">
        <ele>736.0</ele>
        <time>2010-08-26T12:12:02Z</time>
      </trkpt>
      <trkpt lat="41.810600" lon="-8.130917">
        <ele>736.0</ele>
        <time>2010-08-26T12:12:05Z</time>
      </trkpt>
      <trkpt lat="41.810567" lon="-8.130883">
        <ele>735.0</ele>
        <time>2010-08-26T12:12:09Z</time>
      </trkpt>
      <trkpt lat="41.810550" lon="-8.130850">
        <ele>736.0</ele>
        <time>2010-08-26T12:12:13Z</time>
      </trkpt>
      <trkpt lat="41.810533" lon="-8.130800">
        <ele>736.0</ele>
        <time>2010-08-26T12:12:18Z</time>
      </trkpt>
      <trkpt lat="41.810500" lon="-8.130767">
        <ele>737.0</ele>
        <time>2010-08-26T12:12:22Z</time>
      </trkpt>
      <trkpt lat="41.810483" lon="-8.130717">
        <ele>737.0</ele>
        <time>2010-08-26T12:12:32Z</time>
      </trkpt>
      <trkpt lat="41.810433" lon="-8.130717">
        <ele>738.0</ele>
        <time>2010-08-26T12:12:37Z</time>
      </trkpt>
      <trkpt lat="41.810400" lon="-8.130717">
        <ele>738.0</ele>
        <time>2010-08-26T12:12:41Z</time>
      </trkpt>
      <trkpt lat="41.810367" lon="-8.130750">
        <ele>739.0</ele>
        <time>2010-08-26T12:12:46Z</time>
      </trkpt>
      <trkpt lat="41.810317" lon="-8.130767">
        <ele>739.0</ele>
        <time>2010-08-26T12:12:51Z</time>
      </trkpt>
      <trkpt lat="41.810300" lon="-8.130800">
        <ele>740.0</ele>
        <time>2010-08-26T12:12:55Z</time>
      </trkpt>
      <trkpt lat="41.810267" lon="-8.130817">
        <ele>740.0</ele>
        <time>2010-08-26T12:13:03Z</time>
      </trkpt>
      <trkpt lat="41.810217" lon="-8.130850">
        <ele>741.0</ele>
        <time>2010-08-26T12:13:07Z</time>
      </trkpt>
      <trkpt lat="41.810200" lon="-8.130883">
        <ele>742.0</ele>
        <time>2010-08-26T12:13:11Z</time>
      </trkpt>
      <trkpt lat="41.810167" lon="-8.130900">
        <ele>742.0</ele>
        <time>2010-08-26T12:13:16Z</time>
      </trkpt>
      <trkpt lat="41.810133" lon="-8.130867">
        <ele>743.0</ele>
        <time>2010-08-26T12:13:23Z</time>
      </trkpt>
      <trkpt lat="41.810117" lon="-8.130817">
        <ele>744.0</ele>
        <time>2010-08-26T12:13:28Z</time>
      </trkpt>
      <trkpt lat="41.810117" lon="-8.130783">
        <ele>745.0</ele>
        <time>2010-08-26T12:13:31Z</time>
      </trkpt>
      <trkpt lat="41.810100" lon="-8.130733">
        <ele>745.0</ele>
        <time>2010-08-26T12:13:34Z</time>
      </trkpt>
      <trkpt lat="41.810100" lon="-8.130683">
        <ele>746.0</ele>
        <time>2010-08-26T12:13:37Z</time>
      </trkpt>
      <trkpt lat="41.810100" lon="-8.130633">
        <ele>746.0</ele>
        <time>2010-08-26T12:13:40Z</time>
      </trkpt>
      <trkpt lat="41.810100" lon="-8.130583">
        <ele>746.0</ele>
        <time>2010-08-26T12:13:43Z</time>
      </trkpt>
      <trkpt lat="41.810100" lon="-8.130533">
        <ele>746.0</ele>
        <time>2010-08-26T12:13:46Z</time>
      </trkpt>
      <trkpt lat="41.810100" lon="-8.130467">
        <ele>746.0</ele>
        <time>2010-08-26T12:13:49Z</time>
      </trkpt>
      <trkpt lat="41.810100" lon="-8.130433">
        <ele>746.0</ele>
        <time>2010-08-26T12:13:51Z</time>
      </trkpt>
      <trkpt lat="41.810100" lon="-8.130367">
        <ele>746.0</ele>
        <time>2010-08-26T12:13:54Z</time>
      </trkpt>
      <trkpt lat="41.810117" lon="-8.130317">
        <ele>746.0</ele>
        <time>2010-08-26T12:13:57Z</time>
      </trkpt>
      <trkpt lat="41.810100" lon="-8.130283">
        <ele>747.0</ele>
        <time>2010-08-26T12:13:59Z</time>
      </trkpt>
      <trkpt lat="41.810100" lon="-8.130217">
        <ele>747.0</ele>
        <time>2010-08-26T12:14:02Z</time>
      </trkpt>
      <trkpt lat="41.810100" lon="-8.130167">
        <ele>748.0</ele>
        <time>2010-08-26T12:14:05Z</time>
      </trkpt>
      <trkpt lat="41.810100" lon="-8.130117">
        <ele>749.0</ele>
        <time>2010-08-26T12:14:08Z</time>
      </trkpt>
      <trkpt lat="41.810083" lon="-8.130067">
        <ele>749.0</ele>
        <time>2010-08-26T12:14:11Z</time>
      </trkpt>
      <trkpt lat="41.810067" lon="-8.130017">
        <ele>749.0</ele>
        <time>2010-08-26T12:14:27Z</time>
      </trkpt>
      <trkpt lat="41.810033" lon="-8.130033">
        <ele>749.0</ele>
        <time>2010-08-26T12:14:30Z</time>
      </trkpt>
      <trkpt lat="41.810000" lon="-8.130083">
        <ele>749.0</ele>
        <time>2010-08-26T12:14:33Z</time>
      </trkpt>
      <trkpt lat="41.809983" lon="-8.130117">
        <ele>750.0</ele>
        <time>2010-08-26T12:14:35Z</time>
      </trkpt>
      <trkpt lat="41.809950" lon="-8.130133">
        <ele>750.0</ele>
        <time>2010-08-26T12:14:37Z</time>
      </trkpt>
      <trkpt lat="41.809933" lon="-8.130200">
        <ele>751.0</ele>
        <time>2010-08-26T12:14:40Z</time>
      </trkpt>
      <trkpt lat="41.809933" lon="-8.130233">
        <ele>751.0</ele>
        <time>2010-08-26T12:14:42Z</time>
      </trkpt>
      <trkpt lat="41.809900" lon="-8.130283">
        <ele>751.0</ele>
        <time>2010-08-26T12:14:45Z</time>
      </trkpt>
      <trkpt lat="41.809883" lon="-8.130333">
        <ele>752.0</ele>
        <time>2010-08-26T12:14:48Z</time>
      </trkpt>
      <trkpt lat="41.809867" lon="-8.130383">
        <ele>752.0</ele>
        <time>2010-08-26T12:14:51Z</time>
      </trkpt>
      <trkpt lat="41.809850" lon="-8.130433">
        <ele>752.0</ele>
        <time>2010-08-26T12:14:54Z</time>
      </trkpt>
      <trkpt lat="41.809833" lon="-8.130500">
        <ele>752.0</ele>
        <time>2010-08-26T12:14:57Z</time>
      </trkpt>
      <trkpt lat="41.809833" lon="-8.130550">
        <ele>752.0</ele>
        <time>2010-08-26T12:15:00Z</time>
      </trkpt>
      <trkpt lat="41.809817" lon="-8.130617">
        <ele>753.0</ele>
        <time>2010-08-26T12:15:03Z</time>
      </trkpt>
      <trkpt lat="41.809800" lon="-8.130667">
        <ele>753.0</ele>
        <time>2010-08-26T12:15:06Z</time>
      </trkpt>
      <trkpt lat="41.809800" lon="-8.130717">
        <ele>753.0</ele>
        <time>2010-08-26T12:15:09Z</time>
      </trkpt>
      <trkpt lat="41.809783" lon="-8.130767">
        <ele>753.0</ele>
        <time>2010-08-26T12:15:12Z</time>
      </trkpt>
      <trkpt lat="41.809767" lon="-8.130817">
        <ele>754.0</ele>
        <time>2010-08-26T12:15:15Z</time>
      </trkpt>
      <trkpt lat="41.809750" lon="-8.130867">
        <ele>754.0</ele>
        <time>2010-08-26T12:15:18Z</time>
      </trkpt>
      <trkpt lat="41.809733" lon="-8.130917">
        <ele>755.0</ele>
        <time>2010-08-26T12:15:21Z</time>
      </trkpt>
      <trkpt lat="41.809733" lon="-8.130967">
        <ele>755.0</ele>
        <time>2010-08-26T12:15:23Z</time>
      </trkpt>
      <trkpt lat="41.809733" lon="-8.131000">
        <ele>755.0</ele>
        <time>2010-08-26T12:15:25Z</time>
      </trkpt>
      <trkpt lat="41.809717" lon="-8.131067">
        <ele>755.0</ele>
        <time>2010-08-26T12:15:28Z</time>
      </trkpt>
      <trkpt lat="41.809700" lon="-8.131100">
        <ele>756.0</ele>
        <time>2010-08-26T12:15:31Z</time>
      </trkpt>
      <trkpt lat="41.809683" lon="-8.131150">
        <ele>756.0</ele>
        <time>2010-08-26T12:15:34Z</time>
      </trkpt>
      <trkpt lat="41.809667" lon="-8.131217">
        <ele>756.0</ele>
        <time>2010-08-26T12:15:37Z</time>
      </trkpt>
      <trkpt lat="41.809667" lon="-8.131267">
        <ele>757.0</ele>
        <time>2010-08-26T12:15:40Z</time>
      </trkpt>
      <trkpt lat="41.809650" lon="-8.131300">
        <ele>757.0</ele>
        <time>2010-08-26T12:15:42Z</time>
      </trkpt>
      <trkpt lat="41.809633" lon="-8.131350">
        <ele>757.0</ele>
        <time>2010-08-26T12:15:44Z</time>
      </trkpt>
      <trkpt lat="41.809617" lon="-8.131383">
        <ele>757.0</ele>
        <time>2010-08-26T12:15:46Z</time>
      </trkpt>
      <trkpt lat="41.809600" lon="-8.131417">
        <ele>757.0</ele>
        <time>2010-08-26T12:15:48Z</time>
      </trkpt>
      <trkpt lat="41.809583" lon="-8.131450">
        <ele>758.0</ele>
        <time>2010-08-26T12:15:50Z</time>
      </trkpt>
      <trkpt lat="41.809567" lon="-8.131500">
        <ele>758.0</ele>
        <time>2010-08-26T12:15:52Z</time>
      </trkpt>
      <trkpt lat="41.809533" lon="-8.131533">
        <ele>758.0</ele>
        <time>2010-08-26T12:15:55Z</time>
      </trkpt>
      <trkpt lat="41.809500" lon="-8.131567">
        <ele>759.0</ele>
        <time>2010-08-26T12:15:58Z</time>
      </trkpt>
      <trkpt lat="41.809467" lon="-8.131567">
        <ele>760.0</ele>
        <time>2010-08-26T12:16:04Z</time>
      </trkpt>
      <trkpt lat="41.809433" lon="-8.131533">
        <ele>762.0</ele>
        <time>2010-08-26T12:16:07Z</time>
      </trkpt>
      <trkpt lat="41.809400" lon="-8.131533">
        <ele>764.0</ele>
        <time>2010-08-26T12:16:11Z</time>
      </trkpt>
      <trkpt lat="41.809350" lon="-8.131550">
        <ele>760.0</ele>
        <time>2010-08-26T12:16:23Z</time>
      </trkpt>
      <trkpt lat="41.809317" lon="-8.131550">
        <ele>756.0</ele>
        <time>2010-08-26T12:16:32Z</time>
      </trkpt>
      <trkpt lat="41.809267" lon="-8.131567">
        <ele>758.0</ele>
        <time>2010-08-26T12:16:44Z</time>
      </trkpt>
      <trkpt lat="41.809300" lon="-8.131617">
        <ele>765.0</ele>
        <time>2010-08-26T12:17:04Z</time>
      </trkpt>
      <trkpt lat="41.809317" lon="-8.131667">
        <ele>761.0</ele>
        <time>2010-08-26T12:17:17Z</time>
      </trkpt>
      <trkpt lat="41.809333" lon="-8.131717">
        <ele>762.0</ele>
        <time>2010-08-26T12:17:34Z</time>
      </trkpt>
      <trkpt lat="41.809383" lon="-8.131733">
        <ele>767.0</ele>
        <time>2010-08-26T12:17:47Z</time>
      </trkpt>
      <trkpt lat="41.809417" lon="-8.131733">
        <ele>781.0</ele>
        <time>2010-08-26T12:18:01Z</time>
      </trkpt>
      <trkpt lat="41.809383" lon="-8.131733">
        <ele>763.0</ele>
        <time>2010-08-26T12:18:16Z</time>
      </trkpt>
      <trkpt lat="41.809383" lon="-8.131783">
        <ele>767.0</ele>
        <time>2010-08-26T12:18:46Z</time>
      </trkpt>
      <trkpt lat="41.809367" lon="-8.131733">
        <ele>770.0</ele>
        <time>2010-08-26T12:19:21Z</time>
      </trkpt>
      <trkpt lat="41.809367" lon="-8.131667">
        <ele>754.0</ele>
        <time>2010-08-26T12:19:52Z</time>
      </trkpt>
      <trkpt lat="41.809367" lon="-8.131733">
        <ele>759.0</ele>
        <time>2010-08-26T12:20:26Z</time>
      </trkpt>
      <trkpt lat="41.809417" lon="-8.131717">
        <ele>778.0</ele>
        <time>2010-08-26T12:21:36Z</time>
      </trkpt>
      <trkpt lat="41.809383" lon="-8.131700">
        <ele>765.0</ele>
        <time>2010-08-26T12:21:46Z</time>
      </trkpt>
      <trkpt lat="41.809417" lon="-8.131667">
        <ele>769.0</ele>
        <time>2010-08-26T12:22:38Z</time>
      </trkpt>
      <trkpt lat="41.809400" lon="-8.131600">
        <ele>755.0</ele>
        <time>2010-08-26T12:23:10Z</time>
      </trkpt>
      <trkpt lat="41.809367" lon="-8.131567">
        <ele>753.0</ele>
        <time>2010-08-26T12:23:18Z</time>
      </trkpt>
      <trkpt lat="41.809367" lon="-8.131633">
        <ele>763.0</ele>
        <time>2010-08-26T12:23:38Z</time>
      </trkpt>
      <trkpt lat="41.809317" lon="-8.131617">
        <ele>738.0</ele>
        <time>2010-08-26T12:24:23Z</time>
      </trkpt>
      <trkpt lat="41.809350" lon="-8.131633">
        <ele>757.0</ele>
        <time>2010-08-26T12:25:38Z</time>
      </trkpt>
      <trkpt lat="41.809350" lon="-8.131583">
        <ele>741.0</ele>
        <time>2010-08-26T12:26:58Z</time>
      </trkpt>
      <trkpt lat="41.809317" lon="-8.131617">
        <ele>749.0</ele>
        <time>2010-08-26T12:27:50Z</time>
      </trkpt>
      <trkpt lat="41.809283" lon="-8.131583">
        <ele>750.0</ele>
        <time>2010-08-26T12:28:09Z</time>
      </trkpt>
      <trkpt lat="41.809233" lon="-8.131600">
        <ele>754.0</ele>
        <time>2010-08-26T12:28:34Z</time>
      </trkpt>
      <trkpt lat="41.809183" lon="-8.131600">
        <ele>757.0</ele>
        <time>2010-08-26T12:28:43Z</time>
      </trkpt>
      <trkpt lat="41.809150" lon="-8.131600">
        <ele>758.0</ele>
        <time>2010-08-26T12:28:47Z</time>
      </trkpt>
      <trkpt lat="41.809117" lon="-8.131600">
        <ele>758.0</ele>
        <time>2010-08-26T12:28:51Z</time>
      </trkpt>
      <trkpt lat="41.809067" lon="-8.131600">
        <ele>759.0</ele>
        <time>2010-08-26T12:28:56Z</time>
      </trkpt>
      <trkpt lat="41.809050" lon="-8.131567">
        <ele>758.0</ele>
        <time>2010-08-26T12:29:15Z</time>
      </trkpt>
      <trkpt lat="41.809000" lon="-8.131550">
        <ele>759.0</ele>
        <time>2010-08-26T12:29:19Z</time>
      </trkpt>
      <trkpt lat="41.808967" lon="-8.131567">
        <ele>759.0</ele>
        <time>2010-08-26T12:29:23Z</time>
      </trkpt>
      <trkpt lat="41.808917" lon="-8.131567">
        <ele>760.0</ele>
        <time>2010-08-26T12:29:27Z</time>
      </trkpt>
      <trkpt lat="41.808883" lon="-8.131550">
        <ele>761.0</ele>
        <time>2010-08-26T12:29:31Z</time>
      </trkpt>
      <trkpt lat="41.808850" lon="-8.131517">
        <ele>761.0</ele>
        <time>2010-08-26T12:29:35Z</time>
      </trkpt>
      <trkpt lat="41.808833" lon="-8.131567">
        <ele>762.0</ele>
        <time>2010-08-26T12:29:48Z</time>
      </trkpt>
      <trkpt lat="41.808800" lon="-8.131583">
        <ele>762.0</ele>
        <time>2010-08-26T12:29:50Z</time>
      </trkpt>
      <trkpt lat="41.808767" lon="-8.131583">
        <ele>762.0</ele>
        <time>2010-08-26T12:29:51Z</time>
      </trkpt>
      <trkpt lat="41.808750" lon="-8.131583">
        <ele>762.0</ele>
        <time>2010-08-26T12:29:52Z</time>
      </trkpt>
      <trkpt lat="41.808700" lon="-8.131600">
        <ele>762.0</ele>
        <time>2010-08-26T12:29:54Z</time>
      </trkpt>
      <trkpt lat="41.808667" lon="-8.131600">
        <ele>763.0</ele>
        <time>2010-08-26T12:29:56Z</time>
      </trkpt>
      <trkpt lat="41.808650" lon="-8.131600">
        <ele>763.0</ele>
        <time>2010-08-26T12:29:58Z</time>
      </trkpt>
      <trkpt lat="41.808600" lon="-8.131600">
        <ele>764.0</ele>
        <time>2010-08-26T12:30:00Z</time>
      </trkpt>
      <trkpt lat="41.808567" lon="-8.131600">
        <ele>764.0</ele>
        <time>2010-08-26T12:30:02Z</time>
      </trkpt>
      <trkpt lat="41.808533" lon="-8.131583">
        <ele>764.0</ele>
        <time>2010-08-26T12:30:10Z</time>
      </trkpt>
      <trkpt lat="41.808500" lon="-8.131550">
        <ele>765.0</ele>
        <time>2010-08-26T12:30:12Z</time>
      </trkpt>
      <trkpt lat="41.808483" lon="-8.131500">
        <ele>766.0</ele>
        <time>2010-08-26T12:30:14Z</time>
      </trkpt>
      <trkpt lat="41.808483" lon="-8.131483">
        <ele>766.0</ele>
        <time>2010-08-26T12:30:15Z</time>
      </trkpt>
      <trkpt lat="41.808483" lon="-8.131450">
        <ele>766.0</ele>
        <time>2010-08-26T12:30:16Z</time>
      </trkpt>
      <trkpt lat="41.808467" lon="-8.131417">
        <ele>766.0</ele>
        <time>2010-08-26T12:30:17Z</time>
      </trkpt>
      <trkpt lat="41.808450" lon="-8.131383">
        <ele>766.0</ele>
        <time>2010-08-26T12:30:18Z</time>
      </trkpt>
      <trkpt lat="41.808450" lon="-8.131350">
        <ele>766.0</ele>
        <time>2010-08-26T12:30:19Z</time>
      </trkpt>
      <trkpt lat="41.808433" lon="-8.131333">
        <ele>766.0</ele>
        <time>2010-08-26T12:30:20Z</time>
      </trkpt>
      <trkpt lat="41.808417" lon="-8.131300">
        <ele>766.0</ele>
        <time>2010-08-26T12:30:21Z</time>
      </trkpt>
      <trkpt lat="41.808400" lon="-8.131250">
        <ele>766.0</ele>
        <time>2010-08-26T12:30:23Z</time>
      </trkpt>
      <trkpt lat="41.808367" lon="-8.131233">
        <ele>763.0</ele>
        <time>2010-08-26T12:32:14Z</time>
      </trkpt>
      <trkpt lat="41.808350" lon="-8.131183">
        <ele>763.0</ele>
        <time>2010-08-26T12:32:18Z</time>
      </trkpt>
      <trkpt lat="41.808400" lon="-8.131167">
        <ele>763.0</ele>
        <time>2010-08-26T12:32:52Z</time>
      </trkpt>
      <trkpt lat="41.808417" lon="-8.131200">
        <ele>763.0</ele>
        <time>2010-08-26T12:34:00Z</time>
      </trkpt>
      <trkpt lat="41.808400" lon="-8.131250">
        <ele>764.0</ele>
        <time>2010-08-26T12:34:02Z</time>
      </trkpt>
      <trkpt lat="41.808367" lon="-8.131250">
        <ele>764.0</ele>
        <time>2010-08-26T12:34:52Z</time>
      </trkpt>
      <trkpt lat="41.808317" lon="-8.131267">
        <ele>764.0</ele>
        <time>2010-08-26T12:35:08Z</time>
      </trkpt>
      <trkpt lat="41.808283" lon="-8.131300">
        <ele>765.0</ele>
        <time>2010-08-26T12:35:12Z</time>
      </trkpt>
      <trkpt lat="41.808250" lon="-8.131300">
        <ele>764.0</ele>
        <time>2010-08-26T12:35:15Z</time>
      </trkpt>
      <trkpt lat="41.808217" lon="-8.131300">
        <ele>763.0</ele>
        <time>2010-08-26T12:35:17Z</time>
      </trkpt>
      <trkpt lat="41.808167" lon="-8.131283">
        <ele>762.0</ele>
        <time>2010-08-26T12:35:22Z</time>
      </trkpt>
      <trkpt lat="41.808133" lon="-8.131267">
        <ele>761.0</ele>
        <time>2010-08-26T12:35:25Z</time>
      </trkpt>
      <trkpt lat="41.808117" lon="-8.131283">
        <ele>761.0</ele>
        <time>2010-08-26T12:35:26Z</time>
      </trkpt>
      <trkpt lat="41.808083" lon="-8.131283">
        <ele>760.0</ele>
        <time>2010-08-26T12:35:27Z</time>
      </trkpt>
      <trkpt lat="41.808067" lon="-8.131267">
        <ele>760.0</ele>
        <time>2010-08-26T12:35:28Z</time>
      </trkpt>
      <trkpt lat="41.808017" lon="-8.131267">
        <ele>760.0</ele>
        <time>2010-08-26T12:35:29Z</time>
      </trkpt>
      <trkpt lat="41.807983" lon="-8.131267">
        <ele>759.0</ele>
        <time>2010-08-26T12:35:30Z</time>
      </trkpt>
      <trkpt lat="41.807933" lon="-8.131267">
        <ele>759.0</ele>
        <time>2010-08-26T12:35:31Z</time>
      </trkpt>
      <trkpt lat="41.807900" lon="-8.131283">
        <ele>759.0</ele>
        <time>2010-08-26T12:35:32Z</time>
      </trkpt>
      <trkpt lat="41.807867" lon="-8.131283">
        <ele>758.0</ele>
        <time>2010-08-26T12:35:33Z</time>
      </trkpt>
      <trkpt lat="41.807833" lon="-8.131283">
        <ele>758.0</ele>
        <time>2010-08-26T12:35:34Z</time>
      </trkpt>
      <trkpt lat="41.807800" lon="-8.131283">
        <ele>758.0</ele>
        <time>2010-08-26T12:35:35Z</time>
      </trkpt>
      <trkpt lat="41.807767" lon="-8.131300">
        <ele>758.0</ele>
        <time>2010-08-26T12:35:36Z</time>
      </trkpt>
      <trkpt lat="41.807733" lon="-8.131300">
        <ele>757.0</ele>
        <time>2010-08-26T12:35:37Z</time>
      </trkpt>
      <trkpt lat="41.807700" lon="-8.131317">
        <ele>757.0</ele>
        <time>2010-08-26T12:35:38Z</time>
      </trkpt>
      <trkpt lat="41.807667" lon="-8.131333">
        <ele>757.0</ele>
        <time>2010-08-26T12:35:39Z</time>
      </trkpt>
      <trkpt lat="41.807633" lon="-8.131333">
        <ele>757.0</ele>
        <time>2010-08-26T12:35:40Z</time>
      </trkpt>
      <trkpt lat="41.807617" lon="-8.131333">
        <ele>757.0</ele>
        <time>2010-08-26T12:35:41Z</time>
      </trkpt>
      <trkpt lat="41.807583" lon="-8.131333">
        <ele>757.0</ele>
        <time>2010-08-26T12:35:42Z</time>
      </trkpt>
      <trkpt lat="41.807567" lon="-8.131333">
        <ele>757.0</ele>
        <time>2010-08-26T12:35:43Z</time>
      </trkpt>
      <trkpt lat="41.807517" lon="-8.131333">
        <ele>757.0</ele>
        <time>2010-08-26T12:35:45Z</time>
      </trkpt>
      <trkpt lat="41.807483" lon="-8.131333">
        <ele>758.0</ele>
        <time>2010-08-26T12:35:47Z</time>
      </trkpt>
      <trkpt lat="41.807450" lon="-8.131350">
        <ele>758.0</ele>
        <time>2010-08-26T12:35:48Z</time>
      </trkpt>
      <trkpt lat="41.807433" lon="-8.131367">
        <ele>757.0</ele>
        <time>2010-08-26T12:35:49Z</time>
      </trkpt>
      <trkpt lat="41.807400" lon="-8.131367">
        <ele>757.0</ele>
        <time>2010-08-26T12:35:50Z</time>
      </trkpt>
      <trkpt lat="41.807350" lon="-8.131367">
        <ele>756.0</ele>
        <time>2010-08-26T12:35:51Z</time>
      </trkpt>
      <trkpt lat="41.807317" lon="-8.131383">
        <ele>755.0</ele>
        <time>2010-08-26T12:35:52Z</time>
      </trkpt>
      <trkpt lat="41.807267" lon="-8.131383">
        <ele>755.0</ele>
        <time>2010-08-26T12:35:53Z</time>
      </trkpt>
      <trkpt lat="41.807217" lon="-8.131383">
        <ele>754.0</ele>
        <time>2010-08-26T12:35:54Z</time>
      </trkpt>
      <trkpt lat="41.807183" lon="-8.131400">
        <ele>754.0</ele>
        <time>2010-08-26T12:35:55Z</time>
      </trkpt>
      <trkpt lat="41.807133" lon="-8.131400">
        <ele>753.0</ele>
        <time>2010-08-26T12:35:56Z</time>
      </trkpt>
      <trkpt lat="41.807117" lon="-8.131417">
        <ele>753.0</ele>
        <time>2010-08-26T12:35:57Z</time>
      </trkpt>
      <trkpt lat="41.807083" lon="-8.131417">
        <ele>752.0</ele>
        <time>2010-08-26T12:35:58Z</time>
      </trkpt>
      <trkpt lat="41.807050" lon="-8.131433">
        <ele>751.0</ele>
        <time>2010-08-26T12:35:59Z</time>
      </trkpt>
      <trkpt lat="41.807017" lon="-8.131433">
        <ele>751.0</ele>
        <time>2010-08-26T12:36:00Z</time>
      </trkpt>
      <trkpt lat="41.806983" lon="-8.131450">
        <ele>750.0</ele>
        <time>2010-08-26T12:36:01Z</time>
      </trkpt>
      <trkpt lat="41.806950" lon="-8.131450">
        <ele>750.0</ele>
        <time>2010-08-26T12:36:02Z</time>
      </trkpt>
      <trkpt lat="41.806900" lon="-8.131483">
        <ele>751.0</ele>
        <time>2010-08-26T12:36:03Z</time>
      </trkpt>
      <trkpt lat="41.806867" lon="-8.131500">
        <ele>751.0</ele>
        <time>2010-08-26T12:36:04Z</time>
      </trkpt>
      <trkpt lat="41.806833" lon="-8.131517">
        <ele>751.0</ele>
        <time>2010-08-26T12:36:05Z</time>
      </trkpt>
      <trkpt lat="41.806783" lon="-8.131533">
        <ele>752.0</ele>
        <time>2010-08-26T12:36:06Z</time>
      </trkpt>
      <trkpt lat="41.806750" lon="-8.131550">
        <ele>752.0</ele>
        <time>2010-08-26T12:36:07Z</time>
      </trkpt>
      <trkpt lat="41.806700" lon="-8.131567">
        <ele>753.0</ele>
        <time>2010-08-26T12:36:08Z</time>
      </trkpt>
      <trkpt lat="41.806667" lon="-8.131583">
        <ele>753.0</ele>
        <time>2010-08-26T12:36:09Z</time>
      </trkpt>
      <trkpt lat="41.806633" lon="-8.131583">
        <ele>754.0</ele>
        <time>2010-08-26T12:36:10Z</time>
      </trkpt>
      <trkpt lat="41.806600" lon="-8.131583">
        <ele>754.0</ele>
        <time>2010-08-26T12:36:11Z</time>
      </trkpt>
      <trkpt lat="41.806583" lon="-8.131583">
        <ele>754.0</ele>
        <time>2010-08-26T12:36:12Z</time>
      </trkpt>
      <trkpt lat="41.806533" lon="-8.131600">
        <ele>754.0</ele>
        <time>2010-08-26T12:36:14Z</time>
      </trkpt>
      <trkpt lat="41.806517" lon="-8.131600">
        <ele>755.0</ele>
        <time>2010-08-26T12:36:16Z</time>
      </trkpt>
      <trkpt lat="41.806483" lon="-8.131617">
        <ele>755.0</ele>
        <time>2010-08-26T12:36:18Z</time>
      </trkpt>
      <trkpt lat="41.806433" lon="-8.131617">
        <ele>756.0</ele>
        <time>2010-08-26T12:36:20Z</time>
      </trkpt>
      <trkpt lat="41.806400" lon="-8.131617">
        <ele>756.0</ele>
        <time>2010-08-26T12:36:23Z</time>
      </trkpt>
      <trkpt lat="41.806367" lon="-8.131617">
        <ele>756.0</ele>
        <time>2010-08-26T12:36:27Z</time>
      </trkpt>
      <trkpt lat="41.806333" lon="-8.131633">
        <ele>756.0</ele>
        <time>2010-08-26T12:36:29Z</time>
      </trkpt>
      <trkpt lat="41.806300" lon="-8.131633">
        <ele>756.0</ele>
        <time>2010-08-26T12:36:32Z</time>
      </trkpt>
      <trkpt lat="41.806250" lon="-8.131633">
        <ele>756.0</ele>
        <time>2010-08-26T12:36:36Z</time>
      </trkpt>
      <trkpt lat="41.806217" lon="-8.131650">
        <ele>758.0</ele>
        <time>2010-08-26T12:36:43Z</time>
      </trkpt>
      <trkpt lat="41.806167" lon="-8.131650">
        <ele>759.0</ele>
        <time>2010-08-26T12:36:47Z</time>
      </trkpt>
      <trkpt lat="41.806133" lon="-8.131667">
        <ele>760.0</ele>
        <time>2010-08-26T12:36:55Z</time>
      </trkpt>
      <trkpt lat="41.806083" lon="-8.131667">
        <ele>762.0</ele>
        <time>2010-08-26T12:37:00Z</time>
      </trkpt>
      <trkpt lat="41.806050" lon="-8.131683">
        <ele>762.0</ele>
        <time>2010-08-26T12:37:05Z</time>
      </trkpt>
      <trkpt lat="41.806017" lon="-8.131700">
        <ele>762.0</ele>
        <time>2010-08-26T12:37:09Z</time>
      </trkpt>
      <trkpt lat="41.805967" lon="-8.131717">
        <ele>762.0</ele>
        <time>2010-08-26T12:37:12Z</time>
      </trkpt>
      <trkpt lat="41.805933" lon="-8.131717">
        <ele>762.0</ele>
        <time>2010-08-26T12:37:14Z</time>
      </trkpt>
      <trkpt lat="41.805900" lon="-8.131733">
        <ele>762.0</ele>
        <time>2010-08-26T12:37:16Z</time>
      </trkpt>
      <trkpt lat="41.805883" lon="-8.131733">
        <ele>762.0</ele>
        <time>2010-08-26T12:37:18Z</time>
      </trkpt>
      <trkpt lat="41.805833" lon="-8.131750">
        <ele>761.0</ele>
        <time>2010-08-26T12:37:20Z</time>
      </trkpt>
      <trkpt lat="41.805800" lon="-8.131750">
        <ele>760.0</ele>
        <time>2010-08-26T12:37:22Z</time>
      </trkpt>
      <trkpt lat="41.805783" lon="-8.131767">
        <ele>759.0</ele>
        <time>2010-08-26T12:37:23Z</time>
      </trkpt>
      <trkpt lat="41.805750" lon="-8.131767">
        <ele>758.0</ele>
        <time>2010-08-26T12:37:24Z</time>
      </trkpt>
      <trkpt lat="41.805733" lon="-8.131767">
        <ele>758.0</ele>
        <time>2010-08-26T12:37:25Z</time>
      </trkpt>
      <trkpt lat="41.805700" lon="-8.131767">
        <ele>757.0</ele>
        <time>2010-08-26T12:37:26Z</time>
      </trkpt>
      <trkpt lat="41.805667" lon="-8.131783">
        <ele>756.0</ele>
        <time>2010-08-26T12:37:28Z</time>
      </trkpt>
      <trkpt lat="41.805617" lon="-8.131783">
        <ele>754.0</ele>
        <time>2010-08-26T12:37:31Z</time>
      </trkpt>
      <trkpt lat="41.805583" lon="-8.131817">
        <ele>752.0</ele>
        <time>2010-08-26T12:37:34Z</time>
      </trkpt>
      <trkpt lat="41.805550" lon="-8.131833">
        <ele>752.0</ele>
        <time>2010-08-26T12:37:36Z</time>
      </trkpt>
      <trkpt lat="41.805500" lon="-8.131833">
        <ele>752.0</ele>
        <time>2010-08-26T12:37:38Z</time>
      </trkpt>
      <trkpt lat="41.805483" lon="-8.131850">
        <ele>752.0</ele>
        <time>2010-08-26T12:37:39Z</time>
      </trkpt>
      <trkpt lat="41.805450" lon="-8.131850">
        <ele>752.0</ele>
        <time>2010-08-26T12:37:40Z</time>
      </trkpt>
      <trkpt lat="41.805417" lon="-8.131850">
        <ele>752.0</ele>
        <time>2010-08-26T12:37:41Z</time>
      </trkpt>
      <trkpt lat="41.805400" lon="-8.131850">
        <ele>752.0</ele>
        <time>2010-08-26T12:37:42Z</time>
      </trkpt>
      <trkpt lat="41.805383" lon="-8.131867">
        <ele>753.0</ele>
        <time>2010-08-26T12:37:43Z</time>
      </trkpt>
      <trkpt lat="41.805350" lon="-8.131867">
        <ele>753.0</ele>
        <time>2010-08-26T12:37:44Z</time>
      </trkpt>
      <trkpt lat="41.805333" lon="-8.131867">
        <ele>753.0</ele>
        <time>2010-08-26T12:37:45Z</time>
      </trkpt>
      <trkpt lat="41.805300" lon="-8.131867">
        <ele>753.0</ele>
        <time>2010-08-26T12:37:46Z</time>
      </trkpt>
      <trkpt lat="41.805267" lon="-8.131883">
        <ele>754.0</ele>
        <time>2010-08-26T12:37:47Z</time>
      </trkpt>
      <trkpt lat="41.805233" lon="-8.131883">
        <ele>754.0</ele>
        <time>2010-08-26T12:37:48Z</time>
      </trkpt>
      <trkpt lat="41.805200" lon="-8.131883">
        <ele>754.0</ele>
        <time>2010-08-26T12:37:49Z</time>
      </trkpt>
      <trkpt lat="41.805167" lon="-8.131883">
        <ele>754.0</ele>
        <time>2010-08-26T12:37:50Z</time>
      </trkpt>
      <trkpt lat="41.805133" lon="-8.131883">
        <ele>753.0</ele>
        <time>2010-08-26T12:37:51Z</time>
      </trkpt>
      <trkpt lat="41.805100" lon="-8.131883">
        <ele>753.0</ele>
        <time>2010-08-26T12:37:52Z</time>
      </trkpt>
      <trkpt lat="41.805050" lon="-8.131900">
        <ele>753.0</ele>
        <time>2010-08-26T12:37:53Z</time>
      </trkpt>
      <trkpt lat="41.805017" lon="-8.131900">
        <ele>753.0</ele>
        <time>2010-08-26T12:37:54Z</time>
      </trkpt>
      <trkpt lat="41.804967" lon="-8.131900">
        <ele>752.0</ele>
        <time>2010-08-26T12:37:55Z</time>
      </trkpt>
      <trkpt lat="41.804933" lon="-8.131900">
        <ele>752.0</ele>
        <time>2010-08-26T12:37:56Z</time>
      </trkpt>
      <trkpt lat="41.804900" lon="-8.131900">
        <ele>751.0</ele>
        <time>2010-08-26T12:37:57Z</time>
      </trkpt>
      <trkpt lat="41.804867" lon="-8.131917">
        <ele>751.0</ele>
        <time>2010-08-26T12:37:58Z</time>
      </trkpt>
      <trkpt lat="41.804850" lon="-8.131917">
        <ele>750.0</ele>
        <time>2010-08-26T12:37:59Z</time>
      </trkpt>
      <trkpt lat="41.804817" lon="-8.131917">
        <ele>750.0</ele>
        <time>2010-08-26T12:38:00Z</time>
      </trkpt>
      <trkpt lat="41.804783" lon="-8.131933">
        <ele>750.0</ele>
        <time>2010-08-26T12:38:01Z</time>
      </trkpt>
      <trkpt lat="41.804750" lon="-8.131967">
        <ele>750.0</ele>
        <time>2010-08-26T12:38:02Z</time>
      </trkpt>
      <trkpt lat="41.804700" lon="-8.131983">
        <ele>750.0</ele>
        <time>2010-08-26T12:38:03Z</time>
      </trkpt>
      <trkpt lat="41.804667" lon="-8.132000">
        <ele>750.0</ele>
        <time>2010-08-26T12:38:04Z</time>
      </trkpt>
      <trkpt lat="41.804633" lon="-8.132017">
        <ele>749.0</ele>
        <time>2010-08-26T12:38:05Z</time>
      </trkpt>
      <trkpt lat="41.804600" lon="-8.132033">
        <ele>749.0</ele>
        <time>2010-08-26T12:38:06Z</time>
      </trkpt>
      <trkpt lat="41.804567" lon="-8.132050">
        <ele>749.0</ele>
        <time>2010-08-26T12:38:07Z</time>
      </trkpt>
      <trkpt lat="41.804517" lon="-8.132067">
        <ele>749.0</ele>
        <time>2010-08-26T12:38:08Z</time>
      </trkpt>
      <trkpt lat="41.804483" lon="-8.132083">
        <ele>749.0</ele>
        <time>2010-08-26T12:38:09Z</time>
      </trkpt>
      <trkpt lat="41.804433" lon="-8.132100">
        <ele>748.0</ele>
        <time>2010-08-26T12:38:10Z</time>
      </trkpt>
      <trkpt lat="41.804400" lon="-8.132133">
        <ele>747.0</ele>
        <time>2010-08-26T12:38:11Z</time>
      </trkpt>
      <trkpt lat="41.804350" lon="-8.132150">
        <ele>747.0</ele>
        <time>2010-08-26T12:38:12Z</time>
      </trkpt>
      <trkpt lat="41.804317" lon="-8.132183">
        <ele>746.0</ele>
        <time>2010-08-26T12:38:13Z</time>
      </trkpt>
      <trkpt lat="41.804283" lon="-8.132217">
        <ele>745.0</ele>
        <time>2010-08-26T12:38:14Z</time>
      </trkpt>
      <trkpt lat="41.804250" lon="-8.132250">
        <ele>744.0</ele>
        <time>2010-08-26T12:38:15Z</time>
      </trkpt>
      <trkpt lat="41.804233" lon="-8.132283">
        <ele>744.0</ele>
        <time>2010-08-26T12:38:16Z</time>
      </trkpt>
      <trkpt lat="41.804200" lon="-8.132300">
        <ele>743.0</ele>
        <time>2010-08-26T12:38:17Z</time>
      </trkpt>
      <trkpt lat="41.804183" lon="-8.132317">
        <ele>742.0</ele>
        <time>2010-08-26T12:38:18Z</time>
      </trkpt>
      <trkpt lat="41.804150" lon="-8.132367">
        <ele>741.0</ele>
        <time>2010-08-26T12:38:20Z</time>
      </trkpt>
      <trkpt lat="41.804133" lon="-8.132400">
        <ele>740.0</ele>
        <time>2010-08-26T12:38:21Z</time>
      </trkpt>
      <trkpt lat="41.804100" lon="-8.132433">
        <ele>740.0</ele>
        <time>2010-08-26T12:38:22Z</time>
      </trkpt>
      <trkpt lat="41.804100" lon="-8.132467">
        <ele>740.0</ele>
        <time>2010-08-26T12:38:23Z</time>
      </trkpt>
      <trkpt lat="41.804083" lon="-8.132517">
        <ele>739.0</ele>
        <time>2010-08-26T12:38:24Z</time>
      </trkpt>
      <trkpt lat="41.804067" lon="-8.132550">
        <ele>739.0</ele>
        <time>2010-08-26T12:38:25Z</time>
      </trkpt>
      <trkpt lat="41.804050" lon="-8.132600">
        <ele>739.0</ele>
        <time>2010-08-26T12:38:26Z</time>
      </trkpt>
      <trkpt lat="41.804033" lon="-8.132633">
        <ele>739.0</ele>
        <time>2010-08-26T12:38:27Z</time>
      </trkpt>
      <trkpt lat="41.804017" lon="-8.132667">
        <ele>739.0</ele>
        <time>2010-08-26T12:38:28Z</time>
      </trkpt>
      <trkpt lat="41.803983" lon="-8.132700">
        <ele>738.0</ele>
        <time>2010-08-26T12:38:29Z</time>
      </trkpt>
      <trkpt lat="41.803967" lon="-8.132733">
        <ele>738.0</ele>
        <time>2010-08-26T12:38:30Z</time>
      </trkpt>
      <trkpt lat="41.803950" lon="-8.132767">
        <ele>738.0</ele>
        <time>2010-08-26T12:38:31Z</time>
      </trkpt>
      <trkpt lat="41.803933" lon="-8.132817">
        <ele>738.0</ele>
        <time>2010-08-26T12:38:32Z</time>
      </trkpt>
      <trkpt lat="41.803917" lon="-8.132833">
        <ele>738.0</ele>
        <time>2010-08-26T12:38:33Z</time>
      </trkpt>
      <trkpt lat="41.803867" lon="-8.132850">
        <ele>735.0</ele>
        <time>2010-08-26T12:38:39Z</time>
      </trkpt>
      <trkpt lat="41.803833" lon="-8.132867">
        <ele>731.0</ele>
        <time>2010-08-26T12:38:51Z</time>
      </trkpt>
      <trkpt lat="41.803800" lon="-8.132883">
        <ele>730.0</ele>
        <time>2010-08-26T12:38:53Z</time>
      </trkpt>
      <trkpt lat="41.803750" lon="-8.132900">
        <ele>730.0</ele>
        <time>2010-08-26T12:38:55Z</time>
      </trkpt>
      <trkpt lat="41.803700" lon="-8.132900">
        <ele>724.0</ele>
        <time>2010-08-26T12:39:17Z</time>
      </trkpt>
      <trkpt lat="41.803667" lon="-8.132900">
        <ele>724.0</ele>
        <time>2010-08-26T12:39:19Z</time>
      </trkpt>
      <trkpt lat="41.803633" lon="-8.132917">
        <ele>725.0</ele>
        <time>2010-08-26T12:39:22Z</time>
      </trkpt>
      <trkpt lat="41.803600" lon="-8.132917">
        <ele>726.0</ele>
        <time>2010-08-26T12:39:26Z</time>
      </trkpt>
      <trkpt lat="41.803550" lon="-8.132900">
        <ele>727.0</ele>
        <time>2010-08-26T12:39:29Z</time>
      </trkpt>
      <trkpt lat="41.803533" lon="-8.132900">
        <ele>727.0</ele>
        <time>2010-08-26T12:39:30Z</time>
      </trkpt>
      <trkpt lat="41.803483" lon="-8.132917">
        <ele>728.0</ele>
        <time>2010-08-26T12:39:32Z</time>
      </trkpt>
      <trkpt lat="41.803467" lon="-8.132917">
        <ele>728.0</ele>
        <time>2010-08-26T12:39:33Z</time>
      </trkpt>
      <trkpt lat="41.803433" lon="-8.132933">
        <ele>728.0</ele>
        <time>2010-08-26T12:39:34Z</time>
      </trkpt>
      <trkpt lat="41.803417" lon="-8.132950">
        <ele>727.0</ele>
        <time>2010-08-26T12:39:35Z</time>
      </trkpt>
      <trkpt lat="41.803383" lon="-8.132950">
        <ele>727.0</ele>
        <time>2010-08-26T12:39:36Z</time>
      </trkpt>
      <trkpt lat="41.803367" lon="-8.132967">
        <ele>727.0</ele>
        <time>2010-08-26T12:39:37Z</time>
      </trkpt>
      <trkpt lat="41.803333" lon="-8.132967">
        <ele>727.0</ele>
        <time>2010-08-26T12:39:38Z</time>
      </trkpt>
      <trkpt lat="41.803317" lon="-8.132967">
        <ele>727.0</ele>
        <time>2010-08-26T12:39:39Z</time>
      </trkpt>
      <trkpt lat="41.803283" lon="-8.132983">
        <ele>727.0</ele>
        <time>2010-08-26T12:39:40Z</time>
      </trkpt>
      <trkpt lat="41.803267" lon="-8.133000">
        <ele>727.0</ele>
        <time>2010-08-26T12:39:41Z</time>
      </trkpt>
      <trkpt lat="41.803233" lon="-8.133000">
        <ele>726.0</ele>
        <time>2010-08-26T12:39:42Z</time>
      </trkpt>
      <trkpt lat="41.803217" lon="-8.133000">
        <ele>726.0</ele>
        <time>2010-08-26T12:39:43Z</time>
      </trkpt>
      <trkpt lat="41.803200" lon="-8.133017">
        <ele>726.0</ele>
        <time>2010-08-26T12:39:44Z</time>
      </trkpt>
      <trkpt lat="41.803167" lon="-8.133033">
        <ele>726.0</ele>
        <time>2010-08-26T12:39:45Z</time>
      </trkpt>
      <trkpt lat="41.803133" lon="-8.133033">
        <ele>725.0</ele>
        <time>2010-08-26T12:39:47Z</time>
      </trkpt>
      <trkpt lat="41.803083" lon="-8.133050">
        <ele>726.0</ele>
        <time>2010-08-26T12:39:55Z</time>
      </trkpt>
      <trkpt lat="41.803050" lon="-8.133050">
        <ele>725.0</ele>
        <time>2010-08-26T12:40:02Z</time>
      </trkpt>
      <trkpt lat="41.803017" lon="-8.133033">
        <ele>723.0</ele>
        <time>2010-08-26T12:40:10Z</time>
      </trkpt>
      <trkpt lat="41.802983" lon="-8.133033">
        <ele>722.0</ele>
        <time>2010-08-26T12:40:15Z</time>
      </trkpt>
      <trkpt lat="41.802950" lon="-8.133017">
        <ele>721.0</ele>
        <time>2010-08-26T12:40:19Z</time>
      </trkpt>
      <trkpt lat="41.802900" lon="-8.133017">
        <ele>720.0</ele>
        <time>2010-08-26T12:40:23Z</time>
      </trkpt>
      <trkpt lat="41.802867" lon="-8.133000">
        <ele>720.0</ele>
        <time>2010-08-26T12:40:28Z</time>
      </trkpt>
      <trkpt lat="41.802817" lon="-8.133000">
        <ele>720.0</ele>
        <time>2010-08-26T12:40:36Z</time>
      </trkpt>
      <trkpt lat="41.802767" lon="-8.133000">
        <ele>721.0</ele>
        <time>2010-08-26T12:40:40Z</time>
      </trkpt>
      <trkpt lat="41.802733" lon="-8.133017">
        <ele>720.0</ele>
        <time>2010-08-26T12:40:43Z</time>
      </trkpt>
      <trkpt lat="41.802700" lon="-8.133017">
        <ele>719.0</ele>
        <time>2010-08-26T12:40:48Z</time>
      </trkpt>
      <trkpt lat="41.802667" lon="-8.132983">
        <ele>718.0</ele>
        <time>2010-08-26T12:40:53Z</time>
      </trkpt>
      <trkpt lat="41.802617" lon="-8.133017">
        <ele>718.0</ele>
        <time>2010-08-26T12:40:59Z</time>
      </trkpt>
      <trkpt lat="41.802583" lon="-8.133033">
        <ele>717.0</ele>
        <time>2010-08-26T12:41:03Z</time>
      </trkpt>
      <trkpt lat="41.802550" lon="-8.133033">
        <ele>717.0</ele>
        <time>2010-08-26T12:41:06Z</time>
      </trkpt>
      <trkpt lat="41.802517" lon="-8.133033">
        <ele>717.0</ele>
        <time>2010-08-26T12:41:09Z</time>
      </trkpt>
      <trkpt lat="41.802500" lon="-8.133050">
        <ele>717.0</ele>
        <time>2010-08-26T12:41:11Z</time>
      </trkpt>
      <trkpt lat="41.802467" lon="-8.133067">
        <ele>716.0</ele>
        <time>2010-08-26T12:41:13Z</time>
      </trkpt>
      <trkpt lat="41.802417" lon="-8.133067">
        <ele>716.0</ele>
        <time>2010-08-26T12:41:18Z</time>
      </trkpt>
      <trkpt lat="41.802383" lon="-8.133100">
        <ele>713.0</ele>
        <time>2010-08-26T12:41:27Z</time>
      </trkpt>
      <trkpt lat="41.802350" lon="-8.133100">
        <ele>713.0</ele>
        <time>2010-08-26T12:41:30Z</time>
      </trkpt>
      <trkpt lat="41.802300" lon="-8.133117">
        <ele>713.0</ele>
        <time>2010-08-26T12:41:33Z</time>
      </trkpt>
      <trkpt lat="41.802267" lon="-8.133117">
        <ele>713.0</ele>
        <time>2010-08-26T12:41:35Z</time>
      </trkpt>
      <trkpt lat="41.802233" lon="-8.133117">
        <ele>713.0</ele>
        <time>2010-08-26T12:41:37Z</time>
      </trkpt>
      <trkpt lat="41.802183" lon="-8.133133">
        <ele>713.0</ele>
        <time>2010-08-26T12:41:39Z</time>
      </trkpt>
      <trkpt lat="41.802150" lon="-8.133133">
        <ele>713.0</ele>
        <time>2010-08-26T12:41:41Z</time>
      </trkpt>
      <trkpt lat="41.802117" lon="-8.133133">
        <ele>713.0</ele>
        <time>2010-08-26T12:41:43Z</time>
      </trkpt>
      <trkpt lat="41.802067" lon="-8.133117">
        <ele>713.0</ele>
        <time>2010-08-26T12:41:49Z</time>
      </trkpt>
      <trkpt lat="41.802033" lon="-8.133117">
        <ele>713.0</ele>
        <time>2010-08-26T12:41:54Z</time>
      </trkpt>
      <trkpt lat="41.801983" lon="-8.133133">
        <ele>712.0</ele>
        <time>2010-08-26T12:42:03Z</time>
      </trkpt>
      <trkpt lat="41.801950" lon="-8.133133">
        <ele>712.0</ele>
        <time>2010-08-26T12:42:06Z</time>
      </trkpt>
      <trkpt lat="41.801917" lon="-8.133117">
        <ele>712.0</ele>
        <time>2010-08-26T12:42:10Z</time>
      </trkpt>
      <trkpt lat="41.801883" lon="-8.133100">
        <ele>712.0</ele>
        <time>2010-08-26T12:42:14Z</time>
      </trkpt>
      <trkpt lat="41.801850" lon="-8.133083">
        <ele>711.0</ele>
        <time>2010-08-26T12:42:17Z</time>
      </trkpt>
      <trkpt lat="41.801817" lon="-8.133050">
        <ele>710.0</ele>
        <time>2010-08-26T12:42:19Z</time>
      </trkpt>
      <trkpt lat="41.801783" lon="-8.133050">
        <ele>709.0</ele>
        <time>2010-08-26T12:42:21Z</time>
      </trkpt>
      <trkpt lat="41.801750" lon="-8.133067">
        <ele>709.0</ele>
        <time>2010-08-26T12:42:24Z</time>
      </trkpt>
      <trkpt lat="41.801700" lon="-8.133033">
        <ele>708.0</ele>
        <time>2010-08-26T12:42:27Z</time>
      </trkpt>
      <trkpt lat="41.801683" lon="-8.133017">
        <ele>708.0</ele>
        <time>2010-08-26T12:42:28Z</time>
      </trkpt>
      <trkpt lat="41.801650" lon="-8.133017">
        <ele>707.0</ele>
        <time>2010-08-26T12:42:30Z</time>
      </trkpt>
      <trkpt lat="41.801600" lon="-8.133033">
        <ele>706.0</ele>
        <time>2010-08-26T12:42:36Z</time>
      </trkpt>
      <trkpt lat="41.801567" lon="-8.133033">
        <ele>706.0</ele>
        <time>2010-08-26T12:42:40Z</time>
      </trkpt>
      <trkpt lat="41.801533" lon="-8.133033">
        <ele>705.0</ele>
        <time>2010-08-26T12:42:43Z</time>
      </trkpt>
      <trkpt lat="41.801483" lon="-8.133017">
        <ele>705.0</ele>
        <time>2010-08-26T12:42:48Z</time>
      </trkpt>
      <trkpt lat="41.801450" lon="-8.133033">
        <ele>705.0</ele>
        <time>2010-08-26T12:42:53Z</time>
      </trkpt>
      <trkpt lat="41.801400" lon="-8.133033">
        <ele>706.0</ele>
        <time>2010-08-26T12:42:59Z</time>
      </trkpt>
      <trkpt lat="41.801367" lon="-8.133050">
        <ele>706.0</ele>
        <time>2010-08-26T12:43:06Z</time>
      </trkpt>
      <trkpt lat="41.801333" lon="-8.133067">
        <ele>707.0</ele>
        <time>2010-08-26T12:43:13Z</time>
      </trkpt>
      <trkpt lat="41.801283" lon="-8.133083">
        <ele>709.0</ele>
        <time>2010-08-26T12:43:24Z</time>
      </trkpt>
      <trkpt lat="41.801250" lon="-8.133067">
        <ele>712.0</ele>
        <time>2010-08-26T12:43:32Z</time>
      </trkpt>
      <trkpt lat="41.801200" lon="-8.133067">
        <ele>715.0</ele>
        <time>2010-08-26T12:43:39Z</time>
      </trkpt>
      <trkpt lat="41.801150" lon="-8.133067">
        <ele>715.0</ele>
        <time>2010-08-26T12:43:55Z</time>
      </trkpt>
      <trkpt lat="41.801117" lon="-8.133100">
        <ele>715.0</ele>
        <time>2010-08-26T12:43:58Z</time>
      </trkpt>
      <trkpt lat="41.801083" lon="-8.133117">
        <ele>716.0</ele>
        <time>2010-08-26T12:44:00Z</time>
      </trkpt>
      <trkpt lat="41.801050" lon="-8.133150">
        <ele>716.0</ele>
        <time>2010-08-26T12:44:02Z</time>
      </trkpt>
      <trkpt lat="41.801017" lon="-8.133167">
        <ele>715.0</ele>
        <time>2010-08-26T12:44:06Z</time>
      </trkpt>
      <trkpt lat="41.800983" lon="-8.133150">
        <ele>715.0</ele>
        <time>2010-08-26T12:44:09Z</time>
      </trkpt>
      <trkpt lat="41.800950" lon="-8.133150">
        <ele>714.0</ele>
        <time>2010-08-26T12:44:13Z</time>
      </trkpt>
      <trkpt lat="41.800900" lon="-8.133133">
        <ele>712.0</ele>
        <time>2010-08-26T12:44:19Z</time>
      </trkpt>
      <trkpt lat="41.800883" lon="-8.133133">
        <ele>712.0</ele>
        <time>2010-08-26T12:44:21Z</time>
      </trkpt>
      <trkpt lat="41.800850" lon="-8.133133">
        <ele>711.0</ele>
        <time>2010-08-26T12:44:23Z</time>
      </trkpt>
      <trkpt lat="41.800817" lon="-8.133133">
        <ele>711.0</ele>
        <time>2010-08-26T12:44:25Z</time>
      </trkpt>
      <trkpt lat="41.800783" lon="-8.133133">
        <ele>710.0</ele>
        <time>2010-08-26T12:44:26Z</time>
      </trkpt>
      <trkpt lat="41.800767" lon="-8.133150">
        <ele>710.0</ele>
        <time>2010-08-26T12:44:27Z</time>
      </trkpt>
      <trkpt lat="41.800733" lon="-8.133183">
        <ele>710.0</ele>
        <time>2010-08-26T12:44:29Z</time>
      </trkpt>
      <trkpt lat="41.800700" lon="-8.133200">
        <ele>710.0</ele>
        <time>2010-08-26T12:44:32Z</time>
      </trkpt>
      <trkpt lat="41.800650" lon="-8.133217">
        <ele>710.0</ele>
        <time>2010-08-26T12:44:36Z</time>
      </trkpt>
      <trkpt lat="41.800617" lon="-8.133233">
        <ele>710.0</ele>
        <time>2010-08-26T12:44:38Z</time>
      </trkpt>
      <trkpt lat="41.800600" lon="-8.133250">
        <ele>710.0</ele>
        <time>2010-08-26T12:44:39Z</time>
      </trkpt>
      <trkpt lat="41.800567" lon="-8.133267">
        <ele>710.0</ele>
        <time>2010-08-26T12:44:40Z</time>
      </trkpt>
      <trkpt lat="41.800550" lon="-8.133283">
        <ele>710.0</ele>
        <time>2010-08-26T12:44:41Z</time>
      </trkpt>
      <trkpt lat="41.800517" lon="-8.133283">
        <ele>710.0</ele>
        <time>2010-08-26T12:44:42Z</time>
      </trkpt>
      <trkpt lat="41.800483" lon="-8.133300">
        <ele>710.0</ele>
        <time>2010-08-26T12:44:45Z</time>
      </trkpt>
      <trkpt lat="41.800433" lon="-8.133317">
        <ele>711.0</ele>
        <time>2010-08-26T12:44:57Z</time>
      </trkpt>
      <trkpt lat="41.800400" lon="-8.133333">
        <ele>711.0</ele>
        <time>2010-08-26T12:45:08Z</time>
      </trkpt>
      <trkpt lat="41.800367" lon="-8.133350">
        <ele>711.0</ele>
        <time>2010-08-26T12:45:15Z</time>
      </trkpt>
      <trkpt lat="41.800333" lon="-8.133350">
        <ele>711.0</ele>
        <time>2010-08-26T12:45:17Z</time>
      </trkpt>
      <trkpt lat="41.800300" lon="-8.133350">
        <ele>711.0</ele>
        <time>2010-08-26T12:45:18Z</time>
      </trkpt>
      <trkpt lat="41.800267" lon="-8.133383">
        <ele>711.0</ele>
        <time>2010-08-26T12:45:20Z</time>
      </trkpt>
      <trkpt lat="41.800233" lon="-8.133400">
        <ele>709.0</ele>
        <time>2010-08-26T12:45:24Z</time>
      </trkpt>
      <trkpt lat="41.800200" lon="-8.133400">
        <ele>708.0</ele>
        <time>2010-08-26T12:45:26Z</time>
      </trkpt>
      <trkpt lat="41.800150" lon="-8.133417">
        <ele>707.0</ele>
        <time>2010-08-26T12:45:28Z</time>
      </trkpt>
      <trkpt lat="41.800133" lon="-8.133433">
        <ele>707.0</ele>
        <time>2010-08-26T12:45:29Z</time>
      </trkpt>
      <trkpt lat="41.800100" lon="-8.133450">
        <ele>706.0</ele>
        <time>2010-08-26T12:45:30Z</time>
      </trkpt>
      <trkpt lat="41.800083" lon="-8.133467">
        <ele>705.0</ele>
        <time>2010-08-26T12:45:31Z</time>
      </trkpt>
      <trkpt lat="41.800050" lon="-8.133500">
        <ele>705.0</ele>
        <time>2010-08-26T12:45:32Z</time>
      </trkpt>
      <trkpt lat="41.800017" lon="-8.133533">
        <ele>704.0</ele>
        <time>2010-08-26T12:45:34Z</time>
      </trkpt>
      <trkpt lat="41.799983" lon="-8.133517">
        <ele>703.0</ele>
        <time>2010-08-26T12:45:38Z</time>
      </trkpt>
      <trkpt lat="41.799933" lon="-8.133500">
        <ele>701.0</ele>
        <time>2010-08-26T12:45:41Z</time>
      </trkpt>
      <trkpt lat="41.799917" lon="-8.133500">
        <ele>701.0</ele>
        <time>2010-08-26T12:45:42Z</time>
      </trkpt>
      <trkpt lat="41.799900" lon="-8.133467">
        <ele>700.0</ele>
        <time>2010-08-26T12:45:43Z</time>
      </trkpt>
      <trkpt lat="41.799883" lon="-8.133467">
        <ele>699.0</ele>
        <time>2010-08-26T12:45:44Z</time>
      </trkpt>
      <trkpt lat="41.799850" lon="-8.133450">
        <ele>699.0</ele>
        <time>2010-08-26T12:45:45Z</time>
      </trkpt>
      <trkpt lat="41.799833" lon="-8.133467">
        <ele>698.0</ele>
        <time>2010-08-26T12:45:46Z</time>
      </trkpt>
      <trkpt lat="41.799817" lon="-8.133483">
        <ele>698.0</ele>
        <time>2010-08-26T12:45:47Z</time>
      </trkpt>
      <trkpt lat="41.799783" lon="-8.133500">
        <ele>698.0</ele>
        <time>2010-08-26T12:45:48Z</time>
      </trkpt>
      <trkpt lat="41.799750" lon="-8.133533">
        <ele>697.0</ele>
        <time>2010-08-26T12:45:49Z</time>
      </trkpt>
      <trkpt lat="41.799733" lon="-8.133550">
        <ele>697.0</ele>
        <time>2010-08-26T12:45:50Z</time>
      </trkpt>
      <trkpt lat="41.799717" lon="-8.133583">
        <ele>696.0</ele>
        <time>2010-08-26T12:45:51Z</time>
      </trkpt>
      <trkpt lat="41.799683" lon="-8.133617">
        <ele>696.0</ele>
        <time>2010-08-26T12:45:53Z</time>
      </trkpt>
      <trkpt lat="41.799650" lon="-8.133650">
        <ele>696.0</ele>
        <time>2010-08-26T12:45:57Z</time>
      </trkpt>
      <trkpt lat="41.799617" lon="-8.133667">
        <ele>697.0</ele>
        <time>2010-08-26T12:46:04Z</time>
      </trkpt>
      <trkpt lat="41.799583" lon="-8.133700">
        <ele>699.0</ele>
        <time>2010-08-26T12:46:08Z</time>
      </trkpt>
      <trkpt lat="41.799550" lon="-8.133733">
        <ele>700.0</ele>
        <time>2010-08-26T12:46:13Z</time>
      </trkpt>
      <trkpt lat="41.799533" lon="-8.133783">
        <ele>701.0</ele>
        <time>2010-08-26T12:46:17Z</time>
      </trkpt>
      <trkpt lat="41.799517" lon="-8.133833">
        <ele>702.0</ele>
        <time>2010-08-26T12:46:20Z</time>
      </trkpt>
      <trkpt lat="41.799517" lon="-8.133883">
        <ele>702.0</ele>
        <time>2010-08-26T12:46:24Z</time>
      </trkpt>
      <trkpt lat="41.799517" lon="-8.133933">
        <ele>702.0</ele>
        <time>2010-08-26T12:46:31Z</time>
      </trkpt>
      <trkpt lat="41.799500" lon="-8.133983">
        <ele>702.0</ele>
        <time>2010-08-26T12:46:38Z</time>
      </trkpt>
      <trkpt lat="41.799550" lon="-8.134017">
        <ele>693.0</ele>
        <time>2010-08-26T12:46:56Z</time>
      </trkpt>
      <trkpt lat="41.799533" lon="-8.134067">
        <ele>693.0</ele>
        <time>2010-08-26T12:47:13Z</time>
      </trkpt>
      <trkpt lat="41.799500" lon="-8.134083">
        <ele>700.0</ele>
        <time>2010-08-26T12:47:28Z</time>
      </trkpt>
      <trkpt lat="41.799467" lon="-8.134083">
        <ele>705.0</ele>
        <time>2010-08-26T12:47:36Z</time>
      </trkpt>
      <trkpt lat="41.799433" lon="-8.134083">
        <ele>708.0</ele>
        <time>2010-08-26T12:47:39Z</time>
      </trkpt>
      <trkpt lat="41.799400" lon="-8.134067">
        <ele>710.0</ele>
        <time>2010-08-26T12:47:41Z</time>
      </trkpt>
      <trkpt lat="41.799350" lon="-8.134067">
        <ele>715.0</ele>
        <time>2010-08-26T12:47:45Z</time>
      </trkpt>
      <trkpt lat="41.799317" lon="-8.134067">
        <ele>719.0</ele>
        <time>2010-08-26T12:47:49Z</time>
      </trkpt>
      <trkpt lat="41.799283" lon="-8.134083">
        <ele>720.0</ele>
        <time>2010-08-26T12:47:51Z</time>
      </trkpt>
      <trkpt lat="41.799250" lon="-8.134083">
        <ele>722.0</ele>
        <time>2010-08-26T12:47:53Z</time>
      </trkpt>
      <trkpt lat="41.799200" lon="-8.134083">
        <ele>726.0</ele>
        <time>2010-08-26T12:47:58Z</time>
      </trkpt>
      <trkpt lat="41.799167" lon="-8.134083">
        <ele>729.0</ele>
        <time>2010-08-26T12:48:04Z</time>
      </trkpt>
      <trkpt lat="41.799133" lon="-8.134100">
        <ele>731.0</ele>
        <time>2010-08-26T12:48:14Z</time>
      </trkpt>
      <trkpt lat="41.799100" lon="-8.134067">
        <ele>729.0</ele>
        <time>2010-08-26T12:48:17Z</time>
      </trkpt>
      <trkpt lat="41.799133" lon="-8.134067">
        <ele>713.0</ele>
        <time>2010-08-26T12:48:26Z</time>
      </trkpt>
      <trkpt lat="41.799183" lon="-8.134083">
        <ele>706.0</ele>
        <time>2010-08-26T12:48:31Z</time>
      </trkpt>
      <trkpt lat="41.799183" lon="-8.134150">
        <ele>698.0</ele>
        <time>2010-08-26T12:49:03Z</time>
      </trkpt>
      <trkpt lat="41.799217" lon="-8.134183">
        <ele>698.0</ele>
        <time>2010-08-26T12:49:08Z</time>
      </trkpt>
      <trkpt lat="41.799250" lon="-8.134217">
        <ele>696.0</ele>
        <time>2010-08-26T12:49:21Z</time>
      </trkpt>
      <trkpt lat="41.799300" lon="-8.134233">
        <ele>693.0</ele>
        <time>2010-08-26T12:49:29Z</time>
      </trkpt>
      <trkpt lat="41.799333" lon="-8.134267">
        <ele>692.0</ele>
        <time>2010-08-26T12:49:41Z</time>
      </trkpt>
      <trkpt lat="41.799367" lon="-8.134283">
        <ele>691.0</ele>
        <time>2010-08-26T12:49:50Z</time>
      </trkpt>
      <trkpt lat="41.799333" lon="-8.134267">
        <ele>686.0</ele>
        <time>2010-08-26T12:50:07Z</time>
      </trkpt>
      <trkpt lat="41.799283" lon="-8.134250">
        <ele>688.0</ele>
        <time>2010-08-26T12:50:12Z</time>
      </trkpt>
      <trkpt lat="41.799250" lon="-8.134217">
        <ele>688.0</ele>
        <time>2010-08-26T12:50:20Z</time>
      </trkpt>
      <trkpt lat="41.799200" lon="-8.134200">
        <ele>687.0</ele>
        <time>2010-08-26T12:50:28Z</time>
      </trkpt>
      <trkpt lat="41.799167" lon="-8.134183">
        <ele>689.0</ele>
        <time>2010-08-26T12:50:31Z</time>
      </trkpt>
      <trkpt lat="41.799133" lon="-8.134167">
        <ele>692.0</ele>
        <time>2010-08-26T12:50:36Z</time>
      </trkpt>
      <trkpt lat="41.799100" lon="-8.134150">
        <ele>694.0</ele>
        <time>2010-08-26T12:50:41Z</time>
      </trkpt>
      <trkpt lat="41.799050" lon="-8.134133">
        <ele>697.0</ele>
        <time>2010-08-26T12:50:47Z</time>
      </trkpt>
      <trkpt lat="41.799017" lon="-8.134117">
        <ele>699.0</ele>
        <time>2010-08-26T12:50:56Z</time>
      </trkpt>
      <trkpt lat="41.798983" lon="-8.134100">
        <ele>702.0</ele>
        <time>2010-08-26T12:51:05Z</time>
      </trkpt>
      <trkpt lat="41.798950" lon="-8.134067">
        <ele>700.0</ele>
        <time>2010-08-26T12:51:35Z</time>
      </trkpt>
      <trkpt lat="41.798967" lon="-8.134083">
        <ele>694.0</ele>
        <time>2010-08-26T12:51:40Z</time>
      </trkpt>
      <trkpt lat="41.799000" lon="-8.134117">
        <ele>693.0</ele>
        <time>2010-08-26T12:51:42Z</time>
      </trkpt>
      <trkpt lat="41.799017" lon="-8.134167">
        <ele>689.0</ele>
        <time>2010-08-26T12:51:47Z</time>
      </trkpt>
      <trkpt lat="41.799050" lon="-8.134200">
        <ele>686.0</ele>
        <time>2010-08-26T12:51:52Z</time>
      </trkpt>
      <trkpt lat="41.799067" lon="-8.134150">
        <ele>686.0</ele>
        <time>2010-08-26T12:52:36Z</time>
      </trkpt>
      <trkpt lat="41.799083" lon="-8.134100">
        <ele>686.0</ele>
        <time>2010-08-26T12:52:43Z</time>
      </trkpt>
      <trkpt lat="41.799050" lon="-8.134150">
        <ele>681.0</ele>
        <time>2010-08-26T12:53:19Z</time>
      </trkpt>
      <trkpt lat="41.799033" lon="-8.134150">
        <ele>681.0</ele>
        <time>2010-08-26T12:53:20Z</time>
      </trkpt>
      <trkpt lat="41.799000" lon="-8.134150">
        <ele>680.0</ele>
        <time>2010-08-26T12:53:21Z</time>
      </trkpt>
      <trkpt lat="41.798983" lon="-8.134150">
        <ele>680.0</ele>
        <time>2010-08-26T12:53:22Z</time>
      </trkpt>
      <trkpt lat="41.798950" lon="-8.134150">
        <ele>680.0</ele>
        <time>2010-08-26T12:53:23Z</time>
      </trkpt>
      <trkpt lat="41.798933" lon="-8.134150">
        <ele>679.0</ele>
        <time>2010-08-26T12:53:24Z</time>
      </trkpt>
      <trkpt lat="41.798900" lon="-8.134167">
        <ele>679.0</ele>
        <time>2010-08-26T12:53:25Z</time>
      </trkpt>
      <trkpt lat="41.798883" lon="-8.134167">
        <ele>679.0</ele>
        <time>2010-08-26T12:53:26Z</time>
      </trkpt>
      <trkpt lat="41.798850" lon="-8.134150">
        <ele>679.0</ele>
        <time>2010-08-26T12:53:27Z</time>
      </trkpt>
      <trkpt lat="41.798817" lon="-8.134150">
        <ele>679.0</ele>
        <time>2010-08-26T12:53:28Z</time>
      </trkpt>
      <trkpt lat="41.798800" lon="-8.134150">
        <ele>678.0</ele>
        <time>2010-08-26T12:53:29Z</time>
      </trkpt>
      <trkpt lat="41.798767" lon="-8.134150">
        <ele>678.0</ele>
        <time>2010-08-26T12:53:30Z</time>
      </trkpt>
      <trkpt lat="41.798733" lon="-8.134167">
        <ele>678.0</ele>
        <time>2010-08-26T12:53:31Z</time>
      </trkpt>
      <trkpt lat="41.798700" lon="-8.134183">
        <ele>677.0</ele>
        <time>2010-08-26T12:53:32Z</time>
      </trkpt>
      <trkpt lat="41.798683" lon="-8.134183">
        <ele>677.0</ele>
        <time>2010-08-26T12:53:33Z</time>
      </trkpt>
      <trkpt lat="41.798650" lon="-8.134200">
        <ele>677.0</ele>
        <time>2010-08-26T12:53:34Z</time>
      </trkpt>
      <trkpt lat="41.798633" lon="-8.134217">
        <ele>676.0</ele>
        <time>2010-08-26T12:53:35Z</time>
      </trkpt>
      <trkpt lat="41.798600" lon="-8.134233">
        <ele>676.0</ele>
        <time>2010-08-26T12:53:36Z</time>
      </trkpt>
      <trkpt lat="41.798583" lon="-8.134267">
        <ele>676.0</ele>
        <time>2010-08-26T12:53:38Z</time>
      </trkpt>
      <trkpt lat="41.798567" lon="-8.134283">
        <ele>676.0</ele>
        <time>2010-08-26T12:53:39Z</time>
      </trkpt>
      <trkpt lat="41.798533" lon="-8.134300">
        <ele>676.0</ele>
        <time>2010-08-26T12:53:40Z</time>
      </trkpt>
      <trkpt lat="41.798517" lon="-8.134300">
        <ele>676.0</ele>
        <time>2010-08-26T12:53:41Z</time>
      </trkpt>
      <trkpt lat="41.798483" lon="-8.134317">
        <ele>676.0</ele>
        <time>2010-08-26T12:53:42Z</time>
      </trkpt>
      <trkpt lat="41.798450" lon="-8.134317">
        <ele>676.0</ele>
        <time>2010-08-26T12:53:44Z</time>
      </trkpt>
      <trkpt lat="41.798400" lon="-8.134333">
        <ele>676.0</ele>
        <time>2010-08-26T12:53:46Z</time>
      </trkpt>
      <trkpt lat="41.798383" lon="-8.134350">
        <ele>677.0</ele>
        <time>2010-08-26T12:53:47Z</time>
      </trkpt>
      <trkpt lat="41.798350" lon="-8.134367">
        <ele>677.0</ele>
        <time>2010-08-26T12:53:48Z</time>
      </trkpt>
      <trkpt lat="41.798317" lon="-8.134367">
        <ele>678.0</ele>
        <time>2010-08-26T12:53:49Z</time>
      </trkpt>
      <trkpt lat="41.798283" lon="-8.134383">
        <ele>678.0</ele>
        <time>2010-08-26T12:53:50Z</time>
      </trkpt>
      <trkpt lat="41.798267" lon="-8.134383">
        <ele>678.0</ele>
        <time>2010-08-26T12:53:51Z</time>
      </trkpt>
      <trkpt lat="41.798233" lon="-8.134400">
        <ele>679.0</ele>
        <time>2010-08-26T12:53:52Z</time>
      </trkpt>
      <trkpt lat="41.798200" lon="-8.134400">
        <ele>679.0</ele>
        <time>2010-08-26T12:53:53Z</time>
      </trkpt>
      <trkpt lat="41.798183" lon="-8.134417">
        <ele>679.0</ele>
        <time>2010-08-26T12:53:54Z</time>
      </trkpt>
      <trkpt lat="41.798150" lon="-8.134417">
        <ele>679.0</ele>
        <time>2010-08-26T12:53:55Z</time>
      </trkpt>
      <trkpt lat="41.798133" lon="-8.134417">
        <ele>680.0</ele>
        <time>2010-08-26T12:53:56Z</time>
      </trkpt>
      <trkpt lat="41.798100" lon="-8.134417">
        <ele>680.0</ele>
        <time>2010-08-26T12:53:57Z</time>
      </trkpt>
      <trkpt lat="41.798083" lon="-8.134417">
        <ele>680.0</ele>
        <time>2010-08-26T12:53:58Z</time>
      </trkpt>
      <trkpt lat="41.798033" lon="-8.134417">
        <ele>680.0</ele>
        <time>2010-08-26T12:54:00Z</time>
      </trkpt>
      <trkpt lat="41.798000" lon="-8.134450">
        <ele>681.0</ele>
        <time>2010-08-26T12:54:02Z</time>
      </trkpt>
      <trkpt lat="41.798000" lon="-8.134467">
        <ele>681.0</ele>
        <time>2010-08-26T12:54:03Z</time>
      </trkpt>
      <trkpt lat="41.797967" lon="-8.134500">
        <ele>681.0</ele>
        <time>2010-08-26T12:54:04Z</time>
      </trkpt>
      <trkpt lat="41.797950" lon="-8.134533">
        <ele>682.0</ele>
        <time>2010-08-26T12:54:05Z</time>
      </trkpt>
      <trkpt lat="41.797900" lon="-8.134533">
        <ele>681.0</ele>
        <time>2010-08-26T12:54:06Z</time>
      </trkpt>
      <trkpt lat="41.797867" lon="-8.134533">
        <ele>681.0</ele>
        <time>2010-08-26T12:54:07Z</time>
      </trkpt>
      <trkpt lat="41.797850" lon="-8.134533">
        <ele>681.0</ele>
        <time>2010-08-26T12:54:08Z</time>
      </trkpt>
      <trkpt lat="41.797817" lon="-8.134500">
        <ele>681.0</ele>
        <time>2010-08-26T12:54:10Z</time>
      </trkpt>
      <trkpt lat="41.797783" lon="-8.134467">
        <ele>681.0</ele>
        <time>2010-08-26T12:54:12Z</time>
      </trkpt>
      <trkpt lat="41.797733" lon="-8.134450">
        <ele>680.0</ele>
        <time>2010-08-26T12:54:18Z</time>
      </trkpt>
      <trkpt lat="41.797700" lon="-8.134467">
        <ele>679.0</ele>
        <time>2010-08-26T12:54:20Z</time>
      </trkpt>
      <trkpt lat="41.797667" lon="-8.134483">
        <ele>679.0</ele>
        <time>2010-08-26T12:54:21Z</time>
      </trkpt>
      <trkpt lat="41.797633" lon="-8.134483">
        <ele>679.0</ele>
        <time>2010-08-26T12:54:22Z</time>
      </trkpt>
      <trkpt lat="41.797617" lon="-8.134500">
        <ele>679.0</ele>
        <time>2010-08-26T12:54:23Z</time>
      </trkpt>
      <trkpt lat="41.797583" lon="-8.134500">
        <ele>679.0</ele>
        <time>2010-08-26T12:54:24Z</time>
      </trkpt>
      <trkpt lat="41.797567" lon="-8.134517">
        <ele>679.0</ele>
        <time>2010-08-26T12:54:25Z</time>
      </trkpt>
      <trkpt lat="41.797550" lon="-8.134533">
        <ele>679.0</ele>
        <time>2010-08-26T12:54:26Z</time>
      </trkpt>
      <trkpt lat="41.797533" lon="-8.134550">
        <ele>679.0</ele>
        <time>2010-08-26T12:54:27Z</time>
      </trkpt>
      <trkpt lat="41.797500" lon="-8.134567">
        <ele>678.0</ele>
        <time>2010-08-26T12:54:28Z</time>
      </trkpt>
      <trkpt lat="41.797450" lon="-8.134583">
        <ele>678.0</ele>
        <time>2010-08-26T12:54:29Z</time>
      </trkpt>
      <trkpt lat="41.797400" lon="-8.134600">
        <ele>678.0</ele>
        <time>2010-08-26T12:54:30Z</time>
      </trkpt>
      <trkpt lat="41.797367" lon="-8.134600">
        <ele>678.0</ele>
        <time>2010-08-26T12:54:31Z</time>
      </trkpt>
      <trkpt lat="41.797317" lon="-8.134617">
        <ele>678.0</ele>
        <time>2010-08-26T12:54:32Z</time>
      </trkpt>
      <trkpt lat="41.797283" lon="-8.134633">
        <ele>678.0</ele>
        <time>2010-08-26T12:54:33Z</time>
      </trkpt>
      <trkpt lat="41.797233" lon="-8.134650">
        <ele>678.0</ele>
        <time>2010-08-26T12:54:34Z</time>
      </trkpt>
      <trkpt lat="41.797200" lon="-8.134667">
        <ele>678.0</ele>
        <time>2010-08-26T12:54:35Z</time>
      </trkpt>
      <trkpt lat="41.797167" lon="-8.134683">
        <ele>678.0</ele>
        <time>2010-08-26T12:54:36Z</time>
      </trkpt>
      <trkpt lat="41.797133" lon="-8.134683">
        <ele>678.0</ele>
        <time>2010-08-26T12:54:37Z</time>
      </trkpt>
      <trkpt lat="41.797100" lon="-8.134700">
        <ele>678.0</ele>
        <time>2010-08-26T12:54:38Z</time>
      </trkpt>
      <trkpt lat="41.797067" lon="-8.134700">
        <ele>678.0</ele>
        <time>2010-08-26T12:54:39Z</time>
      </trkpt>
      <trkpt lat="41.797033" lon="-8.134700">
        <ele>678.0</ele>
        <time>2010-08-26T12:54:40Z</time>
      </trkpt>
      <trkpt lat="41.797000" lon="-8.134700">
        <ele>678.0</ele>
        <time>2010-08-26T12:54:41Z</time>
      </trkpt>
      <trkpt lat="41.796967" lon="-8.134717">
        <ele>678.0</ele>
        <time>2010-08-26T12:54:42Z</time>
      </trkpt>
      <trkpt lat="41.796933" lon="-8.134717">
        <ele>678.0</ele>
        <time>2010-08-26T12:54:43Z</time>
      </trkpt>
      <trkpt lat="41.796900" lon="-8.134733">
        <ele>678.0</ele>
        <time>2010-08-26T12:54:44Z</time>
      </trkpt>
      <trkpt lat="41.796867" lon="-8.134733">
        <ele>678.0</ele>
        <time>2010-08-26T12:54:45Z</time>
      </trkpt>
      <trkpt lat="41.796833" lon="-8.134767">
        <ele>678.0</ele>
        <time>2010-08-26T12:54:46Z</time>
      </trkpt>
      <trkpt lat="41.796800" lon="-8.134783">
        <ele>678.0</ele>
        <time>2010-08-26T12:54:47Z</time>
      </trkpt>
      <trkpt lat="41.796783" lon="-8.134817">
        <ele>678.0</ele>
        <time>2010-08-26T12:54:48Z</time>
      </trkpt>
      <trkpt lat="41.796733" lon="-8.134833">
        <ele>678.0</ele>
        <time>2010-08-26T12:54:49Z</time>
      </trkpt>
      <trkpt lat="41.796700" lon="-8.134850">
        <ele>678.0</ele>
        <time>2010-08-26T12:54:50Z</time>
      </trkpt>
      <trkpt lat="41.796667" lon="-8.134867">
        <ele>678.0</ele>
        <time>2010-08-26T12:54:51Z</time>
      </trkpt>
      <trkpt lat="41.796633" lon="-8.134883">
        <ele>678.0</ele>
        <time>2010-08-26T12:54:52Z</time>
      </trkpt>
      <trkpt lat="41.796600" lon="-8.134900">
        <ele>678.0</ele>
        <time>2010-08-26T12:54:53Z</time>
      </trkpt>
      <trkpt lat="41.796567" lon="-8.134917">
        <ele>678.0</ele>
        <time>2010-08-26T12:54:54Z</time>
      </trkpt>
      <trkpt lat="41.796533" lon="-8.134933">
        <ele>678.0</ele>
        <time>2010-08-26T12:54:55Z</time>
      </trkpt>
      <trkpt lat="41.796500" lon="-8.134967">
        <ele>678.0</ele>
        <time>2010-08-26T12:54:56Z</time>
      </trkpt>
      <trkpt lat="41.796467" lon="-8.134983">
        <ele>679.0</ele>
        <time>2010-08-26T12:54:57Z</time>
      </trkpt>
      <trkpt lat="41.796450" lon="-8.135017">
        <ele>679.0</ele>
        <time>2010-08-26T12:54:58Z</time>
      </trkpt>
      <trkpt lat="41.796417" lon="-8.135033">
        <ele>679.0</ele>
        <time>2010-08-26T12:54:59Z</time>
      </trkpt>
      <trkpt lat="41.796367" lon="-8.135067">
        <ele>679.0</ele>
        <time>2010-08-26T12:55:00Z</time>
      </trkpt>
      <trkpt lat="41.796333" lon="-8.135083">
        <ele>679.0</ele>
        <time>2010-08-26T12:55:01Z</time>
      </trkpt>
      <trkpt lat="41.796300" lon="-8.135117">
        <ele>679.0</ele>
        <time>2010-08-26T12:55:02Z</time>
      </trkpt>
      <trkpt lat="41.796283" lon="-8.135133">
        <ele>679.0</ele>
        <time>2010-08-26T12:55:03Z</time>
      </trkpt>
      <trkpt lat="41.796250" lon="-8.135150">
        <ele>679.0</ele>
        <time>2010-08-26T12:55:04Z</time>
      </trkpt>
      <trkpt lat="41.796217" lon="-8.135183">
        <ele>679.0</ele>
        <time>2010-08-26T12:55:05Z</time>
      </trkpt>
      <trkpt lat="41.796183" lon="-8.135200">
        <ele>678.0</ele>
        <time>2010-08-26T12:55:06Z</time>
      </trkpt>
      <trkpt lat="41.796167" lon="-8.135217">
        <ele>678.0</ele>
        <time>2010-08-26T12:55:07Z</time>
      </trkpt>
      <trkpt lat="41.796133" lon="-8.135250">
        <ele>677.0</ele>
        <time>2010-08-26T12:55:08Z</time>
      </trkpt>
      <trkpt lat="41.796117" lon="-8.135267">
        <ele>677.0</ele>
        <time>2010-08-26T12:55:09Z</time>
      </trkpt>
      <trkpt lat="41.796083" lon="-8.135283">
        <ele>676.0</ele>
        <time>2010-08-26T12:55:11Z</time>
      </trkpt>
      <trkpt lat="41.796050" lon="-8.135317">
        <ele>677.0</ele>
        <time>2010-08-26T12:55:28Z</time>
      </trkpt>
      <trkpt lat="41.796000" lon="-8.135300">
        <ele>678.0</ele>
        <time>2010-08-26T12:55:36Z</time>
      </trkpt>
      <trkpt lat="41.795967" lon="-8.135300">
        <ele>681.0</ele>
        <time>2010-08-26T12:55:54Z</time>
      </trkpt>
      <trkpt lat="41.795933" lon="-8.135283">
        <ele>682.0</ele>
        <time>2010-08-26T12:55:57Z</time>
      </trkpt>
      <trkpt lat="41.795900" lon="-8.135267">
        <ele>683.0</ele>
        <time>2010-08-26T12:55:59Z</time>
      </trkpt>
      <trkpt lat="41.795867" lon="-8.135250">
        <ele>684.0</ele>
        <time>2010-08-26T12:56:02Z</time>
      </trkpt>
      <trkpt lat="41.795833" lon="-8.135250">
        <ele>684.0</ele>
        <time>2010-08-26T12:56:04Z</time>
      </trkpt>
      <trkpt lat="41.795800" lon="-8.135233">
        <ele>685.0</ele>
        <time>2010-08-26T12:56:06Z</time>
      </trkpt>
      <trkpt lat="41.795783" lon="-8.135217">
        <ele>685.0</ele>
        <time>2010-08-26T12:56:07Z</time>
      </trkpt>
      <trkpt lat="41.795733" lon="-8.135200">
        <ele>685.0</ele>
        <time>2010-08-26T12:56:09Z</time>
      </trkpt>
      <trkpt lat="41.795750" lon="-8.135250">
        <ele>682.0</ele>
        <time>2010-08-26T12:56:29Z</time>
      </trkpt>
      <trkpt lat="41.795733" lon="-8.135267">
        <ele>682.0</ele>
        <time>2010-08-26T12:56:30Z</time>
      </trkpt>
      <trkpt lat="41.795700" lon="-8.135283">
        <ele>682.0</ele>
        <time>2010-08-26T12:56:31Z</time>
      </trkpt>
      <trkpt lat="41.795667" lon="-8.135283">
        <ele>682.0</ele>
        <time>2010-08-26T12:56:32Z</time>
      </trkpt>
      <trkpt lat="41.795633" lon="-8.135283">
        <ele>682.0</ele>
        <time>2010-08-26T12:56:33Z</time>
      </trkpt>
      <trkpt lat="41.795583" lon="-8.135283">
        <ele>681.0</ele>
        <time>2010-08-26T12:56:34Z</time>
      </trkpt>
      <trkpt lat="41.795550" lon="-8.135283">
        <ele>681.0</ele>
        <time>2010-08-26T12:56:35Z</time>
      </trkpt>
      <trkpt lat="41.795517" lon="-8.135300">
        <ele>681.0</ele>
        <time>2010-08-26T12:56:36Z</time>
      </trkpt>
      <trkpt lat="41.795483" lon="-8.135317">
        <ele>680.0</ele>
        <time>2010-08-26T12:56:37Z</time>
      </trkpt>
      <trkpt lat="41.795450" lon="-8.135333">
        <ele>680.0</ele>
        <time>2010-08-26T12:56:38Z</time>
      </trkpt>
      <trkpt lat="41.795417" lon="-8.135350">
        <ele>680.0</ele>
        <time>2010-08-26T12:56:39Z</time>
      </trkpt>
      <trkpt lat="41.795383" lon="-8.135367">
        <ele>680.0</ele>
        <time>2010-08-26T12:56:40Z</time>
      </trkpt>
      <trkpt lat="41.795350" lon="-8.135383">
        <ele>680.0</ele>
        <time>2010-08-26T12:56:41Z</time>
      </trkpt>
      <trkpt lat="41.795333" lon="-8.135383">
        <ele>680.0</ele>
        <time>2010-08-26T12:56:42Z</time>
      </trkpt>
      <trkpt lat="41.795317" lon="-8.135400">
        <ele>679.0</ele>
        <time>2010-08-26T12:56:43Z</time>
      </trkpt>
      <trkpt lat="41.795300" lon="-8.135433">
        <ele>679.0</ele>
        <time>2010-08-26T12:56:44Z</time>
      </trkpt>
      <trkpt lat="41.795283" lon="-8.135450">
        <ele>679.0</ele>
        <time>2010-08-26T12:56:45Z</time>
      </trkpt>
      <trkpt lat="41.795250" lon="-8.135467">
        <ele>679.0</ele>
        <time>2010-08-26T12:56:46Z</time>
      </trkpt>
      <trkpt lat="41.795217" lon="-8.135483">
        <ele>678.0</ele>
        <time>2010-08-26T12:56:47Z</time>
      </trkpt>
      <trkpt lat="41.795200" lon="-8.135500">
        <ele>678.0</ele>
        <time>2010-08-26T12:56:49Z</time>
      </trkpt>
      <trkpt lat="41.795167" lon="-8.135500">
        <ele>677.0</ele>
        <time>2010-08-26T12:56:51Z</time>
      </trkpt>
      <trkpt lat="41.795133" lon="-8.135517">
        <ele>677.0</ele>
        <time>2010-08-26T12:56:53Z</time>
      </trkpt>
      <trkpt lat="41.795100" lon="-8.135550">
        <ele>677.0</ele>
        <time>2010-08-26T12:56:55Z</time>
      </trkpt>
      <trkpt lat="41.795083" lon="-8.135567">
        <ele>677.0</ele>
        <time>2010-08-26T12:56:56Z</time>
      </trkpt>
      <trkpt lat="41.795067" lon="-8.135583">
        <ele>677.0</ele>
        <time>2010-08-26T12:56:57Z</time>
      </trkpt>
      <trkpt lat="41.795033" lon="-8.135600">
        <ele>677.0</ele>
        <time>2010-08-26T12:56:58Z</time>
      </trkpt>
      <trkpt lat="41.795017" lon="-8.135617">
        <ele>676.0</ele>
        <time>2010-08-26T12:56:59Z</time>
      </trkpt>
      <trkpt lat="41.794983" lon="-8.135633">
        <ele>676.0</ele>
        <time>2010-08-26T12:57:00Z</time>
      </trkpt>
      <trkpt lat="41.794967" lon="-8.135650">
        <ele>676.0</ele>
        <time>2010-08-26T12:57:01Z</time>
      </trkpt>
      <trkpt lat="41.794933" lon="-8.135667">
        <ele>676.0</ele>
        <time>2010-08-26T12:57:02Z</time>
      </trkpt>
      <trkpt lat="41.794917" lon="-8.135683">
        <ele>676.0</ele>
        <time>2010-08-26T12:57:03Z</time>
      </trkpt>
      <trkpt lat="41.794883" lon="-8.135700">
        <ele>676.0</ele>
        <time>2010-08-26T12:57:04Z</time>
      </trkpt>
      <trkpt lat="41.794867" lon="-8.135717">
        <ele>675.0</ele>
        <time>2010-08-26T12:57:05Z</time>
      </trkpt>
      <trkpt lat="41.794833" lon="-8.135733">
        <ele>675.0</ele>
        <time>2010-08-26T12:57:06Z</time>
      </trkpt>
      <trkpt lat="41.794817" lon="-8.135733">
        <ele>675.0</ele>
        <time>2010-08-26T12:57:07Z</time>
      </trkpt>
      <trkpt lat="41.794783" lon="-8.135750">
        <ele>675.0</ele>
        <time>2010-08-26T12:57:08Z</time>
      </trkpt>
      <trkpt lat="41.794767" lon="-8.135767">
        <ele>675.0</ele>
        <time>2010-08-26T12:57:09Z</time>
      </trkpt>
      <trkpt lat="41.794733" lon="-8.135800">
        <ele>675.0</ele>
        <time>2010-08-26T12:57:10Z</time>
      </trkpt>
      <trkpt lat="41.794717" lon="-8.135817">
        <ele>675.0</ele>
        <time>2010-08-26T12:57:11Z</time>
      </trkpt>
      <trkpt lat="41.794700" lon="-8.135833">
        <ele>674.0</ele>
        <time>2010-08-26T12:57:12Z</time>
      </trkpt>
      <trkpt lat="41.794667" lon="-8.135867">
        <ele>674.0</ele>
        <time>2010-08-26T12:57:14Z</time>
      </trkpt>
      <trkpt lat="41.794633" lon="-8.135917">
        <ele>674.0</ele>
        <time>2010-08-26T12:57:16Z</time>
      </trkpt>
      <trkpt lat="41.794617" lon="-8.135967">
        <ele>675.0</ele>
        <time>2010-08-26T12:57:18Z</time>
      </trkpt>
      <trkpt lat="41.794600" lon="-8.135983">
        <ele>675.0</ele>
        <time>2010-08-26T12:57:19Z</time>
      </trkpt>
      <trkpt lat="41.794583" lon="-8.136050">
        <ele>675.0</ele>
        <time>2010-08-26T12:57:21Z</time>
      </trkpt>
      <trkpt lat="41.794583" lon="-8.136083">
        <ele>676.0</ele>
        <time>2010-08-26T12:57:23Z</time>
      </trkpt>
      <trkpt lat="41.794550" lon="-8.136133">
        <ele>676.0</ele>
        <time>2010-08-26T12:57:26Z</time>
      </trkpt>
      <trkpt lat="41.794533" lon="-8.136167">
        <ele>677.0</ele>
        <time>2010-08-26T12:57:29Z</time>
      </trkpt>
      <trkpt lat="41.794500" lon="-8.136217">
        <ele>677.0</ele>
        <time>2010-08-26T12:57:31Z</time>
      </trkpt>
      <trkpt lat="41.794483" lon="-8.136250">
        <ele>678.0</ele>
        <time>2010-08-26T12:57:33Z</time>
      </trkpt>
      <trkpt lat="41.794467" lon="-8.136300">
        <ele>679.0</ele>
        <time>2010-08-26T12:57:35Z</time>
      </trkpt>
      <trkpt lat="41.794467" lon="-8.136350">
        <ele>679.0</ele>
        <time>2010-08-26T12:57:37Z</time>
      </trkpt>
      <trkpt lat="41.794467" lon="-8.136383">
        <ele>678.0</ele>
        <time>2010-08-26T12:57:38Z</time>
      </trkpt>
      <trkpt lat="41.794450" lon="-8.136417">
        <ele>678.0</ele>
        <time>2010-08-26T12:57:39Z</time>
      </trkpt>
      <trkpt lat="41.794467" lon="-8.136450">
        <ele>678.0</ele>
        <time>2010-08-26T12:57:40Z</time>
      </trkpt>
      <trkpt lat="41.794450" lon="-8.136500">
        <ele>678.0</ele>
        <time>2010-08-26T12:57:42Z</time>
      </trkpt>
      <trkpt lat="41.794450" lon="-8.136550">
        <ele>679.0</ele>
        <time>2010-08-26T12:57:44Z</time>
      </trkpt>
      <trkpt lat="41.794467" lon="-8.136583">
        <ele>680.0</ele>
        <time>2010-08-26T12:57:45Z</time>
      </trkpt>
      <trkpt lat="41.794467" lon="-8.136617">
        <ele>680.0</ele>
        <time>2010-08-26T12:57:46Z</time>
      </trkpt>
      <trkpt lat="41.794467" lon="-8.136650">
        <ele>680.0</ele>
        <time>2010-08-26T12:57:47Z</time>
      </trkpt>
      <trkpt lat="41.794467" lon="-8.136683">
        <ele>680.0</ele>
        <time>2010-08-26T12:57:48Z</time>
      </trkpt>
      <trkpt lat="41.794467" lon="-8.136733">
        <ele>681.0</ele>
        <time>2010-08-26T12:57:50Z</time>
      </trkpt>
      <trkpt lat="41.794467" lon="-8.136767">
        <ele>681.0</ele>
        <time>2010-08-26T12:57:51Z</time>
      </trkpt>
      <trkpt lat="41.794467" lon="-8.136800">
        <ele>682.0</ele>
        <time>2010-08-26T12:57:52Z</time>
      </trkpt>
      <trkpt lat="41.794467" lon="-8.136833">
        <ele>682.0</ele>
        <time>2010-08-26T12:57:53Z</time>
      </trkpt>
      <trkpt lat="41.794450" lon="-8.136867">
        <ele>682.0</ele>
        <time>2010-08-26T12:57:54Z</time>
      </trkpt>
      <trkpt lat="41.794433" lon="-8.136900">
        <ele>683.0</ele>
        <time>2010-08-26T12:57:55Z</time>
      </trkpt>
      <trkpt lat="41.794433" lon="-8.136933">
        <ele>683.0</ele>
        <time>2010-08-26T12:57:56Z</time>
      </trkpt>
      <trkpt lat="41.794450" lon="-8.136983">
        <ele>684.0</ele>
        <time>2010-08-26T12:57:58Z</time>
      </trkpt>
      <trkpt lat="41.794450" lon="-8.137017">
        <ele>684.0</ele>
        <time>2010-08-26T12:57:59Z</time>
      </trkpt>
      <trkpt lat="41.794467" lon="-8.137050">
        <ele>685.0</ele>
        <time>2010-08-26T12:58:00Z</time>
      </trkpt>
      <trkpt lat="41.794483" lon="-8.137083">
        <ele>685.0</ele>
        <time>2010-08-26T12:58:01Z</time>
      </trkpt>
      <trkpt lat="41.794500" lon="-8.137117">
        <ele>685.0</ele>
        <time>2010-08-26T12:58:02Z</time>
      </trkpt>
      <trkpt lat="41.794500" lon="-8.137150">
        <ele>684.0</ele>
        <time>2010-08-26T12:58:03Z</time>
      </trkpt>
      <trkpt lat="41.794500" lon="-8.137183">
        <ele>684.0</ele>
        <time>2010-08-26T12:58:04Z</time>
      </trkpt>
      <trkpt lat="41.794500" lon="-8.137233">
        <ele>684.0</ele>
        <time>2010-08-26T12:58:05Z</time>
      </trkpt>
      <trkpt lat="41.794500" lon="-8.137267">
        <ele>684.0</ele>
        <time>2010-08-26T12:58:06Z</time>
      </trkpt>
      <trkpt lat="41.794483" lon="-8.137317">
        <ele>684.0</ele>
        <time>2010-08-26T12:58:07Z</time>
      </trkpt>
      <trkpt lat="41.794483" lon="-8.137350">
        <ele>684.0</ele>
        <time>2010-08-26T12:58:08Z</time>
      </trkpt>
      <trkpt lat="41.794467" lon="-8.137400">
        <ele>684.0</ele>
        <time>2010-08-26T12:58:09Z</time>
      </trkpt>
      <trkpt lat="41.794467" lon="-8.137433">
        <ele>684.0</ele>
        <time>2010-08-26T12:58:10Z</time>
      </trkpt>
      <trkpt lat="41.794450" lon="-8.137483">
        <ele>683.0</ele>
        <time>2010-08-26T12:58:11Z</time>
      </trkpt>
      <trkpt lat="41.794450" lon="-8.137517">
        <ele>683.0</ele>
        <time>2010-08-26T12:58:12Z</time>
      </trkpt>
      <trkpt lat="41.794433" lon="-8.137550">
        <ele>683.0</ele>
        <time>2010-08-26T12:58:13Z</time>
      </trkpt>
      <trkpt lat="41.794417" lon="-8.137600">
        <ele>683.0</ele>
        <time>2010-08-26T12:58:14Z</time>
      </trkpt>
      <trkpt lat="41.794383" lon="-8.137633">
        <ele>682.0</ele>
        <time>2010-08-26T12:58:15Z</time>
      </trkpt>
      <trkpt lat="41.794367" lon="-8.137667">
        <ele>682.0</ele>
        <time>2010-08-26T12:58:16Z</time>
      </trkpt>
      <trkpt lat="41.794367" lon="-8.137700">
        <ele>682.0</ele>
        <time>2010-08-26T12:58:17Z</time>
      </trkpt>
      <trkpt lat="41.794350" lon="-8.137733">
        <ele>681.0</ele>
        <time>2010-08-26T12:58:18Z</time>
      </trkpt>
      <trkpt lat="41.794350" lon="-8.137767">
        <ele>681.0</ele>
        <time>2010-08-26T12:58:19Z</time>
      </trkpt>
      <trkpt lat="41.794333" lon="-8.137800">
        <ele>681.0</ele>
        <time>2010-08-26T12:58:20Z</time>
      </trkpt>
      <trkpt lat="41.794317" lon="-8.137833">
        <ele>680.0</ele>
        <time>2010-08-26T12:58:21Z</time>
      </trkpt>
      <trkpt lat="41.794300" lon="-8.137867">
        <ele>680.0</ele>
        <time>2010-08-26T12:58:22Z</time>
      </trkpt>
      <trkpt lat="41.794283" lon="-8.137900">
        <ele>680.0</ele>
        <time>2010-08-26T12:58:23Z</time>
      </trkpt>
      <trkpt lat="41.794267" lon="-8.137933">
        <ele>680.0</ele>
        <time>2010-08-26T12:58:24Z</time>
      </trkpt>
      <trkpt lat="41.794250" lon="-8.138000">
        <ele>679.0</ele>
        <time>2010-08-26T12:58:26Z</time>
      </trkpt>
      <trkpt lat="41.794233" lon="-8.138017">
        <ele>679.0</ele>
        <time>2010-08-26T12:58:27Z</time>
      </trkpt>
      <trkpt lat="41.794217" lon="-8.138050">
        <ele>679.0</ele>
        <time>2010-08-26T12:58:28Z</time>
      </trkpt>
      <trkpt lat="41.794200" lon="-8.138100">
        <ele>679.0</ele>
        <time>2010-08-26T12:58:30Z</time>
      </trkpt>
      <trkpt lat="41.794183" lon="-8.138133">
        <ele>679.0</ele>
        <time>2010-08-26T12:58:32Z</time>
      </trkpt>
      <trkpt lat="41.794167" lon="-8.138167">
        <ele>679.0</ele>
        <time>2010-08-26T12:58:34Z</time>
      </trkpt>
      <trkpt lat="41.794150" lon="-8.138217">
        <ele>680.0</ele>
        <time>2010-08-26T12:58:36Z</time>
      </trkpt>
      <trkpt lat="41.794133" lon="-8.138267">
        <ele>680.0</ele>
        <time>2010-08-26T12:58:38Z</time>
      </trkpt>
      <trkpt lat="41.794133" lon="-8.138300">
        <ele>680.0</ele>
        <time>2010-08-26T12:58:39Z</time>
      </trkpt>
      <trkpt lat="41.794117" lon="-8.138333">
        <ele>681.0</ele>
        <time>2010-08-26T12:58:40Z</time>
      </trkpt>
      <trkpt lat="41.794100" lon="-8.138350">
        <ele>681.0</ele>
        <time>2010-08-26T12:58:41Z</time>
      </trkpt>
      <trkpt lat="41.794083" lon="-8.138367">
        <ele>681.0</ele>
        <time>2010-08-26T12:58:42Z</time>
      </trkpt>
      <trkpt lat="41.794050" lon="-8.138383">
        <ele>681.0</ele>
        <time>2010-08-26T12:58:43Z</time>
      </trkpt>
      <trkpt lat="41.794033" lon="-8.138417">
        <ele>681.0</ele>
        <time>2010-08-26T12:58:44Z</time>
      </trkpt>
      <trkpt lat="41.794000" lon="-8.138417">
        <ele>681.0</ele>
        <time>2010-08-26T12:58:45Z</time>
      </trkpt>
      <trkpt lat="41.793967" lon="-8.138433">
        <ele>681.0</ele>
        <time>2010-08-26T12:58:48Z</time>
      </trkpt>
      <trkpt lat="41.793933" lon="-8.138467">
        <ele>679.0</ele>
        <time>2010-08-26T12:58:51Z</time>
      </trkpt>
      <trkpt lat="41.793883" lon="-8.138467">
        <ele>678.0</ele>
        <time>2010-08-26T12:58:54Z</time>
      </trkpt>
      <trkpt lat="41.793850" lon="-8.138483">
        <ele>678.0</ele>
        <time>2010-08-26T12:58:57Z</time>
      </trkpt>
      <trkpt lat="41.793817" lon="-8.138483">
        <ele>677.0</ele>
        <time>2010-08-26T12:59:00Z</time>
      </trkpt>
      <trkpt lat="41.793767" lon="-8.138483">
        <ele>677.0</ele>
        <time>2010-08-26T12:59:04Z</time>
      </trkpt>
      <trkpt lat="41.793733" lon="-8.138467">
        <ele>677.0</ele>
        <time>2010-08-26T12:59:06Z</time>
      </trkpt>
      <trkpt lat="41.793700" lon="-8.138450">
        <ele>676.0</ele>
        <time>2010-08-26T12:59:08Z</time>
      </trkpt>
      <trkpt lat="41.793683" lon="-8.138433">
        <ele>676.0</ele>
        <time>2010-08-26T12:59:09Z</time>
      </trkpt>
      <trkpt lat="41.793650" lon="-8.138433">
        <ele>676.0</ele>
        <time>2010-08-26T12:59:10Z</time>
      </trkpt>
      <trkpt lat="41.793633" lon="-8.138417">
        <ele>676.0</ele>
        <time>2010-08-26T12:59:11Z</time>
      </trkpt>
      <trkpt lat="41.793600" lon="-8.138383">
        <ele>675.0</ele>
        <time>2010-08-26T12:59:12Z</time>
      </trkpt>
      <trkpt lat="41.793583" lon="-8.138367">
        <ele>675.0</ele>
        <time>2010-08-26T12:59:13Z</time>
      </trkpt>
      <trkpt lat="41.793550" lon="-8.138367">
        <ele>675.0</ele>
        <time>2010-08-26T12:59:14Z</time>
      </trkpt>
      <trkpt lat="41.793517" lon="-8.138350">
        <ele>674.0</ele>
        <time>2010-08-26T12:59:15Z</time>
      </trkpt>
      <trkpt lat="41.793500" lon="-8.138333">
        <ele>674.0</ele>
        <time>2010-08-26T12:59:16Z</time>
      </trkpt>
      <trkpt lat="41.793467" lon="-8.138300">
        <ele>673.0</ele>
        <time>2010-08-26T12:59:17Z</time>
      </trkpt>
      <trkpt lat="41.793450" lon="-8.138283">
        <ele>673.0</ele>
        <time>2010-08-26T12:59:18Z</time>
      </trkpt>
      <trkpt lat="41.793433" lon="-8.138250">
        <ele>673.0</ele>
        <time>2010-08-26T12:59:19Z</time>
      </trkpt>
      <trkpt lat="41.793417" lon="-8.138217">
        <ele>672.0</ele>
        <time>2010-08-26T12:59:20Z</time>
      </trkpt>
      <trkpt lat="41.793400" lon="-8.138183">
        <ele>672.0</ele>
        <time>2010-08-26T12:59:21Z</time>
      </trkpt>
      <trkpt lat="41.793383" lon="-8.138133">
        <ele>672.0</ele>
        <time>2010-08-26T12:59:23Z</time>
      </trkpt>
      <trkpt lat="41.793367" lon="-8.138083">
        <ele>671.0</ele>
        <time>2010-08-26T12:59:25Z</time>
      </trkpt>
      <trkpt lat="41.793367" lon="-8.138067">
        <ele>671.0</ele>
        <time>2010-08-26T12:59:26Z</time>
      </trkpt>
      <trkpt lat="41.793350" lon="-8.138033">
        <ele>671.0</ele>
        <time>2010-08-26T12:59:27Z</time>
      </trkpt>
      <trkpt lat="41.793317" lon="-8.138017">
        <ele>670.0</ele>
        <time>2010-08-26T12:59:28Z</time>
      </trkpt>
      <trkpt lat="41.793283" lon="-8.138000">
        <ele>670.0</ele>
        <time>2010-08-26T12:59:29Z</time>
      </trkpt>
      <trkpt lat="41.793250" lon="-8.137983">
        <ele>669.0</ele>
        <time>2010-08-26T12:59:30Z</time>
      </trkpt>
      <trkpt lat="41.793217" lon="-8.137967">
        <ele>669.0</ele>
        <time>2010-08-26T12:59:31Z</time>
      </trkpt>
      <trkpt lat="41.793183" lon="-8.137950">
        <ele>669.0</ele>
        <time>2010-08-26T12:59:32Z</time>
      </trkpt>
      <trkpt lat="41.793150" lon="-8.137933">
        <ele>668.0</ele>
        <time>2010-08-26T12:59:33Z</time>
      </trkpt>
      <trkpt lat="41.793117" lon="-8.137900">
        <ele>668.0</ele>
        <time>2010-08-26T12:59:34Z</time>
      </trkpt>
      <trkpt lat="41.793100" lon="-8.137883">
        <ele>668.0</ele>
        <time>2010-08-26T12:59:35Z</time>
      </trkpt>
      <trkpt lat="41.793067" lon="-8.137850">
        <ele>668.0</ele>
        <time>2010-08-26T12:59:36Z</time>
      </trkpt>
      <trkpt lat="41.793050" lon="-8.137817">
        <ele>668.0</ele>
        <time>2010-08-26T12:59:37Z</time>
      </trkpt>
      <trkpt lat="41.793033" lon="-8.137783">
        <ele>668.0</ele>
        <time>2010-08-26T12:59:38Z</time>
      </trkpt>
      <trkpt lat="41.793017" lon="-8.137750">
        <ele>668.0</ele>
        <time>2010-08-26T12:59:39Z</time>
      </trkpt>
      <trkpt lat="41.793000" lon="-8.137717">
        <ele>668.0</ele>
        <time>2010-08-26T12:59:40Z</time>
      </trkpt>
      <trkpt lat="41.792983" lon="-8.137667">
        <ele>668.0</ele>
        <time>2010-08-26T12:59:41Z</time>
      </trkpt>
      <trkpt lat="41.792967" lon="-8.137617">
        <ele>668.0</ele>
        <time>2010-08-26T12:59:42Z</time>
      </trkpt>
      <trkpt lat="41.792933" lon="-8.137583">
        <ele>668.0</ele>
        <time>2010-08-26T12:59:43Z</time>
      </trkpt>
      <trkpt lat="41.792900" lon="-8.137567">
        <ele>668.0</ele>
        <time>2010-08-26T12:59:44Z</time>
      </trkpt>
      <trkpt lat="41.792883" lon="-8.137533">
        <ele>668.0</ele>
        <time>2010-08-26T12:59:45Z</time>
      </trkpt>
      <trkpt lat="41.792867" lon="-8.137517">
        <ele>667.0</ele>
        <time>2010-08-26T12:59:46Z</time>
      </trkpt>
      <trkpt lat="41.792817" lon="-8.137483">
        <ele>668.0</ele>
        <time>2010-08-26T12:59:52Z</time>
      </trkpt>
      <trkpt lat="41.792783" lon="-8.137500">
        <ele>670.0</ele>
        <time>2010-08-26T13:00:00Z</time>
      </trkpt>
      <trkpt lat="41.792750" lon="-8.137533">
        <ele>670.0</ele>
        <time>2010-08-26T13:00:02Z</time>
      </trkpt>
      <trkpt lat="41.792733" lon="-8.137567">
        <ele>670.0</ele>
        <time>2010-08-26T13:00:04Z</time>
      </trkpt>
      <trkpt lat="41.792717" lon="-8.137600">
        <ele>670.0</ele>
        <time>2010-08-26T13:00:05Z</time>
      </trkpt>
      <trkpt lat="41.792700" lon="-8.137650">
        <ele>670.0</ele>
        <time>2010-08-26T13:00:07Z</time>
      </trkpt>
      <trkpt lat="41.792667" lon="-8.137700">
        <ele>671.0</ele>
        <time>2010-08-26T13:00:11Z</time>
      </trkpt>
      <trkpt lat="41.792633" lon="-8.137700">
        <ele>674.0</ele>
        <time>2010-08-26T13:00:26Z</time>
      </trkpt>
      <trkpt lat="41.792583" lon="-8.137700">
        <ele>681.0</ele>
        <time>2010-08-26T13:00:33Z</time>
      </trkpt>
      <trkpt lat="41.792550" lon="-8.137717">
        <ele>687.0</ele>
        <time>2010-08-26T13:00:40Z</time>
      </trkpt>
      <trkpt lat="41.792583" lon="-8.137683">
        <ele>679.0</ele>
        <time>2010-08-26T13:01:09Z</time>
      </trkpt>
      <trkpt lat="41.792617" lon="-8.137667">
        <ele>672.0</ele>
        <time>2010-08-26T13:01:26Z</time>
      </trkpt>
      <trkpt lat="41.792667" lon="-8.137667">
        <ele>670.0</ele>
        <time>2010-08-26T13:01:45Z</time>
      </trkpt>
      <trkpt lat="41.792667" lon="-8.137717">
        <ele>676.0</ele>
        <time>2010-08-26T13:02:12Z</time>
      </trkpt>
      <trkpt lat="41.792667" lon="-8.137750">
        <ele>677.0</ele>
        <time>2010-08-26T13:02:13Z</time>
      </trkpt>
      <trkpt lat="41.792667" lon="-8.137783">
        <ele>678.0</ele>
        <time>2010-08-26T13:02:14Z</time>
      </trkpt>
      <trkpt lat="41.792667" lon="-8.137817">
        <ele>679.0</ele>
        <time>2010-08-26T13:02:15Z</time>
      </trkpt>
      <trkpt lat="41.792650" lon="-8.137867">
        <ele>680.0</ele>
        <time>2010-08-26T13:02:17Z</time>
      </trkpt>
      <trkpt lat="41.792667" lon="-8.137933">
        <ele>681.0</ele>
        <time>2010-08-26T13:02:19Z</time>
      </trkpt>
      <trkpt lat="41.792650" lon="-8.137983">
        <ele>681.0</ele>
        <time>2010-08-26T13:02:24Z</time>
      </trkpt>
      <trkpt lat="41.792633" lon="-8.138033">
        <ele>676.0</ele>
        <time>2010-08-26T13:02:45Z</time>
      </trkpt>
      <trkpt lat="41.792583" lon="-8.138050">
        <ele>677.0</ele>
        <time>2010-08-26T13:03:02Z</time>
      </trkpt>
      <trkpt lat="41.792550" lon="-8.138033">
        <ele>681.0</ele>
        <time>2010-08-26T13:03:21Z</time>
      </trkpt>
      <trkpt lat="41.792567" lon="-8.138083">
        <ele>678.0</ele>
        <time>2010-08-26T13:03:43Z</time>
      </trkpt>
      <trkpt lat="41.792583" lon="-8.138117">
        <ele>677.0</ele>
        <time>2010-08-26T13:03:45Z</time>
      </trkpt>
      <trkpt lat="41.792600" lon="-8.138150">
        <ele>675.0</ele>
        <time>2010-08-26T13:03:48Z</time>
      </trkpt>
      <trkpt lat="41.792633" lon="-8.138183">
        <ele>669.0</ele>
        <time>2010-08-26T13:04:07Z</time>
      </trkpt>
      <trkpt lat="41.792650" lon="-8.138233">
        <ele>666.0</ele>
        <time>2010-08-26T13:05:02Z</time>
      </trkpt>
      <trkpt lat="41.792667" lon="-8.138283">
        <ele>672.0</ele>
        <time>2010-08-26T13:05:37Z</time>
      </trkpt>
      <trkpt lat="41.792683" lon="-8.138317">
        <ele>672.0</ele>
        <time>2010-08-26T13:05:39Z</time>
      </trkpt>
      <trkpt lat="41.792700" lon="-8.138350">
        <ele>672.0</ele>
        <time>2010-08-26T13:05:40Z</time>
      </trkpt>
      <trkpt lat="41.792733" lon="-8.138367">
        <ele>672.0</ele>
        <time>2010-08-26T13:05:41Z</time>
      </trkpt>
      <trkpt lat="41.792750" lon="-8.138400">
        <ele>672.0</ele>
        <time>2010-08-26T13:05:42Z</time>
      </trkpt>
      <trkpt lat="41.792783" lon="-8.138433">
        <ele>672.0</ele>
        <time>2010-08-26T13:05:43Z</time>
      </trkpt>
      <trkpt lat="41.792800" lon="-8.138483">
        <ele>672.0</ele>
        <time>2010-08-26T13:05:44Z</time>
      </trkpt>
      <trkpt lat="41.792833" lon="-8.138517">
        <ele>672.0</ele>
        <time>2010-08-26T13:05:45Z</time>
      </trkpt>
      <trkpt lat="41.792867" lon="-8.138567">
        <ele>672.0</ele>
        <time>2010-08-26T13:05:46Z</time>
      </trkpt>
      <trkpt lat="41.792917" lon="-8.138600">
        <ele>672.0</ele>
        <time>2010-08-26T13:05:47Z</time>
      </trkpt>
      <trkpt lat="41.792950" lon="-8.138650">
        <ele>672.0</ele>
        <time>2010-08-26T13:05:48Z</time>
      </trkpt>
      <trkpt lat="41.793000" lon="-8.138700">
        <ele>672.0</ele>
        <time>2010-08-26T13:05:49Z</time>
      </trkpt>
      <trkpt lat="41.793033" lon="-8.138767">
        <ele>672.0</ele>
        <time>2010-08-26T13:05:50Z</time>
      </trkpt>
      <trkpt lat="41.793083" lon="-8.138817">
        <ele>672.0</ele>
        <time>2010-08-26T13:05:51Z</time>
      </trkpt>
      <trkpt lat="41.793117" lon="-8.138883">
        <ele>672.0</ele>
        <time>2010-08-26T13:05:52Z</time>
      </trkpt>
      <trkpt lat="41.793167" lon="-8.138950">
        <ele>671.0</ele>
        <time>2010-08-26T13:05:53Z</time>
      </trkpt>
      <trkpt lat="41.793200" lon="-8.139000">
        <ele>671.0</ele>
        <time>2010-08-26T13:05:54Z</time>
      </trkpt>
      <trkpt lat="41.793233" lon="-8.139067">
        <ele>671.0</ele>
        <time>2010-08-26T13:05:55Z</time>
      </trkpt>
      <trkpt lat="41.793283" lon="-8.139117">
        <ele>671.0</ele>
        <time>2010-08-26T13:05:56Z</time>
      </trkpt>
      <trkpt lat="41.793317" lon="-8.139167">
        <ele>671.0</ele>
        <time>2010-08-26T13:05:57Z</time>
      </trkpt>
      <trkpt lat="41.793367" lon="-8.139217">
        <ele>671.0</ele>
        <time>2010-08-26T13:05:58Z</time>
      </trkpt>
      <trkpt lat="41.793417" lon="-8.139267">
        <ele>670.0</ele>
        <time>2010-08-26T13:05:59Z</time>
      </trkpt>
      <trkpt lat="41.793450" lon="-8.139317">
        <ele>670.0</ele>
        <time>2010-08-26T13:06:00Z</time>
      </trkpt>
      <trkpt lat="41.793500" lon="-8.139367">
        <ele>670.0</ele>
        <time>2010-08-26T13:06:01Z</time>
      </trkpt>
      <trkpt lat="41.793533" lon="-8.139400">
        <ele>670.0</ele>
        <time>2010-08-26T13:06:02Z</time>
      </trkpt>
      <trkpt lat="41.793583" lon="-8.139450">
        <ele>669.0</ele>
        <time>2010-08-26T13:06:03Z</time>
      </trkpt>
      <trkpt lat="41.793617" lon="-8.139483">
        <ele>669.0</ele>
        <time>2010-08-26T13:06:04Z</time>
      </trkpt>
      <trkpt lat="41.793667" lon="-8.139533">
        <ele>669.0</ele>
        <time>2010-08-26T13:06:05Z</time>
      </trkpt>
      <trkpt lat="41.793700" lon="-8.139567">
        <ele>669.0</ele>
        <time>2010-08-26T13:06:06Z</time>
      </trkpt>
      <trkpt lat="41.793733" lon="-8.139633">
        <ele>668.0</ele>
        <time>2010-08-26T13:06:07Z</time>
      </trkpt>
      <trkpt lat="41.793750" lon="-8.139700">
        <ele>668.0</ele>
        <time>2010-08-26T13:06:08Z</time>
      </trkpt>
      <trkpt lat="41.793783" lon="-8.139767">
        <ele>668.0</ele>
        <time>2010-08-26T13:06:09Z</time>
      </trkpt>
      <trkpt lat="41.793783" lon="-8.139833">
        <ele>667.0</ele>
        <time>2010-08-26T13:06:10Z</time>
      </trkpt>
      <trkpt lat="41.793783" lon="-8.139917">
        <ele>667.0</ele>
        <time>2010-08-26T13:06:11Z</time>
      </trkpt>
      <trkpt lat="41.793783" lon="-8.140000">
        <ele>667.0</ele>
        <time>2010-08-26T13:06:12Z</time>
      </trkpt>
      <trkpt lat="41.793783" lon="-8.140100">
        <ele>666.0</ele>
        <time>2010-08-26T13:06:13Z</time>
      </trkpt>
      <trkpt lat="41.793783" lon="-8.140183">
        <ele>666.0</ele>
        <time>2010-08-26T13:06:14Z</time>
      </trkpt>
      <trkpt lat="41.793783" lon="-8.140283">
        <ele>665.0</ele>
        <time>2010-08-26T13:06:15Z</time>
      </trkpt>
      <trkpt lat="41.793767" lon="-8.140383">
        <ele>665.0</ele>
        <time>2010-08-26T13:06:16Z</time>
      </trkpt>
      <trkpt lat="41.793767" lon="-8.140467">
        <ele>665.0</ele>
        <time>2010-08-26T13:06:17Z</time>
      </trkpt>
      <trkpt lat="41.793767" lon="-8.140567">
        <ele>664.0</ele>
        <time>2010-08-26T13:06:18Z</time>
      </trkpt>
      <trkpt lat="41.793767" lon="-8.140650">
        <ele>664.0</ele>
        <time>2010-08-26T13:06:19Z</time>
      </trkpt>
      <trkpt lat="41.793767" lon="-8.140733">
        <ele>664.0</ele>
        <time>2010-08-26T13:06:20Z</time>
      </trkpt>
      <trkpt lat="41.793783" lon="-8.140817">
        <ele>663.0</ele>
        <time>2010-08-26T13:06:21Z</time>
      </trkpt>
      <trkpt lat="41.793800" lon="-8.140917">
        <ele>663.0</ele>
        <time>2010-08-26T13:06:22Z</time>
      </trkpt>
      <trkpt lat="41.793817" lon="-8.140983">
        <ele>662.0</ele>
        <time>2010-08-26T13:06:23Z</time>
      </trkpt>
      <trkpt lat="41.793833" lon="-8.141067">
        <ele>662.0</ele>
        <time>2010-08-26T13:06:24Z</time>
      </trkpt>
      <trkpt lat="41.793867" lon="-8.141150">
        <ele>661.0</ele>
        <time>2010-08-26T13:06:25Z</time>
      </trkpt>
      <trkpt lat="41.793883" lon="-8.141233">
        <ele>661.0</ele>
        <time>2010-08-26T13:06:26Z</time>
      </trkpt>
      <trkpt lat="41.793917" lon="-8.141300">
        <ele>660.0</ele>
        <time>2010-08-26T13:06:27Z</time>
      </trkpt>
      <trkpt lat="41.793933" lon="-8.141367">
        <ele>660.0</ele>
        <time>2010-08-26T13:06:28Z</time>
      </trkpt>
      <trkpt lat="41.793950" lon="-8.141450">
        <ele>659.0</ele>
        <time>2010-08-26T13:06:29Z</time>
      </trkpt>
      <trkpt lat="41.793967" lon="-8.141517">
        <ele>659.0</ele>
        <time>2010-08-26T13:06:30Z</time>
      </trkpt>
      <trkpt lat="41.793967" lon="-8.141583">
        <ele>659.0</ele>
        <time>2010-08-26T13:06:31Z</time>
      </trkpt>
      <trkpt lat="41.793967" lon="-8.141650">
        <ele>659.0</ele>
        <time>2010-08-26T13:06:32Z</time>
      </trkpt>
      <trkpt lat="41.793967" lon="-8.141733">
        <ele>658.0</ele>
        <time>2010-08-26T13:06:33Z</time>
      </trkpt>
      <trkpt lat="41.793950" lon="-8.141800">
        <ele>658.0</ele>
        <time>2010-08-26T13:06:34Z</time>
      </trkpt>
      <trkpt lat="41.793950" lon="-8.141867">
        <ele>658.0</ele>
        <time>2010-08-26T13:06:35Z</time>
      </trkpt>
      <trkpt lat="41.793950" lon="-8.141950">
        <ele>658.0</ele>
        <time>2010-08-26T13:06:36Z</time>
      </trkpt>
      <trkpt lat="41.793950" lon="-8.142017">
        <ele>657.0</ele>
        <time>2010-08-26T13:06:37Z</time>
      </trkpt>
      <trkpt lat="41.793933" lon="-8.142067">
        <ele>657.0</ele>
        <time>2010-08-26T13:06:38Z</time>
      </trkpt>
      <trkpt lat="41.793933" lon="-8.142133">
        <ele>657.0</ele>
        <time>2010-08-26T13:06:39Z</time>
      </trkpt>
      <trkpt lat="41.793933" lon="-8.142217">
        <ele>657.0</ele>
        <time>2010-08-26T13:06:40Z</time>
      </trkpt>
      <trkpt lat="41.793917" lon="-8.142283">
        <ele>656.0</ele>
        <time>2010-08-26T13:06:41Z</time>
      </trkpt>
      <trkpt lat="41.793900" lon="-8.142367">
        <ele>656.0</ele>
        <time>2010-08-26T13:06:42Z</time>
      </trkpt>
      <trkpt lat="41.793883" lon="-8.142450">
        <ele>656.0</ele>
        <time>2010-08-26T13:06:43Z</time>
      </trkpt>
      <trkpt lat="41.793867" lon="-8.142517">
        <ele>656.0</ele>
        <time>2010-08-26T13:06:44Z</time>
      </trkpt>
      <trkpt lat="41.793833" lon="-8.142600">
        <ele>655.0</ele>
        <time>2010-08-26T13:06:45Z</time>
      </trkpt>
      <trkpt lat="41.793800" lon="-8.142683">
        <ele>655.0</ele>
        <time>2010-08-26T13:06:46Z</time>
      </trkpt>
      <trkpt lat="41.793767" lon="-8.142767">
        <ele>654.0</ele>
        <time>2010-08-26T13:06:47Z</time>
      </trkpt>
      <trkpt lat="41.793733" lon="-8.142850">
        <ele>654.0</ele>
        <time>2010-08-26T13:06:48Z</time>
      </trkpt>
      <trkpt lat="41.793717" lon="-8.142933">
        <ele>653.0</ele>
        <time>2010-08-26T13:06:49Z</time>
      </trkpt>
      <trkpt lat="41.793700" lon="-8.143033">
        <ele>652.0</ele>
        <time>2010-08-26T13:06:50Z</time>
      </trkpt>
      <trkpt lat="41.793700" lon="-8.143133">
        <ele>652.0</ele>
        <time>2010-08-26T13:06:51Z</time>
      </trkpt>
      <trkpt lat="41.793683" lon="-8.143250">
        <ele>651.0</ele>
        <time>2010-08-26T13:06:52Z</time>
      </trkpt>
      <trkpt lat="41.793667" lon="-8.143350">
        <ele>651.0</ele>
        <time>2010-08-26T13:06:53Z</time>
      </trkpt>
      <trkpt lat="41.793667" lon="-8.143450">
        <ele>650.0</ele>
        <time>2010-08-26T13:06:54Z</time>
      </trkpt>
      <trkpt lat="41.793650" lon="-8.143567">
        <ele>649.0</ele>
        <time>2010-08-26T13:06:55Z</time>
      </trkpt>
      <trkpt lat="41.793633" lon="-8.143667">
        <ele>649.0</ele>
        <time>2010-08-26T13:06:56Z</time>
      </trkpt>
      <trkpt lat="41.793617" lon="-8.143783">
        <ele>648.0</ele>
        <time>2010-08-26T13:06:57Z</time>
      </trkpt>
      <trkpt lat="41.793617" lon="-8.143900">
        <ele>648.0</ele>
        <time>2010-08-26T13:06:58Z</time>
      </trkpt>
      <trkpt lat="41.793600" lon="-8.144000">
        <ele>647.0</ele>
        <time>2010-08-26T13:06:59Z</time>
      </trkpt>
      <trkpt lat="41.793583" lon="-8.144100">
        <ele>647.0</ele>
        <time>2010-08-26T13:07:00Z</time>
      </trkpt>
      <trkpt lat="41.793567" lon="-8.144200">
        <ele>646.0</ele>
        <time>2010-08-26T13:07:01Z</time>
      </trkpt>
      <trkpt lat="41.793550" lon="-8.144300">
        <ele>646.0</ele>
        <time>2010-08-26T13:07:02Z</time>
      </trkpt>
      <trkpt lat="41.793533" lon="-8.144400">
        <ele>645.0</ele>
        <time>2010-08-26T13:07:03Z</time>
      </trkpt>
      <trkpt lat="41.793517" lon="-8.144483">
        <ele>645.0</ele>
        <time>2010-08-26T13:07:04Z</time>
      </trkpt>
      <trkpt lat="41.793483" lon="-8.144550">
        <ele>645.0</ele>
        <time>2010-08-26T13:07:05Z</time>
      </trkpt>
      <trkpt lat="41.793467" lon="-8.144633">
        <ele>644.0</ele>
        <time>2010-08-26T13:07:06Z</time>
      </trkpt>
      <trkpt lat="41.793450" lon="-8.144700">
        <ele>644.0</ele>
        <time>2010-08-26T13:07:07Z</time>
      </trkpt>
      <trkpt lat="41.793433" lon="-8.144783">
        <ele>644.0</ele>
        <time>2010-08-26T13:07:08Z</time>
      </trkpt>
      <trkpt lat="41.793433" lon="-8.144850">
        <ele>644.0</ele>
        <time>2010-08-26T13:07:09Z</time>
      </trkpt>
      <trkpt lat="41.793433" lon="-8.144917">
        <ele>644.0</ele>
        <time>2010-08-26T13:07:10Z</time>
      </trkpt>
      <trkpt lat="41.793417" lon="-8.144967">
        <ele>644.0</ele>
        <time>2010-08-26T13:07:11Z</time>
      </trkpt>
      <trkpt lat="41.793417" lon="-8.145017">
        <ele>645.0</ele>
        <time>2010-08-26T13:07:12Z</time>
      </trkpt>
      <trkpt lat="41.793433" lon="-8.145067">
        <ele>645.0</ele>
        <time>2010-08-26T13:07:13Z</time>
      </trkpt>
      <trkpt lat="41.793433" lon="-8.145100">
        <ele>646.0</ele>
        <time>2010-08-26T13:07:14Z</time>
      </trkpt>
      <trkpt lat="41.793450" lon="-8.145150">
        <ele>646.0</ele>
        <time>2010-08-26T13:07:15Z</time>
      </trkpt>
      <trkpt lat="41.793450" lon="-8.145183">
        <ele>646.0</ele>
        <time>2010-08-26T13:07:16Z</time>
      </trkpt>
      <trkpt lat="41.793467" lon="-8.145217">
        <ele>647.0</ele>
        <time>2010-08-26T13:07:17Z</time>
      </trkpt>
      <trkpt lat="41.793467" lon="-8.145267">
        <ele>647.0</ele>
        <time>2010-08-26T13:07:18Z</time>
      </trkpt>
      <trkpt lat="41.793483" lon="-8.145300">
        <ele>647.0</ele>
        <time>2010-08-26T13:07:19Z</time>
      </trkpt>
      <trkpt lat="41.793483" lon="-8.145350">
        <ele>647.0</ele>
        <time>2010-08-26T13:07:20Z</time>
      </trkpt>
      <trkpt lat="41.793500" lon="-8.145383">
        <ele>648.0</ele>
        <time>2010-08-26T13:07:21Z</time>
      </trkpt>
      <trkpt lat="41.793500" lon="-8.145417">
        <ele>648.0</ele>
        <time>2010-08-26T13:07:22Z</time>
      </trkpt>
      <trkpt lat="41.793517" lon="-8.145467">
        <ele>648.0</ele>
        <time>2010-08-26T13:07:23Z</time>
      </trkpt>
      <trkpt lat="41.793517" lon="-8.145500">
        <ele>649.0</ele>
        <time>2010-08-26T13:07:24Z</time>
      </trkpt>
      <trkpt lat="41.793517" lon="-8.145533">
        <ele>650.0</ele>
        <time>2010-08-26T13:07:25Z</time>
      </trkpt>
      <trkpt lat="41.793517" lon="-8.145567">
        <ele>650.0</ele>
        <time>2010-08-26T13:07:26Z</time>
      </trkpt>
      <trkpt lat="41.793533" lon="-8.145617">
        <ele>651.0</ele>
        <time>2010-08-26T13:07:27Z</time>
      </trkpt>
      <trkpt lat="41.793533" lon="-8.145650">
        <ele>651.0</ele>
        <time>2010-08-26T13:07:28Z</time>
      </trkpt>
      <trkpt lat="41.793533" lon="-8.145683">
        <ele>652.0</ele>
        <time>2010-08-26T13:07:29Z</time>
      </trkpt>
      <trkpt lat="41.793533" lon="-8.145717">
        <ele>653.0</ele>
        <time>2010-08-26T13:07:30Z</time>
      </trkpt>
      <trkpt lat="41.793533" lon="-8.145750">
        <ele>654.0</ele>
        <time>2010-08-26T13:07:31Z</time>
      </trkpt>
      <trkpt lat="41.793533" lon="-8.145783">
        <ele>654.0</ele>
        <time>2010-08-26T13:07:32Z</time>
      </trkpt>
      <trkpt lat="41.793517" lon="-8.145833">
        <ele>655.0</ele>
        <time>2010-08-26T13:07:33Z</time>
      </trkpt>
      <trkpt lat="41.793517" lon="-8.145867">
        <ele>656.0</ele>
        <time>2010-08-26T13:07:34Z</time>
      </trkpt>
      <trkpt lat="41.793517" lon="-8.145917">
        <ele>656.0</ele>
        <time>2010-08-26T13:07:35Z</time>
      </trkpt>
      <trkpt lat="41.793517" lon="-8.145950">
        <ele>657.0</ele>
        <time>2010-08-26T13:07:36Z</time>
      </trkpt>
      <trkpt lat="41.793517" lon="-8.146000">
        <ele>657.0</ele>
        <time>2010-08-26T13:07:37Z</time>
      </trkpt>
      <trkpt lat="41.793517" lon="-8.146033">
        <ele>657.0</ele>
        <time>2010-08-26T13:07:38Z</time>
      </trkpt>
      <trkpt lat="41.793533" lon="-8.146083">
        <ele>658.0</ele>
        <time>2010-08-26T13:07:39Z</time>
      </trkpt>
      <trkpt lat="41.793533" lon="-8.146117">
        <ele>658.0</ele>
        <time>2010-08-26T13:07:40Z</time>
      </trkpt>
      <trkpt lat="41.793550" lon="-8.146167">
        <ele>658.0</ele>
        <time>2010-08-26T13:07:41Z</time>
      </trkpt>
      <trkpt lat="41.793550" lon="-8.146200">
        <ele>658.0</ele>
        <time>2010-08-26T13:07:42Z</time>
      </trkpt>
      <trkpt lat="41.793567" lon="-8.146233">
        <ele>658.0</ele>
        <time>2010-08-26T13:07:43Z</time>
      </trkpt>
      <trkpt lat="41.793583" lon="-8.146267">
        <ele>657.0</ele>
        <time>2010-08-26T13:07:44Z</time>
      </trkpt>
      <trkpt lat="41.793600" lon="-8.146317">
        <ele>657.0</ele>
        <time>2010-08-26T13:07:45Z</time>
      </trkpt>
      <trkpt lat="41.793617" lon="-8.146350">
        <ele>657.0</ele>
        <time>2010-08-26T13:07:46Z</time>
      </trkpt>
      <trkpt lat="41.793633" lon="-8.146400">
        <ele>657.0</ele>
        <time>2010-08-26T13:07:47Z</time>
      </trkpt>
      <trkpt lat="41.793667" lon="-8.146433">
        <ele>657.0</ele>
        <time>2010-08-26T13:07:48Z</time>
      </trkpt>
      <trkpt lat="41.793683" lon="-8.146483">
        <ele>657.0</ele>
        <time>2010-08-26T13:07:49Z</time>
      </trkpt>
      <trkpt lat="41.793717" lon="-8.146517">
        <ele>657.0</ele>
        <time>2010-08-26T13:07:50Z</time>
      </trkpt>
      <trkpt lat="41.793733" lon="-8.146567">
        <ele>657.0</ele>
        <time>2010-08-26T13:07:51Z</time>
      </trkpt>
      <trkpt lat="41.793767" lon="-8.146600">
        <ele>656.0</ele>
        <time>2010-08-26T13:07:52Z</time>
      </trkpt>
      <trkpt lat="41.793783" lon="-8.146650">
        <ele>656.0</ele>
        <time>2010-08-26T13:07:53Z</time>
      </trkpt>
      <trkpt lat="41.793800" lon="-8.146700">
        <ele>656.0</ele>
        <time>2010-08-26T13:07:54Z</time>
      </trkpt>
      <trkpt lat="41.793817" lon="-8.146750">
        <ele>656.0</ele>
        <time>2010-08-26T13:07:55Z</time>
      </trkpt>
      <trkpt lat="41.793817" lon="-8.146800">
        <ele>656.0</ele>
        <time>2010-08-26T13:07:56Z</time>
      </trkpt>
      <trkpt lat="41.793833" lon="-8.146833">
        <ele>655.0</ele>
        <time>2010-08-26T13:07:57Z</time>
      </trkpt>
      <trkpt lat="41.793833" lon="-8.146883">
        <ele>655.0</ele>
        <time>2010-08-26T13:07:58Z</time>
      </trkpt>
      <trkpt lat="41.793850" lon="-8.146933">
        <ele>655.0</ele>
        <time>2010-08-26T13:07:59Z</time>
      </trkpt>
      <trkpt lat="41.793867" lon="-8.146983">
        <ele>656.0</ele>
        <time>2010-08-26T13:08:00Z</time>
      </trkpt>
      <trkpt lat="41.793867" lon="-8.147017">
        <ele>656.0</ele>
        <time>2010-08-26T13:08:01Z</time>
      </trkpt>
      <trkpt lat="41.793900" lon="-8.147050">
        <ele>656.0</ele>
        <time>2010-08-26T13:08:02Z</time>
      </trkpt>
      <trkpt lat="41.793933" lon="-8.147083">
        <ele>656.0</ele>
        <time>2010-08-26T13:08:03Z</time>
      </trkpt>
      <trkpt lat="41.793967" lon="-8.147100">
        <ele>656.0</ele>
        <time>2010-08-26T13:08:04Z</time>
      </trkpt>
      <trkpt lat="41.794000" lon="-8.147133">
        <ele>656.0</ele>
        <time>2010-08-26T13:08:05Z</time>
      </trkpt>
      <trkpt lat="41.794033" lon="-8.147150">
        <ele>656.0</ele>
        <time>2010-08-26T13:08:06Z</time>
      </trkpt>
      <trkpt lat="41.794083" lon="-8.147167">
        <ele>656.0</ele>
        <time>2010-08-26T13:08:07Z</time>
      </trkpt>
      <trkpt lat="41.794133" lon="-8.147183">
        <ele>655.0</ele>
        <time>2010-08-26T13:08:08Z</time>
      </trkpt>
      <trkpt lat="41.794183" lon="-8.147217">
        <ele>655.0</ele>
        <time>2010-08-26T13:08:09Z</time>
      </trkpt>
      <trkpt lat="41.794217" lon="-8.147233">
        <ele>655.0</ele>
        <time>2010-08-26T13:08:10Z</time>
      </trkpt>
      <trkpt lat="41.794267" lon="-8.147267">
        <ele>654.0</ele>
        <time>2010-08-26T13:08:11Z</time>
      </trkpt>
      <trkpt lat="41.794300" lon="-8.147317">
        <ele>653.0</ele>
        <time>2010-08-26T13:08:12Z</time>
      </trkpt>
      <trkpt lat="41.794333" lon="-8.147367">
        <ele>652.0</ele>
        <time>2010-08-26T13:08:13Z</time>
      </trkpt>
      <trkpt lat="41.794350" lon="-8.147433">
        <ele>652.0</ele>
        <time>2010-08-26T13:08:14Z</time>
      </trkpt>
      <trkpt lat="41.794350" lon="-8.147500">
        <ele>651.0</ele>
        <time>2010-08-26T13:08:15Z</time>
      </trkpt>
      <trkpt lat="41.794350" lon="-8.147583">
        <ele>651.0</ele>
        <time>2010-08-26T13:08:16Z</time>
      </trkpt>
      <trkpt lat="41.794333" lon="-8.147650">
        <ele>650.0</ele>
        <time>2010-08-26T13:08:17Z</time>
      </trkpt>
      <trkpt lat="41.794333" lon="-8.147717">
        <ele>649.0</ele>
        <time>2010-08-26T13:08:18Z</time>
      </trkpt>
      <trkpt lat="41.794317" lon="-8.147783">
        <ele>648.0</ele>
        <time>2010-08-26T13:08:19Z</time>
      </trkpt>
      <trkpt lat="41.794300" lon="-8.147850">
        <ele>647.0</ele>
        <time>2010-08-26T13:08:20Z</time>
      </trkpt>
      <trkpt lat="41.794283" lon="-8.147900">
        <ele>647.0</ele>
        <time>2010-08-26T13:08:21Z</time>
      </trkpt>
      <trkpt lat="41.794333" lon="-8.147883">
        <ele>643.0</ele>
        <time>2010-08-26T13:08:31Z</time>
      </trkpt>
      <trkpt lat="41.794367" lon="-8.147850">
        <ele>642.0</ele>
        <time>2010-08-26T13:08:43Z</time>
      </trkpt>
      <trkpt lat="41.794383" lon="-8.147783">
        <ele>639.0</ele>
        <time>2010-08-26T13:09:00Z</time>
      </trkpt>
      <trkpt lat="41.794383" lon="-8.147733">
        <ele>640.0</ele>
        <time>2010-08-26T13:09:15Z</time>
      </trkpt>
      <trkpt lat="41.794400" lon="-8.147783">
        <ele>645.0</ele>
        <time>2010-08-26T13:09:31Z</time>
      </trkpt>
      <trkpt lat="41.794383" lon="-8.147833">
        <ele>647.0</ele>
        <time>2010-08-26T13:09:34Z</time>
      </trkpt>
      <trkpt lat="41.794383" lon="-8.147883">
        <ele>648.0</ele>
        <time>2010-08-26T13:09:37Z</time>
      </trkpt>
      <trkpt lat="41.794367" lon="-8.147933">
        <ele>651.0</ele>
        <time>2010-08-26T13:09:43Z</time>
      </trkpt>
      <trkpt lat="41.794350" lon="-8.147950">
        <ele>651.0</ele>
        <time>2010-08-26T13:09:44Z</time>
      </trkpt>
      <trkpt lat="41.794317" lon="-8.147967">
        <ele>651.0</ele>
        <time>2010-08-26T13:09:45Z</time>
      </trkpt>
      <trkpt lat="41.794300" lon="-8.147983">
        <ele>651.0</ele>
        <time>2010-08-26T13:09:46Z</time>
      </trkpt>
      <trkpt lat="41.794267" lon="-8.148017">
        <ele>651.0</ele>
        <time>2010-08-26T13:09:47Z</time>
      </trkpt>
      <trkpt lat="41.794233" lon="-8.148050">
        <ele>650.0</ele>
        <time>2010-08-26T13:09:48Z</time>
      </trkpt>
      <trkpt lat="41.794200" lon="-8.148083">
        <ele>650.0</ele>
        <time>2010-08-26T13:09:49Z</time>
      </trkpt>
      <trkpt lat="41.794150" lon="-8.148117">
        <ele>650.0</ele>
        <time>2010-08-26T13:09:50Z</time>
      </trkpt>
      <trkpt lat="41.794117" lon="-8.148167">
        <ele>650.0</ele>
        <time>2010-08-26T13:09:51Z</time>
      </trkpt>
      <trkpt lat="41.794083" lon="-8.148217">
        <ele>649.0</ele>
        <time>2010-08-26T13:09:52Z</time>
      </trkpt>
      <trkpt lat="41.794033" lon="-8.148267">
        <ele>649.0</ele>
        <time>2010-08-26T13:09:53Z</time>
      </trkpt>
      <trkpt lat="41.794000" lon="-8.148317">
        <ele>649.0</ele>
        <time>2010-08-26T13:09:54Z</time>
      </trkpt>
      <trkpt lat="41.793933" lon="-8.148367">
        <ele>648.0</ele>
        <time>2010-08-26T13:09:55Z</time>
      </trkpt>
      <trkpt lat="41.793900" lon="-8.148417">
        <ele>648.0</ele>
        <time>2010-08-26T13:09:56Z</time>
      </trkpt>
      <trkpt lat="41.793850" lon="-8.148467">
        <ele>647.0</ele>
        <time>2010-08-26T13:09:57Z</time>
      </trkpt>
      <trkpt lat="41.793800" lon="-8.148517">
        <ele>647.0</ele>
        <time>2010-08-26T13:09:58Z</time>
      </trkpt>
      <trkpt lat="41.793750" lon="-8.148583">
        <ele>647.0</ele>
        <time>2010-08-26T13:09:59Z</time>
      </trkpt>
      <trkpt lat="41.793700" lon="-8.148650">
        <ele>647.0</ele>
        <time>2010-08-26T13:10:00Z</time>
      </trkpt>
      <trkpt lat="41.793667" lon="-8.148700">
        <ele>646.0</ele>
        <time>2010-08-26T13:10:01Z</time>
      </trkpt>
      <trkpt lat="41.793617" lon="-8.148750">
        <ele>646.0</ele>
        <time>2010-08-26T13:10:02Z</time>
      </trkpt>
      <trkpt lat="41.793567" lon="-8.148817">
        <ele>646.0</ele>
        <time>2010-08-26T13:10:03Z</time>
      </trkpt>
      <trkpt lat="41.793517" lon="-8.148883">
        <ele>645.0</ele>
        <time>2010-08-26T13:10:04Z</time>
      </trkpt>
      <trkpt lat="41.793467" lon="-8.148950">
        <ele>645.0</ele>
        <time>2010-08-26T13:10:05Z</time>
      </trkpt>
      <trkpt lat="41.793433" lon="-8.149017">
        <ele>644.0</ele>
        <time>2010-08-26T13:10:06Z</time>
      </trkpt>
      <trkpt lat="41.793383" lon="-8.149100">
        <ele>644.0</ele>
        <time>2010-08-26T13:10:07Z</time>
      </trkpt>
      <trkpt lat="41.793350" lon="-8.149183">
        <ele>643.0</ele>
        <time>2010-08-26T13:10:08Z</time>
      </trkpt>
      <trkpt lat="41.793317" lon="-8.149283">
        <ele>643.0</ele>
        <time>2010-08-26T13:10:09Z</time>
      </trkpt>
      <trkpt lat="41.793300" lon="-8.149400">
        <ele>642.0</ele>
        <time>2010-08-26T13:10:10Z</time>
      </trkpt>
      <trkpt lat="41.793300" lon="-8.149517">
        <ele>642.0</ele>
        <time>2010-08-26T13:10:11Z</time>
      </trkpt>
      <trkpt lat="41.793300" lon="-8.149617">
        <ele>641.0</ele>
        <time>2010-08-26T13:10:12Z</time>
      </trkpt>
      <trkpt lat="41.793283" lon="-8.149717">
        <ele>641.0</ele>
        <time>2010-08-26T13:10:13Z</time>
      </trkpt>
      <trkpt lat="41.793267" lon="-8.149800">
        <ele>641.0</ele>
        <time>2010-08-26T13:10:14Z</time>
      </trkpt>
      <trkpt lat="41.793250" lon="-8.149883">
        <ele>640.0</ele>
        <time>2010-08-26T13:10:15Z</time>
      </trkpt>
      <trkpt lat="41.793217" lon="-8.149967">
        <ele>640.0</ele>
        <time>2010-08-26T13:10:16Z</time>
      </trkpt>
      <trkpt lat="41.793183" lon="-8.150033">
        <ele>640.0</ele>
        <time>2010-08-26T13:10:17Z</time>
      </trkpt>
      <trkpt lat="41.793150" lon="-8.150100">
        <ele>640.0</ele>
        <time>2010-08-26T13:10:18Z</time>
      </trkpt>
      <trkpt lat="41.793117" lon="-8.150150">
        <ele>640.0</ele>
        <time>2010-08-26T13:10:19Z</time>
      </trkpt>
      <trkpt lat="41.793100" lon="-8.150217">
        <ele>640.0</ele>
        <time>2010-08-26T13:10:20Z</time>
      </trkpt>
      <trkpt lat="41.793083" lon="-8.150267">
        <ele>640.0</ele>
        <time>2010-08-26T13:10:21Z</time>
      </trkpt>
      <trkpt lat="41.793050" lon="-8.150317">
        <ele>640.0</ele>
        <time>2010-08-26T13:10:22Z</time>
      </trkpt>
      <trkpt lat="41.793017" lon="-8.150350">
        <ele>640.0</ele>
        <time>2010-08-26T13:10:23Z</time>
      </trkpt>
      <trkpt lat="41.792983" lon="-8.150400">
        <ele>640.0</ele>
        <time>2010-08-26T13:10:24Z</time>
      </trkpt>
      <trkpt lat="41.792950" lon="-8.150450">
        <ele>640.0</ele>
        <time>2010-08-26T13:10:25Z</time>
      </trkpt>
      <trkpt lat="41.792917" lon="-8.150500">
        <ele>640.0</ele>
        <time>2010-08-26T13:10:26Z</time>
      </trkpt>
      <trkpt lat="41.792883" lon="-8.150567">
        <ele>640.0</ele>
        <time>2010-08-26T13:10:27Z</time>
      </trkpt>
      <trkpt lat="41.792867" lon="-8.150617">
        <ele>640.0</ele>
        <time>2010-08-26T13:10:28Z</time>
      </trkpt>
      <trkpt lat="41.792850" lon="-8.150683">
        <ele>641.0</ele>
        <time>2010-08-26T13:10:29Z</time>
      </trkpt>
      <trkpt lat="41.792817" lon="-8.150750">
        <ele>641.0</ele>
        <time>2010-08-26T13:10:30Z</time>
      </trkpt>
      <trkpt lat="41.792800" lon="-8.150800">
        <ele>641.0</ele>
        <time>2010-08-26T13:10:31Z</time>
      </trkpt>
      <trkpt lat="41.792767" lon="-8.150867">
        <ele>641.0</ele>
        <time>2010-08-26T13:10:32Z</time>
      </trkpt>
      <trkpt lat="41.792750" lon="-8.150917">
        <ele>641.0</ele>
        <time>2010-08-26T13:10:33Z</time>
      </trkpt>
      <trkpt lat="41.792733" lon="-8.150950">
        <ele>641.0</ele>
        <time>2010-08-26T13:10:34Z</time>
      </trkpt>
      <trkpt lat="41.792700" lon="-8.151000">
        <ele>641.0</ele>
        <time>2010-08-26T13:10:35Z</time>
      </trkpt>
      <trkpt lat="41.792667" lon="-8.151033">
        <ele>641.0</ele>
        <time>2010-08-26T13:10:36Z</time>
      </trkpt>
      <trkpt lat="41.792633" lon="-8.151083">
        <ele>641.0</ele>
        <time>2010-08-26T13:10:37Z</time>
      </trkpt>
      <trkpt lat="41.792583" lon="-8.151133">
        <ele>641.0</ele>
        <time>2010-08-26T13:10:38Z</time>
      </trkpt>
      <trkpt lat="41.792533" lon="-8.151167">
        <ele>641.0</ele>
        <time>2010-08-26T13:10:39Z</time>
      </trkpt>
      <trkpt lat="41.792483" lon="-8.151200">
        <ele>640.0</ele>
        <time>2010-08-26T13:10:40Z</time>
      </trkpt>
      <trkpt lat="41.792433" lon="-8.151250">
        <ele>640.0</ele>
        <time>2010-08-26T13:10:41Z</time>
      </trkpt>
      <trkpt lat="41.792383" lon="-8.151300">
        <ele>640.0</ele>
        <time>2010-08-26T13:10:42Z</time>
      </trkpt>
      <trkpt lat="41.792333" lon="-8.151350">
        <ele>640.0</ele>
        <time>2010-08-26T13:10:43Z</time>
      </trkpt>
      <trkpt lat="41.792283" lon="-8.151400">
        <ele>640.0</ele>
        <time>2010-08-26T13:10:44Z</time>
      </trkpt>
      <trkpt lat="41.792233" lon="-8.151467">
        <ele>640.0</ele>
        <time>2010-08-26T13:10:45Z</time>
      </trkpt>
      <trkpt lat="41.792183" lon="-8.151517">
        <ele>640.0</ele>
        <time>2010-08-26T13:10:46Z</time>
      </trkpt>
      <trkpt lat="41.792133" lon="-8.151583">
        <ele>640.0</ele>
        <time>2010-08-26T13:10:47Z</time>
      </trkpt>
      <trkpt lat="41.792083" lon="-8.151667">
        <ele>640.0</ele>
        <time>2010-08-26T13:10:48Z</time>
      </trkpt>
      <trkpt lat="41.792050" lon="-8.151733">
        <ele>640.0</ele>
        <time>2010-08-26T13:10:49Z</time>
      </trkpt>
      <trkpt lat="41.792033" lon="-8.151817">
        <ele>640.0</ele>
        <time>2010-08-26T13:10:50Z</time>
      </trkpt>
      <trkpt lat="41.792000" lon="-8.151900">
        <ele>640.0</ele>
        <time>2010-08-26T13:10:51Z</time>
      </trkpt>
      <trkpt lat="41.791983" lon="-8.151983">
        <ele>640.0</ele>
        <time>2010-08-26T13:10:52Z</time>
      </trkpt>
      <trkpt lat="41.791950" lon="-8.152050">
        <ele>640.0</ele>
        <time>2010-08-26T13:10:53Z</time>
      </trkpt>
      <trkpt lat="41.791933" lon="-8.152133">
        <ele>641.0</ele>
        <time>2010-08-26T13:10:54Z</time>
      </trkpt>
      <trkpt lat="41.791900" lon="-8.152217">
        <ele>641.0</ele>
        <time>2010-08-26T13:10:55Z</time>
      </trkpt>
      <trkpt lat="41.791883" lon="-8.152300">
        <ele>641.0</ele>
        <time>2010-08-26T13:10:56Z</time>
      </trkpt>
      <trkpt lat="41.791850" lon="-8.152367">
        <ele>640.0</ele>
        <time>2010-08-26T13:10:57Z</time>
      </trkpt>
      <trkpt lat="41.791817" lon="-8.152433">
        <ele>640.0</ele>
        <time>2010-08-26T13:10:58Z</time>
      </trkpt>
      <trkpt lat="41.791783" lon="-8.152467">
        <ele>641.0</ele>
        <time>2010-08-26T13:10:59Z</time>
      </trkpt>
      <trkpt lat="41.791733" lon="-8.152517">
        <ele>641.0</ele>
        <time>2010-08-26T13:11:00Z</time>
      </trkpt>
      <trkpt lat="41.791700" lon="-8.152550">
        <ele>641.0</ele>
        <time>2010-08-26T13:11:01Z</time>
      </trkpt>
      <trkpt lat="41.791650" lon="-8.152583">
        <ele>641.0</ele>
        <time>2010-08-26T13:11:02Z</time>
      </trkpt>
      <trkpt lat="41.791600" lon="-8.152617">
        <ele>641.0</ele>
        <time>2010-08-26T13:11:03Z</time>
      </trkpt>
      <trkpt lat="41.791567" lon="-8.152667">
        <ele>641.0</ele>
        <time>2010-08-26T13:11:04Z</time>
      </trkpt>
      <trkpt lat="41.791550" lon="-8.152700">
        <ele>640.0</ele>
        <time>2010-08-26T13:11:05Z</time>
      </trkpt>
      <trkpt lat="41.791517" lon="-8.152750">
        <ele>640.0</ele>
        <time>2010-08-26T13:11:06Z</time>
      </trkpt>
      <trkpt lat="41.791517" lon="-8.152817">
        <ele>640.0</ele>
        <time>2010-08-26T13:11:07Z</time>
      </trkpt>
      <trkpt lat="41.791483" lon="-8.152883">
        <ele>640.0</ele>
        <time>2010-08-26T13:11:08Z</time>
      </trkpt>
      <trkpt lat="41.791467" lon="-8.152950">
        <ele>640.0</ele>
        <time>2010-08-26T13:11:09Z</time>
      </trkpt>
      <trkpt lat="41.791450" lon="-8.153017">
        <ele>639.0</ele>
        <time>2010-08-26T13:11:10Z</time>
      </trkpt>
      <trkpt lat="41.791417" lon="-8.153083">
        <ele>639.0</ele>
        <time>2010-08-26T13:11:11Z</time>
      </trkpt>
      <trkpt lat="41.791400" lon="-8.153167">
        <ele>638.0</ele>
        <time>2010-08-26T13:11:12Z</time>
      </trkpt>
      <trkpt lat="41.791383" lon="-8.153233">
        <ele>638.0</ele>
        <time>2010-08-26T13:11:13Z</time>
      </trkpt>
      <trkpt lat="41.791350" lon="-8.153317">
        <ele>637.0</ele>
        <time>2010-08-26T13:11:14Z</time>
      </trkpt>
      <trkpt lat="41.791317" lon="-8.153400">
        <ele>637.0</ele>
        <time>2010-08-26T13:11:15Z</time>
      </trkpt>
      <trkpt lat="41.791283" lon="-8.153467">
        <ele>636.0</ele>
        <time>2010-08-26T13:11:16Z</time>
      </trkpt>
      <trkpt lat="41.791233" lon="-8.153550">
        <ele>636.0</ele>
        <time>2010-08-26T13:11:17Z</time>
      </trkpt>
      <trkpt lat="41.791183" lon="-8.153617">
        <ele>635.0</ele>
        <time>2010-08-26T13:11:18Z</time>
      </trkpt>
      <trkpt lat="41.791150" lon="-8.153683">
        <ele>635.0</ele>
        <time>2010-08-26T13:11:19Z</time>
      </trkpt>
      <trkpt lat="41.791100" lon="-8.153733">
        <ele>634.0</ele>
        <time>2010-08-26T13:11:20Z</time>
      </trkpt>
      <trkpt lat="41.791050" lon="-8.153767">
        <ele>634.0</ele>
        <time>2010-08-26T13:11:21Z</time>
      </trkpt>
      <trkpt lat="41.791000" lon="-8.153800">
        <ele>633.0</ele>
        <time>2010-08-26T13:11:22Z</time>
      </trkpt>
      <trkpt lat="41.790950" lon="-8.153800">
        <ele>633.0</ele>
        <time>2010-08-26T13:11:23Z</time>
      </trkpt>
      <trkpt lat="41.790883" lon="-8.153800">
        <ele>633.0</ele>
        <time>2010-08-26T13:11:24Z</time>
      </trkpt>
      <trkpt lat="41.790833" lon="-8.153800">
        <ele>633.0</ele>
        <time>2010-08-26T13:11:25Z</time>
      </trkpt>
      <trkpt lat="41.790767" lon="-8.153817">
        <ele>632.0</ele>
        <time>2010-08-26T13:11:26Z</time>
      </trkpt>
      <trkpt lat="41.790717" lon="-8.153850">
        <ele>632.0</ele>
        <time>2010-08-26T13:11:27Z</time>
      </trkpt>
      <trkpt lat="41.790667" lon="-8.153883">
        <ele>632.0</ele>
        <time>2010-08-26T13:11:28Z</time>
      </trkpt>
      <trkpt lat="41.790633" lon="-8.153933">
        <ele>632.0</ele>
        <time>2010-08-26T13:11:29Z</time>
      </trkpt>
      <trkpt lat="41.790617" lon="-8.153983">
        <ele>632.0</ele>
        <time>2010-08-26T13:11:30Z</time>
      </trkpt>
      <trkpt lat="41.790583" lon="-8.154017">
        <ele>633.0</ele>
        <time>2010-08-26T13:11:31Z</time>
      </trkpt>
      <trkpt lat="41.790567" lon="-8.154083">
        <ele>633.0</ele>
        <time>2010-08-26T13:11:32Z</time>
      </trkpt>
      <trkpt lat="41.790567" lon="-8.154133">
        <ele>633.0</ele>
        <time>2010-08-26T13:11:33Z</time>
      </trkpt>
      <trkpt lat="41.790550" lon="-8.154183">
        <ele>634.0</ele>
        <time>2010-08-26T13:11:34Z</time>
      </trkpt>
      <trkpt lat="41.790533" lon="-8.154250">
        <ele>634.0</ele>
        <time>2010-08-26T13:11:35Z</time>
      </trkpt>
      <trkpt lat="41.790517" lon="-8.154300">
        <ele>635.0</ele>
        <time>2010-08-26T13:11:36Z</time>
      </trkpt>
      <trkpt lat="41.790517" lon="-8.154350">
        <ele>635.0</ele>
        <time>2010-08-26T13:11:37Z</time>
      </trkpt>
      <trkpt lat="41.790517" lon="-8.154400">
        <ele>635.0</ele>
        <time>2010-08-26T13:11:38Z</time>
      </trkpt>
      <trkpt lat="41.790517" lon="-8.154450">
        <ele>636.0</ele>
        <time>2010-08-26T13:11:39Z</time>
      </trkpt>
      <trkpt lat="41.790517" lon="-8.154517">
        <ele>636.0</ele>
        <time>2010-08-26T13:11:40Z</time>
      </trkpt>
      <trkpt lat="41.790517" lon="-8.154583">
        <ele>636.0</ele>
        <time>2010-08-26T13:11:41Z</time>
      </trkpt>
      <trkpt lat="41.790533" lon="-8.154650">
        <ele>636.0</ele>
        <time>2010-08-26T13:11:42Z</time>
      </trkpt>
      <trkpt lat="41.790550" lon="-8.154733">
        <ele>636.0</ele>
        <time>2010-08-26T13:11:43Z</time>
      </trkpt>
      <trkpt lat="41.790567" lon="-8.154817">
        <ele>637.0</ele>
        <time>2010-08-26T13:11:44Z</time>
      </trkpt>
      <trkpt lat="41.790600" lon="-8.154867">
        <ele>637.0</ele>
        <time>2010-08-26T13:11:45Z</time>
      </trkpt>
      <trkpt lat="41.790633" lon="-8.154933">
        <ele>637.0</ele>
        <time>2010-08-26T13:11:46Z</time>
      </trkpt>
      <trkpt lat="41.790683" lon="-8.155000">
        <ele>636.0</ele>
        <time>2010-08-26T13:11:47Z</time>
      </trkpt>
      <trkpt lat="41.790717" lon="-8.155067">
        <ele>636.0</ele>
        <time>2010-08-26T13:11:48Z</time>
      </trkpt>
      <trkpt lat="41.790750" lon="-8.155133">
        <ele>636.0</ele>
        <time>2010-08-26T13:11:49Z</time>
      </trkpt>
      <trkpt lat="41.790767" lon="-8.155200">
        <ele>636.0</ele>
        <time>2010-08-26T13:11:50Z</time>
      </trkpt>
      <trkpt lat="41.790800" lon="-8.155250">
        <ele>636.0</ele>
        <time>2010-08-26T13:11:51Z</time>
      </trkpt>
      <trkpt lat="41.790817" lon="-8.155300">
        <ele>637.0</ele>
        <time>2010-08-26T13:11:53Z</time>
      </trkpt>
      <trkpt lat="41.790800" lon="-8.155350">
        <ele>634.0</ele>
        <time>2010-08-26T13:12:11Z</time>
      </trkpt>
      <trkpt lat="41.790783" lon="-8.155400">
        <ele>633.0</ele>
        <time>2010-08-26T13:12:14Z</time>
      </trkpt>
      <trkpt lat="41.790783" lon="-8.155433">
        <ele>633.0</ele>
        <time>2010-08-26T13:12:15Z</time>
      </trkpt>
      <trkpt lat="41.790767" lon="-8.155467">
        <ele>633.0</ele>
        <time>2010-08-26T13:12:16Z</time>
      </trkpt>
      <trkpt lat="41.790767" lon="-8.155517">
        <ele>633.0</ele>
        <time>2010-08-26T13:12:17Z</time>
      </trkpt>
      <trkpt lat="41.790750" lon="-8.155583">
        <ele>633.0</ele>
        <time>2010-08-26T13:12:18Z</time>
      </trkpt>
      <trkpt lat="41.790750" lon="-8.155650">
        <ele>632.0</ele>
        <time>2010-08-26T13:12:19Z</time>
      </trkpt>
      <trkpt lat="41.790733" lon="-8.155717">
        <ele>632.0</ele>
        <time>2010-08-26T13:12:20Z</time>
      </trkpt>
      <trkpt lat="41.790717" lon="-8.155800">
        <ele>632.0</ele>
        <time>2010-08-26T13:12:21Z</time>
      </trkpt>
      <trkpt lat="41.790700" lon="-8.155883">
        <ele>632.0</ele>
        <time>2010-08-26T13:12:22Z</time>
      </trkpt>
      <trkpt lat="41.790683" lon="-8.155967">
        <ele>631.0</ele>
        <time>2010-08-26T13:12:23Z</time>
      </trkpt>
      <trkpt lat="41.790667" lon="-8.156050">
        <ele>631.0</ele>
        <time>2010-08-26T13:12:24Z</time>
      </trkpt>
      <trkpt lat="41.790633" lon="-8.156133">
        <ele>630.0</ele>
        <time>2010-08-26T13:12:25Z</time>
      </trkpt>
      <trkpt lat="41.790600" lon="-8.156217">
        <ele>630.0</ele>
        <time>2010-08-26T13:12:26Z</time>
      </trkpt>
      <trkpt lat="41.790567" lon="-8.156300">
        <ele>630.0</ele>
        <time>2010-08-26T13:12:27Z</time>
      </trkpt>
      <trkpt lat="41.790533" lon="-8.156383">
        <ele>629.0</ele>
        <time>2010-08-26T13:12:28Z</time>
      </trkpt>
      <trkpt lat="41.790500" lon="-8.156467">
        <ele>629.0</ele>
        <time>2010-08-26T13:12:29Z</time>
      </trkpt>
      <trkpt lat="41.790450" lon="-8.156533">
        <ele>628.0</ele>
        <time>2010-08-26T13:12:30Z</time>
      </trkpt>
      <trkpt lat="41.790417" lon="-8.156617">
        <ele>627.0</ele>
        <time>2010-08-26T13:12:31Z</time>
      </trkpt>
      <trkpt lat="41.790367" lon="-8.156683">
        <ele>627.0</ele>
        <time>2010-08-26T13:12:32Z</time>
      </trkpt>
      <trkpt lat="41.790317" lon="-8.156767">
        <ele>626.0</ele>
        <time>2010-08-26T13:12:33Z</time>
      </trkpt>
      <trkpt lat="41.790267" lon="-8.156850">
        <ele>626.0</ele>
        <time>2010-08-26T13:12:34Z</time>
      </trkpt>
      <trkpt lat="41.790233" lon="-8.156933">
        <ele>625.0</ele>
        <time>2010-08-26T13:12:35Z</time>
      </trkpt>
      <trkpt lat="41.790200" lon="-8.157000">
        <ele>624.0</ele>
        <time>2010-08-26T13:12:36Z</time>
      </trkpt>
      <trkpt lat="41.790150" lon="-8.157083">
        <ele>624.0</ele>
        <time>2010-08-26T13:12:37Z</time>
      </trkpt>
      <trkpt lat="41.790117" lon="-8.157167">
        <ele>623.0</ele>
        <time>2010-08-26T13:12:38Z</time>
      </trkpt>
      <trkpt lat="41.790083" lon="-8.157267">
        <ele>623.0</ele>
        <time>2010-08-26T13:12:39Z</time>
      </trkpt>
      <trkpt lat="41.790050" lon="-8.157367">
        <ele>622.0</ele>
        <time>2010-08-26T13:12:40Z</time>
      </trkpt>
      <trkpt lat="41.790017" lon="-8.157450">
        <ele>622.0</ele>
        <time>2010-08-26T13:12:41Z</time>
      </trkpt>
      <trkpt lat="41.790017" lon="-8.157533">
        <ele>621.0</ele>
        <time>2010-08-26T13:12:42Z</time>
      </trkpt>
      <trkpt lat="41.790000" lon="-8.157617">
        <ele>621.0</ele>
        <time>2010-08-26T13:12:43Z</time>
      </trkpt>
      <trkpt lat="41.789983" lon="-8.157683">
        <ele>620.0</ele>
        <time>2010-08-26T13:12:44Z</time>
      </trkpt>
      <trkpt lat="41.789967" lon="-8.157767">
        <ele>619.0</ele>
        <time>2010-08-26T13:12:45Z</time>
      </trkpt>
      <trkpt lat="41.789950" lon="-8.157833">
        <ele>619.0</ele>
        <time>2010-08-26T13:12:46Z</time>
      </trkpt>
      <trkpt lat="41.789933" lon="-8.157917">
        <ele>618.0</ele>
        <time>2010-08-26T13:12:47Z</time>
      </trkpt>
      <trkpt lat="41.789900" lon="-8.158000">
        <ele>617.0</ele>
        <time>2010-08-26T13:12:48Z</time>
      </trkpt>
      <trkpt lat="41.789867" lon="-8.158083">
        <ele>616.0</ele>
        <time>2010-08-26T13:12:49Z</time>
      </trkpt>
      <trkpt lat="41.789833" lon="-8.158167">
        <ele>616.0</ele>
        <time>2010-08-26T13:12:50Z</time>
      </trkpt>
      <trkpt lat="41.789800" lon="-8.158250">
        <ele>615.0</ele>
        <time>2010-08-26T13:12:51Z</time>
      </trkpt>
      <trkpt lat="41.789767" lon="-8.158333">
        <ele>614.0</ele>
        <time>2010-08-26T13:12:52Z</time>
      </trkpt>
      <trkpt lat="41.789733" lon="-8.158400">
        <ele>614.0</ele>
        <time>2010-08-26T13:12:53Z</time>
      </trkpt>
      <trkpt lat="41.789683" lon="-8.158483">
        <ele>613.0</ele>
        <time>2010-08-26T13:12:54Z</time>
      </trkpt>
      <trkpt lat="41.789633" lon="-8.158550">
        <ele>612.0</ele>
        <time>2010-08-26T13:12:55Z</time>
      </trkpt>
      <trkpt lat="41.789583" lon="-8.158617">
        <ele>612.0</ele>
        <time>2010-08-26T13:12:56Z</time>
      </trkpt>
      <trkpt lat="41.789533" lon="-8.158683">
        <ele>612.0</ele>
        <time>2010-08-26T13:12:57Z</time>
      </trkpt>
      <trkpt lat="41.789483" lon="-8.158733">
        <ele>611.0</ele>
        <time>2010-08-26T13:12:58Z</time>
      </trkpt>
      <trkpt lat="41.789433" lon="-8.158800">
        <ele>611.0</ele>
        <time>2010-08-26T13:12:59Z</time>
      </trkpt>
      <trkpt lat="41.789383" lon="-8.158867">
        <ele>611.0</ele>
        <time>2010-08-26T13:13:00Z</time>
      </trkpt>
      <trkpt lat="41.789350" lon="-8.158933">
        <ele>611.0</ele>
        <time>2010-08-26T13:13:01Z</time>
      </trkpt>
      <trkpt lat="41.789317" lon="-8.159000">
        <ele>611.0</ele>
        <time>2010-08-26T13:13:02Z</time>
      </trkpt>
      <trkpt lat="41.789283" lon="-8.159067">
        <ele>611.0</ele>
        <time>2010-08-26T13:13:03Z</time>
      </trkpt>
      <trkpt lat="41.789250" lon="-8.159117">
        <ele>611.0</ele>
        <time>2010-08-26T13:13:04Z</time>
      </trkpt>
      <trkpt lat="41.789217" lon="-8.159167">
        <ele>611.0</ele>
        <time>2010-08-26T13:13:05Z</time>
      </trkpt>
      <trkpt lat="41.789167" lon="-8.159217">
        <ele>611.0</ele>
        <time>2010-08-26T13:13:06Z</time>
      </trkpt>
      <trkpt lat="41.789133" lon="-8.159267">
        <ele>611.0</ele>
        <time>2010-08-26T13:13:07Z</time>
      </trkpt>
      <trkpt lat="41.789083" lon="-8.159317">
        <ele>612.0</ele>
        <time>2010-08-26T13:13:08Z</time>
      </trkpt>
      <trkpt lat="41.789050" lon="-8.159350">
        <ele>612.0</ele>
        <time>2010-08-26T13:13:09Z</time>
      </trkpt>
      <trkpt lat="41.789000" lon="-8.159400">
        <ele>612.0</ele>
        <time>2010-08-26T13:13:10Z</time>
      </trkpt>
      <trkpt lat="41.788967" lon="-8.159450">
        <ele>612.0</ele>
        <time>2010-08-26T13:13:11Z</time>
      </trkpt>
      <trkpt lat="41.788933" lon="-8.159500">
        <ele>613.0</ele>
        <time>2010-08-26T13:13:12Z</time>
      </trkpt>
      <trkpt lat="41.788883" lon="-8.159567">
        <ele>613.0</ele>
        <time>2010-08-26T13:13:13Z</time>
      </trkpt>
      <trkpt lat="41.788850" lon="-8.159617">
        <ele>613.0</ele>
        <time>2010-08-26T13:13:14Z</time>
      </trkpt>
      <trkpt lat="41.788817" lon="-8.159683">
        <ele>614.0</ele>
        <time>2010-08-26T13:13:15Z</time>
      </trkpt>
      <trkpt lat="41.788783" lon="-8.159750">
        <ele>614.0</ele>
        <time>2010-08-26T13:13:16Z</time>
      </trkpt>
      <trkpt lat="41.788750" lon="-8.159800">
        <ele>614.0</ele>
        <time>2010-08-26T13:13:17Z</time>
      </trkpt>
      <trkpt lat="41.788700" lon="-8.159867">
        <ele>615.0</ele>
        <time>2010-08-26T13:13:18Z</time>
      </trkpt>
      <trkpt lat="41.788650" lon="-8.159917">
        <ele>615.0</ele>
        <time>2010-08-26T13:13:19Z</time>
      </trkpt>
      <trkpt lat="41.788617" lon="-8.159950">
        <ele>616.0</ele>
        <time>2010-08-26T13:13:20Z</time>
      </trkpt>
      <trkpt lat="41.788567" lon="-8.159983">
        <ele>616.0</ele>
        <time>2010-08-26T13:13:21Z</time>
      </trkpt>
      <trkpt lat="41.788517" lon="-8.160000">
        <ele>616.0</ele>
        <time>2010-08-26T13:13:22Z</time>
      </trkpt>
      <trkpt lat="41.788483" lon="-8.160000">
        <ele>617.0</ele>
        <time>2010-08-26T13:13:23Z</time>
      </trkpt>
      <trkpt lat="41.788417" lon="-8.159983">
        <ele>617.0</ele>
        <time>2010-08-26T13:13:24Z</time>
      </trkpt>
      <trkpt lat="41.788367" lon="-8.159950">
        <ele>618.0</ele>
        <time>2010-08-26T13:13:25Z</time>
      </trkpt>
      <trkpt lat="41.788317" lon="-8.159933">
        <ele>618.0</ele>
        <time>2010-08-26T13:13:26Z</time>
      </trkpt>
      <trkpt lat="41.788283" lon="-8.159933">
        <ele>618.0</ele>
        <time>2010-08-26T13:13:27Z</time>
      </trkpt>
      <trkpt lat="41.788233" lon="-8.159950">
        <ele>618.0</ele>
        <time>2010-08-26T13:13:28Z</time>
      </trkpt>
      <trkpt lat="41.788200" lon="-8.159967">
        <ele>618.0</ele>
        <time>2010-08-26T13:13:29Z</time>
      </trkpt>
      <trkpt lat="41.788167" lon="-8.159983">
        <ele>619.0</ele>
        <time>2010-08-26T13:13:30Z</time>
      </trkpt>
      <trkpt lat="41.788133" lon="-8.160000">
        <ele>619.0</ele>
        <time>2010-08-26T13:13:31Z</time>
      </trkpt>
      <trkpt lat="41.788100" lon="-8.160033">
        <ele>619.0</ele>
        <time>2010-08-26T13:13:32Z</time>
      </trkpt>
      <trkpt lat="41.788083" lon="-8.160067">
        <ele>619.0</ele>
        <time>2010-08-26T13:13:33Z</time>
      </trkpt>
      <trkpt lat="41.788067" lon="-8.160117">
        <ele>619.0</ele>
        <time>2010-08-26T13:13:34Z</time>
      </trkpt>
      <trkpt lat="41.788050" lon="-8.160150">
        <ele>619.0</ele>
        <time>2010-08-26T13:13:35Z</time>
      </trkpt>
      <trkpt lat="41.788033" lon="-8.160200">
        <ele>619.0</ele>
        <time>2010-08-26T13:13:36Z</time>
      </trkpt>
      <trkpt lat="41.788017" lon="-8.160250">
        <ele>619.0</ele>
        <time>2010-08-26T13:13:37Z</time>
      </trkpt>
      <trkpt lat="41.788000" lon="-8.160283">
        <ele>619.0</ele>
        <time>2010-08-26T13:13:38Z</time>
      </trkpt>
      <trkpt lat="41.787967" lon="-8.160333">
        <ele>619.0</ele>
        <time>2010-08-26T13:13:39Z</time>
      </trkpt>
      <trkpt lat="41.787950" lon="-8.160383">
        <ele>619.0</ele>
        <time>2010-08-26T13:13:40Z</time>
      </trkpt>
      <trkpt lat="41.787933" lon="-8.160433">
        <ele>618.0</ele>
        <time>2010-08-26T13:13:41Z</time>
      </trkpt>
      <trkpt lat="41.787917" lon="-8.160483">
        <ele>618.0</ele>
        <time>2010-08-26T13:13:42Z</time>
      </trkpt>
      <trkpt lat="41.787900" lon="-8.160517">
        <ele>618.0</ele>
        <time>2010-08-26T13:13:43Z</time>
      </trkpt>
      <trkpt lat="41.787883" lon="-8.160567">
        <ele>618.0</ele>
        <time>2010-08-26T13:13:44Z</time>
      </trkpt>
      <trkpt lat="41.787883" lon="-8.160617">
        <ele>617.0</ele>
        <time>2010-08-26T13:13:45Z</time>
      </trkpt>
      <trkpt lat="41.787867" lon="-8.160667">
        <ele>617.0</ele>
        <time>2010-08-26T13:13:46Z</time>
      </trkpt>
      <trkpt lat="41.787850" lon="-8.160717">
        <ele>617.0</ele>
        <time>2010-08-26T13:13:47Z</time>
      </trkpt>
      <trkpt lat="41.787833" lon="-8.160767">
        <ele>617.0</ele>
        <time>2010-08-26T13:13:48Z</time>
      </trkpt>
      <trkpt lat="41.787817" lon="-8.160817">
        <ele>617.0</ele>
        <time>2010-08-26T13:13:49Z</time>
      </trkpt>
      <trkpt lat="41.787783" lon="-8.160867">
        <ele>617.0</ele>
        <time>2010-08-26T13:13:50Z</time>
      </trkpt>
      <trkpt lat="41.787767" lon="-8.160917">
        <ele>616.0</ele>
        <time>2010-08-26T13:13:51Z</time>
      </trkpt>
      <trkpt lat="41.787733" lon="-8.160950">
        <ele>616.0</ele>
        <time>2010-08-26T13:13:52Z</time>
      </trkpt>
      <trkpt lat="41.787700" lon="-8.161000">
        <ele>616.0</ele>
        <time>2010-08-26T13:13:53Z</time>
      </trkpt>
      <trkpt lat="41.787667" lon="-8.161050">
        <ele>616.0</ele>
        <time>2010-08-26T13:13:54Z</time>
      </trkpt>
      <trkpt lat="41.787633" lon="-8.161100">
        <ele>616.0</ele>
        <time>2010-08-26T13:13:55Z</time>
      </trkpt>
      <trkpt lat="41.787617" lon="-8.161150">
        <ele>615.0</ele>
        <time>2010-08-26T13:13:56Z</time>
      </trkpt>
      <trkpt lat="41.787583" lon="-8.161200">
        <ele>615.0</ele>
        <time>2010-08-26T13:13:57Z</time>
      </trkpt>
      <trkpt lat="41.787550" lon="-8.161250">
        <ele>615.0</ele>
        <time>2010-08-26T13:13:58Z</time>
      </trkpt>
      <trkpt lat="41.787517" lon="-8.161300">
        <ele>615.0</ele>
        <time>2010-08-26T13:13:59Z</time>
      </trkpt>
      <trkpt lat="41.787500" lon="-8.161350">
        <ele>614.0</ele>
        <time>2010-08-26T13:14:00Z</time>
      </trkpt>
      <trkpt lat="41.787467" lon="-8.161417">
        <ele>614.0</ele>
        <time>2010-08-26T13:14:01Z</time>
      </trkpt>
      <trkpt lat="41.787433" lon="-8.161467">
        <ele>614.0</ele>
        <time>2010-08-26T13:14:02Z</time>
      </trkpt>
      <trkpt lat="41.787400" lon="-8.161533">
        <ele>614.0</ele>
        <time>2010-08-26T13:14:03Z</time>
      </trkpt>
      <trkpt lat="41.787367" lon="-8.161583">
        <ele>614.0</ele>
        <time>2010-08-26T13:14:04Z</time>
      </trkpt>
      <trkpt lat="41.787317" lon="-8.161650">
        <ele>614.0</ele>
        <time>2010-08-26T13:14:05Z</time>
      </trkpt>
      <trkpt lat="41.787283" lon="-8.161700">
        <ele>613.0</ele>
        <time>2010-08-26T13:14:06Z</time>
      </trkpt>
      <trkpt lat="41.787250" lon="-8.161750">
        <ele>613.0</ele>
        <time>2010-08-26T13:14:07Z</time>
      </trkpt>
      <trkpt lat="41.787217" lon="-8.161800">
        <ele>613.0</ele>
        <time>2010-08-26T13:14:08Z</time>
      </trkpt>
      <trkpt lat="41.787183" lon="-8.161867">
        <ele>612.0</ele>
        <time>2010-08-26T13:14:09Z</time>
      </trkpt>
      <trkpt lat="41.787150" lon="-8.161917">
        <ele>612.0</ele>
        <time>2010-08-26T13:14:10Z</time>
      </trkpt>
      <trkpt lat="41.787100" lon="-8.161983">
        <ele>612.0</ele>
        <time>2010-08-26T13:14:11Z</time>
      </trkpt>
      <trkpt lat="41.787067" lon="-8.162033">
        <ele>612.0</ele>
        <time>2010-08-26T13:14:12Z</time>
      </trkpt>
      <trkpt lat="41.787017" lon="-8.162083">
        <ele>612.0</ele>
        <time>2010-08-26T13:14:13Z</time>
      </trkpt>
      <trkpt lat="41.786950" lon="-8.162133">
        <ele>612.0</ele>
        <time>2010-08-26T13:14:14Z</time>
      </trkpt>
      <trkpt lat="41.786900" lon="-8.162167">
        <ele>612.0</ele>
        <time>2010-08-26T13:14:15Z</time>
      </trkpt>
      <trkpt lat="41.786850" lon="-8.162200">
        <ele>612.0</ele>
        <time>2010-08-26T13:14:16Z</time>
      </trkpt>
      <trkpt lat="41.786817" lon="-8.162233">
        <ele>612.0</ele>
        <time>2010-08-26T13:14:17Z</time>
      </trkpt>
      <trkpt lat="41.786767" lon="-8.162233">
        <ele>613.0</ele>
        <time>2010-08-26T13:14:18Z</time>
      </trkpt>
      <trkpt lat="41.786700" lon="-8.162233">
        <ele>613.0</ele>
        <time>2010-08-26T13:14:19Z</time>
      </trkpt>
      <trkpt lat="41.786633" lon="-8.162250">
        <ele>614.0</ele>
        <time>2010-08-26T13:14:20Z</time>
      </trkpt>
      <trkpt lat="41.786583" lon="-8.162250">
        <ele>614.0</ele>
        <time>2010-08-26T13:14:21Z</time>
      </trkpt>
      <trkpt lat="41.786517" lon="-8.162283">
        <ele>614.0</ele>
        <time>2010-08-26T13:14:22Z</time>
      </trkpt>
      <trkpt lat="41.786467" lon="-8.162317">
        <ele>614.0</ele>
        <time>2010-08-26T13:14:23Z</time>
      </trkpt>
      <trkpt lat="41.786417" lon="-8.162383">
        <ele>615.0</ele>
        <time>2010-08-26T13:14:24Z</time>
      </trkpt>
      <trkpt lat="41.786383" lon="-8.162433">
        <ele>615.0</ele>
        <time>2010-08-26T13:14:25Z</time>
      </trkpt>
      <trkpt lat="41.786350" lon="-8.162500">
        <ele>615.0</ele>
        <time>2010-08-26T13:14:26Z</time>
      </trkpt>
      <trkpt lat="41.786300" lon="-8.162583">
        <ele>614.0</ele>
        <time>2010-08-26T13:14:27Z</time>
      </trkpt>
      <trkpt lat="41.786267" lon="-8.162650">
        <ele>614.0</ele>
        <time>2010-08-26T13:14:28Z</time>
      </trkpt>
      <trkpt lat="41.786217" lon="-8.162733">
        <ele>614.0</ele>
        <time>2010-08-26T13:14:29Z</time>
      </trkpt>
      <trkpt lat="41.786183" lon="-8.162800">
        <ele>613.0</ele>
        <time>2010-08-26T13:14:30Z</time>
      </trkpt>
      <trkpt lat="41.786133" lon="-8.162867">
        <ele>613.0</ele>
        <time>2010-08-26T13:14:31Z</time>
      </trkpt>
      <trkpt lat="41.786100" lon="-8.162950">
        <ele>612.0</ele>
        <time>2010-08-26T13:14:32Z</time>
      </trkpt>
      <trkpt lat="41.786067" lon="-8.163017">
        <ele>612.0</ele>
        <time>2010-08-26T13:14:33Z</time>
      </trkpt>
      <trkpt lat="41.786033" lon="-8.163083">
        <ele>611.0</ele>
        <time>2010-08-26T13:14:34Z</time>
      </trkpt>
      <trkpt lat="41.786000" lon="-8.163150">
        <ele>611.0</ele>
        <time>2010-08-26T13:14:35Z</time>
      </trkpt>
      <trkpt lat="41.785967" lon="-8.163200">
        <ele>610.0</ele>
        <time>2010-08-26T13:14:36Z</time>
      </trkpt>
      <trkpt lat="41.785917" lon="-8.163267">
        <ele>610.0</ele>
        <time>2010-08-26T13:14:37Z</time>
      </trkpt>
      <trkpt lat="41.785867" lon="-8.163317">
        <ele>609.0</ele>
        <time>2010-08-26T13:14:38Z</time>
      </trkpt>
      <trkpt lat="41.785817" lon="-8.163383">
        <ele>609.0</ele>
        <time>2010-08-26T13:14:39Z</time>
      </trkpt>
      <trkpt lat="41.785783" lon="-8.163433">
        <ele>608.0</ele>
        <time>2010-08-26T13:14:40Z</time>
      </trkpt>
      <trkpt lat="41.785717" lon="-8.163500">
        <ele>607.0</ele>
        <time>2010-08-26T13:14:41Z</time>
      </trkpt>
      <trkpt lat="41.785667" lon="-8.163550">
        <ele>606.0</ele>
        <time>2010-08-26T13:14:42Z</time>
      </trkpt>
      <trkpt lat="41.785583" lon="-8.163617">
        <ele>606.0</ele>
        <time>2010-08-26T13:14:43Z</time>
      </trkpt>
      <trkpt lat="41.785533" lon="-8.163667">
        <ele>605.0</ele>
        <time>2010-08-26T13:14:44Z</time>
      </trkpt>
      <trkpt lat="41.785483" lon="-8.163717">
        <ele>605.0</ele>
        <time>2010-08-26T13:14:45Z</time>
      </trkpt>
      <trkpt lat="41.785433" lon="-8.163767">
        <ele>604.0</ele>
        <time>2010-08-26T13:14:46Z</time>
      </trkpt>
      <trkpt lat="41.785383" lon="-8.163833">
        <ele>604.0</ele>
        <time>2010-08-26T13:14:47Z</time>
      </trkpt>
      <trkpt lat="41.785333" lon="-8.163883">
        <ele>603.0</ele>
        <time>2010-08-26T13:14:48Z</time>
      </trkpt>
      <trkpt lat="41.785300" lon="-8.163933">
        <ele>603.0</ele>
        <time>2010-08-26T13:14:49Z</time>
      </trkpt>
      <trkpt lat="41.785283" lon="-8.163983">
        <ele>602.0</ele>
        <time>2010-08-26T13:14:50Z</time>
      </trkpt>
      <trkpt lat="41.785267" lon="-8.164050">
        <ele>601.0</ele>
        <time>2010-08-26T13:14:51Z</time>
      </trkpt>
      <trkpt lat="41.785250" lon="-8.164133">
        <ele>601.0</ele>
        <time>2010-08-26T13:14:52Z</time>
      </trkpt>
      <trkpt lat="41.785217" lon="-8.164200">
        <ele>600.0</ele>
        <time>2010-08-26T13:14:53Z</time>
      </trkpt>
      <trkpt lat="41.785183" lon="-8.164283">
        <ele>600.0</ele>
        <time>2010-08-26T13:14:54Z</time>
      </trkpt>
      <trkpt lat="41.785150" lon="-8.164350">
        <ele>599.0</ele>
        <time>2010-08-26T13:14:55Z</time>
      </trkpt>
      <trkpt lat="41.785117" lon="-8.164417">
        <ele>599.0</ele>
        <time>2010-08-26T13:14:56Z</time>
      </trkpt>
      <trkpt lat="41.785067" lon="-8.164483">
        <ele>598.0</ele>
        <time>2010-08-26T13:14:57Z</time>
      </trkpt>
      <trkpt lat="41.785017" lon="-8.164567">
        <ele>598.0</ele>
        <time>2010-08-26T13:14:58Z</time>
      </trkpt>
      <trkpt lat="41.784950" lon="-8.164650">
        <ele>598.0</ele>
        <time>2010-08-26T13:14:59Z</time>
      </trkpt>
      <trkpt lat="41.784883" lon="-8.164717">
        <ele>598.0</ele>
        <time>2010-08-26T13:15:00Z</time>
      </trkpt>
      <trkpt lat="41.784817" lon="-8.164783">
        <ele>598.0</ele>
        <time>2010-08-26T13:15:01Z</time>
      </trkpt>
      <trkpt lat="41.784750" lon="-8.164833">
        <ele>597.0</ele>
        <time>2010-08-26T13:15:02Z</time>
      </trkpt>
      <trkpt lat="41.784683" lon="-8.164900">
        <ele>597.0</ele>
        <time>2010-08-26T13:15:03Z</time>
      </trkpt>
      <trkpt lat="41.784617" lon="-8.164967">
        <ele>596.0</ele>
        <time>2010-08-26T13:15:04Z</time>
      </trkpt>
      <trkpt lat="41.784567" lon="-8.165033">
        <ele>596.0</ele>
        <time>2010-08-26T13:15:05Z</time>
      </trkpt>
      <trkpt lat="41.784500" lon="-8.165083">
        <ele>595.0</ele>
        <time>2010-08-26T13:15:06Z</time>
      </trkpt>
      <trkpt lat="41.784433" lon="-8.165133">
        <ele>595.0</ele>
        <time>2010-08-26T13:15:07Z</time>
      </trkpt>
      <trkpt lat="41.784367" lon="-8.165183">
        <ele>594.0</ele>
        <time>2010-08-26T13:15:08Z</time>
      </trkpt>
      <trkpt lat="41.784317" lon="-8.165217">
        <ele>594.0</ele>
        <time>2010-08-26T13:15:09Z</time>
      </trkpt>
      <trkpt lat="41.784250" lon="-8.165250">
        <ele>594.0</ele>
        <time>2010-08-26T13:15:10Z</time>
      </trkpt>
      <trkpt lat="41.784200" lon="-8.165283">
        <ele>594.0</ele>
        <time>2010-08-26T13:15:11Z</time>
      </trkpt>
      <trkpt lat="41.784133" lon="-8.165317">
        <ele>593.0</ele>
        <time>2010-08-26T13:15:12Z</time>
      </trkpt>
      <trkpt lat="41.784083" lon="-8.165333">
        <ele>593.0</ele>
        <time>2010-08-26T13:15:13Z</time>
      </trkpt>
      <trkpt lat="41.784033" lon="-8.165367">
        <ele>593.0</ele>
        <time>2010-08-26T13:15:14Z</time>
      </trkpt>
      <trkpt lat="41.783967" lon="-8.165383">
        <ele>593.0</ele>
        <time>2010-08-26T13:15:15Z</time>
      </trkpt>
      <trkpt lat="41.783917" lon="-8.165417">
        <ele>594.0</ele>
        <time>2010-08-26T13:15:16Z</time>
      </trkpt>
      <trkpt lat="41.783867" lon="-8.165433">
        <ele>594.0</ele>
        <time>2010-08-26T13:15:17Z</time>
      </trkpt>
      <trkpt lat="41.783817" lon="-8.165467">
        <ele>594.0</ele>
        <time>2010-08-26T13:15:18Z</time>
      </trkpt>
      <trkpt lat="41.783750" lon="-8.165483">
        <ele>594.0</ele>
        <time>2010-08-26T13:15:19Z</time>
      </trkpt>
      <trkpt lat="41.783700" lon="-8.165517">
        <ele>595.0</ele>
        <time>2010-08-26T13:15:20Z</time>
      </trkpt>
      <trkpt lat="41.783650" lon="-8.165567">
        <ele>595.0</ele>
        <time>2010-08-26T13:15:21Z</time>
      </trkpt>
      <trkpt lat="41.783600" lon="-8.165617">
        <ele>595.0</ele>
        <time>2010-08-26T13:15:22Z</time>
      </trkpt>
      <trkpt lat="41.783567" lon="-8.165667">
        <ele>595.0</ele>
        <time>2010-08-26T13:15:23Z</time>
      </trkpt>
      <trkpt lat="41.783517" lon="-8.165717">
        <ele>596.0</ele>
        <time>2010-08-26T13:15:24Z</time>
      </trkpt>
      <trkpt lat="41.783483" lon="-8.165767">
        <ele>596.0</ele>
        <time>2010-08-26T13:15:25Z</time>
      </trkpt>
      <trkpt lat="41.783433" lon="-8.165817">
        <ele>596.0</ele>
        <time>2010-08-26T13:15:26Z</time>
      </trkpt>
      <trkpt lat="41.783383" lon="-8.165867">
        <ele>596.0</ele>
        <time>2010-08-26T13:15:27Z</time>
      </trkpt>
      <trkpt lat="41.783333" lon="-8.165883">
        <ele>596.0</ele>
        <time>2010-08-26T13:15:28Z</time>
      </trkpt>
      <trkpt lat="41.783283" lon="-8.165917">
        <ele>596.0</ele>
        <time>2010-08-26T13:15:29Z</time>
      </trkpt>
      <trkpt lat="41.783233" lon="-8.165933">
        <ele>596.0</ele>
        <time>2010-08-26T13:15:30Z</time>
      </trkpt>
      <trkpt lat="41.783167" lon="-8.165950">
        <ele>596.0</ele>
        <time>2010-08-26T13:15:31Z</time>
      </trkpt>
      <trkpt lat="41.783117" lon="-8.165967">
        <ele>596.0</ele>
        <time>2010-08-26T13:15:32Z</time>
      </trkpt>
      <trkpt lat="41.783083" lon="-8.166000">
        <ele>596.0</ele>
        <time>2010-08-26T13:15:33Z</time>
      </trkpt>
      <trkpt lat="41.783017" lon="-8.166033">
        <ele>596.0</ele>
        <time>2010-08-26T13:15:34Z</time>
      </trkpt>
      <trkpt lat="41.782967" lon="-8.166050">
        <ele>596.0</ele>
        <time>2010-08-26T13:15:35Z</time>
      </trkpt>
      <trkpt lat="41.782917" lon="-8.166083">
        <ele>596.0</ele>
        <time>2010-08-26T13:15:36Z</time>
      </trkpt>
      <trkpt lat="41.782850" lon="-8.166100">
        <ele>596.0</ele>
        <time>2010-08-26T13:15:37Z</time>
      </trkpt>
      <trkpt lat="41.782800" lon="-8.166117">
        <ele>596.0</ele>
        <time>2010-08-26T13:15:38Z</time>
      </trkpt>
      <trkpt lat="41.782733" lon="-8.166133">
        <ele>596.0</ele>
        <time>2010-08-26T13:15:39Z</time>
      </trkpt>
      <trkpt lat="41.782683" lon="-8.166150">
        <ele>597.0</ele>
        <time>2010-08-26T13:15:40Z</time>
      </trkpt>
      <trkpt lat="41.782617" lon="-8.166150">
        <ele>597.0</ele>
        <time>2010-08-26T13:15:41Z</time>
      </trkpt>
      <trkpt lat="41.782550" lon="-8.166167">
        <ele>597.0</ele>
        <time>2010-08-26T13:15:42Z</time>
      </trkpt>
      <trkpt lat="41.782483" lon="-8.166183">
        <ele>597.0</ele>
        <time>2010-08-26T13:15:43Z</time>
      </trkpt>
      <trkpt lat="41.782433" lon="-8.166200">
        <ele>597.0</ele>
        <time>2010-08-26T13:15:44Z</time>
      </trkpt>
      <trkpt lat="41.782367" lon="-8.166233">
        <ele>597.0</ele>
        <time>2010-08-26T13:15:45Z</time>
      </trkpt>
      <trkpt lat="41.782333" lon="-8.166283">
        <ele>597.0</ele>
        <time>2010-08-26T13:15:46Z</time>
      </trkpt>
      <trkpt lat="41.782283" lon="-8.166333">
        <ele>597.0</ele>
        <time>2010-08-26T13:15:47Z</time>
      </trkpt>
      <trkpt lat="41.782250" lon="-8.166383">
        <ele>597.0</ele>
        <time>2010-08-26T13:15:48Z</time>
      </trkpt>
      <trkpt lat="41.782233" lon="-8.166433">
        <ele>597.0</ele>
        <time>2010-08-26T13:15:49Z</time>
      </trkpt>
      <trkpt lat="41.782200" lon="-8.166500">
        <ele>597.0</ele>
        <time>2010-08-26T13:15:50Z</time>
      </trkpt>
      <trkpt lat="41.782150" lon="-8.166550">
        <ele>596.0</ele>
        <time>2010-08-26T13:15:51Z</time>
      </trkpt>
      <trkpt lat="41.782117" lon="-8.166600">
        <ele>596.0</ele>
        <time>2010-08-26T13:15:52Z</time>
      </trkpt>
      <trkpt lat="41.782083" lon="-8.166650">
        <ele>596.0</ele>
        <time>2010-08-26T13:15:53Z</time>
      </trkpt>
      <trkpt lat="41.782033" lon="-8.166700">
        <ele>595.0</ele>
        <time>2010-08-26T13:15:54Z</time>
      </trkpt>
      <trkpt lat="41.782000" lon="-8.166750">
        <ele>595.0</ele>
        <time>2010-08-26T13:15:55Z</time>
      </trkpt>
      <trkpt lat="41.781950" lon="-8.166800">
        <ele>595.0</ele>
        <time>2010-08-26T13:15:56Z</time>
      </trkpt>
      <trkpt lat="41.781883" lon="-8.166833">
        <ele>595.0</ele>
        <time>2010-08-26T13:15:57Z</time>
      </trkpt>
      <trkpt lat="41.781833" lon="-8.166850">
        <ele>595.0</ele>
        <time>2010-08-26T13:15:58Z</time>
      </trkpt>
      <trkpt lat="41.781783" lon="-8.166883">
        <ele>595.0</ele>
        <time>2010-08-26T13:15:59Z</time>
      </trkpt>
      <trkpt lat="41.781733" lon="-8.166900">
        <ele>595.0</ele>
        <time>2010-08-26T13:16:00Z</time>
      </trkpt>
      <trkpt lat="41.781683" lon="-8.166933">
        <ele>595.0</ele>
        <time>2010-08-26T13:16:01Z</time>
      </trkpt>
      <trkpt lat="41.781633" lon="-8.166967">
        <ele>595.0</ele>
        <time>2010-08-26T13:16:02Z</time>
      </trkpt>
      <trkpt lat="41.781583" lon="-8.167000">
        <ele>595.0</ele>
        <time>2010-08-26T13:16:03Z</time>
      </trkpt>
      <trkpt lat="41.781533" lon="-8.167050">
        <ele>595.0</ele>
        <time>2010-08-26T13:16:04Z</time>
      </trkpt>
      <trkpt lat="41.781500" lon="-8.167083">
        <ele>595.0</ele>
        <time>2010-08-26T13:16:05Z</time>
      </trkpt>
      <trkpt lat="41.781450" lon="-8.167133">
        <ele>594.0</ele>
        <time>2010-08-26T13:16:06Z</time>
      </trkpt>
      <trkpt lat="41.781400" lon="-8.167167">
        <ele>594.0</ele>
        <time>2010-08-26T13:16:07Z</time>
      </trkpt>
      <trkpt lat="41.781350" lon="-8.167217">
        <ele>594.0</ele>
        <time>2010-08-26T13:16:08Z</time>
      </trkpt>
      <trkpt lat="41.781317" lon="-8.167267">
        <ele>593.0</ele>
        <time>2010-08-26T13:16:09Z</time>
      </trkpt>
      <trkpt lat="41.781283" lon="-8.167333">
        <ele>593.0</ele>
        <time>2010-08-26T13:16:10Z</time>
      </trkpt>
      <trkpt lat="41.781250" lon="-8.167433">
        <ele>593.0</ele>
        <time>2010-08-26T13:16:11Z</time>
      </trkpt>
      <trkpt lat="41.781217" lon="-8.167517">
        <ele>592.0</ele>
        <time>2010-08-26T13:16:12Z</time>
      </trkpt>
      <trkpt lat="41.781183" lon="-8.167583">
        <ele>591.0</ele>
        <time>2010-08-26T13:16:13Z</time>
      </trkpt>
      <trkpt lat="41.781133" lon="-8.167650">
        <ele>591.0</ele>
        <time>2010-08-26T13:16:14Z</time>
      </trkpt>
      <trkpt lat="41.781083" lon="-8.167683">
        <ele>590.0</ele>
        <time>2010-08-26T13:16:15Z</time>
      </trkpt>
      <trkpt lat="41.781017" lon="-8.167717">
        <ele>590.0</ele>
        <time>2010-08-26T13:16:16Z</time>
      </trkpt>
      <trkpt lat="41.780950" lon="-8.167750">
        <ele>589.0</ele>
        <time>2010-08-26T13:16:17Z</time>
      </trkpt>
      <trkpt lat="41.780883" lon="-8.167783">
        <ele>589.0</ele>
        <time>2010-08-26T13:16:18Z</time>
      </trkpt>
      <trkpt lat="41.780817" lon="-8.167817">
        <ele>588.0</ele>
        <time>2010-08-26T13:16:19Z</time>
      </trkpt>
      <trkpt lat="41.780767" lon="-8.167867">
        <ele>587.0</ele>
        <time>2010-08-26T13:16:20Z</time>
      </trkpt>
      <trkpt lat="41.780700" lon="-8.167933">
        <ele>587.0</ele>
        <time>2010-08-26T13:16:21Z</time>
      </trkpt>
      <trkpt lat="41.780650" lon="-8.167983">
        <ele>586.0</ele>
        <time>2010-08-26T13:16:22Z</time>
      </trkpt>
      <trkpt lat="41.780600" lon="-8.168017">
        <ele>586.0</ele>
        <time>2010-08-26T13:16:23Z</time>
      </trkpt>
      <trkpt lat="41.780533" lon="-8.168067">
        <ele>585.0</ele>
        <time>2010-08-26T13:16:24Z</time>
      </trkpt>
      <trkpt lat="41.780483" lon="-8.168100">
        <ele>585.0</ele>
        <time>2010-08-26T13:16:25Z</time>
      </trkpt>
      <trkpt lat="41.780433" lon="-8.168133">
        <ele>584.0</ele>
        <time>2010-08-26T13:16:26Z</time>
      </trkpt>
      <trkpt lat="41.780367" lon="-8.168183">
        <ele>584.0</ele>
        <time>2010-08-26T13:16:27Z</time>
      </trkpt>
      <trkpt lat="41.780317" lon="-8.168233">
        <ele>584.0</ele>
        <time>2010-08-26T13:16:28Z</time>
      </trkpt>
      <trkpt lat="41.780267" lon="-8.168283">
        <ele>584.0</ele>
        <time>2010-08-26T13:16:29Z</time>
      </trkpt>
      <trkpt lat="41.780233" lon="-8.168333">
        <ele>584.0</ele>
        <time>2010-08-26T13:16:30Z</time>
      </trkpt>
      <trkpt lat="41.780183" lon="-8.168400">
        <ele>584.0</ele>
        <time>2010-08-26T13:16:31Z</time>
      </trkpt>
      <trkpt lat="41.780150" lon="-8.168450">
        <ele>584.0</ele>
        <time>2010-08-26T13:16:32Z</time>
      </trkpt>
      <trkpt lat="41.780100" lon="-8.168500">
        <ele>584.0</ele>
        <time>2010-08-26T13:16:33Z</time>
      </trkpt>
      <trkpt lat="41.780050" lon="-8.168550">
        <ele>584.0</ele>
        <time>2010-08-26T13:16:34Z</time>
      </trkpt>
      <trkpt lat="41.780000" lon="-8.168583">
        <ele>584.0</ele>
        <time>2010-08-26T13:16:35Z</time>
      </trkpt>
      <trkpt lat="41.779950" lon="-8.168617">
        <ele>584.0</ele>
        <time>2010-08-26T13:16:36Z</time>
      </trkpt>
      <trkpt lat="41.779900" lon="-8.168633">
        <ele>584.0</ele>
        <time>2010-08-26T13:16:37Z</time>
      </trkpt>
      <trkpt lat="41.779850" lon="-8.168667">
        <ele>584.0</ele>
        <time>2010-08-26T13:16:38Z</time>
      </trkpt>
      <trkpt lat="41.779800" lon="-8.168717">
        <ele>584.0</ele>
        <time>2010-08-26T13:16:39Z</time>
      </trkpt>
      <trkpt lat="41.779750" lon="-8.168783">
        <ele>584.0</ele>
        <time>2010-08-26T13:16:40Z</time>
      </trkpt>
      <trkpt lat="41.779717" lon="-8.168850">
        <ele>584.0</ele>
        <time>2010-08-26T13:16:41Z</time>
      </trkpt>
      <trkpt lat="41.779683" lon="-8.168933">
        <ele>584.0</ele>
        <time>2010-08-26T13:16:42Z</time>
      </trkpt>
      <trkpt lat="41.779667" lon="-8.169000">
        <ele>584.0</ele>
        <time>2010-08-26T13:16:43Z</time>
      </trkpt>
      <trkpt lat="41.779667" lon="-8.169067">
        <ele>584.0</ele>
        <time>2010-08-26T13:16:44Z</time>
      </trkpt>
      <trkpt lat="41.779667" lon="-8.169133">
        <ele>584.0</ele>
        <time>2010-08-26T13:16:45Z</time>
      </trkpt>
      <trkpt lat="41.779667" lon="-8.169200">
        <ele>583.0</ele>
        <time>2010-08-26T13:16:46Z</time>
      </trkpt>
      <trkpt lat="41.779650" lon="-8.169250">
        <ele>583.0</ele>
        <time>2010-08-26T13:16:47Z</time>
      </trkpt>
      <trkpt lat="41.779650" lon="-8.169317">
        <ele>583.0</ele>
        <time>2010-08-26T13:16:48Z</time>
      </trkpt>
      <trkpt lat="41.779650" lon="-8.169367">
        <ele>583.0</ele>
        <time>2010-08-26T13:16:49Z</time>
      </trkpt>
      <trkpt lat="41.779633" lon="-8.169417">
        <ele>583.0</ele>
        <time>2010-08-26T13:16:50Z</time>
      </trkpt>
      <trkpt lat="41.779617" lon="-8.169467">
        <ele>583.0</ele>
        <time>2010-08-26T13:16:51Z</time>
      </trkpt>
      <trkpt lat="41.779600" lon="-8.169517">
        <ele>583.0</ele>
        <time>2010-08-26T13:16:52Z</time>
      </trkpt>
      <trkpt lat="41.779583" lon="-8.169550">
        <ele>583.0</ele>
        <time>2010-08-26T13:16:53Z</time>
      </trkpt>
      <trkpt lat="41.779550" lon="-8.169600">
        <ele>583.0</ele>
        <time>2010-08-26T13:16:54Z</time>
      </trkpt>
      <trkpt lat="41.779517" lon="-8.169633">
        <ele>583.0</ele>
        <time>2010-08-26T13:16:55Z</time>
      </trkpt>
      <trkpt lat="41.779483" lon="-8.169650">
        <ele>583.0</ele>
        <time>2010-08-26T13:16:56Z</time>
      </trkpt>
      <trkpt lat="41.779467" lon="-8.169667">
        <ele>584.0</ele>
        <time>2010-08-26T13:16:57Z</time>
      </trkpt>
      <trkpt lat="41.779417" lon="-8.169683">
        <ele>584.0</ele>
        <time>2010-08-26T13:16:58Z</time>
      </trkpt>
      <trkpt lat="41.779383" lon="-8.169700">
        <ele>584.0</ele>
        <time>2010-08-26T13:16:59Z</time>
      </trkpt>
      <trkpt lat="41.779350" lon="-8.169733">
        <ele>584.0</ele>
        <time>2010-08-26T13:17:00Z</time>
      </trkpt>
      <trkpt lat="41.779317" lon="-8.169767">
        <ele>584.0</ele>
        <time>2010-08-26T13:17:01Z</time>
      </trkpt>
      <trkpt lat="41.779283" lon="-8.169800">
        <ele>584.0</ele>
        <time>2010-08-26T13:17:02Z</time>
      </trkpt>
      <trkpt lat="41.779250" lon="-8.169833">
        <ele>584.0</ele>
        <time>2010-08-26T13:17:03Z</time>
      </trkpt>
      <trkpt lat="41.779233" lon="-8.169883">
        <ele>585.0</ele>
        <time>2010-08-26T13:17:04Z</time>
      </trkpt>
      <trkpt lat="41.779233" lon="-8.169950">
        <ele>585.0</ele>
        <time>2010-08-26T13:17:05Z</time>
      </trkpt>
      <trkpt lat="41.779217" lon="-8.170000">
        <ele>585.0</ele>
        <time>2010-08-26T13:17:06Z</time>
      </trkpt>
      <trkpt lat="41.779200" lon="-8.170067">
        <ele>586.0</ele>
        <time>2010-08-26T13:17:07Z</time>
      </trkpt>
      <trkpt lat="41.779200" lon="-8.170117">
        <ele>586.0</ele>
        <time>2010-08-26T13:17:08Z</time>
      </trkpt>
      <trkpt lat="41.779183" lon="-8.170183">
        <ele>587.0</ele>
        <time>2010-08-26T13:17:09Z</time>
      </trkpt>
      <trkpt lat="41.779183" lon="-8.170250">
        <ele>587.0</ele>
        <time>2010-08-26T13:17:10Z</time>
      </trkpt>
      <trkpt lat="41.779183" lon="-8.170317">
        <ele>587.0</ele>
        <time>2010-08-26T13:17:11Z</time>
      </trkpt>
      <trkpt lat="41.779167" lon="-8.170383">
        <ele>587.0</ele>
        <time>2010-08-26T13:17:12Z</time>
      </trkpt>
      <trkpt lat="41.779150" lon="-8.170433">
        <ele>587.0</ele>
        <time>2010-08-26T13:17:13Z</time>
      </trkpt>
      <trkpt lat="41.779117" lon="-8.170500">
        <ele>586.0</ele>
        <time>2010-08-26T13:17:14Z</time>
      </trkpt>
      <trkpt lat="41.779083" lon="-8.170550">
        <ele>586.0</ele>
        <time>2010-08-26T13:17:15Z</time>
      </trkpt>
      <trkpt lat="41.779050" lon="-8.170600">
        <ele>586.0</ele>
        <time>2010-08-26T13:17:16Z</time>
      </trkpt>
      <trkpt lat="41.779017" lon="-8.170633">
        <ele>586.0</ele>
        <time>2010-08-26T13:17:17Z</time>
      </trkpt>
      <trkpt lat="41.778983" lon="-8.170667">
        <ele>586.0</ele>
        <time>2010-08-26T13:17:18Z</time>
      </trkpt>
      <trkpt lat="41.778933" lon="-8.170700">
        <ele>585.0</ele>
        <time>2010-08-26T13:17:19Z</time>
      </trkpt>
      <trkpt lat="41.778900" lon="-8.170733">
        <ele>585.0</ele>
        <time>2010-08-26T13:17:20Z</time>
      </trkpt>
      <trkpt lat="41.778850" lon="-8.170750">
        <ele>585.0</ele>
        <time>2010-08-26T13:17:21Z</time>
      </trkpt>
      <trkpt lat="41.778817" lon="-8.170767">
        <ele>585.0</ele>
        <time>2010-08-26T13:17:22Z</time>
      </trkpt>
      <trkpt lat="41.778783" lon="-8.170783">
        <ele>585.0</ele>
        <time>2010-08-26T13:17:23Z</time>
      </trkpt>
      <trkpt lat="41.778750" lon="-8.170800">
        <ele>585.0</ele>
        <time>2010-08-26T13:17:24Z</time>
      </trkpt>
      <trkpt lat="41.778717" lon="-8.170850">
        <ele>584.0</ele>
        <time>2010-08-26T13:17:26Z</time>
      </trkpt>
      <trkpt lat="41.778733" lon="-8.170867">
        <ele>584.0</ele>
        <time>2010-08-26T13:17:30Z</time>
      </trkpt>
      <trkpt lat="41.778767" lon="-8.170867">
        <ele>584.0</ele>
        <time>2010-08-26T13:17:31Z</time>
      </trkpt>
      <trkpt lat="41.778783" lon="-8.170850">
        <ele>583.0</ele>
        <time>2010-08-26T13:17:32Z</time>
      </trkpt>
      <trkpt lat="41.778817" lon="-8.170850">
        <ele>583.0</ele>
        <time>2010-08-26T13:17:33Z</time>
      </trkpt>
      <trkpt lat="41.778850" lon="-8.170833">
        <ele>583.0</ele>
        <time>2010-08-26T13:17:34Z</time>
      </trkpt>
      <trkpt lat="41.778883" lon="-8.170833">
        <ele>582.0</ele>
        <time>2010-08-26T13:17:35Z</time>
      </trkpt>
      <trkpt lat="41.778917" lon="-8.170817">
        <ele>582.0</ele>
        <time>2010-08-26T13:17:36Z</time>
      </trkpt>
      <trkpt lat="41.778933" lon="-8.170800">
        <ele>581.0</ele>
        <time>2010-08-26T13:17:37Z</time>
      </trkpt>
      <trkpt lat="41.778967" lon="-8.170800">
        <ele>581.0</ele>
        <time>2010-08-26T13:17:38Z</time>
      </trkpt>
      <trkpt lat="41.779000" lon="-8.170783">
        <ele>580.0</ele>
        <time>2010-08-26T13:17:39Z</time>
      </trkpt>
      <trkpt lat="41.779033" lon="-8.170767">
        <ele>580.0</ele>
        <time>2010-08-26T13:17:40Z</time>
      </trkpt>
      <trkpt lat="41.779067" lon="-8.170750">
        <ele>579.0</ele>
        <time>2010-08-26T13:17:41Z</time>
      </trkpt>
      <trkpt lat="41.779100" lon="-8.170733">
        <ele>579.0</ele>
        <time>2010-08-26T13:17:42Z</time>
      </trkpt>
      <trkpt lat="41.779133" lon="-8.170717">
        <ele>578.0</ele>
        <time>2010-08-26T13:17:43Z</time>
      </trkpt>
      <trkpt lat="41.779167" lon="-8.170700">
        <ele>578.0</ele>
        <time>2010-08-26T13:17:44Z</time>
      </trkpt>
      <trkpt lat="41.779217" lon="-8.170700">
        <ele>577.0</ele>
        <time>2010-08-26T13:17:45Z</time>
      </trkpt>
      <trkpt lat="41.779250" lon="-8.170700">
        <ele>576.0</ele>
        <time>2010-08-26T13:17:46Z</time>
      </trkpt>
      <trkpt lat="41.779283" lon="-8.170717">
        <ele>576.0</ele>
        <time>2010-08-26T13:17:47Z</time>
      </trkpt>
      <trkpt lat="41.779300" lon="-8.170733">
        <ele>575.0</ele>
        <time>2010-08-26T13:17:48Z</time>
      </trkpt>
      <trkpt lat="41.779317" lon="-8.170783">
        <ele>574.0</ele>
        <time>2010-08-26T13:17:50Z</time>
      </trkpt>
      <trkpt lat="41.779300" lon="-8.170817">
        <ele>573.0</ele>
        <time>2010-08-26T13:17:52Z</time>
      </trkpt>
      <trkpt lat="41.779267" lon="-8.170850">
        <ele>573.0</ele>
        <time>2010-08-26T13:17:54Z</time>
      </trkpt>
      <trkpt lat="41.779250" lon="-8.170867">
        <ele>572.0</ele>
        <time>2010-08-26T13:17:55Z</time>
      </trkpt>
      <trkpt lat="41.779233" lon="-8.170883">
        <ele>572.0</ele>
        <time>2010-08-26T13:17:56Z</time>
      </trkpt>
      <trkpt lat="41.779200" lon="-8.170900">
        <ele>572.0</ele>
        <time>2010-08-26T13:17:57Z</time>
      </trkpt>
      <trkpt lat="41.779167" lon="-8.170917">
        <ele>572.0</ele>
        <time>2010-08-26T13:17:58Z</time>
      </trkpt>
      <trkpt lat="41.779150" lon="-8.170933">
        <ele>572.0</ele>
        <time>2010-08-26T13:17:59Z</time>
      </trkpt>
      <trkpt lat="41.779117" lon="-8.170950">
        <ele>572.0</ele>
        <time>2010-08-26T13:18:00Z</time>
      </trkpt>
      <trkpt lat="41.779100" lon="-8.170983">
        <ele>572.0</ele>
        <time>2010-08-26T13:18:01Z</time>
      </trkpt>
      <trkpt lat="41.779067" lon="-8.171000">
        <ele>571.0</ele>
        <time>2010-08-26T13:18:02Z</time>
      </trkpt>
      <trkpt lat="41.779033" lon="-8.171017">
        <ele>571.0</ele>
        <time>2010-08-26T13:18:03Z</time>
      </trkpt>
      <trkpt lat="41.779017" lon="-8.171033">
        <ele>571.0</ele>
        <time>2010-08-26T13:18:04Z</time>
      </trkpt>
      <trkpt lat="41.778983" lon="-8.171050">
        <ele>571.0</ele>
        <time>2010-08-26T13:18:05Z</time>
      </trkpt>
      <trkpt lat="41.778950" lon="-8.171067">
        <ele>571.0</ele>
        <time>2010-08-26T13:18:06Z</time>
      </trkpt>
      <trkpt lat="41.778933" lon="-8.171100">
        <ele>571.0</ele>
        <time>2010-08-26T13:18:07Z</time>
      </trkpt>
      <trkpt lat="41.778917" lon="-8.171117">
        <ele>571.0</ele>
        <time>2010-08-26T13:18:08Z</time>
      </trkpt>
      <trkpt lat="41.778883" lon="-8.171167">
        <ele>571.0</ele>
        <time>2010-08-26T13:18:10Z</time>
      </trkpt>
      <trkpt lat="41.778883" lon="-8.171217">
        <ele>570.0</ele>
        <time>2010-08-26T13:18:19Z</time>
      </trkpt>
      <trkpt lat="41.778917" lon="-8.171233">
        <ele>570.0</ele>
        <time>2010-08-26T13:18:21Z</time>
      </trkpt>
      <trkpt lat="41.778950" lon="-8.171283">
        <ele>569.0</ele>
        <time>2010-08-26T13:18:23Z</time>
      </trkpt>
      <trkpt lat="41.778967" lon="-8.171300">
        <ele>568.0</ele>
        <time>2010-08-26T13:18:25Z</time>
      </trkpt>
      <trkpt lat="41.778983" lon="-8.171317">
        <ele>568.0</ele>
        <time>2010-08-26T13:18:26Z</time>
      </trkpt>
      <trkpt lat="41.779017" lon="-8.171333">
        <ele>567.0</ele>
        <time>2010-08-26T13:18:27Z</time>
      </trkpt>
      <trkpt lat="41.779033" lon="-8.171350">
        <ele>567.0</ele>
        <time>2010-08-26T13:18:28Z</time>
      </trkpt>
      <trkpt lat="41.779050" lon="-8.171383">
        <ele>566.0</ele>
        <time>2010-08-26T13:18:29Z</time>
      </trkpt>
      <trkpt lat="41.779083" lon="-8.171400">
        <ele>565.0</ele>
        <time>2010-08-26T13:18:30Z</time>
      </trkpt>
      <trkpt lat="41.779100" lon="-8.171400">
        <ele>565.0</ele>
        <time>2010-08-26T13:18:31Z</time>
      </trkpt>
      <trkpt lat="41.779133" lon="-8.171417">
        <ele>564.0</ele>
        <time>2010-08-26T13:18:32Z</time>
      </trkpt>
      <trkpt lat="41.779150" lon="-8.171433">
        <ele>564.0</ele>
        <time>2010-08-26T13:18:33Z</time>
      </trkpt>
      <trkpt lat="41.779167" lon="-8.171467">
        <ele>563.0</ele>
        <time>2010-08-26T13:18:34Z</time>
      </trkpt>
      <trkpt lat="41.779183" lon="-8.171517">
        <ele>562.0</ele>
        <time>2010-08-26T13:18:36Z</time>
      </trkpt>
      <trkpt lat="41.779183" lon="-8.171567">
        <ele>562.0</ele>
        <time>2010-08-26T13:18:42Z</time>
      </trkpt>
      <trkpt lat="41.779183" lon="-8.171617">
        <ele>562.0</ele>
        <time>2010-08-26T13:19:20Z</time>
      </trkpt>
      <trkpt lat="41.779200" lon="-8.171667">
        <ele>562.0</ele>
        <time>2010-08-26T13:19:24Z</time>
      </trkpt>
      <trkpt lat="41.779200" lon="-8.171733">
        <ele>565.0</ele>
        <time>2010-08-26T13:19:55Z</time>
      </trkpt>
      <trkpt lat="41.779200" lon="-8.171783">
        <ele>566.0</ele>
        <time>2010-08-26T13:20:00Z</time>
      </trkpt>
      <trkpt lat="41.779200" lon="-8.171733">
        <ele>563.0</ele>
        <time>2010-08-26T13:21:17Z</time>
      </trkpt>
      <trkpt lat="41.779200" lon="-8.171683">
        <ele>563.0</ele>
        <time>2010-08-26T13:21:22Z</time>
      </trkpt>
      <trkpt lat="41.779200" lon="-8.171617">
        <ele>560.0</ele>
        <time>2010-08-26T13:22:05Z</time>
      </trkpt>
      <trkpt lat="41.779183" lon="-8.171567">
        <ele>560.0</ele>
        <time>2010-08-26T13:22:14Z</time>
      </trkpt>
      <trkpt lat="41.779183" lon="-8.171517">
        <ele>560.0</ele>
        <time>2010-08-26T13:22:18Z</time>
      </trkpt>
      <trkpt lat="41.779150" lon="-8.171483">
        <ele>560.0</ele>
        <time>2010-08-26T13:22:22Z</time>
      </trkpt>
      <trkpt lat="41.779117" lon="-8.171450">
        <ele>561.0</ele>
        <time>2010-08-26T13:22:28Z</time>
      </trkpt>
      <trkpt lat="41.779100" lon="-8.171400">
        <ele>562.0</ele>
        <time>2010-08-26T13:22:33Z</time>
      </trkpt>
      <trkpt lat="41.779067" lon="-8.171367">
        <ele>563.0</ele>
        <time>2010-08-26T13:22:41Z</time>
      </trkpt>
      <trkpt lat="41.779050" lon="-8.171333">
        <ele>561.0</ele>
        <time>2010-08-26T13:23:14Z</time>
      </trkpt>
      <trkpt lat="41.779000" lon="-8.171300">
        <ele>562.0</ele>
        <time>2010-08-26T13:23:21Z</time>
      </trkpt>
      <trkpt lat="41.778967" lon="-8.171267">
        <ele>563.0</ele>
        <time>2010-08-26T13:23:29Z</time>
      </trkpt>
      <trkpt lat="41.778933" lon="-8.171233">
        <ele>565.0</ele>
        <time>2010-08-26T13:23:40Z</time>
      </trkpt>
      <trkpt lat="41.778917" lon="-8.171183">
        <ele>566.0</ele>
        <time>2010-08-26T13:23:51Z</time>
      </trkpt>
      <trkpt lat="41.778933" lon="-8.171133">
        <ele>567.0</ele>
        <time>2010-08-26T13:24:06Z</time>
      </trkpt>
      <trkpt lat="41.778900" lon="-8.171167">
        <ele>567.0</ele>
        <time>2010-08-26T13:24:27Z</time>
      </trkpt>
      <trkpt lat="41.778883" lon="-8.171200">
        <ele>567.0</ele>
        <time>2010-08-26T13:24:29Z</time>
      </trkpt>
      <trkpt lat="41.778883" lon="-8.171233">
        <ele>567.0</ele>
        <time>2010-08-26T13:24:30Z</time>
      </trkpt>
      <trkpt lat="41.778867" lon="-8.171267">
        <ele>567.0</ele>
        <time>2010-08-26T13:24:31Z</time>
      </trkpt>
      <trkpt lat="41.778867" lon="-8.171300">
        <ele>567.0</ele>
        <time>2010-08-26T13:24:32Z</time>
      </trkpt>
      <trkpt lat="41.778867" lon="-8.171350">
        <ele>567.0</ele>
        <time>2010-08-26T13:24:33Z</time>
      </trkpt>
      <trkpt lat="41.778883" lon="-8.171383">
        <ele>567.0</ele>
        <time>2010-08-26T13:24:34Z</time>
      </trkpt>
      <trkpt lat="41.778883" lon="-8.171417">
        <ele>567.0</ele>
        <time>2010-08-26T13:24:35Z</time>
      </trkpt>
      <trkpt lat="41.778883" lon="-8.171467">
        <ele>567.0</ele>
        <time>2010-08-26T13:24:36Z</time>
      </trkpt>
      <trkpt lat="41.778883" lon="-8.171500">
        <ele>567.0</ele>
        <time>2010-08-26T13:24:37Z</time>
      </trkpt>
      <trkpt lat="41.778867" lon="-8.171533">
        <ele>567.0</ele>
        <time>2010-08-26T13:24:38Z</time>
      </trkpt>
      <trkpt lat="41.778867" lon="-8.171583">
        <ele>567.0</ele>
        <time>2010-08-26T13:24:40Z</time>
      </trkpt>
      <trkpt lat="41.778867" lon="-8.171633">
        <ele>567.0</ele>
        <time>2010-08-26T13:24:42Z</time>
      </trkpt>
      <trkpt lat="41.778850" lon="-8.171700">
        <ele>567.0</ele>
        <time>2010-08-26T13:24:44Z</time>
      </trkpt>
      <trkpt lat="41.778883" lon="-8.171650">
        <ele>566.0</ele>
        <time>2010-08-26T13:27:06Z</time>
      </trkpt>
      <trkpt lat="41.778883" lon="-8.171583">
        <ele>566.0</ele>
        <time>2010-08-26T13:27:09Z</time>
      </trkpt>
      <trkpt lat="41.778883" lon="-8.171550">
        <ele>566.0</ele>
        <time>2010-08-26T13:27:11Z</time>
      </trkpt>
      <trkpt lat="41.778883" lon="-8.171500">
        <ele>566.0</ele>
        <time>2010-08-26T13:27:13Z</time>
      </trkpt>
      <trkpt lat="41.778883" lon="-8.171450">
        <ele>566.0</ele>
        <time>2010-08-26T13:27:15Z</time>
      </trkpt>
      <trkpt lat="41.778883" lon="-8.171400">
        <ele>566.0</ele>
        <time>2010-08-26T13:27:17Z</time>
      </trkpt>
      <trkpt lat="41.778883" lon="-8.171350">
        <ele>566.0</ele>
        <time>2010-08-26T13:27:19Z</time>
      </trkpt>
      <trkpt lat="41.778883" lon="-8.171300">
        <ele>567.0</ele>
        <time>2010-08-26T13:27:21Z</time>
      </trkpt>
      <trkpt lat="41.778883" lon="-8.171250">
        <ele>567.0</ele>
        <time>2010-08-26T13:27:23Z</time>
      </trkpt>
      <trkpt lat="41.778900" lon="-8.171200">
        <ele>567.0</ele>
        <time>2010-08-26T13:27:25Z</time>
      </trkpt>
      <trkpt lat="41.778917" lon="-8.171167">
        <ele>567.0</ele>
        <time>2010-08-26T13:27:28Z</time>
      </trkpt>
      <trkpt lat="41.778950" lon="-8.171117">
        <ele>568.0</ele>
        <time>2010-08-26T13:27:31Z</time>
      </trkpt>
      <trkpt lat="41.778967" lon="-8.171083">
        <ele>567.0</ele>
        <time>2010-08-26T13:27:33Z</time>
      </trkpt>
      <trkpt lat="41.779000" lon="-8.171050">
        <ele>568.0</ele>
        <time>2010-08-26T13:27:35Z</time>
      </trkpt>
      <trkpt lat="41.779033" lon="-8.171017">
        <ele>568.0</ele>
        <time>2010-08-26T13:27:37Z</time>
      </trkpt>
      <trkpt lat="41.779067" lon="-8.171000">
        <ele>568.0</ele>
        <time>2010-08-26T13:27:39Z</time>
      </trkpt>
      <trkpt lat="41.779100" lon="-8.170983">
        <ele>568.0</ele>
        <time>2010-08-26T13:27:41Z</time>
      </trkpt>
      <trkpt lat="41.779133" lon="-8.170967">
        <ele>568.0</ele>
        <time>2010-08-26T13:27:43Z</time>
      </trkpt>
      <trkpt lat="41.779183" lon="-8.170933">
        <ele>568.0</ele>
        <time>2010-08-26T13:27:45Z</time>
      </trkpt>
      <trkpt lat="41.779217" lon="-8.170917">
        <ele>568.0</ele>
        <time>2010-08-26T13:27:47Z</time>
      </trkpt>
      <trkpt lat="41.779250" lon="-8.170883">
        <ele>568.0</ele>
        <time>2010-08-26T13:27:49Z</time>
      </trkpt>
      <trkpt lat="41.779283" lon="-8.170867">
        <ele>568.0</ele>
        <time>2010-08-26T13:27:51Z</time>
      </trkpt>
      <trkpt lat="41.779317" lon="-8.170833">
        <ele>568.0</ele>
        <time>2010-08-26T13:27:53Z</time>
      </trkpt>
      <trkpt lat="41.779333" lon="-8.170800">
        <ele>568.0</ele>
        <time>2010-08-26T13:27:55Z</time>
      </trkpt>
      <trkpt lat="41.779350" lon="-8.170750">
        <ele>568.0</ele>
        <time>2010-08-26T13:27:58Z</time>
      </trkpt>
      <trkpt lat="41.779317" lon="-8.170717">
        <ele>569.0</ele>
        <time>2010-08-26T13:28:05Z</time>
      </trkpt>
      <trkpt lat="41.779283" lon="-8.170717">
        <ele>569.0</ele>
        <time>2010-08-26T13:28:10Z</time>
      </trkpt>
      <trkpt lat="41.779233" lon="-8.170717">
        <ele>572.0</ele>
        <time>2010-08-26T13:28:24Z</time>
      </trkpt>
      <trkpt lat="41.779200" lon="-8.170733">
        <ele>574.0</ele>
        <time>2010-08-26T13:28:30Z</time>
      </trkpt>
      <trkpt lat="41.779167" lon="-8.170733">
        <ele>575.0</ele>
        <time>2010-08-26T13:28:35Z</time>
      </trkpt>
      <trkpt lat="41.779133" lon="-8.170750">
        <ele>576.0</ele>
        <time>2010-08-26T13:28:38Z</time>
      </trkpt>
      <trkpt lat="41.779100" lon="-8.170767">
        <ele>576.0</ele>
        <time>2010-08-26T13:28:40Z</time>
      </trkpt>
      <trkpt lat="41.779067" lon="-8.170783">
        <ele>577.0</ele>
        <time>2010-08-26T13:28:42Z</time>
      </trkpt>
      <trkpt lat="41.779033" lon="-8.170800">
        <ele>577.0</ele>
        <time>2010-08-26T13:28:44Z</time>
      </trkpt>
      <trkpt lat="41.779000" lon="-8.170800">
        <ele>577.0</ele>
        <time>2010-08-26T13:28:46Z</time>
      </trkpt>
      <trkpt lat="41.778983" lon="-8.170817">
        <ele>578.0</ele>
        <time>2010-08-26T13:28:48Z</time>
      </trkpt>
      <trkpt lat="41.778950" lon="-8.170850">
        <ele>578.0</ele>
        <time>2010-08-26T13:28:50Z</time>
      </trkpt>
      <trkpt lat="41.778900" lon="-8.170867">
        <ele>579.0</ele>
        <time>2010-08-26T13:28:53Z</time>
      </trkpt>
      <trkpt lat="41.778867" lon="-8.170867">
        <ele>580.0</ele>
        <time>2010-08-26T13:28:56Z</time>
      </trkpt>
      <trkpt lat="41.778833" lon="-8.170883">
        <ele>580.0</ele>
        <time>2010-08-26T13:28:59Z</time>
      </trkpt>
      <trkpt lat="41.778800" lon="-8.170883">
        <ele>582.0</ele>
        <time>2010-08-26T13:29:03Z</time>
      </trkpt>
      <trkpt lat="41.778750" lon="-8.170900">
        <ele>582.0</ele>
        <time>2010-08-26T13:29:07Z</time>
      </trkpt>
      <trkpt lat="41.778717" lon="-8.170883">
        <ele>583.0</ele>
        <time>2010-08-26T13:29:12Z</time>
      </trkpt>
      <trkpt lat="41.778683" lon="-8.170867">
        <ele>583.0</ele>
        <time>2010-08-26T13:29:15Z</time>
      </trkpt>
      <trkpt lat="41.778650" lon="-8.170883">
        <ele>583.0</ele>
        <time>2010-08-26T13:29:17Z</time>
      </trkpt>
      <trkpt lat="41.778600" lon="-8.170900">
        <ele>582.0</ele>
        <time>2010-08-26T13:29:31Z</time>
      </trkpt>
      <trkpt lat="41.778567" lon="-8.170900">
        <ele>582.0</ele>
        <time>2010-08-26T13:29:34Z</time>
      </trkpt>
      <trkpt lat="41.778533" lon="-8.170917">
        <ele>582.0</ele>
        <time>2010-08-26T13:29:36Z</time>
      </trkpt>
      <trkpt lat="41.778483" lon="-8.170933">
        <ele>582.0</ele>
        <time>2010-08-26T13:29:38Z</time>
      </trkpt>
      <trkpt lat="41.778450" lon="-8.170950">
        <ele>582.0</ele>
        <time>2010-08-26T13:29:40Z</time>
      </trkpt>
      <trkpt lat="41.778417" lon="-8.170950">
        <ele>582.0</ele>
        <time>2010-08-26T13:29:41Z</time>
      </trkpt>
      <trkpt lat="41.778400" lon="-8.170967">
        <ele>582.0</ele>
        <time>2010-08-26T13:29:42Z</time>
      </trkpt>
      <trkpt lat="41.778383" lon="-8.170967">
        <ele>582.0</ele>
        <time>2010-08-26T13:29:43Z</time>
      </trkpt>
      <trkpt lat="41.778333" lon="-8.170983">
        <ele>582.0</ele>
        <time>2010-08-26T13:29:45Z</time>
      </trkpt>
      <trkpt lat="41.778300" lon="-8.170983">
        <ele>582.0</ele>
        <time>2010-08-26T13:29:47Z</time>
      </trkpt>
      <trkpt lat="41.778250" lon="-8.171000">
        <ele>583.0</ele>
        <time>2010-08-26T13:29:49Z</time>
      </trkpt>
      <trkpt lat="41.778233" lon="-8.171017">
        <ele>583.0</ele>
        <time>2010-08-26T13:29:50Z</time>
      </trkpt>
      <trkpt lat="41.778200" lon="-8.171017">
        <ele>583.0</ele>
        <time>2010-08-26T13:29:51Z</time>
      </trkpt>
      <trkpt lat="41.778183" lon="-8.171033">
        <ele>583.0</ele>
        <time>2010-08-26T13:29:52Z</time>
      </trkpt>
      <trkpt lat="41.778150" lon="-8.171033">
        <ele>583.0</ele>
        <time>2010-08-26T13:29:53Z</time>
      </trkpt>
      <trkpt lat="41.778133" lon="-8.171050">
        <ele>583.0</ele>
        <time>2010-08-26T13:29:54Z</time>
      </trkpt>
      <trkpt lat="41.778100" lon="-8.171050">
        <ele>584.0</ele>
        <time>2010-08-26T13:29:55Z</time>
      </trkpt>
      <trkpt lat="41.778083" lon="-8.171067">
        <ele>584.0</ele>
        <time>2010-08-26T13:29:56Z</time>
      </trkpt>
      <trkpt lat="41.778050" lon="-8.171067">
        <ele>584.0</ele>
        <time>2010-08-26T13:29:57Z</time>
      </trkpt>
      <trkpt lat="41.778017" lon="-8.171067">
        <ele>584.0</ele>
        <time>2010-08-26T13:29:58Z</time>
      </trkpt>
      <trkpt lat="41.778000" lon="-8.171083">
        <ele>585.0</ele>
        <time>2010-08-26T13:29:59Z</time>
      </trkpt>
      <trkpt lat="41.777967" lon="-8.171083">
        <ele>585.0</ele>
        <time>2010-08-26T13:30:00Z</time>
      </trkpt>
      <trkpt lat="41.777933" lon="-8.171100">
        <ele>585.0</ele>
        <time>2010-08-26T13:30:01Z</time>
      </trkpt>
      <trkpt lat="41.777900" lon="-8.171100">
        <ele>585.0</ele>
        <time>2010-08-26T13:30:02Z</time>
      </trkpt>
      <trkpt lat="41.777867" lon="-8.171100">
        <ele>586.0</ele>
        <time>2010-08-26T13:30:03Z</time>
      </trkpt>
      <trkpt lat="41.777850" lon="-8.171117">
        <ele>586.0</ele>
        <time>2010-08-26T13:30:04Z</time>
      </trkpt>
      <trkpt lat="41.777817" lon="-8.171117">
        <ele>586.0</ele>
        <time>2010-08-26T13:30:05Z</time>
      </trkpt>
      <trkpt lat="41.777783" lon="-8.171133">
        <ele>586.0</ele>
        <time>2010-08-26T13:30:06Z</time>
      </trkpt>
      <trkpt lat="41.777750" lon="-8.171133">
        <ele>586.0</ele>
        <time>2010-08-26T13:30:07Z</time>
      </trkpt>
      <trkpt lat="41.777733" lon="-8.171150">
        <ele>587.0</ele>
        <time>2010-08-26T13:30:08Z</time>
      </trkpt>
      <trkpt lat="41.777700" lon="-8.171150">
        <ele>587.0</ele>
        <time>2010-08-26T13:30:09Z</time>
      </trkpt>
      <trkpt lat="41.777667" lon="-8.171150">
        <ele>587.0</ele>
        <time>2010-08-26T13:30:10Z</time>
      </trkpt>
      <trkpt lat="41.777650" lon="-8.171167">
        <ele>587.0</ele>
        <time>2010-08-26T13:30:11Z</time>
      </trkpt>
      <trkpt lat="41.777617" lon="-8.171167">
        <ele>587.0</ele>
        <time>2010-08-26T13:30:12Z</time>
      </trkpt>
      <trkpt lat="41.777583" lon="-8.171183">
        <ele>588.0</ele>
        <time>2010-08-26T13:30:13Z</time>
      </trkpt>
      <trkpt lat="41.777550" lon="-8.171183">
        <ele>588.0</ele>
        <time>2010-08-26T13:30:14Z</time>
      </trkpt>
      <trkpt lat="41.777517" lon="-8.171200">
        <ele>588.0</ele>
        <time>2010-08-26T13:30:15Z</time>
      </trkpt>
      <trkpt lat="41.777500" lon="-8.171200">
        <ele>588.0</ele>
        <time>2010-08-26T13:30:16Z</time>
      </trkpt>
      <trkpt lat="41.777467" lon="-8.171200">
        <ele>588.0</ele>
        <time>2010-08-26T13:30:17Z</time>
      </trkpt>
      <trkpt lat="41.777433" lon="-8.171217">
        <ele>588.0</ele>
        <time>2010-08-26T13:30:18Z</time>
      </trkpt>
      <trkpt lat="41.777400" lon="-8.171217">
        <ele>588.0</ele>
        <time>2010-08-26T13:30:19Z</time>
      </trkpt>
      <trkpt lat="41.777367" lon="-8.171233">
        <ele>588.0</ele>
        <time>2010-08-26T13:30:20Z</time>
      </trkpt>
      <trkpt lat="41.777350" lon="-8.171233">
        <ele>588.0</ele>
        <time>2010-08-26T13:30:21Z</time>
      </trkpt>
      <trkpt lat="41.777317" lon="-8.171233">
        <ele>588.0</ele>
        <time>2010-08-26T13:30:22Z</time>
      </trkpt>
      <trkpt lat="41.777283" lon="-8.171233">
        <ele>588.0</ele>
        <time>2010-08-26T13:30:23Z</time>
      </trkpt>
      <trkpt lat="41.777250" lon="-8.171233">
        <ele>589.0</ele>
        <time>2010-08-26T13:30:24Z</time>
      </trkpt>
      <trkpt lat="41.777217" lon="-8.171233">
        <ele>589.0</ele>
        <time>2010-08-26T13:30:25Z</time>
      </trkpt>
      <trkpt lat="41.777183" lon="-8.171233">
        <ele>589.0</ele>
        <time>2010-08-26T13:30:26Z</time>
      </trkpt>
      <trkpt lat="41.777150" lon="-8.171217">
        <ele>589.0</ele>
        <time>2010-08-26T13:30:27Z</time>
      </trkpt>
      <trkpt lat="41.777117" lon="-8.171200">
        <ele>589.0</ele>
        <time>2010-08-26T13:30:28Z</time>
      </trkpt>
      <trkpt lat="41.777083" lon="-8.171183">
        <ele>590.0</ele>
        <time>2010-08-26T13:30:29Z</time>
      </trkpt>
      <trkpt lat="41.777067" lon="-8.171183">
        <ele>590.0</ele>
        <time>2010-08-26T13:30:30Z</time>
      </trkpt>
      <trkpt lat="41.777033" lon="-8.171167">
        <ele>590.0</ele>
        <time>2010-08-26T13:30:31Z</time>
      </trkpt>
      <trkpt lat="41.777000" lon="-8.171150">
        <ele>591.0</ele>
        <time>2010-08-26T13:30:32Z</time>
      </trkpt>
      <trkpt lat="41.776967" lon="-8.171150">
        <ele>591.0</ele>
        <time>2010-08-26T13:30:33Z</time>
      </trkpt>
      <trkpt lat="41.776933" lon="-8.171133">
        <ele>591.0</ele>
        <time>2010-08-26T13:30:34Z</time>
      </trkpt>
      <trkpt lat="41.776917" lon="-8.171133">
        <ele>591.0</ele>
        <time>2010-08-26T13:30:35Z</time>
      </trkpt>
      <trkpt lat="41.776883" lon="-8.171117">
        <ele>591.0</ele>
        <time>2010-08-26T13:30:36Z</time>
      </trkpt>
      <trkpt lat="41.776833" lon="-8.171100">
        <ele>592.0</ele>
        <time>2010-08-26T13:30:37Z</time>
      </trkpt>
      <trkpt lat="41.776800" lon="-8.171083">
        <ele>592.0</ele>
        <time>2010-08-26T13:30:38Z</time>
      </trkpt>
      <trkpt lat="41.776783" lon="-8.171067">
        <ele>592.0</ele>
        <time>2010-08-26T13:30:39Z</time>
      </trkpt>
      <trkpt lat="41.776750" lon="-8.171067">
        <ele>592.0</ele>
        <time>2010-08-26T13:30:40Z</time>
      </trkpt>
      <trkpt lat="41.776717" lon="-8.171050">
        <ele>592.0</ele>
        <time>2010-08-26T13:30:41Z</time>
      </trkpt>
      <trkpt lat="41.776683" lon="-8.171050">
        <ele>592.0</ele>
        <time>2010-08-26T13:30:42Z</time>
      </trkpt>
      <trkpt lat="41.776650" lon="-8.171050">
        <ele>592.0</ele>
        <time>2010-08-26T13:30:43Z</time>
      </trkpt>
      <trkpt lat="41.776617" lon="-8.171050">
        <ele>592.0</ele>
        <time>2010-08-26T13:30:44Z</time>
      </trkpt>
      <trkpt lat="41.776583" lon="-8.171067">
        <ele>592.0</ele>
        <time>2010-08-26T13:30:45Z</time>
      </trkpt>
      <trkpt lat="41.776550" lon="-8.171067">
        <ele>592.0</ele>
        <time>2010-08-26T13:30:46Z</time>
      </trkpt>
      <trkpt lat="41.776533" lon="-8.171083">
        <ele>591.0</ele>
        <time>2010-08-26T13:30:47Z</time>
      </trkpt>
      <trkpt lat="41.776500" lon="-8.171100">
        <ele>591.0</ele>
        <time>2010-08-26T13:30:48Z</time>
      </trkpt>
      <trkpt lat="41.776483" lon="-8.171100">
        <ele>591.0</ele>
        <time>2010-08-26T13:30:49Z</time>
      </trkpt>
      <trkpt lat="41.776467" lon="-8.171133">
        <ele>591.0</ele>
        <time>2010-08-26T13:30:50Z</time>
      </trkpt>
      <trkpt lat="41.776433" lon="-8.171150">
        <ele>591.0</ele>
        <time>2010-08-26T13:30:51Z</time>
      </trkpt>
      <trkpt lat="41.776417" lon="-8.171167">
        <ele>591.0</ele>
        <time>2010-08-26T13:30:52Z</time>
      </trkpt>
      <trkpt lat="41.776400" lon="-8.171183">
        <ele>591.0</ele>
        <time>2010-08-26T13:30:53Z</time>
      </trkpt>
      <trkpt lat="41.776383" lon="-8.171217">
        <ele>592.0</ele>
        <time>2010-08-26T13:30:54Z</time>
      </trkpt>
      <trkpt lat="41.776350" lon="-8.171233">
        <ele>592.0</ele>
        <time>2010-08-26T13:30:55Z</time>
      </trkpt>
      <trkpt lat="41.776317" lon="-8.171267">
        <ele>593.0</ele>
        <time>2010-08-26T13:30:57Z</time>
      </trkpt>
      <trkpt lat="41.776283" lon="-8.171317">
        <ele>594.0</ele>
        <time>2010-08-26T13:30:59Z</time>
      </trkpt>
      <trkpt lat="41.776267" lon="-8.171350">
        <ele>594.0</ele>
        <time>2010-08-26T13:31:01Z</time>
      </trkpt>
      <trkpt lat="41.776233" lon="-8.171383">
        <ele>595.0</ele>
        <time>2010-08-26T13:31:03Z</time>
      </trkpt>
      <trkpt lat="41.776217" lon="-8.171400">
        <ele>595.0</ele>
        <time>2010-08-26T13:31:04Z</time>
      </trkpt>
      <trkpt lat="41.776183" lon="-8.171433">
        <ele>596.0</ele>
        <time>2010-08-26T13:31:06Z</time>
      </trkpt>
      <trkpt lat="41.776150" lon="-8.171467">
        <ele>597.0</ele>
        <time>2010-08-26T13:31:08Z</time>
      </trkpt>
      <trkpt lat="41.776117" lon="-8.171500">
        <ele>598.0</ele>
        <time>2010-08-26T13:31:10Z</time>
      </trkpt>
      <trkpt lat="41.776083" lon="-8.171517">
        <ele>599.0</ele>
        <time>2010-08-26T13:31:12Z</time>
      </trkpt>
      <trkpt lat="41.776033" lon="-8.171533">
        <ele>599.0</ele>
        <time>2010-08-26T13:31:14Z</time>
      </trkpt>
      <trkpt lat="41.776000" lon="-8.171550">
        <ele>599.0</ele>
        <time>2010-08-26T13:31:16Z</time>
      </trkpt>
      <trkpt lat="41.775967" lon="-8.171567">
        <ele>600.0</ele>
        <time>2010-08-26T13:31:18Z</time>
      </trkpt>
      <trkpt lat="41.775933" lon="-8.171600">
        <ele>600.0</ele>
        <time>2010-08-26T13:31:20Z</time>
      </trkpt>
      <trkpt lat="41.775900" lon="-8.171617">
        <ele>600.0</ele>
        <time>2010-08-26T13:31:23Z</time>
      </trkpt>
      <trkpt lat="41.775883" lon="-8.171650">
        <ele>600.0</ele>
        <time>2010-08-26T13:31:25Z</time>
      </trkpt>
      <trkpt lat="41.775850" lon="-8.171700">
        <ele>601.0</ele>
        <time>2010-08-26T13:31:27Z</time>
      </trkpt>
      <trkpt lat="41.775833" lon="-8.171750">
        <ele>601.0</ele>
        <time>2010-08-26T13:31:29Z</time>
      </trkpt>
      <trkpt lat="41.775800" lon="-8.171800">
        <ele>601.0</ele>
        <time>2010-08-26T13:31:31Z</time>
      </trkpt>
      <trkpt lat="41.775783" lon="-8.171850">
        <ele>602.0</ele>
        <time>2010-08-26T13:31:33Z</time>
      </trkpt>
      <trkpt lat="41.775750" lon="-8.171900">
        <ele>602.0</ele>
        <time>2010-08-26T13:31:35Z</time>
      </trkpt>
      <trkpt lat="41.775733" lon="-8.171950">
        <ele>602.0</ele>
        <time>2010-08-26T13:31:37Z</time>
      </trkpt>
      <trkpt lat="41.775717" lon="-8.172000">
        <ele>602.0</ele>
        <time>2010-08-26T13:31:39Z</time>
      </trkpt>
      <trkpt lat="41.775700" lon="-8.172033">
        <ele>602.0</ele>
        <time>2010-08-26T13:31:41Z</time>
      </trkpt>
      <trkpt lat="41.775683" lon="-8.172067">
        <ele>602.0</ele>
        <time>2010-08-26T13:31:42Z</time>
      </trkpt>
      <trkpt lat="41.775667" lon="-8.172083">
        <ele>602.0</ele>
        <time>2010-08-26T13:31:43Z</time>
      </trkpt>
      <trkpt lat="41.775650" lon="-8.172100">
        <ele>602.0</ele>
        <time>2010-08-26T13:31:44Z</time>
      </trkpt>
      <trkpt lat="41.775633" lon="-8.172133">
        <ele>602.0</ele>
        <time>2010-08-26T13:31:45Z</time>
      </trkpt>
      <trkpt lat="41.775600" lon="-8.172150">
        <ele>602.0</ele>
        <time>2010-08-26T13:31:46Z</time>
      </trkpt>
      <trkpt lat="41.775583" lon="-8.172167">
        <ele>602.0</ele>
        <time>2010-08-26T13:31:47Z</time>
      </trkpt>
      <trkpt lat="41.775567" lon="-8.172183">
        <ele>602.0</ele>
        <time>2010-08-26T13:31:48Z</time>
      </trkpt>
      <trkpt lat="41.775533" lon="-8.172217">
        <ele>601.0</ele>
        <time>2010-08-26T13:31:49Z</time>
      </trkpt>
      <trkpt lat="41.775517" lon="-8.172233">
        <ele>601.0</ele>
        <time>2010-08-26T13:31:50Z</time>
      </trkpt>
      <trkpt lat="41.775500" lon="-8.172250">
        <ele>600.0</ele>
        <time>2010-08-26T13:31:51Z</time>
      </trkpt>
      <trkpt lat="41.775467" lon="-8.172283">
        <ele>600.0</ele>
        <time>2010-08-26T13:31:52Z</time>
      </trkpt>
      <trkpt lat="41.775450" lon="-8.172300">
        <ele>600.0</ele>
        <time>2010-08-26T13:31:53Z</time>
      </trkpt>
      <trkpt lat="41.775417" lon="-8.172333">
        <ele>599.0</ele>
        <time>2010-08-26T13:31:55Z</time>
      </trkpt>
      <trkpt lat="41.775400" lon="-8.172350">
        <ele>598.0</ele>
        <time>2010-08-26T13:31:56Z</time>
      </trkpt>
      <trkpt lat="41.775367" lon="-8.172367">
        <ele>597.0</ele>
        <time>2010-08-26T13:31:57Z</time>
      </trkpt>
      <trkpt lat="41.775350" lon="-8.172400">
        <ele>596.0</ele>
        <time>2010-08-26T13:31:58Z</time>
      </trkpt>
      <trkpt lat="41.775317" lon="-8.172433">
        <ele>596.0</ele>
        <time>2010-08-26T13:31:59Z</time>
      </trkpt>
      <trkpt lat="41.775300" lon="-8.172450">
        <ele>595.0</ele>
        <time>2010-08-26T13:32:00Z</time>
      </trkpt>
      <trkpt lat="41.775283" lon="-8.172467">
        <ele>594.0</ele>
        <time>2010-08-26T13:32:01Z</time>
      </trkpt>
      <trkpt lat="41.775250" lon="-8.172483">
        <ele>594.0</ele>
        <time>2010-08-26T13:32:02Z</time>
      </trkpt>
      <trkpt lat="41.775233" lon="-8.172517">
        <ele>593.0</ele>
        <time>2010-08-26T13:32:03Z</time>
      </trkpt>
      <trkpt lat="41.775217" lon="-8.172533">
        <ele>593.0</ele>
        <time>2010-08-26T13:32:04Z</time>
      </trkpt>
      <trkpt lat="41.775183" lon="-8.172567">
        <ele>592.0</ele>
        <time>2010-08-26T13:32:05Z</time>
      </trkpt>
      <trkpt lat="41.775167" lon="-8.172583">
        <ele>592.0</ele>
        <time>2010-08-26T13:32:06Z</time>
      </trkpt>
      <trkpt lat="41.775133" lon="-8.172617">
        <ele>592.0</ele>
        <time>2010-08-26T13:32:07Z</time>
      </trkpt>
      <trkpt lat="41.775117" lon="-8.172633">
        <ele>592.0</ele>
        <time>2010-08-26T13:32:08Z</time>
      </trkpt>
      <trkpt lat="41.775083" lon="-8.172650">
        <ele>592.0</ele>
        <time>2010-08-26T13:32:09Z</time>
      </trkpt>
      <trkpt lat="41.775067" lon="-8.172667">
        <ele>592.0</ele>
        <time>2010-08-26T13:32:10Z</time>
      </trkpt>
      <trkpt lat="41.775033" lon="-8.172700">
        <ele>592.0</ele>
        <time>2010-08-26T13:32:11Z</time>
      </trkpt>
      <trkpt lat="41.775017" lon="-8.172717">
        <ele>591.0</ele>
        <time>2010-08-26T13:32:12Z</time>
      </trkpt>
      <trkpt lat="41.774983" lon="-8.172733">
        <ele>592.0</ele>
        <time>2010-08-26T13:32:13Z</time>
      </trkpt>
      <trkpt lat="41.774967" lon="-8.172767">
        <ele>592.0</ele>
        <time>2010-08-26T13:32:14Z</time>
      </trkpt>
      <trkpt lat="41.774933" lon="-8.172783">
        <ele>592.0</ele>
        <time>2010-08-26T13:32:15Z</time>
      </trkpt>
      <trkpt lat="41.774917" lon="-8.172800">
        <ele>592.0</ele>
        <time>2010-08-26T13:32:16Z</time>
      </trkpt>
      <trkpt lat="41.774883" lon="-8.172833">
        <ele>593.0</ele>
        <time>2010-08-26T13:32:17Z</time>
      </trkpt>
      <trkpt lat="41.774867" lon="-8.172850">
        <ele>593.0</ele>
        <time>2010-08-26T13:32:19Z</time>
      </trkpt>
      <trkpt lat="41.774833" lon="-8.172867">
        <ele>593.0</ele>
        <time>2010-08-26T13:32:20Z</time>
      </trkpt>
      <trkpt lat="41.774817" lon="-8.172900">
        <ele>594.0</ele>
        <time>2010-08-26T13:32:21Z</time>
      </trkpt>
      <trkpt lat="41.774800" lon="-8.172917">
        <ele>594.0</ele>
        <time>2010-08-26T13:32:22Z</time>
      </trkpt>
      <trkpt lat="41.774767" lon="-8.172933">
        <ele>595.0</ele>
        <time>2010-08-26T13:32:23Z</time>
      </trkpt>
      <trkpt lat="41.774750" lon="-8.172950">
        <ele>595.0</ele>
        <time>2010-08-26T13:32:24Z</time>
      </trkpt>
      <trkpt lat="41.774733" lon="-8.172967">
        <ele>596.0</ele>
        <time>2010-08-26T13:32:25Z</time>
      </trkpt>
      <trkpt lat="41.774700" lon="-8.172983">
        <ele>596.0</ele>
        <time>2010-08-26T13:32:26Z</time>
      </trkpt>
      <trkpt lat="41.774667" lon="-8.173017">
        <ele>597.0</ele>
        <time>2010-08-26T13:32:28Z</time>
      </trkpt>
      <trkpt lat="41.774633" lon="-8.173033">
        <ele>598.0</ele>
        <time>2010-08-26T13:32:30Z</time>
      </trkpt>
      <trkpt lat="41.774600" lon="-8.173067">
        <ele>599.0</ele>
        <time>2010-08-26T13:32:32Z</time>
      </trkpt>
      <trkpt lat="41.774567" lon="-8.173100">
        <ele>600.0</ele>
        <time>2010-08-26T13:32:34Z</time>
      </trkpt>
      <trkpt lat="41.774533" lon="-8.173133">
        <ele>601.0</ele>
        <time>2010-08-26T13:32:36Z</time>
      </trkpt>
      <trkpt lat="41.774500" lon="-8.173183">
        <ele>601.0</ele>
        <time>2010-08-26T13:32:38Z</time>
      </trkpt>
      <trkpt lat="41.774483" lon="-8.173183">
        <ele>602.0</ele>
        <time>2010-08-26T13:32:39Z</time>
      </trkpt>
      <trkpt lat="41.774450" lon="-8.173217">
        <ele>602.0</ele>
        <time>2010-08-26T13:32:41Z</time>
      </trkpt>
      <trkpt lat="41.774433" lon="-8.173233">
        <ele>603.0</ele>
        <time>2010-08-26T13:32:42Z</time>
      </trkpt>
      <trkpt lat="41.774400" lon="-8.173250">
        <ele>603.0</ele>
        <time>2010-08-26T13:32:43Z</time>
      </trkpt>
      <trkpt lat="41.774383" lon="-8.173267">
        <ele>603.0</ele>
        <time>2010-08-26T13:32:44Z</time>
      </trkpt>
      <trkpt lat="41.774367" lon="-8.173283">
        <ele>604.0</ele>
        <time>2010-08-26T13:32:45Z</time>
      </trkpt>
      <trkpt lat="41.774333" lon="-8.173283">
        <ele>604.0</ele>
        <time>2010-08-26T13:32:46Z</time>
      </trkpt>
      <trkpt lat="41.774317" lon="-8.173300">
        <ele>604.0</ele>
        <time>2010-08-26T13:32:47Z</time>
      </trkpt>
      <trkpt lat="41.774283" lon="-8.173300">
        <ele>605.0</ele>
        <time>2010-08-26T13:32:48Z</time>
      </trkpt>
      <trkpt lat="41.774267" lon="-8.173300">
        <ele>605.0</ele>
        <time>2010-08-26T13:32:49Z</time>
      </trkpt>
      <trkpt lat="41.774250" lon="-8.173317">
        <ele>606.0</ele>
        <time>2010-08-26T13:32:50Z</time>
      </trkpt>
      <trkpt lat="41.774217" lon="-8.173317">
        <ele>606.0</ele>
        <time>2010-08-26T13:32:51Z</time>
      </trkpt>
      <trkpt lat="41.774200" lon="-8.173317">
        <ele>606.0</ele>
        <time>2010-08-26T13:32:52Z</time>
      </trkpt>
      <trkpt lat="41.774167" lon="-8.173317">
        <ele>607.0</ele>
        <time>2010-08-26T13:32:53Z</time>
      </trkpt>
      <trkpt lat="41.774150" lon="-8.173333">
        <ele>607.0</ele>
        <time>2010-08-26T13:32:54Z</time>
      </trkpt>
      <trkpt lat="41.774117" lon="-8.173333">
        <ele>608.0</ele>
        <time>2010-08-26T13:32:55Z</time>
      </trkpt>
      <trkpt lat="41.774100" lon="-8.173350">
        <ele>608.0</ele>
        <time>2010-08-26T13:32:56Z</time>
      </trkpt>
      <trkpt lat="41.774067" lon="-8.173350">
        <ele>609.0</ele>
        <time>2010-08-26T13:32:57Z</time>
      </trkpt>
      <trkpt lat="41.774050" lon="-8.173350">
        <ele>609.0</ele>
        <time>2010-08-26T13:32:58Z</time>
      </trkpt>
      <trkpt lat="41.774017" lon="-8.173367">
        <ele>610.0</ele>
        <time>2010-08-26T13:32:59Z</time>
      </trkpt>
      <trkpt lat="41.773983" lon="-8.173367">
        <ele>610.0</ele>
        <time>2010-08-26T13:33:00Z</time>
      </trkpt>
      <trkpt lat="41.773950" lon="-8.173367">
        <ele>610.0</ele>
        <time>2010-08-26T13:33:01Z</time>
      </trkpt>
      <trkpt lat="41.773933" lon="-8.173367">
        <ele>610.0</ele>
        <time>2010-08-26T13:33:02Z</time>
      </trkpt>
      <trkpt lat="41.773900" lon="-8.173383">
        <ele>611.0</ele>
        <time>2010-08-26T13:33:03Z</time>
      </trkpt>
      <trkpt lat="41.773867" lon="-8.173383">
        <ele>611.0</ele>
        <time>2010-08-26T13:33:04Z</time>
      </trkpt>
      <trkpt lat="41.773850" lon="-8.173383">
        <ele>611.0</ele>
        <time>2010-08-26T13:33:05Z</time>
      </trkpt>
      <trkpt lat="41.773817" lon="-8.173383">
        <ele>611.0</ele>
        <time>2010-08-26T13:33:06Z</time>
      </trkpt>
      <trkpt lat="41.773783" lon="-8.173383">
        <ele>612.0</ele>
        <time>2010-08-26T13:33:07Z</time>
      </trkpt>
      <trkpt lat="41.773750" lon="-8.173400">
        <ele>612.0</ele>
        <time>2010-08-26T13:33:08Z</time>
      </trkpt>
      <trkpt lat="41.773717" lon="-8.173400">
        <ele>612.0</ele>
        <time>2010-08-26T13:33:09Z</time>
      </trkpt>
      <trkpt lat="41.773700" lon="-8.173400">
        <ele>612.0</ele>
        <time>2010-08-26T13:33:10Z</time>
      </trkpt>
      <trkpt lat="41.773667" lon="-8.173417">
        <ele>612.0</ele>
        <time>2010-08-26T13:33:11Z</time>
      </trkpt>
      <trkpt lat="41.773633" lon="-8.173417">
        <ele>612.0</ele>
        <time>2010-08-26T13:33:12Z</time>
      </trkpt>
      <trkpt lat="41.773600" lon="-8.173417">
        <ele>612.0</ele>
        <time>2010-08-26T13:33:13Z</time>
      </trkpt>
      <trkpt lat="41.773567" lon="-8.173433">
        <ele>612.0</ele>
        <time>2010-08-26T13:33:14Z</time>
      </trkpt>
      <trkpt lat="41.773550" lon="-8.173433">
        <ele>613.0</ele>
        <time>2010-08-26T13:33:15Z</time>
      </trkpt>
      <trkpt lat="41.773517" lon="-8.173433">
        <ele>613.0</ele>
        <time>2010-08-26T13:33:16Z</time>
      </trkpt>
      <trkpt lat="41.773483" lon="-8.173450">
        <ele>613.0</ele>
        <time>2010-08-26T13:33:17Z</time>
      </trkpt>
      <trkpt lat="41.773467" lon="-8.173450">
        <ele>613.0</ele>
        <time>2010-08-26T13:33:18Z</time>
      </trkpt>
      <trkpt lat="41.773433" lon="-8.173467">
        <ele>613.0</ele>
        <time>2010-08-26T13:33:19Z</time>
      </trkpt>
      <trkpt lat="41.773400" lon="-8.173467">
        <ele>613.0</ele>
        <time>2010-08-26T13:33:20Z</time>
      </trkpt>
      <trkpt lat="41.773383" lon="-8.173467">
        <ele>613.0</ele>
        <time>2010-08-26T13:33:21Z</time>
      </trkpt>
      <trkpt lat="41.773350" lon="-8.173483">
        <ele>613.0</ele>
        <time>2010-08-26T13:33:22Z</time>
      </trkpt>
      <trkpt lat="41.773333" lon="-8.173483">
        <ele>614.0</ele>
        <time>2010-08-26T13:33:23Z</time>
      </trkpt>
      <trkpt lat="41.773300" lon="-8.173483">
        <ele>614.0</ele>
        <time>2010-08-26T13:33:24Z</time>
      </trkpt>
      <trkpt lat="41.773283" lon="-8.173500">
        <ele>615.0</ele>
        <time>2010-08-26T13:33:25Z</time>
      </trkpt>
      <trkpt lat="41.773250" lon="-8.173500">
        <ele>615.0</ele>
        <time>2010-08-26T13:33:26Z</time>
      </trkpt>
      <trkpt lat="41.773233" lon="-8.173500">
        <ele>615.0</ele>
        <time>2010-08-26T13:33:27Z</time>
      </trkpt>
      <trkpt lat="41.773200" lon="-8.173500">
        <ele>615.0</ele>
        <time>2010-08-26T13:33:28Z</time>
      </trkpt>
      <trkpt lat="41.773167" lon="-8.173483">
        <ele>615.0</ele>
        <time>2010-08-26T13:33:29Z</time>
      </trkpt>
      <trkpt lat="41.773150" lon="-8.173483">
        <ele>615.0</ele>
        <time>2010-08-26T13:33:30Z</time>
      </trkpt>
      <trkpt lat="41.773117" lon="-8.173483">
        <ele>615.0</ele>
        <time>2010-08-26T13:33:31Z</time>
      </trkpt>
      <trkpt lat="41.773100" lon="-8.173483">
        <ele>615.0</ele>
        <time>2010-08-26T13:33:32Z</time>
      </trkpt>
      <trkpt lat="41.773083" lon="-8.173483">
        <ele>615.0</ele>
        <time>2010-08-26T13:33:33Z</time>
      </trkpt>
      <trkpt lat="41.773050" lon="-8.173483">
        <ele>615.0</ele>
        <time>2010-08-26T13:33:34Z</time>
      </trkpt>
      <trkpt lat="41.773017" lon="-8.173483">
        <ele>615.0</ele>
        <time>2010-08-26T13:33:35Z</time>
      </trkpt>
      <trkpt lat="41.773000" lon="-8.173483">
        <ele>616.0</ele>
        <time>2010-08-26T13:33:36Z</time>
      </trkpt>
      <trkpt lat="41.772967" lon="-8.173483">
        <ele>616.0</ele>
        <time>2010-08-26T13:33:37Z</time>
      </trkpt>
      <trkpt lat="41.772950" lon="-8.173483">
        <ele>616.0</ele>
        <time>2010-08-26T13:33:38Z</time>
      </trkpt>
      <trkpt lat="41.772917" lon="-8.173483">
        <ele>617.0</ele>
        <time>2010-08-26T13:33:39Z</time>
      </trkpt>
      <trkpt lat="41.772883" lon="-8.173483">
        <ele>617.0</ele>
        <time>2010-08-26T13:33:40Z</time>
      </trkpt>
      <trkpt lat="41.772850" lon="-8.173483">
        <ele>616.0</ele>
        <time>2010-08-26T13:33:41Z</time>
      </trkpt>
      <trkpt lat="41.772833" lon="-8.173500">
        <ele>616.0</ele>
        <time>2010-08-26T13:33:42Z</time>
      </trkpt>
      <trkpt lat="41.772800" lon="-8.173517">
        <ele>616.0</ele>
        <time>2010-08-26T13:33:43Z</time>
      </trkpt>
      <trkpt lat="41.772767" lon="-8.173533">
        <ele>615.0</ele>
        <time>2010-08-26T13:33:44Z</time>
      </trkpt>
      <trkpt lat="41.772750" lon="-8.173567">
        <ele>615.0</ele>
        <time>2010-08-26T13:33:45Z</time>
      </trkpt>
      <trkpt lat="41.772717" lon="-8.173583">
        <ele>614.0</ele>
        <time>2010-08-26T13:33:46Z</time>
      </trkpt>
      <trkpt lat="41.772700" lon="-8.173617">
        <ele>614.0</ele>
        <time>2010-08-26T13:33:47Z</time>
      </trkpt>
      <trkpt lat="41.772683" lon="-8.173667">
        <ele>613.0</ele>
        <time>2010-08-26T13:33:48Z</time>
      </trkpt>
      <trkpt lat="41.772683" lon="-8.173700">
        <ele>613.0</ele>
        <time>2010-08-26T13:33:49Z</time>
      </trkpt>
      <trkpt lat="41.772683" lon="-8.173733">
        <ele>612.0</ele>
        <time>2010-08-26T13:33:50Z</time>
      </trkpt>
      <trkpt lat="41.772683" lon="-8.173767">
        <ele>612.0</ele>
        <time>2010-08-26T13:33:51Z</time>
      </trkpt>
      <trkpt lat="41.772683" lon="-8.173817">
        <ele>612.0</ele>
        <time>2010-08-26T13:33:52Z</time>
      </trkpt>
      <trkpt lat="41.772683" lon="-8.173850">
        <ele>612.0</ele>
        <time>2010-08-26T13:33:53Z</time>
      </trkpt>
      <trkpt lat="41.772683" lon="-8.173883">
        <ele>611.0</ele>
        <time>2010-08-26T13:33:54Z</time>
      </trkpt>
      <trkpt lat="41.772700" lon="-8.173933">
        <ele>611.0</ele>
        <time>2010-08-26T13:33:56Z</time>
      </trkpt>
      <trkpt lat="41.772700" lon="-8.173983">
        <ele>611.0</ele>
        <time>2010-08-26T13:33:58Z</time>
      </trkpt>
      <trkpt lat="41.772717" lon="-8.174033">
        <ele>611.0</ele>
        <time>2010-08-26T13:34:00Z</time>
      </trkpt>
      <trkpt lat="41.772700" lon="-8.174083">
        <ele>611.0</ele>
        <time>2010-08-26T13:34:02Z</time>
      </trkpt>
      <trkpt lat="41.772700" lon="-8.174133">
        <ele>611.0</ele>
        <time>2010-08-26T13:34:04Z</time>
      </trkpt>
      <trkpt lat="41.772683" lon="-8.174167">
        <ele>611.0</ele>
        <time>2010-08-26T13:34:06Z</time>
      </trkpt>
      <trkpt lat="41.772667" lon="-8.174217">
        <ele>611.0</ele>
        <time>2010-08-26T13:34:08Z</time>
      </trkpt>
      <trkpt lat="41.772650" lon="-8.174250">
        <ele>612.0</ele>
        <time>2010-08-26T13:34:10Z</time>
      </trkpt>
      <trkpt lat="41.772633" lon="-8.174283">
        <ele>612.0</ele>
        <time>2010-08-26T13:34:12Z</time>
      </trkpt>
      <trkpt lat="41.772600" lon="-8.174317">
        <ele>612.0</ele>
        <time>2010-08-26T13:34:14Z</time>
      </trkpt>
      <trkpt lat="41.772567" lon="-8.174333">
        <ele>612.0</ele>
        <time>2010-08-26T13:34:16Z</time>
      </trkpt>
      <trkpt lat="41.772550" lon="-8.174367">
        <ele>612.0</ele>
        <time>2010-08-26T13:34:18Z</time>
      </trkpt>
      <trkpt lat="41.772517" lon="-8.174400">
        <ele>612.0</ele>
        <time>2010-08-26T13:34:20Z</time>
      </trkpt>
      <trkpt lat="41.772483" lon="-8.174417">
        <ele>612.0</ele>
        <time>2010-08-26T13:34:22Z</time>
      </trkpt>
      <trkpt lat="41.772450" lon="-8.174433">
        <ele>613.0</ele>
        <time>2010-08-26T13:34:24Z</time>
      </trkpt>
      <trkpt lat="41.772417" lon="-8.174467">
        <ele>615.0</ele>
        <time>2010-08-26T13:34:27Z</time>
      </trkpt>
      <trkpt lat="41.772383" lon="-8.174483">
        <ele>617.0</ele>
        <time>2010-08-26T13:34:30Z</time>
      </trkpt>
      <trkpt lat="41.772350" lon="-8.174517">
        <ele>620.0</ele>
        <time>2010-08-26T13:34:33Z</time>
      </trkpt>
      <trkpt lat="41.772317" lon="-8.174550">
        <ele>624.0</ele>
        <time>2010-08-26T13:34:36Z</time>
      </trkpt>
      <trkpt lat="41.772300" lon="-8.174600">
        <ele>626.0</ele>
        <time>2010-08-26T13:34:39Z</time>
      </trkpt>
      <trkpt lat="41.772267" lon="-8.174633">
        <ele>629.0</ele>
        <time>2010-08-26T13:34:42Z</time>
      </trkpt>
      <trkpt lat="41.772233" lon="-8.174650">
        <ele>632.0</ele>
        <time>2010-08-26T13:34:45Z</time>
      </trkpt>
      <trkpt lat="41.772200" lon="-8.174683">
        <ele>636.0</ele>
        <time>2010-08-26T13:34:48Z</time>
      </trkpt>
      <trkpt lat="41.772167" lon="-8.174717">
        <ele>639.0</ele>
        <time>2010-08-26T13:34:51Z</time>
      </trkpt>
      <trkpt lat="41.772150" lon="-8.174750">
        <ele>642.0</ele>
        <time>2010-08-26T13:34:53Z</time>
      </trkpt>
      <trkpt lat="41.772117" lon="-8.174767">
        <ele>643.0</ele>
        <time>2010-08-26T13:34:55Z</time>
      </trkpt>
      <trkpt lat="41.772083" lon="-8.174800">
        <ele>644.0</ele>
        <time>2010-08-26T13:34:57Z</time>
      </trkpt>
      <trkpt lat="41.772067" lon="-8.174817">
        <ele>645.0</ele>
        <time>2010-08-26T13:34:59Z</time>
      </trkpt>
      <trkpt lat="41.772033" lon="-8.174850">
        <ele>646.0</ele>
        <time>2010-08-26T13:35:01Z</time>
      </trkpt>
      <trkpt lat="41.772017" lon="-8.174883">
        <ele>646.0</ele>
        <time>2010-08-26T13:35:03Z</time>
      </trkpt>
      <trkpt lat="41.772000" lon="-8.174917">
        <ele>646.0</ele>
        <time>2010-08-26T13:35:05Z</time>
      </trkpt>
      <trkpt lat="41.771967" lon="-8.174967">
        <ele>645.0</ele>
        <time>2010-08-26T13:35:07Z</time>
      </trkpt>
      <trkpt lat="41.771950" lon="-8.175017">
        <ele>643.0</ele>
        <time>2010-08-26T13:35:09Z</time>
      </trkpt>
      <trkpt lat="41.771933" lon="-8.175067">
        <ele>642.0</ele>
        <time>2010-08-26T13:35:11Z</time>
      </trkpt>
      <trkpt lat="41.771933" lon="-8.175117">
        <ele>640.0</ele>
        <time>2010-08-26T13:35:13Z</time>
      </trkpt>
      <trkpt lat="41.771950" lon="-8.175150">
        <ele>639.0</ele>
        <time>2010-08-26T13:35:14Z</time>
      </trkpt>
      <trkpt lat="41.771967" lon="-8.175217">
        <ele>637.0</ele>
        <time>2010-08-26T13:35:16Z</time>
      </trkpt>
      <trkpt lat="41.771983" lon="-8.175250">
        <ele>635.0</ele>
        <time>2010-08-26T13:35:18Z</time>
      </trkpt>
      <trkpt lat="41.772000" lon="-8.175283">
        <ele>634.0</ele>
        <time>2010-08-26T13:35:19Z</time>
      </trkpt>
      <trkpt lat="41.772033" lon="-8.175283">
        <ele>634.0</ele>
        <time>2010-08-26T13:35:20Z</time>
      </trkpt>
      <trkpt lat="41.772050" lon="-8.175300">
        <ele>633.0</ele>
        <time>2010-08-26T13:35:21Z</time>
      </trkpt>
      <trkpt lat="41.772100" lon="-8.175317">
        <ele>631.0</ele>
        <time>2010-08-26T13:35:23Z</time>
      </trkpt>
      <trkpt lat="41.772117" lon="-8.175317">
        <ele>630.0</ele>
        <time>2010-08-26T13:35:24Z</time>
      </trkpt>
      <trkpt lat="41.772150" lon="-8.175317">
        <ele>630.0</ele>
        <time>2010-08-26T13:35:25Z</time>
      </trkpt>
      <trkpt lat="41.772167" lon="-8.175317">
        <ele>629.0</ele>
        <time>2010-08-26T13:35:26Z</time>
      </trkpt>
      <trkpt lat="41.772200" lon="-8.175300">
        <ele>628.0</ele>
        <time>2010-08-26T13:35:27Z</time>
      </trkpt>
      <trkpt lat="41.772217" lon="-8.175300">
        <ele>628.0</ele>
        <time>2010-08-26T13:35:28Z</time>
      </trkpt>
      <trkpt lat="41.772250" lon="-8.175283">
        <ele>627.0</ele>
        <time>2010-08-26T13:35:29Z</time>
      </trkpt>
      <trkpt lat="41.772267" lon="-8.175283">
        <ele>627.0</ele>
        <time>2010-08-26T13:35:30Z</time>
      </trkpt>
      <trkpt lat="41.772300" lon="-8.175267">
        <ele>627.0</ele>
        <time>2010-08-26T13:35:31Z</time>
      </trkpt>
      <trkpt lat="41.772317" lon="-8.175250">
        <ele>626.0</ele>
        <time>2010-08-26T13:35:32Z</time>
      </trkpt>
      <trkpt lat="41.772333" lon="-8.175233">
        <ele>626.0</ele>
        <time>2010-08-26T13:35:33Z</time>
      </trkpt>
      <trkpt lat="41.772367" lon="-8.175217">
        <ele>626.0</ele>
        <time>2010-08-26T13:35:34Z</time>
      </trkpt>
      <trkpt lat="41.772400" lon="-8.175200">
        <ele>625.0</ele>
        <time>2010-08-26T13:35:35Z</time>
      </trkpt>
      <trkpt lat="41.772417" lon="-8.175200">
        <ele>625.0</ele>
        <time>2010-08-26T13:35:36Z</time>
      </trkpt>
      <trkpt lat="41.772450" lon="-8.175183">
        <ele>625.0</ele>
        <time>2010-08-26T13:35:37Z</time>
      </trkpt>
      <trkpt lat="41.772467" lon="-8.175183">
        <ele>624.0</ele>
        <time>2010-08-26T13:35:38Z</time>
      </trkpt>
      <trkpt lat="41.772500" lon="-8.175167">
        <ele>624.0</ele>
        <time>2010-08-26T13:35:39Z</time>
      </trkpt>
      <trkpt lat="41.772517" lon="-8.175167">
        <ele>624.0</ele>
        <time>2010-08-26T13:35:40Z</time>
      </trkpt>
      <trkpt lat="41.772550" lon="-8.175167">
        <ele>624.0</ele>
        <time>2010-08-26T13:35:41Z</time>
      </trkpt>
      <trkpt lat="41.772567" lon="-8.175167">
        <ele>623.0</ele>
        <time>2010-08-26T13:35:42Z</time>
      </trkpt>
      <trkpt lat="41.772583" lon="-8.175167">
        <ele>623.0</ele>
        <time>2010-08-26T13:35:43Z</time>
      </trkpt>
      <trkpt lat="41.772617" lon="-8.175167">
        <ele>623.0</ele>
        <time>2010-08-26T13:35:44Z</time>
      </trkpt>
      <trkpt lat="41.772633" lon="-8.175167">
        <ele>623.0</ele>
        <time>2010-08-26T13:35:45Z</time>
      </trkpt>
      <trkpt lat="41.772667" lon="-8.175167">
        <ele>623.0</ele>
        <time>2010-08-26T13:35:46Z</time>
      </trkpt>
      <trkpt lat="41.772683" lon="-8.175167">
        <ele>622.0</ele>
        <time>2010-08-26T13:35:47Z</time>
      </trkpt>
      <trkpt lat="41.772717" lon="-8.175167">
        <ele>622.0</ele>
        <time>2010-08-26T13:35:48Z</time>
      </trkpt>
      <trkpt lat="41.772733" lon="-8.175167">
        <ele>622.0</ele>
        <time>2010-08-26T13:35:49Z</time>
      </trkpt>
      <trkpt lat="41.772767" lon="-8.175167">
        <ele>622.0</ele>
        <time>2010-08-26T13:35:50Z</time>
      </trkpt>
      <trkpt lat="41.772783" lon="-8.175183">
        <ele>622.0</ele>
        <time>2010-08-26T13:35:51Z</time>
      </trkpt>
      <trkpt lat="41.772817" lon="-8.175183">
        <ele>622.0</ele>
        <time>2010-08-26T13:35:52Z</time>
      </trkpt>
      <trkpt lat="41.772850" lon="-8.175200">
        <ele>621.0</ele>
        <time>2010-08-26T13:35:54Z</time>
      </trkpt>
      <trkpt lat="41.772900" lon="-8.175200">
        <ele>621.0</ele>
        <time>2010-08-26T13:35:56Z</time>
      </trkpt>
      <trkpt lat="41.772933" lon="-8.175200">
        <ele>621.0</ele>
        <time>2010-08-26T13:35:58Z</time>
      </trkpt>
      <trkpt lat="41.772983" lon="-8.175183">
        <ele>621.0</ele>
        <time>2010-08-26T13:36:00Z</time>
      </trkpt>
      <trkpt lat="41.773017" lon="-8.175200">
        <ele>621.0</ele>
        <time>2010-08-26T13:36:02Z</time>
      </trkpt>
      <trkpt lat="41.773050" lon="-8.175200">
        <ele>621.0</ele>
        <time>2010-08-26T13:36:04Z</time>
      </trkpt>
      <trkpt lat="41.773083" lon="-8.175217">
        <ele>621.0</ele>
        <time>2010-08-26T13:36:06Z</time>
      </trkpt>
      <trkpt lat="41.773117" lon="-8.175233">
        <ele>621.0</ele>
        <time>2010-08-26T13:36:07Z</time>
      </trkpt>
      <trkpt lat="41.773133" lon="-8.175250">
        <ele>621.0</ele>
        <time>2010-08-26T13:36:08Z</time>
      </trkpt>
      <trkpt lat="41.773167" lon="-8.175300">
        <ele>621.0</ele>
        <time>2010-08-26T13:36:10Z</time>
      </trkpt>
      <trkpt lat="41.773183" lon="-8.175317">
        <ele>621.0</ele>
        <time>2010-08-26T13:36:11Z</time>
      </trkpt>
      <trkpt lat="41.773200" lon="-8.175333">
        <ele>621.0</ele>
        <time>2010-08-26T13:36:12Z</time>
      </trkpt>
      <trkpt lat="41.773217" lon="-8.175350">
        <ele>622.0</ele>
        <time>2010-08-26T13:36:13Z</time>
      </trkpt>
      <trkpt lat="41.773233" lon="-8.175383">
        <ele>622.0</ele>
        <time>2010-08-26T13:36:14Z</time>
      </trkpt>
      <trkpt lat="41.773233" lon="-8.175417">
        <ele>622.0</ele>
        <time>2010-08-26T13:36:15Z</time>
      </trkpt>
      <trkpt lat="41.773250" lon="-8.175467">
        <ele>622.0</ele>
        <time>2010-08-26T13:36:17Z</time>
      </trkpt>
      <trkpt lat="41.773267" lon="-8.175517">
        <ele>622.0</ele>
        <time>2010-08-26T13:36:19Z</time>
      </trkpt>
      <trkpt lat="41.773283" lon="-8.175567">
        <ele>622.0</ele>
        <time>2010-08-26T13:36:21Z</time>
      </trkpt>
      <trkpt lat="41.773283" lon="-8.175617">
        <ele>622.0</ele>
        <time>2010-08-26T13:36:23Z</time>
      </trkpt>
      <trkpt lat="41.773300" lon="-8.175667">
        <ele>622.0</ele>
        <time>2010-08-26T13:36:25Z</time>
      </trkpt>
      <trkpt lat="41.773300" lon="-8.175717">
        <ele>622.0</ele>
        <time>2010-08-26T13:36:27Z</time>
      </trkpt>
      <trkpt lat="41.773300" lon="-8.175767">
        <ele>623.0</ele>
        <time>2010-08-26T13:36:29Z</time>
      </trkpt>
      <trkpt lat="41.773300" lon="-8.175800">
        <ele>623.0</ele>
        <time>2010-08-26T13:36:30Z</time>
      </trkpt>
      <trkpt lat="41.773300" lon="-8.175833">
        <ele>623.0</ele>
        <time>2010-08-26T13:36:31Z</time>
      </trkpt>
      <trkpt lat="41.773300" lon="-8.175867">
        <ele>623.0</ele>
        <time>2010-08-26T13:36:32Z</time>
      </trkpt>
      <trkpt lat="41.773300" lon="-8.175900">
        <ele>623.0</ele>
        <time>2010-08-26T13:36:33Z</time>
      </trkpt>
      <trkpt lat="41.773300" lon="-8.175917">
        <ele>623.0</ele>
        <time>2010-08-26T13:36:34Z</time>
      </trkpt>
      <trkpt lat="41.773283" lon="-8.175950">
        <ele>623.0</ele>
        <time>2010-08-26T13:36:35Z</time>
      </trkpt>
      <trkpt lat="41.773283" lon="-8.175983">
        <ele>623.0</ele>
        <time>2010-08-26T13:36:36Z</time>
      </trkpt>
      <trkpt lat="41.773283" lon="-8.176017">
        <ele>624.0</ele>
        <time>2010-08-26T13:36:37Z</time>
      </trkpt>
      <trkpt lat="41.773267" lon="-8.176050">
        <ele>624.0</ele>
        <time>2010-08-26T13:36:38Z</time>
      </trkpt>
      <trkpt lat="41.773267" lon="-8.176083">
        <ele>624.0</ele>
        <time>2010-08-26T13:36:39Z</time>
      </trkpt>
      <trkpt lat="41.773250" lon="-8.176117">
        <ele>624.0</ele>
        <time>2010-08-26T13:36:40Z</time>
      </trkpt>
      <trkpt lat="41.773233" lon="-8.176150">
        <ele>624.0</ele>
        <time>2010-08-26T13:36:41Z</time>
      </trkpt>
      <trkpt lat="41.773233" lon="-8.176183">
        <ele>624.0</ele>
        <time>2010-08-26T13:36:42Z</time>
      </trkpt>
      <trkpt lat="41.773217" lon="-8.176217">
        <ele>624.0</ele>
        <time>2010-08-26T13:36:43Z</time>
      </trkpt>
      <trkpt lat="41.773217" lon="-8.176233">
        <ele>624.0</ele>
        <time>2010-08-26T13:36:44Z</time>
      </trkpt>
      <trkpt lat="41.773200" lon="-8.176267">
        <ele>625.0</ele>
        <time>2010-08-26T13:36:45Z</time>
      </trkpt>
      <trkpt lat="41.773183" lon="-8.176300">
        <ele>625.0</ele>
        <time>2010-08-26T13:36:46Z</time>
      </trkpt>
      <trkpt lat="41.773167" lon="-8.176333">
        <ele>625.0</ele>
        <time>2010-08-26T13:36:47Z</time>
      </trkpt>
      <trkpt lat="41.773150" lon="-8.176367">
        <ele>625.0</ele>
        <time>2010-08-26T13:36:48Z</time>
      </trkpt>
      <trkpt lat="41.773133" lon="-8.176383">
        <ele>625.0</ele>
        <time>2010-08-26T13:36:49Z</time>
      </trkpt>
      <trkpt lat="41.773117" lon="-8.176417">
        <ele>625.0</ele>
        <time>2010-08-26T13:36:50Z</time>
      </trkpt>
      <trkpt lat="41.773100" lon="-8.176450">
        <ele>625.0</ele>
        <time>2010-08-26T13:36:51Z</time>
      </trkpt>
      <trkpt lat="41.773100" lon="-8.176467">
        <ele>625.0</ele>
        <time>2010-08-26T13:36:52Z</time>
      </trkpt>
      <trkpt lat="41.773083" lon="-8.176500">
        <ele>625.0</ele>
        <time>2010-08-26T13:36:53Z</time>
      </trkpt>
      <trkpt lat="41.773067" lon="-8.176533">
        <ele>625.0</ele>
        <time>2010-08-26T13:36:54Z</time>
      </trkpt>
      <trkpt lat="41.773050" lon="-8.176567">
        <ele>625.0</ele>
        <time>2010-08-26T13:36:55Z</time>
      </trkpt>
      <trkpt lat="41.773033" lon="-8.176600">
        <ele>626.0</ele>
        <time>2010-08-26T13:36:56Z</time>
      </trkpt>
      <trkpt lat="41.773017" lon="-8.176633">
        <ele>626.0</ele>
        <time>2010-08-26T13:36:57Z</time>
      </trkpt>
      <trkpt lat="41.773000" lon="-8.176650">
        <ele>626.0</ele>
        <time>2010-08-26T13:36:58Z</time>
      </trkpt>
      <trkpt lat="41.772983" lon="-8.176683">
        <ele>626.0</ele>
        <time>2010-08-26T13:36:59Z</time>
      </trkpt>
      <trkpt lat="41.772967" lon="-8.176717">
        <ele>626.0</ele>
        <time>2010-08-26T13:37:00Z</time>
      </trkpt>
      <trkpt lat="41.772950" lon="-8.176733">
        <ele>626.0</ele>
        <time>2010-08-26T13:37:01Z</time>
      </trkpt>
      <trkpt lat="41.772933" lon="-8.176783">
        <ele>626.0</ele>
        <time>2010-08-26T13:37:02Z</time>
      </trkpt>
      <trkpt lat="41.772933" lon="-8.176800">
        <ele>626.0</ele>
        <time>2010-08-26T13:37:03Z</time>
      </trkpt>
      <trkpt lat="41.772917" lon="-8.176833">
        <ele>626.0</ele>
        <time>2010-08-26T13:37:04Z</time>
      </trkpt>
      <trkpt lat="41.772900" lon="-8.176867">
        <ele>626.0</ele>
        <time>2010-08-26T13:37:05Z</time>
      </trkpt>
      <trkpt lat="41.772900" lon="-8.176900">
        <ele>626.0</ele>
        <time>2010-08-26T13:37:06Z</time>
      </trkpt>
      <trkpt lat="41.772883" lon="-8.176933">
        <ele>626.0</ele>
        <time>2010-08-26T13:37:07Z</time>
      </trkpt>
      <trkpt lat="41.772867" lon="-8.176967">
        <ele>626.0</ele>
        <time>2010-08-26T13:37:08Z</time>
      </trkpt>
      <trkpt lat="41.772867" lon="-8.177000">
        <ele>627.0</ele>
        <time>2010-08-26T13:37:09Z</time>
      </trkpt>
      <trkpt lat="41.772850" lon="-8.177033">
        <ele>627.0</ele>
        <time>2010-08-26T13:37:10Z</time>
      </trkpt>
      <trkpt lat="41.772850" lon="-8.177067">
        <ele>627.0</ele>
        <time>2010-08-26T13:37:11Z</time>
      </trkpt>
      <trkpt lat="41.772850" lon="-8.177100">
        <ele>627.0</ele>
        <time>2010-08-26T13:37:12Z</time>
      </trkpt>
      <trkpt lat="41.772833" lon="-8.177133">
        <ele>627.0</ele>
        <time>2010-08-26T13:37:13Z</time>
      </trkpt>
      <trkpt lat="41.772833" lon="-8.177167">
        <ele>627.0</ele>
        <time>2010-08-26T13:37:14Z</time>
      </trkpt>
      <trkpt lat="41.772817" lon="-8.177200">
        <ele>627.0</ele>
        <time>2010-08-26T13:37:15Z</time>
      </trkpt>
      <trkpt lat="41.772817" lon="-8.177233">
        <ele>627.0</ele>
        <time>2010-08-26T13:37:16Z</time>
      </trkpt>
      <trkpt lat="41.772800" lon="-8.177250">
        <ele>627.0</ele>
        <time>2010-08-26T13:37:17Z</time>
      </trkpt>
      <trkpt lat="41.772800" lon="-8.177283">
        <ele>627.0</ele>
        <time>2010-08-26T13:37:18Z</time>
      </trkpt>
      <trkpt lat="41.772783" lon="-8.177317">
        <ele>627.0</ele>
        <time>2010-08-26T13:37:19Z</time>
      </trkpt>
      <trkpt lat="41.772783" lon="-8.177350">
        <ele>627.0</ele>
        <time>2010-08-26T13:37:20Z</time>
      </trkpt>
      <trkpt lat="41.772767" lon="-8.177383">
        <ele>627.0</ele>
        <time>2010-08-26T13:37:21Z</time>
      </trkpt>
      <trkpt lat="41.772750" lon="-8.177433">
        <ele>627.0</ele>
        <time>2010-08-26T13:37:23Z</time>
      </trkpt>
      <trkpt lat="41.772750" lon="-8.177467">
        <ele>627.0</ele>
        <time>2010-08-26T13:37:25Z</time>
      </trkpt>
      <trkpt lat="41.772733" lon="-8.177517">
        <ele>624.0</ele>
        <time>2010-08-26T13:37:58Z</time>
      </trkpt>
      <trkpt lat="41.772717" lon="-8.177550">
        <ele>623.0</ele>
        <time>2010-08-26T13:38:01Z</time>
      </trkpt>
      <trkpt lat="41.772683" lon="-8.177583">
        <ele>623.0</ele>
        <time>2010-08-26T13:38:03Z</time>
      </trkpt>
      <trkpt lat="41.772650" lon="-8.177600">
        <ele>623.0</ele>
        <time>2010-08-26T13:38:04Z</time>
      </trkpt>
      <trkpt lat="41.772633" lon="-8.177633">
        <ele>623.0</ele>
        <time>2010-08-26T13:38:05Z</time>
      </trkpt>
      <trkpt lat="41.772617" lon="-8.177650">
        <ele>623.0</ele>
        <time>2010-08-26T13:38:06Z</time>
      </trkpt>
      <trkpt lat="41.772600" lon="-8.177683">
        <ele>623.0</ele>
        <time>2010-08-26T13:38:07Z</time>
      </trkpt>
      <trkpt lat="41.772583" lon="-8.177717">
        <ele>623.0</ele>
        <time>2010-08-26T13:38:08Z</time>
      </trkpt>
      <trkpt lat="41.772567" lon="-8.177750">
        <ele>623.0</ele>
        <time>2010-08-26T13:38:09Z</time>
      </trkpt>
      <trkpt lat="41.772567" lon="-8.177783">
        <ele>623.0</ele>
        <time>2010-08-26T13:38:10Z</time>
      </trkpt>
      <trkpt lat="41.772550" lon="-8.177817">
        <ele>623.0</ele>
        <time>2010-08-26T13:38:11Z</time>
      </trkpt>
      <trkpt lat="41.772533" lon="-8.177850">
        <ele>623.0</ele>
        <time>2010-08-26T13:38:12Z</time>
      </trkpt>
      <trkpt lat="41.772517" lon="-8.177883">
        <ele>623.0</ele>
        <time>2010-08-26T13:38:13Z</time>
      </trkpt>
      <trkpt lat="41.772500" lon="-8.177917">
        <ele>623.0</ele>
        <time>2010-08-26T13:38:14Z</time>
      </trkpt>
      <trkpt lat="41.772483" lon="-8.177950">
        <ele>623.0</ele>
        <time>2010-08-26T13:38:15Z</time>
      </trkpt>
      <trkpt lat="41.772467" lon="-8.177983">
        <ele>623.0</ele>
        <time>2010-08-26T13:38:16Z</time>
      </trkpt>
      <trkpt lat="41.772467" lon="-8.178033">
        <ele>624.0</ele>
        <time>2010-08-26T13:38:17Z</time>
      </trkpt>
      <trkpt lat="41.772450" lon="-8.178067">
        <ele>624.0</ele>
        <time>2010-08-26T13:38:18Z</time>
      </trkpt>
      <trkpt lat="41.772433" lon="-8.178100">
        <ele>624.0</ele>
        <time>2010-08-26T13:38:19Z</time>
      </trkpt>
      <trkpt lat="41.772433" lon="-8.178150">
        <ele>624.0</ele>
        <time>2010-08-26T13:38:20Z</time>
      </trkpt>
      <trkpt lat="41.772417" lon="-8.178183">
        <ele>624.0</ele>
        <time>2010-08-26T13:38:21Z</time>
      </trkpt>
      <trkpt lat="41.772400" lon="-8.178217">
        <ele>624.0</ele>
        <time>2010-08-26T13:38:22Z</time>
      </trkpt>
      <trkpt lat="41.772400" lon="-8.178267">
        <ele>625.0</ele>
        <time>2010-08-26T13:38:23Z</time>
      </trkpt>
      <trkpt lat="41.772400" lon="-8.178300">
        <ele>625.0</ele>
        <time>2010-08-26T13:38:24Z</time>
      </trkpt>
      <trkpt lat="41.772383" lon="-8.178350">
        <ele>625.0</ele>
        <time>2010-08-26T13:38:25Z</time>
      </trkpt>
      <trkpt lat="41.772383" lon="-8.178383">
        <ele>625.0</ele>
        <time>2010-08-26T13:38:26Z</time>
      </trkpt>
      <trkpt lat="41.772367" lon="-8.178417">
        <ele>625.0</ele>
        <time>2010-08-26T13:38:27Z</time>
      </trkpt>
      <trkpt lat="41.772367" lon="-8.178467">
        <ele>625.0</ele>
        <time>2010-08-26T13:38:28Z</time>
      </trkpt>
      <trkpt lat="41.772367" lon="-8.178500">
        <ele>625.0</ele>
        <time>2010-08-26T13:38:29Z</time>
      </trkpt>
      <trkpt lat="41.772367" lon="-8.178533">
        <ele>625.0</ele>
        <time>2010-08-26T13:38:30Z</time>
      </trkpt>
      <trkpt lat="41.772367" lon="-8.178567">
        <ele>625.0</ele>
        <time>2010-08-26T13:38:31Z</time>
      </trkpt>
      <trkpt lat="41.772350" lon="-8.178617">
        <ele>625.0</ele>
        <time>2010-08-26T13:38:32Z</time>
      </trkpt>
      <trkpt lat="41.772350" lon="-8.178650">
        <ele>625.0</ele>
        <time>2010-08-26T13:38:33Z</time>
      </trkpt>
      <trkpt lat="41.772333" lon="-8.178683">
        <ele>625.0</ele>
        <time>2010-08-26T13:38:34Z</time>
      </trkpt>
      <trkpt lat="41.772333" lon="-8.178717">
        <ele>625.0</ele>
        <time>2010-08-26T13:38:35Z</time>
      </trkpt>
      <trkpt lat="41.772317" lon="-8.178750">
        <ele>625.0</ele>
        <time>2010-08-26T13:38:36Z</time>
      </trkpt>
      <trkpt lat="41.772300" lon="-8.178783">
        <ele>624.0</ele>
        <time>2010-08-26T13:38:37Z</time>
      </trkpt>
      <trkpt lat="41.772300" lon="-8.178817">
        <ele>624.0</ele>
        <time>2010-08-26T13:38:38Z</time>
      </trkpt>
      <trkpt lat="41.772283" lon="-8.178850">
        <ele>624.0</ele>
        <time>2010-08-26T13:38:39Z</time>
      </trkpt>
      <trkpt lat="41.772267" lon="-8.178883">
        <ele>624.0</ele>
        <time>2010-08-26T13:38:40Z</time>
      </trkpt>
      <trkpt lat="41.772267" lon="-8.178917">
        <ele>624.0</ele>
        <time>2010-08-26T13:38:41Z</time>
      </trkpt>
      <trkpt lat="41.772250" lon="-8.178950">
        <ele>624.0</ele>
        <time>2010-08-26T13:38:42Z</time>
      </trkpt>
      <trkpt lat="41.772233" lon="-8.178983">
        <ele>624.0</ele>
        <time>2010-08-26T13:38:43Z</time>
      </trkpt>
      <trkpt lat="41.772217" lon="-8.179017">
        <ele>624.0</ele>
        <time>2010-08-26T13:38:44Z</time>
      </trkpt>
      <trkpt lat="41.772217" lon="-8.179033">
        <ele>625.0</ele>
        <time>2010-08-26T13:38:45Z</time>
      </trkpt>
      <trkpt lat="41.772200" lon="-8.179067">
        <ele>625.0</ele>
        <time>2010-08-26T13:38:46Z</time>
      </trkpt>
      <trkpt lat="41.772183" lon="-8.179100">
        <ele>625.0</ele>
        <time>2010-08-26T13:38:47Z</time>
      </trkpt>
      <trkpt lat="41.772183" lon="-8.179133">
        <ele>625.0</ele>
        <time>2010-08-26T13:38:48Z</time>
      </trkpt>
      <trkpt lat="41.772167" lon="-8.179167">
        <ele>625.0</ele>
        <time>2010-08-26T13:38:49Z</time>
      </trkpt>
      <trkpt lat="41.772167" lon="-8.179217">
        <ele>625.0</ele>
        <time>2010-08-26T13:38:50Z</time>
      </trkpt>
      <trkpt lat="41.772150" lon="-8.179250">
        <ele>626.0</ele>
        <time>2010-08-26T13:38:51Z</time>
      </trkpt>
      <trkpt lat="41.772133" lon="-8.179283">
        <ele>626.0</ele>
        <time>2010-08-26T13:38:52Z</time>
      </trkpt>
      <trkpt lat="41.772133" lon="-8.179317">
        <ele>626.0</ele>
        <time>2010-08-26T13:38:53Z</time>
      </trkpt>
      <trkpt lat="41.772117" lon="-8.179350">
        <ele>626.0</ele>
        <time>2010-08-26T13:38:54Z</time>
      </trkpt>
      <trkpt lat="41.772100" lon="-8.179383">
        <ele>626.0</ele>
        <time>2010-08-26T13:38:55Z</time>
      </trkpt>
      <trkpt lat="41.772083" lon="-8.179417">
        <ele>626.0</ele>
        <time>2010-08-26T13:38:56Z</time>
      </trkpt>
      <trkpt lat="41.772067" lon="-8.179450">
        <ele>626.0</ele>
        <time>2010-08-26T13:38:57Z</time>
      </trkpt>
      <trkpt lat="41.772067" lon="-8.179483">
        <ele>627.0</ele>
        <time>2010-08-26T13:38:58Z</time>
      </trkpt>
      <trkpt lat="41.772050" lon="-8.179517">
        <ele>627.0</ele>
        <time>2010-08-26T13:38:59Z</time>
      </trkpt>
      <trkpt lat="41.772033" lon="-8.179550">
        <ele>627.0</ele>
        <time>2010-08-26T13:39:00Z</time>
      </trkpt>
      <trkpt lat="41.772033" lon="-8.179583">
        <ele>627.0</ele>
        <time>2010-08-26T13:39:01Z</time>
      </trkpt>
      <trkpt lat="41.772017" lon="-8.179617">
        <ele>627.0</ele>
        <time>2010-08-26T13:39:02Z</time>
      </trkpt>
      <trkpt lat="41.772017" lon="-8.179667">
        <ele>627.0</ele>
        <time>2010-08-26T13:39:03Z</time>
      </trkpt>
      <trkpt lat="41.772000" lon="-8.179700">
        <ele>628.0</ele>
        <time>2010-08-26T13:39:04Z</time>
      </trkpt>
      <trkpt lat="41.771983" lon="-8.179733">
        <ele>628.0</ele>
        <time>2010-08-26T13:39:05Z</time>
      </trkpt>
      <trkpt lat="41.771983" lon="-8.179767">
        <ele>628.0</ele>
        <time>2010-08-26T13:39:06Z</time>
      </trkpt>
      <trkpt lat="41.771967" lon="-8.179800">
        <ele>628.0</ele>
        <time>2010-08-26T13:39:07Z</time>
      </trkpt>
      <trkpt lat="41.771967" lon="-8.179833">
        <ele>629.0</ele>
        <time>2010-08-26T13:39:08Z</time>
      </trkpt>
      <trkpt lat="41.771950" lon="-8.179867">
        <ele>629.0</ele>
        <time>2010-08-26T13:39:09Z</time>
      </trkpt>
      <trkpt lat="41.771950" lon="-8.179917">
        <ele>629.0</ele>
        <time>2010-08-26T13:39:10Z</time>
      </trkpt>
      <trkpt lat="41.771950" lon="-8.179950">
        <ele>630.0</ele>
        <time>2010-08-26T13:39:11Z</time>
      </trkpt>
      <trkpt lat="41.771933" lon="-8.179983">
        <ele>630.0</ele>
        <time>2010-08-26T13:39:12Z</time>
      </trkpt>
      <trkpt lat="41.771933" lon="-8.180017">
        <ele>630.0</ele>
        <time>2010-08-26T13:39:13Z</time>
      </trkpt>
      <trkpt lat="41.771917" lon="-8.180050">
        <ele>630.0</ele>
        <time>2010-08-26T13:39:14Z</time>
      </trkpt>
      <trkpt lat="41.771917" lon="-8.180083">
        <ele>631.0</ele>
        <time>2010-08-26T13:39:15Z</time>
      </trkpt>
      <trkpt lat="41.771900" lon="-8.180117">
        <ele>631.0</ele>
        <time>2010-08-26T13:39:16Z</time>
      </trkpt>
      <trkpt lat="41.771900" lon="-8.180150">
        <ele>631.0</ele>
        <time>2010-08-26T13:39:17Z</time>
      </trkpt>
      <trkpt lat="41.771883" lon="-8.180183">
        <ele>631.0</ele>
        <time>2010-08-26T13:39:18Z</time>
      </trkpt>
      <trkpt lat="41.771883" lon="-8.180233">
        <ele>632.0</ele>
        <time>2010-08-26T13:39:19Z</time>
      </trkpt>
      <trkpt lat="41.771867" lon="-8.180267">
        <ele>632.0</ele>
        <time>2010-08-26T13:39:20Z</time>
      </trkpt>
      <trkpt lat="41.771867" lon="-8.180283">
        <ele>632.0</ele>
        <time>2010-08-26T13:39:21Z</time>
      </trkpt>
      <trkpt lat="41.771850" lon="-8.180317">
        <ele>632.0</ele>
        <time>2010-08-26T13:39:22Z</time>
      </trkpt>
      <trkpt lat="41.771850" lon="-8.180383">
        <ele>633.0</ele>
        <time>2010-08-26T13:39:24Z</time>
      </trkpt>
      <trkpt lat="41.771833" lon="-8.180433">
        <ele>633.0</ele>
        <time>2010-08-26T13:39:26Z</time>
      </trkpt>
      <trkpt lat="41.771817" lon="-8.180483">
        <ele>635.0</ele>
        <time>2010-08-26T13:40:26Z</time>
      </trkpt>
      <trkpt lat="41.771783" lon="-8.180500">
        <ele>635.0</ele>
        <time>2010-08-26T13:40:28Z</time>
      </trkpt>
      <trkpt lat="41.771767" lon="-8.180550">
        <ele>635.0</ele>
        <time>2010-08-26T13:40:30Z</time>
      </trkpt>
      <trkpt lat="41.771767" lon="-8.180583">
        <ele>636.0</ele>
        <time>2010-08-26T13:40:31Z</time>
      </trkpt>
      <trkpt lat="41.771750" lon="-8.180617">
        <ele>636.0</ele>
        <time>2010-08-26T13:40:32Z</time>
      </trkpt>
      <trkpt lat="41.771733" lon="-8.180650">
        <ele>636.0</ele>
        <time>2010-08-26T13:40:33Z</time>
      </trkpt>
      <trkpt lat="41.771733" lon="-8.180683">
        <ele>636.0</ele>
        <time>2010-08-26T13:40:34Z</time>
      </trkpt>
      <trkpt lat="41.771717" lon="-8.180717">
        <ele>636.0</ele>
        <time>2010-08-26T13:40:35Z</time>
      </trkpt>
      <trkpt lat="41.771700" lon="-8.180733">
        <ele>636.0</ele>
        <time>2010-08-26T13:40:36Z</time>
      </trkpt>
      <trkpt lat="41.771683" lon="-8.180767">
        <ele>636.0</ele>
        <time>2010-08-26T13:40:37Z</time>
      </trkpt>
      <trkpt lat="41.771667" lon="-8.180800">
        <ele>636.0</ele>
        <time>2010-08-26T13:40:38Z</time>
      </trkpt>
      <trkpt lat="41.771650" lon="-8.180833">
        <ele>637.0</ele>
        <time>2010-08-26T13:40:39Z</time>
      </trkpt>
      <trkpt lat="41.771650" lon="-8.180850">
        <ele>637.0</ele>
        <time>2010-08-26T13:40:40Z</time>
      </trkpt>
      <trkpt lat="41.771633" lon="-8.180883">
        <ele>637.0</ele>
        <time>2010-08-26T13:40:41Z</time>
      </trkpt>
      <trkpt lat="41.771617" lon="-8.180917">
        <ele>637.0</ele>
        <time>2010-08-26T13:40:42Z</time>
      </trkpt>
      <trkpt lat="41.771600" lon="-8.180950">
        <ele>637.0</ele>
        <time>2010-08-26T13:40:43Z</time>
      </trkpt>
      <trkpt lat="41.771583" lon="-8.180967">
        <ele>637.0</ele>
        <time>2010-08-26T13:40:44Z</time>
      </trkpt>
      <trkpt lat="41.771567" lon="-8.181000">
        <ele>637.0</ele>
        <time>2010-08-26T13:40:45Z</time>
      </trkpt>
      <trkpt lat="41.771567" lon="-8.181033">
        <ele>638.0</ele>
        <time>2010-08-26T13:40:46Z</time>
      </trkpt>
      <trkpt lat="41.771550" lon="-8.181050">
        <ele>638.0</ele>
        <time>2010-08-26T13:40:47Z</time>
      </trkpt>
      <trkpt lat="41.771533" lon="-8.181083">
        <ele>638.0</ele>
        <time>2010-08-26T13:40:48Z</time>
      </trkpt>
      <trkpt lat="41.771517" lon="-8.181100">
        <ele>638.0</ele>
        <time>2010-08-26T13:40:49Z</time>
      </trkpt>
      <trkpt lat="41.771517" lon="-8.181133">
        <ele>638.0</ele>
        <time>2010-08-26T13:40:50Z</time>
      </trkpt>
      <trkpt lat="41.771500" lon="-8.181150">
        <ele>638.0</ele>
        <time>2010-08-26T13:40:51Z</time>
      </trkpt>
      <trkpt lat="41.771483" lon="-8.181183">
        <ele>638.0</ele>
        <time>2010-08-26T13:40:52Z</time>
      </trkpt>
      <trkpt lat="41.771467" lon="-8.181200">
        <ele>638.0</ele>
        <time>2010-08-26T13:40:53Z</time>
      </trkpt>
      <trkpt lat="41.771450" lon="-8.181233">
        <ele>638.0</ele>
        <time>2010-08-26T13:40:54Z</time>
      </trkpt>
      <trkpt lat="41.771433" lon="-8.181250">
        <ele>639.0</ele>
        <time>2010-08-26T13:40:55Z</time>
      </trkpt>
      <trkpt lat="41.771417" lon="-8.181283">
        <ele>639.0</ele>
        <time>2010-08-26T13:40:56Z</time>
      </trkpt>
      <trkpt lat="41.771400" lon="-8.181317">
        <ele>639.0</ele>
        <time>2010-08-26T13:40:57Z</time>
      </trkpt>
      <trkpt lat="41.771383" lon="-8.181333">
        <ele>639.0</ele>
        <time>2010-08-26T13:40:58Z</time>
      </trkpt>
      <trkpt lat="41.771367" lon="-8.181367">
        <ele>639.0</ele>
        <time>2010-08-26T13:40:59Z</time>
      </trkpt>
      <trkpt lat="41.771350" lon="-8.181383">
        <ele>639.0</ele>
        <time>2010-08-26T13:41:00Z</time>
      </trkpt>
      <trkpt lat="41.771333" lon="-8.181400">
        <ele>639.0</ele>
        <time>2010-08-26T13:41:01Z</time>
      </trkpt>
      <trkpt lat="41.771317" lon="-8.181433">
        <ele>640.0</ele>
        <time>2010-08-26T13:41:02Z</time>
      </trkpt>
      <trkpt lat="41.771300" lon="-8.181467">
        <ele>640.0</ele>
        <time>2010-08-26T13:41:03Z</time>
      </trkpt>
      <trkpt lat="41.771283" lon="-8.181483">
        <ele>640.0</ele>
        <time>2010-08-26T13:41:04Z</time>
      </trkpt>
      <trkpt lat="41.771267" lon="-8.181517">
        <ele>640.0</ele>
        <time>2010-08-26T13:41:05Z</time>
      </trkpt>
      <trkpt lat="41.771250" lon="-8.181533">
        <ele>640.0</ele>
        <time>2010-08-26T13:41:06Z</time>
      </trkpt>
      <trkpt lat="41.771250" lon="-8.181567">
        <ele>640.0</ele>
        <time>2010-08-26T13:41:07Z</time>
      </trkpt>
      <trkpt lat="41.771233" lon="-8.181583">
        <ele>641.0</ele>
        <time>2010-08-26T13:41:08Z</time>
      </trkpt>
      <trkpt lat="41.771217" lon="-8.181617">
        <ele>641.0</ele>
        <time>2010-08-26T13:41:09Z</time>
      </trkpt>
      <trkpt lat="41.771200" lon="-8.181650">
        <ele>641.0</ele>
        <time>2010-08-26T13:41:10Z</time>
      </trkpt>
      <trkpt lat="41.771167" lon="-8.181667">
        <ele>641.0</ele>
        <time>2010-08-26T13:41:11Z</time>
      </trkpt>
      <trkpt lat="41.771150" lon="-8.181700">
        <ele>641.0</ele>
        <time>2010-08-26T13:41:12Z</time>
      </trkpt>
      <trkpt lat="41.771133" lon="-8.181717">
        <ele>641.0</ele>
        <time>2010-08-26T13:41:13Z</time>
      </trkpt>
      <trkpt lat="41.771117" lon="-8.181750">
        <ele>642.0</ele>
        <time>2010-08-26T13:41:14Z</time>
      </trkpt>
      <trkpt lat="41.771100" lon="-8.181767">
        <ele>642.0</ele>
        <time>2010-08-26T13:41:15Z</time>
      </trkpt>
      <trkpt lat="41.771083" lon="-8.181800">
        <ele>642.0</ele>
        <time>2010-08-26T13:41:16Z</time>
      </trkpt>
      <trkpt lat="41.771067" lon="-8.181833">
        <ele>642.0</ele>
        <time>2010-08-26T13:41:17Z</time>
      </trkpt>
      <trkpt lat="41.771050" lon="-8.181850">
        <ele>642.0</ele>
        <time>2010-08-26T13:41:18Z</time>
      </trkpt>
      <trkpt lat="41.771017" lon="-8.181867">
        <ele>642.0</ele>
        <time>2010-08-26T13:41:19Z</time>
      </trkpt>
      <trkpt lat="41.771000" lon="-8.181900">
        <ele>642.0</ele>
        <time>2010-08-26T13:41:20Z</time>
      </trkpt>
      <trkpt lat="41.770983" lon="-8.181917">
        <ele>642.0</ele>
        <time>2010-08-26T13:41:21Z</time>
      </trkpt>
      <trkpt lat="41.770950" lon="-8.181933">
        <ele>642.0</ele>
        <time>2010-08-26T13:41:22Z</time>
      </trkpt>
      <trkpt lat="41.770933" lon="-8.181967">
        <ele>642.0</ele>
        <time>2010-08-26T13:41:23Z</time>
      </trkpt>
      <trkpt lat="41.770917" lon="-8.181983">
        <ele>642.0</ele>
        <time>2010-08-26T13:41:24Z</time>
      </trkpt>
      <trkpt lat="41.770883" lon="-8.182017">
        <ele>642.0</ele>
        <time>2010-08-26T13:41:25Z</time>
      </trkpt>
      <trkpt lat="41.770867" lon="-8.182050">
        <ele>642.0</ele>
        <time>2010-08-26T13:41:26Z</time>
      </trkpt>
      <trkpt lat="41.770850" lon="-8.182067">
        <ele>642.0</ele>
        <time>2010-08-26T13:41:27Z</time>
      </trkpt>
      <trkpt lat="41.770833" lon="-8.182100">
        <ele>643.0</ele>
        <time>2010-08-26T13:41:28Z</time>
      </trkpt>
      <trkpt lat="41.770800" lon="-8.182133">
        <ele>643.0</ele>
        <time>2010-08-26T13:41:29Z</time>
      </trkpt>
      <trkpt lat="41.770783" lon="-8.182150">
        <ele>643.0</ele>
        <time>2010-08-26T13:41:30Z</time>
      </trkpt>
      <trkpt lat="41.770767" lon="-8.182183">
        <ele>643.0</ele>
        <time>2010-08-26T13:41:31Z</time>
      </trkpt>
      <trkpt lat="41.770750" lon="-8.182217">
        <ele>643.0</ele>
        <time>2010-08-26T13:41:32Z</time>
      </trkpt>
      <trkpt lat="41.770733" lon="-8.182233">
        <ele>643.0</ele>
        <time>2010-08-26T13:41:33Z</time>
      </trkpt>
      <trkpt lat="41.770700" lon="-8.182267">
        <ele>643.0</ele>
        <time>2010-08-26T13:41:34Z</time>
      </trkpt>
      <trkpt lat="41.770683" lon="-8.182300">
        <ele>644.0</ele>
        <time>2010-08-26T13:41:35Z</time>
      </trkpt>
      <trkpt lat="41.770667" lon="-8.182317">
        <ele>644.0</ele>
        <time>2010-08-26T13:41:36Z</time>
      </trkpt>
      <trkpt lat="41.770650" lon="-8.182350">
        <ele>644.0</ele>
        <time>2010-08-26T13:41:37Z</time>
      </trkpt>
      <trkpt lat="41.770633" lon="-8.182383">
        <ele>644.0</ele>
        <time>2010-08-26T13:41:38Z</time>
      </trkpt>
      <trkpt lat="41.770617" lon="-8.182400">
        <ele>644.0</ele>
        <time>2010-08-26T13:41:39Z</time>
      </trkpt>
      <trkpt lat="41.770583" lon="-8.182433">
        <ele>644.0</ele>
        <time>2010-08-26T13:41:40Z</time>
      </trkpt>
      <trkpt lat="41.770567" lon="-8.182450">
        <ele>645.0</ele>
        <time>2010-08-26T13:41:41Z</time>
      </trkpt>
      <trkpt lat="41.770550" lon="-8.182483">
        <ele>645.0</ele>
        <time>2010-08-26T13:41:42Z</time>
      </trkpt>
      <trkpt lat="41.770533" lon="-8.182517">
        <ele>645.0</ele>
        <time>2010-08-26T13:41:43Z</time>
      </trkpt>
      <trkpt lat="41.770533" lon="-8.182533">
        <ele>645.0</ele>
        <time>2010-08-26T13:41:44Z</time>
      </trkpt>
      <trkpt lat="41.770517" lon="-8.182567">
        <ele>645.0</ele>
        <time>2010-08-26T13:41:45Z</time>
      </trkpt>
      <trkpt lat="41.770500" lon="-8.182600">
        <ele>645.0</ele>
        <time>2010-08-26T13:41:46Z</time>
      </trkpt>
      <trkpt lat="41.770483" lon="-8.182633">
        <ele>645.0</ele>
        <time>2010-08-26T13:41:47Z</time>
      </trkpt>
      <trkpt lat="41.770467" lon="-8.182667">
        <ele>646.0</ele>
        <time>2010-08-26T13:41:48Z</time>
      </trkpt>
      <trkpt lat="41.770467" lon="-8.182700">
        <ele>646.0</ele>
        <time>2010-08-26T13:41:49Z</time>
      </trkpt>
      <trkpt lat="41.770450" lon="-8.182733">
        <ele>646.0</ele>
        <time>2010-08-26T13:41:50Z</time>
      </trkpt>
      <trkpt lat="41.770450" lon="-8.182767">
        <ele>646.0</ele>
        <time>2010-08-26T13:41:51Z</time>
      </trkpt>
      <trkpt lat="41.770433" lon="-8.182800">
        <ele>646.0</ele>
        <time>2010-08-26T13:41:52Z</time>
      </trkpt>
      <trkpt lat="41.770417" lon="-8.182833">
        <ele>646.0</ele>
        <time>2010-08-26T13:41:53Z</time>
      </trkpt>
      <trkpt lat="41.770417" lon="-8.182867">
        <ele>646.0</ele>
        <time>2010-08-26T13:41:54Z</time>
      </trkpt>
      <trkpt lat="41.770400" lon="-8.182900">
        <ele>646.0</ele>
        <time>2010-08-26T13:41:55Z</time>
      </trkpt>
      <trkpt lat="41.770400" lon="-8.182933">
        <ele>647.0</ele>
        <time>2010-08-26T13:41:56Z</time>
      </trkpt>
      <trkpt lat="41.770383" lon="-8.182967">
        <ele>647.0</ele>
        <time>2010-08-26T13:41:57Z</time>
      </trkpt>
      <trkpt lat="41.770383" lon="-8.183000">
        <ele>647.0</ele>
        <time>2010-08-26T13:41:58Z</time>
      </trkpt>
      <trkpt lat="41.770367" lon="-8.183033">
        <ele>647.0</ele>
        <time>2010-08-26T13:41:59Z</time>
      </trkpt>
      <trkpt lat="41.770367" lon="-8.183067">
        <ele>647.0</ele>
        <time>2010-08-26T13:42:00Z</time>
      </trkpt>
      <trkpt lat="41.770350" lon="-8.183100">
        <ele>647.0</ele>
        <time>2010-08-26T13:42:01Z</time>
      </trkpt>
      <trkpt lat="41.770333" lon="-8.183117">
        <ele>647.0</ele>
        <time>2010-08-26T13:42:02Z</time>
      </trkpt>
      <trkpt lat="41.770333" lon="-8.183150">
        <ele>647.0</ele>
        <time>2010-08-26T13:42:03Z</time>
      </trkpt>
      <trkpt lat="41.770317" lon="-8.183183">
        <ele>648.0</ele>
        <time>2010-08-26T13:42:04Z</time>
      </trkpt>
      <trkpt lat="41.770300" lon="-8.183200">
        <ele>648.0</ele>
        <time>2010-08-26T13:42:05Z</time>
      </trkpt>
      <trkpt lat="41.770283" lon="-8.183233">
        <ele>648.0</ele>
        <time>2010-08-26T13:42:06Z</time>
      </trkpt>
      <trkpt lat="41.770267" lon="-8.183250">
        <ele>648.0</ele>
        <time>2010-08-26T13:42:07Z</time>
      </trkpt>
      <trkpt lat="41.770250" lon="-8.183267">
        <ele>648.0</ele>
        <time>2010-08-26T13:42:08Z</time>
      </trkpt>
      <trkpt lat="41.770233" lon="-8.183283">
        <ele>648.0</ele>
        <time>2010-08-26T13:42:09Z</time>
      </trkpt>
      <trkpt lat="41.770200" lon="-8.183300">
        <ele>648.0</ele>
        <time>2010-08-26T13:42:10Z</time>
      </trkpt>
      <trkpt lat="41.770183" lon="-8.183333">
        <ele>649.0</ele>
        <time>2010-08-26T13:42:11Z</time>
      </trkpt>
      <trkpt lat="41.770167" lon="-8.183350">
        <ele>649.0</ele>
        <time>2010-08-26T13:42:12Z</time>
      </trkpt>
      <trkpt lat="41.770150" lon="-8.183367">
        <ele>649.0</ele>
        <time>2010-08-26T13:42:13Z</time>
      </trkpt>
      <trkpt lat="41.770133" lon="-8.183400">
        <ele>649.0</ele>
        <time>2010-08-26T13:42:14Z</time>
      </trkpt>
      <trkpt lat="41.770117" lon="-8.183417">
        <ele>649.0</ele>
        <time>2010-08-26T13:42:15Z</time>
      </trkpt>
      <trkpt lat="41.770100" lon="-8.183433">
        <ele>649.0</ele>
        <time>2010-08-26T13:42:16Z</time>
      </trkpt>
      <trkpt lat="41.770083" lon="-8.183467">
        <ele>649.0</ele>
        <time>2010-08-26T13:42:17Z</time>
      </trkpt>
      <trkpt lat="41.770050" lon="-8.183483">
        <ele>650.0</ele>
        <time>2010-08-26T13:42:18Z</time>
      </trkpt>
      <trkpt lat="41.770033" lon="-8.183517">
        <ele>650.0</ele>
        <time>2010-08-26T13:42:19Z</time>
      </trkpt>
      <trkpt lat="41.770017" lon="-8.183533">
        <ele>650.0</ele>
        <time>2010-08-26T13:42:20Z</time>
      </trkpt>
      <trkpt lat="41.770000" lon="-8.183567">
        <ele>650.0</ele>
        <time>2010-08-26T13:42:21Z</time>
      </trkpt>
      <trkpt lat="41.769983" lon="-8.183583">
        <ele>650.0</ele>
        <time>2010-08-26T13:42:22Z</time>
      </trkpt>
      <trkpt lat="41.769967" lon="-8.183600">
        <ele>650.0</ele>
        <time>2010-08-26T13:42:23Z</time>
      </trkpt>
      <trkpt lat="41.769933" lon="-8.183633">
        <ele>650.0</ele>
        <time>2010-08-26T13:42:24Z</time>
      </trkpt>
      <trkpt lat="41.769917" lon="-8.183667">
        <ele>650.0</ele>
        <time>2010-08-26T13:42:25Z</time>
      </trkpt>
      <trkpt lat="41.769900" lon="-8.183700">
        <ele>650.0</ele>
        <time>2010-08-26T13:42:26Z</time>
      </trkpt>
      <trkpt lat="41.769883" lon="-8.183717">
        <ele>650.0</ele>
        <time>2010-08-26T13:42:27Z</time>
      </trkpt>
      <trkpt lat="41.769867" lon="-8.183750">
        <ele>650.0</ele>
        <time>2010-08-26T13:42:28Z</time>
      </trkpt>
      <trkpt lat="41.769850" lon="-8.183800">
        <ele>650.0</ele>
        <time>2010-08-26T13:42:29Z</time>
      </trkpt>
      <trkpt lat="41.769833" lon="-8.183833">
        <ele>650.0</ele>
        <time>2010-08-26T13:42:30Z</time>
      </trkpt>
      <trkpt lat="41.769833" lon="-8.183867">
        <ele>650.0</ele>
        <time>2010-08-26T13:42:31Z</time>
      </trkpt>
      <trkpt lat="41.769817" lon="-8.183917">
        <ele>650.0</ele>
        <time>2010-08-26T13:42:32Z</time>
      </trkpt>
      <trkpt lat="41.769817" lon="-8.183950">
        <ele>650.0</ele>
        <time>2010-08-26T13:42:33Z</time>
      </trkpt>
      <trkpt lat="41.769817" lon="-8.184000">
        <ele>651.0</ele>
        <time>2010-08-26T13:42:34Z</time>
      </trkpt>
      <trkpt lat="41.769833" lon="-8.184033">
        <ele>651.0</ele>
        <time>2010-08-26T13:42:35Z</time>
      </trkpt>
      <trkpt lat="41.769833" lon="-8.184067">
        <ele>651.0</ele>
        <time>2010-08-26T13:42:36Z</time>
      </trkpt>
      <trkpt lat="41.769850" lon="-8.184100">
        <ele>651.0</ele>
        <time>2010-08-26T13:42:37Z</time>
      </trkpt>
      <trkpt lat="41.769867" lon="-8.184133">
        <ele>651.0</ele>
        <time>2010-08-26T13:42:38Z</time>
      </trkpt>
      <trkpt lat="41.769867" lon="-8.184167">
        <ele>651.0</ele>
        <time>2010-08-26T13:42:39Z</time>
      </trkpt>
      <trkpt lat="41.769883" lon="-8.184200">
        <ele>651.0</ele>
        <time>2010-08-26T13:42:40Z</time>
      </trkpt>
      <trkpt lat="41.769900" lon="-8.184233">
        <ele>651.0</ele>
        <time>2010-08-26T13:42:41Z</time>
      </trkpt>
      <trkpt lat="41.769900" lon="-8.184267">
        <ele>651.0</ele>
        <time>2010-08-26T13:42:42Z</time>
      </trkpt>
      <trkpt lat="41.769917" lon="-8.184300">
        <ele>651.0</ele>
        <time>2010-08-26T13:42:43Z</time>
      </trkpt>
      <trkpt lat="41.769917" lon="-8.184333">
        <ele>652.0</ele>
        <time>2010-08-26T13:42:44Z</time>
      </trkpt>
      <trkpt lat="41.769917" lon="-8.184367">
        <ele>652.0</ele>
        <time>2010-08-26T13:42:45Z</time>
      </trkpt>
      <trkpt lat="41.769917" lon="-8.184400">
        <ele>652.0</ele>
        <time>2010-08-26T13:42:46Z</time>
      </trkpt>
      <trkpt lat="41.769917" lon="-8.184433">
        <ele>652.0</ele>
        <time>2010-08-26T13:42:47Z</time>
      </trkpt>
      <trkpt lat="41.769917" lon="-8.184467">
        <ele>652.0</ele>
        <time>2010-08-26T13:42:48Z</time>
      </trkpt>
      <trkpt lat="41.769917" lon="-8.184500">
        <ele>652.0</ele>
        <time>2010-08-26T13:42:49Z</time>
      </trkpt>
      <trkpt lat="41.769900" lon="-8.184533">
        <ele>652.0</ele>
        <time>2010-08-26T13:42:50Z</time>
      </trkpt>
      <trkpt lat="41.769900" lon="-8.184567">
        <ele>652.0</ele>
        <time>2010-08-26T13:42:51Z</time>
      </trkpt>
      <trkpt lat="41.769900" lon="-8.184600">
        <ele>652.0</ele>
        <time>2010-08-26T13:42:52Z</time>
      </trkpt>
      <trkpt lat="41.769883" lon="-8.184633">
        <ele>652.0</ele>
        <time>2010-08-26T13:42:53Z</time>
      </trkpt>
      <trkpt lat="41.769867" lon="-8.184667">
        <ele>652.0</ele>
        <time>2010-08-26T13:42:54Z</time>
      </trkpt>
      <trkpt lat="41.769867" lon="-8.184700">
        <ele>652.0</ele>
        <time>2010-08-26T13:42:55Z</time>
      </trkpt>
      <trkpt lat="41.769850" lon="-8.184733">
        <ele>652.0</ele>
        <time>2010-08-26T13:42:56Z</time>
      </trkpt>
      <trkpt lat="41.769850" lon="-8.184750">
        <ele>652.0</ele>
        <time>2010-08-26T13:42:57Z</time>
      </trkpt>
      <trkpt lat="41.769833" lon="-8.184783">
        <ele>653.0</ele>
        <time>2010-08-26T13:42:58Z</time>
      </trkpt>
      <trkpt lat="41.769817" lon="-8.184817">
        <ele>653.0</ele>
        <time>2010-08-26T13:42:59Z</time>
      </trkpt>
      <trkpt lat="41.769817" lon="-8.184850">
        <ele>653.0</ele>
        <time>2010-08-26T13:43:00Z</time>
      </trkpt>
      <trkpt lat="41.769800" lon="-8.184883">
        <ele>653.0</ele>
        <time>2010-08-26T13:43:01Z</time>
      </trkpt>
      <trkpt lat="41.769783" lon="-8.184917">
        <ele>653.0</ele>
        <time>2010-08-26T13:43:02Z</time>
      </trkpt>
      <trkpt lat="41.769767" lon="-8.184950">
        <ele>653.0</ele>
        <time>2010-08-26T13:43:03Z</time>
      </trkpt>
      <trkpt lat="41.769767" lon="-8.184983">
        <ele>653.0</ele>
        <time>2010-08-26T13:43:04Z</time>
      </trkpt>
      <trkpt lat="41.769750" lon="-8.185000">
        <ele>653.0</ele>
        <time>2010-08-26T13:43:05Z</time>
      </trkpt>
      <trkpt lat="41.769733" lon="-8.185033">
        <ele>653.0</ele>
        <time>2010-08-26T13:43:06Z</time>
      </trkpt>
      <trkpt lat="41.769717" lon="-8.185067">
        <ele>653.0</ele>
        <time>2010-08-26T13:43:07Z</time>
      </trkpt>
      <trkpt lat="41.769700" lon="-8.185100">
        <ele>653.0</ele>
        <time>2010-08-26T13:43:08Z</time>
      </trkpt>
      <trkpt lat="41.769700" lon="-8.185133">
        <ele>653.0</ele>
        <time>2010-08-26T13:43:09Z</time>
      </trkpt>
      <trkpt lat="41.769683" lon="-8.185167">
        <ele>653.0</ele>
        <time>2010-08-26T13:43:10Z</time>
      </trkpt>
      <trkpt lat="41.769667" lon="-8.185200">
        <ele>653.0</ele>
        <time>2010-08-26T13:43:11Z</time>
      </trkpt>
      <trkpt lat="41.769650" lon="-8.185233">
        <ele>653.0</ele>
        <time>2010-08-26T13:43:12Z</time>
      </trkpt>
      <trkpt lat="41.769633" lon="-8.185267">
        <ele>653.0</ele>
        <time>2010-08-26T13:43:13Z</time>
      </trkpt>
      <trkpt lat="41.769617" lon="-8.185300">
        <ele>653.0</ele>
        <time>2010-08-26T13:43:14Z</time>
      </trkpt>
      <trkpt lat="41.769600" lon="-8.185333">
        <ele>653.0</ele>
        <time>2010-08-26T13:43:15Z</time>
      </trkpt>
      <trkpt lat="41.769583" lon="-8.185367">
        <ele>653.0</ele>
        <time>2010-08-26T13:43:16Z</time>
      </trkpt>
      <trkpt lat="41.769567" lon="-8.185400">
        <ele>653.0</ele>
        <time>2010-08-26T13:43:17Z</time>
      </trkpt>
      <trkpt lat="41.769550" lon="-8.185433">
        <ele>653.0</ele>
        <time>2010-08-26T13:43:18Z</time>
      </trkpt>
      <trkpt lat="41.769550" lon="-8.185467">
        <ele>653.0</ele>
        <time>2010-08-26T13:43:19Z</time>
      </trkpt>
      <trkpt lat="41.769533" lon="-8.185500">
        <ele>653.0</ele>
        <time>2010-08-26T13:43:20Z</time>
      </trkpt>
      <trkpt lat="41.769517" lon="-8.185533">
        <ele>653.0</ele>
        <time>2010-08-26T13:43:21Z</time>
      </trkpt>
      <trkpt lat="41.769500" lon="-8.185567">
        <ele>653.0</ele>
        <time>2010-08-26T13:43:22Z</time>
      </trkpt>
      <trkpt lat="41.769483" lon="-8.185600">
        <ele>653.0</ele>
        <time>2010-08-26T13:43:23Z</time>
      </trkpt>
      <trkpt lat="41.769467" lon="-8.185633">
        <ele>653.0</ele>
        <time>2010-08-26T13:43:24Z</time>
      </trkpt>
      <trkpt lat="41.769450" lon="-8.185667">
        <ele>653.0</ele>
        <time>2010-08-26T13:43:25Z</time>
      </trkpt>
      <trkpt lat="41.769433" lon="-8.185700">
        <ele>653.0</ele>
        <time>2010-08-26T13:43:26Z</time>
      </trkpt>
      <trkpt lat="41.769417" lon="-8.185733">
        <ele>653.0</ele>
        <time>2010-08-26T13:43:27Z</time>
      </trkpt>
      <trkpt lat="41.769383" lon="-8.185767">
        <ele>653.0</ele>
        <time>2010-08-26T13:43:28Z</time>
      </trkpt>
      <trkpt lat="41.769367" lon="-8.185800">
        <ele>653.0</ele>
        <time>2010-08-26T13:43:29Z</time>
      </trkpt>
      <trkpt lat="41.769350" lon="-8.185833">
        <ele>653.0</ele>
        <time>2010-08-26T13:43:30Z</time>
      </trkpt>
      <trkpt lat="41.769333" lon="-8.185867">
        <ele>653.0</ele>
        <time>2010-08-26T13:43:31Z</time>
      </trkpt>
      <trkpt lat="41.769317" lon="-8.185900">
        <ele>653.0</ele>
        <time>2010-08-26T13:43:32Z</time>
      </trkpt>
      <trkpt lat="41.769283" lon="-8.185917">
        <ele>653.0</ele>
        <time>2010-08-26T13:43:33Z</time>
      </trkpt>
      <trkpt lat="41.769267" lon="-8.185950">
        <ele>653.0</ele>
        <time>2010-08-26T13:43:34Z</time>
      </trkpt>
      <trkpt lat="41.769250" lon="-8.185983">
        <ele>653.0</ele>
        <time>2010-08-26T13:43:35Z</time>
      </trkpt>
      <trkpt lat="41.769217" lon="-8.186017">
        <ele>653.0</ele>
        <time>2010-08-26T13:43:36Z</time>
      </trkpt>
      <trkpt lat="41.769200" lon="-8.186050">
        <ele>653.0</ele>
        <time>2010-08-26T13:43:37Z</time>
      </trkpt>
      <trkpt lat="41.769183" lon="-8.186083">
        <ele>653.0</ele>
        <time>2010-08-26T13:43:38Z</time>
      </trkpt>
      <trkpt lat="41.769167" lon="-8.186117">
        <ele>653.0</ele>
        <time>2010-08-26T13:43:39Z</time>
      </trkpt>
      <trkpt lat="41.769150" lon="-8.186150">
        <ele>653.0</ele>
        <time>2010-08-26T13:43:40Z</time>
      </trkpt>
      <trkpt lat="41.769133" lon="-8.186183">
        <ele>654.0</ele>
        <time>2010-08-26T13:43:41Z</time>
      </trkpt>
      <trkpt lat="41.769117" lon="-8.186217">
        <ele>654.0</ele>
        <time>2010-08-26T13:43:42Z</time>
      </trkpt>
      <trkpt lat="41.769083" lon="-8.186233">
        <ele>654.0</ele>
        <time>2010-08-26T13:43:43Z</time>
      </trkpt>
      <trkpt lat="41.769067" lon="-8.186267">
        <ele>654.0</ele>
        <time>2010-08-26T13:43:44Z</time>
      </trkpt>
      <trkpt lat="41.769050" lon="-8.186300">
        <ele>654.0</ele>
        <time>2010-08-26T13:43:45Z</time>
      </trkpt>
      <trkpt lat="41.769033" lon="-8.186333">
        <ele>654.0</ele>
        <time>2010-08-26T13:43:46Z</time>
      </trkpt>
      <trkpt lat="41.769017" lon="-8.186367">
        <ele>654.0</ele>
        <time>2010-08-26T13:43:47Z</time>
      </trkpt>
      <trkpt lat="41.768983" lon="-8.186400">
        <ele>654.0</ele>
        <time>2010-08-26T13:43:48Z</time>
      </trkpt>
      <trkpt lat="41.768967" lon="-8.186433">
        <ele>654.0</ele>
        <time>2010-08-26T13:43:49Z</time>
      </trkpt>
      <trkpt lat="41.768950" lon="-8.186467">
        <ele>654.0</ele>
        <time>2010-08-26T13:43:50Z</time>
      </trkpt>
      <trkpt lat="41.768933" lon="-8.186500">
        <ele>654.0</ele>
        <time>2010-08-26T13:43:51Z</time>
      </trkpt>
      <trkpt lat="41.768900" lon="-8.186533">
        <ele>654.0</ele>
        <time>2010-08-26T13:43:52Z</time>
      </trkpt>
      <trkpt lat="41.768883" lon="-8.186567">
        <ele>654.0</ele>
        <time>2010-08-26T13:43:53Z</time>
      </trkpt>
      <trkpt lat="41.768867" lon="-8.186600">
        <ele>654.0</ele>
        <time>2010-08-26T13:43:54Z</time>
      </trkpt>
      <trkpt lat="41.768850" lon="-8.186633">
        <ele>654.0</ele>
        <time>2010-08-26T13:43:55Z</time>
      </trkpt>
      <trkpt lat="41.768833" lon="-8.186650">
        <ele>654.0</ele>
        <time>2010-08-26T13:43:56Z</time>
      </trkpt>
      <trkpt lat="41.768817" lon="-8.186683">
        <ele>654.0</ele>
        <time>2010-08-26T13:43:57Z</time>
      </trkpt>
      <trkpt lat="41.768783" lon="-8.186717">
        <ele>654.0</ele>
        <time>2010-08-26T13:43:58Z</time>
      </trkpt>
      <trkpt lat="41.768767" lon="-8.186750">
        <ele>654.0</ele>
        <time>2010-08-26T13:43:59Z</time>
      </trkpt>
      <trkpt lat="41.768750" lon="-8.186783">
        <ele>654.0</ele>
        <time>2010-08-26T13:44:00Z</time>
      </trkpt>
      <trkpt lat="41.768733" lon="-8.186817">
        <ele>654.0</ele>
        <time>2010-08-26T13:44:01Z</time>
      </trkpt>
      <trkpt lat="41.768717" lon="-8.186850">
        <ele>654.0</ele>
        <time>2010-08-26T13:44:02Z</time>
      </trkpt>
      <trkpt lat="41.768700" lon="-8.186867">
        <ele>654.0</ele>
        <time>2010-08-26T13:44:03Z</time>
      </trkpt>
      <trkpt lat="41.768683" lon="-8.186900">
        <ele>654.0</ele>
        <time>2010-08-26T13:44:04Z</time>
      </trkpt>
      <trkpt lat="41.768667" lon="-8.186933">
        <ele>654.0</ele>
        <time>2010-08-26T13:44:05Z</time>
      </trkpt>
      <trkpt lat="41.768633" lon="-8.186983">
        <ele>654.0</ele>
        <time>2010-08-26T13:44:06Z</time>
      </trkpt>
      <trkpt lat="41.768617" lon="-8.187017">
        <ele>654.0</ele>
        <time>2010-08-26T13:44:07Z</time>
      </trkpt>
      <trkpt lat="41.768600" lon="-8.187033">
        <ele>654.0</ele>
        <time>2010-08-26T13:44:08Z</time>
      </trkpt>
      <trkpt lat="41.768583" lon="-8.187067">
        <ele>654.0</ele>
        <time>2010-08-26T13:44:09Z</time>
      </trkpt>
      <trkpt lat="41.768567" lon="-8.187117">
        <ele>654.0</ele>
        <time>2010-08-26T13:44:10Z</time>
      </trkpt>
      <trkpt lat="41.768550" lon="-8.187133">
        <ele>654.0</ele>
        <time>2010-08-26T13:44:11Z</time>
      </trkpt>
      <trkpt lat="41.768533" lon="-8.187167">
        <ele>655.0</ele>
        <time>2010-08-26T13:44:12Z</time>
      </trkpt>
      <trkpt lat="41.768517" lon="-8.187200">
        <ele>655.0</ele>
        <time>2010-08-26T13:44:13Z</time>
      </trkpt>
      <trkpt lat="41.768500" lon="-8.187233">
        <ele>655.0</ele>
        <time>2010-08-26T13:44:14Z</time>
      </trkpt>
      <trkpt lat="41.768483" lon="-8.187267">
        <ele>655.0</ele>
        <time>2010-08-26T13:44:15Z</time>
      </trkpt>
      <trkpt lat="41.768467" lon="-8.187300">
        <ele>655.0</ele>
        <time>2010-08-26T13:44:16Z</time>
      </trkpt>
      <trkpt lat="41.768450" lon="-8.187333">
        <ele>655.0</ele>
        <time>2010-08-26T13:44:17Z</time>
      </trkpt>
      <trkpt lat="41.768433" lon="-8.187367">
        <ele>655.0</ele>
        <time>2010-08-26T13:44:18Z</time>
      </trkpt>
      <trkpt lat="41.768417" lon="-8.187400">
        <ele>655.0</ele>
        <time>2010-08-26T13:44:19Z</time>
      </trkpt>
      <trkpt lat="41.768417" lon="-8.187433">
        <ele>656.0</ele>
        <time>2010-08-26T13:44:20Z</time>
      </trkpt>
      <trkpt lat="41.768400" lon="-8.187467">
        <ele>656.0</ele>
        <time>2010-08-26T13:44:21Z</time>
      </trkpt>
      <trkpt lat="41.768400" lon="-8.187500">
        <ele>656.0</ele>
        <time>2010-08-26T13:44:22Z</time>
      </trkpt>
      <trkpt lat="41.768383" lon="-8.187533">
        <ele>656.0</ele>
        <time>2010-08-26T13:44:23Z</time>
      </trkpt>
      <trkpt lat="41.768383" lon="-8.187567">
        <ele>656.0</ele>
        <time>2010-08-26T13:44:24Z</time>
      </trkpt>
      <trkpt lat="41.768367" lon="-8.187617">
        <ele>656.0</ele>
        <time>2010-08-26T13:44:25Z</time>
      </trkpt>
      <trkpt lat="41.768367" lon="-8.187650">
        <ele>656.0</ele>
        <time>2010-08-26T13:44:26Z</time>
      </trkpt>
      <trkpt lat="41.768367" lon="-8.187683">
        <ele>656.0</ele>
        <time>2010-08-26T13:44:27Z</time>
      </trkpt>
      <trkpt lat="41.768367" lon="-8.187717">
        <ele>657.0</ele>
        <time>2010-08-26T13:44:28Z</time>
      </trkpt>
      <trkpt lat="41.768367" lon="-8.187750">
        <ele>657.0</ele>
        <time>2010-08-26T13:44:29Z</time>
      </trkpt>
      <trkpt lat="41.768367" lon="-8.187783">
        <ele>657.0</ele>
        <time>2010-08-26T13:44:30Z</time>
      </trkpt>
      <trkpt lat="41.768367" lon="-8.187817">
        <ele>657.0</ele>
        <time>2010-08-26T13:44:31Z</time>
      </trkpt>
      <trkpt lat="41.768350" lon="-8.187850">
        <ele>657.0</ele>
        <time>2010-08-26T13:44:32Z</time>
      </trkpt>
      <trkpt lat="41.768350" lon="-8.187883">
        <ele>657.0</ele>
        <time>2010-08-26T13:44:33Z</time>
      </trkpt>
      <trkpt lat="41.768350" lon="-8.187917">
        <ele>658.0</ele>
        <time>2010-08-26T13:44:34Z</time>
      </trkpt>
      <trkpt lat="41.768350" lon="-8.187950">
        <ele>658.0</ele>
        <time>2010-08-26T13:44:35Z</time>
      </trkpt>
      <trkpt lat="41.768350" lon="-8.187983">
        <ele>658.0</ele>
        <time>2010-08-26T13:44:36Z</time>
      </trkpt>
      <trkpt lat="41.768350" lon="-8.188017">
        <ele>658.0</ele>
        <time>2010-08-26T13:44:37Z</time>
      </trkpt>
      <trkpt lat="41.768333" lon="-8.188050">
        <ele>658.0</ele>
        <time>2010-08-26T13:44:38Z</time>
      </trkpt>
      <trkpt lat="41.768333" lon="-8.188100">
        <ele>658.0</ele>
        <time>2010-08-26T13:44:39Z</time>
      </trkpt>
      <trkpt lat="41.768333" lon="-8.188133">
        <ele>658.0</ele>
        <time>2010-08-26T13:44:40Z</time>
      </trkpt>
      <trkpt lat="41.768333" lon="-8.188167">
        <ele>658.0</ele>
        <time>2010-08-26T13:44:41Z</time>
      </trkpt>
      <trkpt lat="41.768333" lon="-8.188200">
        <ele>659.0</ele>
        <time>2010-08-26T13:44:42Z</time>
      </trkpt>
      <trkpt lat="41.768333" lon="-8.188233">
        <ele>659.0</ele>
        <time>2010-08-26T13:44:43Z</time>
      </trkpt>
      <trkpt lat="41.768333" lon="-8.188267">
        <ele>659.0</ele>
        <time>2010-08-26T13:44:44Z</time>
      </trkpt>
      <trkpt lat="41.768333" lon="-8.188317">
        <ele>659.0</ele>
        <time>2010-08-26T13:44:45Z</time>
      </trkpt>
      <trkpt lat="41.768317" lon="-8.188350">
        <ele>659.0</ele>
        <time>2010-08-26T13:44:46Z</time>
      </trkpt>
      <trkpt lat="41.768317" lon="-8.188383">
        <ele>659.0</ele>
        <time>2010-08-26T13:44:47Z</time>
      </trkpt>
      <trkpt lat="41.768300" lon="-8.188417">
        <ele>659.0</ele>
        <time>2010-08-26T13:44:48Z</time>
      </trkpt>
      <trkpt lat="41.768300" lon="-8.188450">
        <ele>659.0</ele>
        <time>2010-08-26T13:44:49Z</time>
      </trkpt>
      <trkpt lat="41.768283" lon="-8.188500">
        <ele>659.0</ele>
        <time>2010-08-26T13:44:50Z</time>
      </trkpt>
      <trkpt lat="41.768283" lon="-8.188533">
        <ele>659.0</ele>
        <time>2010-08-26T13:44:51Z</time>
      </trkpt>
      <trkpt lat="41.768267" lon="-8.188567">
        <ele>659.0</ele>
        <time>2010-08-26T13:44:52Z</time>
      </trkpt>
      <trkpt lat="41.768250" lon="-8.188600">
        <ele>659.0</ele>
        <time>2010-08-26T13:44:53Z</time>
      </trkpt>
      <trkpt lat="41.768233" lon="-8.188633">
        <ele>659.0</ele>
        <time>2010-08-26T13:44:54Z</time>
      </trkpt>
      <trkpt lat="41.768217" lon="-8.188667">
        <ele>659.0</ele>
        <time>2010-08-26T13:44:55Z</time>
      </trkpt>
      <trkpt lat="41.768200" lon="-8.188700">
        <ele>659.0</ele>
        <time>2010-08-26T13:44:56Z</time>
      </trkpt>
      <trkpt lat="41.768183" lon="-8.188733">
        <ele>659.0</ele>
        <time>2010-08-26T13:44:57Z</time>
      </trkpt>
      <trkpt lat="41.768167" lon="-8.188750">
        <ele>659.0</ele>
        <time>2010-08-26T13:44:58Z</time>
      </trkpt>
      <trkpt lat="41.768150" lon="-8.188783">
        <ele>658.0</ele>
        <time>2010-08-26T13:44:59Z</time>
      </trkpt>
      <trkpt lat="41.768133" lon="-8.188800">
        <ele>658.0</ele>
        <time>2010-08-26T13:45:00Z</time>
      </trkpt>
      <trkpt lat="41.768117" lon="-8.188833">
        <ele>658.0</ele>
        <time>2010-08-26T13:45:01Z</time>
      </trkpt>
      <trkpt lat="41.768100" lon="-8.188850">
        <ele>658.0</ele>
        <time>2010-08-26T13:45:02Z</time>
      </trkpt>
      <trkpt lat="41.768067" lon="-8.188883">
        <ele>658.0</ele>
        <time>2010-08-26T13:45:03Z</time>
      </trkpt>
      <trkpt lat="41.768050" lon="-8.188917">
        <ele>658.0</ele>
        <time>2010-08-26T13:45:04Z</time>
      </trkpt>
      <trkpt lat="41.768033" lon="-8.188950">
        <ele>658.0</ele>
        <time>2010-08-26T13:45:05Z</time>
      </trkpt>
      <trkpt lat="41.768000" lon="-8.188967">
        <ele>658.0</ele>
        <time>2010-08-26T13:45:06Z</time>
      </trkpt>
      <trkpt lat="41.767983" lon="-8.189000">
        <ele>658.0</ele>
        <time>2010-08-26T13:45:07Z</time>
      </trkpt>
      <trkpt lat="41.767967" lon="-8.189033">
        <ele>658.0</ele>
        <time>2010-08-26T13:45:08Z</time>
      </trkpt>
      <trkpt lat="41.767933" lon="-8.189067">
        <ele>658.0</ele>
        <time>2010-08-26T13:45:09Z</time>
      </trkpt>
      <trkpt lat="41.767917" lon="-8.189100">
        <ele>657.0</ele>
        <time>2010-08-26T13:45:10Z</time>
      </trkpt>
      <trkpt lat="41.767900" lon="-8.189117">
        <ele>657.0</ele>
        <time>2010-08-26T13:45:11Z</time>
      </trkpt>
      <trkpt lat="41.767867" lon="-8.189150">
        <ele>657.0</ele>
        <time>2010-08-26T13:45:12Z</time>
      </trkpt>
      <trkpt lat="41.767850" lon="-8.189183">
        <ele>657.0</ele>
        <time>2010-08-26T13:45:13Z</time>
      </trkpt>
      <trkpt lat="41.767817" lon="-8.189217">
        <ele>657.0</ele>
        <time>2010-08-26T13:45:14Z</time>
      </trkpt>
      <trkpt lat="41.767800" lon="-8.189250">
        <ele>657.0</ele>
        <time>2010-08-26T13:45:15Z</time>
      </trkpt>
      <trkpt lat="41.767767" lon="-8.189283">
        <ele>656.0</ele>
        <time>2010-08-26T13:45:16Z</time>
      </trkpt>
      <trkpt lat="41.767750" lon="-8.189317">
        <ele>656.0</ele>
        <time>2010-08-26T13:45:17Z</time>
      </trkpt>
      <trkpt lat="41.767717" lon="-8.189350">
        <ele>656.0</ele>
        <time>2010-08-26T13:45:18Z</time>
      </trkpt>
      <trkpt lat="41.767700" lon="-8.189383">
        <ele>656.0</ele>
        <time>2010-08-26T13:45:19Z</time>
      </trkpt>
      <trkpt lat="41.767667" lon="-8.189417">
        <ele>656.0</ele>
        <time>2010-08-26T13:45:20Z</time>
      </trkpt>
      <trkpt lat="41.767633" lon="-8.189450">
        <ele>655.0</ele>
        <time>2010-08-26T13:45:21Z</time>
      </trkpt>
      <trkpt lat="41.767617" lon="-8.189483">
        <ele>655.0</ele>
        <time>2010-08-26T13:45:22Z</time>
      </trkpt>
      <trkpt lat="41.767583" lon="-8.189533">
        <ele>655.0</ele>
        <time>2010-08-26T13:45:23Z</time>
      </trkpt>
      <trkpt lat="41.767550" lon="-8.189567">
        <ele>655.0</ele>
        <time>2010-08-26T13:45:24Z</time>
      </trkpt>
      <trkpt lat="41.767533" lon="-8.189617">
        <ele>655.0</ele>
        <time>2010-08-26T13:45:25Z</time>
      </trkpt>
      <trkpt lat="41.767500" lon="-8.189650">
        <ele>655.0</ele>
        <time>2010-08-26T13:45:26Z</time>
      </trkpt>
      <trkpt lat="41.767467" lon="-8.189700">
        <ele>655.0</ele>
        <time>2010-08-26T13:45:27Z</time>
      </trkpt>
      <trkpt lat="41.767433" lon="-8.189733">
        <ele>655.0</ele>
        <time>2010-08-26T13:45:28Z</time>
      </trkpt>
      <trkpt lat="41.767417" lon="-8.189767">
        <ele>655.0</ele>
        <time>2010-08-26T13:45:29Z</time>
      </trkpt>
      <trkpt lat="41.767383" lon="-8.189817">
        <ele>655.0</ele>
        <time>2010-08-26T13:45:30Z</time>
      </trkpt>
      <trkpt lat="41.767350" lon="-8.189850">
        <ele>655.0</ele>
        <time>2010-08-26T13:45:31Z</time>
      </trkpt>
      <trkpt lat="41.767317" lon="-8.189900">
        <ele>655.0</ele>
        <time>2010-08-26T13:45:32Z</time>
      </trkpt>
      <trkpt lat="41.767283" lon="-8.189933">
        <ele>654.0</ele>
        <time>2010-08-26T13:45:33Z</time>
      </trkpt>
      <trkpt lat="41.767250" lon="-8.189967">
        <ele>654.0</ele>
        <time>2010-08-26T13:45:34Z</time>
      </trkpt>
      <trkpt lat="41.767217" lon="-8.190000">
        <ele>654.0</ele>
        <time>2010-08-26T13:45:35Z</time>
      </trkpt>
      <trkpt lat="41.767200" lon="-8.190033">
        <ele>654.0</ele>
        <time>2010-08-26T13:45:36Z</time>
      </trkpt>
      <trkpt lat="41.767167" lon="-8.190067">
        <ele>654.0</ele>
        <time>2010-08-26T13:45:37Z</time>
      </trkpt>
      <trkpt lat="41.767150" lon="-8.190100">
        <ele>653.0</ele>
        <time>2010-08-26T13:45:38Z</time>
      </trkpt>
      <trkpt lat="41.767150" lon="-8.190133">
        <ele>653.0</ele>
        <time>2010-08-26T13:45:39Z</time>
      </trkpt>
      <trkpt lat="41.767150" lon="-8.190167">
        <ele>653.0</ele>
        <time>2010-08-26T13:45:40Z</time>
      </trkpt>
      <trkpt lat="41.767117" lon="-8.190217">
        <ele>653.0</ele>
        <time>2010-08-26T13:45:42Z</time>
      </trkpt>
      <trkpt lat="41.767100" lon="-8.190233">
        <ele>654.0</ele>
        <time>2010-08-26T13:46:01Z</time>
      </trkpt>
      <trkpt lat="41.767083" lon="-8.190283">
        <ele>654.0</ele>
        <time>2010-08-26T13:46:03Z</time>
      </trkpt>
      <trkpt lat="41.767100" lon="-8.190333">
        <ele>654.0</ele>
        <time>2010-08-26T13:46:05Z</time>
      </trkpt>
      <trkpt lat="41.767117" lon="-8.190350">
        <ele>654.0</ele>
        <time>2010-08-26T13:46:06Z</time>
      </trkpt>
      <trkpt lat="41.767133" lon="-8.190367">
        <ele>654.0</ele>
        <time>2010-08-26T13:46:07Z</time>
      </trkpt>
      <trkpt lat="41.767167" lon="-8.190383">
        <ele>655.0</ele>
        <time>2010-08-26T13:46:08Z</time>
      </trkpt>
      <trkpt lat="41.767183" lon="-8.190400">
        <ele>655.0</ele>
        <time>2010-08-26T13:46:09Z</time>
      </trkpt>
      <trkpt lat="41.767200" lon="-8.190417">
        <ele>655.0</ele>
        <time>2010-08-26T13:46:10Z</time>
      </trkpt>
      <trkpt lat="41.767233" lon="-8.190450">
        <ele>655.0</ele>
        <time>2010-08-26T13:46:11Z</time>
      </trkpt>
      <trkpt lat="41.767250" lon="-8.190467">
        <ele>655.0</ele>
        <time>2010-08-26T13:46:12Z</time>
      </trkpt>
      <trkpt lat="41.767267" lon="-8.190483">
        <ele>655.0</ele>
        <time>2010-08-26T13:46:13Z</time>
      </trkpt>
      <trkpt lat="41.767283" lon="-8.190517">
        <ele>655.0</ele>
        <time>2010-08-26T13:46:14Z</time>
      </trkpt>
      <trkpt lat="41.767317" lon="-8.190533">
        <ele>655.0</ele>
        <time>2010-08-26T13:46:15Z</time>
      </trkpt>
      <trkpt lat="41.767333" lon="-8.190567">
        <ele>655.0</ele>
        <time>2010-08-26T13:46:16Z</time>
      </trkpt>
      <trkpt lat="41.767350" lon="-8.190583">
        <ele>655.0</ele>
        <time>2010-08-26T13:46:17Z</time>
      </trkpt>
      <trkpt lat="41.767383" lon="-8.190600">
        <ele>655.0</ele>
        <time>2010-08-26T13:46:18Z</time>
      </trkpt>
      <trkpt lat="41.767400" lon="-8.190633">
        <ele>656.0</ele>
        <time>2010-08-26T13:46:19Z</time>
      </trkpt>
      <trkpt lat="41.767433" lon="-8.190650">
        <ele>656.0</ele>
        <time>2010-08-26T13:46:20Z</time>
      </trkpt>
      <trkpt lat="41.767450" lon="-8.190683">
        <ele>656.0</ele>
        <time>2010-08-26T13:46:21Z</time>
      </trkpt>
      <trkpt lat="41.767467" lon="-8.190700">
        <ele>656.0</ele>
        <time>2010-08-26T13:46:22Z</time>
      </trkpt>
      <trkpt lat="41.767483" lon="-8.190733">
        <ele>656.0</ele>
        <time>2010-08-26T13:46:23Z</time>
      </trkpt>
      <trkpt lat="41.767500" lon="-8.190767">
        <ele>656.0</ele>
        <time>2010-08-26T13:46:24Z</time>
      </trkpt>
      <trkpt lat="41.767533" lon="-8.190800">
        <ele>657.0</ele>
        <time>2010-08-26T13:46:26Z</time>
      </trkpt>
      <trkpt lat="41.767550" lon="-8.190850">
        <ele>654.0</ele>
        <time>2010-08-26T13:47:45Z</time>
      </trkpt>
      <trkpt lat="41.767517" lon="-8.190867">
        <ele>653.0</ele>
        <time>2010-08-26T13:47:48Z</time>
      </trkpt>
      <trkpt lat="41.767483" lon="-8.190833">
        <ele>654.0</ele>
        <time>2010-08-26T13:47:50Z</time>
      </trkpt>
      <trkpt lat="41.767467" lon="-8.190800">
        <ele>654.0</ele>
        <time>2010-08-26T13:47:52Z</time>
      </trkpt>
      <trkpt lat="41.767467" lon="-8.190767">
        <ele>654.0</ele>
        <time>2010-08-26T13:47:53Z</time>
      </trkpt>
      <trkpt lat="41.767450" lon="-8.190750">
        <ele>654.0</ele>
        <time>2010-08-26T13:47:54Z</time>
      </trkpt>
      <trkpt lat="41.767417" lon="-8.190700">
        <ele>654.0</ele>
        <time>2010-08-26T13:47:56Z</time>
      </trkpt>
      <trkpt lat="41.767417" lon="-8.190667">
        <ele>655.0</ele>
        <time>2010-08-26T13:47:57Z</time>
      </trkpt>
      <trkpt lat="41.767400" lon="-8.190650">
        <ele>655.0</ele>
        <time>2010-08-26T13:47:58Z</time>
      </trkpt>
      <trkpt lat="41.767383" lon="-8.190633">
        <ele>655.0</ele>
        <time>2010-08-26T13:47:59Z</time>
      </trkpt>
      <trkpt lat="41.767367" lon="-8.190600">
        <ele>655.0</ele>
        <time>2010-08-26T13:48:00Z</time>
      </trkpt>
      <trkpt lat="41.767333" lon="-8.190583">
        <ele>655.0</ele>
        <time>2010-08-26T13:48:01Z</time>
      </trkpt>
      <trkpt lat="41.767300" lon="-8.190550">
        <ele>656.0</ele>
        <time>2010-08-26T13:48:03Z</time>
      </trkpt>
      <trkpt lat="41.767283" lon="-8.190517">
        <ele>656.0</ele>
        <time>2010-08-26T13:48:05Z</time>
      </trkpt>
      <trkpt lat="41.767250" lon="-8.190483">
        <ele>657.0</ele>
        <time>2010-08-26T13:48:07Z</time>
      </trkpt>
      <trkpt lat="41.767217" lon="-8.190467">
        <ele>657.0</ele>
        <time>2010-08-26T13:48:09Z</time>
      </trkpt>
      <trkpt lat="41.767183" lon="-8.190433">
        <ele>657.0</ele>
        <time>2010-08-26T13:48:11Z</time>
      </trkpt>
      <trkpt lat="41.767150" lon="-8.190417">
        <ele>657.0</ele>
        <time>2010-08-26T13:48:13Z</time>
      </trkpt>
      <trkpt lat="41.767133" lon="-8.190367">
        <ele>657.0</ele>
        <time>2010-08-26T13:48:16Z</time>
      </trkpt>
      <trkpt lat="41.767150" lon="-8.190350">
        <ele>657.0</ele>
        <time>2010-08-26T13:48:19Z</time>
      </trkpt>
      <trkpt lat="41.767183" lon="-8.190350">
        <ele>656.0</ele>
        <time>2010-08-26T13:48:21Z</time>
      </trkpt>
      <trkpt lat="41.767217" lon="-8.190367">
        <ele>655.0</ele>
        <time>2010-08-26T13:48:23Z</time>
      </trkpt>
      <trkpt lat="41.767250" lon="-8.190367">
        <ele>654.0</ele>
        <time>2010-08-26T13:48:25Z</time>
      </trkpt>
      <trkpt lat="41.767283" lon="-8.190383">
        <ele>654.0</ele>
        <time>2010-08-26T13:48:26Z</time>
      </trkpt>
      <trkpt lat="41.767300" lon="-8.190383">
        <ele>654.0</ele>
        <time>2010-08-26T13:48:27Z</time>
      </trkpt>
      <trkpt lat="41.767333" lon="-8.190383">
        <ele>654.0</ele>
        <time>2010-08-26T13:48:28Z</time>
      </trkpt>
      <trkpt lat="41.767350" lon="-8.190383">
        <ele>653.0</ele>
        <time>2010-08-26T13:48:29Z</time>
      </trkpt>
      <trkpt lat="41.767383" lon="-8.190383">
        <ele>653.0</ele>
        <time>2010-08-26T13:48:30Z</time>
      </trkpt>
      <trkpt lat="41.767417" lon="-8.190383">
        <ele>653.0</ele>
        <time>2010-08-26T13:48:32Z</time>
      </trkpt>
      <trkpt lat="41.767467" lon="-8.190383">
        <ele>653.0</ele>
        <time>2010-08-26T13:48:34Z</time>
      </trkpt>
      <trkpt lat="41.767500" lon="-8.190383">
        <ele>653.0</ele>
        <time>2010-08-26T13:48:36Z</time>
      </trkpt>
      <trkpt lat="41.767550" lon="-8.190383">
        <ele>653.0</ele>
        <time>2010-08-26T13:48:38Z</time>
      </trkpt>
      <trkpt lat="41.767567" lon="-8.190400">
        <ele>653.0</ele>
        <time>2010-08-26T13:48:39Z</time>
      </trkpt>
      <trkpt lat="41.767600" lon="-8.190400">
        <ele>653.0</ele>
        <time>2010-08-26T13:48:40Z</time>
      </trkpt>
      <trkpt lat="41.767617" lon="-8.190400">
        <ele>653.0</ele>
        <time>2010-08-26T13:48:41Z</time>
      </trkpt>
      <trkpt lat="41.767650" lon="-8.190417">
        <ele>653.0</ele>
        <time>2010-08-26T13:48:42Z</time>
      </trkpt>
      <trkpt lat="41.767683" lon="-8.190417">
        <ele>653.0</ele>
        <time>2010-08-26T13:48:43Z</time>
      </trkpt>
      <trkpt lat="41.767717" lon="-8.190417">
        <ele>653.0</ele>
        <time>2010-08-26T13:48:44Z</time>
      </trkpt>
      <trkpt lat="41.767733" lon="-8.190417">
        <ele>653.0</ele>
        <time>2010-08-26T13:48:45Z</time>
      </trkpt>
      <trkpt lat="41.767767" lon="-8.190433">
        <ele>653.0</ele>
        <time>2010-08-26T13:48:46Z</time>
      </trkpt>
      <trkpt lat="41.767800" lon="-8.190433">
        <ele>653.0</ele>
        <time>2010-08-26T13:48:47Z</time>
      </trkpt>
      <trkpt lat="41.767833" lon="-8.190433">
        <ele>653.0</ele>
        <time>2010-08-26T13:48:48Z</time>
      </trkpt>
      <trkpt lat="41.767850" lon="-8.190450">
        <ele>653.0</ele>
        <time>2010-08-26T13:48:49Z</time>
      </trkpt>
      <trkpt lat="41.767883" lon="-8.190450">
        <ele>652.0</ele>
        <time>2010-08-26T13:48:50Z</time>
      </trkpt>
      <trkpt lat="41.767900" lon="-8.190467">
        <ele>652.0</ele>
        <time>2010-08-26T13:48:51Z</time>
      </trkpt>
      <trkpt lat="41.767933" lon="-8.190467">
        <ele>652.0</ele>
        <time>2010-08-26T13:48:52Z</time>
      </trkpt>
      <trkpt lat="41.767950" lon="-8.190467">
        <ele>652.0</ele>
        <time>2010-08-26T13:48:53Z</time>
      </trkpt>
      <trkpt lat="41.767983" lon="-8.190483">
        <ele>652.0</ele>
        <time>2010-08-26T13:48:54Z</time>
      </trkpt>
      <trkpt lat="41.768000" lon="-8.190483">
        <ele>652.0</ele>
        <time>2010-08-26T13:48:55Z</time>
      </trkpt>
      <trkpt lat="41.768033" lon="-8.190500">
        <ele>651.0</ele>
        <time>2010-08-26T13:48:56Z</time>
      </trkpt>
      <trkpt lat="41.768067" lon="-8.190500">
        <ele>651.0</ele>
        <time>2010-08-26T13:48:57Z</time>
      </trkpt>
      <trkpt lat="41.768100" lon="-8.190483">
        <ele>651.0</ele>
        <time>2010-08-26T13:48:58Z</time>
      </trkpt>
      <trkpt lat="41.768117" lon="-8.190483">
        <ele>650.0</ele>
        <time>2010-08-26T13:48:59Z</time>
      </trkpt>
      <trkpt lat="41.768167" lon="-8.190467">
        <ele>650.0</ele>
        <time>2010-08-26T13:49:01Z</time>
      </trkpt>
      <trkpt lat="41.768183" lon="-8.190467">
        <ele>649.0</ele>
        <time>2010-08-26T13:49:03Z</time>
      </trkpt>
      <trkpt lat="41.768233" lon="-8.190467">
        <ele>649.0</ele>
        <time>2010-08-26T13:49:05Z</time>
      </trkpt>
      <trkpt lat="41.768267" lon="-8.190483">
        <ele>648.0</ele>
        <time>2010-08-26T13:49:07Z</time>
      </trkpt>
      <trkpt lat="41.768300" lon="-8.190500">
        <ele>644.0</ele>
        <time>2010-08-26T13:49:36Z</time>
      </trkpt>
      <trkpt lat="41.768283" lon="-8.190450">
        <ele>643.0</ele>
        <time>2010-08-26T13:51:56Z</time>
      </trkpt>
      <trkpt lat="41.768250" lon="-8.190450">
        <ele>643.0</ele>
        <time>2010-08-26T13:51:59Z</time>
      </trkpt>
      <trkpt lat="41.768200" lon="-8.190450">
        <ele>643.0</ele>
        <time>2010-08-26T13:52:02Z</time>
      </trkpt>
      <trkpt lat="41.768167" lon="-8.190467">
        <ele>644.0</ele>
        <time>2010-08-26T13:52:05Z</time>
      </trkpt>
      <trkpt lat="41.768133" lon="-8.190467">
        <ele>644.0</ele>
        <time>2010-08-26T13:52:07Z</time>
      </trkpt>
      <trkpt lat="41.768100" lon="-8.190483">
        <ele>644.0</ele>
        <time>2010-08-26T13:52:09Z</time>
      </trkpt>
      <trkpt lat="41.768067" lon="-8.190483">
        <ele>645.0</ele>
        <time>2010-08-26T13:52:11Z</time>
      </trkpt>
      <trkpt lat="41.768033" lon="-8.190483">
        <ele>646.0</ele>
        <time>2010-08-26T13:52:14Z</time>
      </trkpt>
      <trkpt lat="41.767983" lon="-8.190467">
        <ele>646.0</ele>
        <time>2010-08-26T13:52:17Z</time>
      </trkpt>
      <trkpt lat="41.767950" lon="-8.190467">
        <ele>647.0</ele>
        <time>2010-08-26T13:52:20Z</time>
      </trkpt>
      <trkpt lat="41.767900" lon="-8.190450">
        <ele>647.0</ele>
        <time>2010-08-26T13:52:23Z</time>
      </trkpt>
      <trkpt lat="41.767867" lon="-8.190417">
        <ele>648.0</ele>
        <time>2010-08-26T13:52:26Z</time>
      </trkpt>
      <trkpt lat="41.767833" lon="-8.190417">
        <ele>648.0</ele>
        <time>2010-08-26T13:52:28Z</time>
      </trkpt>
      <trkpt lat="41.767800" lon="-8.190417">
        <ele>648.0</ele>
        <time>2010-08-26T13:52:30Z</time>
      </trkpt>
      <trkpt lat="41.767783" lon="-8.190417">
        <ele>648.0</ele>
        <time>2010-08-26T13:52:32Z</time>
      </trkpt>
      <trkpt lat="41.767750" lon="-8.190417">
        <ele>648.0</ele>
        <time>2010-08-26T13:52:34Z</time>
      </trkpt>
      <trkpt lat="41.767700" lon="-8.190417">
        <ele>649.0</ele>
        <time>2010-08-26T13:52:36Z</time>
      </trkpt>
      <trkpt lat="41.767683" lon="-8.190400">
        <ele>649.0</ele>
        <time>2010-08-26T13:52:38Z</time>
      </trkpt>
      <trkpt lat="41.767633" lon="-8.190400">
        <ele>649.0</ele>
        <time>2010-08-26T13:52:40Z</time>
      </trkpt>
      <trkpt lat="41.767600" lon="-8.190400">
        <ele>650.0</ele>
        <time>2010-08-26T13:52:42Z</time>
      </trkpt>
      <trkpt lat="41.767567" lon="-8.190383">
        <ele>650.0</ele>
        <time>2010-08-26T13:52:44Z</time>
      </trkpt>
      <trkpt lat="41.767533" lon="-8.190383">
        <ele>651.0</ele>
        <time>2010-08-26T13:52:46Z</time>
      </trkpt>
      <trkpt lat="41.767500" lon="-8.190400">
        <ele>651.0</ele>
        <time>2010-08-26T13:52:48Z</time>
      </trkpt>
      <trkpt lat="41.767467" lon="-8.190400">
        <ele>652.0</ele>
        <time>2010-08-26T13:52:50Z</time>
      </trkpt>
      <trkpt lat="41.767433" lon="-8.190383">
        <ele>652.0</ele>
        <time>2010-08-26T13:52:52Z</time>
      </trkpt>
      <trkpt lat="41.767400" lon="-8.190383">
        <ele>652.0</ele>
        <time>2010-08-26T13:52:54Z</time>
      </trkpt>
      <trkpt lat="41.767367" lon="-8.190383">
        <ele>652.0</ele>
        <time>2010-08-26T13:52:56Z</time>
      </trkpt>
      <trkpt lat="41.767333" lon="-8.190367">
        <ele>652.0</ele>
        <time>2010-08-26T13:52:58Z</time>
      </trkpt>
      <trkpt lat="41.767283" lon="-8.190383">
        <ele>653.0</ele>
        <time>2010-08-26T13:53:06Z</time>
      </trkpt>
      <trkpt lat="41.767267" lon="-8.190433">
        <ele>656.0</ele>
        <time>2010-08-26T13:53:48Z</time>
      </trkpt>
      <trkpt lat="41.767283" lon="-8.190483">
        <ele>656.0</ele>
        <time>2010-08-26T13:53:52Z</time>
      </trkpt>
      <trkpt lat="41.767317" lon="-8.190500">
        <ele>656.0</ele>
        <time>2010-08-26T13:53:55Z</time>
      </trkpt>
      <trkpt lat="41.767333" lon="-8.190567">
        <ele>663.0</ele>
        <time>2010-08-26T13:57:20Z</time>
      </trkpt>
      <trkpt lat="41.767350" lon="-8.190583">
        <ele>663.0</ele>
        <time>2010-08-26T13:57:22Z</time>
      </trkpt>
      <trkpt lat="41.767383" lon="-8.190617">
        <ele>662.0</ele>
        <time>2010-08-26T13:57:24Z</time>
      </trkpt>
      <trkpt lat="41.767400" lon="-8.190650">
        <ele>662.0</ele>
        <time>2010-08-26T13:57:26Z</time>
      </trkpt>
      <trkpt lat="41.767433" lon="-8.190683">
        <ele>662.0</ele>
        <time>2010-08-26T13:57:28Z</time>
      </trkpt>
      <trkpt lat="41.767450" lon="-8.190733">
        <ele>661.0</ele>
        <time>2010-08-26T13:57:39Z</time>
      </trkpt>
      <trkpt lat="41.767417" lon="-8.190750">
        <ele>661.0</ele>
        <time>2010-08-26T13:57:41Z</time>
      </trkpt>
      <trkpt lat="41.767383" lon="-8.190717">
        <ele>661.0</ele>
        <time>2010-08-26T13:57:43Z</time>
      </trkpt>
      <trkpt lat="41.767350" lon="-8.190683">
        <ele>660.0</ele>
        <time>2010-08-26T13:57:45Z</time>
      </trkpt>
      <trkpt lat="41.767333" lon="-8.190650">
        <ele>660.0</ele>
        <time>2010-08-26T13:57:47Z</time>
      </trkpt>
      <trkpt lat="41.767283" lon="-8.190617">
        <ele>661.0</ele>
        <time>2010-08-26T13:57:49Z</time>
      </trkpt>
      <trkpt lat="41.767250" lon="-8.190567">
        <ele>661.0</ele>
        <time>2010-08-26T13:57:51Z</time>
      </trkpt>
      <trkpt lat="41.767217" lon="-8.190533">
        <ele>661.0</ele>
        <time>2010-08-26T13:57:53Z</time>
      </trkpt>
      <trkpt lat="41.767200" lon="-8.190517">
        <ele>661.0</ele>
        <time>2010-08-26T13:57:54Z</time>
      </trkpt>
      <trkpt lat="41.767183" lon="-8.190500">
        <ele>661.0</ele>
        <time>2010-08-26T13:57:55Z</time>
      </trkpt>
      <trkpt lat="41.767167" lon="-8.190483">
        <ele>661.0</ele>
        <time>2010-08-26T13:57:56Z</time>
      </trkpt>
      <trkpt lat="41.767133" lon="-8.190450">
        <ele>662.0</ele>
        <time>2010-08-26T13:57:58Z</time>
      </trkpt>
      <trkpt lat="41.767083" lon="-8.190433">
        <ele>662.0</ele>
        <time>2010-08-26T13:58:00Z</time>
      </trkpt>
      <trkpt lat="41.767050" lon="-8.190400">
        <ele>662.0</ele>
        <time>2010-08-26T13:58:02Z</time>
      </trkpt>
      <trkpt lat="41.767000" lon="-8.190383">
        <ele>662.0</ele>
        <time>2010-08-26T13:58:04Z</time>
      </trkpt>
      <trkpt lat="41.766983" lon="-8.190367">
        <ele>662.0</ele>
        <time>2010-08-26T13:58:05Z</time>
      </trkpt>
      <trkpt lat="41.766967" lon="-8.190367">
        <ele>662.0</ele>
        <time>2010-08-26T13:58:06Z</time>
      </trkpt>
      <trkpt lat="41.766933" lon="-8.190350">
        <ele>662.0</ele>
        <time>2010-08-26T13:58:07Z</time>
      </trkpt>
      <trkpt lat="41.766917" lon="-8.190333">
        <ele>662.0</ele>
        <time>2010-08-26T13:58:08Z</time>
      </trkpt>
      <trkpt lat="41.766883" lon="-8.190317">
        <ele>662.0</ele>
        <time>2010-08-26T13:58:10Z</time>
      </trkpt>
      <trkpt lat="41.766833" lon="-8.190300">
        <ele>662.0</ele>
        <time>2010-08-26T13:58:12Z</time>
      </trkpt>
      <trkpt lat="41.766800" lon="-8.190283">
        <ele>662.0</ele>
        <time>2010-08-26T13:58:14Z</time>
      </trkpt>
      <trkpt lat="41.766767" lon="-8.190250">
        <ele>662.0</ele>
        <time>2010-08-26T13:58:16Z</time>
      </trkpt>
      <trkpt lat="41.766733" lon="-8.190233">
        <ele>663.0</ele>
        <time>2010-08-26T13:58:17Z</time>
      </trkpt>
      <trkpt lat="41.766700" lon="-8.190217">
        <ele>663.0</ele>
        <time>2010-08-26T13:58:19Z</time>
      </trkpt>
      <trkpt lat="41.766667" lon="-8.190200">
        <ele>663.0</ele>
        <time>2010-08-26T13:58:20Z</time>
      </trkpt>
      <trkpt lat="41.766650" lon="-8.190183">
        <ele>663.0</ele>
        <time>2010-08-26T13:58:21Z</time>
      </trkpt>
      <trkpt lat="41.766633" lon="-8.190167">
        <ele>663.0</ele>
        <time>2010-08-26T13:58:22Z</time>
      </trkpt>
      <trkpt lat="41.766600" lon="-8.190133">
        <ele>663.0</ele>
        <time>2010-08-26T13:58:23Z</time>
      </trkpt>
      <trkpt lat="41.766583" lon="-8.190117">
        <ele>663.0</ele>
        <time>2010-08-26T13:58:24Z</time>
      </trkpt>
      <trkpt lat="41.766567" lon="-8.190100">
        <ele>663.0</ele>
        <time>2010-08-26T13:58:25Z</time>
      </trkpt>
      <trkpt lat="41.766533" lon="-8.190083">
        <ele>663.0</ele>
        <time>2010-08-26T13:58:26Z</time>
      </trkpt>
      <trkpt lat="41.766500" lon="-8.190067">
        <ele>663.0</ele>
        <time>2010-08-26T13:58:28Z</time>
      </trkpt>
      <trkpt lat="41.766483" lon="-8.190050">
        <ele>663.0</ele>
        <time>2010-08-26T13:58:29Z</time>
      </trkpt>
      <trkpt lat="41.766467" lon="-8.190050">
        <ele>663.0</ele>
        <time>2010-08-26T13:58:30Z</time>
      </trkpt>
      <trkpt lat="41.766417" lon="-8.190033">
        <ele>663.0</ele>
        <time>2010-08-26T13:58:32Z</time>
      </trkpt>
      <trkpt lat="41.766400" lon="-8.190033">
        <ele>663.0</ele>
        <time>2010-08-26T13:58:33Z</time>
      </trkpt>
      <trkpt lat="41.766367" lon="-8.190033">
        <ele>663.0</ele>
        <time>2010-08-26T13:58:34Z</time>
      </trkpt>
      <trkpt lat="41.766350" lon="-8.190050">
        <ele>663.0</ele>
        <time>2010-08-26T13:58:35Z</time>
      </trkpt>
      <trkpt lat="41.766317" lon="-8.190050">
        <ele>662.0</ele>
        <time>2010-08-26T13:58:36Z</time>
      </trkpt>
      <trkpt lat="41.766283" lon="-8.190033">
        <ele>662.0</ele>
        <time>2010-08-26T13:58:37Z</time>
      </trkpt>
      <trkpt lat="41.766250" lon="-8.190033">
        <ele>662.0</ele>
        <time>2010-08-26T13:58:38Z</time>
      </trkpt>
      <trkpt lat="41.766217" lon="-8.190017">
        <ele>662.0</ele>
        <time>2010-08-26T13:58:39Z</time>
      </trkpt>
      <trkpt lat="41.766183" lon="-8.190017">
        <ele>662.0</ele>
        <time>2010-08-26T13:58:40Z</time>
      </trkpt>
      <trkpt lat="41.766150" lon="-8.190017">
        <ele>662.0</ele>
        <time>2010-08-26T13:58:41Z</time>
      </trkpt>
      <trkpt lat="41.766117" lon="-8.190000">
        <ele>662.0</ele>
        <time>2010-08-26T13:58:42Z</time>
      </trkpt>
      <trkpt lat="41.766083" lon="-8.190000">
        <ele>662.0</ele>
        <time>2010-08-26T13:58:43Z</time>
      </trkpt>
      <trkpt lat="41.766050" lon="-8.190000">
        <ele>662.0</ele>
        <time>2010-08-26T13:58:44Z</time>
      </trkpt>
      <trkpt lat="41.766017" lon="-8.190000">
        <ele>662.0</ele>
        <time>2010-08-26T13:58:45Z</time>
      </trkpt>
      <trkpt lat="41.765983" lon="-8.190000">
        <ele>662.0</ele>
        <time>2010-08-26T13:58:46Z</time>
      </trkpt>
      <trkpt lat="41.765950" lon="-8.190000">
        <ele>662.0</ele>
        <time>2010-08-26T13:58:47Z</time>
      </trkpt>
      <trkpt lat="41.765917" lon="-8.190000">
        <ele>662.0</ele>
        <time>2010-08-26T13:58:48Z</time>
      </trkpt>
      <trkpt lat="41.765883" lon="-8.190000">
        <ele>661.0</ele>
        <time>2010-08-26T13:58:49Z</time>
      </trkpt>
      <trkpt lat="41.765867" lon="-8.190000">
        <ele>661.0</ele>
        <time>2010-08-26T13:58:50Z</time>
      </trkpt>
      <trkpt lat="41.765833" lon="-8.190000">
        <ele>661.0</ele>
        <time>2010-08-26T13:58:51Z</time>
      </trkpt>
      <trkpt lat="41.765800" lon="-8.190000">
        <ele>661.0</ele>
        <time>2010-08-26T13:58:52Z</time>
      </trkpt>
      <trkpt lat="41.765767" lon="-8.190017">
        <ele>660.0</ele>
        <time>2010-08-26T13:58:53Z</time>
      </trkpt>
      <trkpt lat="41.765733" lon="-8.190017">
        <ele>660.0</ele>
        <time>2010-08-26T13:58:54Z</time>
      </trkpt>
      <trkpt lat="41.765700" lon="-8.190000">
        <ele>660.0</ele>
        <time>2010-08-26T13:58:55Z</time>
      </trkpt>
      <trkpt lat="41.765683" lon="-8.190017">
        <ele>659.0</ele>
        <time>2010-08-26T13:58:56Z</time>
      </trkpt>
      <trkpt lat="41.765650" lon="-8.190017">
        <ele>659.0</ele>
        <time>2010-08-26T13:58:57Z</time>
      </trkpt>
      <trkpt lat="41.765617" lon="-8.190017">
        <ele>659.0</ele>
        <time>2010-08-26T13:58:58Z</time>
      </trkpt>
      <trkpt lat="41.765583" lon="-8.190033">
        <ele>659.0</ele>
        <time>2010-08-26T13:58:59Z</time>
      </trkpt>
      <trkpt lat="41.765533" lon="-8.190033">
        <ele>659.0</ele>
        <time>2010-08-26T13:59:00Z</time>
      </trkpt>
      <trkpt lat="41.765500" lon="-8.190033">
        <ele>658.0</ele>
        <time>2010-08-26T13:59:01Z</time>
      </trkpt>
      <trkpt lat="41.765467" lon="-8.190050">
        <ele>658.0</ele>
        <time>2010-08-26T13:59:02Z</time>
      </trkpt>
      <trkpt lat="41.765433" lon="-8.190050">
        <ele>658.0</ele>
        <time>2010-08-26T13:59:03Z</time>
      </trkpt>
      <trkpt lat="41.765400" lon="-8.190050">
        <ele>658.0</ele>
        <time>2010-08-26T13:59:04Z</time>
      </trkpt>
      <trkpt lat="41.765350" lon="-8.190067">
        <ele>658.0</ele>
        <time>2010-08-26T13:59:05Z</time>
      </trkpt>
      <trkpt lat="41.765317" lon="-8.190067">
        <ele>657.0</ele>
        <time>2010-08-26T13:59:06Z</time>
      </trkpt>
      <trkpt lat="41.765267" lon="-8.190083">
        <ele>657.0</ele>
        <time>2010-08-26T13:59:07Z</time>
      </trkpt>
      <trkpt lat="41.765233" lon="-8.190083">
        <ele>657.0</ele>
        <time>2010-08-26T13:59:08Z</time>
      </trkpt>
      <trkpt lat="41.765183" lon="-8.190083">
        <ele>657.0</ele>
        <time>2010-08-26T13:59:09Z</time>
      </trkpt>
      <trkpt lat="41.765150" lon="-8.190083">
        <ele>658.0</ele>
        <time>2010-08-26T13:59:10Z</time>
      </trkpt>
      <trkpt lat="41.765100" lon="-8.190100">
        <ele>658.0</ele>
        <time>2010-08-26T13:59:11Z</time>
      </trkpt>
      <trkpt lat="41.765067" lon="-8.190100">
        <ele>658.0</ele>
        <time>2010-08-26T13:59:12Z</time>
      </trkpt>
      <trkpt lat="41.765017" lon="-8.190100">
        <ele>658.0</ele>
        <time>2010-08-26T13:59:13Z</time>
      </trkpt>
      <trkpt lat="41.764967" lon="-8.190117">
        <ele>658.0</ele>
        <time>2010-08-26T13:59:14Z</time>
      </trkpt>
      <trkpt lat="41.764933" lon="-8.190100">
        <ele>658.0</ele>
        <time>2010-08-26T13:59:15Z</time>
      </trkpt>
      <trkpt lat="41.764883" lon="-8.190100">
        <ele>658.0</ele>
        <time>2010-08-26T13:59:16Z</time>
      </trkpt>
      <trkpt lat="41.764833" lon="-8.190117">
        <ele>658.0</ele>
        <time>2010-08-26T13:59:17Z</time>
      </trkpt>
      <trkpt lat="41.764783" lon="-8.190117">
        <ele>658.0</ele>
        <time>2010-08-26T13:59:18Z</time>
      </trkpt>
      <trkpt lat="41.764733" lon="-8.190100">
        <ele>658.0</ele>
        <time>2010-08-26T13:59:19Z</time>
      </trkpt>
      <trkpt lat="41.764683" lon="-8.190100">
        <ele>658.0</ele>
        <time>2010-08-26T13:59:20Z</time>
      </trkpt>
      <trkpt lat="41.764650" lon="-8.190100">
        <ele>658.0</ele>
        <time>2010-08-26T13:59:21Z</time>
      </trkpt>
      <trkpt lat="41.764600" lon="-8.190100">
        <ele>657.0</ele>
        <time>2010-08-26T13:59:22Z</time>
      </trkpt>
      <trkpt lat="41.764550" lon="-8.190083">
        <ele>657.0</ele>
        <time>2010-08-26T13:59:23Z</time>
      </trkpt>
      <trkpt lat="41.764500" lon="-8.190067">
        <ele>657.0</ele>
        <time>2010-08-26T13:59:24Z</time>
      </trkpt>
      <trkpt lat="41.764450" lon="-8.190067">
        <ele>657.0</ele>
        <time>2010-08-26T13:59:25Z</time>
      </trkpt>
      <trkpt lat="41.764400" lon="-8.190067">
        <ele>656.0</ele>
        <time>2010-08-26T13:59:26Z</time>
      </trkpt>
      <trkpt lat="41.764350" lon="-8.190067">
        <ele>656.0</ele>
        <time>2010-08-26T13:59:27Z</time>
      </trkpt>
      <trkpt lat="41.764300" lon="-8.190067">
        <ele>656.0</ele>
        <time>2010-08-26T13:59:28Z</time>
      </trkpt>
      <trkpt lat="41.764250" lon="-8.190050">
        <ele>655.0</ele>
        <time>2010-08-26T13:59:29Z</time>
      </trkpt>
      <trkpt lat="41.764200" lon="-8.190050">
        <ele>655.0</ele>
        <time>2010-08-26T13:59:30Z</time>
      </trkpt>
      <trkpt lat="41.764150" lon="-8.190050">
        <ele>655.0</ele>
        <time>2010-08-26T13:59:31Z</time>
      </trkpt>
      <trkpt lat="41.764100" lon="-8.190050">
        <ele>654.0</ele>
        <time>2010-08-26T13:59:32Z</time>
      </trkpt>
      <trkpt lat="41.764050" lon="-8.190050">
        <ele>654.0</ele>
        <time>2010-08-26T13:59:33Z</time>
      </trkpt>
      <trkpt lat="41.764000" lon="-8.190050">
        <ele>654.0</ele>
        <time>2010-08-26T13:59:34Z</time>
      </trkpt>
      <trkpt lat="41.763950" lon="-8.190050">
        <ele>653.0</ele>
        <time>2010-08-26T13:59:35Z</time>
      </trkpt>
      <trkpt lat="41.763900" lon="-8.190050">
        <ele>653.0</ele>
        <time>2010-08-26T13:59:36Z</time>
      </trkpt>
      <trkpt lat="41.763850" lon="-8.190050">
        <ele>652.0</ele>
        <time>2010-08-26T13:59:37Z</time>
      </trkpt>
      <trkpt lat="41.763800" lon="-8.190067">
        <ele>652.0</ele>
        <time>2010-08-26T13:59:38Z</time>
      </trkpt>
      <trkpt lat="41.763767" lon="-8.190067">
        <ele>651.0</ele>
        <time>2010-08-26T13:59:39Z</time>
      </trkpt>
      <trkpt lat="41.763717" lon="-8.190083">
        <ele>651.0</ele>
        <time>2010-08-26T13:59:40Z</time>
      </trkpt>
      <trkpt lat="41.763667" lon="-8.190083">
        <ele>651.0</ele>
        <time>2010-08-26T13:59:41Z</time>
      </trkpt>
      <trkpt lat="41.763617" lon="-8.190100">
        <ele>651.0</ele>
        <time>2010-08-26T13:59:42Z</time>
      </trkpt>
      <trkpt lat="41.763583" lon="-8.190117">
        <ele>650.0</ele>
        <time>2010-08-26T13:59:43Z</time>
      </trkpt>
      <trkpt lat="41.763533" lon="-8.190133">
        <ele>650.0</ele>
        <time>2010-08-26T13:59:44Z</time>
      </trkpt>
      <trkpt lat="41.763500" lon="-8.190150">
        <ele>649.0</ele>
        <time>2010-08-26T13:59:45Z</time>
      </trkpt>
      <trkpt lat="41.763450" lon="-8.190183">
        <ele>649.0</ele>
        <time>2010-08-26T13:59:46Z</time>
      </trkpt>
      <trkpt lat="41.763417" lon="-8.190217">
        <ele>649.0</ele>
        <time>2010-08-26T13:59:47Z</time>
      </trkpt>
      <trkpt lat="41.763383" lon="-8.190267">
        <ele>648.0</ele>
        <time>2010-08-26T13:59:48Z</time>
      </trkpt>
      <trkpt lat="41.763350" lon="-8.190317">
        <ele>648.0</ele>
        <time>2010-08-26T13:59:49Z</time>
      </trkpt>
      <trkpt lat="41.763317" lon="-8.190367">
        <ele>647.0</ele>
        <time>2010-08-26T13:59:50Z</time>
      </trkpt>
      <trkpt lat="41.763300" lon="-8.190433">
        <ele>647.0</ele>
        <time>2010-08-26T13:59:51Z</time>
      </trkpt>
      <trkpt lat="41.763267" lon="-8.190500">
        <ele>647.0</ele>
        <time>2010-08-26T13:59:52Z</time>
      </trkpt>
      <trkpt lat="41.763250" lon="-8.190567">
        <ele>646.0</ele>
        <time>2010-08-26T13:59:53Z</time>
      </trkpt>
      <trkpt lat="41.763233" lon="-8.190633">
        <ele>646.0</ele>
        <time>2010-08-26T13:59:54Z</time>
      </trkpt>
      <trkpt lat="41.763217" lon="-8.190683">
        <ele>646.0</ele>
        <time>2010-08-26T13:59:55Z</time>
      </trkpt>
      <trkpt lat="41.763217" lon="-8.190733">
        <ele>646.0</ele>
        <time>2010-08-26T13:59:56Z</time>
      </trkpt>
      <trkpt lat="41.763200" lon="-8.190783">
        <ele>645.0</ele>
        <time>2010-08-26T13:59:57Z</time>
      </trkpt>
      <trkpt lat="41.763183" lon="-8.190817">
        <ele>645.0</ele>
        <time>2010-08-26T13:59:58Z</time>
      </trkpt>
      <trkpt lat="41.763167" lon="-8.190850">
        <ele>645.0</ele>
        <time>2010-08-26T13:59:59Z</time>
      </trkpt>
      <trkpt lat="41.763167" lon="-8.190883">
        <ele>645.0</ele>
        <time>2010-08-26T14:00:00Z</time>
      </trkpt>
      <trkpt lat="41.763133" lon="-8.190933">
        <ele>644.0</ele>
        <time>2010-08-26T14:00:02Z</time>
      </trkpt>
      <trkpt lat="41.763117" lon="-8.190967">
        <ele>644.0</ele>
        <time>2010-08-26T14:00:04Z</time>
      </trkpt>
      <trkpt lat="41.763083" lon="-8.190933">
        <ele>647.0</ele>
        <time>2010-08-26T14:00:24Z</time>
      </trkpt>
      <trkpt lat="41.763100" lon="-8.190900">
        <ele>646.0</ele>
        <time>2010-08-26T14:01:59Z</time>
      </trkpt>
      <trkpt lat="41.763117" lon="-8.190883">
        <ele>646.0</ele>
        <time>2010-08-26T14:02:01Z</time>
      </trkpt>
      <trkpt lat="41.763150" lon="-8.190833">
        <ele>646.0</ele>
        <time>2010-08-26T14:02:12Z</time>
      </trkpt>
      <trkpt lat="41.763117" lon="-8.190867">
        <ele>647.0</ele>
        <time>2010-08-26T14:02:21Z</time>
      </trkpt>
      <trkpt lat="41.763100" lon="-8.190917">
        <ele>647.0</ele>
        <time>2010-08-26T14:02:23Z</time>
      </trkpt>
      <trkpt lat="41.763083" lon="-8.190950">
        <ele>647.0</ele>
        <time>2010-08-26T14:02:24Z</time>
      </trkpt>
      <trkpt lat="41.763083" lon="-8.190983">
        <ele>647.0</ele>
        <time>2010-08-26T14:02:25Z</time>
      </trkpt>
      <trkpt lat="41.763067" lon="-8.191000">
        <ele>647.0</ele>
        <time>2010-08-26T14:02:26Z</time>
      </trkpt>
      <trkpt lat="41.763050" lon="-8.191033">
        <ele>647.0</ele>
        <time>2010-08-26T14:02:27Z</time>
      </trkpt>
      <trkpt lat="41.763033" lon="-8.191067">
        <ele>647.0</ele>
        <time>2010-08-26T14:02:28Z</time>
      </trkpt>
      <trkpt lat="41.763000" lon="-8.191083">
        <ele>647.0</ele>
        <time>2010-08-26T14:02:29Z</time>
      </trkpt>
      <trkpt lat="41.762983" lon="-8.191100">
        <ele>647.0</ele>
        <time>2010-08-26T14:02:30Z</time>
      </trkpt>
      <trkpt lat="41.762950" lon="-8.191117">
        <ele>646.0</ele>
        <time>2010-08-26T14:02:31Z</time>
      </trkpt>
      <trkpt lat="41.762933" lon="-8.191133">
        <ele>646.0</ele>
        <time>2010-08-26T14:02:32Z</time>
      </trkpt>
      <trkpt lat="41.762900" lon="-8.191150">
        <ele>646.0</ele>
        <time>2010-08-26T14:02:33Z</time>
      </trkpt>
      <trkpt lat="41.762867" lon="-8.191167">
        <ele>646.0</ele>
        <time>2010-08-26T14:02:34Z</time>
      </trkpt>
      <trkpt lat="41.762850" lon="-8.191167">
        <ele>646.0</ele>
        <time>2010-08-26T14:02:35Z</time>
      </trkpt>
      <trkpt lat="41.762817" lon="-8.191183">
        <ele>645.0</ele>
        <time>2010-08-26T14:02:36Z</time>
      </trkpt>
      <trkpt lat="41.762783" lon="-8.191200">
        <ele>645.0</ele>
        <time>2010-08-26T14:02:37Z</time>
      </trkpt>
      <trkpt lat="41.762767" lon="-8.191217">
        <ele>645.0</ele>
        <time>2010-08-26T14:02:38Z</time>
      </trkpt>
      <trkpt lat="41.762733" lon="-8.191233">
        <ele>645.0</ele>
        <time>2010-08-26T14:02:39Z</time>
      </trkpt>
      <trkpt lat="41.762700" lon="-8.191250">
        <ele>645.0</ele>
        <time>2010-08-26T14:02:40Z</time>
      </trkpt>
      <trkpt lat="41.762667" lon="-8.191267">
        <ele>644.0</ele>
        <time>2010-08-26T14:02:41Z</time>
      </trkpt>
      <trkpt lat="41.762633" lon="-8.191283">
        <ele>644.0</ele>
        <time>2010-08-26T14:02:42Z</time>
      </trkpt>
      <trkpt lat="41.762583" lon="-8.191317">
        <ele>644.0</ele>
        <time>2010-08-26T14:02:43Z</time>
      </trkpt>
      <trkpt lat="41.762550" lon="-8.191333">
        <ele>644.0</ele>
        <time>2010-08-26T14:02:44Z</time>
      </trkpt>
      <trkpt lat="41.762500" lon="-8.191350">
        <ele>644.0</ele>
        <time>2010-08-26T14:02:45Z</time>
      </trkpt>
      <trkpt lat="41.762467" lon="-8.191367">
        <ele>644.0</ele>
        <time>2010-08-26T14:02:46Z</time>
      </trkpt>
      <trkpt lat="41.762417" lon="-8.191383">
        <ele>644.0</ele>
        <time>2010-08-26T14:02:47Z</time>
      </trkpt>
      <trkpt lat="41.762383" lon="-8.191400">
        <ele>644.0</ele>
        <time>2010-08-26T14:02:48Z</time>
      </trkpt>
      <trkpt lat="41.762350" lon="-8.191417">
        <ele>644.0</ele>
        <time>2010-08-26T14:02:49Z</time>
      </trkpt>
      <trkpt lat="41.762300" lon="-8.191433">
        <ele>643.0</ele>
        <time>2010-08-26T14:02:50Z</time>
      </trkpt>
      <trkpt lat="41.762267" lon="-8.191450">
        <ele>643.0</ele>
        <time>2010-08-26T14:02:51Z</time>
      </trkpt>
      <trkpt lat="41.762217" lon="-8.191467">
        <ele>643.0</ele>
        <time>2010-08-26T14:02:52Z</time>
      </trkpt>
      <trkpt lat="41.762183" lon="-8.191500">
        <ele>643.0</ele>
        <time>2010-08-26T14:02:53Z</time>
      </trkpt>
      <trkpt lat="41.762133" lon="-8.191517">
        <ele>642.0</ele>
        <time>2010-08-26T14:02:54Z</time>
      </trkpt>
      <trkpt lat="41.762083" lon="-8.191533">
        <ele>642.0</ele>
        <time>2010-08-26T14:02:55Z</time>
      </trkpt>
      <trkpt lat="41.762033" lon="-8.191567">
        <ele>642.0</ele>
        <time>2010-08-26T14:02:56Z</time>
      </trkpt>
      <trkpt lat="41.761983" lon="-8.191583">
        <ele>642.0</ele>
        <time>2010-08-26T14:02:57Z</time>
      </trkpt>
      <trkpt lat="41.761933" lon="-8.191600">
        <ele>641.0</ele>
        <time>2010-08-26T14:02:58Z</time>
      </trkpt>
      <trkpt lat="41.761883" lon="-8.191617">
        <ele>641.0</ele>
        <time>2010-08-26T14:02:59Z</time>
      </trkpt>
      <trkpt lat="41.761833" lon="-8.191633">
        <ele>641.0</ele>
        <time>2010-08-26T14:03:00Z</time>
      </trkpt>
      <trkpt lat="41.761800" lon="-8.191667">
        <ele>641.0</ele>
        <time>2010-08-26T14:03:01Z</time>
      </trkpt>
      <trkpt lat="41.761750" lon="-8.191683">
        <ele>641.0</ele>
        <time>2010-08-26T14:03:02Z</time>
      </trkpt>
      <trkpt lat="41.761717" lon="-8.191700">
        <ele>640.0</ele>
        <time>2010-08-26T14:03:03Z</time>
      </trkpt>
      <trkpt lat="41.761667" lon="-8.191733">
        <ele>640.0</ele>
        <time>2010-08-26T14:03:04Z</time>
      </trkpt>
      <trkpt lat="41.761617" lon="-8.191750">
        <ele>640.0</ele>
        <time>2010-08-26T14:03:05Z</time>
      </trkpt>
      <trkpt lat="41.761567" lon="-8.191783">
        <ele>640.0</ele>
        <time>2010-08-26T14:03:06Z</time>
      </trkpt>
      <trkpt lat="41.761533" lon="-8.191800">
        <ele>640.0</ele>
        <time>2010-08-26T14:03:07Z</time>
      </trkpt>
      <trkpt lat="41.761483" lon="-8.191833">
        <ele>640.0</ele>
        <time>2010-08-26T14:03:08Z</time>
      </trkpt>
      <trkpt lat="41.761450" lon="-8.191867">
        <ele>639.0</ele>
        <time>2010-08-26T14:03:09Z</time>
      </trkpt>
      <trkpt lat="41.761400" lon="-8.191900">
        <ele>639.0</ele>
        <time>2010-08-26T14:03:10Z</time>
      </trkpt>
      <trkpt lat="41.761367" lon="-8.191933">
        <ele>639.0</ele>
        <time>2010-08-26T14:03:11Z</time>
      </trkpt>
      <trkpt lat="41.761317" lon="-8.191950">
        <ele>639.0</ele>
        <time>2010-08-26T14:03:12Z</time>
      </trkpt>
      <trkpt lat="41.761283" lon="-8.191983">
        <ele>639.0</ele>
        <time>2010-08-26T14:03:13Z</time>
      </trkpt>
      <trkpt lat="41.761233" lon="-8.192017">
        <ele>639.0</ele>
        <time>2010-08-26T14:03:14Z</time>
      </trkpt>
      <trkpt lat="41.761200" lon="-8.192050">
        <ele>639.0</ele>
        <time>2010-08-26T14:03:15Z</time>
      </trkpt>
      <trkpt lat="41.761150" lon="-8.192067">
        <ele>639.0</ele>
        <time>2010-08-26T14:03:16Z</time>
      </trkpt>
      <trkpt lat="41.761117" lon="-8.192083">
        <ele>639.0</ele>
        <time>2010-08-26T14:03:17Z</time>
      </trkpt>
      <trkpt lat="41.761067" lon="-8.192117">
        <ele>639.0</ele>
        <time>2010-08-26T14:03:18Z</time>
      </trkpt>
      <trkpt lat="41.761033" lon="-8.192133">
        <ele>639.0</ele>
        <time>2010-08-26T14:03:19Z</time>
      </trkpt>
      <trkpt lat="41.760983" lon="-8.192150">
        <ele>639.0</ele>
        <time>2010-08-26T14:03:20Z</time>
      </trkpt>
      <trkpt lat="41.760950" lon="-8.192167">
        <ele>639.0</ele>
        <time>2010-08-26T14:03:21Z</time>
      </trkpt>
      <trkpt lat="41.760900" lon="-8.192183">
        <ele>639.0</ele>
        <time>2010-08-26T14:03:22Z</time>
      </trkpt>
      <trkpt lat="41.760867" lon="-8.192200">
        <ele>639.0</ele>
        <time>2010-08-26T14:03:23Z</time>
      </trkpt>
      <trkpt lat="41.760817" lon="-8.192217">
        <ele>639.0</ele>
        <time>2010-08-26T14:03:24Z</time>
      </trkpt>
      <trkpt lat="41.760783" lon="-8.192233">
        <ele>639.0</ele>
        <time>2010-08-26T14:03:25Z</time>
      </trkpt>
      <trkpt lat="41.760733" lon="-8.192250">
        <ele>639.0</ele>
        <time>2010-08-26T14:03:26Z</time>
      </trkpt>
      <trkpt lat="41.760700" lon="-8.192250">
        <ele>639.0</ele>
        <time>2010-08-26T14:03:27Z</time>
      </trkpt>
      <trkpt lat="41.760650" lon="-8.192267">
        <ele>639.0</ele>
        <time>2010-08-26T14:03:28Z</time>
      </trkpt>
      <trkpt lat="41.760617" lon="-8.192283">
        <ele>639.0</ele>
        <time>2010-08-26T14:03:29Z</time>
      </trkpt>
      <trkpt lat="41.760567" lon="-8.192300">
        <ele>639.0</ele>
        <time>2010-08-26T14:03:30Z</time>
      </trkpt>
      <trkpt lat="41.760533" lon="-8.192300">
        <ele>639.0</ele>
        <time>2010-08-26T14:03:31Z</time>
      </trkpt>
      <trkpt lat="41.760500" lon="-8.192317">
        <ele>639.0</ele>
        <time>2010-08-26T14:03:32Z</time>
      </trkpt>
      <trkpt lat="41.760450" lon="-8.192317">
        <ele>639.0</ele>
        <time>2010-08-26T14:03:33Z</time>
      </trkpt>
      <trkpt lat="41.760417" lon="-8.192333">
        <ele>639.0</ele>
        <time>2010-08-26T14:03:34Z</time>
      </trkpt>
      <trkpt lat="41.760383" lon="-8.192333">
        <ele>639.0</ele>
        <time>2010-08-26T14:03:35Z</time>
      </trkpt>
      <trkpt lat="41.760350" lon="-8.192350">
        <ele>639.0</ele>
        <time>2010-08-26T14:03:36Z</time>
      </trkpt>
      <trkpt lat="41.760300" lon="-8.192367">
        <ele>638.0</ele>
        <time>2010-08-26T14:03:37Z</time>
      </trkpt>
      <trkpt lat="41.760267" lon="-8.192367">
        <ele>638.0</ele>
        <time>2010-08-26T14:03:38Z</time>
      </trkpt>
      <trkpt lat="41.760233" lon="-8.192367">
        <ele>638.0</ele>
        <time>2010-08-26T14:03:39Z</time>
      </trkpt>
      <trkpt lat="41.760183" lon="-8.192367">
        <ele>638.0</ele>
        <time>2010-08-26T14:03:40Z</time>
      </trkpt>
      <trkpt lat="41.760150" lon="-8.192350">
        <ele>638.0</ele>
        <time>2010-08-26T14:03:41Z</time>
      </trkpt>
      <trkpt lat="41.760100" lon="-8.192350">
        <ele>638.0</ele>
        <time>2010-08-26T14:03:42Z</time>
      </trkpt>
      <trkpt lat="41.760067" lon="-8.192350">
        <ele>638.0</ele>
        <time>2010-08-26T14:03:43Z</time>
      </trkpt>
      <trkpt lat="41.760033" lon="-8.192350">
        <ele>638.0</ele>
        <time>2010-08-26T14:03:44Z</time>
      </trkpt>
      <trkpt lat="41.760000" lon="-8.192350">
        <ele>638.0</ele>
        <time>2010-08-26T14:03:45Z</time>
      </trkpt>
      <trkpt lat="41.759983" lon="-8.192367">
        <ele>638.0</ele>
        <time>2010-08-26T14:03:46Z</time>
      </trkpt>
      <trkpt lat="41.759933" lon="-8.192367">
        <ele>638.0</ele>
        <time>2010-08-26T14:04:06Z</time>
      </trkpt>
      <trkpt lat="41.759917" lon="-8.192400">
        <ele>638.0</ele>
        <time>2010-08-26T14:04:22Z</time>
      </trkpt>
      <trkpt lat="41.759883" lon="-8.192417">
        <ele>638.0</ele>
        <time>2010-08-26T14:04:24Z</time>
      </trkpt>
      <trkpt lat="41.759867" lon="-8.192433">
        <ele>638.0</ele>
        <time>2010-08-26T14:04:25Z</time>
      </trkpt>
      <trkpt lat="41.759833" lon="-8.192450">
        <ele>637.0</ele>
        <time>2010-08-26T14:04:26Z</time>
      </trkpt>
      <trkpt lat="41.759817" lon="-8.192467">
        <ele>637.0</ele>
        <time>2010-08-26T14:04:27Z</time>
      </trkpt>
      <trkpt lat="41.759783" lon="-8.192483">
        <ele>637.0</ele>
        <time>2010-08-26T14:04:28Z</time>
      </trkpt>
      <trkpt lat="41.759767" lon="-8.192517">
        <ele>637.0</ele>
        <time>2010-08-26T14:04:29Z</time>
      </trkpt>
      <trkpt lat="41.759733" lon="-8.192533">
        <ele>637.0</ele>
        <time>2010-08-26T14:04:30Z</time>
      </trkpt>
      <trkpt lat="41.759717" lon="-8.192550">
        <ele>637.0</ele>
        <time>2010-08-26T14:04:31Z</time>
      </trkpt>
      <trkpt lat="41.759683" lon="-8.192567">
        <ele>636.0</ele>
        <time>2010-08-26T14:04:32Z</time>
      </trkpt>
      <trkpt lat="41.759667" lon="-8.192583">
        <ele>636.0</ele>
        <time>2010-08-26T14:04:33Z</time>
      </trkpt>
      <trkpt lat="41.759633" lon="-8.192617">
        <ele>636.0</ele>
        <time>2010-08-26T14:04:34Z</time>
      </trkpt>
      <trkpt lat="41.759600" lon="-8.192650">
        <ele>636.0</ele>
        <time>2010-08-26T14:04:35Z</time>
      </trkpt>
      <trkpt lat="41.759567" lon="-8.192667">
        <ele>636.0</ele>
        <time>2010-08-26T14:04:36Z</time>
      </trkpt>
      <trkpt lat="41.759533" lon="-8.192700">
        <ele>636.0</ele>
        <time>2010-08-26T14:04:37Z</time>
      </trkpt>
      <trkpt lat="41.759500" lon="-8.192733">
        <ele>635.0</ele>
        <time>2010-08-26T14:04:38Z</time>
      </trkpt>
      <trkpt lat="41.759467" lon="-8.192767">
        <ele>635.0</ele>
        <time>2010-08-26T14:04:39Z</time>
      </trkpt>
      <trkpt lat="41.759433" lon="-8.192817">
        <ele>635.0</ele>
        <time>2010-08-26T14:04:40Z</time>
      </trkpt>
      <trkpt lat="41.759400" lon="-8.192850">
        <ele>635.0</ele>
        <time>2010-08-26T14:04:41Z</time>
      </trkpt>
      <trkpt lat="41.759367" lon="-8.192883">
        <ele>635.0</ele>
        <time>2010-08-26T14:04:42Z</time>
      </trkpt>
      <trkpt lat="41.759333" lon="-8.192917">
        <ele>634.0</ele>
        <time>2010-08-26T14:04:43Z</time>
      </trkpt>
      <trkpt lat="41.759300" lon="-8.192950">
        <ele>634.0</ele>
        <time>2010-08-26T14:04:44Z</time>
      </trkpt>
      <trkpt lat="41.759250" lon="-8.192983">
        <ele>634.0</ele>
        <time>2010-08-26T14:04:45Z</time>
      </trkpt>
      <trkpt lat="41.759217" lon="-8.193017">
        <ele>634.0</ele>
        <time>2010-08-26T14:04:46Z</time>
      </trkpt>
      <trkpt lat="41.759183" lon="-8.193067">
        <ele>633.0</ele>
        <time>2010-08-26T14:04:47Z</time>
      </trkpt>
      <trkpt lat="41.759150" lon="-8.193100">
        <ele>633.0</ele>
        <time>2010-08-26T14:04:48Z</time>
      </trkpt>
      <trkpt lat="41.759100" lon="-8.193133">
        <ele>633.0</ele>
        <time>2010-08-26T14:04:49Z</time>
      </trkpt>
      <trkpt lat="41.759067" lon="-8.193183">
        <ele>633.0</ele>
        <time>2010-08-26T14:04:50Z</time>
      </trkpt>
      <trkpt lat="41.759017" lon="-8.193217">
        <ele>632.0</ele>
        <time>2010-08-26T14:04:51Z</time>
      </trkpt>
      <trkpt lat="41.758983" lon="-8.193267">
        <ele>632.0</ele>
        <time>2010-08-26T14:04:52Z</time>
      </trkpt>
      <trkpt lat="41.758950" lon="-8.193300">
        <ele>632.0</ele>
        <time>2010-08-26T14:04:53Z</time>
      </trkpt>
      <trkpt lat="41.758900" lon="-8.193350">
        <ele>631.0</ele>
        <time>2010-08-26T14:04:54Z</time>
      </trkpt>
      <trkpt lat="41.758850" lon="-8.193383">
        <ele>631.0</ele>
        <time>2010-08-26T14:04:55Z</time>
      </trkpt>
      <trkpt lat="41.758817" lon="-8.193433">
        <ele>631.0</ele>
        <time>2010-08-26T14:04:56Z</time>
      </trkpt>
      <trkpt lat="41.758767" lon="-8.193483">
        <ele>630.0</ele>
        <time>2010-08-26T14:04:57Z</time>
      </trkpt>
      <trkpt lat="41.758717" lon="-8.193517">
        <ele>630.0</ele>
        <time>2010-08-26T14:04:58Z</time>
      </trkpt>
      <trkpt lat="41.758683" lon="-8.193567">
        <ele>630.0</ele>
        <time>2010-08-26T14:04:59Z</time>
      </trkpt>
      <trkpt lat="41.758633" lon="-8.193617">
        <ele>629.0</ele>
        <time>2010-08-26T14:05:00Z</time>
      </trkpt>
      <trkpt lat="41.758583" lon="-8.193667">
        <ele>629.0</ele>
        <time>2010-08-26T14:05:01Z</time>
      </trkpt>
      <trkpt lat="41.758533" lon="-8.193717">
        <ele>629.0</ele>
        <time>2010-08-26T14:05:02Z</time>
      </trkpt>
      <trkpt lat="41.758500" lon="-8.193767">
        <ele>629.0</ele>
        <time>2010-08-26T14:05:03Z</time>
      </trkpt>
      <trkpt lat="41.758450" lon="-8.193800">
        <ele>628.0</ele>
        <time>2010-08-26T14:05:04Z</time>
      </trkpt>
      <trkpt lat="41.758400" lon="-8.193850">
        <ele>628.0</ele>
        <time>2010-08-26T14:05:05Z</time>
      </trkpt>
      <trkpt lat="41.758350" lon="-8.193900">
        <ele>628.0</ele>
        <time>2010-08-26T14:05:06Z</time>
      </trkpt>
      <trkpt lat="41.758300" lon="-8.193950">
        <ele>627.0</ele>
        <time>2010-08-26T14:05:07Z</time>
      </trkpt>
      <trkpt lat="41.758250" lon="-8.194000">
        <ele>627.0</ele>
        <time>2010-08-26T14:05:08Z</time>
      </trkpt>
      <trkpt lat="41.758217" lon="-8.194067">
        <ele>627.0</ele>
        <time>2010-08-26T14:05:09Z</time>
      </trkpt>
      <trkpt lat="41.758183" lon="-8.194133">
        <ele>627.0</ele>
        <time>2010-08-26T14:05:10Z</time>
      </trkpt>
      <trkpt lat="41.758167" lon="-8.194200">
        <ele>626.0</ele>
        <time>2010-08-26T14:05:11Z</time>
      </trkpt>
      <trkpt lat="41.758167" lon="-8.194250">
        <ele>627.0</ele>
        <time>2010-08-26T14:05:12Z</time>
      </trkpt>
      <trkpt lat="41.758167" lon="-8.194317">
        <ele>627.0</ele>
        <time>2010-08-26T14:05:13Z</time>
      </trkpt>
      <trkpt lat="41.758167" lon="-8.194367">
        <ele>627.0</ele>
        <time>2010-08-26T14:05:14Z</time>
      </trkpt>
      <trkpt lat="41.758167" lon="-8.194400">
        <ele>627.0</ele>
        <time>2010-08-26T14:05:15Z</time>
      </trkpt>
      <trkpt lat="41.758183" lon="-8.194450">
        <ele>627.0</ele>
        <time>2010-08-26T14:05:16Z</time>
      </trkpt>
      <trkpt lat="41.758200" lon="-8.194483">
        <ele>628.0</ele>
        <time>2010-08-26T14:05:17Z</time>
      </trkpt>
      <trkpt lat="41.758200" lon="-8.194517">
        <ele>628.0</ele>
        <time>2010-08-26T14:05:18Z</time>
      </trkpt>
      <trkpt lat="41.758217" lon="-8.194550">
        <ele>628.0</ele>
        <time>2010-08-26T14:05:19Z</time>
      </trkpt>
      <trkpt lat="41.758233" lon="-8.194567">
        <ele>628.0</ele>
        <time>2010-08-26T14:05:20Z</time>
      </trkpt>
      <trkpt lat="41.758250" lon="-8.194600">
        <ele>629.0</ele>
        <time>2010-08-26T14:05:21Z</time>
      </trkpt>
      <trkpt lat="41.758267" lon="-8.194633">
        <ele>629.0</ele>
        <time>2010-08-26T14:05:22Z</time>
      </trkpt>
      <trkpt lat="41.758267" lon="-8.194650">
        <ele>629.0</ele>
        <time>2010-08-26T14:05:23Z</time>
      </trkpt>
      <trkpt lat="41.758283" lon="-8.194683">
        <ele>629.0</ele>
        <time>2010-08-26T14:05:24Z</time>
      </trkpt>
      <trkpt lat="41.758300" lon="-8.194700">
        <ele>629.0</ele>
        <time>2010-08-26T14:05:25Z</time>
      </trkpt>
      <trkpt lat="41.758317" lon="-8.194717">
        <ele>629.0</ele>
        <time>2010-08-26T14:05:26Z</time>
      </trkpt>
      <trkpt lat="41.758333" lon="-8.194750">
        <ele>630.0</ele>
        <time>2010-08-26T14:05:27Z</time>
      </trkpt>
      <trkpt lat="41.758367" lon="-8.194783">
        <ele>630.0</ele>
        <time>2010-08-26T14:05:29Z</time>
      </trkpt>
      <trkpt lat="41.758400" lon="-8.194817">
        <ele>630.0</ele>
        <time>2010-08-26T14:05:31Z</time>
      </trkpt>
      <trkpt lat="41.758433" lon="-8.194867">
        <ele>630.0</ele>
        <time>2010-08-26T14:05:33Z</time>
      </trkpt>
      <trkpt lat="41.758467" lon="-8.194900">
        <ele>631.0</ele>
        <time>2010-08-26T14:05:35Z</time>
      </trkpt>
      <trkpt lat="41.758500" lon="-8.194933">
        <ele>631.0</ele>
        <time>2010-08-26T14:05:37Z</time>
      </trkpt>
      <trkpt lat="41.758533" lon="-8.194983">
        <ele>631.0</ele>
        <time>2010-08-26T14:05:39Z</time>
      </trkpt>
      <trkpt lat="41.758550" lon="-8.195017">
        <ele>631.0</ele>
        <time>2010-08-26T14:05:41Z</time>
      </trkpt>
      <trkpt lat="41.758550" lon="-8.195067">
        <ele>631.0</ele>
        <time>2010-08-26T14:05:43Z</time>
      </trkpt>
      <trkpt lat="41.758567" lon="-8.195100">
        <ele>631.0</ele>
        <time>2010-08-26T14:05:45Z</time>
      </trkpt>
      <trkpt lat="41.758567" lon="-8.195150">
        <ele>631.0</ele>
        <time>2010-08-26T14:05:47Z</time>
      </trkpt>
      <trkpt lat="41.758583" lon="-8.195200">
        <ele>631.0</ele>
        <time>2010-08-26T14:05:49Z</time>
      </trkpt>
      <trkpt lat="41.758583" lon="-8.195267">
        <ele>632.0</ele>
        <time>2010-08-26T14:05:51Z</time>
      </trkpt>
      <trkpt lat="41.758583" lon="-8.195317">
        <ele>632.0</ele>
        <time>2010-08-26T14:05:53Z</time>
      </trkpt>
      <trkpt lat="41.758600" lon="-8.195367">
        <ele>632.0</ele>
        <time>2010-08-26T14:05:55Z</time>
      </trkpt>
      <trkpt lat="41.758600" lon="-8.195417">
        <ele>633.0</ele>
        <time>2010-08-26T14:05:57Z</time>
      </trkpt>
      <trkpt lat="41.758600" lon="-8.195483">
        <ele>633.0</ele>
        <time>2010-08-26T14:05:59Z</time>
      </trkpt>
      <trkpt lat="41.758617" lon="-8.195533">
        <ele>634.0</ele>
        <time>2010-08-26T14:06:01Z</time>
      </trkpt>
      <trkpt lat="41.758617" lon="-8.195583">
        <ele>634.0</ele>
        <time>2010-08-26T14:06:03Z</time>
      </trkpt>
      <trkpt lat="41.758633" lon="-8.195633">
        <ele>635.0</ele>
        <time>2010-08-26T14:06:05Z</time>
      </trkpt>
      <trkpt lat="41.758650" lon="-8.195700">
        <ele>636.0</ele>
        <time>2010-08-26T14:06:07Z</time>
      </trkpt>
      <trkpt lat="41.758650" lon="-8.195750">
        <ele>636.0</ele>
        <time>2010-08-26T14:06:09Z</time>
      </trkpt>
      <trkpt lat="41.758667" lon="-8.195800">
        <ele>637.0</ele>
        <time>2010-08-26T14:06:11Z</time>
      </trkpt>
      <trkpt lat="41.758667" lon="-8.195850">
        <ele>637.0</ele>
        <time>2010-08-26T14:06:13Z</time>
      </trkpt>
      <trkpt lat="41.758667" lon="-8.195900">
        <ele>638.0</ele>
        <time>2010-08-26T14:06:15Z</time>
      </trkpt>
      <trkpt lat="41.758667" lon="-8.195950">
        <ele>639.0</ele>
        <time>2010-08-26T14:06:17Z</time>
      </trkpt>
      <trkpt lat="41.758667" lon="-8.196000">
        <ele>639.0</ele>
        <time>2010-08-26T14:06:19Z</time>
      </trkpt>
      <trkpt lat="41.758683" lon="-8.196050">
        <ele>640.0</ele>
        <time>2010-08-26T14:06:21Z</time>
      </trkpt>
      <trkpt lat="41.758683" lon="-8.196100">
        <ele>640.0</ele>
        <time>2010-08-26T14:06:23Z</time>
      </trkpt>
      <trkpt lat="41.758700" lon="-8.196150">
        <ele>640.0</ele>
        <time>2010-08-26T14:06:25Z</time>
      </trkpt>
      <trkpt lat="41.758717" lon="-8.196200">
        <ele>640.0</ele>
        <time>2010-08-26T14:06:27Z</time>
      </trkpt>
      <trkpt lat="41.758750" lon="-8.196233">
        <ele>641.0</ele>
        <time>2010-08-26T14:06:29Z</time>
      </trkpt>
      <trkpt lat="41.758783" lon="-8.196250">
        <ele>641.0</ele>
        <time>2010-08-26T14:06:31Z</time>
      </trkpt>
      <trkpt lat="41.758800" lon="-8.196267">
        <ele>641.0</ele>
        <time>2010-08-26T14:06:32Z</time>
      </trkpt>
      <trkpt lat="41.758817" lon="-8.196283">
        <ele>641.0</ele>
        <time>2010-08-26T14:06:33Z</time>
      </trkpt>
      <trkpt lat="41.758867" lon="-8.196317">
        <ele>641.0</ele>
        <time>2010-08-26T14:06:35Z</time>
      </trkpt>
      <trkpt lat="41.758900" lon="-8.196317">
        <ele>641.0</ele>
        <time>2010-08-26T14:06:37Z</time>
      </trkpt>
      <trkpt lat="41.758933" lon="-8.196317">
        <ele>640.0</ele>
        <time>2010-08-26T14:06:39Z</time>
      </trkpt>
      <trkpt lat="41.759150" lon="-8.196333">
        <ele>599.0</ele>
        <time>2010-08-26T14:25:25Z</time>
      </trkpt>
      <trkpt lat="41.759317" lon="-8.196459">
        <ele>599.0</ele>
        <time>2010-08-26T14:25:35Z</time>
      </trkpt>
      <trkpt lat="41.759150" lon="-8.196433">
        <ele>640.0</ele>
        <time>2010-08-26T15:27:23Z</time>
      </trkpt>
      <trkpt lat="41.759133" lon="-8.196433">
        <ele>640.0</ele>
        <time>2010-08-26T15:27:24Z</time>
      </trkpt>
      <trkpt lat="41.759083" lon="-8.196417">
        <ele>640.0</ele>
        <time>2010-08-26T15:27:26Z</time>
      </trkpt>
      <trkpt lat="41.759050" lon="-8.196400">
        <ele>639.0</ele>
        <time>2010-08-26T15:27:28Z</time>
      </trkpt>
      <trkpt lat="41.759017" lon="-8.196400">
        <ele>639.0</ele>
        <time>2010-08-26T15:27:30Z</time>
      </trkpt>
      <trkpt lat="41.758967" lon="-8.196383">
        <ele>639.0</ele>
        <time>2010-08-26T15:27:32Z</time>
      </trkpt>
      <trkpt lat="41.758933" lon="-8.196367">
        <ele>639.0</ele>
        <time>2010-08-26T15:27:34Z</time>
      </trkpt>
      <trkpt lat="41.758900" lon="-8.196350">
        <ele>639.0</ele>
        <time>2010-08-26T15:27:37Z</time>
      </trkpt>
      <trkpt lat="41.758883" lon="-8.196367">
        <ele>640.0</ele>
        <time>2010-08-26T15:27:39Z</time>
      </trkpt>
      <trkpt lat="41.758850" lon="-8.196350">
        <ele>640.0</ele>
        <time>2010-08-26T15:27:41Z</time>
      </trkpt>
      <trkpt lat="41.758817" lon="-8.196333">
        <ele>640.0</ele>
        <time>2010-08-26T15:27:43Z</time>
      </trkpt>
      <trkpt lat="41.758783" lon="-8.196317">
        <ele>640.0</ele>
        <time>2010-08-26T15:27:45Z</time>
      </trkpt>
      <trkpt lat="41.758767" lon="-8.196317">
        <ele>639.0</ele>
        <time>2010-08-26T15:27:47Z</time>
      </trkpt>
      <trkpt lat="41.758717" lon="-8.196300">
        <ele>639.0</ele>
        <time>2010-08-26T15:27:50Z</time>
      </trkpt>
      <trkpt lat="41.758700" lon="-8.196283">
        <ele>637.0</ele>
        <time>2010-08-26T15:28:39Z</time>
      </trkpt>
      <trkpt lat="41.758667" lon="-8.196233">
        <ele>637.0</ele>
        <time>2010-08-26T15:28:41Z</time>
      </trkpt>
      <trkpt lat="41.758667" lon="-8.196200">
        <ele>637.0</ele>
        <time>2010-08-26T15:28:42Z</time>
      </trkpt>
      <trkpt lat="41.758667" lon="-8.196167">
        <ele>637.0</ele>
        <time>2010-08-26T15:28:43Z</time>
      </trkpt>
      <trkpt lat="41.758650" lon="-8.196117">
        <ele>637.0</ele>
        <time>2010-08-26T15:28:44Z</time>
      </trkpt>
      <trkpt lat="41.758650" lon="-8.196050">
        <ele>636.0</ele>
        <time>2010-08-26T15:28:45Z</time>
      </trkpt>
      <trkpt lat="41.758650" lon="-8.195983">
        <ele>636.0</ele>
        <time>2010-08-26T15:28:46Z</time>
      </trkpt>
      <trkpt lat="41.758650" lon="-8.195917">
        <ele>636.0</ele>
        <time>2010-08-26T15:28:47Z</time>
      </trkpt>
      <trkpt lat="41.758633" lon="-8.195833">
        <ele>635.0</ele>
        <time>2010-08-26T15:28:48Z</time>
      </trkpt>
      <trkpt lat="41.758617" lon="-8.195750">
        <ele>635.0</ele>
        <time>2010-08-26T15:28:49Z</time>
      </trkpt>
      <trkpt lat="41.758600" lon="-8.195667">
        <ele>634.0</ele>
        <time>2010-08-26T15:28:50Z</time>
      </trkpt>
      <trkpt lat="41.758583" lon="-8.195567">
        <ele>634.0</ele>
        <time>2010-08-26T15:28:51Z</time>
      </trkpt>
      <trkpt lat="41.758583" lon="-8.195467">
        <ele>633.0</ele>
        <time>2010-08-26T15:28:52Z</time>
      </trkpt>
      <trkpt lat="41.758567" lon="-8.195350">
        <ele>633.0</ele>
        <time>2010-08-26T15:28:53Z</time>
      </trkpt>
      <trkpt lat="41.758550" lon="-8.195250">
        <ele>632.0</ele>
        <time>2010-08-26T15:28:54Z</time>
      </trkpt>
      <trkpt lat="41.758533" lon="-8.195133">
        <ele>631.0</ele>
        <time>2010-08-26T15:28:55Z</time>
      </trkpt>
      <trkpt lat="41.758500" lon="-8.195050">
        <ele>631.0</ele>
        <time>2010-08-26T15:28:56Z</time>
      </trkpt>
      <trkpt lat="41.758433" lon="-8.194967">
        <ele>630.0</ele>
        <time>2010-08-26T15:28:57Z</time>
      </trkpt>
      <trkpt lat="41.758383" lon="-8.194883">
        <ele>630.0</ele>
        <time>2010-08-26T15:28:58Z</time>
      </trkpt>
      <trkpt lat="41.758317" lon="-8.194800">
        <ele>629.0</ele>
        <time>2010-08-26T15:28:59Z</time>
      </trkpt>
      <trkpt lat="41.758267" lon="-8.194717">
        <ele>629.0</ele>
        <time>2010-08-26T15:29:00Z</time>
      </trkpt>
      <trkpt lat="41.758217" lon="-8.194617">
        <ele>628.0</ele>
        <time>2010-08-26T15:29:01Z</time>
      </trkpt>
      <trkpt lat="41.758183" lon="-8.194533">
        <ele>628.0</ele>
        <time>2010-08-26T15:29:02Z</time>
      </trkpt>
      <trkpt lat="41.758150" lon="-8.194450">
        <ele>627.0</ele>
        <time>2010-08-26T15:29:03Z</time>
      </trkpt>
      <trkpt lat="41.758117" lon="-8.194350">
        <ele>626.0</ele>
        <time>2010-08-26T15:29:04Z</time>
      </trkpt>
      <trkpt lat="41.758117" lon="-8.194267">
        <ele>626.0</ele>
        <time>2010-08-26T15:29:05Z</time>
      </trkpt>
      <trkpt lat="41.758133" lon="-8.194183">
        <ele>625.0</ele>
        <time>2010-08-26T15:29:06Z</time>
      </trkpt>
      <trkpt lat="41.758150" lon="-8.194117">
        <ele>625.0</ele>
        <time>2010-08-26T15:29:07Z</time>
      </trkpt>
      <trkpt lat="41.758200" lon="-8.194050">
        <ele>625.0</ele>
        <time>2010-08-26T15:29:08Z</time>
      </trkpt>
      <trkpt lat="41.758233" lon="-8.194000">
        <ele>625.0</ele>
        <time>2010-08-26T15:29:09Z</time>
      </trkpt>
      <trkpt lat="41.758267" lon="-8.193967">
        <ele>625.0</ele>
        <time>2010-08-26T15:29:10Z</time>
      </trkpt>
      <trkpt lat="41.758300" lon="-8.193933">
        <ele>625.0</ele>
        <time>2010-08-26T15:29:11Z</time>
      </trkpt>
      <trkpt lat="41.758333" lon="-8.193900">
        <ele>625.0</ele>
        <time>2010-08-26T15:29:12Z</time>
      </trkpt>
      <trkpt lat="41.758367" lon="-8.193867">
        <ele>625.0</ele>
        <time>2010-08-26T15:29:13Z</time>
      </trkpt>
      <trkpt lat="41.758383" lon="-8.193833">
        <ele>625.0</ele>
        <time>2010-08-26T15:29:14Z</time>
      </trkpt>
      <trkpt lat="41.758417" lon="-8.193817">
        <ele>625.0</ele>
        <time>2010-08-26T15:29:15Z</time>
      </trkpt>
      <trkpt lat="41.758433" lon="-8.193783">
        <ele>626.0</ele>
        <time>2010-08-26T15:29:16Z</time>
      </trkpt>
      <trkpt lat="41.758467" lon="-8.193767">
        <ele>626.0</ele>
        <time>2010-08-26T15:29:17Z</time>
      </trkpt>
      <trkpt lat="41.758483" lon="-8.193733">
        <ele>626.0</ele>
        <time>2010-08-26T15:29:18Z</time>
      </trkpt>
      <trkpt lat="41.758500" lon="-8.193717">
        <ele>626.0</ele>
        <time>2010-08-26T15:29:19Z</time>
      </trkpt>
      <trkpt lat="41.758533" lon="-8.193700">
        <ele>626.0</ele>
        <time>2010-08-26T15:29:20Z</time>
      </trkpt>
      <trkpt lat="41.758550" lon="-8.193667">
        <ele>626.0</ele>
        <time>2010-08-26T15:29:21Z</time>
      </trkpt>
      <trkpt lat="41.758567" lon="-8.193650">
        <ele>627.0</ele>
        <time>2010-08-26T15:29:22Z</time>
      </trkpt>
      <trkpt lat="41.758600" lon="-8.193617">
        <ele>627.0</ele>
        <time>2010-08-26T15:29:23Z</time>
      </trkpt>
      <trkpt lat="41.758617" lon="-8.193600">
        <ele>627.0</ele>
        <time>2010-08-26T15:29:24Z</time>
      </trkpt>
      <trkpt lat="41.758633" lon="-8.193583">
        <ele>627.0</ele>
        <time>2010-08-26T15:29:25Z</time>
      </trkpt>
      <trkpt lat="41.758650" lon="-8.193567">
        <ele>627.0</ele>
        <time>2010-08-26T15:29:26Z</time>
      </trkpt>
      <trkpt lat="41.758683" lon="-8.193533">
        <ele>627.0</ele>
        <time>2010-08-26T15:29:28Z</time>
      </trkpt>
      <trkpt lat="41.758717" lon="-8.193483">
        <ele>628.0</ele>
        <time>2010-08-26T15:29:30Z</time>
      </trkpt>
      <trkpt lat="41.758750" lon="-8.193450">
        <ele>628.0</ele>
        <time>2010-08-26T15:29:32Z</time>
      </trkpt>
      <trkpt lat="41.758783" lon="-8.193417">
        <ele>628.0</ele>
        <time>2010-08-26T15:29:34Z</time>
      </trkpt>
      <trkpt lat="41.758817" lon="-8.193383">
        <ele>629.0</ele>
        <time>2010-08-26T15:29:36Z</time>
      </trkpt>
      <trkpt lat="41.758850" lon="-8.193367">
        <ele>629.0</ele>
        <time>2010-08-26T15:29:38Z</time>
      </trkpt>
      <trkpt lat="41.758883" lon="-8.193333">
        <ele>630.0</ele>
        <time>2010-08-26T15:29:40Z</time>
      </trkpt>
      <trkpt lat="41.758917" lon="-8.193300">
        <ele>630.0</ele>
        <time>2010-08-26T15:29:42Z</time>
      </trkpt>
      <trkpt lat="41.758950" lon="-8.193267">
        <ele>630.0</ele>
        <time>2010-08-26T15:29:44Z</time>
      </trkpt>
      <trkpt lat="41.758983" lon="-8.193233">
        <ele>631.0</ele>
        <time>2010-08-26T15:29:46Z</time>
      </trkpt>
      <trkpt lat="41.759000" lon="-8.193200">
        <ele>631.0</ele>
        <time>2010-08-26T15:29:48Z</time>
      </trkpt>
      <trkpt lat="41.759033" lon="-8.193167">
        <ele>631.0</ele>
        <time>2010-08-26T15:29:50Z</time>
      </trkpt>
      <trkpt lat="41.759067" lon="-8.193133">
        <ele>632.0</ele>
        <time>2010-08-26T15:29:52Z</time>
      </trkpt>
      <trkpt lat="41.759100" lon="-8.193100">
        <ele>632.0</ele>
        <time>2010-08-26T15:29:54Z</time>
      </trkpt>
      <trkpt lat="41.759133" lon="-8.193067">
        <ele>632.0</ele>
        <time>2010-08-26T15:29:56Z</time>
      </trkpt>
      <trkpt lat="41.759167" lon="-8.193033">
        <ele>632.0</ele>
        <time>2010-08-26T15:29:58Z</time>
      </trkpt>
      <trkpt lat="41.759200" lon="-8.193000">
        <ele>633.0</ele>
        <time>2010-08-26T15:30:00Z</time>
      </trkpt>
      <trkpt lat="41.759250" lon="-8.192967">
        <ele>633.0</ele>
        <time>2010-08-26T15:30:02Z</time>
      </trkpt>
      <trkpt lat="41.759283" lon="-8.192933">
        <ele>634.0</ele>
        <time>2010-08-26T15:30:04Z</time>
      </trkpt>
      <trkpt lat="41.759300" lon="-8.192900">
        <ele>634.0</ele>
        <time>2010-08-26T15:30:06Z</time>
      </trkpt>
      <trkpt lat="41.759350" lon="-8.192867">
        <ele>634.0</ele>
        <time>2010-08-26T15:30:08Z</time>
      </trkpt>
      <trkpt lat="41.759383" lon="-8.192833">
        <ele>634.0</ele>
        <time>2010-08-26T15:30:10Z</time>
      </trkpt>
      <trkpt lat="41.759400" lon="-8.192817">
        <ele>634.0</ele>
        <time>2010-08-26T15:30:11Z</time>
      </trkpt>
      <trkpt lat="41.759417" lon="-8.192800">
        <ele>634.0</ele>
        <time>2010-08-26T15:30:12Z</time>
      </trkpt>
      <trkpt lat="41.759433" lon="-8.192783">
        <ele>635.0</ele>
        <time>2010-08-26T15:30:13Z</time>
      </trkpt>
      <trkpt lat="41.759450" lon="-8.192767">
        <ele>635.0</ele>
        <time>2010-08-26T15:30:14Z</time>
      </trkpt>
      <trkpt lat="41.759483" lon="-8.192717">
        <ele>635.0</ele>
        <time>2010-08-26T15:30:16Z</time>
      </trkpt>
      <trkpt lat="41.759500" lon="-8.192700">
        <ele>635.0</ele>
        <time>2010-08-26T15:30:17Z</time>
      </trkpt>
      <trkpt lat="41.759517" lon="-8.192683">
        <ele>635.0</ele>
        <time>2010-08-26T15:30:18Z</time>
      </trkpt>
      <trkpt lat="41.759550" lon="-8.192667">
        <ele>635.0</ele>
        <time>2010-08-26T15:30:19Z</time>
      </trkpt>
      <trkpt lat="41.759567" lon="-8.192650">
        <ele>635.0</ele>
        <time>2010-08-26T15:30:20Z</time>
      </trkpt>
      <trkpt lat="41.759600" lon="-8.192617">
        <ele>635.0</ele>
        <time>2010-08-26T15:30:22Z</time>
      </trkpt>
      <trkpt lat="41.759633" lon="-8.192583">
        <ele>635.0</ele>
        <time>2010-08-26T15:30:24Z</time>
      </trkpt>
      <trkpt lat="41.759650" lon="-8.192567">
        <ele>635.0</ele>
        <time>2010-08-26T15:30:25Z</time>
      </trkpt>
      <trkpt lat="41.759683" lon="-8.192550">
        <ele>635.0</ele>
        <time>2010-08-26T15:30:26Z</time>
      </trkpt>
      <trkpt lat="41.759700" lon="-8.192533">
        <ele>636.0</ele>
        <time>2010-08-26T15:30:27Z</time>
      </trkpt>
      <trkpt lat="41.759733" lon="-8.192517">
        <ele>636.0</ele>
        <time>2010-08-26T15:30:29Z</time>
      </trkpt>
      <trkpt lat="41.759767" lon="-8.192467">
        <ele>637.0</ele>
        <time>2010-08-26T15:30:50Z</time>
      </trkpt>
      <trkpt lat="41.759800" lon="-8.192450">
        <ele>637.0</ele>
        <time>2010-08-26T15:30:53Z</time>
      </trkpt>
      <trkpt lat="41.759850" lon="-8.192450">
        <ele>636.0</ele>
        <time>2010-08-26T15:30:55Z</time>
      </trkpt>
      <trkpt lat="41.759867" lon="-8.192433">
        <ele>636.0</ele>
        <time>2010-08-26T15:30:56Z</time>
      </trkpt>
      <trkpt lat="41.759917" lon="-8.192433">
        <ele>636.0</ele>
        <time>2010-08-26T15:30:58Z</time>
      </trkpt>
      <trkpt lat="41.759933" lon="-8.192417">
        <ele>636.0</ele>
        <time>2010-08-26T15:30:59Z</time>
      </trkpt>
      <trkpt lat="41.759967" lon="-8.192400">
        <ele>636.0</ele>
        <time>2010-08-26T15:31:00Z</time>
      </trkpt>
      <trkpt lat="41.759983" lon="-8.192400">
        <ele>636.0</ele>
        <time>2010-08-26T15:31:01Z</time>
      </trkpt>
      <trkpt lat="41.760017" lon="-8.192400">
        <ele>636.0</ele>
        <time>2010-08-26T15:31:02Z</time>
      </trkpt>
      <trkpt lat="41.760033" lon="-8.192383">
        <ele>636.0</ele>
        <time>2010-08-26T15:31:03Z</time>
      </trkpt>
      <trkpt lat="41.760067" lon="-8.192383">
        <ele>636.0</ele>
        <time>2010-08-26T15:31:04Z</time>
      </trkpt>
      <trkpt lat="41.760100" lon="-8.192367">
        <ele>636.0</ele>
        <time>2010-08-26T15:31:05Z</time>
      </trkpt>
      <trkpt lat="41.760117" lon="-8.192367">
        <ele>636.0</ele>
        <time>2010-08-26T15:31:06Z</time>
      </trkpt>
      <trkpt lat="41.760150" lon="-8.192367">
        <ele>636.0</ele>
        <time>2010-08-26T15:31:07Z</time>
      </trkpt>
      <trkpt lat="41.760183" lon="-8.192350">
        <ele>636.0</ele>
        <time>2010-08-26T15:31:08Z</time>
      </trkpt>
      <trkpt lat="41.760200" lon="-8.192350">
        <ele>636.0</ele>
        <time>2010-08-26T15:31:09Z</time>
      </trkpt>
      <trkpt lat="41.760233" lon="-8.192350">
        <ele>636.0</ele>
        <time>2010-08-26T15:31:10Z</time>
      </trkpt>
      <trkpt lat="41.760250" lon="-8.192333">
        <ele>636.0</ele>
        <time>2010-08-26T15:31:11Z</time>
      </trkpt>
      <trkpt lat="41.760283" lon="-8.192333">
        <ele>637.0</ele>
        <time>2010-08-26T15:31:12Z</time>
      </trkpt>
      <trkpt lat="41.760300" lon="-8.192333">
        <ele>637.0</ele>
        <time>2010-08-26T15:31:13Z</time>
      </trkpt>
      <trkpt lat="41.760333" lon="-8.192317">
        <ele>637.0</ele>
        <time>2010-08-26T15:31:14Z</time>
      </trkpt>
      <trkpt lat="41.760350" lon="-8.192317">
        <ele>637.0</ele>
        <time>2010-08-26T15:31:15Z</time>
      </trkpt>
      <trkpt lat="41.760383" lon="-8.192317">
        <ele>637.0</ele>
        <time>2010-08-26T15:31:16Z</time>
      </trkpt>
      <trkpt lat="41.760400" lon="-8.192300">
        <ele>637.0</ele>
        <time>2010-08-26T15:31:17Z</time>
      </trkpt>
      <trkpt lat="41.760433" lon="-8.192300">
        <ele>637.0</ele>
        <time>2010-08-26T15:31:18Z</time>
      </trkpt>
      <trkpt lat="41.760467" lon="-8.192300">
        <ele>638.0</ele>
        <time>2010-08-26T15:31:19Z</time>
      </trkpt>
      <trkpt lat="41.760483" lon="-8.192283">
        <ele>638.0</ele>
        <time>2010-08-26T15:31:20Z</time>
      </trkpt>
      <trkpt lat="41.760517" lon="-8.192283">
        <ele>638.0</ele>
        <time>2010-08-26T15:31:21Z</time>
      </trkpt>
      <trkpt lat="41.760533" lon="-8.192267">
        <ele>638.0</ele>
        <time>2010-08-26T15:31:22Z</time>
      </trkpt>
      <trkpt lat="41.760567" lon="-8.192267">
        <ele>638.0</ele>
        <time>2010-08-26T15:31:23Z</time>
      </trkpt>
      <trkpt lat="41.760600" lon="-8.192250">
        <ele>638.0</ele>
        <time>2010-08-26T15:31:24Z</time>
      </trkpt>
      <trkpt lat="41.760633" lon="-8.192250">
        <ele>639.0</ele>
        <time>2010-08-26T15:31:25Z</time>
      </trkpt>
      <trkpt lat="41.760650" lon="-8.192250">
        <ele>639.0</ele>
        <time>2010-08-26T15:31:26Z</time>
      </trkpt>
      <trkpt lat="41.760683" lon="-8.192233">
        <ele>639.0</ele>
        <time>2010-08-26T15:31:27Z</time>
      </trkpt>
      <trkpt lat="41.760717" lon="-8.192233">
        <ele>639.0</ele>
        <time>2010-08-26T15:31:28Z</time>
      </trkpt>
      <trkpt lat="41.760750" lon="-8.192217">
        <ele>639.0</ele>
        <time>2010-08-26T15:31:29Z</time>
      </trkpt>
      <trkpt lat="41.760767" lon="-8.192217">
        <ele>639.0</ele>
        <time>2010-08-26T15:31:30Z</time>
      </trkpt>
      <trkpt lat="41.760800" lon="-8.192200">
        <ele>640.0</ele>
        <time>2010-08-26T15:31:31Z</time>
      </trkpt>
      <trkpt lat="41.760833" lon="-8.192200">
        <ele>640.0</ele>
        <time>2010-08-26T15:31:32Z</time>
      </trkpt>
      <trkpt lat="41.760850" lon="-8.192183">
        <ele>640.0</ele>
        <time>2010-08-26T15:31:33Z</time>
      </trkpt>
      <trkpt lat="41.760883" lon="-8.192183">
        <ele>640.0</ele>
        <time>2010-08-26T15:31:34Z</time>
      </trkpt>
      <trkpt lat="41.760917" lon="-8.192167">
        <ele>640.0</ele>
        <time>2010-08-26T15:31:35Z</time>
      </trkpt>
      <trkpt lat="41.760950" lon="-8.192150">
        <ele>640.0</ele>
        <time>2010-08-26T15:31:36Z</time>
      </trkpt>
      <trkpt lat="41.760967" lon="-8.192133">
        <ele>640.0</ele>
        <time>2010-08-26T15:31:37Z</time>
      </trkpt>
      <trkpt lat="41.761000" lon="-8.192117">
        <ele>640.0</ele>
        <time>2010-08-26T15:31:38Z</time>
      </trkpt>
      <trkpt lat="41.761033" lon="-8.192100">
        <ele>641.0</ele>
        <time>2010-08-26T15:31:39Z</time>
      </trkpt>
      <trkpt lat="41.761050" lon="-8.192083">
        <ele>641.0</ele>
        <time>2010-08-26T15:31:40Z</time>
      </trkpt>
      <trkpt lat="41.761083" lon="-8.192067">
        <ele>641.0</ele>
        <time>2010-08-26T15:31:41Z</time>
      </trkpt>
      <trkpt lat="41.761117" lon="-8.192050">
        <ele>641.0</ele>
        <time>2010-08-26T15:31:42Z</time>
      </trkpt>
      <trkpt lat="41.761150" lon="-8.192017">
        <ele>641.0</ele>
        <time>2010-08-26T15:31:43Z</time>
      </trkpt>
      <trkpt lat="41.761167" lon="-8.192000">
        <ele>642.0</ele>
        <time>2010-08-26T15:31:44Z</time>
      </trkpt>
      <trkpt lat="41.761200" lon="-8.191983">
        <ele>642.0</ele>
        <time>2010-08-26T15:31:45Z</time>
      </trkpt>
      <trkpt lat="41.761233" lon="-8.191950">
        <ele>642.0</ele>
        <time>2010-08-26T15:31:46Z</time>
      </trkpt>
      <trkpt lat="41.761267" lon="-8.191933">
        <ele>642.0</ele>
        <time>2010-08-26T15:31:47Z</time>
      </trkpt>
      <trkpt lat="41.761283" lon="-8.191900">
        <ele>642.0</ele>
        <time>2010-08-26T15:31:48Z</time>
      </trkpt>
      <trkpt lat="41.761317" lon="-8.191883">
        <ele>642.0</ele>
        <time>2010-08-26T15:31:49Z</time>
      </trkpt>
      <trkpt lat="41.761350" lon="-8.191867">
        <ele>642.0</ele>
        <time>2010-08-26T15:31:50Z</time>
      </trkpt>
      <trkpt lat="41.761383" lon="-8.191833">
        <ele>642.0</ele>
        <time>2010-08-26T15:31:51Z</time>
      </trkpt>
      <trkpt lat="41.761417" lon="-8.191817">
        <ele>642.0</ele>
        <time>2010-08-26T15:31:52Z</time>
      </trkpt>
      <trkpt lat="41.761433" lon="-8.191800">
        <ele>642.0</ele>
        <time>2010-08-26T15:31:53Z</time>
      </trkpt>
      <trkpt lat="41.761467" lon="-8.191767">
        <ele>642.0</ele>
        <time>2010-08-26T15:31:54Z</time>
      </trkpt>
      <trkpt lat="41.761500" lon="-8.191750">
        <ele>642.0</ele>
        <time>2010-08-26T15:31:55Z</time>
      </trkpt>
      <trkpt lat="41.761533" lon="-8.191733">
        <ele>642.0</ele>
        <time>2010-08-26T15:31:56Z</time>
      </trkpt>
      <trkpt lat="41.761567" lon="-8.191717">
        <ele>642.0</ele>
        <time>2010-08-26T15:31:57Z</time>
      </trkpt>
      <trkpt lat="41.761600" lon="-8.191700">
        <ele>642.0</ele>
        <time>2010-08-26T15:31:58Z</time>
      </trkpt>
      <trkpt lat="41.761633" lon="-8.191683">
        <ele>642.0</ele>
        <time>2010-08-26T15:31:59Z</time>
      </trkpt>
      <trkpt lat="41.761667" lon="-8.191667">
        <ele>642.0</ele>
        <time>2010-08-26T15:32:00Z</time>
      </trkpt>
      <trkpt lat="41.761683" lon="-8.191667">
        <ele>642.0</ele>
        <time>2010-08-26T15:32:01Z</time>
      </trkpt>
      <trkpt lat="41.761717" lon="-8.191650">
        <ele>642.0</ele>
        <time>2010-08-26T15:32:02Z</time>
      </trkpt>
      <trkpt lat="41.761733" lon="-8.191633">
        <ele>642.0</ele>
        <time>2010-08-26T15:32:03Z</time>
      </trkpt>
      <trkpt lat="41.761767" lon="-8.191633">
        <ele>641.0</ele>
        <time>2010-08-26T15:32:04Z</time>
      </trkpt>
      <trkpt lat="41.761783" lon="-8.191617">
        <ele>641.0</ele>
        <time>2010-08-26T15:32:05Z</time>
      </trkpt>
      <trkpt lat="41.761817" lon="-8.191600">
        <ele>641.0</ele>
        <time>2010-08-26T15:32:06Z</time>
      </trkpt>
      <trkpt lat="41.761850" lon="-8.191583">
        <ele>641.0</ele>
        <time>2010-08-26T15:32:07Z</time>
      </trkpt>
      <trkpt lat="41.761867" lon="-8.191583">
        <ele>641.0</ele>
        <time>2010-08-26T15:32:08Z</time>
      </trkpt>
      <trkpt lat="41.761900" lon="-8.191567">
        <ele>641.0</ele>
        <time>2010-08-26T15:32:09Z</time>
      </trkpt>
      <trkpt lat="41.761917" lon="-8.191550">
        <ele>641.0</ele>
        <time>2010-08-26T15:32:10Z</time>
      </trkpt>
      <trkpt lat="41.761950" lon="-8.191550">
        <ele>641.0</ele>
        <time>2010-08-26T15:32:11Z</time>
      </trkpt>
      <trkpt lat="41.761967" lon="-8.191533">
        <ele>641.0</ele>
        <time>2010-08-26T15:32:12Z</time>
      </trkpt>
      <trkpt lat="41.762000" lon="-8.191533">
        <ele>642.0</ele>
        <time>2010-08-26T15:32:13Z</time>
      </trkpt>
      <trkpt lat="41.762017" lon="-8.191517">
        <ele>642.0</ele>
        <time>2010-08-26T15:32:14Z</time>
      </trkpt>
      <trkpt lat="41.762050" lon="-8.191517">
        <ele>642.0</ele>
        <time>2010-08-26T15:32:15Z</time>
      </trkpt>
      <trkpt lat="41.762083" lon="-8.191500">
        <ele>642.0</ele>
        <time>2010-08-26T15:32:16Z</time>
      </trkpt>
      <trkpt lat="41.762100" lon="-8.191483">
        <ele>642.0</ele>
        <time>2010-08-26T15:32:17Z</time>
      </trkpt>
      <trkpt lat="41.762133" lon="-8.191467">
        <ele>642.0</ele>
        <time>2010-08-26T15:32:18Z</time>
      </trkpt>
      <trkpt lat="41.762167" lon="-8.191467">
        <ele>642.0</ele>
        <time>2010-08-26T15:32:19Z</time>
      </trkpt>
      <trkpt lat="41.762183" lon="-8.191450">
        <ele>642.0</ele>
        <time>2010-08-26T15:32:20Z</time>
      </trkpt>
      <trkpt lat="41.762217" lon="-8.191433">
        <ele>642.0</ele>
        <time>2010-08-26T15:32:21Z</time>
      </trkpt>
      <trkpt lat="41.762250" lon="-8.191417">
        <ele>643.0</ele>
        <time>2010-08-26T15:32:22Z</time>
      </trkpt>
      <trkpt lat="41.762267" lon="-8.191400">
        <ele>643.0</ele>
        <time>2010-08-26T15:32:23Z</time>
      </trkpt>
      <trkpt lat="41.762300" lon="-8.191400">
        <ele>643.0</ele>
        <time>2010-08-26T15:32:24Z</time>
      </trkpt>
      <trkpt lat="41.762333" lon="-8.191383">
        <ele>642.0</ele>
        <time>2010-08-26T15:32:25Z</time>
      </trkpt>
      <trkpt lat="41.762367" lon="-8.191367">
        <ele>642.0</ele>
        <time>2010-08-26T15:32:26Z</time>
      </trkpt>
      <trkpt lat="41.762383" lon="-8.191350">
        <ele>642.0</ele>
        <time>2010-08-26T15:32:27Z</time>
      </trkpt>
      <trkpt lat="41.762417" lon="-8.191333">
        <ele>642.0</ele>
        <time>2010-08-26T15:32:28Z</time>
      </trkpt>
      <trkpt lat="41.762450" lon="-8.191317">
        <ele>642.0</ele>
        <time>2010-08-26T15:32:29Z</time>
      </trkpt>
      <trkpt lat="41.762467" lon="-8.191300">
        <ele>643.0</ele>
        <time>2010-08-26T15:32:30Z</time>
      </trkpt>
      <trkpt lat="41.762500" lon="-8.191283">
        <ele>643.0</ele>
        <time>2010-08-26T15:32:31Z</time>
      </trkpt>
      <trkpt lat="41.762533" lon="-8.191283">
        <ele>643.0</ele>
        <time>2010-08-26T15:32:32Z</time>
      </trkpt>
      <trkpt lat="41.762567" lon="-8.191267">
        <ele>643.0</ele>
        <time>2010-08-26T15:32:33Z</time>
      </trkpt>
      <trkpt lat="41.762583" lon="-8.191250">
        <ele>643.0</ele>
        <time>2010-08-26T15:32:34Z</time>
      </trkpt>
      <trkpt lat="41.762617" lon="-8.191233">
        <ele>644.0</ele>
        <time>2010-08-26T15:32:35Z</time>
      </trkpt>
      <trkpt lat="41.762650" lon="-8.191233">
        <ele>644.0</ele>
        <time>2010-08-26T15:32:36Z</time>
      </trkpt>
      <trkpt lat="41.762683" lon="-8.191217">
        <ele>644.0</ele>
        <time>2010-08-26T15:32:37Z</time>
      </trkpt>
      <trkpt lat="41.762700" lon="-8.191200">
        <ele>644.0</ele>
        <time>2010-08-26T15:32:38Z</time>
      </trkpt>
      <trkpt lat="41.762733" lon="-8.191200">
        <ele>644.0</ele>
        <time>2010-08-26T15:32:39Z</time>
      </trkpt>
      <trkpt lat="41.762767" lon="-8.191183">
        <ele>644.0</ele>
        <time>2010-08-26T15:32:40Z</time>
      </trkpt>
      <trkpt lat="41.762800" lon="-8.191167">
        <ele>644.0</ele>
        <time>2010-08-26T15:32:41Z</time>
      </trkpt>
      <trkpt lat="41.762817" lon="-8.191150">
        <ele>644.0</ele>
        <time>2010-08-26T15:32:42Z</time>
      </trkpt>
      <trkpt lat="41.762850" lon="-8.191133">
        <ele>644.0</ele>
        <time>2010-08-26T15:32:43Z</time>
      </trkpt>
      <trkpt lat="41.762883" lon="-8.191133">
        <ele>644.0</ele>
        <time>2010-08-26T15:32:44Z</time>
      </trkpt>
      <trkpt lat="41.762917" lon="-8.191117">
        <ele>644.0</ele>
        <time>2010-08-26T15:32:45Z</time>
      </trkpt>
      <trkpt lat="41.762933" lon="-8.191100">
        <ele>644.0</ele>
        <time>2010-08-26T15:32:46Z</time>
      </trkpt>
      <trkpt lat="41.762967" lon="-8.191083">
        <ele>644.0</ele>
        <time>2010-08-26T15:32:47Z</time>
      </trkpt>
      <trkpt lat="41.762983" lon="-8.191050">
        <ele>644.0</ele>
        <time>2010-08-26T15:32:48Z</time>
      </trkpt>
      <trkpt lat="41.763017" lon="-8.191033">
        <ele>644.0</ele>
        <time>2010-08-26T15:32:49Z</time>
      </trkpt>
      <trkpt lat="41.763033" lon="-8.191017">
        <ele>644.0</ele>
        <time>2010-08-26T15:32:50Z</time>
      </trkpt>
      <trkpt lat="41.763050" lon="-8.190967">
        <ele>643.0</ele>
        <time>2010-08-26T15:33:02Z</time>
      </trkpt>
      <trkpt lat="41.763083" lon="-8.190917">
        <ele>643.0</ele>
        <time>2010-08-26T15:33:13Z</time>
      </trkpt>
      <trkpt lat="41.763117" lon="-8.190883">
        <ele>644.0</ele>
        <time>2010-08-26T15:33:15Z</time>
      </trkpt>
      <trkpt lat="41.763133" lon="-8.190867">
        <ele>644.0</ele>
        <time>2010-08-26T15:33:16Z</time>
      </trkpt>
      <trkpt lat="41.763150" lon="-8.190833">
        <ele>644.0</ele>
        <time>2010-08-26T15:33:17Z</time>
      </trkpt>
      <trkpt lat="41.763150" lon="-8.190800">
        <ele>644.0</ele>
        <time>2010-08-26T15:33:18Z</time>
      </trkpt>
      <trkpt lat="41.763167" lon="-8.190767">
        <ele>645.0</ele>
        <time>2010-08-26T15:33:19Z</time>
      </trkpt>
      <trkpt lat="41.763183" lon="-8.190733">
        <ele>645.0</ele>
        <time>2010-08-26T15:33:20Z</time>
      </trkpt>
      <trkpt lat="41.763183" lon="-8.190700">
        <ele>645.0</ele>
        <time>2010-08-26T15:33:21Z</time>
      </trkpt>
      <trkpt lat="41.763200" lon="-8.190650">
        <ele>645.0</ele>
        <time>2010-08-26T15:33:22Z</time>
      </trkpt>
      <trkpt lat="41.763200" lon="-8.190617">
        <ele>646.0</ele>
        <time>2010-08-26T15:33:23Z</time>
      </trkpt>
      <trkpt lat="41.763200" lon="-8.190583">
        <ele>646.0</ele>
        <time>2010-08-26T15:33:24Z</time>
      </trkpt>
      <trkpt lat="41.763217" lon="-8.190550">
        <ele>646.0</ele>
        <time>2010-08-26T15:33:25Z</time>
      </trkpt>
      <trkpt lat="41.763217" lon="-8.190517">
        <ele>647.0</ele>
        <time>2010-08-26T15:33:26Z</time>
      </trkpt>
      <trkpt lat="41.763217" lon="-8.190467">
        <ele>647.0</ele>
        <time>2010-08-26T15:33:27Z</time>
      </trkpt>
      <trkpt lat="41.763233" lon="-8.190433">
        <ele>647.0</ele>
        <time>2010-08-26T15:33:28Z</time>
      </trkpt>
      <trkpt lat="41.763233" lon="-8.190400">
        <ele>648.0</ele>
        <time>2010-08-26T15:33:29Z</time>
      </trkpt>
      <trkpt lat="41.763250" lon="-8.190367">
        <ele>648.0</ele>
        <time>2010-08-26T15:33:30Z</time>
      </trkpt>
      <trkpt lat="41.763250" lon="-8.190350">
        <ele>648.0</ele>
        <time>2010-08-26T15:33:31Z</time>
      </trkpt>
      <trkpt lat="41.763267" lon="-8.190317">
        <ele>649.0</ele>
        <time>2010-08-26T15:33:32Z</time>
      </trkpt>
      <trkpt lat="41.763283" lon="-8.190283">
        <ele>649.0</ele>
        <time>2010-08-26T15:33:33Z</time>
      </trkpt>
      <trkpt lat="41.763300" lon="-8.190250">
        <ele>649.0</ele>
        <time>2010-08-26T15:33:34Z</time>
      </trkpt>
      <trkpt lat="41.763317" lon="-8.190233">
        <ele>649.0</ele>
        <time>2010-08-26T15:33:35Z</time>
      </trkpt>
      <trkpt lat="41.763333" lon="-8.190217">
        <ele>650.0</ele>
        <time>2010-08-26T15:33:36Z</time>
      </trkpt>
      <trkpt lat="41.763350" lon="-8.190200">
        <ele>650.0</ele>
        <time>2010-08-26T15:33:37Z</time>
      </trkpt>
      <trkpt lat="41.763383" lon="-8.190167">
        <ele>650.0</ele>
        <time>2010-08-26T15:33:38Z</time>
      </trkpt>
      <trkpt lat="41.763400" lon="-8.190167">
        <ele>650.0</ele>
        <time>2010-08-26T15:33:39Z</time>
      </trkpt>
      <trkpt lat="41.763417" lon="-8.190150">
        <ele>650.0</ele>
        <time>2010-08-26T15:33:40Z</time>
      </trkpt>
      <trkpt lat="41.763433" lon="-8.190133">
        <ele>650.0</ele>
        <time>2010-08-26T15:33:41Z</time>
      </trkpt>
      <trkpt lat="41.763467" lon="-8.190117">
        <ele>650.0</ele>
        <time>2010-08-26T15:33:42Z</time>
      </trkpt>
      <trkpt lat="41.763483" lon="-8.190100">
        <ele>650.0</ele>
        <time>2010-08-26T15:33:43Z</time>
      </trkpt>
      <trkpt lat="41.763517" lon="-8.190100">
        <ele>650.0</ele>
        <time>2010-08-26T15:33:44Z</time>
      </trkpt>
      <trkpt lat="41.763533" lon="-8.190100">
        <ele>650.0</ele>
        <time>2010-08-26T15:33:45Z</time>
      </trkpt>
      <trkpt lat="41.763567" lon="-8.190083">
        <ele>650.0</ele>
        <time>2010-08-26T15:33:46Z</time>
      </trkpt>
      <trkpt lat="41.763583" lon="-8.190083">
        <ele>650.0</ele>
        <time>2010-08-26T15:33:47Z</time>
      </trkpt>
      <trkpt lat="41.763617" lon="-8.190067">
        <ele>650.0</ele>
        <time>2010-08-26T15:33:48Z</time>
      </trkpt>
      <trkpt lat="41.763633" lon="-8.190067">
        <ele>651.0</ele>
        <time>2010-08-26T15:33:49Z</time>
      </trkpt>
      <trkpt lat="41.763667" lon="-8.190067">
        <ele>651.0</ele>
        <time>2010-08-26T15:33:50Z</time>
      </trkpt>
      <trkpt lat="41.763683" lon="-8.190067">
        <ele>651.0</ele>
        <time>2010-08-26T15:33:51Z</time>
      </trkpt>
      <trkpt lat="41.763717" lon="-8.190067">
        <ele>651.0</ele>
        <time>2010-08-26T15:33:52Z</time>
      </trkpt>
      <trkpt lat="41.763750" lon="-8.190050">
        <ele>651.0</ele>
        <time>2010-08-26T15:33:53Z</time>
      </trkpt>
      <trkpt lat="41.763767" lon="-8.190050">
        <ele>651.0</ele>
        <time>2010-08-26T15:33:54Z</time>
      </trkpt>
      <trkpt lat="41.763800" lon="-8.190050">
        <ele>651.0</ele>
        <time>2010-08-26T15:33:55Z</time>
      </trkpt>
      <trkpt lat="41.763833" lon="-8.190050">
        <ele>651.0</ele>
        <time>2010-08-26T15:33:56Z</time>
      </trkpt>
      <trkpt lat="41.763850" lon="-8.190033">
        <ele>651.0</ele>
        <time>2010-08-26T15:33:57Z</time>
      </trkpt>
      <trkpt lat="41.763883" lon="-8.190033">
        <ele>651.0</ele>
        <time>2010-08-26T15:33:58Z</time>
      </trkpt>
      <trkpt lat="41.763917" lon="-8.190033">
        <ele>651.0</ele>
        <time>2010-08-26T15:33:59Z</time>
      </trkpt>
      <trkpt lat="41.763950" lon="-8.190033">
        <ele>651.0</ele>
        <time>2010-08-26T15:34:00Z</time>
      </trkpt>
      <trkpt lat="41.763967" lon="-8.190033">
        <ele>651.0</ele>
        <time>2010-08-26T15:34:01Z</time>
      </trkpt>
      <trkpt lat="41.764000" lon="-8.190033">
        <ele>651.0</ele>
        <time>2010-08-26T15:34:02Z</time>
      </trkpt>
      <trkpt lat="41.764033" lon="-8.190033">
        <ele>651.0</ele>
        <time>2010-08-26T15:34:03Z</time>
      </trkpt>
      <trkpt lat="41.764050" lon="-8.190033">
        <ele>651.0</ele>
        <time>2010-08-26T15:34:04Z</time>
      </trkpt>
      <trkpt lat="41.764083" lon="-8.190033">
        <ele>651.0</ele>
        <time>2010-08-26T15:34:05Z</time>
      </trkpt>
      <trkpt lat="41.764117" lon="-8.190033">
        <ele>651.0</ele>
        <time>2010-08-26T15:34:06Z</time>
      </trkpt>
      <trkpt lat="41.764133" lon="-8.190033">
        <ele>651.0</ele>
        <time>2010-08-26T15:34:07Z</time>
      </trkpt>
      <trkpt lat="41.764167" lon="-8.190033">
        <ele>651.0</ele>
        <time>2010-08-26T15:34:08Z</time>
      </trkpt>
      <trkpt lat="41.764183" lon="-8.190033">
        <ele>651.0</ele>
        <time>2010-08-26T15:34:09Z</time>
      </trkpt>
      <trkpt lat="41.764217" lon="-8.190033">
        <ele>651.0</ele>
        <time>2010-08-26T15:34:10Z</time>
      </trkpt>
      <trkpt lat="41.764250" lon="-8.190050">
        <ele>651.0</ele>
        <time>2010-08-26T15:34:11Z</time>
      </trkpt>
      <trkpt lat="41.764267" lon="-8.190050">
        <ele>652.0</ele>
        <time>2010-08-26T15:34:12Z</time>
      </trkpt>
      <trkpt lat="41.764300" lon="-8.190050">
        <ele>652.0</ele>
        <time>2010-08-26T15:34:13Z</time>
      </trkpt>
      <trkpt lat="41.764317" lon="-8.190050">
        <ele>652.0</ele>
        <time>2010-08-26T15:34:14Z</time>
      </trkpt>
      <trkpt lat="41.764350" lon="-8.190050">
        <ele>652.0</ele>
        <time>2010-08-26T15:34:15Z</time>
      </trkpt>
      <trkpt lat="41.764367" lon="-8.190050">
        <ele>652.0</ele>
        <time>2010-08-26T15:34:16Z</time>
      </trkpt>
      <trkpt lat="41.764400" lon="-8.190067">
        <ele>652.0</ele>
        <time>2010-08-26T15:34:17Z</time>
      </trkpt>
      <trkpt lat="41.764417" lon="-8.190067">
        <ele>652.0</ele>
        <time>2010-08-26T15:34:18Z</time>
      </trkpt>
      <trkpt lat="41.764450" lon="-8.190067">
        <ele>652.0</ele>
        <time>2010-08-26T15:34:19Z</time>
      </trkpt>
      <trkpt lat="41.764483" lon="-8.190067">
        <ele>652.0</ele>
        <time>2010-08-26T15:34:20Z</time>
      </trkpt>
      <trkpt lat="41.764500" lon="-8.190067">
        <ele>652.0</ele>
        <time>2010-08-26T15:34:21Z</time>
      </trkpt>
      <trkpt lat="41.764533" lon="-8.190083">
        <ele>652.0</ele>
        <time>2010-08-26T15:34:22Z</time>
      </trkpt>
      <trkpt lat="41.764550" lon="-8.190083">
        <ele>652.0</ele>
        <time>2010-08-26T15:34:23Z</time>
      </trkpt>
      <trkpt lat="41.764583" lon="-8.190083">
        <ele>652.0</ele>
        <time>2010-08-26T15:34:24Z</time>
      </trkpt>
      <trkpt lat="41.764600" lon="-8.190083">
        <ele>652.0</ele>
        <time>2010-08-26T15:34:25Z</time>
      </trkpt>
      <trkpt lat="41.764633" lon="-8.190083">
        <ele>652.0</ele>
        <time>2010-08-26T15:34:26Z</time>
      </trkpt>
      <trkpt lat="41.764650" lon="-8.190083">
        <ele>652.0</ele>
        <time>2010-08-26T15:34:27Z</time>
      </trkpt>
      <trkpt lat="41.764683" lon="-8.190083">
        <ele>652.0</ele>
        <time>2010-08-26T15:34:28Z</time>
      </trkpt>
      <trkpt lat="41.764717" lon="-8.190083">
        <ele>652.0</ele>
        <time>2010-08-26T15:34:29Z</time>
      </trkpt>
      <trkpt lat="41.764733" lon="-8.190083">
        <ele>652.0</ele>
        <time>2010-08-26T15:34:30Z</time>
      </trkpt>
      <trkpt lat="41.764767" lon="-8.190100">
        <ele>652.0</ele>
        <time>2010-08-26T15:34:31Z</time>
      </trkpt>
      <trkpt lat="41.764783" lon="-8.190100">
        <ele>652.0</ele>
        <time>2010-08-26T15:34:32Z</time>
      </trkpt>
      <trkpt lat="41.764817" lon="-8.190100">
        <ele>652.0</ele>
        <time>2010-08-26T15:34:33Z</time>
      </trkpt>
      <trkpt lat="41.764833" lon="-8.190100">
        <ele>652.0</ele>
        <time>2010-08-26T15:34:34Z</time>
      </trkpt>
      <trkpt lat="41.764867" lon="-8.190100">
        <ele>652.0</ele>
        <time>2010-08-26T15:34:35Z</time>
      </trkpt>
      <trkpt lat="41.764883" lon="-8.190100">
        <ele>652.0</ele>
        <time>2010-08-26T15:34:36Z</time>
      </trkpt>
      <trkpt lat="41.764917" lon="-8.190100">
        <ele>652.0</ele>
        <time>2010-08-26T15:34:37Z</time>
      </trkpt>
      <trkpt lat="41.764933" lon="-8.190083">
        <ele>652.0</ele>
        <time>2010-08-26T15:34:38Z</time>
      </trkpt>
      <trkpt lat="41.764967" lon="-8.190083">
        <ele>652.0</ele>
        <time>2010-08-26T15:34:39Z</time>
      </trkpt>
      <trkpt lat="41.764983" lon="-8.190083">
        <ele>653.0</ele>
        <time>2010-08-26T15:34:40Z</time>
      </trkpt>
      <trkpt lat="41.765017" lon="-8.190083">
        <ele>653.0</ele>
        <time>2010-08-26T15:34:41Z</time>
      </trkpt>
      <trkpt lat="41.765033" lon="-8.190083">
        <ele>653.0</ele>
        <time>2010-08-26T15:34:42Z</time>
      </trkpt>
      <trkpt lat="41.765067" lon="-8.190083">
        <ele>653.0</ele>
        <time>2010-08-26T15:34:43Z</time>
      </trkpt>
      <trkpt lat="41.765083" lon="-8.190067">
        <ele>653.0</ele>
        <time>2010-08-26T15:34:44Z</time>
      </trkpt>
      <trkpt lat="41.765117" lon="-8.190067">
        <ele>653.0</ele>
        <time>2010-08-26T15:34:45Z</time>
      </trkpt>
      <trkpt lat="41.765133" lon="-8.190067">
        <ele>653.0</ele>
        <time>2010-08-26T15:34:46Z</time>
      </trkpt>
      <trkpt lat="41.765167" lon="-8.190067">
        <ele>653.0</ele>
        <time>2010-08-26T15:34:47Z</time>
      </trkpt>
      <trkpt lat="41.765183" lon="-8.190050">
        <ele>653.0</ele>
        <time>2010-08-26T15:34:48Z</time>
      </trkpt>
      <trkpt lat="41.765217" lon="-8.190050">
        <ele>653.0</ele>
        <time>2010-08-26T15:34:49Z</time>
      </trkpt>
      <trkpt lat="41.765233" lon="-8.190050">
        <ele>653.0</ele>
        <time>2010-08-26T15:34:50Z</time>
      </trkpt>
      <trkpt lat="41.765267" lon="-8.190050">
        <ele>653.0</ele>
        <time>2010-08-26T15:34:51Z</time>
      </trkpt>
      <trkpt lat="41.765300" lon="-8.190050">
        <ele>654.0</ele>
        <time>2010-08-26T15:34:52Z</time>
      </trkpt>
      <trkpt lat="41.765317" lon="-8.190033">
        <ele>654.0</ele>
        <time>2010-08-26T15:34:53Z</time>
      </trkpt>
      <trkpt lat="41.765350" lon="-8.190033">
        <ele>654.0</ele>
        <time>2010-08-26T15:34:54Z</time>
      </trkpt>
      <trkpt lat="41.765383" lon="-8.190033">
        <ele>654.0</ele>
        <time>2010-08-26T15:34:56Z</time>
      </trkpt>
      <trkpt lat="41.765417" lon="-8.190017">
        <ele>655.0</ele>
        <time>2010-08-26T15:34:58Z</time>
      </trkpt>
      <trkpt lat="41.765450" lon="-8.190017">
        <ele>655.0</ele>
        <time>2010-08-26T15:35:01Z</time>
      </trkpt>
      <trkpt lat="41.765483" lon="-8.190000">
        <ele>655.0</ele>
        <time>2010-08-26T15:35:03Z</time>
      </trkpt>
      <trkpt lat="41.765517" lon="-8.190000">
        <ele>655.0</ele>
        <time>2010-08-26T15:35:05Z</time>
      </trkpt>
      <trkpt lat="41.765567" lon="-8.190000">
        <ele>655.0</ele>
        <time>2010-08-26T15:35:07Z</time>
      </trkpt>
      <trkpt lat="41.765600" lon="-8.190000">
        <ele>655.0</ele>
        <time>2010-08-26T15:35:09Z</time>
      </trkpt>
      <trkpt lat="41.765633" lon="-8.189983">
        <ele>655.0</ele>
        <time>2010-08-26T15:35:10Z</time>
      </trkpt>
      <trkpt lat="41.765650" lon="-8.189983">
        <ele>655.0</ele>
        <time>2010-08-26T15:35:11Z</time>
      </trkpt>
      <trkpt lat="41.765683" lon="-8.189983">
        <ele>655.0</ele>
        <time>2010-08-26T15:35:12Z</time>
      </trkpt>
      <trkpt lat="41.765700" lon="-8.189967">
        <ele>655.0</ele>
        <time>2010-08-26T15:35:13Z</time>
      </trkpt>
      <trkpt lat="41.765717" lon="-8.189967">
        <ele>655.0</ele>
        <time>2010-08-26T15:35:14Z</time>
      </trkpt>
      <trkpt lat="41.765750" lon="-8.189967">
        <ele>655.0</ele>
        <time>2010-08-26T15:35:15Z</time>
      </trkpt>
      <trkpt lat="41.765767" lon="-8.189967">
        <ele>655.0</ele>
        <time>2010-08-26T15:35:16Z</time>
      </trkpt>
      <trkpt lat="41.765800" lon="-8.189967">
        <ele>655.0</ele>
        <time>2010-08-26T15:35:17Z</time>
      </trkpt>
      <trkpt lat="41.765817" lon="-8.189967">
        <ele>655.0</ele>
        <time>2010-08-26T15:35:18Z</time>
      </trkpt>
      <trkpt lat="41.765850" lon="-8.189950">
        <ele>655.0</ele>
        <time>2010-08-26T15:35:19Z</time>
      </trkpt>
      <trkpt lat="41.765883" lon="-8.189950">
        <ele>655.0</ele>
        <time>2010-08-26T15:35:20Z</time>
      </trkpt>
      <trkpt lat="41.765900" lon="-8.189950">
        <ele>655.0</ele>
        <time>2010-08-26T15:35:21Z</time>
      </trkpt>
      <trkpt lat="41.765933" lon="-8.189950">
        <ele>655.0</ele>
        <time>2010-08-26T15:35:22Z</time>
      </trkpt>
      <trkpt lat="41.765950" lon="-8.189950">
        <ele>655.0</ele>
        <time>2010-08-26T15:35:23Z</time>
      </trkpt>
      <trkpt lat="41.765983" lon="-8.189950">
        <ele>655.0</ele>
        <time>2010-08-26T15:35:24Z</time>
      </trkpt>
      <trkpt lat="41.766017" lon="-8.189967">
        <ele>655.0</ele>
        <time>2010-08-26T15:35:25Z</time>
      </trkpt>
      <trkpt lat="41.766050" lon="-8.189967">
        <ele>655.0</ele>
        <time>2010-08-26T15:35:26Z</time>
      </trkpt>
      <trkpt lat="41.766083" lon="-8.189967">
        <ele>655.0</ele>
        <time>2010-08-26T15:35:27Z</time>
      </trkpt>
      <trkpt lat="41.766117" lon="-8.189967">
        <ele>655.0</ele>
        <time>2010-08-26T15:35:28Z</time>
      </trkpt>
      <trkpt lat="41.766150" lon="-8.189983">
        <ele>655.0</ele>
        <time>2010-08-26T15:35:29Z</time>
      </trkpt>
      <trkpt lat="41.766183" lon="-8.189983">
        <ele>655.0</ele>
        <time>2010-08-26T15:35:30Z</time>
      </trkpt>
      <trkpt lat="41.766217" lon="-8.190000">
        <ele>655.0</ele>
        <time>2010-08-26T15:35:31Z</time>
      </trkpt>
      <trkpt lat="41.766250" lon="-8.190000">
        <ele>654.0</ele>
        <time>2010-08-26T15:35:32Z</time>
      </trkpt>
      <trkpt lat="41.766283" lon="-8.190000">
        <ele>654.0</ele>
        <time>2010-08-26T15:35:33Z</time>
      </trkpt>
      <trkpt lat="41.766317" lon="-8.190017">
        <ele>654.0</ele>
        <time>2010-08-26T15:35:34Z</time>
      </trkpt>
      <trkpt lat="41.766367" lon="-8.190017">
        <ele>654.0</ele>
        <time>2010-08-26T15:35:35Z</time>
      </trkpt>
      <trkpt lat="41.766400" lon="-8.190033">
        <ele>654.0</ele>
        <time>2010-08-26T15:35:36Z</time>
      </trkpt>
      <trkpt lat="41.766433" lon="-8.190050">
        <ele>654.0</ele>
        <time>2010-08-26T15:35:37Z</time>
      </trkpt>
      <trkpt lat="41.766467" lon="-8.190067">
        <ele>654.0</ele>
        <time>2010-08-26T15:35:38Z</time>
      </trkpt>
      <trkpt lat="41.766500" lon="-8.190083">
        <ele>654.0</ele>
        <time>2010-08-26T15:35:39Z</time>
      </trkpt>
      <trkpt lat="41.766533" lon="-8.190100">
        <ele>654.0</ele>
        <time>2010-08-26T15:35:40Z</time>
      </trkpt>
      <trkpt lat="41.766567" lon="-8.190117">
        <ele>654.0</ele>
        <time>2010-08-26T15:35:41Z</time>
      </trkpt>
      <trkpt lat="41.766600" lon="-8.190133">
        <ele>654.0</ele>
        <time>2010-08-26T15:35:42Z</time>
      </trkpt>
      <trkpt lat="41.766633" lon="-8.190150">
        <ele>654.0</ele>
        <time>2010-08-26T15:35:43Z</time>
      </trkpt>
      <trkpt lat="41.766650" lon="-8.190183">
        <ele>654.0</ele>
        <time>2010-08-26T15:35:44Z</time>
      </trkpt>
      <trkpt lat="41.766683" lon="-8.190200">
        <ele>654.0</ele>
        <time>2010-08-26T15:35:45Z</time>
      </trkpt>
      <trkpt lat="41.766717" lon="-8.190217">
        <ele>655.0</ele>
        <time>2010-08-26T15:35:46Z</time>
      </trkpt>
      <trkpt lat="41.766733" lon="-8.190217">
        <ele>655.0</ele>
        <time>2010-08-26T15:35:47Z</time>
      </trkpt>
      <trkpt lat="41.766767" lon="-8.190233">
        <ele>655.0</ele>
        <time>2010-08-26T15:35:48Z</time>
      </trkpt>
      <trkpt lat="41.766800" lon="-8.190250">
        <ele>655.0</ele>
        <time>2010-08-26T15:35:49Z</time>
      </trkpt>
      <trkpt lat="41.766817" lon="-8.190250">
        <ele>655.0</ele>
        <time>2010-08-26T15:35:50Z</time>
      </trkpt>
      <trkpt lat="41.766850" lon="-8.190250">
        <ele>656.0</ele>
        <time>2010-08-26T15:35:51Z</time>
      </trkpt>
      <trkpt lat="41.766883" lon="-8.190250">
        <ele>656.0</ele>
        <time>2010-08-26T15:35:52Z</time>
      </trkpt>
      <trkpt lat="41.766917" lon="-8.190250">
        <ele>656.0</ele>
        <time>2010-08-26T15:35:53Z</time>
      </trkpt>
      <trkpt lat="41.766950" lon="-8.190233">
        <ele>656.0</ele>
        <time>2010-08-26T15:35:54Z</time>
      </trkpt>
      <trkpt lat="41.766967" lon="-8.190217">
        <ele>656.0</ele>
        <time>2010-08-26T15:35:55Z</time>
      </trkpt>
      <trkpt lat="41.767000" lon="-8.190200">
        <ele>657.0</ele>
        <time>2010-08-26T15:35:56Z</time>
      </trkpt>
      <trkpt lat="41.767033" lon="-8.190167">
        <ele>657.0</ele>
        <time>2010-08-26T15:35:57Z</time>
      </trkpt>
      <trkpt lat="41.767050" lon="-8.190133">
        <ele>657.0</ele>
        <time>2010-08-26T15:35:58Z</time>
      </trkpt>
      <trkpt lat="41.767083" lon="-8.190117">
        <ele>657.0</ele>
        <time>2010-08-26T15:35:59Z</time>
      </trkpt>
      <trkpt lat="41.767100" lon="-8.190083">
        <ele>657.0</ele>
        <time>2010-08-26T15:36:00Z</time>
      </trkpt>
      <trkpt lat="41.767117" lon="-8.190050">
        <ele>657.0</ele>
        <time>2010-08-26T15:36:01Z</time>
      </trkpt>
      <trkpt lat="41.767150" lon="-8.190033">
        <ele>657.0</ele>
        <time>2010-08-26T15:36:02Z</time>
      </trkpt>
      <trkpt lat="41.767167" lon="-8.190000">
        <ele>657.0</ele>
        <time>2010-08-26T15:36:03Z</time>
      </trkpt>
      <trkpt lat="41.767183" lon="-8.189967">
        <ele>657.0</ele>
        <time>2010-08-26T15:36:04Z</time>
      </trkpt>
      <trkpt lat="41.767217" lon="-8.189933">
        <ele>658.0</ele>
        <time>2010-08-26T15:36:05Z</time>
      </trkpt>
      <trkpt lat="41.767233" lon="-8.189917">
        <ele>658.0</ele>
        <time>2010-08-26T15:36:06Z</time>
      </trkpt>
      <trkpt lat="41.767250" lon="-8.189883">
        <ele>658.0</ele>
        <time>2010-08-26T15:36:07Z</time>
      </trkpt>
      <trkpt lat="41.767283" lon="-8.189850">
        <ele>658.0</ele>
        <time>2010-08-26T15:36:08Z</time>
      </trkpt>
      <trkpt lat="41.767300" lon="-8.189833">
        <ele>658.0</ele>
        <time>2010-08-26T15:36:09Z</time>
      </trkpt>
      <trkpt lat="41.767333" lon="-8.189800">
        <ele>658.0</ele>
        <time>2010-08-26T15:36:10Z</time>
      </trkpt>
      <trkpt lat="41.767350" lon="-8.189767">
        <ele>658.0</ele>
        <time>2010-08-26T15:36:11Z</time>
      </trkpt>
      <trkpt lat="41.767367" lon="-8.189750">
        <ele>658.0</ele>
        <time>2010-08-26T15:36:12Z</time>
      </trkpt>
      <trkpt lat="41.767400" lon="-8.189717">
        <ele>659.0</ele>
        <time>2010-08-26T15:36:13Z</time>
      </trkpt>
      <trkpt lat="41.767417" lon="-8.189700">
        <ele>659.0</ele>
        <time>2010-08-26T15:36:14Z</time>
      </trkpt>
      <trkpt lat="41.767433" lon="-8.189667">
        <ele>659.0</ele>
        <time>2010-08-26T15:36:15Z</time>
      </trkpt>
      <trkpt lat="41.767467" lon="-8.189633">
        <ele>659.0</ele>
        <time>2010-08-26T15:36:16Z</time>
      </trkpt>
      <trkpt lat="41.767483" lon="-8.189617">
        <ele>660.0</ele>
        <time>2010-08-26T15:36:17Z</time>
      </trkpt>
      <trkpt lat="41.767500" lon="-8.189583">
        <ele>660.0</ele>
        <time>2010-08-26T15:36:18Z</time>
      </trkpt>
      <trkpt lat="41.767517" lon="-8.189567">
        <ele>660.0</ele>
        <time>2010-08-26T15:36:19Z</time>
      </trkpt>
      <trkpt lat="41.767533" lon="-8.189533">
        <ele>661.0</ele>
        <time>2010-08-26T15:36:20Z</time>
      </trkpt>
      <trkpt lat="41.767550" lon="-8.189517">
        <ele>661.0</ele>
        <time>2010-08-26T15:36:21Z</time>
      </trkpt>
      <trkpt lat="41.767567" lon="-8.189500">
        <ele>661.0</ele>
        <time>2010-08-26T15:36:22Z</time>
      </trkpt>
      <trkpt lat="41.767600" lon="-8.189467">
        <ele>661.0</ele>
        <time>2010-08-26T15:36:23Z</time>
      </trkpt>
      <trkpt lat="41.767617" lon="-8.189450">
        <ele>662.0</ele>
        <time>2010-08-26T15:36:24Z</time>
      </trkpt>
      <trkpt lat="41.767633" lon="-8.189417">
        <ele>662.0</ele>
        <time>2010-08-26T15:36:25Z</time>
      </trkpt>
      <trkpt lat="41.767650" lon="-8.189400">
        <ele>662.0</ele>
        <time>2010-08-26T15:36:26Z</time>
      </trkpt>
      <trkpt lat="41.767667" lon="-8.189367">
        <ele>662.0</ele>
        <time>2010-08-26T15:36:27Z</time>
      </trkpt>
      <trkpt lat="41.767683" lon="-8.189350">
        <ele>662.0</ele>
        <time>2010-08-26T15:36:28Z</time>
      </trkpt>
      <trkpt lat="41.767700" lon="-8.189317">
        <ele>662.0</ele>
        <time>2010-08-26T15:36:29Z</time>
      </trkpt>
      <trkpt lat="41.767733" lon="-8.189283">
        <ele>662.0</ele>
        <time>2010-08-26T15:36:30Z</time>
      </trkpt>
      <trkpt lat="41.767750" lon="-8.189267">
        <ele>663.0</ele>
        <time>2010-08-26T15:36:31Z</time>
      </trkpt>
      <trkpt lat="41.767767" lon="-8.189233">
        <ele>663.0</ele>
        <time>2010-08-26T15:36:32Z</time>
      </trkpt>
      <trkpt lat="41.767783" lon="-8.189217">
        <ele>663.0</ele>
        <time>2010-08-26T15:36:33Z</time>
      </trkpt>
      <trkpt lat="41.767800" lon="-8.189183">
        <ele>663.0</ele>
        <time>2010-08-26T15:36:34Z</time>
      </trkpt>
      <trkpt lat="41.767817" lon="-8.189150">
        <ele>663.0</ele>
        <time>2010-08-26T15:36:35Z</time>
      </trkpt>
      <trkpt lat="41.767833" lon="-8.189133">
        <ele>664.0</ele>
        <time>2010-08-26T15:36:36Z</time>
      </trkpt>
      <trkpt lat="41.767867" lon="-8.189100">
        <ele>664.0</ele>
        <time>2010-08-26T15:36:37Z</time>
      </trkpt>
      <trkpt lat="41.767883" lon="-8.189083">
        <ele>664.0</ele>
        <time>2010-08-26T15:36:38Z</time>
      </trkpt>
      <trkpt lat="41.767900" lon="-8.189050">
        <ele>664.0</ele>
        <time>2010-08-26T15:36:39Z</time>
      </trkpt>
      <trkpt lat="41.767917" lon="-8.189033">
        <ele>664.0</ele>
        <time>2010-08-26T15:36:40Z</time>
      </trkpt>
      <trkpt lat="41.767933" lon="-8.189000">
        <ele>664.0</ele>
        <time>2010-08-26T15:36:41Z</time>
      </trkpt>
      <trkpt lat="41.767967" lon="-8.188983">
        <ele>664.0</ele>
        <time>2010-08-26T15:36:42Z</time>
      </trkpt>
      <trkpt lat="41.767983" lon="-8.188950">
        <ele>664.0</ele>
        <time>2010-08-26T15:36:43Z</time>
      </trkpt>
      <trkpt lat="41.768000" lon="-8.188917">
        <ele>664.0</ele>
        <time>2010-08-26T15:36:44Z</time>
      </trkpt>
      <trkpt lat="41.768017" lon="-8.188900">
        <ele>664.0</ele>
        <time>2010-08-26T15:36:45Z</time>
      </trkpt>
      <trkpt lat="41.768050" lon="-8.188867">
        <ele>664.0</ele>
        <time>2010-08-26T15:36:46Z</time>
      </trkpt>
      <trkpt lat="41.768067" lon="-8.188833">
        <ele>664.0</ele>
        <time>2010-08-26T15:36:47Z</time>
      </trkpt>
      <trkpt lat="41.768083" lon="-8.188817">
        <ele>663.0</ele>
        <time>2010-08-26T15:36:48Z</time>
      </trkpt>
      <trkpt lat="41.768117" lon="-8.188783">
        <ele>663.0</ele>
        <time>2010-08-26T15:36:49Z</time>
      </trkpt>
      <trkpt lat="41.768133" lon="-8.188750">
        <ele>663.0</ele>
        <time>2010-08-26T15:36:50Z</time>
      </trkpt>
      <trkpt lat="41.768150" lon="-8.188733">
        <ele>663.0</ele>
        <time>2010-08-26T15:36:51Z</time>
      </trkpt>
      <trkpt lat="41.768167" lon="-8.188700">
        <ele>663.0</ele>
        <time>2010-08-26T15:36:52Z</time>
      </trkpt>
      <trkpt lat="41.768200" lon="-8.188667">
        <ele>663.0</ele>
        <time>2010-08-26T15:36:54Z</time>
      </trkpt>
      <trkpt lat="41.768217" lon="-8.188650">
        <ele>663.0</ele>
        <time>2010-08-26T15:36:55Z</time>
      </trkpt>
      <trkpt lat="41.768250" lon="-8.188633">
        <ele>663.0</ele>
        <time>2010-08-26T15:36:56Z</time>
      </trkpt>
      <trkpt lat="41.768283" lon="-8.188617">
        <ele>663.0</ele>
        <time>2010-08-26T15:36:58Z</time>
      </trkpt>
      <trkpt lat="41.768333" lon="-8.188600">
        <ele>661.0</ele>
        <time>2010-08-26T15:37:10Z</time>
      </trkpt>
      <trkpt lat="41.768367" lon="-8.188583">
        <ele>657.0</ele>
        <time>2010-08-26T15:37:42Z</time>
      </trkpt>
      <trkpt lat="41.768383" lon="-8.188533">
        <ele>657.0</ele>
        <time>2010-08-26T15:37:45Z</time>
      </trkpt>
      <trkpt lat="41.768383" lon="-8.188500">
        <ele>658.0</ele>
        <time>2010-08-26T15:37:46Z</time>
      </trkpt>
      <trkpt lat="41.768367" lon="-8.188483">
        <ele>658.0</ele>
        <time>2010-08-26T15:37:47Z</time>
      </trkpt>
      <trkpt lat="41.768350" lon="-8.188450">
        <ele>658.0</ele>
        <time>2010-08-26T15:37:48Z</time>
      </trkpt>
      <trkpt lat="41.768333" lon="-8.188417">
        <ele>658.0</ele>
        <time>2010-08-26T15:37:49Z</time>
      </trkpt>
      <trkpt lat="41.768333" lon="-8.188383">
        <ele>658.0</ele>
        <time>2010-08-26T15:37:50Z</time>
      </trkpt>
      <trkpt lat="41.768333" lon="-8.188350">
        <ele>658.0</ele>
        <time>2010-08-26T15:37:51Z</time>
      </trkpt>
      <trkpt lat="41.768333" lon="-8.188300">
        <ele>658.0</ele>
        <time>2010-08-26T15:37:52Z</time>
      </trkpt>
      <trkpt lat="41.768333" lon="-8.188250">
        <ele>658.0</ele>
        <time>2010-08-26T15:37:53Z</time>
      </trkpt>
      <trkpt lat="41.768333" lon="-8.188200">
        <ele>659.0</ele>
        <time>2010-08-26T15:37:54Z</time>
      </trkpt>
      <trkpt lat="41.768333" lon="-8.188150">
        <ele>659.0</ele>
        <time>2010-08-26T15:37:55Z</time>
      </trkpt>
      <trkpt lat="41.768333" lon="-8.188083">
        <ele>659.0</ele>
        <time>2010-08-26T15:37:56Z</time>
      </trkpt>
      <trkpt lat="41.768333" lon="-8.188033">
        <ele>659.0</ele>
        <time>2010-08-26T15:37:57Z</time>
      </trkpt>
      <trkpt lat="41.768333" lon="-8.187967">
        <ele>659.0</ele>
        <time>2010-08-26T15:37:58Z</time>
      </trkpt>
      <trkpt lat="41.768350" lon="-8.187900">
        <ele>659.0</ele>
        <time>2010-08-26T15:37:59Z</time>
      </trkpt>
      <trkpt lat="41.768350" lon="-8.187817">
        <ele>659.0</ele>
        <time>2010-08-26T15:38:00Z</time>
      </trkpt>
      <trkpt lat="41.768350" lon="-8.187750">
        <ele>659.0</ele>
        <time>2010-08-26T15:38:01Z</time>
      </trkpt>
      <trkpt lat="41.768367" lon="-8.187667">
        <ele>659.0</ele>
        <time>2010-08-26T15:38:02Z</time>
      </trkpt>
      <trkpt lat="41.768367" lon="-8.187583">
        <ele>659.0</ele>
        <time>2010-08-26T15:38:03Z</time>
      </trkpt>
      <trkpt lat="41.768383" lon="-8.187500">
        <ele>659.0</ele>
        <time>2010-08-26T15:38:04Z</time>
      </trkpt>
      <trkpt lat="41.768417" lon="-8.187417">
        <ele>659.0</ele>
        <time>2010-08-26T15:38:05Z</time>
      </trkpt>
      <trkpt lat="41.768450" lon="-8.187333">
        <ele>659.0</ele>
        <time>2010-08-26T15:38:06Z</time>
      </trkpt>
      <trkpt lat="41.768483" lon="-8.187267">
        <ele>658.0</ele>
        <time>2010-08-26T15:38:07Z</time>
      </trkpt>
      <trkpt lat="41.768517" lon="-8.187183">
        <ele>658.0</ele>
        <time>2010-08-26T15:38:08Z</time>
      </trkpt>
      <trkpt lat="41.768550" lon="-8.187117">
        <ele>658.0</ele>
        <time>2010-08-26T15:38:09Z</time>
      </trkpt>
      <trkpt lat="41.768583" lon="-8.187050">
        <ele>658.0</ele>
        <time>2010-08-26T15:38:10Z</time>
      </trkpt>
      <trkpt lat="41.768617" lon="-8.186983">
        <ele>658.0</ele>
        <time>2010-08-26T15:38:11Z</time>
      </trkpt>
      <trkpt lat="41.768667" lon="-8.186917">
        <ele>657.0</ele>
        <time>2010-08-26T15:38:12Z</time>
      </trkpt>
      <trkpt lat="41.768700" lon="-8.186850">
        <ele>657.0</ele>
        <time>2010-08-26T15:38:13Z</time>
      </trkpt>
      <trkpt lat="41.768733" lon="-8.186783">
        <ele>657.0</ele>
        <time>2010-08-26T15:38:14Z</time>
      </trkpt>
      <trkpt lat="41.768783" lon="-8.186733">
        <ele>657.0</ele>
        <time>2010-08-26T15:38:15Z</time>
      </trkpt>
      <trkpt lat="41.768817" lon="-8.186667">
        <ele>657.0</ele>
        <time>2010-08-26T15:38:16Z</time>
      </trkpt>
      <trkpt lat="41.768850" lon="-8.186617">
        <ele>657.0</ele>
        <time>2010-08-26T15:38:17Z</time>
      </trkpt>
      <trkpt lat="41.768867" lon="-8.186567">
        <ele>657.0</ele>
        <time>2010-08-26T15:38:18Z</time>
      </trkpt>
      <trkpt lat="41.768900" lon="-8.186517">
        <ele>657.0</ele>
        <time>2010-08-26T15:38:19Z</time>
      </trkpt>
      <trkpt lat="41.768933" lon="-8.186483">
        <ele>657.0</ele>
        <time>2010-08-26T15:38:20Z</time>
      </trkpt>
      <trkpt lat="41.768967" lon="-8.186433">
        <ele>657.0</ele>
        <time>2010-08-26T15:38:21Z</time>
      </trkpt>
      <trkpt lat="41.769000" lon="-8.186383">
        <ele>657.0</ele>
        <time>2010-08-26T15:38:22Z</time>
      </trkpt>
      <trkpt lat="41.769033" lon="-8.186333">
        <ele>657.0</ele>
        <time>2010-08-26T15:38:23Z</time>
      </trkpt>
      <trkpt lat="41.769067" lon="-8.186283">
        <ele>656.0</ele>
        <time>2010-08-26T15:38:24Z</time>
      </trkpt>
      <trkpt lat="41.769100" lon="-8.186233">
        <ele>656.0</ele>
        <time>2010-08-26T15:38:25Z</time>
      </trkpt>
      <trkpt lat="41.769117" lon="-8.186183">
        <ele>656.0</ele>
        <time>2010-08-26T15:38:26Z</time>
      </trkpt>
      <trkpt lat="41.769150" lon="-8.186150">
        <ele>656.0</ele>
        <time>2010-08-26T15:38:27Z</time>
      </trkpt>
      <trkpt lat="41.769183" lon="-8.186100">
        <ele>656.0</ele>
        <time>2010-08-26T15:38:28Z</time>
      </trkpt>
      <trkpt lat="41.769217" lon="-8.186050">
        <ele>656.0</ele>
        <time>2010-08-26T15:38:29Z</time>
      </trkpt>
      <trkpt lat="41.769233" lon="-8.186000">
        <ele>655.0</ele>
        <time>2010-08-26T15:38:30Z</time>
      </trkpt>
      <trkpt lat="41.769267" lon="-8.185950">
        <ele>655.0</ele>
        <time>2010-08-26T15:38:31Z</time>
      </trkpt>
      <trkpt lat="41.769300" lon="-8.185900">
        <ele>655.0</ele>
        <time>2010-08-26T15:38:32Z</time>
      </trkpt>
      <trkpt lat="41.769333" lon="-8.185850">
        <ele>655.0</ele>
        <time>2010-08-26T15:38:33Z</time>
      </trkpt>
      <trkpt lat="41.769350" lon="-8.185800">
        <ele>655.0</ele>
        <time>2010-08-26T15:38:34Z</time>
      </trkpt>
      <trkpt lat="41.769383" lon="-8.185767">
        <ele>655.0</ele>
        <time>2010-08-26T15:38:35Z</time>
      </trkpt>
      <trkpt lat="41.769400" lon="-8.185733">
        <ele>655.0</ele>
        <time>2010-08-26T15:38:36Z</time>
      </trkpt>
      <trkpt lat="41.769417" lon="-8.185700">
        <ele>655.0</ele>
        <time>2010-08-26T15:38:37Z</time>
      </trkpt>
      <trkpt lat="41.769433" lon="-8.185667">
        <ele>654.0</ele>
        <time>2010-08-26T15:38:38Z</time>
      </trkpt>
      <trkpt lat="41.769450" lon="-8.185633">
        <ele>654.0</ele>
        <time>2010-08-26T15:38:39Z</time>
      </trkpt>
      <trkpt lat="41.769467" lon="-8.185600">
        <ele>654.0</ele>
        <time>2010-08-26T15:38:40Z</time>
      </trkpt>
      <trkpt lat="41.769483" lon="-8.185567">
        <ele>654.0</ele>
        <time>2010-08-26T15:38:41Z</time>
      </trkpt>
      <trkpt lat="41.769500" lon="-8.185550">
        <ele>654.0</ele>
        <time>2010-08-26T15:38:42Z</time>
      </trkpt>
      <trkpt lat="41.769517" lon="-8.185500">
        <ele>654.0</ele>
        <time>2010-08-26T15:38:43Z</time>
      </trkpt>
      <trkpt lat="41.769533" lon="-8.185467">
        <ele>654.0</ele>
        <time>2010-08-26T15:38:44Z</time>
      </trkpt>
      <trkpt lat="41.769550" lon="-8.185417">
        <ele>654.0</ele>
        <time>2010-08-26T15:38:45Z</time>
      </trkpt>
      <trkpt lat="41.769567" lon="-8.185383">
        <ele>653.0</ele>
        <time>2010-08-26T15:38:46Z</time>
      </trkpt>
      <trkpt lat="41.769600" lon="-8.185333">
        <ele>653.0</ele>
        <time>2010-08-26T15:38:47Z</time>
      </trkpt>
      <trkpt lat="41.769617" lon="-8.185300">
        <ele>653.0</ele>
        <time>2010-08-26T15:38:48Z</time>
      </trkpt>
      <trkpt lat="41.769633" lon="-8.185250">
        <ele>653.0</ele>
        <time>2010-08-26T15:38:49Z</time>
      </trkpt>
      <trkpt lat="41.769650" lon="-8.185217">
        <ele>653.0</ele>
        <time>2010-08-26T15:38:50Z</time>
      </trkpt>
      <trkpt lat="41.769667" lon="-8.185167">
        <ele>653.0</ele>
        <time>2010-08-26T15:38:51Z</time>
      </trkpt>
      <trkpt lat="41.769683" lon="-8.185133">
        <ele>653.0</ele>
        <time>2010-08-26T15:38:52Z</time>
      </trkpt>
      <trkpt lat="41.769700" lon="-8.185083">
        <ele>652.0</ele>
        <time>2010-08-26T15:38:53Z</time>
      </trkpt>
      <trkpt lat="41.769733" lon="-8.185050">
        <ele>652.0</ele>
        <time>2010-08-26T15:38:54Z</time>
      </trkpt>
      <trkpt lat="41.769750" lon="-8.185000">
        <ele>652.0</ele>
        <time>2010-08-26T15:38:55Z</time>
      </trkpt>
      <trkpt lat="41.769767" lon="-8.184950">
        <ele>652.0</ele>
        <time>2010-08-26T15:38:56Z</time>
      </trkpt>
      <trkpt lat="41.769767" lon="-8.184917">
        <ele>652.0</ele>
        <time>2010-08-26T15:38:57Z</time>
      </trkpt>
      <trkpt lat="41.769783" lon="-8.184867">
        <ele>652.0</ele>
        <time>2010-08-26T15:38:58Z</time>
      </trkpt>
      <trkpt lat="41.769783" lon="-8.184817">
        <ele>652.0</ele>
        <time>2010-08-26T15:38:59Z</time>
      </trkpt>
      <trkpt lat="41.769800" lon="-8.184767">
        <ele>652.0</ele>
        <time>2010-08-26T15:39:00Z</time>
      </trkpt>
      <trkpt lat="41.769817" lon="-8.184717">
        <ele>651.0</ele>
        <time>2010-08-26T15:39:01Z</time>
      </trkpt>
      <trkpt lat="41.769833" lon="-8.184667">
        <ele>651.0</ele>
        <time>2010-08-26T15:39:02Z</time>
      </trkpt>
      <trkpt lat="41.769850" lon="-8.184617">
        <ele>651.0</ele>
        <time>2010-08-26T15:39:03Z</time>
      </trkpt>
      <trkpt lat="41.769867" lon="-8.184567">
        <ele>651.0</ele>
        <time>2010-08-26T15:39:04Z</time>
      </trkpt>
      <trkpt lat="41.769883" lon="-8.184500">
        <ele>651.0</ele>
        <time>2010-08-26T15:39:05Z</time>
      </trkpt>
      <trkpt lat="41.769900" lon="-8.184433">
        <ele>651.0</ele>
        <time>2010-08-26T15:39:06Z</time>
      </trkpt>
      <trkpt lat="41.769900" lon="-8.184367">
        <ele>651.0</ele>
        <time>2010-08-26T15:39:07Z</time>
      </trkpt>
      <trkpt lat="41.769883" lon="-8.184300">
        <ele>651.0</ele>
        <time>2010-08-26T15:39:08Z</time>
      </trkpt>
      <trkpt lat="41.769850" lon="-8.184217">
        <ele>650.0</ele>
        <time>2010-08-26T15:39:09Z</time>
      </trkpt>
      <trkpt lat="41.769833" lon="-8.184150">
        <ele>650.0</ele>
        <time>2010-08-26T15:39:10Z</time>
      </trkpt>
      <trkpt lat="41.769800" lon="-8.184067">
        <ele>650.0</ele>
        <time>2010-08-26T15:39:11Z</time>
      </trkpt>
      <trkpt lat="41.769800" lon="-8.183983">
        <ele>650.0</ele>
        <time>2010-08-26T15:39:12Z</time>
      </trkpt>
      <trkpt lat="41.769817" lon="-8.183900">
        <ele>650.0</ele>
        <time>2010-08-26T15:39:13Z</time>
      </trkpt>
      <trkpt lat="41.769833" lon="-8.183817">
        <ele>650.0</ele>
        <time>2010-08-26T15:39:14Z</time>
      </trkpt>
      <trkpt lat="41.769867" lon="-8.183733">
        <ele>650.0</ele>
        <time>2010-08-26T15:39:15Z</time>
      </trkpt>
      <trkpt lat="41.769900" lon="-8.183667">
        <ele>650.0</ele>
        <time>2010-08-26T15:39:16Z</time>
      </trkpt>
      <trkpt lat="41.769950" lon="-8.183617">
        <ele>650.0</ele>
        <time>2010-08-26T15:39:17Z</time>
      </trkpt>
      <trkpt lat="41.769983" lon="-8.183550">
        <ele>649.0</ele>
        <time>2010-08-26T15:39:18Z</time>
      </trkpt>
      <trkpt lat="41.770033" lon="-8.183500">
        <ele>649.0</ele>
        <time>2010-08-26T15:39:19Z</time>
      </trkpt>
      <trkpt lat="41.770083" lon="-8.183433">
        <ele>649.0</ele>
        <time>2010-08-26T15:39:20Z</time>
      </trkpt>
      <trkpt lat="41.770133" lon="-8.183383">
        <ele>649.0</ele>
        <time>2010-08-26T15:39:21Z</time>
      </trkpt>
      <trkpt lat="41.770183" lon="-8.183317">
        <ele>649.0</ele>
        <time>2010-08-26T15:39:22Z</time>
      </trkpt>
      <trkpt lat="41.770233" lon="-8.183250">
        <ele>648.0</ele>
        <time>2010-08-26T15:39:23Z</time>
      </trkpt>
      <trkpt lat="41.770283" lon="-8.183183">
        <ele>648.0</ele>
        <time>2010-08-26T15:39:24Z</time>
      </trkpt>
      <trkpt lat="41.770317" lon="-8.183100">
        <ele>648.0</ele>
        <time>2010-08-26T15:39:25Z</time>
      </trkpt>
      <trkpt lat="41.770350" lon="-8.183000">
        <ele>647.0</ele>
        <time>2010-08-26T15:39:26Z</time>
      </trkpt>
      <trkpt lat="41.770383" lon="-8.182917">
        <ele>647.0</ele>
        <time>2010-08-26T15:39:27Z</time>
      </trkpt>
      <trkpt lat="41.770417" lon="-8.182817">
        <ele>647.0</ele>
        <time>2010-08-26T15:39:28Z</time>
      </trkpt>
      <trkpt lat="41.770433" lon="-8.182717">
        <ele>646.0</ele>
        <time>2010-08-26T15:39:29Z</time>
      </trkpt>
      <trkpt lat="41.770467" lon="-8.182633">
        <ele>646.0</ele>
        <time>2010-08-26T15:39:30Z</time>
      </trkpt>
      <trkpt lat="41.770517" lon="-8.182533">
        <ele>646.0</ele>
        <time>2010-08-26T15:39:31Z</time>
      </trkpt>
      <trkpt lat="41.770567" lon="-8.182450">
        <ele>646.0</ele>
        <time>2010-08-26T15:39:32Z</time>
      </trkpt>
      <trkpt lat="41.770617" lon="-8.182383">
        <ele>645.0</ele>
        <time>2010-08-26T15:39:33Z</time>
      </trkpt>
      <trkpt lat="41.770683" lon="-8.182300">
        <ele>644.0</ele>
        <time>2010-08-26T15:39:34Z</time>
      </trkpt>
      <trkpt lat="41.770733" lon="-8.182233">
        <ele>644.0</ele>
        <time>2010-08-26T15:39:35Z</time>
      </trkpt>
      <trkpt lat="41.770783" lon="-8.182150">
        <ele>644.0</ele>
        <time>2010-08-26T15:39:36Z</time>
      </trkpt>
      <trkpt lat="41.770850" lon="-8.182067">
        <ele>643.0</ele>
        <time>2010-08-26T15:39:37Z</time>
      </trkpt>
      <trkpt lat="41.770900" lon="-8.182000">
        <ele>643.0</ele>
        <time>2010-08-26T15:39:38Z</time>
      </trkpt>
      <trkpt lat="41.770950" lon="-8.181917">
        <ele>643.0</ele>
        <time>2010-08-26T15:39:39Z</time>
      </trkpt>
      <trkpt lat="41.771000" lon="-8.181850">
        <ele>642.0</ele>
        <time>2010-08-26T15:39:40Z</time>
      </trkpt>
      <trkpt lat="41.771067" lon="-8.181783">
        <ele>642.0</ele>
        <time>2010-08-26T15:39:41Z</time>
      </trkpt>
      <trkpt lat="41.771117" lon="-8.181700">
        <ele>642.0</ele>
        <time>2010-08-26T15:39:42Z</time>
      </trkpt>
      <trkpt lat="41.771167" lon="-8.181617">
        <ele>642.0</ele>
        <time>2010-08-26T15:39:43Z</time>
      </trkpt>
      <trkpt lat="41.771217" lon="-8.181533">
        <ele>641.0</ele>
        <time>2010-08-26T15:39:44Z</time>
      </trkpt>
      <trkpt lat="41.771283" lon="-8.181450">
        <ele>641.0</ele>
        <time>2010-08-26T15:39:45Z</time>
      </trkpt>
      <trkpt lat="41.771333" lon="-8.181367">
        <ele>641.0</ele>
        <time>2010-08-26T15:39:46Z</time>
      </trkpt>
      <trkpt lat="41.771383" lon="-8.181283">
        <ele>641.0</ele>
        <time>2010-08-26T15:39:47Z</time>
      </trkpt>
      <trkpt lat="41.771450" lon="-8.181200">
        <ele>640.0</ele>
        <time>2010-08-26T15:39:48Z</time>
      </trkpt>
      <trkpt lat="41.771500" lon="-8.181100">
        <ele>640.0</ele>
        <time>2010-08-26T15:39:49Z</time>
      </trkpt>
      <trkpt lat="41.771550" lon="-8.181017">
        <ele>640.0</ele>
        <time>2010-08-26T15:39:50Z</time>
      </trkpt>
      <trkpt lat="41.771600" lon="-8.180933">
        <ele>639.0</ele>
        <time>2010-08-26T15:39:51Z</time>
      </trkpt>
      <trkpt lat="41.771650" lon="-8.180833">
        <ele>639.0</ele>
        <time>2010-08-26T15:39:52Z</time>
      </trkpt>
      <trkpt lat="41.771683" lon="-8.180750">
        <ele>639.0</ele>
        <time>2010-08-26T15:39:53Z</time>
      </trkpt>
      <trkpt lat="41.771733" lon="-8.180650">
        <ele>638.0</ele>
        <time>2010-08-26T15:39:54Z</time>
      </trkpt>
      <trkpt lat="41.771767" lon="-8.180567">
        <ele>638.0</ele>
        <time>2010-08-26T15:39:55Z</time>
      </trkpt>
      <trkpt lat="41.771800" lon="-8.180467">
        <ele>638.0</ele>
        <time>2010-08-26T15:39:56Z</time>
      </trkpt>
      <trkpt lat="41.771833" lon="-8.180367">
        <ele>638.0</ele>
        <time>2010-08-26T15:39:57Z</time>
      </trkpt>
      <trkpt lat="41.771850" lon="-8.180267">
        <ele>637.0</ele>
        <time>2010-08-26T15:39:58Z</time>
      </trkpt>
      <trkpt lat="41.771867" lon="-8.180167">
        <ele>637.0</ele>
        <time>2010-08-26T15:39:59Z</time>
      </trkpt>
      <trkpt lat="41.771883" lon="-8.180050">
        <ele>637.0</ele>
        <time>2010-08-26T15:40:00Z</time>
      </trkpt>
      <trkpt lat="41.771917" lon="-8.179950">
        <ele>636.0</ele>
        <time>2010-08-26T15:40:01Z</time>
      </trkpt>
      <trkpt lat="41.771933" lon="-8.179850">
        <ele>636.0</ele>
        <time>2010-08-26T15:40:02Z</time>
      </trkpt>
      <trkpt lat="41.771950" lon="-8.179750">
        <ele>636.0</ele>
        <time>2010-08-26T15:40:03Z</time>
      </trkpt>
      <trkpt lat="41.771983" lon="-8.179650">
        <ele>636.0</ele>
        <time>2010-08-26T15:40:04Z</time>
      </trkpt>
      <trkpt lat="41.772017" lon="-8.179567">
        <ele>635.0</ele>
        <time>2010-08-26T15:40:05Z</time>
      </trkpt>
      <trkpt lat="41.772050" lon="-8.179467">
        <ele>635.0</ele>
        <time>2010-08-26T15:40:06Z</time>
      </trkpt>
      <trkpt lat="41.772083" lon="-8.179383">
        <ele>635.0</ele>
        <time>2010-08-26T15:40:07Z</time>
      </trkpt>
      <trkpt lat="41.772117" lon="-8.179283">
        <ele>635.0</ele>
        <time>2010-08-26T15:40:08Z</time>
      </trkpt>
      <trkpt lat="41.772133" lon="-8.179183">
        <ele>634.0</ele>
        <time>2010-08-26T15:40:09Z</time>
      </trkpt>
      <trkpt lat="41.772167" lon="-8.179100">
        <ele>634.0</ele>
        <time>2010-08-26T15:40:10Z</time>
      </trkpt>
      <trkpt lat="41.772183" lon="-8.179000">
        <ele>634.0</ele>
        <time>2010-08-26T15:40:11Z</time>
      </trkpt>
      <trkpt lat="41.772217" lon="-8.178917">
        <ele>634.0</ele>
        <time>2010-08-26T15:40:12Z</time>
      </trkpt>
      <trkpt lat="41.772250" lon="-8.178817">
        <ele>633.0</ele>
        <time>2010-08-26T15:40:13Z</time>
      </trkpt>
      <trkpt lat="41.772267" lon="-8.178733">
        <ele>633.0</ele>
        <time>2010-08-26T15:40:14Z</time>
      </trkpt>
      <trkpt lat="41.772300" lon="-8.178633">
        <ele>633.0</ele>
        <time>2010-08-26T15:40:15Z</time>
      </trkpt>
      <trkpt lat="41.772317" lon="-8.178550">
        <ele>633.0</ele>
        <time>2010-08-26T15:40:16Z</time>
      </trkpt>
      <trkpt lat="41.772350" lon="-8.178450">
        <ele>632.0</ele>
        <time>2010-08-26T15:40:17Z</time>
      </trkpt>
      <trkpt lat="41.772367" lon="-8.178350">
        <ele>632.0</ele>
        <time>2010-08-26T15:40:18Z</time>
      </trkpt>
      <trkpt lat="41.772383" lon="-8.178250">
        <ele>632.0</ele>
        <time>2010-08-26T15:40:19Z</time>
      </trkpt>
      <trkpt lat="41.772400" lon="-8.178167">
        <ele>632.0</ele>
        <time>2010-08-26T15:40:20Z</time>
      </trkpt>
      <trkpt lat="41.772433" lon="-8.178067">
        <ele>631.0</ele>
        <time>2010-08-26T15:40:21Z</time>
      </trkpt>
      <trkpt lat="41.772450" lon="-8.177983">
        <ele>631.0</ele>
        <time>2010-08-26T15:40:22Z</time>
      </trkpt>
      <trkpt lat="41.772483" lon="-8.177883">
        <ele>631.0</ele>
        <time>2010-08-26T15:40:23Z</time>
      </trkpt>
      <trkpt lat="41.772517" lon="-8.177817">
        <ele>631.0</ele>
        <time>2010-08-26T15:40:24Z</time>
      </trkpt>
      <trkpt lat="41.772550" lon="-8.177733">
        <ele>630.0</ele>
        <time>2010-08-26T15:40:25Z</time>
      </trkpt>
      <trkpt lat="41.772600" lon="-8.177650">
        <ele>630.0</ele>
        <time>2010-08-26T15:40:26Z</time>
      </trkpt>
      <trkpt lat="41.772650" lon="-8.177567">
        <ele>630.0</ele>
        <time>2010-08-26T15:40:27Z</time>
      </trkpt>
      <trkpt lat="41.772683" lon="-8.177500">
        <ele>630.0</ele>
        <time>2010-08-26T15:40:28Z</time>
      </trkpt>
      <trkpt lat="41.772733" lon="-8.177417">
        <ele>629.0</ele>
        <time>2010-08-26T15:40:29Z</time>
      </trkpt>
      <trkpt lat="41.772767" lon="-8.177317">
        <ele>629.0</ele>
        <time>2010-08-26T15:40:30Z</time>
      </trkpt>
      <trkpt lat="41.772783" lon="-8.177217">
        <ele>629.0</ele>
        <time>2010-08-26T15:40:31Z</time>
      </trkpt>
      <trkpt lat="41.772817" lon="-8.177133">
        <ele>628.0</ele>
        <time>2010-08-26T15:40:32Z</time>
      </trkpt>
      <trkpt lat="41.772850" lon="-8.177033">
        <ele>628.0</ele>
        <time>2010-08-26T15:40:33Z</time>
      </trkpt>
      <trkpt lat="41.772867" lon="-8.176933">
        <ele>628.0</ele>
        <time>2010-08-26T15:40:34Z</time>
      </trkpt>
      <trkpt lat="41.772900" lon="-8.176833">
        <ele>627.0</ele>
        <time>2010-08-26T15:40:35Z</time>
      </trkpt>
      <trkpt lat="41.772933" lon="-8.176750">
        <ele>627.0</ele>
        <time>2010-08-26T15:40:36Z</time>
      </trkpt>
      <trkpt lat="41.772983" lon="-8.176667">
        <ele>627.0</ele>
        <time>2010-08-26T15:40:37Z</time>
      </trkpt>
      <trkpt lat="41.773017" lon="-8.176583">
        <ele>627.0</ele>
        <time>2010-08-26T15:40:38Z</time>
      </trkpt>
      <trkpt lat="41.773050" lon="-8.176500">
        <ele>626.0</ele>
        <time>2010-08-26T15:40:39Z</time>
      </trkpt>
      <trkpt lat="41.773100" lon="-8.176417">
        <ele>626.0</ele>
        <time>2010-08-26T15:40:40Z</time>
      </trkpt>
      <trkpt lat="41.773133" lon="-8.176333">
        <ele>626.0</ele>
        <time>2010-08-26T15:40:41Z</time>
      </trkpt>
      <trkpt lat="41.773167" lon="-8.176250">
        <ele>626.0</ele>
        <time>2010-08-26T15:40:42Z</time>
      </trkpt>
      <trkpt lat="41.773200" lon="-8.176167">
        <ele>626.0</ele>
        <time>2010-08-26T15:40:43Z</time>
      </trkpt>
      <trkpt lat="41.773233" lon="-8.176067">
        <ele>626.0</ele>
        <time>2010-08-26T15:40:44Z</time>
      </trkpt>
      <trkpt lat="41.773250" lon="-8.175983">
        <ele>626.0</ele>
        <time>2010-08-26T15:40:45Z</time>
      </trkpt>
      <trkpt lat="41.773267" lon="-8.175883">
        <ele>625.0</ele>
        <time>2010-08-26T15:40:46Z</time>
      </trkpt>
      <trkpt lat="41.773267" lon="-8.175800">
        <ele>625.0</ele>
        <time>2010-08-26T15:40:47Z</time>
      </trkpt>
      <trkpt lat="41.773267" lon="-8.175717">
        <ele>625.0</ele>
        <time>2010-08-26T15:40:48Z</time>
      </trkpt>
      <trkpt lat="41.773250" lon="-8.175617">
        <ele>625.0</ele>
        <time>2010-08-26T15:40:49Z</time>
      </trkpt>
      <trkpt lat="41.773233" lon="-8.175533">
        <ele>624.0</ele>
        <time>2010-08-26T15:40:50Z</time>
      </trkpt>
      <trkpt lat="41.773217" lon="-8.175450">
        <ele>624.0</ele>
        <time>2010-08-26T15:40:51Z</time>
      </trkpt>
      <trkpt lat="41.773183" lon="-8.175367">
        <ele>624.0</ele>
        <time>2010-08-26T15:40:52Z</time>
      </trkpt>
      <trkpt lat="41.773133" lon="-8.175300">
        <ele>623.0</ele>
        <time>2010-08-26T15:40:53Z</time>
      </trkpt>
      <trkpt lat="41.773083" lon="-8.175250">
        <ele>623.0</ele>
        <time>2010-08-26T15:40:54Z</time>
      </trkpt>
      <trkpt lat="41.773017" lon="-8.175217">
        <ele>622.0</ele>
        <time>2010-08-26T15:40:55Z</time>
      </trkpt>
      <trkpt lat="41.772950" lon="-8.175200">
        <ele>622.0</ele>
        <time>2010-08-26T15:40:56Z</time>
      </trkpt>
      <trkpt lat="41.772900" lon="-8.175200">
        <ele>622.0</ele>
        <time>2010-08-26T15:40:57Z</time>
      </trkpt>
      <trkpt lat="41.772850" lon="-8.175200">
        <ele>622.0</ele>
        <time>2010-08-26T15:40:58Z</time>
      </trkpt>
      <trkpt lat="41.772817" lon="-8.175200">
        <ele>620.0</ele>
        <time>2010-08-26T15:41:17Z</time>
      </trkpt>
      <trkpt lat="41.772783" lon="-8.175183">
        <ele>619.0</ele>
        <time>2010-08-26T15:41:20Z</time>
      </trkpt>
      <trkpt lat="41.772750" lon="-8.175183">
        <ele>619.0</ele>
        <time>2010-08-26T15:41:21Z</time>
      </trkpt>
      <trkpt lat="41.772717" lon="-8.175183">
        <ele>619.0</ele>
        <time>2010-08-26T15:41:22Z</time>
      </trkpt>
      <trkpt lat="41.772667" lon="-8.175183">
        <ele>619.0</ele>
        <time>2010-08-26T15:41:23Z</time>
      </trkpt>
      <trkpt lat="41.772633" lon="-8.175183">
        <ele>619.0</ele>
        <time>2010-08-26T15:41:24Z</time>
      </trkpt>
      <trkpt lat="41.772583" lon="-8.175183">
        <ele>619.0</ele>
        <time>2010-08-26T15:41:25Z</time>
      </trkpt>
      <trkpt lat="41.772550" lon="-8.175183">
        <ele>618.0</ele>
        <time>2010-08-26T15:41:26Z</time>
      </trkpt>
      <trkpt lat="41.772500" lon="-8.175183">
        <ele>618.0</ele>
        <time>2010-08-26T15:41:27Z</time>
      </trkpt>
      <trkpt lat="41.772450" lon="-8.175200">
        <ele>618.0</ele>
        <time>2010-08-26T15:41:28Z</time>
      </trkpt>
      <trkpt lat="41.772400" lon="-8.175200">
        <ele>618.0</ele>
        <time>2010-08-26T15:41:29Z</time>
      </trkpt>
      <trkpt lat="41.772350" lon="-8.175233">
        <ele>618.0</ele>
        <time>2010-08-26T15:41:30Z</time>
      </trkpt>
      <trkpt lat="41.772300" lon="-8.175250">
        <ele>618.0</ele>
        <time>2010-08-26T15:41:31Z</time>
      </trkpt>
      <trkpt lat="41.772250" lon="-8.175267">
        <ele>618.0</ele>
        <time>2010-08-26T15:41:32Z</time>
      </trkpt>
      <trkpt lat="41.772217" lon="-8.175283">
        <ele>618.0</ele>
        <time>2010-08-26T15:41:33Z</time>
      </trkpt>
      <trkpt lat="41.772167" lon="-8.175300">
        <ele>618.0</ele>
        <time>2010-08-26T15:41:34Z</time>
      </trkpt>
      <trkpt lat="41.772117" lon="-8.175300">
        <ele>618.0</ele>
        <time>2010-08-26T15:41:35Z</time>
      </trkpt>
      <trkpt lat="41.772067" lon="-8.175300">
        <ele>618.0</ele>
        <time>2010-08-26T15:41:36Z</time>
      </trkpt>
      <trkpt lat="41.772017" lon="-8.175300">
        <ele>618.0</ele>
        <time>2010-08-26T15:41:37Z</time>
      </trkpt>
      <trkpt lat="41.771967" lon="-8.175283">
        <ele>619.0</ele>
        <time>2010-08-26T15:41:38Z</time>
      </trkpt>
      <trkpt lat="41.771917" lon="-8.175250">
        <ele>618.0</ele>
        <time>2010-08-26T15:41:39Z</time>
      </trkpt>
      <trkpt lat="41.771883" lon="-8.175217">
        <ele>618.0</ele>
        <time>2010-08-26T15:41:40Z</time>
      </trkpt>
      <trkpt lat="41.771850" lon="-8.175150">
        <ele>618.0</ele>
        <time>2010-08-26T15:41:41Z</time>
      </trkpt>
      <trkpt lat="41.771817" lon="-8.175100">
        <ele>618.0</ele>
        <time>2010-08-26T15:41:42Z</time>
      </trkpt>
      <trkpt lat="41.771817" lon="-8.175033">
        <ele>618.0</ele>
        <time>2010-08-26T15:41:43Z</time>
      </trkpt>
      <trkpt lat="41.771817" lon="-8.174967">
        <ele>618.0</ele>
        <time>2010-08-26T15:41:44Z</time>
      </trkpt>
      <trkpt lat="41.771833" lon="-8.174900">
        <ele>618.0</ele>
        <time>2010-08-26T15:41:45Z</time>
      </trkpt>
      <trkpt lat="41.771867" lon="-8.174833">
        <ele>617.0</ele>
        <time>2010-08-26T15:41:46Z</time>
      </trkpt>
      <trkpt lat="41.771900" lon="-8.174783">
        <ele>617.0</ele>
        <time>2010-08-26T15:41:47Z</time>
      </trkpt>
      <trkpt lat="41.771967" lon="-8.174750">
        <ele>617.0</ele>
        <time>2010-08-26T15:41:48Z</time>
      </trkpt>
      <trkpt lat="41.772017" lon="-8.174700">
        <ele>617.0</ele>
        <time>2010-08-26T15:41:49Z</time>
      </trkpt>
      <trkpt lat="41.772083" lon="-8.174667">
        <ele>616.0</ele>
        <time>2010-08-26T15:41:50Z</time>
      </trkpt>
      <trkpt lat="41.772150" lon="-8.174617">
        <ele>616.0</ele>
        <time>2010-08-26T15:41:51Z</time>
      </trkpt>
      <trkpt lat="41.772233" lon="-8.174583">
        <ele>615.0</ele>
        <time>2010-08-26T15:41:52Z</time>
      </trkpt>
      <trkpt lat="41.772300" lon="-8.174533">
        <ele>615.0</ele>
        <time>2010-08-26T15:41:53Z</time>
      </trkpt>
      <trkpt lat="41.772383" lon="-8.174483">
        <ele>614.0</ele>
        <time>2010-08-26T15:41:54Z</time>
      </trkpt>
      <trkpt lat="41.772467" lon="-8.174433">
        <ele>613.0</ele>
        <time>2010-08-26T15:41:55Z</time>
      </trkpt>
      <trkpt lat="41.772533" lon="-8.174367">
        <ele>612.0</ele>
        <time>2010-08-26T15:41:56Z</time>
      </trkpt>
      <trkpt lat="41.772583" lon="-8.174300">
        <ele>611.0</ele>
        <time>2010-08-26T15:41:57Z</time>
      </trkpt>
      <trkpt lat="41.772633" lon="-8.174233">
        <ele>610.0</ele>
        <time>2010-08-26T15:41:58Z</time>
      </trkpt>
      <trkpt lat="41.772650" lon="-8.174133">
        <ele>610.0</ele>
        <time>2010-08-26T15:41:59Z</time>
      </trkpt>
      <trkpt lat="41.772650" lon="-8.174033">
        <ele>609.0</ele>
        <time>2010-08-26T15:42:00Z</time>
      </trkpt>
      <trkpt lat="41.772633" lon="-8.173933">
        <ele>608.0</ele>
        <time>2010-08-26T15:42:01Z</time>
      </trkpt>
      <trkpt lat="41.772633" lon="-8.173817">
        <ele>608.0</ele>
        <time>2010-08-26T15:42:02Z</time>
      </trkpt>
      <trkpt lat="41.772650" lon="-8.173717">
        <ele>607.0</ele>
        <time>2010-08-26T15:42:03Z</time>
      </trkpt>
      <trkpt lat="41.772667" lon="-8.173633">
        <ele>606.0</ele>
        <time>2010-08-26T15:42:04Z</time>
      </trkpt>
      <trkpt lat="41.772717" lon="-8.173567">
        <ele>606.0</ele>
        <time>2010-08-26T15:42:05Z</time>
      </trkpt>
      <trkpt lat="41.772783" lon="-8.173533">
        <ele>605.0</ele>
        <time>2010-08-26T15:42:06Z</time>
      </trkpt>
      <trkpt lat="41.772833" lon="-8.173533">
        <ele>605.0</ele>
        <time>2010-08-26T15:42:07Z</time>
      </trkpt>
      <trkpt lat="41.772900" lon="-8.173517">
        <ele>605.0</ele>
        <time>2010-08-26T15:42:08Z</time>
      </trkpt>
      <trkpt lat="41.772967" lon="-8.173533">
        <ele>604.0</ele>
        <time>2010-08-26T15:42:09Z</time>
      </trkpt>
      <trkpt lat="41.773017" lon="-8.173533">
        <ele>604.0</ele>
        <time>2010-08-26T15:42:10Z</time>
      </trkpt>
      <trkpt lat="41.773067" lon="-8.173533">
        <ele>604.0</ele>
        <time>2010-08-26T15:42:11Z</time>
      </trkpt>
      <trkpt lat="41.773133" lon="-8.173533">
        <ele>603.0</ele>
        <time>2010-08-26T15:42:12Z</time>
      </trkpt>
      <trkpt lat="41.773183" lon="-8.173517">
        <ele>603.0</ele>
        <time>2010-08-26T15:42:13Z</time>
      </trkpt>
      <trkpt lat="41.773250" lon="-8.173500">
        <ele>603.0</ele>
        <time>2010-08-26T15:42:14Z</time>
      </trkpt>
      <trkpt lat="41.773300" lon="-8.173483">
        <ele>602.0</ele>
        <time>2010-08-26T15:42:15Z</time>
      </trkpt>
      <trkpt lat="41.773367" lon="-8.173483">
        <ele>602.0</ele>
        <time>2010-08-26T15:42:16Z</time>
      </trkpt>
      <trkpt lat="41.773417" lon="-8.173467">
        <ele>602.0</ele>
        <time>2010-08-26T15:42:17Z</time>
      </trkpt>
      <trkpt lat="41.773467" lon="-8.173450">
        <ele>602.0</ele>
        <time>2010-08-26T15:42:18Z</time>
      </trkpt>
      <trkpt lat="41.773533" lon="-8.173450">
        <ele>601.0</ele>
        <time>2010-08-26T15:42:19Z</time>
      </trkpt>
      <trkpt lat="41.773583" lon="-8.173433">
        <ele>601.0</ele>
        <time>2010-08-26T15:42:20Z</time>
      </trkpt>
      <trkpt lat="41.773633" lon="-8.173433">
        <ele>601.0</ele>
        <time>2010-08-26T15:42:21Z</time>
      </trkpt>
      <trkpt lat="41.773683" lon="-8.173433">
        <ele>601.0</ele>
        <time>2010-08-26T15:42:22Z</time>
      </trkpt>
      <trkpt lat="41.773733" lon="-8.173417">
        <ele>601.0</ele>
        <time>2010-08-26T15:42:23Z</time>
      </trkpt>
      <trkpt lat="41.773767" lon="-8.173417">
        <ele>600.0</ele>
        <time>2010-08-26T15:42:24Z</time>
      </trkpt>
      <trkpt lat="41.773817" lon="-8.173400">
        <ele>600.0</ele>
        <time>2010-08-26T15:42:25Z</time>
      </trkpt>
      <trkpt lat="41.773850" lon="-8.173400">
        <ele>600.0</ele>
        <time>2010-08-26T15:42:26Z</time>
      </trkpt>
      <trkpt lat="41.773883" lon="-8.173400">
        <ele>600.0</ele>
        <time>2010-08-26T15:42:27Z</time>
      </trkpt>
      <trkpt lat="41.773917" lon="-8.173400">
        <ele>600.0</ele>
        <time>2010-08-26T15:42:28Z</time>
      </trkpt>
      <trkpt lat="41.773950" lon="-8.173383">
        <ele>600.0</ele>
        <time>2010-08-26T15:42:29Z</time>
      </trkpt>
      <trkpt lat="41.773983" lon="-8.173383">
        <ele>600.0</ele>
        <time>2010-08-26T15:42:30Z</time>
      </trkpt>
      <trkpt lat="41.774017" lon="-8.173367">
        <ele>600.0</ele>
        <time>2010-08-26T15:42:31Z</time>
      </trkpt>
      <trkpt lat="41.774067" lon="-8.173367">
        <ele>600.0</ele>
        <time>2010-08-26T15:42:32Z</time>
      </trkpt>
      <trkpt lat="41.774100" lon="-8.173350">
        <ele>600.0</ele>
        <time>2010-08-26T15:42:33Z</time>
      </trkpt>
      <trkpt lat="41.774150" lon="-8.173350">
        <ele>600.0</ele>
        <time>2010-08-26T15:42:34Z</time>
      </trkpt>
      <trkpt lat="41.774200" lon="-8.173333">
        <ele>600.0</ele>
        <time>2010-08-26T15:42:35Z</time>
      </trkpt>
      <trkpt lat="41.774250" lon="-8.173317">
        <ele>601.0</ele>
        <time>2010-08-26T15:42:36Z</time>
      </trkpt>
      <trkpt lat="41.774300" lon="-8.173283">
        <ele>601.0</ele>
        <time>2010-08-26T15:42:37Z</time>
      </trkpt>
      <trkpt lat="41.774350" lon="-8.173250">
        <ele>600.0</ele>
        <time>2010-08-26T15:42:38Z</time>
      </trkpt>
      <trkpt lat="41.774400" lon="-8.173217">
        <ele>600.0</ele>
        <time>2010-08-26T15:42:39Z</time>
      </trkpt>
      <trkpt lat="41.774450" lon="-8.173150">
        <ele>600.0</ele>
        <time>2010-08-26T15:42:40Z</time>
      </trkpt>
      <trkpt lat="41.774500" lon="-8.173100">
        <ele>600.0</ele>
        <time>2010-08-26T15:42:41Z</time>
      </trkpt>
      <trkpt lat="41.774567" lon="-8.173050">
        <ele>600.0</ele>
        <time>2010-08-26T15:42:42Z</time>
      </trkpt>
      <trkpt lat="41.774633" lon="-8.172983">
        <ele>599.0</ele>
        <time>2010-08-26T15:42:43Z</time>
      </trkpt>
      <trkpt lat="41.774700" lon="-8.172917">
        <ele>599.0</ele>
        <time>2010-08-26T15:42:44Z</time>
      </trkpt>
      <trkpt lat="41.774767" lon="-8.172867">
        <ele>598.0</ele>
        <time>2010-08-26T15:42:45Z</time>
      </trkpt>
      <trkpt lat="41.774833" lon="-8.172800">
        <ele>598.0</ele>
        <time>2010-08-26T15:42:46Z</time>
      </trkpt>
      <trkpt lat="41.774917" lon="-8.172733">
        <ele>598.0</ele>
        <time>2010-08-26T15:42:47Z</time>
      </trkpt>
      <trkpt lat="41.774983" lon="-8.172683">
        <ele>598.0</ele>
        <time>2010-08-26T15:42:48Z</time>
      </trkpt>
      <trkpt lat="41.775050" lon="-8.172617">
        <ele>597.0</ele>
        <time>2010-08-26T15:42:49Z</time>
      </trkpt>
      <trkpt lat="41.775117" lon="-8.172567">
        <ele>597.0</ele>
        <time>2010-08-26T15:42:50Z</time>
      </trkpt>
      <trkpt lat="41.775183" lon="-8.172517">
        <ele>597.0</ele>
        <time>2010-08-26T15:42:51Z</time>
      </trkpt>
      <trkpt lat="41.775233" lon="-8.172450">
        <ele>596.0</ele>
        <time>2010-08-26T15:42:52Z</time>
      </trkpt>
      <trkpt lat="41.775300" lon="-8.172400">
        <ele>596.0</ele>
        <time>2010-08-26T15:42:53Z</time>
      </trkpt>
      <trkpt lat="41.775350" lon="-8.172367">
        <ele>596.0</ele>
        <time>2010-08-26T15:42:54Z</time>
      </trkpt>
      <trkpt lat="41.775400" lon="-8.172317">
        <ele>596.0</ele>
        <time>2010-08-26T15:42:55Z</time>
      </trkpt>
      <trkpt lat="41.775467" lon="-8.172267">
        <ele>596.0</ele>
        <time>2010-08-26T15:42:56Z</time>
      </trkpt>
      <trkpt lat="41.775500" lon="-8.172217">
        <ele>596.0</ele>
        <time>2010-08-26T15:42:57Z</time>
      </trkpt>
      <trkpt lat="41.775550" lon="-8.172150">
        <ele>596.0</ele>
        <time>2010-08-26T15:42:58Z</time>
      </trkpt>
      <trkpt lat="41.775583" lon="-8.172100">
        <ele>596.0</ele>
        <time>2010-08-26T15:42:59Z</time>
      </trkpt>
      <trkpt lat="41.775617" lon="-8.172033">
        <ele>596.0</ele>
        <time>2010-08-26T15:43:00Z</time>
      </trkpt>
      <trkpt lat="41.775650" lon="-8.171983">
        <ele>596.0</ele>
        <time>2010-08-26T15:43:01Z</time>
      </trkpt>
      <trkpt lat="41.775683" lon="-8.171933">
        <ele>596.0</ele>
        <time>2010-08-26T15:43:03Z</time>
      </trkpt>
      <trkpt lat="41.775700" lon="-8.171883">
        <ele>598.0</ele>
        <time>2010-08-26T15:43:29Z</time>
      </trkpt>
      <trkpt lat="41.775700" lon="-8.171867">
        <ele>598.0</ele>
        <time>2010-08-26T15:43:30Z</time>
      </trkpt>
      <trkpt lat="41.775733" lon="-8.171850">
        <ele>598.0</ele>
        <time>2010-08-26T15:43:31Z</time>
      </trkpt>
      <trkpt lat="41.775750" lon="-8.171817">
        <ele>598.0</ele>
        <time>2010-08-26T15:43:32Z</time>
      </trkpt>
      <trkpt lat="41.775783" lon="-8.171767">
        <ele>599.0</ele>
        <time>2010-08-26T15:43:33Z</time>
      </trkpt>
      <trkpt lat="41.775817" lon="-8.171733">
        <ele>599.0</ele>
        <time>2010-08-26T15:43:34Z</time>
      </trkpt>
      <trkpt lat="41.775867" lon="-8.171667">
        <ele>599.0</ele>
        <time>2010-08-26T15:43:35Z</time>
      </trkpt>
      <trkpt lat="41.775917" lon="-8.171600">
        <ele>599.0</ele>
        <time>2010-08-26T15:43:36Z</time>
      </trkpt>
      <trkpt lat="41.775983" lon="-8.171550">
        <ele>599.0</ele>
        <time>2010-08-26T15:43:37Z</time>
      </trkpt>
      <trkpt lat="41.776050" lon="-8.171483">
        <ele>598.0</ele>
        <time>2010-08-26T15:43:38Z</time>
      </trkpt>
      <trkpt lat="41.776117" lon="-8.171417">
        <ele>598.0</ele>
        <time>2010-08-26T15:43:39Z</time>
      </trkpt>
      <trkpt lat="41.776183" lon="-8.171333">
        <ele>598.0</ele>
        <time>2010-08-26T15:43:40Z</time>
      </trkpt>
      <trkpt lat="41.776267" lon="-8.171250">
        <ele>597.0</ele>
        <time>2010-08-26T15:43:41Z</time>
      </trkpt>
      <trkpt lat="41.776350" lon="-8.171183">
        <ele>597.0</ele>
        <time>2010-08-26T15:43:42Z</time>
      </trkpt>
      <trkpt lat="41.776433" lon="-8.171117">
        <ele>596.0</ele>
        <time>2010-08-26T15:43:43Z</time>
      </trkpt>
      <trkpt lat="41.776517" lon="-8.171083">
        <ele>596.0</ele>
        <time>2010-08-26T15:43:44Z</time>
      </trkpt>
      <trkpt lat="41.776600" lon="-8.171067">
        <ele>596.0</ele>
        <time>2010-08-26T15:43:45Z</time>
      </trkpt>
      <trkpt lat="41.776683" lon="-8.171083">
        <ele>596.0</ele>
        <time>2010-08-26T15:43:46Z</time>
      </trkpt>
      <trkpt lat="41.776750" lon="-8.171100">
        <ele>596.0</ele>
        <time>2010-08-26T15:43:47Z</time>
      </trkpt>
      <trkpt lat="41.776833" lon="-8.171133">
        <ele>595.0</ele>
        <time>2010-08-26T15:43:48Z</time>
      </trkpt>
      <trkpt lat="41.776900" lon="-8.171167">
        <ele>595.0</ele>
        <time>2010-08-26T15:43:49Z</time>
      </trkpt>
      <trkpt lat="41.776983" lon="-8.171200">
        <ele>595.0</ele>
        <time>2010-08-26T15:43:50Z</time>
      </trkpt>
      <trkpt lat="41.777050" lon="-8.171217">
        <ele>595.0</ele>
        <time>2010-08-26T15:43:51Z</time>
      </trkpt>
      <trkpt lat="41.777117" lon="-8.171233">
        <ele>595.0</ele>
        <time>2010-08-26T15:43:52Z</time>
      </trkpt>
      <trkpt lat="41.777183" lon="-8.171233">
        <ele>595.0</ele>
        <time>2010-08-26T15:43:53Z</time>
      </trkpt>
      <trkpt lat="41.777250" lon="-8.171233">
        <ele>595.0</ele>
        <time>2010-08-26T15:43:54Z</time>
      </trkpt>
      <trkpt lat="41.777317" lon="-8.171217">
        <ele>595.0</ele>
        <time>2010-08-26T15:43:55Z</time>
      </trkpt>
      <trkpt lat="41.777383" lon="-8.171217">
        <ele>595.0</ele>
        <time>2010-08-26T15:43:56Z</time>
      </trkpt>
      <trkpt lat="41.777433" lon="-8.171200">
        <ele>595.0</ele>
        <time>2010-08-26T15:43:57Z</time>
      </trkpt>
      <trkpt lat="41.777500" lon="-8.171183">
        <ele>595.0</ele>
        <time>2010-08-26T15:43:58Z</time>
      </trkpt>
      <trkpt lat="41.777550" lon="-8.171167">
        <ele>594.0</ele>
        <time>2010-08-26T15:43:59Z</time>
      </trkpt>
      <trkpt lat="41.777617" lon="-8.171150">
        <ele>594.0</ele>
        <time>2010-08-26T15:44:00Z</time>
      </trkpt>
      <trkpt lat="41.777683" lon="-8.171133">
        <ele>594.0</ele>
        <time>2010-08-26T15:44:01Z</time>
      </trkpt>
      <trkpt lat="41.777750" lon="-8.171117">
        <ele>594.0</ele>
        <time>2010-08-26T15:44:02Z</time>
      </trkpt>
      <trkpt lat="41.777800" lon="-8.171100">
        <ele>593.0</ele>
        <time>2010-08-26T15:44:03Z</time>
      </trkpt>
      <trkpt lat="41.777867" lon="-8.171100">
        <ele>593.0</ele>
        <time>2010-08-26T15:44:04Z</time>
      </trkpt>
      <trkpt lat="41.777933" lon="-8.171083">
        <ele>593.0</ele>
        <time>2010-08-26T15:44:05Z</time>
      </trkpt>
      <trkpt lat="41.778000" lon="-8.171067">
        <ele>592.0</ele>
        <time>2010-08-26T15:44:06Z</time>
      </trkpt>
      <trkpt lat="41.778050" lon="-8.171050">
        <ele>592.0</ele>
        <time>2010-08-26T15:44:07Z</time>
      </trkpt>
      <trkpt lat="41.778117" lon="-8.171033">
        <ele>592.0</ele>
        <time>2010-08-26T15:44:08Z</time>
      </trkpt>
      <trkpt lat="41.778183" lon="-8.171017">
        <ele>591.0</ele>
        <time>2010-08-26T15:44:09Z</time>
      </trkpt>
      <trkpt lat="41.778250" lon="-8.171000">
        <ele>591.0</ele>
        <time>2010-08-26T15:44:10Z</time>
      </trkpt>
      <trkpt lat="41.778300" lon="-8.170983">
        <ele>590.0</ele>
        <time>2010-08-26T15:44:11Z</time>
      </trkpt>
      <trkpt lat="41.778367" lon="-8.170967">
        <ele>590.0</ele>
        <time>2010-08-26T15:44:12Z</time>
      </trkpt>
      <trkpt lat="41.778433" lon="-8.170950">
        <ele>590.0</ele>
        <time>2010-08-26T15:44:13Z</time>
      </trkpt>
      <trkpt lat="41.778500" lon="-8.170917">
        <ele>589.0</ele>
        <time>2010-08-26T15:44:14Z</time>
      </trkpt>
      <trkpt lat="41.778567" lon="-8.170883">
        <ele>589.0</ele>
        <time>2010-08-26T15:44:15Z</time>
      </trkpt>
      <trkpt lat="41.778633" lon="-8.170850">
        <ele>588.0</ele>
        <time>2010-08-26T15:44:16Z</time>
      </trkpt>
      <trkpt lat="41.778683" lon="-8.170817">
        <ele>588.0</ele>
        <time>2010-08-26T15:44:17Z</time>
      </trkpt>
      <trkpt lat="41.778750" lon="-8.170800">
        <ele>588.0</ele>
        <time>2010-08-26T15:44:18Z</time>
      </trkpt>
      <trkpt lat="41.778817" lon="-8.170783">
        <ele>588.0</ele>
        <time>2010-08-26T15:44:19Z</time>
      </trkpt>
      <trkpt lat="41.778867" lon="-8.170750">
        <ele>588.0</ele>
        <time>2010-08-26T15:44:20Z</time>
      </trkpt>
      <trkpt lat="41.778917" lon="-8.170717">
        <ele>588.0</ele>
        <time>2010-08-26T15:44:21Z</time>
      </trkpt>
      <trkpt lat="41.778967" lon="-8.170683">
        <ele>588.0</ele>
        <time>2010-08-26T15:44:22Z</time>
      </trkpt>
      <trkpt lat="41.779000" lon="-8.170633">
        <ele>588.0</ele>
        <time>2010-08-26T15:44:23Z</time>
      </trkpt>
      <trkpt lat="41.779050" lon="-8.170583">
        <ele>588.0</ele>
        <time>2010-08-26T15:44:24Z</time>
      </trkpt>
      <trkpt lat="41.779083" lon="-8.170533">
        <ele>587.0</ele>
        <time>2010-08-26T15:44:25Z</time>
      </trkpt>
      <trkpt lat="41.779100" lon="-8.170467">
        <ele>587.0</ele>
        <time>2010-08-26T15:44:26Z</time>
      </trkpt>
      <trkpt lat="41.779117" lon="-8.170400">
        <ele>587.0</ele>
        <time>2010-08-26T15:44:27Z</time>
      </trkpt>
      <trkpt lat="41.779133" lon="-8.170333">
        <ele>587.0</ele>
        <time>2010-08-26T15:44:28Z</time>
      </trkpt>
      <trkpt lat="41.779133" lon="-8.170283">
        <ele>587.0</ele>
        <time>2010-08-26T15:44:29Z</time>
      </trkpt>
      <trkpt lat="41.779133" lon="-8.170217">
        <ele>587.0</ele>
        <time>2010-08-26T15:44:30Z</time>
      </trkpt>
      <trkpt lat="41.779150" lon="-8.170150">
        <ele>587.0</ele>
        <time>2010-08-26T15:44:31Z</time>
      </trkpt>
      <trkpt lat="41.779150" lon="-8.170100">
        <ele>587.0</ele>
        <time>2010-08-26T15:44:32Z</time>
      </trkpt>
      <trkpt lat="41.779167" lon="-8.170033">
        <ele>587.0</ele>
        <time>2010-08-26T15:44:33Z</time>
      </trkpt>
      <trkpt lat="41.779183" lon="-8.169967">
        <ele>587.0</ele>
        <time>2010-08-26T15:44:34Z</time>
      </trkpt>
      <trkpt lat="41.779200" lon="-8.169917">
        <ele>587.0</ele>
        <time>2010-08-26T15:44:35Z</time>
      </trkpt>
      <trkpt lat="41.779217" lon="-8.169867">
        <ele>587.0</ele>
        <time>2010-08-26T15:44:36Z</time>
      </trkpt>
      <trkpt lat="41.779233" lon="-8.169817">
        <ele>587.0</ele>
        <time>2010-08-26T15:44:37Z</time>
      </trkpt>
      <trkpt lat="41.779267" lon="-8.169783">
        <ele>586.0</ele>
        <time>2010-08-26T15:44:38Z</time>
      </trkpt>
      <trkpt lat="41.779317" lon="-8.169733">
        <ele>586.0</ele>
        <time>2010-08-26T15:44:39Z</time>
      </trkpt>
      <trkpt lat="41.779350" lon="-8.169700">
        <ele>586.0</ele>
        <time>2010-08-26T15:44:40Z</time>
      </trkpt>
      <trkpt lat="41.779383" lon="-8.169683">
        <ele>586.0</ele>
        <time>2010-08-26T15:44:41Z</time>
      </trkpt>
      <trkpt lat="41.779417" lon="-8.169667">
        <ele>587.0</ele>
        <time>2010-08-26T15:44:42Z</time>
      </trkpt>
      <trkpt lat="41.779467" lon="-8.169650">
        <ele>587.0</ele>
        <time>2010-08-26T15:44:43Z</time>
      </trkpt>
      <trkpt lat="41.779500" lon="-8.169633">
        <ele>587.0</ele>
        <time>2010-08-26T15:44:44Z</time>
      </trkpt>
      <trkpt lat="41.779550" lon="-8.169617">
        <ele>588.0</ele>
        <time>2010-08-26T15:44:45Z</time>
      </trkpt>
      <trkpt lat="41.779583" lon="-8.169567">
        <ele>588.0</ele>
        <time>2010-08-26T15:44:46Z</time>
      </trkpt>
      <trkpt lat="41.779600" lon="-8.169500">
        <ele>588.0</ele>
        <time>2010-08-26T15:44:47Z</time>
      </trkpt>
      <trkpt lat="41.779617" lon="-8.169450">
        <ele>588.0</ele>
        <time>2010-08-26T15:44:48Z</time>
      </trkpt>
      <trkpt lat="41.779633" lon="-8.169383">
        <ele>589.0</ele>
        <time>2010-08-26T15:44:49Z</time>
      </trkpt>
      <trkpt lat="41.779633" lon="-8.169317">
        <ele>589.0</ele>
        <time>2010-08-26T15:44:50Z</time>
      </trkpt>
      <trkpt lat="41.779633" lon="-8.169267">
        <ele>589.0</ele>
        <time>2010-08-26T15:44:51Z</time>
      </trkpt>
      <trkpt lat="41.779633" lon="-8.169200">
        <ele>589.0</ele>
        <time>2010-08-26T15:44:52Z</time>
      </trkpt>
      <trkpt lat="41.779633" lon="-8.169150">
        <ele>589.0</ele>
        <time>2010-08-26T15:44:53Z</time>
      </trkpt>
      <trkpt lat="41.779650" lon="-8.169083">
        <ele>589.0</ele>
        <time>2010-08-26T15:44:54Z</time>
      </trkpt>
      <trkpt lat="41.779650" lon="-8.169017">
        <ele>590.0</ele>
        <time>2010-08-26T15:44:55Z</time>
      </trkpt>
      <trkpt lat="41.779650" lon="-8.168950">
        <ele>590.0</ele>
        <time>2010-08-26T15:44:56Z</time>
      </trkpt>
      <trkpt lat="41.779650" lon="-8.168883">
        <ele>590.0</ele>
        <time>2010-08-26T15:44:57Z</time>
      </trkpt>
      <trkpt lat="41.779667" lon="-8.168800">
        <ele>590.0</ele>
        <time>2010-08-26T15:44:58Z</time>
      </trkpt>
      <trkpt lat="41.779700" lon="-8.168750">
        <ele>590.0</ele>
        <time>2010-08-26T15:44:59Z</time>
      </trkpt>
      <trkpt lat="41.779733" lon="-8.168717">
        <ele>590.0</ele>
        <time>2010-08-26T15:45:00Z</time>
      </trkpt>
      <trkpt lat="41.779767" lon="-8.168683">
        <ele>590.0</ele>
        <time>2010-08-26T15:45:01Z</time>
      </trkpt>
      <trkpt lat="41.779800" lon="-8.168650">
        <ele>590.0</ele>
        <time>2010-08-26T15:45:02Z</time>
      </trkpt>
      <trkpt lat="41.779817" lon="-8.168633">
        <ele>590.0</ele>
        <time>2010-08-26T15:45:03Z</time>
      </trkpt>
      <trkpt lat="41.779867" lon="-8.168600">
        <ele>589.0</ele>
        <time>2010-08-26T15:45:04Z</time>
      </trkpt>
      <trkpt lat="41.779900" lon="-8.168567">
        <ele>589.0</ele>
        <time>2010-08-26T15:45:05Z</time>
      </trkpt>
      <trkpt lat="41.779933" lon="-8.168533">
        <ele>589.0</ele>
        <time>2010-08-26T15:45:06Z</time>
      </trkpt>
      <trkpt lat="41.779967" lon="-8.168500">
        <ele>589.0</ele>
        <time>2010-08-26T15:45:07Z</time>
      </trkpt>
      <trkpt lat="41.780000" lon="-8.168467">
        <ele>589.0</ele>
        <time>2010-08-26T15:45:08Z</time>
      </trkpt>
      <trkpt lat="41.780033" lon="-8.168417">
        <ele>589.0</ele>
        <time>2010-08-26T15:45:09Z</time>
      </trkpt>
      <trkpt lat="41.780083" lon="-8.168383">
        <ele>589.0</ele>
        <time>2010-08-26T15:45:10Z</time>
      </trkpt>
      <trkpt lat="41.780117" lon="-8.168350">
        <ele>589.0</ele>
        <time>2010-08-26T15:45:11Z</time>
      </trkpt>
      <trkpt lat="41.780150" lon="-8.168300">
        <ele>589.0</ele>
        <time>2010-08-26T15:45:12Z</time>
      </trkpt>
      <trkpt lat="41.780183" lon="-8.168267">
        <ele>589.0</ele>
        <time>2010-08-26T15:45:13Z</time>
      </trkpt>
      <trkpt lat="41.780217" lon="-8.168233">
        <ele>588.0</ele>
        <time>2010-08-26T15:45:14Z</time>
      </trkpt>
      <trkpt lat="41.780250" lon="-8.168200">
        <ele>588.0</ele>
        <time>2010-08-26T15:45:15Z</time>
      </trkpt>
      <trkpt lat="41.780300" lon="-8.168167">
        <ele>588.0</ele>
        <time>2010-08-26T15:45:16Z</time>
      </trkpt>
      <trkpt lat="41.780333" lon="-8.168150">
        <ele>588.0</ele>
        <time>2010-08-26T15:45:17Z</time>
      </trkpt>
      <trkpt lat="41.780367" lon="-8.168117">
        <ele>588.0</ele>
        <time>2010-08-26T15:45:18Z</time>
      </trkpt>
      <trkpt lat="41.780400" lon="-8.168100">
        <ele>588.0</ele>
        <time>2010-08-26T15:45:19Z</time>
      </trkpt>
      <trkpt lat="41.780450" lon="-8.168083">
        <ele>589.0</ele>
        <time>2010-08-26T15:45:20Z</time>
      </trkpt>
      <trkpt lat="41.780483" lon="-8.168067">
        <ele>589.0</ele>
        <time>2010-08-26T15:45:21Z</time>
      </trkpt>
      <trkpt lat="41.780517" lon="-8.168033">
        <ele>589.0</ele>
        <time>2010-08-26T15:45:22Z</time>
      </trkpt>
      <trkpt lat="41.780550" lon="-8.168017">
        <ele>589.0</ele>
        <time>2010-08-26T15:45:23Z</time>
      </trkpt>
      <trkpt lat="41.780600" lon="-8.167983">
        <ele>589.0</ele>
        <time>2010-08-26T15:45:24Z</time>
      </trkpt>
      <trkpt lat="41.780633" lon="-8.167950">
        <ele>589.0</ele>
        <time>2010-08-26T15:45:25Z</time>
      </trkpt>
      <trkpt lat="41.780667" lon="-8.167917">
        <ele>589.0</ele>
        <time>2010-08-26T15:45:26Z</time>
      </trkpt>
      <trkpt lat="41.780700" lon="-8.167883">
        <ele>590.0</ele>
        <time>2010-08-26T15:45:27Z</time>
      </trkpt>
      <trkpt lat="41.780733" lon="-8.167850">
        <ele>590.0</ele>
        <time>2010-08-26T15:45:28Z</time>
      </trkpt>
      <trkpt lat="41.780767" lon="-8.167817">
        <ele>590.0</ele>
        <time>2010-08-26T15:45:29Z</time>
      </trkpt>
      <trkpt lat="41.780800" lon="-8.167800">
        <ele>590.0</ele>
        <time>2010-08-26T15:45:30Z</time>
      </trkpt>
      <trkpt lat="41.780833" lon="-8.167767">
        <ele>590.0</ele>
        <time>2010-08-26T15:45:31Z</time>
      </trkpt>
      <trkpt lat="41.780850" lon="-8.167750">
        <ele>591.0</ele>
        <time>2010-08-26T15:45:32Z</time>
      </trkpt>
      <trkpt lat="41.780883" lon="-8.167750">
        <ele>591.0</ele>
        <time>2010-08-26T15:45:33Z</time>
      </trkpt>
      <trkpt lat="41.780933" lon="-8.167733">
        <ele>592.0</ele>
        <time>2010-08-26T15:45:34Z</time>
      </trkpt>
      <trkpt lat="41.780950" lon="-8.167733">
        <ele>592.0</ele>
        <time>2010-08-26T15:45:35Z</time>
      </trkpt>
      <trkpt lat="41.780983" lon="-8.167717">
        <ele>592.0</ele>
        <time>2010-08-26T15:45:36Z</time>
      </trkpt>
      <trkpt lat="41.781017" lon="-8.167700">
        <ele>592.0</ele>
        <time>2010-08-26T15:45:37Z</time>
      </trkpt>
      <trkpt lat="41.781033" lon="-8.167683">
        <ele>593.0</ele>
        <time>2010-08-26T15:45:38Z</time>
      </trkpt>
      <trkpt lat="41.781067" lon="-8.167667">
        <ele>593.0</ele>
        <time>2010-08-26T15:45:39Z</time>
      </trkpt>
      <trkpt lat="41.781083" lon="-8.167633">
        <ele>593.0</ele>
        <time>2010-08-26T15:45:40Z</time>
      </trkpt>
      <trkpt lat="41.781100" lon="-8.167600">
        <ele>593.0</ele>
        <time>2010-08-26T15:45:42Z</time>
      </trkpt>
      <trkpt lat="41.781117" lon="-8.167567">
        <ele>593.0</ele>
        <time>2010-08-26T15:45:43Z</time>
      </trkpt>
      <trkpt lat="41.781117" lon="-8.167533">
        <ele>593.0</ele>
        <time>2010-08-26T15:45:44Z</time>
      </trkpt>
      <trkpt lat="41.781133" lon="-8.167500">
        <ele>593.0</ele>
        <time>2010-08-26T15:45:45Z</time>
      </trkpt>
      <trkpt lat="41.781150" lon="-8.167467">
        <ele>593.0</ele>
        <time>2010-08-26T15:45:46Z</time>
      </trkpt>
      <trkpt lat="41.781150" lon="-8.167433">
        <ele>593.0</ele>
        <time>2010-08-26T15:45:47Z</time>
      </trkpt>
      <trkpt lat="41.781167" lon="-8.167400">
        <ele>593.0</ele>
        <time>2010-08-26T15:45:48Z</time>
      </trkpt>
      <trkpt lat="41.781167" lon="-8.167350">
        <ele>594.0</ele>
        <time>2010-08-26T15:45:50Z</time>
      </trkpt>
      <trkpt lat="41.781167" lon="-8.167317">
        <ele>595.0</ele>
        <time>2010-08-26T15:45:52Z</time>
      </trkpt>
      <trkpt lat="41.781183" lon="-8.167283">
        <ele>595.0</ele>
        <time>2010-08-26T15:45:53Z</time>
      </trkpt>
      <trkpt lat="41.781200" lon="-8.167267">
        <ele>595.0</ele>
        <time>2010-08-26T15:45:54Z</time>
      </trkpt>
      <trkpt lat="41.781217" lon="-8.167233">
        <ele>595.0</ele>
        <time>2010-08-26T15:45:55Z</time>
      </trkpt>
      <trkpt lat="41.781233" lon="-8.167217">
        <ele>596.0</ele>
        <time>2010-08-26T15:45:56Z</time>
      </trkpt>
      <trkpt lat="41.781267" lon="-8.167183">
        <ele>596.0</ele>
        <time>2010-08-26T15:45:57Z</time>
      </trkpt>
      <trkpt lat="41.781283" lon="-8.167167">
        <ele>596.0</ele>
        <time>2010-08-26T15:45:58Z</time>
      </trkpt>
      <trkpt lat="41.781317" lon="-8.167150">
        <ele>596.0</ele>
        <time>2010-08-26T15:45:59Z</time>
      </trkpt>
      <trkpt lat="41.781333" lon="-8.167133">
        <ele>596.0</ele>
        <time>2010-08-26T15:46:00Z</time>
      </trkpt>
      <trkpt lat="41.781350" lon="-8.167117">
        <ele>596.0</ele>
        <time>2010-08-26T15:46:01Z</time>
      </trkpt>
      <trkpt lat="41.781367" lon="-8.167100">
        <ele>596.0</ele>
        <time>2010-08-26T15:46:02Z</time>
      </trkpt>
      <trkpt lat="41.781400" lon="-8.167067">
        <ele>597.0</ele>
        <time>2010-08-26T15:46:03Z</time>
      </trkpt>
      <trkpt lat="41.781417" lon="-8.167033">
        <ele>597.0</ele>
        <time>2010-08-26T15:46:05Z</time>
      </trkpt>
      <trkpt lat="41.781450" lon="-8.167000">
        <ele>596.0</ele>
        <time>2010-08-26T15:46:07Z</time>
      </trkpt>
      <trkpt lat="41.781483" lon="-8.166983">
        <ele>596.0</ele>
        <time>2010-08-26T15:46:09Z</time>
      </trkpt>
      <trkpt lat="41.781500" lon="-8.166967">
        <ele>595.0</ele>
        <time>2010-08-26T15:46:10Z</time>
      </trkpt>
      <trkpt lat="41.781533" lon="-8.166950">
        <ele>595.0</ele>
        <time>2010-08-26T15:46:11Z</time>
      </trkpt>
      <trkpt lat="41.781550" lon="-8.166950">
        <ele>595.0</ele>
        <time>2010-08-26T15:46:12Z</time>
      </trkpt>
      <trkpt lat="41.781583" lon="-8.166933">
        <ele>595.0</ele>
        <time>2010-08-26T15:46:13Z</time>
      </trkpt>
      <trkpt lat="41.781600" lon="-8.166933">
        <ele>595.0</ele>
        <time>2010-08-26T15:46:14Z</time>
      </trkpt>
      <trkpt lat="41.781633" lon="-8.166933">
        <ele>596.0</ele>
        <time>2010-08-26T15:46:15Z</time>
      </trkpt>
      <trkpt lat="41.781667" lon="-8.166917">
        <ele>596.0</ele>
        <time>2010-08-26T15:46:16Z</time>
      </trkpt>
      <trkpt lat="41.781700" lon="-8.166917">
        <ele>596.0</ele>
        <time>2010-08-26T15:46:17Z</time>
      </trkpt>
      <trkpt lat="41.781717" lon="-8.166900">
        <ele>597.0</ele>
        <time>2010-08-26T15:46:18Z</time>
      </trkpt>
      <trkpt lat="41.781750" lon="-8.166900">
        <ele>597.0</ele>
        <time>2010-08-26T15:46:19Z</time>
      </trkpt>
      <trkpt lat="41.781783" lon="-8.166883">
        <ele>597.0</ele>
        <time>2010-08-26T15:46:20Z</time>
      </trkpt>
      <trkpt lat="41.781800" lon="-8.166850">
        <ele>598.0</ele>
        <time>2010-08-26T15:46:21Z</time>
      </trkpt>
      <trkpt lat="41.781833" lon="-8.166833">
        <ele>598.0</ele>
        <time>2010-08-26T15:46:22Z</time>
      </trkpt>
      <trkpt lat="41.781850" lon="-8.166817">
        <ele>598.0</ele>
        <time>2010-08-26T15:46:23Z</time>
      </trkpt>
      <trkpt lat="41.781867" lon="-8.166783">
        <ele>599.0</ele>
        <time>2010-08-26T15:46:24Z</time>
      </trkpt>
      <trkpt lat="41.781900" lon="-8.166767">
        <ele>599.0</ele>
        <time>2010-08-26T15:46:25Z</time>
      </trkpt>
      <trkpt lat="41.781917" lon="-8.166750">
        <ele>599.0</ele>
        <time>2010-08-26T15:46:26Z</time>
      </trkpt>
      <trkpt lat="41.781933" lon="-8.166717">
        <ele>600.0</ele>
        <time>2010-08-26T15:46:27Z</time>
      </trkpt>
      <trkpt lat="41.781967" lon="-8.166683">
        <ele>600.0</ele>
        <time>2010-08-26T15:46:28Z</time>
      </trkpt>
      <trkpt lat="41.781983" lon="-8.166650">
        <ele>600.0</ele>
        <time>2010-08-26T15:46:29Z</time>
      </trkpt>
      <trkpt lat="41.782000" lon="-8.166633">
        <ele>600.0</ele>
        <time>2010-08-26T15:46:30Z</time>
      </trkpt>
      <trkpt lat="41.782017" lon="-8.166600">
        <ele>600.0</ele>
        <time>2010-08-26T15:46:31Z</time>
      </trkpt>
      <trkpt lat="41.782033" lon="-8.166567">
        <ele>600.0</ele>
        <time>2010-08-26T15:46:32Z</time>
      </trkpt>
      <trkpt lat="41.782050" lon="-8.166533">
        <ele>600.0</ele>
        <time>2010-08-26T15:46:33Z</time>
      </trkpt>
      <trkpt lat="41.782067" lon="-8.166500">
        <ele>600.0</ele>
        <time>2010-08-26T15:46:34Z</time>
      </trkpt>
      <trkpt lat="41.782083" lon="-8.166467">
        <ele>600.0</ele>
        <time>2010-08-26T15:46:35Z</time>
      </trkpt>
      <trkpt lat="41.782100" lon="-8.166450">
        <ele>600.0</ele>
        <time>2010-08-26T15:46:36Z</time>
      </trkpt>
      <trkpt lat="41.782117" lon="-8.166417">
        <ele>600.0</ele>
        <time>2010-08-26T15:46:37Z</time>
      </trkpt>
      <trkpt lat="41.782150" lon="-8.166400">
        <ele>600.0</ele>
        <time>2010-08-26T15:46:38Z</time>
      </trkpt>
      <trkpt lat="41.782167" lon="-8.166367">
        <ele>600.0</ele>
        <time>2010-08-26T15:46:39Z</time>
      </trkpt>
      <trkpt lat="41.782200" lon="-8.166350">
        <ele>600.0</ele>
        <time>2010-08-26T15:46:40Z</time>
      </trkpt>
      <trkpt lat="41.782233" lon="-8.166333">
        <ele>600.0</ele>
        <time>2010-08-26T15:46:41Z</time>
      </trkpt>
      <trkpt lat="41.782267" lon="-8.166317">
        <ele>600.0</ele>
        <time>2010-08-26T15:46:42Z</time>
      </trkpt>
      <trkpt lat="41.782300" lon="-8.166317">
        <ele>600.0</ele>
        <time>2010-08-26T15:46:43Z</time>
      </trkpt>
      <trkpt lat="41.782333" lon="-8.166300">
        <ele>600.0</ele>
        <time>2010-08-26T15:46:44Z</time>
      </trkpt>
      <trkpt lat="41.782350" lon="-8.166283">
        <ele>600.0</ele>
        <time>2010-08-26T15:46:45Z</time>
      </trkpt>
      <trkpt lat="41.782383" lon="-8.166283">
        <ele>600.0</ele>
        <time>2010-08-26T15:46:46Z</time>
      </trkpt>
      <trkpt lat="41.782417" lon="-8.166267">
        <ele>599.0</ele>
        <time>2010-08-26T15:46:47Z</time>
      </trkpt>
      <trkpt lat="41.782450" lon="-8.166267">
        <ele>599.0</ele>
        <time>2010-08-26T15:46:48Z</time>
      </trkpt>
      <trkpt lat="41.782483" lon="-8.166250">
        <ele>599.0</ele>
        <time>2010-08-26T15:46:49Z</time>
      </trkpt>
      <trkpt lat="41.782517" lon="-8.166250">
        <ele>599.0</ele>
        <time>2010-08-26T15:46:50Z</time>
      </trkpt>
      <trkpt lat="41.782550" lon="-8.166250">
        <ele>599.0</ele>
        <time>2010-08-26T15:46:51Z</time>
      </trkpt>
      <trkpt lat="41.782567" lon="-8.166233">
        <ele>599.0</ele>
        <time>2010-08-26T15:46:52Z</time>
      </trkpt>
      <trkpt lat="41.782600" lon="-8.166217">
        <ele>599.0</ele>
        <time>2010-08-26T15:46:53Z</time>
      </trkpt>
      <trkpt lat="41.782617" lon="-8.166217">
        <ele>599.0</ele>
        <time>2010-08-26T15:46:54Z</time>
      </trkpt>
      <trkpt lat="41.782650" lon="-8.166200">
        <ele>599.0</ele>
        <time>2010-08-26T15:46:55Z</time>
      </trkpt>
      <trkpt lat="41.782683" lon="-8.166200">
        <ele>599.0</ele>
        <time>2010-08-26T15:46:56Z</time>
      </trkpt>
      <trkpt lat="41.782700" lon="-8.166200">
        <ele>600.0</ele>
        <time>2010-08-26T15:46:57Z</time>
      </trkpt>
      <trkpt lat="41.782733" lon="-8.166183">
        <ele>600.0</ele>
        <time>2010-08-26T15:46:58Z</time>
      </trkpt>
      <trkpt lat="41.782750" lon="-8.166183">
        <ele>600.0</ele>
        <time>2010-08-26T15:46:59Z</time>
      </trkpt>
      <trkpt lat="41.782783" lon="-8.166167">
        <ele>600.0</ele>
        <time>2010-08-26T15:47:00Z</time>
      </trkpt>
      <trkpt lat="41.782800" lon="-8.166167">
        <ele>600.0</ele>
        <time>2010-08-26T15:47:01Z</time>
      </trkpt>
      <trkpt lat="41.782833" lon="-8.166150">
        <ele>600.0</ele>
        <time>2010-08-26T15:47:02Z</time>
      </trkpt>
      <trkpt lat="41.782850" lon="-8.166150">
        <ele>600.0</ele>
        <time>2010-08-26T15:47:03Z</time>
      </trkpt>
      <trkpt lat="41.782883" lon="-8.166133">
        <ele>601.0</ele>
        <time>2010-08-26T15:47:04Z</time>
      </trkpt>
      <trkpt lat="41.782917" lon="-8.166100">
        <ele>601.0</ele>
        <time>2010-08-26T15:47:06Z</time>
      </trkpt>
      <trkpt lat="41.782933" lon="-8.166100">
        <ele>601.0</ele>
        <time>2010-08-26T15:47:07Z</time>
      </trkpt>
      <trkpt lat="41.782950" lon="-8.166083">
        <ele>601.0</ele>
        <time>2010-08-26T15:47:08Z</time>
      </trkpt>
      <trkpt lat="41.783000" lon="-8.166067">
        <ele>601.0</ele>
        <time>2010-08-26T15:47:10Z</time>
      </trkpt>
      <trkpt lat="41.783033" lon="-8.166050">
        <ele>601.0</ele>
        <time>2010-08-26T15:47:12Z</time>
      </trkpt>
      <trkpt lat="41.783067" lon="-8.166033">
        <ele>601.0</ele>
        <time>2010-08-26T15:47:14Z</time>
      </trkpt>
      <trkpt lat="41.783100" lon="-8.166017">
        <ele>600.0</ele>
        <time>2010-08-26T15:47:16Z</time>
      </trkpt>
      <trkpt lat="41.783133" lon="-8.165983">
        <ele>600.0</ele>
        <time>2010-08-26T15:47:18Z</time>
      </trkpt>
      <trkpt lat="41.783150" lon="-8.165983">
        <ele>600.0</ele>
        <time>2010-08-26T15:47:19Z</time>
      </trkpt>
      <trkpt lat="41.783183" lon="-8.165967">
        <ele>601.0</ele>
        <time>2010-08-26T15:47:20Z</time>
      </trkpt>
      <trkpt lat="41.783200" lon="-8.165950">
        <ele>601.0</ele>
        <time>2010-08-26T15:47:21Z</time>
      </trkpt>
      <trkpt lat="41.783233" lon="-8.165933">
        <ele>601.0</ele>
        <time>2010-08-26T15:47:22Z</time>
      </trkpt>
      <trkpt lat="41.783250" lon="-8.165917">
        <ele>600.0</ele>
        <time>2010-08-26T15:47:23Z</time>
      </trkpt>
      <trkpt lat="41.783283" lon="-8.165900">
        <ele>600.0</ele>
        <time>2010-08-26T15:47:24Z</time>
      </trkpt>
      <trkpt lat="41.783300" lon="-8.165883">
        <ele>600.0</ele>
        <time>2010-08-26T15:47:25Z</time>
      </trkpt>
      <trkpt lat="41.783317" lon="-8.165850">
        <ele>600.0</ele>
        <time>2010-08-26T15:47:26Z</time>
      </trkpt>
      <trkpt lat="41.783333" lon="-8.165833">
        <ele>600.0</ele>
        <time>2010-08-26T15:47:27Z</time>
      </trkpt>
      <trkpt lat="41.783367" lon="-8.165817">
        <ele>600.0</ele>
        <time>2010-08-26T15:47:28Z</time>
      </trkpt>
      <trkpt lat="41.783383" lon="-8.165783">
        <ele>600.0</ele>
        <time>2010-08-26T15:47:29Z</time>
      </trkpt>
      <trkpt lat="41.783400" lon="-8.165767">
        <ele>600.0</ele>
        <time>2010-08-26T15:47:30Z</time>
      </trkpt>
      <trkpt lat="41.783433" lon="-8.165750">
        <ele>599.0</ele>
        <time>2010-08-26T15:47:31Z</time>
      </trkpt>
      <trkpt lat="41.783450" lon="-8.165717">
        <ele>599.0</ele>
        <time>2010-08-26T15:47:32Z</time>
      </trkpt>
      <trkpt lat="41.783483" lon="-8.165683">
        <ele>599.0</ele>
        <time>2010-08-26T15:47:34Z</time>
      </trkpt>
      <trkpt lat="41.783517" lon="-8.165650">
        <ele>599.0</ele>
        <time>2010-08-26T15:47:36Z</time>
      </trkpt>
      <trkpt lat="41.783533" lon="-8.165617">
        <ele>599.0</ele>
        <time>2010-08-26T15:47:37Z</time>
      </trkpt>
      <trkpt lat="41.783567" lon="-8.165617">
        <ele>598.0</ele>
        <time>2010-08-26T15:47:38Z</time>
      </trkpt>
      <trkpt lat="41.783600" lon="-8.165583">
        <ele>598.0</ele>
        <time>2010-08-26T15:47:40Z</time>
      </trkpt>
      <trkpt lat="41.783633" lon="-8.165567">
        <ele>597.0</ele>
        <time>2010-08-26T15:47:42Z</time>
      </trkpt>
      <trkpt lat="41.783667" lon="-8.165550">
        <ele>597.0</ele>
        <time>2010-08-26T15:47:44Z</time>
      </trkpt>
      <trkpt lat="41.783700" lon="-8.165600">
        <ele>606.0</ele>
        <time>2010-08-26T15:48:41Z</time>
      </trkpt>
      <trkpt lat="41.783733" lon="-8.165583">
        <ele>606.0</ele>
        <time>2010-08-26T15:48:48Z</time>
      </trkpt>
      <trkpt lat="41.783783" lon="-8.165567">
        <ele>606.0</ele>
        <time>2010-08-26T15:48:50Z</time>
      </trkpt>
      <trkpt lat="41.783800" lon="-8.165550">
        <ele>606.0</ele>
        <time>2010-08-26T15:48:51Z</time>
      </trkpt>
      <trkpt lat="41.783833" lon="-8.165533">
        <ele>605.0</ele>
        <time>2010-08-26T15:48:53Z</time>
      </trkpt>
      <trkpt lat="41.783867" lon="-8.165500">
        <ele>604.0</ele>
        <time>2010-08-26T15:48:55Z</time>
      </trkpt>
      <trkpt lat="41.783883" lon="-8.165467">
        <ele>604.0</ele>
        <time>2010-08-26T15:48:56Z</time>
      </trkpt>
      <trkpt lat="41.783917" lon="-8.165450">
        <ele>604.0</ele>
        <time>2010-08-26T15:48:57Z</time>
      </trkpt>
      <trkpt lat="41.783950" lon="-8.165433">
        <ele>603.0</ele>
        <time>2010-08-26T15:48:59Z</time>
      </trkpt>
      <trkpt lat="41.783983" lon="-8.165400">
        <ele>602.0</ele>
        <time>2010-08-26T15:49:01Z</time>
      </trkpt>
      <trkpt lat="41.784000" lon="-8.165400">
        <ele>602.0</ele>
        <time>2010-08-26T15:49:02Z</time>
      </trkpt>
      <trkpt lat="41.784033" lon="-8.165383">
        <ele>602.0</ele>
        <time>2010-08-26T15:49:03Z</time>
      </trkpt>
      <trkpt lat="41.784050" lon="-8.165367">
        <ele>602.0</ele>
        <time>2010-08-26T15:49:04Z</time>
      </trkpt>
      <trkpt lat="41.784067" lon="-8.165350">
        <ele>602.0</ele>
        <time>2010-08-26T15:49:05Z</time>
      </trkpt>
      <trkpt lat="41.784100" lon="-8.165333">
        <ele>602.0</ele>
        <time>2010-08-26T15:49:06Z</time>
      </trkpt>
      <trkpt lat="41.784133" lon="-8.165317">
        <ele>602.0</ele>
        <time>2010-08-26T15:49:07Z</time>
      </trkpt>
      <trkpt lat="41.784150" lon="-8.165300">
        <ele>603.0</ele>
        <time>2010-08-26T15:49:08Z</time>
      </trkpt>
      <trkpt lat="41.784183" lon="-8.165300">
        <ele>603.0</ele>
        <time>2010-08-26T15:49:09Z</time>
      </trkpt>
      <trkpt lat="41.784217" lon="-8.165267">
        <ele>603.0</ele>
        <time>2010-08-26T15:49:10Z</time>
      </trkpt>
      <trkpt lat="41.784233" lon="-8.165250">
        <ele>603.0</ele>
        <time>2010-08-26T15:49:11Z</time>
      </trkpt>
      <trkpt lat="41.784267" lon="-8.165217">
        <ele>604.0</ele>
        <time>2010-08-26T15:49:12Z</time>
      </trkpt>
      <trkpt lat="41.784283" lon="-8.165200">
        <ele>604.0</ele>
        <time>2010-08-26T15:49:13Z</time>
      </trkpt>
      <trkpt lat="41.784317" lon="-8.165167">
        <ele>604.0</ele>
        <time>2010-08-26T15:49:14Z</time>
      </trkpt>
      <trkpt lat="41.784333" lon="-8.165133">
        <ele>604.0</ele>
        <time>2010-08-26T15:49:15Z</time>
      </trkpt>
      <trkpt lat="41.784350" lon="-8.165117">
        <ele>604.0</ele>
        <time>2010-08-26T15:49:16Z</time>
      </trkpt>
      <trkpt lat="41.784383" lon="-8.165083">
        <ele>604.0</ele>
        <time>2010-08-26T15:49:17Z</time>
      </trkpt>
      <trkpt lat="41.784417" lon="-8.165067">
        <ele>603.0</ele>
        <time>2010-08-26T15:49:18Z</time>
      </trkpt>
      <trkpt lat="41.784433" lon="-8.165033">
        <ele>603.0</ele>
        <time>2010-08-26T15:49:19Z</time>
      </trkpt>
      <trkpt lat="41.784467" lon="-8.165017">
        <ele>603.0</ele>
        <time>2010-08-26T15:49:20Z</time>
      </trkpt>
      <trkpt lat="41.784500" lon="-8.164983">
        <ele>603.0</ele>
        <time>2010-08-26T15:49:21Z</time>
      </trkpt>
      <trkpt lat="41.784517" lon="-8.164950">
        <ele>603.0</ele>
        <time>2010-08-26T15:49:22Z</time>
      </trkpt>
      <trkpt lat="41.784550" lon="-8.164933">
        <ele>603.0</ele>
        <time>2010-08-26T15:49:23Z</time>
      </trkpt>
      <trkpt lat="41.784583" lon="-8.164917">
        <ele>603.0</ele>
        <time>2010-08-26T15:49:24Z</time>
      </trkpt>
      <trkpt lat="41.784617" lon="-8.164883">
        <ele>603.0</ele>
        <time>2010-08-26T15:49:25Z</time>
      </trkpt>
      <trkpt lat="41.784633" lon="-8.164867">
        <ele>603.0</ele>
        <time>2010-08-26T15:49:26Z</time>
      </trkpt>
      <trkpt lat="41.784667" lon="-8.164850">
        <ele>603.0</ele>
        <time>2010-08-26T15:49:27Z</time>
      </trkpt>
      <trkpt lat="41.784683" lon="-8.164817">
        <ele>603.0</ele>
        <time>2010-08-26T15:49:28Z</time>
      </trkpt>
      <trkpt lat="41.784700" lon="-8.164800">
        <ele>602.0</ele>
        <time>2010-08-26T15:49:29Z</time>
      </trkpt>
      <trkpt lat="41.784717" lon="-8.164767">
        <ele>602.0</ele>
        <time>2010-08-26T15:49:30Z</time>
      </trkpt>
      <trkpt lat="41.784750" lon="-8.164717">
        <ele>602.0</ele>
        <time>2010-08-26T15:49:32Z</time>
      </trkpt>
      <trkpt lat="41.784783" lon="-8.164683">
        <ele>601.0</ele>
        <time>2010-08-26T15:50:16Z</time>
      </trkpt>
      <trkpt lat="41.784817" lon="-8.164650">
        <ele>593.0</ele>
        <time>2010-08-26T15:50:53Z</time>
      </trkpt>
      <trkpt lat="41.784850" lon="-8.164633">
        <ele>594.0</ele>
        <time>2010-08-26T15:50:56Z</time>
      </trkpt>
      <trkpt lat="41.784883" lon="-8.164600">
        <ele>594.0</ele>
        <time>2010-08-26T15:50:59Z</time>
      </trkpt>
      <trkpt lat="41.784900" lon="-8.164567">
        <ele>595.0</ele>
        <time>2010-08-26T15:51:01Z</time>
      </trkpt>
      <trkpt lat="41.784933" lon="-8.164533">
        <ele>597.0</ele>
        <time>2010-08-26T15:51:04Z</time>
      </trkpt>
      <trkpt lat="41.784967" lon="-8.164483">
        <ele>598.0</ele>
        <time>2010-08-26T15:51:07Z</time>
      </trkpt>
      <trkpt lat="41.784983" lon="-8.164450">
        <ele>601.0</ele>
        <time>2010-08-26T15:51:11Z</time>
      </trkpt>
      <trkpt lat="41.785000" lon="-8.164400">
        <ele>604.0</ele>
        <time>2010-08-26T15:51:14Z</time>
      </trkpt>
      <trkpt lat="41.785033" lon="-8.164367">
        <ele>605.0</ele>
        <time>2010-08-26T15:51:17Z</time>
      </trkpt>
      <trkpt lat="41.785050" lon="-8.164333">
        <ele>607.0</ele>
        <time>2010-08-26T15:51:20Z</time>
      </trkpt>
      <trkpt lat="41.785083" lon="-8.164283">
        <ele>608.0</ele>
        <time>2010-08-26T15:51:23Z</time>
      </trkpt>
      <trkpt lat="41.785100" lon="-8.164233">
        <ele>609.0</ele>
        <time>2010-08-26T15:51:26Z</time>
      </trkpt>
      <trkpt lat="41.785100" lon="-8.164200">
        <ele>609.0</ele>
        <time>2010-08-26T15:51:28Z</time>
      </trkpt>
      <trkpt lat="41.785117" lon="-8.164150">
        <ele>609.0</ele>
        <time>2010-08-26T15:51:30Z</time>
      </trkpt>
      <trkpt lat="41.785117" lon="-8.164100">
        <ele>610.0</ele>
        <time>2010-08-26T15:51:33Z</time>
      </trkpt>
      <trkpt lat="41.785133" lon="-8.164067">
        <ele>610.0</ele>
        <time>2010-08-26T15:51:35Z</time>
      </trkpt>
      <trkpt lat="41.785150" lon="-8.164033">
        <ele>610.0</ele>
        <time>2010-08-26T15:51:37Z</time>
      </trkpt>
      <trkpt lat="41.785183" lon="-8.164000">
        <ele>611.0</ele>
        <time>2010-08-26T15:51:40Z</time>
      </trkpt>
      <trkpt lat="41.785217" lon="-8.163967">
        <ele>611.0</ele>
        <time>2010-08-26T15:51:42Z</time>
      </trkpt>
      <trkpt lat="41.785233" lon="-8.163933">
        <ele>611.0</ele>
        <time>2010-08-26T15:51:44Z</time>
      </trkpt>
      <trkpt lat="41.785267" lon="-8.163900">
        <ele>611.0</ele>
        <time>2010-08-26T15:51:46Z</time>
      </trkpt>
      <trkpt lat="41.785300" lon="-8.163883">
        <ele>611.0</ele>
        <time>2010-08-26T15:51:48Z</time>
      </trkpt>
      <trkpt lat="41.785317" lon="-8.163850">
        <ele>612.0</ele>
        <time>2010-08-26T15:51:50Z</time>
      </trkpt>
      <trkpt lat="41.785350" lon="-8.163817">
        <ele>612.0</ele>
        <time>2010-08-26T15:51:52Z</time>
      </trkpt>
      <trkpt lat="41.785383" lon="-8.163783">
        <ele>612.0</ele>
        <time>2010-08-26T15:51:54Z</time>
      </trkpt>
      <trkpt lat="41.785417" lon="-8.163767">
        <ele>612.0</ele>
        <time>2010-08-26T15:51:56Z</time>
      </trkpt>
      <trkpt lat="41.785433" lon="-8.163733">
        <ele>612.0</ele>
        <time>2010-08-26T15:51:58Z</time>
      </trkpt>
      <trkpt lat="41.785450" lon="-8.163700">
        <ele>612.0</ele>
        <time>2010-08-26T15:52:00Z</time>
      </trkpt>
      <trkpt lat="41.785483" lon="-8.163683">
        <ele>613.0</ele>
        <time>2010-08-26T15:52:02Z</time>
      </trkpt>
      <trkpt lat="41.785517" lon="-8.163650">
        <ele>614.0</ele>
        <time>2010-08-26T15:52:04Z</time>
      </trkpt>
      <trkpt lat="41.785533" lon="-8.163617">
        <ele>614.0</ele>
        <time>2010-08-26T15:52:06Z</time>
      </trkpt>
      <trkpt lat="41.785550" lon="-8.163583">
        <ele>615.0</ele>
        <time>2010-08-26T15:52:08Z</time>
      </trkpt>
      <trkpt lat="41.785583" lon="-8.163550">
        <ele>615.0</ele>
        <time>2010-08-26T15:52:10Z</time>
      </trkpt>
      <trkpt lat="41.785617" lon="-8.163533">
        <ele>616.0</ele>
        <time>2010-08-26T15:52:12Z</time>
      </trkpt>
      <trkpt lat="41.785650" lon="-8.163500">
        <ele>616.0</ele>
        <time>2010-08-26T15:52:14Z</time>
      </trkpt>
      <trkpt lat="41.785683" lon="-8.163467">
        <ele>616.0</ele>
        <time>2010-08-26T15:52:16Z</time>
      </trkpt>
      <trkpt lat="41.785700" lon="-8.163433">
        <ele>615.0</ele>
        <time>2010-08-26T15:52:18Z</time>
      </trkpt>
      <trkpt lat="41.785733" lon="-8.163383">
        <ele>614.0</ele>
        <time>2010-08-26T15:52:20Z</time>
      </trkpt>
      <trkpt lat="41.785767" lon="-8.163350">
        <ele>613.0</ele>
        <time>2010-08-26T15:52:22Z</time>
      </trkpt>
      <trkpt lat="41.785783" lon="-8.163317">
        <ele>613.0</ele>
        <time>2010-08-26T15:52:24Z</time>
      </trkpt>
      <trkpt lat="41.785817" lon="-8.163267">
        <ele>613.0</ele>
        <time>2010-08-26T15:52:26Z</time>
      </trkpt>
      <trkpt lat="41.785833" lon="-8.163233">
        <ele>613.0</ele>
        <time>2010-08-26T15:52:28Z</time>
      </trkpt>
      <trkpt lat="41.785867" lon="-8.163183">
        <ele>613.0</ele>
        <time>2010-08-26T15:52:30Z</time>
      </trkpt>
      <trkpt lat="41.785867" lon="-8.163150">
        <ele>613.0</ele>
        <time>2010-08-26T15:52:31Z</time>
      </trkpt>
      <trkpt lat="41.785883" lon="-8.163133">
        <ele>613.0</ele>
        <time>2010-08-26T15:52:32Z</time>
      </trkpt>
      <trkpt lat="41.785900" lon="-8.163100">
        <ele>613.0</ele>
        <time>2010-08-26T15:52:33Z</time>
      </trkpt>
      <trkpt lat="41.785917" lon="-8.163067">
        <ele>613.0</ele>
        <time>2010-08-26T15:52:34Z</time>
      </trkpt>
      <trkpt lat="41.785933" lon="-8.163033">
        <ele>613.0</ele>
        <time>2010-08-26T15:52:35Z</time>
      </trkpt>
      <trkpt lat="41.785950" lon="-8.163000">
        <ele>612.0</ele>
        <time>2010-08-26T15:52:36Z</time>
      </trkpt>
      <trkpt lat="41.785967" lon="-8.162983">
        <ele>612.0</ele>
        <time>2010-08-26T15:52:37Z</time>
      </trkpt>
      <trkpt lat="41.785983" lon="-8.162950">
        <ele>612.0</ele>
        <time>2010-08-26T15:52:38Z</time>
      </trkpt>
      <trkpt lat="41.786000" lon="-8.162917">
        <ele>612.0</ele>
        <time>2010-08-26T15:52:39Z</time>
      </trkpt>
      <trkpt lat="41.786017" lon="-8.162883">
        <ele>612.0</ele>
        <time>2010-08-26T15:52:40Z</time>
      </trkpt>
      <trkpt lat="41.786033" lon="-8.162850">
        <ele>611.0</ele>
        <time>2010-08-26T15:52:41Z</time>
      </trkpt>
      <trkpt lat="41.786033" lon="-8.162817">
        <ele>611.0</ele>
        <time>2010-08-26T15:52:42Z</time>
      </trkpt>
      <trkpt lat="41.786050" lon="-8.162783">
        <ele>611.0</ele>
        <time>2010-08-26T15:52:43Z</time>
      </trkpt>
      <trkpt lat="41.786067" lon="-8.162733">
        <ele>611.0</ele>
        <time>2010-08-26T15:52:44Z</time>
      </trkpt>
      <trkpt lat="41.786067" lon="-8.162700">
        <ele>611.0</ele>
        <time>2010-08-26T15:52:45Z</time>
      </trkpt>
      <trkpt lat="41.786083" lon="-8.162667">
        <ele>611.0</ele>
        <time>2010-08-26T15:52:46Z</time>
      </trkpt>
      <trkpt lat="41.786100" lon="-8.162633">
        <ele>611.0</ele>
        <time>2010-08-26T15:52:47Z</time>
      </trkpt>
      <trkpt lat="41.786117" lon="-8.162600">
        <ele>612.0</ele>
        <time>2010-08-26T15:52:48Z</time>
      </trkpt>
      <trkpt lat="41.786117" lon="-8.162583">
        <ele>612.0</ele>
        <time>2010-08-26T15:52:49Z</time>
      </trkpt>
      <trkpt lat="41.786133" lon="-8.162517">
        <ele>612.0</ele>
        <time>2010-08-26T15:52:51Z</time>
      </trkpt>
      <trkpt lat="41.786167" lon="-8.162483">
        <ele>613.0</ele>
        <time>2010-08-26T15:52:53Z</time>
      </trkpt>
      <trkpt lat="41.786183" lon="-8.162467">
        <ele>613.0</ele>
        <time>2010-08-26T15:52:54Z</time>
      </trkpt>
      <trkpt lat="41.786217" lon="-8.162433">
        <ele>614.0</ele>
        <time>2010-08-26T15:52:55Z</time>
      </trkpt>
      <trkpt lat="41.786233" lon="-8.162417">
        <ele>614.0</ele>
        <time>2010-08-26T15:52:56Z</time>
      </trkpt>
      <trkpt lat="41.786250" lon="-8.162400">
        <ele>614.0</ele>
        <time>2010-08-26T15:52:57Z</time>
      </trkpt>
      <trkpt lat="41.786283" lon="-8.162383">
        <ele>614.0</ele>
        <time>2010-08-26T15:52:58Z</time>
      </trkpt>
      <trkpt lat="41.786300" lon="-8.162367">
        <ele>614.0</ele>
        <time>2010-08-26T15:52:59Z</time>
      </trkpt>
      <trkpt lat="41.786333" lon="-8.162350">
        <ele>614.0</ele>
        <time>2010-08-26T15:53:00Z</time>
      </trkpt>
      <trkpt lat="41.786350" lon="-8.162333">
        <ele>614.0</ele>
        <time>2010-08-26T15:53:01Z</time>
      </trkpt>
      <trkpt lat="41.786383" lon="-8.162333">
        <ele>614.0</ele>
        <time>2010-08-26T15:53:02Z</time>
      </trkpt>
      <trkpt lat="41.786417" lon="-8.162333">
        <ele>614.0</ele>
        <time>2010-08-26T15:53:03Z</time>
      </trkpt>
      <trkpt lat="41.786433" lon="-8.162317">
        <ele>614.0</ele>
        <time>2010-08-26T15:53:04Z</time>
      </trkpt>
      <trkpt lat="41.786483" lon="-8.162317">
        <ele>614.0</ele>
        <time>2010-08-26T15:53:06Z</time>
      </trkpt>
      <trkpt lat="41.786500" lon="-8.162317">
        <ele>614.0</ele>
        <time>2010-08-26T15:53:07Z</time>
      </trkpt>
      <trkpt lat="41.786533" lon="-8.162317">
        <ele>614.0</ele>
        <time>2010-08-26T15:53:08Z</time>
      </trkpt>
      <trkpt lat="41.786550" lon="-8.162317">
        <ele>614.0</ele>
        <time>2010-08-26T15:53:09Z</time>
      </trkpt>
      <trkpt lat="41.786583" lon="-8.162300">
        <ele>615.0</ele>
        <time>2010-08-26T15:53:10Z</time>
      </trkpt>
      <trkpt lat="41.786617" lon="-8.162300">
        <ele>615.0</ele>
        <time>2010-08-26T15:53:11Z</time>
      </trkpt>
      <trkpt lat="41.786633" lon="-8.162300">
        <ele>616.0</ele>
        <time>2010-08-26T15:53:12Z</time>
      </trkpt>
      <trkpt lat="41.786667" lon="-8.162300">
        <ele>616.0</ele>
        <time>2010-08-26T15:53:13Z</time>
      </trkpt>
      <trkpt lat="41.786683" lon="-8.162300">
        <ele>617.0</ele>
        <time>2010-08-26T15:53:14Z</time>
      </trkpt>
      <trkpt lat="41.786717" lon="-8.162283">
        <ele>617.0</ele>
        <time>2010-08-26T15:53:15Z</time>
      </trkpt>
      <trkpt lat="41.786733" lon="-8.162267">
        <ele>617.0</ele>
        <time>2010-08-26T15:53:16Z</time>
      </trkpt>
      <trkpt lat="41.786750" lon="-8.162250">
        <ele>618.0</ele>
        <time>2010-08-26T15:53:17Z</time>
      </trkpt>
      <trkpt lat="41.786783" lon="-8.162217">
        <ele>618.0</ele>
        <time>2010-08-26T15:53:18Z</time>
      </trkpt>
      <trkpt lat="41.786800" lon="-8.162200">
        <ele>618.0</ele>
        <time>2010-08-26T15:53:19Z</time>
      </trkpt>
      <trkpt lat="41.786817" lon="-8.162183">
        <ele>618.0</ele>
        <time>2010-08-26T15:53:20Z</time>
      </trkpt>
      <trkpt lat="41.786850" lon="-8.162150">
        <ele>618.0</ele>
        <time>2010-08-26T15:53:21Z</time>
      </trkpt>
      <trkpt lat="41.786867" lon="-8.162133">
        <ele>618.0</ele>
        <time>2010-08-26T15:53:22Z</time>
      </trkpt>
      <trkpt lat="41.786883" lon="-8.162117">
        <ele>618.0</ele>
        <time>2010-08-26T15:53:23Z</time>
      </trkpt>
      <trkpt lat="41.786917" lon="-8.162083">
        <ele>618.0</ele>
        <time>2010-08-26T15:53:24Z</time>
      </trkpt>
      <trkpt lat="41.786933" lon="-8.162067">
        <ele>618.0</ele>
        <time>2010-08-26T15:53:25Z</time>
      </trkpt>
      <trkpt lat="41.786950" lon="-8.162033">
        <ele>618.0</ele>
        <time>2010-08-26T15:53:26Z</time>
      </trkpt>
      <trkpt lat="41.786967" lon="-8.162017">
        <ele>618.0</ele>
        <time>2010-08-26T15:53:27Z</time>
      </trkpt>
      <trkpt lat="41.787000" lon="-8.161983">
        <ele>618.0</ele>
        <time>2010-08-26T15:53:28Z</time>
      </trkpt>
      <trkpt lat="41.787017" lon="-8.161967">
        <ele>618.0</ele>
        <time>2010-08-26T15:53:29Z</time>
      </trkpt>
      <trkpt lat="41.787033" lon="-8.161933">
        <ele>618.0</ele>
        <time>2010-08-26T15:53:30Z</time>
      </trkpt>
      <trkpt lat="41.787067" lon="-8.161900">
        <ele>618.0</ele>
        <time>2010-08-26T15:53:31Z</time>
      </trkpt>
      <trkpt lat="41.787083" lon="-8.161867">
        <ele>617.0</ele>
        <time>2010-08-26T15:53:32Z</time>
      </trkpt>
      <trkpt lat="41.787100" lon="-8.161850">
        <ele>617.0</ele>
        <time>2010-08-26T15:53:33Z</time>
      </trkpt>
      <trkpt lat="41.787117" lon="-8.161817">
        <ele>617.0</ele>
        <time>2010-08-26T15:53:34Z</time>
      </trkpt>
      <trkpt lat="41.787133" lon="-8.161783">
        <ele>617.0</ele>
        <time>2010-08-26T15:53:35Z</time>
      </trkpt>
      <trkpt lat="41.787150" lon="-8.161767">
        <ele>617.0</ele>
        <time>2010-08-26T15:53:36Z</time>
      </trkpt>
      <trkpt lat="41.787167" lon="-8.161733">
        <ele>617.0</ele>
        <time>2010-08-26T15:53:37Z</time>
      </trkpt>
      <trkpt lat="41.787183" lon="-8.161717">
        <ele>617.0</ele>
        <time>2010-08-26T15:53:38Z</time>
      </trkpt>
      <trkpt lat="41.787200" lon="-8.161683">
        <ele>617.0</ele>
        <time>2010-08-26T15:53:39Z</time>
      </trkpt>
      <trkpt lat="41.787217" lon="-8.161650">
        <ele>617.0</ele>
        <time>2010-08-26T15:53:40Z</time>
      </trkpt>
      <trkpt lat="41.787233" lon="-8.161617">
        <ele>617.0</ele>
        <time>2010-08-26T15:53:41Z</time>
      </trkpt>
      <trkpt lat="41.787250" lon="-8.161600">
        <ele>617.0</ele>
        <time>2010-08-26T15:53:42Z</time>
      </trkpt>
      <trkpt lat="41.787267" lon="-8.161567">
        <ele>617.0</ele>
        <time>2010-08-26T15:53:43Z</time>
      </trkpt>
      <trkpt lat="41.787267" lon="-8.161533">
        <ele>617.0</ele>
        <time>2010-08-26T15:53:44Z</time>
      </trkpt>
      <trkpt lat="41.787283" lon="-8.161517">
        <ele>617.0</ele>
        <time>2010-08-26T15:53:45Z</time>
      </trkpt>
      <trkpt lat="41.787317" lon="-8.161483">
        <ele>618.0</ele>
        <time>2010-08-26T15:53:46Z</time>
      </trkpt>
      <trkpt lat="41.787333" lon="-8.161467">
        <ele>618.0</ele>
        <time>2010-08-26T15:53:47Z</time>
      </trkpt>
      <trkpt lat="41.787350" lon="-8.161433">
        <ele>618.0</ele>
        <time>2010-08-26T15:53:48Z</time>
      </trkpt>
      <trkpt lat="41.787367" lon="-8.161417">
        <ele>618.0</ele>
        <time>2010-08-26T15:53:49Z</time>
      </trkpt>
      <trkpt lat="41.787383" lon="-8.161383">
        <ele>618.0</ele>
        <time>2010-08-26T15:53:50Z</time>
      </trkpt>
      <trkpt lat="41.787383" lon="-8.161367">
        <ele>619.0</ele>
        <time>2010-08-26T15:53:51Z</time>
      </trkpt>
      <trkpt lat="41.787400" lon="-8.161333">
        <ele>619.0</ele>
        <time>2010-08-26T15:53:52Z</time>
      </trkpt>
      <trkpt lat="41.787433" lon="-8.161317">
        <ele>620.0</ele>
        <time>2010-08-26T15:53:53Z</time>
      </trkpt>
      <trkpt lat="41.787450" lon="-8.161283">
        <ele>620.0</ele>
        <time>2010-08-26T15:53:54Z</time>
      </trkpt>
      <trkpt lat="41.787450" lon="-8.161267">
        <ele>620.0</ele>
        <time>2010-08-26T15:53:55Z</time>
      </trkpt>
      <trkpt lat="41.787483" lon="-8.161217">
        <ele>620.0</ele>
        <time>2010-08-26T15:53:57Z</time>
      </trkpt>
      <trkpt lat="41.787500" lon="-8.161183">
        <ele>620.0</ele>
        <time>2010-08-26T15:53:58Z</time>
      </trkpt>
      <trkpt lat="41.787517" lon="-8.161167">
        <ele>620.0</ele>
        <time>2010-08-26T15:53:59Z</time>
      </trkpt>
      <trkpt lat="41.787550" lon="-8.161150">
        <ele>620.0</ele>
        <time>2010-08-26T15:54:00Z</time>
      </trkpt>
      <trkpt lat="41.787567" lon="-8.161117">
        <ele>620.0</ele>
        <time>2010-08-26T15:54:01Z</time>
      </trkpt>
      <trkpt lat="41.787583" lon="-8.161083">
        <ele>620.0</ele>
        <time>2010-08-26T15:54:02Z</time>
      </trkpt>
      <trkpt lat="41.787617" lon="-8.161067">
        <ele>621.0</ele>
        <time>2010-08-26T15:54:03Z</time>
      </trkpt>
      <trkpt lat="41.787633" lon="-8.161033">
        <ele>621.0</ele>
        <time>2010-08-26T15:54:04Z</time>
      </trkpt>
      <trkpt lat="41.787650" lon="-8.160983">
        <ele>622.0</ele>
        <time>2010-08-26T15:54:06Z</time>
      </trkpt>
      <trkpt lat="41.787667" lon="-8.160933">
        <ele>622.0</ele>
        <time>2010-08-26T15:54:08Z</time>
      </trkpt>
      <trkpt lat="41.787683" lon="-8.160900">
        <ele>622.0</ele>
        <time>2010-08-26T15:54:09Z</time>
      </trkpt>
      <trkpt lat="41.787700" lon="-8.160867">
        <ele>623.0</ele>
        <time>2010-08-26T15:54:10Z</time>
      </trkpt>
      <trkpt lat="41.787717" lon="-8.160833">
        <ele>623.0</ele>
        <time>2010-08-26T15:54:11Z</time>
      </trkpt>
      <trkpt lat="41.787717" lon="-8.160800">
        <ele>623.0</ele>
        <time>2010-08-26T15:54:12Z</time>
      </trkpt>
      <trkpt lat="41.787733" lon="-8.160767">
        <ele>623.0</ele>
        <time>2010-08-26T15:54:13Z</time>
      </trkpt>
      <trkpt lat="41.787733" lon="-8.160733">
        <ele>623.0</ele>
        <time>2010-08-26T15:54:14Z</time>
      </trkpt>
      <trkpt lat="41.787733" lon="-8.160683">
        <ele>623.0</ele>
        <time>2010-08-26T15:54:15Z</time>
      </trkpt>
      <trkpt lat="41.787750" lon="-8.160650">
        <ele>623.0</ele>
        <time>2010-08-26T15:54:16Z</time>
      </trkpt>
      <trkpt lat="41.787750" lon="-8.160617">
        <ele>623.0</ele>
        <time>2010-08-26T15:54:17Z</time>
      </trkpt>
      <trkpt lat="41.787767" lon="-8.160583">
        <ele>623.0</ele>
        <time>2010-08-26T15:54:18Z</time>
      </trkpt>
      <trkpt lat="41.787767" lon="-8.160550">
        <ele>624.0</ele>
        <time>2010-08-26T15:54:19Z</time>
      </trkpt>
      <trkpt lat="41.787783" lon="-8.160517">
        <ele>624.0</ele>
        <time>2010-08-26T15:54:20Z</time>
      </trkpt>
      <trkpt lat="41.787800" lon="-8.160483">
        <ele>624.0</ele>
        <time>2010-08-26T15:54:21Z</time>
      </trkpt>
      <trkpt lat="41.787800" lon="-8.160433">
        <ele>624.0</ele>
        <time>2010-08-26T15:54:22Z</time>
      </trkpt>
      <trkpt lat="41.787817" lon="-8.160400">
        <ele>625.0</ele>
        <time>2010-08-26T15:54:23Z</time>
      </trkpt>
      <trkpt lat="41.787833" lon="-8.160367">
        <ele>625.0</ele>
        <time>2010-08-26T15:54:24Z</time>
      </trkpt>
      <trkpt lat="41.787850" lon="-8.160333">
        <ele>625.0</ele>
        <time>2010-08-26T15:54:25Z</time>
      </trkpt>
      <trkpt lat="41.787867" lon="-8.160283">
        <ele>625.0</ele>
        <time>2010-08-26T15:54:26Z</time>
      </trkpt>
      <trkpt lat="41.787867" lon="-8.160250">
        <ele>626.0</ele>
        <time>2010-08-26T15:54:27Z</time>
      </trkpt>
      <trkpt lat="41.787883" lon="-8.160217">
        <ele>626.0</ele>
        <time>2010-08-26T15:54:28Z</time>
      </trkpt>
      <trkpt lat="41.787900" lon="-8.160183">
        <ele>626.0</ele>
        <time>2010-08-26T15:54:29Z</time>
      </trkpt>
      <trkpt lat="41.787917" lon="-8.160150">
        <ele>626.0</ele>
        <time>2010-08-26T15:54:30Z</time>
      </trkpt>
      <trkpt lat="41.787933" lon="-8.160117">
        <ele>626.0</ele>
        <time>2010-08-26T15:54:31Z</time>
      </trkpt>
      <trkpt lat="41.787967" lon="-8.160083">
        <ele>626.0</ele>
        <time>2010-08-26T15:54:32Z</time>
      </trkpt>
      <trkpt lat="41.787983" lon="-8.160067">
        <ele>625.0</ele>
        <time>2010-08-26T15:54:33Z</time>
      </trkpt>
      <trkpt lat="41.788017" lon="-8.160033">
        <ele>625.0</ele>
        <time>2010-08-26T15:54:35Z</time>
      </trkpt>
      <trkpt lat="41.788050" lon="-8.160000">
        <ele>625.0</ele>
        <time>2010-08-26T15:54:38Z</time>
      </trkpt>
      <trkpt lat="41.788083" lon="-8.159967">
        <ele>624.0</ele>
        <time>2010-08-26T15:54:43Z</time>
      </trkpt>
      <trkpt lat="41.788133" lon="-8.159967">
        <ele>625.0</ele>
        <time>2010-08-26T15:54:53Z</time>
      </trkpt>
      <trkpt lat="41.788150" lon="-8.159917">
        <ele>626.0</ele>
        <time>2010-08-26T15:55:08Z</time>
      </trkpt>
      <trkpt lat="41.788200" lon="-8.159933">
        <ele>635.0</ele>
        <time>2010-08-26T15:55:58Z</time>
      </trkpt>
      <trkpt lat="41.788233" lon="-8.159917">
        <ele>636.0</ele>
        <time>2010-08-26T15:56:02Z</time>
      </trkpt>
      <trkpt lat="41.788200" lon="-8.159867">
        <ele>630.0</ele>
        <time>2010-08-26T15:56:36Z</time>
      </trkpt>
      <trkpt lat="41.788233" lon="-8.159883">
        <ele>627.0</ele>
        <time>2010-08-26T15:56:57Z</time>
      </trkpt>
      <trkpt lat="41.788283" lon="-8.159917">
        <ele>627.0</ele>
        <time>2010-08-26T15:56:59Z</time>
      </trkpt>
      <trkpt lat="41.788317" lon="-8.159933">
        <ele>627.0</ele>
        <time>2010-08-26T15:57:01Z</time>
      </trkpt>
      <trkpt lat="41.788350" lon="-8.159950">
        <ele>628.0</ele>
        <time>2010-08-26T15:57:03Z</time>
      </trkpt>
      <trkpt lat="41.788383" lon="-8.159967">
        <ele>628.0</ele>
        <time>2010-08-26T15:57:05Z</time>
      </trkpt>
      <trkpt lat="41.788417" lon="-8.159983">
        <ele>629.0</ele>
        <time>2010-08-26T15:57:07Z</time>
      </trkpt>
      <trkpt lat="41.788467" lon="-8.159983">
        <ele>629.0</ele>
        <time>2010-08-26T15:57:09Z</time>
      </trkpt>
      <trkpt lat="41.788500" lon="-8.159967">
        <ele>629.0</ele>
        <time>2010-08-26T15:57:11Z</time>
      </trkpt>
      <trkpt lat="41.788533" lon="-8.159967">
        <ele>629.0</ele>
        <time>2010-08-26T15:57:13Z</time>
      </trkpt>
      <trkpt lat="41.788567" lon="-8.159933">
        <ele>629.0</ele>
        <time>2010-08-26T15:57:15Z</time>
      </trkpt>
      <trkpt lat="41.788600" lon="-8.159900">
        <ele>629.0</ele>
        <time>2010-08-26T15:57:17Z</time>
      </trkpt>
      <trkpt lat="41.788633" lon="-8.159867">
        <ele>628.0</ele>
        <time>2010-08-26T15:57:19Z</time>
      </trkpt>
      <trkpt lat="41.788650" lon="-8.159817">
        <ele>628.0</ele>
        <time>2010-08-26T15:57:21Z</time>
      </trkpt>
      <trkpt lat="41.788683" lon="-8.159767">
        <ele>628.0</ele>
        <time>2010-08-26T15:57:23Z</time>
      </trkpt>
      <trkpt lat="41.788700" lon="-8.159717">
        <ele>628.0</ele>
        <time>2010-08-26T15:57:25Z</time>
      </trkpt>
      <trkpt lat="41.788717" lon="-8.159683">
        <ele>628.0</ele>
        <time>2010-08-26T15:57:27Z</time>
      </trkpt>
      <trkpt lat="41.788733" lon="-8.159650">
        <ele>628.0</ele>
        <time>2010-08-26T15:57:28Z</time>
      </trkpt>
      <trkpt lat="41.788750" lon="-8.159633">
        <ele>627.0</ele>
        <time>2010-08-26T15:57:29Z</time>
      </trkpt>
      <trkpt lat="41.788767" lon="-8.159600">
        <ele>627.0</ele>
        <time>2010-08-26T15:57:30Z</time>
      </trkpt>
      <trkpt lat="41.788783" lon="-8.159567">
        <ele>627.0</ele>
        <time>2010-08-26T15:57:31Z</time>
      </trkpt>
      <trkpt lat="41.788800" lon="-8.159533">
        <ele>627.0</ele>
        <time>2010-08-26T15:57:33Z</time>
      </trkpt>
      <trkpt lat="41.788833" lon="-8.159483">
        <ele>627.0</ele>
        <time>2010-08-26T15:57:35Z</time>
      </trkpt>
      <trkpt lat="41.788850" lon="-8.159467">
        <ele>627.0</ele>
        <time>2010-08-26T15:57:36Z</time>
      </trkpt>
      <trkpt lat="41.788867" lon="-8.159433">
        <ele>627.0</ele>
        <time>2010-08-26T15:57:37Z</time>
      </trkpt>
      <trkpt lat="41.788883" lon="-8.159417">
        <ele>627.0</ele>
        <time>2010-08-26T15:57:38Z</time>
      </trkpt>
      <trkpt lat="41.788900" lon="-8.159400">
        <ele>627.0</ele>
        <time>2010-08-26T15:57:39Z</time>
      </trkpt>
      <trkpt lat="41.788933" lon="-8.159383">
        <ele>627.0</ele>
        <time>2010-08-26T15:57:40Z</time>
      </trkpt>
      <trkpt lat="41.788950" lon="-8.159367">
        <ele>627.0</ele>
        <time>2010-08-26T15:57:41Z</time>
      </trkpt>
      <trkpt lat="41.788967" lon="-8.159350">
        <ele>627.0</ele>
        <time>2010-08-26T15:57:42Z</time>
      </trkpt>
      <trkpt lat="41.789000" lon="-8.159333">
        <ele>627.0</ele>
        <time>2010-08-26T15:57:43Z</time>
      </trkpt>
      <trkpt lat="41.789017" lon="-8.159317">
        <ele>627.0</ele>
        <time>2010-08-26T15:57:44Z</time>
      </trkpt>
      <trkpt lat="41.789033" lon="-8.159300">
        <ele>627.0</ele>
        <time>2010-08-26T15:57:45Z</time>
      </trkpt>
      <trkpt lat="41.789050" lon="-8.159283">
        <ele>627.0</ele>
        <time>2010-08-26T15:57:46Z</time>
      </trkpt>
      <trkpt lat="41.789067" lon="-8.159250">
        <ele>627.0</ele>
        <time>2010-08-26T15:57:47Z</time>
      </trkpt>
      <trkpt lat="41.789100" lon="-8.159233">
        <ele>628.0</ele>
        <time>2010-08-26T15:57:48Z</time>
      </trkpt>
      <trkpt lat="41.789117" lon="-8.159200">
        <ele>628.0</ele>
        <time>2010-08-26T15:57:49Z</time>
      </trkpt>
      <trkpt lat="41.789133" lon="-8.159183">
        <ele>628.0</ele>
        <time>2010-08-26T15:57:50Z</time>
      </trkpt>
      <trkpt lat="41.789150" lon="-8.159150">
        <ele>628.0</ele>
        <time>2010-08-26T15:57:51Z</time>
      </trkpt>
      <trkpt lat="41.789167" lon="-8.159117">
        <ele>628.0</ele>
        <time>2010-08-26T15:57:52Z</time>
      </trkpt>
      <trkpt lat="41.789200" lon="-8.159083">
        <ele>628.0</ele>
        <time>2010-08-26T15:57:53Z</time>
      </trkpt>
      <trkpt lat="41.789217" lon="-8.159050">
        <ele>627.0</ele>
        <time>2010-08-26T15:57:54Z</time>
      </trkpt>
      <trkpt lat="41.789233" lon="-8.159000">
        <ele>627.0</ele>
        <time>2010-08-26T15:57:55Z</time>
      </trkpt>
      <trkpt lat="41.789250" lon="-8.158967">
        <ele>627.0</ele>
        <time>2010-08-26T15:57:56Z</time>
      </trkpt>
      <trkpt lat="41.789283" lon="-8.158933">
        <ele>626.0</ele>
        <time>2010-08-26T15:57:57Z</time>
      </trkpt>
      <trkpt lat="41.789317" lon="-8.158900">
        <ele>626.0</ele>
        <time>2010-08-26T15:57:58Z</time>
      </trkpt>
      <trkpt lat="41.789333" lon="-8.158867">
        <ele>625.0</ele>
        <time>2010-08-26T15:57:59Z</time>
      </trkpt>
      <trkpt lat="41.789367" lon="-8.158833">
        <ele>625.0</ele>
        <time>2010-08-26T15:58:00Z</time>
      </trkpt>
      <trkpt lat="41.789383" lon="-8.158800">
        <ele>625.0</ele>
        <time>2010-08-26T15:58:01Z</time>
      </trkpt>
      <trkpt lat="41.789417" lon="-8.158767">
        <ele>624.0</ele>
        <time>2010-08-26T15:58:02Z</time>
      </trkpt>
      <trkpt lat="41.789450" lon="-8.158750">
        <ele>624.0</ele>
        <time>2010-08-26T15:58:03Z</time>
      </trkpt>
      <trkpt lat="41.789467" lon="-8.158717">
        <ele>624.0</ele>
        <time>2010-08-26T15:58:04Z</time>
      </trkpt>
      <trkpt lat="41.789500" lon="-8.158700">
        <ele>624.0</ele>
        <time>2010-08-26T15:58:05Z</time>
      </trkpt>
      <trkpt lat="41.789517" lon="-8.158667">
        <ele>623.0</ele>
        <time>2010-08-26T15:58:06Z</time>
      </trkpt>
      <trkpt lat="41.789533" lon="-8.158633">
        <ele>623.0</ele>
        <time>2010-08-26T15:58:07Z</time>
      </trkpt>
      <trkpt lat="41.789533" lon="-8.158617">
        <ele>623.0</ele>
        <time>2010-08-26T15:58:08Z</time>
      </trkpt>
      <trkpt lat="41.789550" lon="-8.158583">
        <ele>623.0</ele>
        <time>2010-08-26T15:58:09Z</time>
      </trkpt>
      <trkpt lat="41.789583" lon="-8.158550">
        <ele>623.0</ele>
        <time>2010-08-26T15:58:10Z</time>
      </trkpt>
      <trkpt lat="41.789600" lon="-8.158517">
        <ele>623.0</ele>
        <time>2010-08-26T15:58:11Z</time>
      </trkpt>
      <trkpt lat="41.789617" lon="-8.158483">
        <ele>623.0</ele>
        <time>2010-08-26T15:58:12Z</time>
      </trkpt>
      <trkpt lat="41.789650" lon="-8.158467">
        <ele>623.0</ele>
        <time>2010-08-26T15:58:13Z</time>
      </trkpt>
      <trkpt lat="41.789667" lon="-8.158433">
        <ele>623.0</ele>
        <time>2010-08-26T15:58:14Z</time>
      </trkpt>
      <trkpt lat="41.789683" lon="-8.158400">
        <ele>623.0</ele>
        <time>2010-08-26T15:58:15Z</time>
      </trkpt>
      <trkpt lat="41.789700" lon="-8.158367">
        <ele>623.0</ele>
        <time>2010-08-26T15:58:16Z</time>
      </trkpt>
      <trkpt lat="41.789717" lon="-8.158333">
        <ele>623.0</ele>
        <time>2010-08-26T15:58:17Z</time>
      </trkpt>
      <trkpt lat="41.789733" lon="-8.158300">
        <ele>623.0</ele>
        <time>2010-08-26T15:58:18Z</time>
      </trkpt>
      <trkpt lat="41.789750" lon="-8.158267">
        <ele>623.0</ele>
        <time>2010-08-26T15:58:19Z</time>
      </trkpt>
      <trkpt lat="41.789750" lon="-8.158250">
        <ele>623.0</ele>
        <time>2010-08-26T15:58:20Z</time>
      </trkpt>
      <trkpt lat="41.789767" lon="-8.158217">
        <ele>623.0</ele>
        <time>2010-08-26T15:58:21Z</time>
      </trkpt>
      <trkpt lat="41.789783" lon="-8.158183">
        <ele>623.0</ele>
        <time>2010-08-26T15:58:22Z</time>
      </trkpt>
      <trkpt lat="41.789800" lon="-8.158150">
        <ele>623.0</ele>
        <time>2010-08-26T15:58:23Z</time>
      </trkpt>
      <trkpt lat="41.789817" lon="-8.158117">
        <ele>623.0</ele>
        <time>2010-08-26T15:58:24Z</time>
      </trkpt>
      <trkpt lat="41.789833" lon="-8.158083">
        <ele>623.0</ele>
        <time>2010-08-26T15:58:25Z</time>
      </trkpt>
      <trkpt lat="41.789833" lon="-8.158050">
        <ele>623.0</ele>
        <time>2010-08-26T15:58:26Z</time>
      </trkpt>
      <trkpt lat="41.789850" lon="-8.158000">
        <ele>623.0</ele>
        <time>2010-08-26T15:58:27Z</time>
      </trkpt>
      <trkpt lat="41.789867" lon="-8.157967">
        <ele>623.0</ele>
        <time>2010-08-26T15:58:28Z</time>
      </trkpt>
      <trkpt lat="41.789883" lon="-8.157933">
        <ele>623.0</ele>
        <time>2010-08-26T15:58:29Z</time>
      </trkpt>
      <trkpt lat="41.789900" lon="-8.157900">
        <ele>623.0</ele>
        <time>2010-08-26T15:58:30Z</time>
      </trkpt>
      <trkpt lat="41.789900" lon="-8.157867">
        <ele>623.0</ele>
        <time>2010-08-26T15:58:31Z</time>
      </trkpt>
      <trkpt lat="41.789917" lon="-8.157833">
        <ele>623.0</ele>
        <time>2010-08-26T15:58:32Z</time>
      </trkpt>
      <trkpt lat="41.789933" lon="-8.157800">
        <ele>623.0</ele>
        <time>2010-08-26T15:58:33Z</time>
      </trkpt>
      <trkpt lat="41.789933" lon="-8.157767">
        <ele>624.0</ele>
        <time>2010-08-26T15:58:34Z</time>
      </trkpt>
      <trkpt lat="41.789950" lon="-8.157733">
        <ele>624.0</ele>
        <time>2010-08-26T15:58:35Z</time>
      </trkpt>
      <trkpt lat="41.789950" lon="-8.157700">
        <ele>624.0</ele>
        <time>2010-08-26T15:58:36Z</time>
      </trkpt>
      <trkpt lat="41.789967" lon="-8.157667">
        <ele>624.0</ele>
        <time>2010-08-26T15:58:37Z</time>
      </trkpt>
      <trkpt lat="41.789967" lon="-8.157633">
        <ele>624.0</ele>
        <time>2010-08-26T15:58:38Z</time>
      </trkpt>
      <trkpt lat="41.789983" lon="-8.157600">
        <ele>624.0</ele>
        <time>2010-08-26T15:58:39Z</time>
      </trkpt>
      <trkpt lat="41.790000" lon="-8.157567">
        <ele>625.0</ele>
        <time>2010-08-26T15:58:40Z</time>
      </trkpt>
      <trkpt lat="41.790000" lon="-8.157517">
        <ele>625.0</ele>
        <time>2010-08-26T15:58:41Z</time>
      </trkpt>
      <trkpt lat="41.790000" lon="-8.157483">
        <ele>625.0</ele>
        <time>2010-08-26T15:58:42Z</time>
      </trkpt>
      <trkpt lat="41.790000" lon="-8.157450">
        <ele>625.0</ele>
        <time>2010-08-26T15:58:43Z</time>
      </trkpt>
      <trkpt lat="41.789983" lon="-8.157417">
        <ele>625.0</ele>
        <time>2010-08-26T15:58:44Z</time>
      </trkpt>
      <trkpt lat="41.789967" lon="-8.157383">
        <ele>626.0</ele>
        <time>2010-08-26T15:58:45Z</time>
      </trkpt>
      <trkpt lat="41.789967" lon="-8.157350">
        <ele>626.0</ele>
        <time>2010-08-26T15:58:46Z</time>
      </trkpt>
      <trkpt lat="41.789967" lon="-8.157317">
        <ele>627.0</ele>
        <time>2010-08-26T15:58:47Z</time>
      </trkpt>
      <trkpt lat="41.789967" lon="-8.157283">
        <ele>627.0</ele>
        <time>2010-08-26T15:58:48Z</time>
      </trkpt>
      <trkpt lat="41.789967" lon="-8.157233">
        <ele>628.0</ele>
        <time>2010-08-26T15:58:50Z</time>
      </trkpt>
      <trkpt lat="41.789967" lon="-8.157183">
        <ele>630.0</ele>
        <time>2010-08-26T15:58:52Z</time>
      </trkpt>
      <trkpt lat="41.789983" lon="-8.157150">
        <ele>630.0</ele>
        <time>2010-08-26T15:58:53Z</time>
      </trkpt>
      <trkpt lat="41.790000" lon="-8.157117">
        <ele>630.0</ele>
        <time>2010-08-26T15:58:54Z</time>
      </trkpt>
      <trkpt lat="41.790000" lon="-8.157100">
        <ele>630.0</ele>
        <time>2010-08-26T15:58:55Z</time>
      </trkpt>
      <trkpt lat="41.790017" lon="-8.157067">
        <ele>631.0</ele>
        <time>2010-08-26T15:58:56Z</time>
      </trkpt>
      <trkpt lat="41.790033" lon="-8.157050">
        <ele>631.0</ele>
        <time>2010-08-26T15:58:57Z</time>
      </trkpt>
      <trkpt lat="41.790050" lon="-8.157017">
        <ele>632.0</ele>
        <time>2010-08-26T15:58:58Z</time>
      </trkpt>
      <trkpt lat="41.790067" lon="-8.156983">
        <ele>632.0</ele>
        <time>2010-08-26T15:58:59Z</time>
      </trkpt>
      <trkpt lat="41.790083" lon="-8.156950">
        <ele>632.0</ele>
        <time>2010-08-26T15:59:00Z</time>
      </trkpt>
      <trkpt lat="41.790100" lon="-8.156917">
        <ele>632.0</ele>
        <time>2010-08-26T15:59:01Z</time>
      </trkpt>
      <trkpt lat="41.790100" lon="-8.156900">
        <ele>633.0</ele>
        <time>2010-08-26T15:59:02Z</time>
      </trkpt>
      <trkpt lat="41.790117" lon="-8.156867">
        <ele>633.0</ele>
        <time>2010-08-26T15:59:03Z</time>
      </trkpt>
      <trkpt lat="41.790133" lon="-8.156833">
        <ele>633.0</ele>
        <time>2010-08-26T15:59:04Z</time>
      </trkpt>
      <trkpt lat="41.790167" lon="-8.156817">
        <ele>633.0</ele>
        <time>2010-08-26T15:59:05Z</time>
      </trkpt>
      <trkpt lat="41.790183" lon="-8.156783">
        <ele>634.0</ele>
        <time>2010-08-26T15:59:06Z</time>
      </trkpt>
      <trkpt lat="41.790200" lon="-8.156767">
        <ele>634.0</ele>
        <time>2010-08-26T15:59:07Z</time>
      </trkpt>
      <trkpt lat="41.790233" lon="-8.156733">
        <ele>634.0</ele>
        <time>2010-08-26T15:59:08Z</time>
      </trkpt>
      <trkpt lat="41.790250" lon="-8.156700">
        <ele>634.0</ele>
        <time>2010-08-26T15:59:09Z</time>
      </trkpt>
      <trkpt lat="41.790283" lon="-8.156683">
        <ele>634.0</ele>
        <time>2010-08-26T15:59:10Z</time>
      </trkpt>
      <trkpt lat="41.790300" lon="-8.156650">
        <ele>633.0</ele>
        <time>2010-08-26T15:59:11Z</time>
      </trkpt>
      <trkpt lat="41.790317" lon="-8.156633">
        <ele>634.0</ele>
        <time>2010-08-26T15:59:12Z</time>
      </trkpt>
      <trkpt lat="41.790350" lon="-8.156600">
        <ele>634.0</ele>
        <time>2010-08-26T15:59:13Z</time>
      </trkpt>
      <trkpt lat="41.790367" lon="-8.156567">
        <ele>634.0</ele>
        <time>2010-08-26T15:59:14Z</time>
      </trkpt>
      <trkpt lat="41.790383" lon="-8.156533">
        <ele>634.0</ele>
        <time>2010-08-26T15:59:15Z</time>
      </trkpt>
      <trkpt lat="41.790400" lon="-8.156500">
        <ele>633.0</ele>
        <time>2010-08-26T15:59:16Z</time>
      </trkpt>
      <trkpt lat="41.790417" lon="-8.156467">
        <ele>634.0</ele>
        <time>2010-08-26T15:59:17Z</time>
      </trkpt>
      <trkpt lat="41.790433" lon="-8.156433">
        <ele>634.0</ele>
        <time>2010-08-26T15:59:18Z</time>
      </trkpt>
      <trkpt lat="41.790467" lon="-8.156400">
        <ele>634.0</ele>
        <time>2010-08-26T15:59:19Z</time>
      </trkpt>
      <trkpt lat="41.790483" lon="-8.156367">
        <ele>634.0</ele>
        <time>2010-08-26T15:59:20Z</time>
      </trkpt>
      <trkpt lat="41.790500" lon="-8.156333">
        <ele>634.0</ele>
        <time>2010-08-26T15:59:21Z</time>
      </trkpt>
      <trkpt lat="41.790500" lon="-8.156317">
        <ele>634.0</ele>
        <time>2010-08-26T15:59:22Z</time>
      </trkpt>
      <trkpt lat="41.790517" lon="-8.156283">
        <ele>634.0</ele>
        <time>2010-08-26T15:59:23Z</time>
      </trkpt>
      <trkpt lat="41.790533" lon="-8.156250">
        <ele>634.0</ele>
        <time>2010-08-26T15:59:24Z</time>
      </trkpt>
      <trkpt lat="41.790550" lon="-8.156217">
        <ele>634.0</ele>
        <time>2010-08-26T15:59:25Z</time>
      </trkpt>
      <trkpt lat="41.790550" lon="-8.156183">
        <ele>634.0</ele>
        <time>2010-08-26T15:59:26Z</time>
      </trkpt>
      <trkpt lat="41.790567" lon="-8.156150">
        <ele>634.0</ele>
        <time>2010-08-26T15:59:27Z</time>
      </trkpt>
      <trkpt lat="41.790583" lon="-8.156117">
        <ele>634.0</ele>
        <time>2010-08-26T15:59:28Z</time>
      </trkpt>
      <trkpt lat="41.790583" lon="-8.156067">
        <ele>634.0</ele>
        <time>2010-08-26T15:59:29Z</time>
      </trkpt>
      <trkpt lat="41.790600" lon="-8.156033">
        <ele>634.0</ele>
        <time>2010-08-26T15:59:30Z</time>
      </trkpt>
      <trkpt lat="41.790600" lon="-8.156000">
        <ele>634.0</ele>
        <time>2010-08-26T15:59:31Z</time>
      </trkpt>
      <trkpt lat="41.790600" lon="-8.155967">
        <ele>634.0</ele>
        <time>2010-08-26T15:59:32Z</time>
      </trkpt>
      <trkpt lat="41.790617" lon="-8.155933">
        <ele>634.0</ele>
        <time>2010-08-26T15:59:33Z</time>
      </trkpt>
      <trkpt lat="41.790617" lon="-8.155900">
        <ele>634.0</ele>
        <time>2010-08-26T15:59:34Z</time>
      </trkpt>
      <trkpt lat="41.790633" lon="-8.155850">
        <ele>634.0</ele>
        <time>2010-08-26T15:59:35Z</time>
      </trkpt>
      <trkpt lat="41.790633" lon="-8.155817">
        <ele>634.0</ele>
        <time>2010-08-26T15:59:36Z</time>
      </trkpt>
      <trkpt lat="41.790650" lon="-8.155783">
        <ele>633.0</ele>
        <time>2010-08-26T15:59:37Z</time>
      </trkpt>
      <trkpt lat="41.790650" lon="-8.155733">
        <ele>633.0</ele>
        <time>2010-08-26T15:59:38Z</time>
      </trkpt>
      <trkpt lat="41.790667" lon="-8.155700">
        <ele>633.0</ele>
        <time>2010-08-26T15:59:39Z</time>
      </trkpt>
      <trkpt lat="41.790667" lon="-8.155667">
        <ele>633.0</ele>
        <time>2010-08-26T15:59:40Z</time>
      </trkpt>
      <trkpt lat="41.790683" lon="-8.155617">
        <ele>632.0</ele>
        <time>2010-08-26T15:59:41Z</time>
      </trkpt>
      <trkpt lat="41.790683" lon="-8.155583">
        <ele>632.0</ele>
        <time>2010-08-26T15:59:42Z</time>
      </trkpt>
      <trkpt lat="41.790700" lon="-8.155533">
        <ele>632.0</ele>
        <time>2010-08-26T15:59:43Z</time>
      </trkpt>
      <trkpt lat="41.790700" lon="-8.155500">
        <ele>632.0</ele>
        <time>2010-08-26T15:59:44Z</time>
      </trkpt>
      <trkpt lat="41.790700" lon="-8.155467">
        <ele>632.0</ele>
        <time>2010-08-26T15:59:45Z</time>
      </trkpt>
      <trkpt lat="41.790700" lon="-8.155433">
        <ele>632.0</ele>
        <time>2010-08-26T15:59:46Z</time>
      </trkpt>
      <trkpt lat="41.790683" lon="-8.155383">
        <ele>632.0</ele>
        <time>2010-08-26T15:59:47Z</time>
      </trkpt>
      <trkpt lat="41.790683" lon="-8.155350">
        <ele>632.0</ele>
        <time>2010-08-26T15:59:48Z</time>
      </trkpt>
      <trkpt lat="41.790683" lon="-8.155317">
        <ele>633.0</ele>
        <time>2010-08-26T15:59:49Z</time>
      </trkpt>
      <trkpt lat="41.790650" lon="-8.155283">
        <ele>633.0</ele>
        <time>2010-08-26T15:59:50Z</time>
      </trkpt>
      <trkpt lat="41.790633" lon="-8.155250">
        <ele>633.0</ele>
        <time>2010-08-26T15:59:51Z</time>
      </trkpt>
      <trkpt lat="41.790617" lon="-8.155217">
        <ele>633.0</ele>
        <time>2010-08-26T15:59:52Z</time>
      </trkpt>
      <trkpt lat="41.790600" lon="-8.155183">
        <ele>633.0</ele>
        <time>2010-08-26T15:59:53Z</time>
      </trkpt>
      <trkpt lat="41.790583" lon="-8.155150">
        <ele>633.0</ele>
        <time>2010-08-26T15:59:54Z</time>
      </trkpt>
      <trkpt lat="41.790567" lon="-8.155117">
        <ele>633.0</ele>
        <time>2010-08-26T15:59:55Z</time>
      </trkpt>
      <trkpt lat="41.790567" lon="-8.155083">
        <ele>633.0</ele>
        <time>2010-08-26T15:59:56Z</time>
      </trkpt>
      <trkpt lat="41.790550" lon="-8.155050">
        <ele>633.0</ele>
        <time>2010-08-26T15:59:57Z</time>
      </trkpt>
      <trkpt lat="41.790550" lon="-8.155017">
        <ele>633.0</ele>
        <time>2010-08-26T15:59:58Z</time>
      </trkpt>
      <trkpt lat="41.790550" lon="-8.154983">
        <ele>634.0</ele>
        <time>2010-08-26T15:59:59Z</time>
      </trkpt>
      <trkpt lat="41.790533" lon="-8.154950">
        <ele>634.0</ele>
        <time>2010-08-26T16:00:00Z</time>
      </trkpt>
      <trkpt lat="41.790533" lon="-8.154933">
        <ele>634.0</ele>
        <time>2010-08-26T16:00:01Z</time>
      </trkpt>
      <trkpt lat="41.790517" lon="-8.154900">
        <ele>635.0</ele>
        <time>2010-08-26T16:00:02Z</time>
      </trkpt>
      <trkpt lat="41.790500" lon="-8.154867">
        <ele>635.0</ele>
        <time>2010-08-26T16:00:03Z</time>
      </trkpt>
      <trkpt lat="41.790500" lon="-8.154833">
        <ele>635.0</ele>
        <time>2010-08-26T16:00:04Z</time>
      </trkpt>
      <trkpt lat="41.790483" lon="-8.154800">
        <ele>636.0</ele>
        <time>2010-08-26T16:00:05Z</time>
      </trkpt>
      <trkpt lat="41.790467" lon="-8.154767">
        <ele>636.0</ele>
        <time>2010-08-26T16:00:06Z</time>
      </trkpt>
      <trkpt lat="41.790467" lon="-8.154733">
        <ele>637.0</ele>
        <time>2010-08-26T16:00:07Z</time>
      </trkpt>
      <trkpt lat="41.790450" lon="-8.154700">
        <ele>637.0</ele>
        <time>2010-08-26T16:00:08Z</time>
      </trkpt>
      <trkpt lat="41.790450" lon="-8.154667">
        <ele>637.0</ele>
        <time>2010-08-26T16:00:09Z</time>
      </trkpt>
      <trkpt lat="41.790450" lon="-8.154633">
        <ele>638.0</ele>
        <time>2010-08-26T16:00:10Z</time>
      </trkpt>
      <trkpt lat="41.790433" lon="-8.154600">
        <ele>638.0</ele>
        <time>2010-08-26T16:00:11Z</time>
      </trkpt>
      <trkpt lat="41.790417" lon="-8.154583">
        <ele>638.0</ele>
        <time>2010-08-26T16:00:12Z</time>
      </trkpt>
      <trkpt lat="41.790400" lon="-8.154550">
        <ele>638.0</ele>
        <time>2010-08-26T16:00:13Z</time>
      </trkpt>
      <trkpt lat="41.790367" lon="-8.154517">
        <ele>638.0</ele>
        <time>2010-08-26T16:00:14Z</time>
      </trkpt>
      <trkpt lat="41.790350" lon="-8.154500">
        <ele>637.0</ele>
        <time>2010-08-26T16:00:15Z</time>
      </trkpt>
      <trkpt lat="41.790333" lon="-8.154467">
        <ele>637.0</ele>
        <time>2010-08-26T16:00:16Z</time>
      </trkpt>
      <trkpt lat="41.790300" lon="-8.154433">
        <ele>637.0</ele>
        <time>2010-08-26T16:00:17Z</time>
      </trkpt>
      <trkpt lat="41.790283" lon="-8.154400">
        <ele>637.0</ele>
        <time>2010-08-26T16:00:18Z</time>
      </trkpt>
      <trkpt lat="41.790250" lon="-8.154367">
        <ele>637.0</ele>
        <time>2010-08-26T16:00:19Z</time>
      </trkpt>
      <trkpt lat="41.790200" lon="-8.154333">
        <ele>637.0</ele>
        <time>2010-08-26T16:00:20Z</time>
      </trkpt>
      <trkpt lat="41.790167" lon="-8.154317">
        <ele>636.0</ele>
        <time>2010-08-26T16:00:21Z</time>
      </trkpt>
      <trkpt lat="41.790133" lon="-8.154283">
        <ele>636.0</ele>
        <time>2010-08-26T16:00:22Z</time>
      </trkpt>
      <trkpt lat="41.790100" lon="-8.154267">
        <ele>636.0</ele>
        <time>2010-08-26T16:00:23Z</time>
      </trkpt>
      <trkpt lat="41.790067" lon="-8.154233">
        <ele>636.0</ele>
        <time>2010-08-26T16:00:24Z</time>
      </trkpt>
      <trkpt lat="41.790050" lon="-8.154200">
        <ele>636.0</ele>
        <time>2010-08-26T16:00:25Z</time>
      </trkpt>
      <trkpt lat="41.790033" lon="-8.154167">
        <ele>635.0</ele>
        <time>2010-08-26T16:00:26Z</time>
      </trkpt>
      <trkpt lat="41.790017" lon="-8.154150">
        <ele>635.0</ele>
        <time>2010-08-26T16:00:27Z</time>
      </trkpt>
      <trkpt lat="41.790000" lon="-8.154117">
        <ele>635.0</ele>
        <time>2010-08-26T16:00:28Z</time>
      </trkpt>
      <trkpt lat="41.789967" lon="-8.154100">
        <ele>634.0</ele>
        <time>2010-08-26T16:00:29Z</time>
      </trkpt>
      <trkpt lat="41.789967" lon="-8.154050">
        <ele>634.0</ele>
        <time>2010-08-26T16:00:31Z</time>
      </trkpt>
      <trkpt lat="41.789983" lon="-8.154000">
        <ele>633.0</ele>
        <time>2010-08-26T16:00:34Z</time>
      </trkpt>
      <trkpt lat="41.790000" lon="-8.153983">
        <ele>633.0</ele>
        <time>2010-08-26T16:00:36Z</time>
      </trkpt>
      <trkpt lat="41.790033" lon="-8.153983">
        <ele>633.0</ele>
        <time>2010-08-26T16:00:37Z</time>
      </trkpt>
      <trkpt lat="41.790050" lon="-8.154000">
        <ele>632.0</ele>
        <time>2010-08-26T16:00:38Z</time>
      </trkpt>
      <trkpt lat="41.790083" lon="-8.154000">
        <ele>632.0</ele>
        <time>2010-08-26T16:00:39Z</time>
      </trkpt>
      <trkpt lat="41.790117" lon="-8.154000">
        <ele>632.0</ele>
        <time>2010-08-26T16:00:40Z</time>
      </trkpt>
      <trkpt lat="41.790167" lon="-8.153983">
        <ele>632.0</ele>
        <time>2010-08-26T16:00:41Z</time>
      </trkpt>
      <trkpt lat="41.790200" lon="-8.153967">
        <ele>632.0</ele>
        <time>2010-08-26T16:00:42Z</time>
      </trkpt>
      <trkpt lat="41.790233" lon="-8.153933">
        <ele>632.0</ele>
        <time>2010-08-26T16:00:43Z</time>
      </trkpt>
      <trkpt lat="41.790283" lon="-8.153900">
        <ele>633.0</ele>
        <time>2010-08-26T16:00:44Z</time>
      </trkpt>
      <trkpt lat="41.790350" lon="-8.153883">
        <ele>633.0</ele>
        <time>2010-08-26T16:00:45Z</time>
      </trkpt>
      <trkpt lat="41.790400" lon="-8.153850">
        <ele>633.0</ele>
        <time>2010-08-26T16:00:46Z</time>
      </trkpt>
      <trkpt lat="41.790450" lon="-8.153817">
        <ele>634.0</ele>
        <time>2010-08-26T16:00:47Z</time>
      </trkpt>
      <trkpt lat="41.790483" lon="-8.153800">
        <ele>634.0</ele>
        <time>2010-08-26T16:00:48Z</time>
      </trkpt>
      <trkpt lat="41.790533" lon="-8.153767">
        <ele>634.0</ele>
        <time>2010-08-26T16:00:49Z</time>
      </trkpt>
      <trkpt lat="41.790583" lon="-8.153750">
        <ele>635.0</ele>
        <time>2010-08-26T16:00:50Z</time>
      </trkpt>
      <trkpt lat="41.790633" lon="-8.153717">
        <ele>635.0</ele>
        <time>2010-08-26T16:00:51Z</time>
      </trkpt>
      <trkpt lat="41.790667" lon="-8.153683">
        <ele>635.0</ele>
        <time>2010-08-26T16:00:52Z</time>
      </trkpt>
      <trkpt lat="41.790717" lon="-8.153650">
        <ele>635.0</ele>
        <time>2010-08-26T16:00:53Z</time>
      </trkpt>
      <trkpt lat="41.790750" lon="-8.153617">
        <ele>636.0</ele>
        <time>2010-08-26T16:00:54Z</time>
      </trkpt>
      <trkpt lat="41.790800" lon="-8.153583">
        <ele>636.0</ele>
        <time>2010-08-26T16:00:55Z</time>
      </trkpt>
      <trkpt lat="41.790833" lon="-8.153550">
        <ele>636.0</ele>
        <time>2010-08-26T16:00:56Z</time>
      </trkpt>
      <trkpt lat="41.790867" lon="-8.153517">
        <ele>636.0</ele>
        <time>2010-08-26T16:00:57Z</time>
      </trkpt>
      <trkpt lat="41.790900" lon="-8.153483">
        <ele>637.0</ele>
        <time>2010-08-26T16:00:58Z</time>
      </trkpt>
      <trkpt lat="41.790933" lon="-8.153450">
        <ele>637.0</ele>
        <time>2010-08-26T16:00:59Z</time>
      </trkpt>
      <trkpt lat="41.790950" lon="-8.153417">
        <ele>637.0</ele>
        <time>2010-08-26T16:01:00Z</time>
      </trkpt>
      <trkpt lat="41.790983" lon="-8.153383">
        <ele>638.0</ele>
        <time>2010-08-26T16:01:01Z</time>
      </trkpt>
      <trkpt lat="41.791000" lon="-8.153350">
        <ele>638.0</ele>
        <time>2010-08-26T16:01:02Z</time>
      </trkpt>
      <trkpt lat="41.791017" lon="-8.153317">
        <ele>638.0</ele>
        <time>2010-08-26T16:01:03Z</time>
      </trkpt>
      <trkpt lat="41.791050" lon="-8.153300">
        <ele>638.0</ele>
        <time>2010-08-26T16:01:04Z</time>
      </trkpt>
      <trkpt lat="41.791067" lon="-8.153267">
        <ele>638.0</ele>
        <time>2010-08-26T16:01:05Z</time>
      </trkpt>
      <trkpt lat="41.791083" lon="-8.153233">
        <ele>638.0</ele>
        <time>2010-08-26T16:01:06Z</time>
      </trkpt>
      <trkpt lat="41.791100" lon="-8.153217">
        <ele>638.0</ele>
        <time>2010-08-26T16:01:07Z</time>
      </trkpt>
      <trkpt lat="41.791117" lon="-8.153183">
        <ele>638.0</ele>
        <time>2010-08-26T16:01:08Z</time>
      </trkpt>
      <trkpt lat="41.791150" lon="-8.153167">
        <ele>638.0</ele>
        <time>2010-08-26T16:01:09Z</time>
      </trkpt>
      <trkpt lat="41.791167" lon="-8.153133">
        <ele>638.0</ele>
        <time>2010-08-26T16:01:10Z</time>
      </trkpt>
      <trkpt lat="41.791183" lon="-8.153100">
        <ele>637.0</ele>
        <time>2010-08-26T16:01:11Z</time>
      </trkpt>
      <trkpt lat="41.791200" lon="-8.153067">
        <ele>637.0</ele>
        <time>2010-08-26T16:01:12Z</time>
      </trkpt>
      <trkpt lat="41.791217" lon="-8.153050">
        <ele>637.0</ele>
        <time>2010-08-26T16:01:13Z</time>
      </trkpt>
      <trkpt lat="41.791217" lon="-8.153000">
        <ele>637.0</ele>
        <time>2010-08-26T16:01:14Z</time>
      </trkpt>
      <trkpt lat="41.791233" lon="-8.152967">
        <ele>637.0</ele>
        <time>2010-08-26T16:01:15Z</time>
      </trkpt>
      <trkpt lat="41.791233" lon="-8.152933">
        <ele>636.0</ele>
        <time>2010-08-26T16:01:16Z</time>
      </trkpt>
      <trkpt lat="41.791250" lon="-8.152900">
        <ele>636.0</ele>
        <time>2010-08-26T16:01:17Z</time>
      </trkpt>
      <trkpt lat="41.791267" lon="-8.152867">
        <ele>636.0</ele>
        <time>2010-08-26T16:01:18Z</time>
      </trkpt>
      <trkpt lat="41.791283" lon="-8.152833">
        <ele>635.0</ele>
        <time>2010-08-26T16:01:19Z</time>
      </trkpt>
      <trkpt lat="41.791300" lon="-8.152800">
        <ele>635.0</ele>
        <time>2010-08-26T16:01:20Z</time>
      </trkpt>
      <trkpt lat="41.791333" lon="-8.152783">
        <ele>635.0</ele>
        <time>2010-08-26T16:01:21Z</time>
      </trkpt>
      <trkpt lat="41.791350" lon="-8.152750">
        <ele>635.0</ele>
        <time>2010-08-26T16:01:22Z</time>
      </trkpt>
      <trkpt lat="41.791383" lon="-8.152733">
        <ele>635.0</ele>
        <time>2010-08-26T16:01:23Z</time>
      </trkpt>
      <trkpt lat="41.791400" lon="-8.152717">
        <ele>635.0</ele>
        <time>2010-08-26T16:01:24Z</time>
      </trkpt>
      <trkpt lat="41.791433" lon="-8.152700">
        <ele>635.0</ele>
        <time>2010-08-26T16:01:25Z</time>
      </trkpt>
      <trkpt lat="41.791467" lon="-8.152683">
        <ele>635.0</ele>
        <time>2010-08-26T16:01:26Z</time>
      </trkpt>
      <trkpt lat="41.791483" lon="-8.152667">
        <ele>635.0</ele>
        <time>2010-08-26T16:01:27Z</time>
      </trkpt>
      <trkpt lat="41.791517" lon="-8.152650">
        <ele>636.0</ele>
        <time>2010-08-26T16:01:28Z</time>
      </trkpt>
      <trkpt lat="41.791533" lon="-8.152633">
        <ele>636.0</ele>
        <time>2010-08-26T16:01:29Z</time>
      </trkpt>
      <trkpt lat="41.791567" lon="-8.152617">
        <ele>636.0</ele>
        <time>2010-08-26T16:01:30Z</time>
      </trkpt>
      <trkpt lat="41.791583" lon="-8.152583">
        <ele>636.0</ele>
        <time>2010-08-26T16:01:31Z</time>
      </trkpt>
      <trkpt lat="41.791617" lon="-8.152550">
        <ele>637.0</ele>
        <time>2010-08-26T16:01:32Z</time>
      </trkpt>
      <trkpt lat="41.791633" lon="-8.152533">
        <ele>637.0</ele>
        <time>2010-08-26T16:01:33Z</time>
      </trkpt>
      <trkpt lat="41.791667" lon="-8.152500">
        <ele>637.0</ele>
        <time>2010-08-26T16:01:34Z</time>
      </trkpt>
      <trkpt lat="41.791683" lon="-8.152450">
        <ele>637.0</ele>
        <time>2010-08-26T16:01:35Z</time>
      </trkpt>
      <trkpt lat="41.791700" lon="-8.152400">
        <ele>637.0</ele>
        <time>2010-08-26T16:01:36Z</time>
      </trkpt>
      <trkpt lat="41.791717" lon="-8.152350">
        <ele>637.0</ele>
        <time>2010-08-26T16:01:37Z</time>
      </trkpt>
      <trkpt lat="41.791733" lon="-8.152300">
        <ele>637.0</ele>
        <time>2010-08-26T16:01:38Z</time>
      </trkpt>
      <trkpt lat="41.791733" lon="-8.152267">
        <ele>636.0</ele>
        <time>2010-08-26T16:01:39Z</time>
      </trkpt>
      <trkpt lat="41.791733" lon="-8.152217">
        <ele>636.0</ele>
        <time>2010-08-26T16:01:40Z</time>
      </trkpt>
      <trkpt lat="41.791750" lon="-8.152167">
        <ele>636.0</ele>
        <time>2010-08-26T16:01:41Z</time>
      </trkpt>
      <trkpt lat="41.791750" lon="-8.152133">
        <ele>636.0</ele>
        <time>2010-08-26T16:01:42Z</time>
      </trkpt>
      <trkpt lat="41.791767" lon="-8.152100">
        <ele>636.0</ele>
        <time>2010-08-26T16:01:43Z</time>
      </trkpt>
      <trkpt lat="41.791783" lon="-8.152067">
        <ele>636.0</ele>
        <time>2010-08-26T16:01:44Z</time>
      </trkpt>
      <trkpt lat="41.791800" lon="-8.152033">
        <ele>635.0</ele>
        <time>2010-08-26T16:01:45Z</time>
      </trkpt>
      <trkpt lat="41.791817" lon="-8.152000">
        <ele>635.0</ele>
        <time>2010-08-26T16:01:46Z</time>
      </trkpt>
      <trkpt lat="41.791833" lon="-8.151967">
        <ele>635.0</ele>
        <time>2010-08-26T16:01:47Z</time>
      </trkpt>
      <trkpt lat="41.791850" lon="-8.151933">
        <ele>635.0</ele>
        <time>2010-08-26T16:01:48Z</time>
      </trkpt>
      <trkpt lat="41.791850" lon="-8.151883">
        <ele>634.0</ele>
        <time>2010-08-26T16:01:49Z</time>
      </trkpt>
      <trkpt lat="41.791867" lon="-8.151850">
        <ele>634.0</ele>
        <time>2010-08-26T16:01:50Z</time>
      </trkpt>
      <trkpt lat="41.791883" lon="-8.151817">
        <ele>633.0</ele>
        <time>2010-08-26T16:01:51Z</time>
      </trkpt>
      <trkpt lat="41.791900" lon="-8.151783">
        <ele>633.0</ele>
        <time>2010-08-26T16:01:52Z</time>
      </trkpt>
      <trkpt lat="41.791917" lon="-8.151750">
        <ele>633.0</ele>
        <time>2010-08-26T16:01:53Z</time>
      </trkpt>
      <trkpt lat="41.791933" lon="-8.151717">
        <ele>632.0</ele>
        <time>2010-08-26T16:01:54Z</time>
      </trkpt>
      <trkpt lat="41.791950" lon="-8.151683">
        <ele>632.0</ele>
        <time>2010-08-26T16:01:55Z</time>
      </trkpt>
      <trkpt lat="41.791967" lon="-8.151650">
        <ele>632.0</ele>
        <time>2010-08-26T16:01:56Z</time>
      </trkpt>
      <trkpt lat="41.791983" lon="-8.151633">
        <ele>632.0</ele>
        <time>2010-08-26T16:01:57Z</time>
      </trkpt>
      <trkpt lat="41.792017" lon="-8.151600">
        <ele>632.0</ele>
        <time>2010-08-26T16:01:58Z</time>
      </trkpt>
      <trkpt lat="41.792033" lon="-8.151583">
        <ele>632.0</ele>
        <time>2010-08-26T16:01:59Z</time>
      </trkpt>
      <trkpt lat="41.792050" lon="-8.151567">
        <ele>632.0</ele>
        <time>2010-08-26T16:02:00Z</time>
      </trkpt>
      <trkpt lat="41.792067" lon="-8.151533">
        <ele>632.0</ele>
        <time>2010-08-26T16:02:01Z</time>
      </trkpt>
      <trkpt lat="41.792100" lon="-8.151517">
        <ele>632.0</ele>
        <time>2010-08-26T16:02:02Z</time>
      </trkpt>
      <trkpt lat="41.792117" lon="-8.151500">
        <ele>632.0</ele>
        <time>2010-08-26T16:02:03Z</time>
      </trkpt>
      <trkpt lat="41.792133" lon="-8.151483">
        <ele>632.0</ele>
        <time>2010-08-26T16:02:04Z</time>
      </trkpt>
      <trkpt lat="41.792167" lon="-8.151450">
        <ele>632.0</ele>
        <time>2010-08-26T16:02:05Z</time>
      </trkpt>
      <trkpt lat="41.792183" lon="-8.151433">
        <ele>632.0</ele>
        <time>2010-08-26T16:02:06Z</time>
      </trkpt>
      <trkpt lat="41.792217" lon="-8.151417">
        <ele>632.0</ele>
        <time>2010-08-26T16:02:07Z</time>
      </trkpt>
      <trkpt lat="41.792233" lon="-8.151400">
        <ele>632.0</ele>
        <time>2010-08-26T16:02:08Z</time>
      </trkpt>
      <trkpt lat="41.792267" lon="-8.151367">
        <ele>633.0</ele>
        <time>2010-08-26T16:02:09Z</time>
      </trkpt>
      <trkpt lat="41.792283" lon="-8.151333">
        <ele>633.0</ele>
        <time>2010-08-26T16:02:11Z</time>
      </trkpt>
      <trkpt lat="41.792317" lon="-8.151300">
        <ele>634.0</ele>
        <time>2010-08-26T16:02:13Z</time>
      </trkpt>
      <trkpt lat="41.792350" lon="-8.151283">
        <ele>634.0</ele>
        <time>2010-08-26T16:02:14Z</time>
      </trkpt>
      <trkpt lat="41.792367" lon="-8.151267">
        <ele>635.0</ele>
        <time>2010-08-26T16:02:15Z</time>
      </trkpt>
      <trkpt lat="41.792383" lon="-8.151250">
        <ele>635.0</ele>
        <time>2010-08-26T16:02:16Z</time>
      </trkpt>
      <trkpt lat="41.792417" lon="-8.151233">
        <ele>635.0</ele>
        <time>2010-08-26T16:02:17Z</time>
      </trkpt>
      <trkpt lat="41.792433" lon="-8.151217">
        <ele>635.0</ele>
        <time>2010-08-26T16:02:18Z</time>
      </trkpt>
      <trkpt lat="41.792450" lon="-8.151200">
        <ele>635.0</ele>
        <time>2010-08-26T16:02:19Z</time>
      </trkpt>
      <trkpt lat="41.792483" lon="-8.151167">
        <ele>635.0</ele>
        <time>2010-08-26T16:02:20Z</time>
      </trkpt>
      <trkpt lat="41.792500" lon="-8.151150">
        <ele>635.0</ele>
        <time>2010-08-26T16:02:21Z</time>
      </trkpt>
      <trkpt lat="41.792517" lon="-8.151133">
        <ele>635.0</ele>
        <time>2010-08-26T16:02:22Z</time>
      </trkpt>
      <trkpt lat="41.792533" lon="-8.151100">
        <ele>636.0</ele>
        <time>2010-08-26T16:02:23Z</time>
      </trkpt>
      <trkpt lat="41.792567" lon="-8.151083">
        <ele>636.0</ele>
        <time>2010-08-26T16:02:24Z</time>
      </trkpt>
      <trkpt lat="41.792583" lon="-8.151050">
        <ele>636.0</ele>
        <time>2010-08-26T16:02:25Z</time>
      </trkpt>
      <trkpt lat="41.792600" lon="-8.151017">
        <ele>636.0</ele>
        <time>2010-08-26T16:02:26Z</time>
      </trkpt>
      <trkpt lat="41.792633" lon="-8.150983">
        <ele>635.0</ele>
        <time>2010-08-26T16:02:27Z</time>
      </trkpt>
      <trkpt lat="41.792650" lon="-8.150950">
        <ele>635.0</ele>
        <time>2010-08-26T16:02:28Z</time>
      </trkpt>
      <trkpt lat="41.792667" lon="-8.150917">
        <ele>635.0</ele>
        <time>2010-08-26T16:02:29Z</time>
      </trkpt>
      <trkpt lat="41.792683" lon="-8.150900">
        <ele>635.0</ele>
        <time>2010-08-26T16:02:30Z</time>
      </trkpt>
      <trkpt lat="41.792700" lon="-8.150867">
        <ele>635.0</ele>
        <time>2010-08-26T16:02:31Z</time>
      </trkpt>
      <trkpt lat="41.792717" lon="-8.150833">
        <ele>636.0</ele>
        <time>2010-08-26T16:02:32Z</time>
      </trkpt>
      <trkpt lat="41.792733" lon="-8.150800">
        <ele>636.0</ele>
        <time>2010-08-26T16:02:33Z</time>
      </trkpt>
      <trkpt lat="41.792750" lon="-8.150767">
        <ele>636.0</ele>
        <time>2010-08-26T16:02:34Z</time>
      </trkpt>
      <trkpt lat="41.792750" lon="-8.150733">
        <ele>636.0</ele>
        <time>2010-08-26T16:02:35Z</time>
      </trkpt>
      <trkpt lat="41.792750" lon="-8.150700">
        <ele>636.0</ele>
        <time>2010-08-26T16:02:36Z</time>
      </trkpt>
      <trkpt lat="41.792767" lon="-8.150667">
        <ele>636.0</ele>
        <time>2010-08-26T16:02:37Z</time>
      </trkpt>
      <trkpt lat="41.792783" lon="-8.150633">
        <ele>636.0</ele>
        <time>2010-08-26T16:02:38Z</time>
      </trkpt>
      <trkpt lat="41.792800" lon="-8.150600">
        <ele>636.0</ele>
        <time>2010-08-26T16:02:39Z</time>
      </trkpt>
      <trkpt lat="41.792817" lon="-8.150567">
        <ele>636.0</ele>
        <time>2010-08-26T16:02:40Z</time>
      </trkpt>
      <trkpt lat="41.792833" lon="-8.150533">
        <ele>636.0</ele>
        <time>2010-08-26T16:02:41Z</time>
      </trkpt>
      <trkpt lat="41.792850" lon="-8.150500">
        <ele>636.0</ele>
        <time>2010-08-26T16:02:42Z</time>
      </trkpt>
      <trkpt lat="41.792867" lon="-8.150483">
        <ele>636.0</ele>
        <time>2010-08-26T16:02:43Z</time>
      </trkpt>
      <trkpt lat="41.792883" lon="-8.150450">
        <ele>637.0</ele>
        <time>2010-08-26T16:02:44Z</time>
      </trkpt>
      <trkpt lat="41.792917" lon="-8.150417">
        <ele>637.0</ele>
        <time>2010-08-26T16:02:45Z</time>
      </trkpt>
      <trkpt lat="41.792917" lon="-8.150383">
        <ele>637.0</ele>
        <time>2010-08-26T16:02:46Z</time>
      </trkpt>
      <trkpt lat="41.792933" lon="-8.150367">
        <ele>637.0</ele>
        <time>2010-08-26T16:02:47Z</time>
      </trkpt>
      <trkpt lat="41.792950" lon="-8.150333">
        <ele>637.0</ele>
        <time>2010-08-26T16:02:48Z</time>
      </trkpt>
      <trkpt lat="41.792967" lon="-8.150300">
        <ele>637.0</ele>
        <time>2010-08-26T16:02:49Z</time>
      </trkpt>
      <trkpt lat="41.793000" lon="-8.150267">
        <ele>637.0</ele>
        <time>2010-08-26T16:02:50Z</time>
      </trkpt>
      <trkpt lat="41.793017" lon="-8.150233">
        <ele>637.0</ele>
        <time>2010-08-26T16:02:51Z</time>
      </trkpt>
      <trkpt lat="41.793033" lon="-8.150200">
        <ele>637.0</ele>
        <time>2010-08-26T16:02:52Z</time>
      </trkpt>
      <trkpt lat="41.793050" lon="-8.150167">
        <ele>637.0</ele>
        <time>2010-08-26T16:02:53Z</time>
      </trkpt>
      <trkpt lat="41.793083" lon="-8.150150">
        <ele>637.0</ele>
        <time>2010-08-26T16:02:54Z</time>
      </trkpt>
      <trkpt lat="41.793100" lon="-8.150117">
        <ele>637.0</ele>
        <time>2010-08-26T16:02:55Z</time>
      </trkpt>
      <trkpt lat="41.793117" lon="-8.150083">
        <ele>637.0</ele>
        <time>2010-08-26T16:02:56Z</time>
      </trkpt>
      <trkpt lat="41.793133" lon="-8.150033">
        <ele>637.0</ele>
        <time>2010-08-26T16:02:57Z</time>
      </trkpt>
      <trkpt lat="41.793150" lon="-8.150000">
        <ele>637.0</ele>
        <time>2010-08-26T16:02:58Z</time>
      </trkpt>
      <trkpt lat="41.793167" lon="-8.149967">
        <ele>637.0</ele>
        <time>2010-08-26T16:02:59Z</time>
      </trkpt>
      <trkpt lat="41.793167" lon="-8.149933">
        <ele>637.0</ele>
        <time>2010-08-26T16:03:00Z</time>
      </trkpt>
      <trkpt lat="41.793183" lon="-8.149900">
        <ele>637.0</ele>
        <time>2010-08-26T16:03:01Z</time>
      </trkpt>
      <trkpt lat="41.793200" lon="-8.149867">
        <ele>637.0</ele>
        <time>2010-08-26T16:03:02Z</time>
      </trkpt>
      <trkpt lat="41.793200" lon="-8.149833">
        <ele>638.0</ele>
        <time>2010-08-26T16:03:03Z</time>
      </trkpt>
      <trkpt lat="41.793217" lon="-8.149800">
        <ele>638.0</ele>
        <time>2010-08-26T16:03:04Z</time>
      </trkpt>
      <trkpt lat="41.793217" lon="-8.149767">
        <ele>638.0</ele>
        <time>2010-08-26T16:03:05Z</time>
      </trkpt>
      <trkpt lat="41.793233" lon="-8.149717">
        <ele>639.0</ele>
        <time>2010-08-26T16:03:06Z</time>
      </trkpt>
      <trkpt lat="41.793233" lon="-8.149683">
        <ele>639.0</ele>
        <time>2010-08-26T16:03:07Z</time>
      </trkpt>
      <trkpt lat="41.793233" lon="-8.149633">
        <ele>639.0</ele>
        <time>2010-08-26T16:03:08Z</time>
      </trkpt>
      <trkpt lat="41.793250" lon="-8.149600">
        <ele>639.0</ele>
        <time>2010-08-26T16:03:09Z</time>
      </trkpt>
      <trkpt lat="41.793250" lon="-8.149567">
        <ele>640.0</ele>
        <time>2010-08-26T16:03:10Z</time>
      </trkpt>
      <trkpt lat="41.793250" lon="-8.149533">
        <ele>640.0</ele>
        <time>2010-08-26T16:03:11Z</time>
      </trkpt>
      <trkpt lat="41.793267" lon="-8.149500">
        <ele>640.0</ele>
        <time>2010-08-26T16:03:12Z</time>
      </trkpt>
      <trkpt lat="41.793267" lon="-8.149450">
        <ele>640.0</ele>
        <time>2010-08-26T16:03:13Z</time>
      </trkpt>
      <trkpt lat="41.793283" lon="-8.149417">
        <ele>640.0</ele>
        <time>2010-08-26T16:03:14Z</time>
      </trkpt>
      <trkpt lat="41.793300" lon="-8.149383">
        <ele>640.0</ele>
        <time>2010-08-26T16:03:15Z</time>
      </trkpt>
      <trkpt lat="41.793300" lon="-8.149350">
        <ele>640.0</ele>
        <time>2010-08-26T16:03:16Z</time>
      </trkpt>
      <trkpt lat="41.793300" lon="-8.149317">
        <ele>640.0</ele>
        <time>2010-08-26T16:03:17Z</time>
      </trkpt>
      <trkpt lat="41.793317" lon="-8.149283">
        <ele>640.0</ele>
        <time>2010-08-26T16:03:18Z</time>
      </trkpt>
      <trkpt lat="41.793317" lon="-8.149250">
        <ele>641.0</ele>
        <time>2010-08-26T16:03:19Z</time>
      </trkpt>
      <trkpt lat="41.793333" lon="-8.149217">
        <ele>641.0</ele>
        <time>2010-08-26T16:03:20Z</time>
      </trkpt>
      <trkpt lat="41.793350" lon="-8.149167">
        <ele>641.0</ele>
        <time>2010-08-26T16:03:22Z</time>
      </trkpt>
      <trkpt lat="41.793367" lon="-8.149117">
        <ele>642.0</ele>
        <time>2010-08-26T16:03:24Z</time>
      </trkpt>
      <trkpt lat="41.793383" lon="-8.149083">
        <ele>642.0</ele>
        <time>2010-08-26T16:03:26Z</time>
      </trkpt>
      <trkpt lat="41.793383" lon="-8.149033">
        <ele>642.0</ele>
        <time>2010-08-26T16:03:28Z</time>
      </trkpt>
      <trkpt lat="41.793400" lon="-8.148983">
        <ele>642.0</ele>
        <time>2010-08-26T16:03:30Z</time>
      </trkpt>
      <trkpt lat="41.793417" lon="-8.148950">
        <ele>643.0</ele>
        <time>2010-08-26T16:03:32Z</time>
      </trkpt>
      <trkpt lat="41.793417" lon="-8.148900">
        <ele>643.0</ele>
        <time>2010-08-26T16:03:34Z</time>
      </trkpt>
      <trkpt lat="41.793433" lon="-8.148867">
        <ele>643.0</ele>
        <time>2010-08-26T16:03:36Z</time>
      </trkpt>
      <trkpt lat="41.793467" lon="-8.148833">
        <ele>644.0</ele>
        <time>2010-08-26T16:03:38Z</time>
      </trkpt>
      <trkpt lat="41.793483" lon="-8.148783">
        <ele>644.0</ele>
        <time>2010-08-26T16:03:40Z</time>
      </trkpt>
      <trkpt lat="41.793517" lon="-8.148750">
        <ele>644.0</ele>
        <time>2010-08-26T16:03:42Z</time>
      </trkpt>
      <trkpt lat="41.793533" lon="-8.148717">
        <ele>644.0</ele>
        <time>2010-08-26T16:03:43Z</time>
      </trkpt>
      <trkpt lat="41.793550" lon="-8.148700">
        <ele>644.0</ele>
        <time>2010-08-26T16:03:44Z</time>
      </trkpt>
      <trkpt lat="41.793567" lon="-8.148683">
        <ele>644.0</ele>
        <time>2010-08-26T16:03:45Z</time>
      </trkpt>
      <trkpt lat="41.793600" lon="-8.148667">
        <ele>644.0</ele>
        <time>2010-08-26T16:03:46Z</time>
      </trkpt>
      <trkpt lat="41.793617" lon="-8.148633">
        <ele>644.0</ele>
        <time>2010-08-26T16:03:47Z</time>
      </trkpt>
      <trkpt lat="41.793633" lon="-8.148617">
        <ele>644.0</ele>
        <time>2010-08-26T16:03:48Z</time>
      </trkpt>
      <trkpt lat="41.793650" lon="-8.148583">
        <ele>644.0</ele>
        <time>2010-08-26T16:03:49Z</time>
      </trkpt>
      <trkpt lat="41.793667" lon="-8.148567">
        <ele>644.0</ele>
        <time>2010-08-26T16:03:50Z</time>
      </trkpt>
      <trkpt lat="41.793700" lon="-8.148550">
        <ele>644.0</ele>
        <time>2010-08-26T16:03:51Z</time>
      </trkpt>
      <trkpt lat="41.793717" lon="-8.148517">
        <ele>644.0</ele>
        <time>2010-08-26T16:03:52Z</time>
      </trkpt>
      <trkpt lat="41.793733" lon="-8.148500">
        <ele>644.0</ele>
        <time>2010-08-26T16:03:53Z</time>
      </trkpt>
      <trkpt lat="41.793767" lon="-8.148483">
        <ele>644.0</ele>
        <time>2010-08-26T16:03:54Z</time>
      </trkpt>
      <trkpt lat="41.793783" lon="-8.148467">
        <ele>644.0</ele>
        <time>2010-08-26T16:03:55Z</time>
      </trkpt>
      <trkpt lat="41.793800" lon="-8.148450">
        <ele>645.0</ele>
        <time>2010-08-26T16:03:56Z</time>
      </trkpt>
      <trkpt lat="41.793817" lon="-8.148417">
        <ele>645.0</ele>
        <time>2010-08-26T16:03:57Z</time>
      </trkpt>
      <trkpt lat="41.793850" lon="-8.148400">
        <ele>645.0</ele>
        <time>2010-08-26T16:03:58Z</time>
      </trkpt>
      <trkpt lat="41.793867" lon="-8.148383">
        <ele>646.0</ele>
        <time>2010-08-26T16:03:59Z</time>
      </trkpt>
      <trkpt lat="41.793883" lon="-8.148367">
        <ele>646.0</ele>
        <time>2010-08-26T16:04:00Z</time>
      </trkpt>
      <trkpt lat="41.793900" lon="-8.148350">
        <ele>646.0</ele>
        <time>2010-08-26T16:04:01Z</time>
      </trkpt>
      <trkpt lat="41.793933" lon="-8.148317">
        <ele>646.0</ele>
        <time>2010-08-26T16:04:02Z</time>
      </trkpt>
      <trkpt lat="41.793950" lon="-8.148300">
        <ele>646.0</ele>
        <time>2010-08-26T16:04:03Z</time>
      </trkpt>
      <trkpt lat="41.793967" lon="-8.148283">
        <ele>646.0</ele>
        <time>2010-08-26T16:04:04Z</time>
      </trkpt>
      <trkpt lat="41.793983" lon="-8.148267">
        <ele>647.0</ele>
        <time>2010-08-26T16:04:05Z</time>
      </trkpt>
      <trkpt lat="41.794000" lon="-8.148250">
        <ele>647.0</ele>
        <time>2010-08-26T16:04:06Z</time>
      </trkpt>
      <trkpt lat="41.794017" lon="-8.148233">
        <ele>647.0</ele>
        <time>2010-08-26T16:04:07Z</time>
      </trkpt>
      <trkpt lat="41.794033" lon="-8.148217">
        <ele>647.0</ele>
        <time>2010-08-26T16:04:08Z</time>
      </trkpt>
      <trkpt lat="41.794050" lon="-8.148183">
        <ele>647.0</ele>
        <time>2010-08-26T16:04:09Z</time>
      </trkpt>
      <trkpt lat="41.794083" lon="-8.148167">
        <ele>648.0</ele>
        <time>2010-08-26T16:04:10Z</time>
      </trkpt>
      <trkpt lat="41.794100" lon="-8.148150">
        <ele>648.0</ele>
        <time>2010-08-26T16:04:11Z</time>
      </trkpt>
      <trkpt lat="41.794133" lon="-8.148117">
        <ele>648.0</ele>
        <time>2010-08-26T16:04:13Z</time>
      </trkpt>
      <trkpt lat="41.794150" lon="-8.148083">
        <ele>648.0</ele>
        <time>2010-08-26T16:04:15Z</time>
      </trkpt>
      <trkpt lat="41.794183" lon="-8.148067">
        <ele>649.0</ele>
        <time>2010-08-26T16:04:17Z</time>
      </trkpt>
      <trkpt lat="41.794217" lon="-8.148017">
        <ele>650.0</ele>
        <time>2010-08-26T16:04:20Z</time>
      </trkpt>
      <trkpt lat="41.794250" lon="-8.147983">
        <ele>650.0</ele>
        <time>2010-08-26T16:04:22Z</time>
      </trkpt>
      <trkpt lat="41.794267" lon="-8.147933">
        <ele>651.0</ele>
        <time>2010-08-26T16:04:24Z</time>
      </trkpt>
      <trkpt lat="41.794283" lon="-8.147900">
        <ele>651.0</ele>
        <time>2010-08-26T16:04:26Z</time>
      </trkpt>
      <trkpt lat="41.794300" lon="-8.147850">
        <ele>652.0</ele>
        <time>2010-08-26T16:04:28Z</time>
      </trkpt>
      <trkpt lat="41.794317" lon="-8.147817">
        <ele>653.0</ele>
        <time>2010-08-26T16:04:30Z</time>
      </trkpt>
      <trkpt lat="41.794333" lon="-8.147767">
        <ele>653.0</ele>
        <time>2010-08-26T16:04:32Z</time>
      </trkpt>
      <trkpt lat="41.794350" lon="-8.147717">
        <ele>653.0</ele>
        <time>2010-08-26T16:04:34Z</time>
      </trkpt>
      <trkpt lat="41.794367" lon="-8.147683">
        <ele>653.0</ele>
        <time>2010-08-26T16:04:36Z</time>
      </trkpt>
      <trkpt lat="41.794367" lon="-8.147633">
        <ele>653.0</ele>
        <time>2010-08-26T16:04:38Z</time>
      </trkpt>
      <trkpt lat="41.794383" lon="-8.147600">
        <ele>654.0</ele>
        <time>2010-08-26T16:04:40Z</time>
      </trkpt>
      <trkpt lat="41.794383" lon="-8.147550">
        <ele>654.0</ele>
        <time>2010-08-26T16:04:42Z</time>
      </trkpt>
      <trkpt lat="41.794400" lon="-8.147500">
        <ele>654.0</ele>
        <time>2010-08-26T16:04:44Z</time>
      </trkpt>
      <trkpt lat="41.794400" lon="-8.147467">
        <ele>655.0</ele>
        <time>2010-08-26T16:04:46Z</time>
      </trkpt>
      <trkpt lat="41.794400" lon="-8.147417">
        <ele>655.0</ele>
        <time>2010-08-26T16:04:48Z</time>
      </trkpt>
      <trkpt lat="41.794400" lon="-8.147367">
        <ele>655.0</ele>
        <time>2010-08-26T16:04:50Z</time>
      </trkpt>
      <trkpt lat="41.794367" lon="-8.147317">
        <ele>655.0</ele>
        <time>2010-08-26T16:04:53Z</time>
      </trkpt>
      <trkpt lat="41.794367" lon="-8.147283">
        <ele>655.0</ele>
        <time>2010-08-26T16:04:56Z</time>
      </trkpt>
      <trkpt lat="41.794367" lon="-8.147217">
        <ele>655.0</ele>
        <time>2010-08-26T16:05:00Z</time>
      </trkpt>
      <trkpt lat="41.794289" lon="-8.147224">
        <ele>654.0</ele>
        <time>2010-08-26T16:05:05Z</time>
      </trkpt>
      <trkpt lat="41.794213" lon="-8.147163">
        <ele>654.0</ele>
        <time>2010-08-26T16:05:10Z</time>
      </trkpt>
      <trkpt lat="41.794163" lon="-8.147142">
        <ele>654.0</ele>
        <time>2010-08-26T16:05:14Z</time>
      </trkpt>
      <trkpt lat="41.794125" lon="-8.147132">
        <ele>654.0</ele>
        <time>2010-08-26T16:05:16Z</time>
      </trkpt>
      <trkpt lat="41.794086" lon="-8.147111">
        <ele>654.0</ele>
        <time>2010-08-26T16:05:18Z</time>
      </trkpt>
      <trkpt lat="41.794040" lon="-8.147091">
        <ele>654.0</ele>
        <time>2010-08-26T16:05:19Z</time>
      </trkpt>
      <trkpt lat="41.793960" lon="-8.147039">
        <ele>655.0</ele>
        <time>2010-08-26T16:05:20Z</time>
      </trkpt>
      <trkpt lat="41.793918" lon="-8.147003">
        <ele>655.0</ele>
        <time>2010-08-26T16:05:21Z</time>
      </trkpt>
      <trkpt lat="41.793902" lon="-8.146952">
        <ele>655.0</ele>
        <time>2010-08-26T16:05:22Z</time>
      </trkpt>
      <trkpt lat="41.793883" lon="-8.146901">
        <ele>655.0</ele>
        <time>2010-08-26T16:05:23Z</time>
      </trkpt>
      <trkpt lat="41.793856" lon="-8.146782">
        <ele>655.0</ele>
        <time>2010-08-26T16:05:24Z</time>
      </trkpt>
      <trkpt lat="41.793845" lon="-8.146710">
        <ele>654.0</ele>
        <time>2010-08-26T16:05:25Z</time>
      </trkpt>
      <trkpt lat="41.793833" lon="-8.146649">
        <ele>654.0</ele>
        <time>2010-08-26T16:05:26Z</time>
      </trkpt>
      <trkpt lat="41.793791" lon="-8.146556">
        <ele>654.0</ele>
        <time>2010-08-26T16:05:27Z</time>
      </trkpt>
      <trkpt lat="41.793761" lon="-8.146520">
        <ele>654.0</ele>
        <time>2010-08-26T16:05:28Z</time>
      </trkpt>
      <trkpt lat="41.793719" lon="-8.146454">
        <ele>654.0</ele>
        <time>2010-08-26T16:05:29Z</time>
      </trkpt>
      <trkpt lat="41.793684" lon="-8.146376">
        <ele>654.0</ele>
        <time>2010-08-26T16:05:30Z</time>
      </trkpt>
      <trkpt lat="41.793661" lon="-8.146330">
        <ele>654.0</ele>
        <time>2010-08-26T16:05:31Z</time>
      </trkpt>
      <trkpt lat="41.793611" lon="-8.146217">
        <ele>654.0</ele>
        <time>2010-08-26T16:05:32Z</time>
      </trkpt>
      <trkpt lat="41.793581" lon="-8.146125">
        <ele>653.0</ele>
        <time>2010-08-26T16:05:33Z</time>
      </trkpt>
      <trkpt lat="41.793561" lon="-8.146027">
        <ele>653.0</ele>
        <time>2010-08-26T16:05:34Z</time>
      </trkpt>
      <trkpt lat="41.793558" lon="-8.145935">
        <ele>653.0</ele>
        <time>2010-08-26T16:05:35Z</time>
      </trkpt>
      <trkpt lat="41.793565" lon="-8.145827">
        <ele>653.0</ele>
        <time>2010-08-26T16:05:36Z</time>
      </trkpt>
      <trkpt lat="41.793573" lon="-8.145729">
        <ele>653.0</ele>
        <time>2010-08-26T16:05:37Z</time>
      </trkpt>
      <trkpt lat="41.793561" lon="-8.145544">
        <ele>653.0</ele>
        <time>2010-08-26T16:05:38Z</time>
      </trkpt>
      <trkpt lat="41.793542" lon="-8.145400">
        <ele>653.0</ele>
        <time>2010-08-26T16:05:39Z</time>
      </trkpt>
      <trkpt lat="41.793508" lon="-8.145251">
        <ele>653.0</ele>
        <time>2010-08-26T16:05:40Z</time>
      </trkpt>
      <trkpt lat="41.793481" lon="-8.145107">
        <ele>653.0</ele>
        <time>2010-08-26T16:05:41Z</time>
      </trkpt>
      <trkpt lat="41.793458" lon="-8.144989">
        <ele>653.0</ele>
        <time>2010-08-26T16:05:42Z</time>
      </trkpt>
      <trkpt lat="41.793466" lon="-8.144881">
        <ele>653.0</ele>
        <time>2010-08-26T16:05:43Z</time>
      </trkpt>
      <trkpt lat="41.793477" lon="-8.144742">
        <ele>653.0</ele>
        <time>2010-08-26T16:05:44Z</time>
      </trkpt>
      <trkpt lat="41.793546" lon="-8.144532">
        <ele>653.0</ele>
        <time>2010-08-26T16:05:45Z</time>
      </trkpt>
      <trkpt lat="41.793592" lon="-8.144316">
        <ele>653.0</ele>
        <time>2010-08-26T16:05:46Z</time>
      </trkpt>
      <trkpt lat="41.793634" lon="-8.144085">
        <ele>652.0</ele>
        <time>2010-08-26T16:05:47Z</time>
      </trkpt>
      <trkpt lat="41.793661" lon="-8.143859">
        <ele>652.0</ele>
        <time>2010-08-26T16:05:48Z</time>
      </trkpt>
      <trkpt lat="41.793676" lon="-8.143643">
        <ele>652.0</ele>
        <time>2010-08-26T16:05:49Z</time>
      </trkpt>
      <trkpt lat="41.793707" lon="-8.143386">
        <ele>652.0</ele>
        <time>2010-08-26T16:05:50Z</time>
      </trkpt>
      <trkpt lat="41.793726" lon="-8.143196">
        <ele>652.0</ele>
        <time>2010-08-26T16:05:51Z</time>
      </trkpt>
      <trkpt lat="41.793741" lon="-8.142985">
        <ele>652.0</ele>
        <time>2010-08-26T16:05:52Z</time>
      </trkpt>
      <trkpt lat="41.793784" lon="-8.142821">
        <ele>651.0</ele>
        <time>2010-08-26T16:05:53Z</time>
      </trkpt>
      <trkpt lat="41.793856" lon="-8.142656">
        <ele>651.0</ele>
        <time>2010-08-26T16:05:54Z</time>
      </trkpt>
      <trkpt lat="41.793914" lon="-8.142507">
        <ele>651.0</ele>
        <time>2010-08-26T16:05:55Z</time>
      </trkpt>
      <trkpt lat="41.793922" lon="-8.142425">
        <ele>652.0</ele>
        <time>2010-08-26T16:08:10Z</time>
      </trkpt>
      <trkpt lat="41.793964" lon="-8.142255">
        <ele>651.0</ele>
        <time>2010-08-26T16:08:11Z</time>
      </trkpt>
      <trkpt lat="41.793979" lon="-8.142086">
        <ele>651.0</ele>
        <time>2010-08-26T16:08:12Z</time>
      </trkpt>
      <trkpt lat="41.793987" lon="-8.141911">
        <ele>651.0</ele>
        <time>2010-08-26T16:08:13Z</time>
      </trkpt>
      <trkpt lat="41.794006" lon="-8.141711">
        <ele>650.0</ele>
        <time>2010-08-26T16:08:14Z</time>
      </trkpt>
      <trkpt lat="41.793998" lon="-8.141551">
        <ele>650.0</ele>
        <time>2010-08-26T16:08:15Z</time>
      </trkpt>
      <trkpt lat="41.793950" lon="-8.141450">
        <ele>650.0</ele>
        <time>2010-08-26T16:08:16Z</time>
      </trkpt>
      <trkpt lat="41.793979" lon="-8.141407">
        <ele>650.0</ele>
        <time>2010-08-26T16:08:17Z</time>
      </trkpt>
      <trkpt lat="41.793922" lon="-8.141243">
        <ele>650.0</ele>
        <time>2010-08-26T16:08:18Z</time>
      </trkpt>
      <trkpt lat="41.793872" lon="-8.141094">
        <ele>651.0</ele>
        <time>2010-08-26T16:08:20Z</time>
      </trkpt>
      <trkpt lat="41.793817" lon="-8.140983">
        <ele>652.0</ele>
        <time>2010-08-26T16:08:22Z</time>
      </trkpt>
      <trkpt lat="41.793833" lon="-8.141067">
        <ele>653.0</ele>
        <time>2010-08-26T16:08:24Z</time>
      </trkpt>
      <trkpt lat="41.793800" lon="-8.140917">
        <ele>655.0</ele>
        <time>2010-08-26T16:08:27Z</time>
      </trkpt>
      <trkpt lat="41.793767" lon="-8.140733">
        <ele>657.0</ele>
        <time>2010-08-26T16:08:30Z</time>
      </trkpt>
      <trkpt lat="41.793767" lon="-8.140567">
        <ele>658.0</ele>
        <time>2010-08-26T16:08:34Z</time>
      </trkpt>
      <trkpt lat="41.793767" lon="-8.140383">
        <ele>661.0</ele>
        <time>2010-08-26T16:08:38Z</time>
      </trkpt>
      <trkpt lat="41.793783" lon="-8.140100">
        <ele>663.0</ele>
        <time>2010-08-26T16:08:43Z</time>
      </trkpt>
      <trkpt lat="41.793767" lon="-8.139750">
        <ele>667.0</ele>
        <time>2010-08-26T16:08:49Z</time>
      </trkpt>
      <trkpt lat="41.793733" lon="-8.139717">
        <ele>669.0</ele>
        <time>2010-08-26T16:08:52Z</time>
      </trkpt>
      <trkpt lat="41.793700" lon="-8.139683">
        <ele>670.0</ele>
        <time>2010-08-26T16:08:54Z</time>
      </trkpt>
      <trkpt lat="41.793667" lon="-8.139650">
        <ele>671.0</ele>
        <time>2010-08-26T16:08:56Z</time>
      </trkpt>
      <trkpt lat="41.793650" lon="-8.139633">
        <ele>671.0</ele>
        <time>2010-08-26T16:08:57Z</time>
      </trkpt>
      <trkpt lat="41.793633" lon="-8.139617">
        <ele>672.0</ele>
        <time>2010-08-26T16:08:58Z</time>
      </trkpt>
      <trkpt lat="41.793600" lon="-8.139583">
        <ele>672.0</ele>
        <time>2010-08-26T16:09:00Z</time>
      </trkpt>
      <trkpt lat="41.793567" lon="-8.139567">
        <ele>673.0</ele>
        <time>2010-08-26T16:09:01Z</time>
      </trkpt>
      <trkpt lat="41.793550" lon="-8.139550">
        <ele>673.0</ele>
        <time>2010-08-26T16:09:02Z</time>
      </trkpt>
      <trkpt lat="41.793517" lon="-8.139517">
        <ele>673.0</ele>
        <time>2010-08-26T16:09:04Z</time>
      </trkpt>
      <trkpt lat="41.793500" lon="-8.139483">
        <ele>674.0</ele>
        <time>2010-08-26T16:09:05Z</time>
      </trkpt>
      <trkpt lat="41.793483" lon="-8.139467">
        <ele>674.0</ele>
        <time>2010-08-26T16:09:06Z</time>
      </trkpt>
      <trkpt lat="41.793450" lon="-8.139433">
        <ele>674.0</ele>
        <time>2010-08-26T16:09:08Z</time>
      </trkpt>
      <trkpt lat="41.793433" lon="-8.139383">
        <ele>674.0</ele>
        <time>2010-08-26T16:09:10Z</time>
      </trkpt>
      <trkpt lat="41.793417" lon="-8.139333">
        <ele>674.0</ele>
        <time>2010-08-26T16:09:12Z</time>
      </trkpt>
      <trkpt lat="41.793417" lon="-8.139283">
        <ele>673.0</ele>
        <time>2010-08-26T16:09:14Z</time>
      </trkpt>
      <trkpt lat="41.793433" lon="-8.139233">
        <ele>673.0</ele>
        <time>2010-08-26T16:09:16Z</time>
      </trkpt>
      <trkpt lat="41.793433" lon="-8.139200">
        <ele>673.0</ele>
        <time>2010-08-26T16:09:17Z</time>
      </trkpt>
      <trkpt lat="41.793450" lon="-8.139167">
        <ele>673.0</ele>
        <time>2010-08-26T16:09:18Z</time>
      </trkpt>
      <trkpt lat="41.793450" lon="-8.139133">
        <ele>672.0</ele>
        <time>2010-08-26T16:09:19Z</time>
      </trkpt>
      <trkpt lat="41.793450" lon="-8.139100">
        <ele>672.0</ele>
        <time>2010-08-26T16:09:20Z</time>
      </trkpt>
      <trkpt lat="41.793450" lon="-8.139067">
        <ele>672.0</ele>
        <time>2010-08-26T16:09:21Z</time>
      </trkpt>
      <trkpt lat="41.793467" lon="-8.139033">
        <ele>671.0</ele>
        <time>2010-08-26T16:09:22Z</time>
      </trkpt>
      <trkpt lat="41.793467" lon="-8.139000">
        <ele>671.0</ele>
        <time>2010-08-26T16:09:23Z</time>
      </trkpt>
      <trkpt lat="41.793467" lon="-8.138967">
        <ele>671.0</ele>
        <time>2010-08-26T16:09:24Z</time>
      </trkpt>
      <trkpt lat="41.793450" lon="-8.138933">
        <ele>670.0</ele>
        <time>2010-08-26T16:09:25Z</time>
      </trkpt>
      <trkpt lat="41.793433" lon="-8.138917">
        <ele>670.0</ele>
        <time>2010-08-26T16:09:26Z</time>
      </trkpt>
      <trkpt lat="41.793417" lon="-8.138883">
        <ele>670.0</ele>
        <time>2010-08-26T16:09:27Z</time>
      </trkpt>
      <trkpt lat="41.793400" lon="-8.138850">
        <ele>670.0</ele>
        <time>2010-08-26T16:09:28Z</time>
      </trkpt>
      <trkpt lat="41.793367" lon="-8.138817">
        <ele>670.0</ele>
        <time>2010-08-26T16:09:29Z</time>
      </trkpt>
      <trkpt lat="41.793333" lon="-8.138783">
        <ele>670.0</ele>
        <time>2010-08-26T16:09:30Z</time>
      </trkpt>
      <trkpt lat="41.793317" lon="-8.138750">
        <ele>670.0</ele>
        <time>2010-08-26T16:09:31Z</time>
      </trkpt>
      <trkpt lat="41.793283" lon="-8.138717">
        <ele>670.0</ele>
        <time>2010-08-26T16:09:32Z</time>
      </trkpt>
      <trkpt lat="41.793250" lon="-8.138700">
        <ele>670.0</ele>
        <time>2010-08-26T16:09:33Z</time>
      </trkpt>
      <trkpt lat="41.793217" lon="-8.138667">
        <ele>669.0</ele>
        <time>2010-08-26T16:09:34Z</time>
      </trkpt>
      <trkpt lat="41.793183" lon="-8.138633">
        <ele>669.0</ele>
        <time>2010-08-26T16:09:35Z</time>
      </trkpt>
      <trkpt lat="41.793133" lon="-8.138600">
        <ele>669.0</ele>
        <time>2010-08-26T16:09:36Z</time>
      </trkpt>
      <trkpt lat="41.793117" lon="-8.138583">
        <ele>669.0</ele>
        <time>2010-08-26T16:09:37Z</time>
      </trkpt>
      <trkpt lat="41.793083" lon="-8.138550">
        <ele>668.0</ele>
        <time>2010-08-26T16:09:38Z</time>
      </trkpt>
      <trkpt lat="41.793050" lon="-8.138517">
        <ele>668.0</ele>
        <time>2010-08-26T16:09:39Z</time>
      </trkpt>
      <trkpt lat="41.793033" lon="-8.138500">
        <ele>668.0</ele>
        <time>2010-08-26T16:09:40Z</time>
      </trkpt>
      <trkpt lat="41.793017" lon="-8.138467">
        <ele>668.0</ele>
        <time>2010-08-26T16:09:41Z</time>
      </trkpt>
      <trkpt lat="41.793017" lon="-8.138433">
        <ele>667.0</ele>
        <time>2010-08-26T16:09:42Z</time>
      </trkpt>
      <trkpt lat="41.793000" lon="-8.138417">
        <ele>667.0</ele>
        <time>2010-08-26T16:09:43Z</time>
      </trkpt>
      <trkpt lat="41.792967" lon="-8.138383">
        <ele>667.0</ele>
        <time>2010-08-26T16:09:44Z</time>
      </trkpt>
      <trkpt lat="41.792950" lon="-8.138350">
        <ele>667.0</ele>
        <time>2010-08-26T16:09:45Z</time>
      </trkpt>
      <trkpt lat="41.792933" lon="-8.138317">
        <ele>667.0</ele>
        <time>2010-08-26T16:09:46Z</time>
      </trkpt>
      <trkpt lat="41.792917" lon="-8.138283">
        <ele>666.0</ele>
        <time>2010-08-26T16:09:47Z</time>
      </trkpt>
      <trkpt lat="41.792900" lon="-8.138250">
        <ele>666.0</ele>
        <time>2010-08-26T16:09:48Z</time>
      </trkpt>
      <trkpt lat="41.792883" lon="-8.138233">
        <ele>666.0</ele>
        <time>2010-08-26T16:09:49Z</time>
      </trkpt>
      <trkpt lat="41.792867" lon="-8.138200">
        <ele>665.0</ele>
        <time>2010-08-26T16:09:50Z</time>
      </trkpt>
      <trkpt lat="41.792850" lon="-8.138167">
        <ele>665.0</ele>
        <time>2010-08-26T16:09:51Z</time>
      </trkpt>
      <trkpt lat="41.792833" lon="-8.138150">
        <ele>665.0</ele>
        <time>2010-08-26T16:09:52Z</time>
      </trkpt>
      <trkpt lat="41.792817" lon="-8.138133">
        <ele>666.0</ele>
        <time>2010-08-26T16:09:53Z</time>
      </trkpt>
      <trkpt lat="41.792800" lon="-8.138100">
        <ele>666.0</ele>
        <time>2010-08-26T16:09:54Z</time>
      </trkpt>
      <trkpt lat="41.792783" lon="-8.138083">
        <ele>667.0</ele>
        <time>2010-08-26T16:09:55Z</time>
      </trkpt>
      <trkpt lat="41.792750" lon="-8.138067">
        <ele>668.0</ele>
        <time>2010-08-26T16:09:56Z</time>
      </trkpt>
      <trkpt lat="41.792733" lon="-8.138050">
        <ele>669.0</ele>
        <time>2010-08-26T16:09:57Z</time>
      </trkpt>
      <trkpt lat="41.792717" lon="-8.138017">
        <ele>670.0</ele>
        <time>2010-08-26T16:09:58Z</time>
      </trkpt>
      <trkpt lat="41.792683" lon="-8.137983">
        <ele>671.0</ele>
        <time>2010-08-26T16:10:00Z</time>
      </trkpt>
      <trkpt lat="41.792667" lon="-8.137933">
        <ele>673.0</ele>
        <time>2010-08-26T16:10:05Z</time>
      </trkpt>
      <trkpt lat="41.792617" lon="-8.137933">
        <ele>678.0</ele>
        <time>2010-08-26T16:10:15Z</time>
      </trkpt>
      <trkpt lat="41.792583" lon="-8.137933">
        <ele>685.0</ele>
        <time>2010-08-26T16:10:21Z</time>
      </trkpt>
      <trkpt lat="41.792533" lon="-8.137917">
        <ele>691.0</ele>
        <time>2010-08-26T16:10:28Z</time>
      </trkpt>
      <trkpt lat="41.792500" lon="-8.137883">
        <ele>698.0</ele>
        <time>2010-08-26T16:10:37Z</time>
      </trkpt>
      <trkpt lat="41.792500" lon="-8.137833">
        <ele>696.0</ele>
        <time>2010-08-26T16:10:50Z</time>
      </trkpt>
      <trkpt lat="41.792550" lon="-8.137833">
        <ele>684.0</ele>
        <time>2010-08-26T16:10:59Z</time>
      </trkpt>
      <trkpt lat="41.792550" lon="-8.137783">
        <ele>676.0</ele>
        <time>2010-08-26T16:11:05Z</time>
      </trkpt>
      <trkpt lat="41.792533" lon="-8.137733">
        <ele>672.0</ele>
        <time>2010-08-26T16:11:09Z</time>
      </trkpt>
      <trkpt lat="41.792500" lon="-8.137700">
        <ele>669.0</ele>
        <time>2010-08-26T16:11:13Z</time>
      </trkpt>
      <trkpt lat="41.792467" lon="-8.137717">
        <ele>669.0</ele>
        <time>2010-08-26T16:11:16Z</time>
      </trkpt>
      <trkpt lat="41.792417" lon="-8.137733">
        <ele>670.0</ele>
        <time>2010-08-26T16:11:19Z</time>
      </trkpt>
      <trkpt lat="41.792383" lon="-8.137733">
        <ele>671.0</ele>
        <time>2010-08-26T16:11:21Z</time>
      </trkpt>
      <trkpt lat="41.792350" lon="-8.137733">
        <ele>672.0</ele>
        <time>2010-08-26T16:11:23Z</time>
      </trkpt>
      <trkpt lat="41.792317" lon="-8.137750">
        <ele>674.0</ele>
        <time>2010-08-26T16:11:25Z</time>
      </trkpt>
      <trkpt lat="41.792267" lon="-8.137767">
        <ele>677.0</ele>
        <time>2010-08-26T16:11:28Z</time>
      </trkpt>
      <trkpt lat="41.792233" lon="-8.137783">
        <ele>680.0</ele>
        <time>2010-08-26T16:11:31Z</time>
      </trkpt>
      <trkpt lat="41.792183" lon="-8.137783">
        <ele>684.0</ele>
        <time>2010-08-26T16:11:34Z</time>
      </trkpt>
      <trkpt lat="41.792150" lon="-8.137800">
        <ele>687.0</ele>
        <time>2010-08-26T16:11:37Z</time>
      </trkpt>
      <trkpt lat="41.792117" lon="-8.137800">
        <ele>689.0</ele>
        <time>2010-08-26T16:11:40Z</time>
      </trkpt>
      <trkpt lat="41.792067" lon="-8.137817">
        <ele>693.0</ele>
        <time>2010-08-26T16:11:44Z</time>
      </trkpt>
      <trkpt lat="41.792033" lon="-8.137800">
        <ele>697.0</ele>
        <time>2010-08-26T16:11:47Z</time>
      </trkpt>
      <trkpt lat="41.792000" lon="-8.137800">
        <ele>700.0</ele>
        <time>2010-08-26T16:11:49Z</time>
      </trkpt>
      <trkpt lat="41.791967" lon="-8.137783">
        <ele>702.0</ele>
        <time>2010-08-26T16:11:51Z</time>
      </trkpt>
      <trkpt lat="41.791933" lon="-8.137767">
        <ele>704.0</ele>
        <time>2010-08-26T16:11:53Z</time>
      </trkpt>
      <trkpt lat="41.791883" lon="-8.137750">
        <ele>706.0</ele>
        <time>2010-08-26T16:11:55Z</time>
      </trkpt>
      <trkpt lat="41.791867" lon="-8.137733">
        <ele>707.0</ele>
        <time>2010-08-26T16:11:56Z</time>
      </trkpt>
      <trkpt lat="41.791850" lon="-8.137733">
        <ele>708.0</ele>
        <time>2010-08-26T16:11:57Z</time>
      </trkpt>
      <trkpt lat="41.791817" lon="-8.137717">
        <ele>710.0</ele>
        <time>2010-08-26T16:11:58Z</time>
      </trkpt>
      <trkpt lat="41.791800" lon="-8.137717">
        <ele>711.0</ele>
        <time>2010-08-26T16:11:59Z</time>
      </trkpt>
      <trkpt lat="41.791750" lon="-8.137700">
        <ele>712.0</ele>
        <time>2010-08-26T16:12:01Z</time>
      </trkpt>
      <trkpt lat="41.791733" lon="-8.137683">
        <ele>713.0</ele>
        <time>2010-08-26T16:12:03Z</time>
      </trkpt>
      <trkpt lat="41.791700" lon="-8.137667">
        <ele>714.0</ele>
        <time>2010-08-26T16:12:05Z</time>
      </trkpt>
      <trkpt lat="41.791667" lon="-8.137650">
        <ele>715.0</ele>
        <time>2010-08-26T16:12:07Z</time>
      </trkpt>
      <trkpt lat="41.791617" lon="-8.137633">
        <ele>717.0</ele>
        <time>2010-08-26T16:12:09Z</time>
      </trkpt>
      <trkpt lat="41.791600" lon="-8.137600">
        <ele>718.0</ele>
        <time>2010-08-26T16:12:11Z</time>
      </trkpt>
      <trkpt lat="41.791550" lon="-8.137567">
        <ele>718.0</ele>
        <time>2010-08-26T16:12:14Z</time>
      </trkpt>
      <trkpt lat="41.791517" lon="-8.137567">
        <ele>718.0</ele>
        <time>2010-08-26T16:12:18Z</time>
      </trkpt>
      <trkpt lat="41.791483" lon="-8.137550">
        <ele>719.0</ele>
        <time>2010-08-26T16:12:23Z</time>
      </trkpt>
      <trkpt lat="41.791450" lon="-8.137550">
        <ele>720.0</ele>
        <time>2010-08-26T16:12:26Z</time>
      </trkpt>
      <trkpt lat="41.791417" lon="-8.137533">
        <ele>721.0</ele>
        <time>2010-08-26T16:12:28Z</time>
      </trkpt>
      <trkpt lat="41.791383" lon="-8.137500">
        <ele>721.0</ele>
        <time>2010-08-26T16:12:31Z</time>
      </trkpt>
      <trkpt lat="41.791333" lon="-8.137483">
        <ele>703.0</ele>
        <time>2010-08-26T16:12:48Z</time>
      </trkpt>
      <trkpt lat="41.791300" lon="-8.137467">
        <ele>698.0</ele>
        <time>2010-08-26T16:12:54Z</time>
      </trkpt>
      <trkpt lat="41.791267" lon="-8.137433">
        <ele>696.0</ele>
        <time>2010-08-26T16:12:57Z</time>
      </trkpt>
      <trkpt lat="41.791233" lon="-8.137400">
        <ele>692.0</ele>
        <time>2010-08-26T16:13:04Z</time>
      </trkpt>
      <trkpt lat="41.791200" lon="-8.137400">
        <ele>692.0</ele>
        <time>2010-08-26T16:13:08Z</time>
      </trkpt>
      <trkpt lat="41.791150" lon="-8.137383">
        <ele>694.0</ele>
        <time>2010-08-26T16:13:11Z</time>
      </trkpt>
      <trkpt lat="41.791117" lon="-8.137350">
        <ele>696.0</ele>
        <time>2010-08-26T16:13:14Z</time>
      </trkpt>
      <trkpt lat="41.791083" lon="-8.137333">
        <ele>698.0</ele>
        <time>2010-08-26T16:13:17Z</time>
      </trkpt>
      <trkpt lat="41.791050" lon="-8.137350">
        <ele>701.0</ele>
        <time>2010-08-26T16:13:20Z</time>
      </trkpt>
      <trkpt lat="41.791017" lon="-8.137317">
        <ele>703.0</ele>
        <time>2010-08-26T16:13:24Z</time>
      </trkpt>
      <trkpt lat="41.790983" lon="-8.137283">
        <ele>703.0</ele>
        <time>2010-08-26T16:13:28Z</time>
      </trkpt>
      <trkpt lat="41.790950" lon="-8.137283">
        <ele>704.0</ele>
        <time>2010-08-26T16:13:32Z</time>
      </trkpt>
      <trkpt lat="41.790917" lon="-8.137267">
        <ele>704.0</ele>
        <time>2010-08-26T16:13:35Z</time>
      </trkpt>
      <trkpt lat="41.790883" lon="-8.137250">
        <ele>704.0</ele>
        <time>2010-08-26T16:13:38Z</time>
      </trkpt>
      <trkpt lat="41.790833" lon="-8.137250">
        <ele>704.0</ele>
        <time>2010-08-26T16:13:41Z</time>
      </trkpt>
      <trkpt lat="41.790800" lon="-8.137250">
        <ele>703.0</ele>
        <time>2010-08-26T16:13:47Z</time>
      </trkpt>
      <trkpt lat="41.790750" lon="-8.137250">
        <ele>703.0</ele>
        <time>2010-08-26T16:13:54Z</time>
      </trkpt>
      <trkpt lat="41.790717" lon="-8.137217">
        <ele>702.0</ele>
        <time>2010-08-26T16:13:57Z</time>
      </trkpt>
      <trkpt lat="41.790683" lon="-8.137200">
        <ele>702.0</ele>
        <time>2010-08-26T16:14:01Z</time>
      </trkpt>
      <trkpt lat="41.790650" lon="-8.137183">
        <ele>703.0</ele>
        <time>2010-08-26T16:14:04Z</time>
      </trkpt>
      <trkpt lat="41.790617" lon="-8.137167">
        <ele>703.0</ele>
        <time>2010-08-26T16:14:08Z</time>
      </trkpt>
      <trkpt lat="41.790567" lon="-8.137167">
        <ele>704.0</ele>
        <time>2010-08-26T16:14:13Z</time>
      </trkpt>
      <trkpt lat="41.790533" lon="-8.137150">
        <ele>707.0</ele>
        <time>2010-08-26T16:14:17Z</time>
      </trkpt>
      <trkpt lat="41.790483" lon="-8.137150">
        <ele>708.0</ele>
        <time>2010-08-26T16:14:19Z</time>
      </trkpt>
      <trkpt lat="41.790467" lon="-8.137117">
        <ele>710.0</ele>
        <time>2010-08-26T16:14:21Z</time>
      </trkpt>
      <trkpt lat="41.790417" lon="-8.137117">
        <ele>712.0</ele>
        <time>2010-08-26T16:14:24Z</time>
      </trkpt>
      <trkpt lat="41.790383" lon="-8.137100">
        <ele>712.0</ele>
        <time>2010-08-26T16:14:29Z</time>
      </trkpt>
      <trkpt lat="41.790367" lon="-8.137067">
        <ele>712.0</ele>
        <time>2010-08-26T16:14:33Z</time>
      </trkpt>
      <trkpt lat="41.790317" lon="-8.137050">
        <ele>711.0</ele>
        <time>2010-08-26T16:14:37Z</time>
      </trkpt>
      <trkpt lat="41.790283" lon="-8.137033">
        <ele>710.0</ele>
        <time>2010-08-26T16:14:42Z</time>
      </trkpt>
      <trkpt lat="41.790267" lon="-8.136983">
        <ele>709.0</ele>
        <time>2010-08-26T16:14:47Z</time>
      </trkpt>
      <trkpt lat="41.790233" lon="-8.136950">
        <ele>710.0</ele>
        <time>2010-08-26T16:14:51Z</time>
      </trkpt>
      <trkpt lat="41.790200" lon="-8.136917">
        <ele>710.0</ele>
        <time>2010-08-26T16:14:55Z</time>
      </trkpt>
      <trkpt lat="41.790167" lon="-8.136883">
        <ele>710.0</ele>
        <time>2010-08-26T16:14:59Z</time>
      </trkpt>
      <trkpt lat="41.790133" lon="-8.136850">
        <ele>711.0</ele>
        <time>2010-08-26T16:15:02Z</time>
      </trkpt>
      <trkpt lat="41.790117" lon="-8.136817">
        <ele>711.0</ele>
        <time>2010-08-26T16:15:05Z</time>
      </trkpt>
      <trkpt lat="41.790083" lon="-8.136800">
        <ele>712.0</ele>
        <time>2010-08-26T16:15:08Z</time>
      </trkpt>
      <trkpt lat="41.790033" lon="-8.136783">
        <ele>712.0</ele>
        <time>2010-08-26T16:15:11Z</time>
      </trkpt>
      <trkpt lat="41.790000" lon="-8.136750">
        <ele>712.0</ele>
        <time>2010-08-26T16:15:15Z</time>
      </trkpt>
      <trkpt lat="41.789967" lon="-8.136717">
        <ele>712.0</ele>
        <time>2010-08-26T16:15:18Z</time>
      </trkpt>
      <trkpt lat="41.789933" lon="-8.136683">
        <ele>712.0</ele>
        <time>2010-08-26T16:15:21Z</time>
      </trkpt>
      <trkpt lat="41.789900" lon="-8.136667">
        <ele>712.0</ele>
        <time>2010-08-26T16:15:25Z</time>
      </trkpt>
      <trkpt lat="41.789883" lon="-8.136633">
        <ele>711.0</ele>
        <time>2010-08-26T16:15:28Z</time>
      </trkpt>
      <trkpt lat="41.789867" lon="-8.136583">
        <ele>708.0</ele>
        <time>2010-08-26T16:15:32Z</time>
      </trkpt>
      <trkpt lat="41.789833" lon="-8.136533">
        <ele>707.0</ele>
        <time>2010-08-26T16:15:35Z</time>
      </trkpt>
      <trkpt lat="41.789800" lon="-8.136500">
        <ele>708.0</ele>
        <time>2010-08-26T16:15:40Z</time>
      </trkpt>
      <trkpt lat="41.789767" lon="-8.136500">
        <ele>708.0</ele>
        <time>2010-08-26T16:16:01Z</time>
      </trkpt>
      <trkpt lat="41.789733" lon="-8.136483">
        <ele>710.0</ele>
        <time>2010-08-26T16:16:04Z</time>
      </trkpt>
      <trkpt lat="41.789700" lon="-8.136450">
        <ele>713.0</ele>
        <time>2010-08-26T16:16:08Z</time>
      </trkpt>
      <trkpt lat="41.789650" lon="-8.136450">
        <ele>718.0</ele>
        <time>2010-08-26T16:16:15Z</time>
      </trkpt>
      <trkpt lat="41.789667" lon="-8.136500">
        <ele>724.0</ele>
        <time>2010-08-26T16:16:25Z</time>
      </trkpt>
      <trkpt lat="41.789700" lon="-8.136467">
        <ele>721.0</ele>
        <time>2010-08-26T16:16:38Z</time>
      </trkpt>
      <trkpt lat="41.789717" lon="-8.136417">
        <ele>716.0</ele>
        <time>2010-08-26T16:16:44Z</time>
      </trkpt>
      <trkpt lat="41.789733" lon="-8.136383">
        <ele>710.0</ele>
        <time>2010-08-26T16:16:49Z</time>
      </trkpt>
      <trkpt lat="41.789767" lon="-8.136367">
        <ele>707.0</ele>
        <time>2010-08-26T16:16:51Z</time>
      </trkpt>
      <trkpt lat="41.789783" lon="-8.136350">
        <ele>706.0</ele>
        <time>2010-08-26T16:16:52Z</time>
      </trkpt>
      <trkpt lat="41.789817" lon="-8.136367">
        <ele>705.0</ele>
        <time>2010-08-26T16:16:53Z</time>
      </trkpt>
      <trkpt lat="41.789850" lon="-8.136383">
        <ele>704.0</ele>
        <time>2010-08-26T16:16:54Z</time>
      </trkpt>
      <trkpt lat="41.789867" lon="-8.136383">
        <ele>704.0</ele>
        <time>2010-08-26T16:16:55Z</time>
      </trkpt>
      <trkpt lat="41.789900" lon="-8.136400">
        <ele>703.0</ele>
        <time>2010-08-26T16:16:56Z</time>
      </trkpt>
      <trkpt lat="41.789917" lon="-8.136400">
        <ele>703.0</ele>
        <time>2010-08-26T16:16:57Z</time>
      </trkpt>
      <trkpt lat="41.789950" lon="-8.136417">
        <ele>702.0</ele>
        <time>2010-08-26T16:16:58Z</time>
      </trkpt>
      <trkpt lat="41.790000" lon="-8.136417">
        <ele>702.0</ele>
        <time>2010-08-26T16:16:59Z</time>
      </trkpt>
      <trkpt lat="41.790033" lon="-8.136417">
        <ele>701.0</ele>
        <time>2010-08-26T16:17:00Z</time>
      </trkpt>
      <trkpt lat="41.790067" lon="-8.136417">
        <ele>701.0</ele>
        <time>2010-08-26T16:17:01Z</time>
      </trkpt>
      <trkpt lat="41.790117" lon="-8.136417">
        <ele>701.0</ele>
        <time>2010-08-26T16:17:02Z</time>
      </trkpt>
      <trkpt lat="41.790150" lon="-8.136433">
        <ele>701.0</ele>
        <time>2010-08-26T16:17:03Z</time>
      </trkpt>
      <trkpt lat="41.790200" lon="-8.136433">
        <ele>701.0</ele>
        <time>2010-08-26T16:17:04Z</time>
      </trkpt>
      <trkpt lat="41.790250" lon="-8.136433">
        <ele>701.0</ele>
        <time>2010-08-26T16:17:05Z</time>
      </trkpt>
      <trkpt lat="41.790300" lon="-8.136450">
        <ele>701.0</ele>
        <time>2010-08-26T16:17:06Z</time>
      </trkpt>
      <trkpt lat="41.790367" lon="-8.136467">
        <ele>701.0</ele>
        <time>2010-08-26T16:17:07Z</time>
      </trkpt>
      <trkpt lat="41.790433" lon="-8.136483">
        <ele>701.0</ele>
        <time>2010-08-26T16:17:08Z</time>
      </trkpt>
      <trkpt lat="41.790500" lon="-8.136483">
        <ele>701.0</ele>
        <time>2010-08-26T16:17:09Z</time>
      </trkpt>
      <trkpt lat="41.790567" lon="-8.136483">
        <ele>701.0</ele>
        <time>2010-08-26T16:17:10Z</time>
      </trkpt>
      <trkpt lat="41.790633" lon="-8.136483">
        <ele>701.0</ele>
        <time>2010-08-26T16:17:11Z</time>
      </trkpt>
      <trkpt lat="41.790700" lon="-8.136483">
        <ele>701.0</ele>
        <time>2010-08-26T16:17:12Z</time>
      </trkpt>
      <trkpt lat="41.790767" lon="-8.136467">
        <ele>701.0</ele>
        <time>2010-08-26T16:17:13Z</time>
      </trkpt>
      <trkpt lat="41.790850" lon="-8.136433">
        <ele>700.0</ele>
        <time>2010-08-26T16:17:14Z</time>
      </trkpt>
      <trkpt lat="41.790933" lon="-8.136400">
        <ele>700.0</ele>
        <time>2010-08-26T16:17:15Z</time>
      </trkpt>
      <trkpt lat="41.791017" lon="-8.136333">
        <ele>699.0</ele>
        <time>2010-08-26T16:17:16Z</time>
      </trkpt>
      <trkpt lat="41.791083" lon="-8.136283">
        <ele>699.0</ele>
        <time>2010-08-26T16:17:17Z</time>
      </trkpt>
      <trkpt lat="41.791150" lon="-8.136217">
        <ele>698.0</ele>
        <time>2010-08-26T16:17:18Z</time>
      </trkpt>
      <trkpt lat="41.791217" lon="-8.136167">
        <ele>698.0</ele>
        <time>2010-08-26T16:17:19Z</time>
      </trkpt>
      <trkpt lat="41.791283" lon="-8.136117">
        <ele>697.0</ele>
        <time>2010-08-26T16:17:20Z</time>
      </trkpt>
      <trkpt lat="41.791333" lon="-8.136050">
        <ele>697.0</ele>
        <time>2010-08-26T16:17:21Z</time>
      </trkpt>
      <trkpt lat="41.791400" lon="-8.136000">
        <ele>696.0</ele>
        <time>2010-08-26T16:17:22Z</time>
      </trkpt>
      <trkpt lat="41.791450" lon="-8.135950">
        <ele>696.0</ele>
        <time>2010-08-26T16:17:23Z</time>
      </trkpt>
      <trkpt lat="41.791517" lon="-8.135917">
        <ele>695.0</ele>
        <time>2010-08-26T16:17:24Z</time>
      </trkpt>
      <trkpt lat="41.791567" lon="-8.135883">
        <ele>695.0</ele>
        <time>2010-08-26T16:17:25Z</time>
      </trkpt>
      <trkpt lat="41.791633" lon="-8.135867">
        <ele>695.0</ele>
        <time>2010-08-26T16:17:26Z</time>
      </trkpt>
      <trkpt lat="41.791683" lon="-8.135850">
        <ele>695.0</ele>
        <time>2010-08-26T16:17:27Z</time>
      </trkpt>
      <trkpt lat="41.791717" lon="-8.135850">
        <ele>695.0</ele>
        <time>2010-08-26T16:17:28Z</time>
      </trkpt>
      <trkpt lat="41.791750" lon="-8.135850">
        <ele>695.0</ele>
        <time>2010-08-26T16:17:29Z</time>
      </trkpt>
      <trkpt lat="41.791783" lon="-8.135833">
        <ele>696.0</ele>
        <time>2010-08-26T16:17:30Z</time>
      </trkpt>
      <trkpt lat="41.791800" lon="-8.135833">
        <ele>696.0</ele>
        <time>2010-08-26T16:17:31Z</time>
      </trkpt>
      <trkpt lat="41.791833" lon="-8.135817">
        <ele>697.0</ele>
        <time>2010-08-26T16:17:32Z</time>
      </trkpt>
      <trkpt lat="41.791850" lon="-8.135800">
        <ele>697.0</ele>
        <time>2010-08-26T16:17:33Z</time>
      </trkpt>
      <trkpt lat="41.791883" lon="-8.135783">
        <ele>698.0</ele>
        <time>2010-08-26T16:17:34Z</time>
      </trkpt>
      <trkpt lat="41.791917" lon="-8.135767">
        <ele>698.0</ele>
        <time>2010-08-26T16:17:35Z</time>
      </trkpt>
      <trkpt lat="41.791933" lon="-8.135733">
        <ele>699.0</ele>
        <time>2010-08-26T16:17:36Z</time>
      </trkpt>
      <trkpt lat="41.791967" lon="-8.135700">
        <ele>700.0</ele>
        <time>2010-08-26T16:17:37Z</time>
      </trkpt>
      <trkpt lat="41.791983" lon="-8.135683">
        <ele>700.0</ele>
        <time>2010-08-26T16:17:38Z</time>
      </trkpt>
      <trkpt lat="41.792000" lon="-8.135650">
        <ele>701.0</ele>
        <time>2010-08-26T16:17:39Z</time>
      </trkpt>
      <trkpt lat="41.792017" lon="-8.135617">
        <ele>701.0</ele>
        <time>2010-08-26T16:17:40Z</time>
      </trkpt>
      <trkpt lat="41.792017" lon="-8.135583">
        <ele>702.0</ele>
        <time>2010-08-26T16:17:41Z</time>
      </trkpt>
      <trkpt lat="41.792033" lon="-8.135550">
        <ele>702.0</ele>
        <time>2010-08-26T16:17:42Z</time>
      </trkpt>
      <trkpt lat="41.792050" lon="-8.135517">
        <ele>703.0</ele>
        <time>2010-08-26T16:17:43Z</time>
      </trkpt>
      <trkpt lat="41.792067" lon="-8.135483">
        <ele>703.0</ele>
        <time>2010-08-26T16:17:44Z</time>
      </trkpt>
      <trkpt lat="41.792083" lon="-8.135433">
        <ele>703.0</ele>
        <time>2010-08-26T16:17:45Z</time>
      </trkpt>
      <trkpt lat="41.792083" lon="-8.135400">
        <ele>704.0</ele>
        <time>2010-08-26T16:17:46Z</time>
      </trkpt>
      <trkpt lat="41.792117" lon="-8.135367">
        <ele>704.0</ele>
        <time>2010-08-26T16:17:47Z</time>
      </trkpt>
      <trkpt lat="41.792133" lon="-8.135333">
        <ele>704.0</ele>
        <time>2010-08-26T16:17:48Z</time>
      </trkpt>
      <trkpt lat="41.792150" lon="-8.135283">
        <ele>705.0</ele>
        <time>2010-08-26T16:17:49Z</time>
      </trkpt>
      <trkpt lat="41.792183" lon="-8.135250">
        <ele>705.0</ele>
        <time>2010-08-26T16:17:50Z</time>
      </trkpt>
      <trkpt lat="41.792200" lon="-8.135217">
        <ele>706.0</ele>
        <time>2010-08-26T16:17:51Z</time>
      </trkpt>
      <trkpt lat="41.792250" lon="-8.135167">
        <ele>706.0</ele>
        <time>2010-08-26T16:17:52Z</time>
      </trkpt>
      <trkpt lat="41.792283" lon="-8.135133">
        <ele>707.0</ele>
        <time>2010-08-26T16:17:53Z</time>
      </trkpt>
      <trkpt lat="41.792317" lon="-8.135083">
        <ele>708.0</ele>
        <time>2010-08-26T16:17:54Z</time>
      </trkpt>
      <trkpt lat="41.792367" lon="-8.135050">
        <ele>709.0</ele>
        <time>2010-08-26T16:17:55Z</time>
      </trkpt>
      <trkpt lat="41.792417" lon="-8.135000">
        <ele>710.0</ele>
        <time>2010-08-26T16:17:56Z</time>
      </trkpt>
      <trkpt lat="41.792450" lon="-8.134967">
        <ele>710.0</ele>
        <time>2010-08-26T16:17:57Z</time>
      </trkpt>
      <trkpt lat="41.792500" lon="-8.134917">
        <ele>711.0</ele>
        <time>2010-08-26T16:17:58Z</time>
      </trkpt>
      <trkpt lat="41.792533" lon="-8.134883">
        <ele>712.0</ele>
        <time>2010-08-26T16:17:59Z</time>
      </trkpt>
      <trkpt lat="41.792583" lon="-8.134867">
        <ele>712.0</ele>
        <time>2010-08-26T16:18:00Z</time>
      </trkpt>
      <trkpt lat="41.792617" lon="-8.134850">
        <ele>713.0</ele>
        <time>2010-08-26T16:18:01Z</time>
      </trkpt>
      <trkpt lat="41.792650" lon="-8.134850">
        <ele>714.0</ele>
        <time>2010-08-26T16:18:03Z</time>
      </trkpt>
      <trkpt lat="41.792683" lon="-8.134867">
        <ele>715.0</ele>
        <time>2010-08-26T16:18:08Z</time>
      </trkpt>
      <trkpt lat="41.792700" lon="-8.134900">
        <ele>716.0</ele>
        <time>2010-08-26T16:18:09Z</time>
      </trkpt>
      <trkpt lat="41.792717" lon="-8.134933">
        <ele>716.0</ele>
        <time>2010-08-26T16:18:10Z</time>
      </trkpt>
      <trkpt lat="41.792733" lon="-8.134950">
        <ele>716.0</ele>
        <time>2010-08-26T16:18:11Z</time>
      </trkpt>
      <trkpt lat="41.792750" lon="-8.134983">
        <ele>716.0</ele>
        <time>2010-08-26T16:18:12Z</time>
      </trkpt>
      <trkpt lat="41.792750" lon="-8.135017">
        <ele>716.0</ele>
        <time>2010-08-26T16:18:13Z</time>
      </trkpt>
      <trkpt lat="41.792767" lon="-8.135050">
        <ele>716.0</ele>
        <time>2010-08-26T16:18:14Z</time>
      </trkpt>
      <trkpt lat="41.792783" lon="-8.135067">
        <ele>716.0</ele>
        <time>2010-08-26T16:18:15Z</time>
      </trkpt>
      <trkpt lat="41.792800" lon="-8.135100">
        <ele>716.0</ele>
        <time>2010-08-26T16:18:16Z</time>
      </trkpt>
      <trkpt lat="41.792817" lon="-8.135117">
        <ele>717.0</ele>
        <time>2010-08-26T16:18:17Z</time>
      </trkpt>
      <trkpt lat="41.792850" lon="-8.135133">
        <ele>717.0</ele>
        <time>2010-08-26T16:18:18Z</time>
      </trkpt>
      <trkpt lat="41.792883" lon="-8.135167">
        <ele>717.0</ele>
        <time>2010-08-26T16:18:20Z</time>
      </trkpt>
      <trkpt lat="41.792900" lon="-8.135183">
        <ele>717.0</ele>
        <time>2010-08-26T16:18:21Z</time>
      </trkpt>
      <trkpt lat="41.792933" lon="-8.135183">
        <ele>717.0</ele>
        <time>2010-08-26T16:18:22Z</time>
      </trkpt>
      <trkpt lat="41.792950" lon="-8.135183">
        <ele>716.0</ele>
        <time>2010-08-26T16:18:23Z</time>
      </trkpt>
      <trkpt lat="41.793000" lon="-8.135200">
        <ele>716.0</ele>
        <time>2010-08-26T16:18:25Z</time>
      </trkpt>
      <trkpt lat="41.793017" lon="-8.135200">
        <ele>715.0</ele>
        <time>2010-08-26T16:18:26Z</time>
      </trkpt>
      <trkpt lat="41.793033" lon="-8.135183">
        <ele>715.0</ele>
        <time>2010-08-26T16:18:27Z</time>
      </trkpt>
      <trkpt lat="41.793067" lon="-8.135167">
        <ele>714.0</ele>
        <time>2010-08-26T16:18:28Z</time>
      </trkpt>
      <trkpt lat="41.793083" lon="-8.135150">
        <ele>714.0</ele>
        <time>2010-08-26T16:18:29Z</time>
      </trkpt>
      <trkpt lat="41.793117" lon="-8.135133">
        <ele>713.0</ele>
        <time>2010-08-26T16:18:30Z</time>
      </trkpt>
      <trkpt lat="41.793133" lon="-8.135117">
        <ele>712.0</ele>
        <time>2010-08-26T16:18:31Z</time>
      </trkpt>
      <trkpt lat="41.793150" lon="-8.135100">
        <ele>712.0</ele>
        <time>2010-08-26T16:18:32Z</time>
      </trkpt>
      <trkpt lat="41.793167" lon="-8.135083">
        <ele>711.0</ele>
        <time>2010-08-26T16:18:33Z</time>
      </trkpt>
      <trkpt lat="41.793183" lon="-8.135050">
        <ele>710.0</ele>
        <time>2010-08-26T16:18:34Z</time>
      </trkpt>
      <trkpt lat="41.793217" lon="-8.135033">
        <ele>709.0</ele>
        <time>2010-08-26T16:18:35Z</time>
      </trkpt>
      <trkpt lat="41.793233" lon="-8.135017">
        <ele>709.0</ele>
        <time>2010-08-26T16:18:36Z</time>
      </trkpt>
      <trkpt lat="41.793250" lon="-8.134983">
        <ele>708.0</ele>
        <time>2010-08-26T16:18:37Z</time>
      </trkpt>
      <trkpt lat="41.793267" lon="-8.134950">
        <ele>707.0</ele>
        <time>2010-08-26T16:18:38Z</time>
      </trkpt>
      <trkpt lat="41.793283" lon="-8.134933">
        <ele>707.0</ele>
        <time>2010-08-26T16:18:39Z</time>
      </trkpt>
      <trkpt lat="41.793300" lon="-8.134900">
        <ele>706.0</ele>
        <time>2010-08-26T16:18:40Z</time>
      </trkpt>
      <trkpt lat="41.793333" lon="-8.134867">
        <ele>706.0</ele>
        <time>2010-08-26T16:18:41Z</time>
      </trkpt>
      <trkpt lat="41.793350" lon="-8.134833">
        <ele>705.0</ele>
        <time>2010-08-26T16:18:42Z</time>
      </trkpt>
      <trkpt lat="41.793367" lon="-8.134800">
        <ele>705.0</ele>
        <time>2010-08-26T16:18:43Z</time>
      </trkpt>
      <trkpt lat="41.793400" lon="-8.134783">
        <ele>704.0</ele>
        <time>2010-08-26T16:18:44Z</time>
      </trkpt>
      <trkpt lat="41.793417" lon="-8.134767">
        <ele>704.0</ele>
        <time>2010-08-26T16:18:45Z</time>
      </trkpt>
      <trkpt lat="41.793450" lon="-8.134750">
        <ele>703.0</ele>
        <time>2010-08-26T16:18:46Z</time>
      </trkpt>
      <trkpt lat="41.793483" lon="-8.134733">
        <ele>703.0</ele>
        <time>2010-08-26T16:18:47Z</time>
      </trkpt>
      <trkpt lat="41.793500" lon="-8.134717">
        <ele>703.0</ele>
        <time>2010-08-26T16:18:48Z</time>
      </trkpt>
      <trkpt lat="41.793517" lon="-8.134683">
        <ele>702.0</ele>
        <time>2010-08-26T16:18:49Z</time>
      </trkpt>
      <trkpt lat="41.793550" lon="-8.134667">
        <ele>702.0</ele>
        <time>2010-08-26T16:18:50Z</time>
      </trkpt>
      <trkpt lat="41.793567" lon="-8.134667">
        <ele>701.0</ele>
        <time>2010-08-26T16:18:51Z</time>
      </trkpt>
      <trkpt lat="41.793600" lon="-8.134667">
        <ele>701.0</ele>
        <time>2010-08-26T16:18:52Z</time>
      </trkpt>
      <trkpt lat="41.793617" lon="-8.134650">
        <ele>700.0</ele>
        <time>2010-08-26T16:18:53Z</time>
      </trkpt>
      <trkpt lat="41.793633" lon="-8.134650">
        <ele>700.0</ele>
        <time>2010-08-26T16:18:54Z</time>
      </trkpt>
      <trkpt lat="41.793683" lon="-8.134633">
        <ele>699.0</ele>
        <time>2010-08-26T16:18:56Z</time>
      </trkpt>
      <trkpt lat="41.793733" lon="-8.134617">
        <ele>699.0</ele>
        <time>2010-08-26T16:18:58Z</time>
      </trkpt>
      <trkpt lat="41.793750" lon="-8.134617">
        <ele>699.0</ele>
        <time>2010-08-26T16:18:59Z</time>
      </trkpt>
      <trkpt lat="41.793783" lon="-8.134617">
        <ele>699.0</ele>
        <time>2010-08-26T16:19:01Z</time>
      </trkpt>
      <trkpt lat="41.793833" lon="-8.134600">
        <ele>700.0</ele>
        <time>2010-08-26T16:19:03Z</time>
      </trkpt>
      <trkpt lat="41.793867" lon="-8.134583">
        <ele>701.0</ele>
        <time>2010-08-26T16:19:05Z</time>
      </trkpt>
      <trkpt lat="41.793900" lon="-8.134567">
        <ele>702.0</ele>
        <time>2010-08-26T16:19:07Z</time>
      </trkpt>
      <trkpt lat="41.793933" lon="-8.134533">
        <ele>703.0</ele>
        <time>2010-08-26T16:19:09Z</time>
      </trkpt>
      <trkpt lat="41.793967" lon="-8.134500">
        <ele>704.0</ele>
        <time>2010-08-26T16:19:11Z</time>
      </trkpt>
      <trkpt lat="41.793983" lon="-8.134483">
        <ele>704.0</ele>
        <time>2010-08-26T16:19:12Z</time>
      </trkpt>
      <trkpt lat="41.794017" lon="-8.134450">
        <ele>704.0</ele>
        <time>2010-08-26T16:19:13Z</time>
      </trkpt>
      <trkpt lat="41.794033" lon="-8.134433">
        <ele>704.0</ele>
        <time>2010-08-26T16:19:14Z</time>
      </trkpt>
      <trkpt lat="41.794050" lon="-8.134417">
        <ele>704.0</ele>
        <time>2010-08-26T16:19:15Z</time>
      </trkpt>
      <trkpt lat="41.794067" lon="-8.134400">
        <ele>705.0</ele>
        <time>2010-08-26T16:19:16Z</time>
      </trkpt>
      <trkpt lat="41.794100" lon="-8.134383">
        <ele>705.0</ele>
        <time>2010-08-26T16:19:17Z</time>
      </trkpt>
      <trkpt lat="41.794117" lon="-8.134350">
        <ele>705.0</ele>
        <time>2010-08-26T16:19:18Z</time>
      </trkpt>
      <trkpt lat="41.794150" lon="-8.134333">
        <ele>705.0</ele>
        <time>2010-08-26T16:19:19Z</time>
      </trkpt>
      <trkpt lat="41.794167" lon="-8.134317">
        <ele>705.0</ele>
        <time>2010-08-26T16:19:20Z</time>
      </trkpt>
      <trkpt lat="41.794200" lon="-8.134300">
        <ele>705.0</ele>
        <time>2010-08-26T16:19:21Z</time>
      </trkpt>
      <trkpt lat="41.794217" lon="-8.134267">
        <ele>705.0</ele>
        <time>2010-08-26T16:19:22Z</time>
      </trkpt>
      <trkpt lat="41.794250" lon="-8.134250">
        <ele>705.0</ele>
        <time>2010-08-26T16:19:23Z</time>
      </trkpt>
      <trkpt lat="41.794267" lon="-8.134233">
        <ele>705.0</ele>
        <time>2010-08-26T16:19:24Z</time>
      </trkpt>
      <trkpt lat="41.794300" lon="-8.134217">
        <ele>705.0</ele>
        <time>2010-08-26T16:19:25Z</time>
      </trkpt>
      <trkpt lat="41.794317" lon="-8.134200">
        <ele>706.0</ele>
        <time>2010-08-26T16:19:26Z</time>
      </trkpt>
      <trkpt lat="41.794350" lon="-8.134167">
        <ele>706.0</ele>
        <time>2010-08-26T16:19:28Z</time>
      </trkpt>
      <trkpt lat="41.794383" lon="-8.134150">
        <ele>706.0</ele>
        <time>2010-08-26T16:19:30Z</time>
      </trkpt>
      <trkpt lat="41.794433" lon="-8.134133">
        <ele>708.0</ele>
        <time>2010-08-26T16:19:33Z</time>
      </trkpt>
      <trkpt lat="41.794467" lon="-8.134133">
        <ele>712.0</ele>
        <time>2010-08-26T16:19:37Z</time>
      </trkpt>
      <trkpt lat="41.794517" lon="-8.134150">
        <ele>716.0</ele>
        <time>2010-08-26T16:19:42Z</time>
      </trkpt>
      <trkpt lat="41.794550" lon="-8.134150">
        <ele>717.0</ele>
        <time>2010-08-26T16:19:44Z</time>
      </trkpt>
      <trkpt lat="41.794583" lon="-8.134150">
        <ele>718.0</ele>
        <time>2010-08-26T16:19:46Z</time>
      </trkpt>
      <trkpt lat="41.794617" lon="-8.134167">
        <ele>719.0</ele>
        <time>2010-08-26T16:19:48Z</time>
      </trkpt>
      <trkpt lat="41.794650" lon="-8.134167">
        <ele>720.0</ele>
        <time>2010-08-26T16:19:50Z</time>
      </trkpt>
      <trkpt lat="41.794683" lon="-8.134167">
        <ele>721.0</ele>
        <time>2010-08-26T16:19:52Z</time>
      </trkpt>
      <trkpt lat="41.794717" lon="-8.134183">
        <ele>721.0</ele>
        <time>2010-08-26T16:19:54Z</time>
      </trkpt>
      <trkpt lat="41.794750" lon="-8.134183">
        <ele>722.0</ele>
        <time>2010-08-26T16:19:55Z</time>
      </trkpt>
      <trkpt lat="41.794767" lon="-8.134183">
        <ele>722.0</ele>
        <time>2010-08-26T16:19:56Z</time>
      </trkpt>
      <trkpt lat="41.794800" lon="-8.134183">
        <ele>722.0</ele>
        <time>2010-08-26T16:19:57Z</time>
      </trkpt>
      <trkpt lat="41.794833" lon="-8.134167">
        <ele>722.0</ele>
        <time>2010-08-26T16:19:58Z</time>
      </trkpt>
      <trkpt lat="41.794850" lon="-8.134167">
        <ele>722.0</ele>
        <time>2010-08-26T16:19:59Z</time>
      </trkpt>
      <trkpt lat="41.794883" lon="-8.134167">
        <ele>722.0</ele>
        <time>2010-08-26T16:20:00Z</time>
      </trkpt>
      <trkpt lat="41.794917" lon="-8.134150">
        <ele>722.0</ele>
        <time>2010-08-26T16:20:01Z</time>
      </trkpt>
      <trkpt lat="41.794950" lon="-8.134150">
        <ele>722.0</ele>
        <time>2010-08-26T16:20:02Z</time>
      </trkpt>
      <trkpt lat="41.794983" lon="-8.134150">
        <ele>722.0</ele>
        <time>2010-08-26T16:20:03Z</time>
      </trkpt>
      <trkpt lat="41.795017" lon="-8.134133">
        <ele>722.0</ele>
        <time>2010-08-26T16:20:04Z</time>
      </trkpt>
      <trkpt lat="41.795050" lon="-8.134133">
        <ele>722.0</ele>
        <time>2010-08-26T16:20:05Z</time>
      </trkpt>
      <trkpt lat="41.795083" lon="-8.134133">
        <ele>722.0</ele>
        <time>2010-08-26T16:20:06Z</time>
      </trkpt>
      <trkpt lat="41.795117" lon="-8.134133">
        <ele>722.0</ele>
        <time>2010-08-26T16:20:07Z</time>
      </trkpt>
      <trkpt lat="41.795150" lon="-8.134133">
        <ele>723.0</ele>
        <time>2010-08-26T16:20:08Z</time>
      </trkpt>
      <trkpt lat="41.795183" lon="-8.134133">
        <ele>723.0</ele>
        <time>2010-08-26T16:20:09Z</time>
      </trkpt>
      <trkpt lat="41.795217" lon="-8.134150">
        <ele>722.0</ele>
        <time>2010-08-26T16:20:10Z</time>
      </trkpt>
      <trkpt lat="41.795250" lon="-8.134150">
        <ele>722.0</ele>
        <time>2010-08-26T16:20:11Z</time>
      </trkpt>
      <trkpt lat="41.795300" lon="-8.134150">
        <ele>722.0</ele>
        <time>2010-08-26T16:20:12Z</time>
      </trkpt>
      <trkpt lat="41.795333" lon="-8.134167">
        <ele>721.0</ele>
        <time>2010-08-26T16:20:13Z</time>
      </trkpt>
      <trkpt lat="41.795367" lon="-8.134167">
        <ele>721.0</ele>
        <time>2010-08-26T16:20:14Z</time>
      </trkpt>
      <trkpt lat="41.795400" lon="-8.134167">
        <ele>720.0</ele>
        <time>2010-08-26T16:20:15Z</time>
      </trkpt>
      <trkpt lat="41.795433" lon="-8.134167">
        <ele>720.0</ele>
        <time>2010-08-26T16:20:16Z</time>
      </trkpt>
      <trkpt lat="41.795483" lon="-8.134183">
        <ele>719.0</ele>
        <time>2010-08-26T16:20:17Z</time>
      </trkpt>
      <trkpt lat="41.795517" lon="-8.134200">
        <ele>719.0</ele>
        <time>2010-08-26T16:20:18Z</time>
      </trkpt>
      <trkpt lat="41.795550" lon="-8.134200">
        <ele>718.0</ele>
        <time>2010-08-26T16:20:19Z</time>
      </trkpt>
      <trkpt lat="41.795583" lon="-8.134200">
        <ele>718.0</ele>
        <time>2010-08-26T16:20:20Z</time>
      </trkpt>
      <trkpt lat="41.795617" lon="-8.134217">
        <ele>717.0</ele>
        <time>2010-08-26T16:20:21Z</time>
      </trkpt>
      <trkpt lat="41.795650" lon="-8.134217">
        <ele>716.0</ele>
        <time>2010-08-26T16:20:22Z</time>
      </trkpt>
      <trkpt lat="41.795683" lon="-8.134233">
        <ele>716.0</ele>
        <time>2010-08-26T16:20:23Z</time>
      </trkpt>
      <trkpt lat="41.795717" lon="-8.134233">
        <ele>715.0</ele>
        <time>2010-08-26T16:20:24Z</time>
      </trkpt>
      <trkpt lat="41.795750" lon="-8.134250">
        <ele>714.0</ele>
        <time>2010-08-26T16:20:25Z</time>
      </trkpt>
      <trkpt lat="41.795783" lon="-8.134250">
        <ele>713.0</ele>
        <time>2010-08-26T16:20:26Z</time>
      </trkpt>
      <trkpt lat="41.795817" lon="-8.134267">
        <ele>712.0</ele>
        <time>2010-08-26T16:20:27Z</time>
      </trkpt>
      <trkpt lat="41.795850" lon="-8.134267">
        <ele>712.0</ele>
        <time>2010-08-26T16:20:28Z</time>
      </trkpt>
      <trkpt lat="41.795867" lon="-8.134267">
        <ele>711.0</ele>
        <time>2010-08-26T16:20:29Z</time>
      </trkpt>
      <trkpt lat="41.795900" lon="-8.134283">
        <ele>711.0</ele>
        <time>2010-08-26T16:20:30Z</time>
      </trkpt>
      <trkpt lat="41.795933" lon="-8.134283">
        <ele>711.0</ele>
        <time>2010-08-26T16:20:31Z</time>
      </trkpt>
      <trkpt lat="41.795967" lon="-8.134300">
        <ele>710.0</ele>
        <time>2010-08-26T16:20:32Z</time>
      </trkpt>
      <trkpt lat="41.795983" lon="-8.134300">
        <ele>710.0</ele>
        <time>2010-08-26T16:20:33Z</time>
      </trkpt>
      <trkpt lat="41.796017" lon="-8.134317">
        <ele>710.0</ele>
        <time>2010-08-26T16:20:34Z</time>
      </trkpt>
      <trkpt lat="41.796050" lon="-8.134317">
        <ele>709.0</ele>
        <time>2010-08-26T16:20:35Z</time>
      </trkpt>
      <trkpt lat="41.796083" lon="-8.134317">
        <ele>709.0</ele>
        <time>2010-08-26T16:20:36Z</time>
      </trkpt>
      <trkpt lat="41.796117" lon="-8.134317">
        <ele>709.0</ele>
        <time>2010-08-26T16:20:37Z</time>
      </trkpt>
      <trkpt lat="41.796150" lon="-8.134317">
        <ele>709.0</ele>
        <time>2010-08-26T16:20:38Z</time>
      </trkpt>
      <trkpt lat="41.796183" lon="-8.134317">
        <ele>708.0</ele>
        <time>2010-08-26T16:20:39Z</time>
      </trkpt>
      <trkpt lat="41.796217" lon="-8.134317">
        <ele>708.0</ele>
        <time>2010-08-26T16:20:40Z</time>
      </trkpt>
      <trkpt lat="41.796250" lon="-8.134317">
        <ele>708.0</ele>
        <time>2010-08-26T16:20:41Z</time>
      </trkpt>
      <trkpt lat="41.796283" lon="-8.134317">
        <ele>708.0</ele>
        <time>2010-08-26T16:20:42Z</time>
      </trkpt>
      <trkpt lat="41.796317" lon="-8.134300">
        <ele>708.0</ele>
        <time>2010-08-26T16:20:43Z</time>
      </trkpt>
      <trkpt lat="41.796350" lon="-8.134300">
        <ele>708.0</ele>
        <time>2010-08-26T16:20:44Z</time>
      </trkpt>
      <trkpt lat="41.796383" lon="-8.134300">
        <ele>708.0</ele>
        <time>2010-08-26T16:20:45Z</time>
      </trkpt>
      <trkpt lat="41.796417" lon="-8.134300">
        <ele>708.0</ele>
        <time>2010-08-26T16:20:46Z</time>
      </trkpt>
      <trkpt lat="41.796450" lon="-8.134300">
        <ele>708.0</ele>
        <time>2010-08-26T16:20:47Z</time>
      </trkpt>
      <trkpt lat="41.796483" lon="-8.134283">
        <ele>708.0</ele>
        <time>2010-08-26T16:20:48Z</time>
      </trkpt>
      <trkpt lat="41.796517" lon="-8.134283">
        <ele>708.0</ele>
        <time>2010-08-26T16:20:49Z</time>
      </trkpt>
      <trkpt lat="41.796533" lon="-8.134283">
        <ele>708.0</ele>
        <time>2010-08-26T16:20:50Z</time>
      </trkpt>
      <trkpt lat="41.796567" lon="-8.134283">
        <ele>708.0</ele>
        <time>2010-08-26T16:20:51Z</time>
      </trkpt>
      <trkpt lat="41.796600" lon="-8.134283">
        <ele>708.0</ele>
        <time>2010-08-26T16:20:52Z</time>
      </trkpt>
      <trkpt lat="41.796633" lon="-8.134283">
        <ele>708.0</ele>
        <time>2010-08-26T16:20:53Z</time>
      </trkpt>
      <trkpt lat="41.796667" lon="-8.134283">
        <ele>708.0</ele>
        <time>2010-08-26T16:20:54Z</time>
      </trkpt>
      <trkpt lat="41.796700" lon="-8.134283">
        <ele>708.0</ele>
        <time>2010-08-26T16:20:55Z</time>
      </trkpt>
      <trkpt lat="41.796750" lon="-8.134267">
        <ele>707.0</ele>
        <time>2010-08-26T16:20:56Z</time>
      </trkpt>
      <trkpt lat="41.796800" lon="-8.134250">
        <ele>707.0</ele>
        <time>2010-08-26T16:20:57Z</time>
      </trkpt>
      <trkpt lat="41.796850" lon="-8.134233">
        <ele>707.0</ele>
        <time>2010-08-26T16:20:58Z</time>
      </trkpt>
      <trkpt lat="41.796900" lon="-8.134217">
        <ele>707.0</ele>
        <time>2010-08-26T16:20:59Z</time>
      </trkpt>
      <trkpt lat="41.796967" lon="-8.134183">
        <ele>707.0</ele>
        <time>2010-08-26T16:21:00Z</time>
      </trkpt>
      <trkpt lat="41.797017" lon="-8.134150">
        <ele>706.0</ele>
        <time>2010-08-26T16:21:01Z</time>
      </trkpt>
      <trkpt lat="41.797067" lon="-8.134083">
        <ele>706.0</ele>
        <time>2010-08-26T16:21:02Z</time>
      </trkpt>
      <trkpt lat="41.797133" lon="-8.134017">
        <ele>706.0</ele>
        <time>2010-08-26T16:21:03Z</time>
      </trkpt>
      <trkpt lat="41.797183" lon="-8.133950">
        <ele>705.0</ele>
        <time>2010-08-26T16:21:04Z</time>
      </trkpt>
      <trkpt lat="41.797233" lon="-8.133867">
        <ele>705.0</ele>
        <time>2010-08-26T16:21:05Z</time>
      </trkpt>
      <trkpt lat="41.797300" lon="-8.133800">
        <ele>704.0</ele>
        <time>2010-08-26T16:21:06Z</time>
      </trkpt>
      <trkpt lat="41.797350" lon="-8.133717">
        <ele>704.0</ele>
        <time>2010-08-26T16:21:07Z</time>
      </trkpt>
      <trkpt lat="41.797400" lon="-8.133633">
        <ele>704.0</ele>
        <time>2010-08-26T16:21:08Z</time>
      </trkpt>
      <trkpt lat="41.797467" lon="-8.133550">
        <ele>703.0</ele>
        <time>2010-08-26T16:21:09Z</time>
      </trkpt>
      <trkpt lat="41.797517" lon="-8.133483">
        <ele>703.0</ele>
        <time>2010-08-26T16:21:10Z</time>
      </trkpt>
      <trkpt lat="41.797583" lon="-8.133417">
        <ele>703.0</ele>
        <time>2010-08-26T16:21:11Z</time>
      </trkpt>
      <trkpt lat="41.797633" lon="-8.133367">
        <ele>702.0</ele>
        <time>2010-08-26T16:21:12Z</time>
      </trkpt>
      <trkpt lat="41.797667" lon="-8.133333">
        <ele>702.0</ele>
        <time>2010-08-26T16:21:13Z</time>
      </trkpt>
      <trkpt lat="41.797717" lon="-8.133317">
        <ele>701.0</ele>
        <time>2010-08-26T16:21:14Z</time>
      </trkpt>
      <trkpt lat="41.797767" lon="-8.133300">
        <ele>701.0</ele>
        <time>2010-08-26T16:21:15Z</time>
      </trkpt>
      <trkpt lat="41.797817" lon="-8.133300">
        <ele>701.0</ele>
        <time>2010-08-26T16:21:16Z</time>
      </trkpt>
      <trkpt lat="41.797867" lon="-8.133317">
        <ele>700.0</ele>
        <time>2010-08-26T16:21:17Z</time>
      </trkpt>
      <trkpt lat="41.797900" lon="-8.133317">
        <ele>700.0</ele>
        <time>2010-08-26T16:21:18Z</time>
      </trkpt>
      <trkpt lat="41.797933" lon="-8.133317">
        <ele>700.0</ele>
        <time>2010-08-26T16:21:19Z</time>
      </trkpt>
      <trkpt lat="41.797967" lon="-8.133333">
        <ele>700.0</ele>
        <time>2010-08-26T16:21:20Z</time>
      </trkpt>
      <trkpt lat="41.798000" lon="-8.133333">
        <ele>700.0</ele>
        <time>2010-08-26T16:21:21Z</time>
      </trkpt>
      <trkpt lat="41.798033" lon="-8.133333">
        <ele>700.0</ele>
        <time>2010-08-26T16:21:22Z</time>
      </trkpt>
      <trkpt lat="41.798050" lon="-8.133350">
        <ele>700.0</ele>
        <time>2010-08-26T16:21:23Z</time>
      </trkpt>
      <trkpt lat="41.798067" lon="-8.133350">
        <ele>700.0</ele>
        <time>2010-08-26T16:21:24Z</time>
      </trkpt>
      <trkpt lat="41.798100" lon="-8.133350">
        <ele>701.0</ele>
        <time>2010-08-26T16:21:25Z</time>
      </trkpt>
      <trkpt lat="41.798117" lon="-8.133350">
        <ele>701.0</ele>
        <time>2010-08-26T16:21:26Z</time>
      </trkpt>
      <trkpt lat="41.798133" lon="-8.133350">
        <ele>701.0</ele>
        <time>2010-08-26T16:21:27Z</time>
      </trkpt>
      <trkpt lat="41.798167" lon="-8.133367">
        <ele>701.0</ele>
        <time>2010-08-26T16:21:28Z</time>
      </trkpt>
      <trkpt lat="41.798183" lon="-8.133367">
        <ele>702.0</ele>
        <time>2010-08-26T16:21:29Z</time>
      </trkpt>
      <trkpt lat="41.798233" lon="-8.133367">
        <ele>702.0</ele>
        <time>2010-08-26T16:21:31Z</time>
      </trkpt>
      <trkpt lat="41.798267" lon="-8.133367">
        <ele>703.0</ele>
        <time>2010-08-26T16:21:33Z</time>
      </trkpt>
      <trkpt lat="41.798317" lon="-8.133350">
        <ele>704.0</ele>
        <time>2010-08-26T16:21:35Z</time>
      </trkpt>
      <trkpt lat="41.798350" lon="-8.133350">
        <ele>704.0</ele>
        <time>2010-08-26T16:21:37Z</time>
      </trkpt>
      <trkpt lat="41.798383" lon="-8.133333">
        <ele>705.0</ele>
        <time>2010-08-26T16:21:39Z</time>
      </trkpt>
      <trkpt lat="41.798417" lon="-8.133333">
        <ele>705.0</ele>
        <time>2010-08-26T16:21:41Z</time>
      </trkpt>
      <trkpt lat="41.798450" lon="-8.133317">
        <ele>705.0</ele>
        <time>2010-08-26T16:21:43Z</time>
      </trkpt>
      <trkpt lat="41.798483" lon="-8.133300">
        <ele>706.0</ele>
        <time>2010-08-26T16:21:45Z</time>
      </trkpt>
      <trkpt lat="41.798533" lon="-8.133283">
        <ele>706.0</ele>
        <time>2010-08-26T16:21:47Z</time>
      </trkpt>
      <trkpt lat="41.798567" lon="-8.133267">
        <ele>707.0</ele>
        <time>2010-08-26T16:21:49Z</time>
      </trkpt>
      <trkpt lat="41.798583" lon="-8.133267">
        <ele>707.0</ele>
        <time>2010-08-26T16:21:51Z</time>
      </trkpt>
      <trkpt lat="41.798617" lon="-8.133250">
        <ele>708.0</ele>
        <time>2010-08-26T16:21:53Z</time>
      </trkpt>
      <trkpt lat="41.798650" lon="-8.133233">
        <ele>708.0</ele>
        <time>2010-08-26T16:21:55Z</time>
      </trkpt>
      <trkpt lat="41.798683" lon="-8.133233">
        <ele>709.0</ele>
        <time>2010-08-26T16:21:57Z</time>
      </trkpt>
      <trkpt lat="41.798717" lon="-8.133233">
        <ele>709.0</ele>
        <time>2010-08-26T16:21:59Z</time>
      </trkpt>
      <trkpt lat="41.798750" lon="-8.133200">
        <ele>710.0</ele>
        <time>2010-08-26T16:22:01Z</time>
      </trkpt>
      <trkpt lat="41.798767" lon="-8.133183">
        <ele>710.0</ele>
        <time>2010-08-26T16:22:03Z</time>
      </trkpt>
      <trkpt lat="41.798800" lon="-8.133150">
        <ele>710.0</ele>
        <time>2010-08-26T16:22:05Z</time>
      </trkpt>
      <trkpt lat="41.798817" lon="-8.133133">
        <ele>711.0</ele>
        <time>2010-08-26T16:22:07Z</time>
      </trkpt>
      <trkpt lat="41.798850" lon="-8.133100">
        <ele>711.0</ele>
        <time>2010-08-26T16:22:09Z</time>
      </trkpt>
      <trkpt lat="41.798883" lon="-8.133067">
        <ele>712.0</ele>
        <time>2010-08-26T16:22:12Z</time>
      </trkpt>
      <trkpt lat="41.798900" lon="-8.133033">
        <ele>712.0</ele>
        <time>2010-08-26T16:22:14Z</time>
      </trkpt>
      <trkpt lat="41.798933" lon="-8.133000">
        <ele>712.0</ele>
        <time>2010-08-26T16:22:16Z</time>
      </trkpt>
      <trkpt lat="41.798967" lon="-8.132967">
        <ele>713.0</ele>
        <time>2010-08-26T16:22:19Z</time>
      </trkpt>
      <trkpt lat="41.799000" lon="-8.132933">
        <ele>714.0</ele>
        <time>2010-08-26T16:22:22Z</time>
      </trkpt>
      <trkpt lat="41.799033" lon="-8.132900">
        <ele>715.0</ele>
        <time>2010-08-26T16:22:25Z</time>
      </trkpt>
      <trkpt lat="41.799050" lon="-8.132833">
        <ele>716.0</ele>
        <time>2010-08-26T16:22:28Z</time>
      </trkpt>
      <trkpt lat="41.799067" lon="-8.132800">
        <ele>716.0</ele>
        <time>2010-08-26T16:22:30Z</time>
      </trkpt>
      <trkpt lat="41.799100" lon="-8.132783">
        <ele>716.0</ele>
        <time>2010-08-26T16:22:32Z</time>
      </trkpt>
      <trkpt lat="41.799117" lon="-8.132750">
        <ele>717.0</ele>
        <time>2010-08-26T16:22:34Z</time>
      </trkpt>
      <trkpt lat="41.799150" lon="-8.132717">
        <ele>717.0</ele>
        <time>2010-08-26T16:22:36Z</time>
      </trkpt>
      <trkpt lat="41.799167" lon="-8.132683">
        <ele>718.0</ele>
        <time>2010-08-26T16:22:38Z</time>
      </trkpt>
      <trkpt lat="41.799200" lon="-8.132667">
        <ele>718.0</ele>
        <time>2010-08-26T16:22:41Z</time>
      </trkpt>
      <trkpt lat="41.799233" lon="-8.132633">
        <ele>718.0</ele>
        <time>2010-08-26T16:22:43Z</time>
      </trkpt>
      <trkpt lat="41.799250" lon="-8.132617">
        <ele>719.0</ele>
        <time>2010-08-26T16:22:45Z</time>
      </trkpt>
      <trkpt lat="41.799283" lon="-8.132583">
        <ele>719.0</ele>
        <time>2010-08-26T16:22:47Z</time>
      </trkpt>
      <trkpt lat="41.799317" lon="-8.132567">
        <ele>719.0</ele>
        <time>2010-08-26T16:22:49Z</time>
      </trkpt>
      <trkpt lat="41.799350" lon="-8.132550">
        <ele>719.0</ele>
        <time>2010-08-26T16:22:51Z</time>
      </trkpt>
      <trkpt lat="41.799383" lon="-8.132533">
        <ele>720.0</ele>
        <time>2010-08-26T16:22:53Z</time>
      </trkpt>
      <trkpt lat="41.799417" lon="-8.132517">
        <ele>720.0</ele>
        <time>2010-08-26T16:22:55Z</time>
      </trkpt>
      <trkpt lat="41.799433" lon="-8.132500">
        <ele>720.0</ele>
        <time>2010-08-26T16:22:57Z</time>
      </trkpt>
      <trkpt lat="41.799467" lon="-8.132483">
        <ele>721.0</ele>
        <time>2010-08-26T16:22:59Z</time>
      </trkpt>
      <trkpt lat="41.799500" lon="-8.132450">
        <ele>721.0</ele>
        <time>2010-08-26T16:23:01Z</time>
      </trkpt>
      <trkpt lat="41.799533" lon="-8.132433">
        <ele>722.0</ele>
        <time>2010-08-26T16:23:03Z</time>
      </trkpt>
      <trkpt lat="41.799567" lon="-8.132417">
        <ele>722.0</ele>
        <time>2010-08-26T16:23:05Z</time>
      </trkpt>
      <trkpt lat="41.799600" lon="-8.132383">
        <ele>722.0</ele>
        <time>2010-08-26T16:23:07Z</time>
      </trkpt>
      <trkpt lat="41.799633" lon="-8.132367">
        <ele>722.0</ele>
        <time>2010-08-26T16:23:09Z</time>
      </trkpt>
      <trkpt lat="41.799650" lon="-8.132350">
        <ele>722.0</ele>
        <time>2010-08-26T16:23:11Z</time>
      </trkpt>
      <trkpt lat="41.799683" lon="-8.132317">
        <ele>722.0</ele>
        <time>2010-08-26T16:23:13Z</time>
      </trkpt>
      <trkpt lat="41.799717" lon="-8.132283">
        <ele>722.0</ele>
        <time>2010-08-26T16:23:15Z</time>
      </trkpt>
      <trkpt lat="41.799750" lon="-8.132250">
        <ele>722.0</ele>
        <time>2010-08-26T16:23:17Z</time>
      </trkpt>
      <trkpt lat="41.799783" lon="-8.132217">
        <ele>722.0</ele>
        <time>2010-08-26T16:23:19Z</time>
      </trkpt>
      <trkpt lat="41.799817" lon="-8.132200">
        <ele>723.0</ele>
        <time>2010-08-26T16:23:21Z</time>
      </trkpt>
      <trkpt lat="41.799833" lon="-8.132183">
        <ele>723.0</ele>
        <time>2010-08-26T16:23:22Z</time>
      </trkpt>
      <trkpt lat="41.799850" lon="-8.132167">
        <ele>723.0</ele>
        <time>2010-08-26T16:23:23Z</time>
      </trkpt>
      <trkpt lat="41.799883" lon="-8.132150">
        <ele>724.0</ele>
        <time>2010-08-26T16:23:24Z</time>
      </trkpt>
      <trkpt lat="41.799917" lon="-8.132117">
        <ele>724.0</ele>
        <time>2010-08-26T16:23:26Z</time>
      </trkpt>
      <trkpt lat="41.799933" lon="-8.132083">
        <ele>725.0</ele>
        <time>2010-08-26T16:23:28Z</time>
      </trkpt>
      <trkpt lat="41.799967" lon="-8.132050">
        <ele>726.0</ele>
        <time>2010-08-26T16:23:30Z</time>
      </trkpt>
      <trkpt lat="41.800000" lon="-8.132017">
        <ele>726.0</ele>
        <time>2010-08-26T16:23:32Z</time>
      </trkpt>
      <trkpt lat="41.800017" lon="-8.132000">
        <ele>726.0</ele>
        <time>2010-08-26T16:23:34Z</time>
      </trkpt>
      <trkpt lat="41.800050" lon="-8.131967">
        <ele>726.0</ele>
        <time>2010-08-26T16:23:36Z</time>
      </trkpt>
      <trkpt lat="41.800083" lon="-8.131950">
        <ele>727.0</ele>
        <time>2010-08-26T16:23:38Z</time>
      </trkpt>
      <trkpt lat="41.800117" lon="-8.131917">
        <ele>728.0</ele>
        <time>2010-08-26T16:23:40Z</time>
      </trkpt>
      <trkpt lat="41.800133" lon="-8.131883">
        <ele>728.0</ele>
        <time>2010-08-26T16:23:42Z</time>
      </trkpt>
      <trkpt lat="41.800167" lon="-8.131850">
        <ele>729.0</ele>
        <time>2010-08-26T16:23:44Z</time>
      </trkpt>
      <trkpt lat="41.800200" lon="-8.131833">
        <ele>729.0</ele>
        <time>2010-08-26T16:23:46Z</time>
      </trkpt>
      <trkpt lat="41.800233" lon="-8.131817">
        <ele>730.0</ele>
        <time>2010-08-26T16:23:48Z</time>
      </trkpt>
      <trkpt lat="41.800267" lon="-8.131783">
        <ele>730.0</ele>
        <time>2010-08-26T16:23:50Z</time>
      </trkpt>
      <trkpt lat="41.800300" lon="-8.131767">
        <ele>731.0</ele>
        <time>2010-08-26T16:23:52Z</time>
      </trkpt>
      <trkpt lat="41.800317" lon="-8.131750">
        <ele>731.0</ele>
        <time>2010-08-26T16:23:53Z</time>
      </trkpt>
      <trkpt lat="41.800350" lon="-8.131750">
        <ele>731.0</ele>
        <time>2010-08-26T16:23:54Z</time>
      </trkpt>
      <trkpt lat="41.800383" lon="-8.131733">
        <ele>732.0</ele>
        <time>2010-08-26T16:23:56Z</time>
      </trkpt>
      <trkpt lat="41.800433" lon="-8.131717">
        <ele>732.0</ele>
        <time>2010-08-26T16:23:58Z</time>
      </trkpt>
      <trkpt lat="41.800450" lon="-8.131700">
        <ele>732.0</ele>
        <time>2010-08-26T16:23:59Z</time>
      </trkpt>
      <trkpt lat="41.800467" lon="-8.131700">
        <ele>733.0</ele>
        <time>2010-08-26T16:24:00Z</time>
      </trkpt>
      <trkpt lat="41.800500" lon="-8.131683">
        <ele>733.0</ele>
        <time>2010-08-26T16:24:01Z</time>
      </trkpt>
      <trkpt lat="41.800517" lon="-8.131683">
        <ele>733.0</ele>
        <time>2010-08-26T16:24:02Z</time>
      </trkpt>
      <trkpt lat="41.800550" lon="-8.131667">
        <ele>733.0</ele>
        <time>2010-08-26T16:24:03Z</time>
      </trkpt>
      <trkpt lat="41.800583" lon="-8.131650">
        <ele>733.0</ele>
        <time>2010-08-26T16:24:04Z</time>
      </trkpt>
      <trkpt lat="41.800600" lon="-8.131650">
        <ele>733.0</ele>
        <time>2010-08-26T16:24:05Z</time>
      </trkpt>
      <trkpt lat="41.800617" lon="-8.131633">
        <ele>733.0</ele>
        <time>2010-08-26T16:24:06Z</time>
      </trkpt>
      <trkpt lat="41.800650" lon="-8.131633">
        <ele>733.0</ele>
        <time>2010-08-26T16:24:07Z</time>
      </trkpt>
      <trkpt lat="41.800683" lon="-8.131617">
        <ele>733.0</ele>
        <time>2010-08-26T16:24:08Z</time>
      </trkpt>
      <trkpt lat="41.800700" lon="-8.131617">
        <ele>733.0</ele>
        <time>2010-08-26T16:24:09Z</time>
      </trkpt>
      <trkpt lat="41.800733" lon="-8.131600">
        <ele>733.0</ele>
        <time>2010-08-26T16:24:10Z</time>
      </trkpt>
      <trkpt lat="41.800750" lon="-8.131583">
        <ele>733.0</ele>
        <time>2010-08-26T16:24:11Z</time>
      </trkpt>
      <trkpt lat="41.800783" lon="-8.131583">
        <ele>733.0</ele>
        <time>2010-08-26T16:24:12Z</time>
      </trkpt>
      <trkpt lat="41.800800" lon="-8.131567">
        <ele>733.0</ele>
        <time>2010-08-26T16:24:13Z</time>
      </trkpt>
      <trkpt lat="41.800833" lon="-8.131567">
        <ele>733.0</ele>
        <time>2010-08-26T16:24:14Z</time>
      </trkpt>
      <trkpt lat="41.800850" lon="-8.131567">
        <ele>734.0</ele>
        <time>2010-08-26T16:24:15Z</time>
      </trkpt>
      <trkpt lat="41.800883" lon="-8.131567">
        <ele>734.0</ele>
        <time>2010-08-26T16:24:16Z</time>
      </trkpt>
      <trkpt lat="41.800917" lon="-8.131567">
        <ele>734.0</ele>
        <time>2010-08-26T16:24:17Z</time>
      </trkpt>
      <trkpt lat="41.800933" lon="-8.131567">
        <ele>734.0</ele>
        <time>2010-08-26T16:24:18Z</time>
      </trkpt>
      <trkpt lat="41.800950" lon="-8.131567">
        <ele>735.0</ele>
        <time>2010-08-26T16:24:19Z</time>
      </trkpt>
      <trkpt lat="41.800983" lon="-8.131567">
        <ele>735.0</ele>
        <time>2010-08-26T16:24:20Z</time>
      </trkpt>
      <trkpt lat="41.801000" lon="-8.131583">
        <ele>735.0</ele>
        <time>2010-08-26T16:24:21Z</time>
      </trkpt>
      <trkpt lat="41.801033" lon="-8.131583">
        <ele>735.0</ele>
        <time>2010-08-26T16:24:22Z</time>
      </trkpt>
      <trkpt lat="41.801067" lon="-8.131583">
        <ele>736.0</ele>
        <time>2010-08-26T16:24:23Z</time>
      </trkpt>
      <trkpt lat="41.801083" lon="-8.131583">
        <ele>736.0</ele>
        <time>2010-08-26T16:24:24Z</time>
      </trkpt>
      <trkpt lat="41.801117" lon="-8.131600">
        <ele>736.0</ele>
        <time>2010-08-26T16:24:25Z</time>
      </trkpt>
      <trkpt lat="41.801150" lon="-8.131617">
        <ele>736.0</ele>
        <time>2010-08-26T16:24:26Z</time>
      </trkpt>
      <trkpt lat="41.801167" lon="-8.131617">
        <ele>736.0</ele>
        <time>2010-08-26T16:24:27Z</time>
      </trkpt>
      <trkpt lat="41.801200" lon="-8.131633">
        <ele>736.0</ele>
        <time>2010-08-26T16:24:28Z</time>
      </trkpt>
      <trkpt lat="41.801233" lon="-8.131633">
        <ele>736.0</ele>
        <time>2010-08-26T16:24:29Z</time>
      </trkpt>
      <trkpt lat="41.801250" lon="-8.131650">
        <ele>736.0</ele>
        <time>2010-08-26T16:24:30Z</time>
      </trkpt>
      <trkpt lat="41.801283" lon="-8.131650">
        <ele>736.0</ele>
        <time>2010-08-26T16:24:31Z</time>
      </trkpt>
      <trkpt lat="41.801317" lon="-8.131650">
        <ele>736.0</ele>
        <time>2010-08-26T16:24:32Z</time>
      </trkpt>
      <trkpt lat="41.801333" lon="-8.131650">
        <ele>736.0</ele>
        <time>2010-08-26T16:24:33Z</time>
      </trkpt>
      <trkpt lat="41.801367" lon="-8.131650">
        <ele>736.0</ele>
        <time>2010-08-26T16:24:34Z</time>
      </trkpt>
      <trkpt lat="41.801400" lon="-8.131650">
        <ele>736.0</ele>
        <time>2010-08-26T16:24:35Z</time>
      </trkpt>
      <trkpt lat="41.801433" lon="-8.131633">
        <ele>736.0</ele>
        <time>2010-08-26T16:24:36Z</time>
      </trkpt>
      <trkpt lat="41.801450" lon="-8.131617">
        <ele>736.0</ele>
        <time>2010-08-26T16:24:37Z</time>
      </trkpt>
      <trkpt lat="41.801483" lon="-8.131617">
        <ele>736.0</ele>
        <time>2010-08-26T16:24:38Z</time>
      </trkpt>
      <trkpt lat="41.801517" lon="-8.131600">
        <ele>736.0</ele>
        <time>2010-08-26T16:24:39Z</time>
      </trkpt>
      <trkpt lat="41.801550" lon="-8.131583">
        <ele>736.0</ele>
        <time>2010-08-26T16:24:40Z</time>
      </trkpt>
      <trkpt lat="41.801567" lon="-8.131567">
        <ele>736.0</ele>
        <time>2010-08-26T16:24:41Z</time>
      </trkpt>
      <trkpt lat="41.801600" lon="-8.131550">
        <ele>736.0</ele>
        <time>2010-08-26T16:24:42Z</time>
      </trkpt>
      <trkpt lat="41.801633" lon="-8.131533">
        <ele>736.0</ele>
        <time>2010-08-26T16:24:43Z</time>
      </trkpt>
      <trkpt lat="41.801667" lon="-8.131517">
        <ele>735.0</ele>
        <time>2010-08-26T16:24:44Z</time>
      </trkpt>
      <trkpt lat="41.801700" lon="-8.131500">
        <ele>735.0</ele>
        <time>2010-08-26T16:24:45Z</time>
      </trkpt>
      <trkpt lat="41.801733" lon="-8.131483">
        <ele>735.0</ele>
        <time>2010-08-26T16:24:46Z</time>
      </trkpt>
      <trkpt lat="41.801750" lon="-8.131467">
        <ele>735.0</ele>
        <time>2010-08-26T16:24:47Z</time>
      </trkpt>
      <trkpt lat="41.801783" lon="-8.131450">
        <ele>735.0</ele>
        <time>2010-08-26T16:24:48Z</time>
      </trkpt>
      <trkpt lat="41.801800" lon="-8.131433">
        <ele>735.0</ele>
        <time>2010-08-26T16:24:49Z</time>
      </trkpt>
      <trkpt lat="41.801833" lon="-8.131417">
        <ele>735.0</ele>
        <time>2010-08-26T16:24:50Z</time>
      </trkpt>
      <trkpt lat="41.801850" lon="-8.131417">
        <ele>735.0</ele>
        <time>2010-08-26T16:24:51Z</time>
      </trkpt>
      <trkpt lat="41.801883" lon="-8.131400">
        <ele>735.0</ele>
        <time>2010-08-26T16:24:52Z</time>
      </trkpt>
      <trkpt lat="41.801900" lon="-8.131383">
        <ele>735.0</ele>
        <time>2010-08-26T16:24:53Z</time>
      </trkpt>
      <trkpt lat="41.801933" lon="-8.131367">
        <ele>735.0</ele>
        <time>2010-08-26T16:24:54Z</time>
      </trkpt>
      <trkpt lat="41.801950" lon="-8.131350">
        <ele>735.0</ele>
        <time>2010-08-26T16:24:55Z</time>
      </trkpt>
      <trkpt lat="41.801983" lon="-8.131350">
        <ele>735.0</ele>
        <time>2010-08-26T16:24:56Z</time>
      </trkpt>
      <trkpt lat="41.802017" lon="-8.131317">
        <ele>734.0</ele>
        <time>2010-08-26T16:24:57Z</time>
      </trkpt>
      <trkpt lat="41.802050" lon="-8.131300">
        <ele>734.0</ele>
        <time>2010-08-26T16:24:58Z</time>
      </trkpt>
      <trkpt lat="41.802083" lon="-8.131283">
        <ele>734.0</ele>
        <time>2010-08-26T16:24:59Z</time>
      </trkpt>
      <trkpt lat="41.802117" lon="-8.131250">
        <ele>733.0</ele>
        <time>2010-08-26T16:25:00Z</time>
      </trkpt>
      <trkpt lat="41.802150" lon="-8.131217">
        <ele>733.0</ele>
        <time>2010-08-26T16:25:01Z</time>
      </trkpt>
      <trkpt lat="41.802183" lon="-8.131183">
        <ele>732.0</ele>
        <time>2010-08-26T16:25:02Z</time>
      </trkpt>
      <trkpt lat="41.802217" lon="-8.131150">
        <ele>732.0</ele>
        <time>2010-08-26T16:25:03Z</time>
      </trkpt>
      <trkpt lat="41.802267" lon="-8.131117">
        <ele>732.0</ele>
        <time>2010-08-26T16:25:04Z</time>
      </trkpt>
      <trkpt lat="41.802300" lon="-8.131067">
        <ele>731.0</ele>
        <time>2010-08-26T16:25:05Z</time>
      </trkpt>
      <trkpt lat="41.802333" lon="-8.131033">
        <ele>731.0</ele>
        <time>2010-08-26T16:25:06Z</time>
      </trkpt>
      <trkpt lat="41.802383" lon="-8.130983">
        <ele>730.0</ele>
        <time>2010-08-26T16:25:07Z</time>
      </trkpt>
      <trkpt lat="41.802417" lon="-8.130933">
        <ele>730.0</ele>
        <time>2010-08-26T16:25:08Z</time>
      </trkpt>
      <trkpt lat="41.802467" lon="-8.130883">
        <ele>729.0</ele>
        <time>2010-08-26T16:25:09Z</time>
      </trkpt>
      <trkpt lat="41.802500" lon="-8.130833">
        <ele>729.0</ele>
        <time>2010-08-26T16:25:10Z</time>
      </trkpt>
      <trkpt lat="41.802550" lon="-8.130767">
        <ele>728.0</ele>
        <time>2010-08-26T16:25:11Z</time>
      </trkpt>
      <trkpt lat="41.802583" lon="-8.130717">
        <ele>728.0</ele>
        <time>2010-08-26T16:25:12Z</time>
      </trkpt>
      <trkpt lat="41.802617" lon="-8.130667">
        <ele>728.0</ele>
        <time>2010-08-26T16:25:13Z</time>
      </trkpt>
      <trkpt lat="41.802633" lon="-8.130600">
        <ele>728.0</ele>
        <time>2010-08-26T16:25:14Z</time>
      </trkpt>
      <trkpt lat="41.802667" lon="-8.130550">
        <ele>728.0</ele>
        <time>2010-08-26T16:25:15Z</time>
      </trkpt>
      <trkpt lat="41.802683" lon="-8.130517">
        <ele>728.0</ele>
        <time>2010-08-26T16:25:16Z</time>
      </trkpt>
      <trkpt lat="41.802683" lon="-8.130467">
        <ele>728.0</ele>
        <time>2010-08-26T16:25:17Z</time>
      </trkpt>
      <trkpt lat="41.802700" lon="-8.130433">
        <ele>728.0</ele>
        <time>2010-08-26T16:25:18Z</time>
      </trkpt>
      <trkpt lat="41.802717" lon="-8.130400">
        <ele>728.0</ele>
        <time>2010-08-26T16:25:19Z</time>
      </trkpt>
      <trkpt lat="41.802717" lon="-8.130350">
        <ele>728.0</ele>
        <time>2010-08-26T16:25:20Z</time>
      </trkpt>
      <trkpt lat="41.802733" lon="-8.130317">
        <ele>728.0</ele>
        <time>2010-08-26T16:25:21Z</time>
      </trkpt>
      <trkpt lat="41.802750" lon="-8.130283">
        <ele>728.0</ele>
        <time>2010-08-26T16:25:22Z</time>
      </trkpt>
      <trkpt lat="41.802750" lon="-8.130250">
        <ele>728.0</ele>
        <time>2010-08-26T16:25:23Z</time>
      </trkpt>
      <trkpt lat="41.802767" lon="-8.130200">
        <ele>728.0</ele>
        <time>2010-08-26T16:25:24Z</time>
      </trkpt>
      <trkpt lat="41.802783" lon="-8.130167">
        <ele>728.0</ele>
        <time>2010-08-26T16:25:25Z</time>
      </trkpt>
      <trkpt lat="41.802800" lon="-8.130133">
        <ele>729.0</ele>
        <time>2010-08-26T16:25:26Z</time>
      </trkpt>
      <trkpt lat="41.802800" lon="-8.130100">
        <ele>729.0</ele>
        <time>2010-08-26T16:25:27Z</time>
      </trkpt>
      <trkpt lat="41.802817" lon="-8.130067">
        <ele>729.0</ele>
        <time>2010-08-26T16:25:28Z</time>
      </trkpt>
      <trkpt lat="41.802833" lon="-8.130033">
        <ele>730.0</ele>
        <time>2010-08-26T16:25:29Z</time>
      </trkpt>
      <trkpt lat="41.802850" lon="-8.130000">
        <ele>730.0</ele>
        <time>2010-08-26T16:25:30Z</time>
      </trkpt>
      <trkpt lat="41.802867" lon="-8.129967">
        <ele>731.0</ele>
        <time>2010-08-26T16:25:31Z</time>
      </trkpt>
      <trkpt lat="41.802883" lon="-8.129933">
        <ele>731.0</ele>
        <time>2010-08-26T16:25:32Z</time>
      </trkpt>
      <trkpt lat="41.802900" lon="-8.129900">
        <ele>732.0</ele>
        <time>2010-08-26T16:25:33Z</time>
      </trkpt>
      <trkpt lat="41.802917" lon="-8.129867">
        <ele>732.0</ele>
        <time>2010-08-26T16:25:34Z</time>
      </trkpt>
      <trkpt lat="41.802917" lon="-8.129833">
        <ele>733.0</ele>
        <time>2010-08-26T16:25:35Z</time>
      </trkpt>
      <trkpt lat="41.802933" lon="-8.129800">
        <ele>734.0</ele>
        <time>2010-08-26T16:25:36Z</time>
      </trkpt>
      <trkpt lat="41.802950" lon="-8.129767">
        <ele>734.0</ele>
        <time>2010-08-26T16:25:37Z</time>
      </trkpt>
      <trkpt lat="41.802950" lon="-8.129733">
        <ele>735.0</ele>
        <time>2010-08-26T16:25:38Z</time>
      </trkpt>
      <trkpt lat="41.802967" lon="-8.129700">
        <ele>735.0</ele>
        <time>2010-08-26T16:25:39Z</time>
      </trkpt>
      <trkpt lat="41.802967" lon="-8.129667">
        <ele>735.0</ele>
        <time>2010-08-26T16:25:40Z</time>
      </trkpt>
      <trkpt lat="41.802983" lon="-8.129633">
        <ele>735.0</ele>
        <time>2010-08-26T16:25:41Z</time>
      </trkpt>
      <trkpt lat="41.802983" lon="-8.129600">
        <ele>735.0</ele>
        <time>2010-08-26T16:25:42Z</time>
      </trkpt>
      <trkpt lat="41.802983" lon="-8.129567">
        <ele>736.0</ele>
        <time>2010-08-26T16:25:43Z</time>
      </trkpt>
      <trkpt lat="41.803000" lon="-8.129533">
        <ele>736.0</ele>
        <time>2010-08-26T16:25:44Z</time>
      </trkpt>
      <trkpt lat="41.803000" lon="-8.129500">
        <ele>736.0</ele>
        <time>2010-08-26T16:25:45Z</time>
      </trkpt>
      <trkpt lat="41.803017" lon="-8.129467">
        <ele>736.0</ele>
        <time>2010-08-26T16:25:46Z</time>
      </trkpt>
      <trkpt lat="41.803017" lon="-8.129433">
        <ele>736.0</ele>
        <time>2010-08-26T16:25:47Z</time>
      </trkpt>
      <trkpt lat="41.803017" lon="-8.129383">
        <ele>736.0</ele>
        <time>2010-08-26T16:25:48Z</time>
      </trkpt>
      <trkpt lat="41.803033" lon="-8.129350">
        <ele>736.0</ele>
        <time>2010-08-26T16:25:49Z</time>
      </trkpt>
      <trkpt lat="41.803033" lon="-8.129317">
        <ele>735.0</ele>
        <time>2010-08-26T16:25:50Z</time>
      </trkpt>
      <trkpt lat="41.803033" lon="-8.129267">
        <ele>735.0</ele>
        <time>2010-08-26T16:25:51Z</time>
      </trkpt>
      <trkpt lat="41.803033" lon="-8.129233">
        <ele>735.0</ele>
        <time>2010-08-26T16:25:52Z</time>
      </trkpt>
      <trkpt lat="41.803050" lon="-8.129200">
        <ele>735.0</ele>
        <time>2010-08-26T16:25:53Z</time>
      </trkpt>
      <trkpt lat="41.803050" lon="-8.129167">
        <ele>735.0</ele>
        <time>2010-08-26T16:25:54Z</time>
      </trkpt>
      <trkpt lat="41.803050" lon="-8.129133">
        <ele>734.0</ele>
        <time>2010-08-26T16:25:55Z</time>
      </trkpt>
      <trkpt lat="41.803050" lon="-8.129100">
        <ele>734.0</ele>
        <time>2010-08-26T16:25:56Z</time>
      </trkpt>
      <trkpt lat="41.803067" lon="-8.129067">
        <ele>734.0</ele>
        <time>2010-08-26T16:25:57Z</time>
      </trkpt>
      <trkpt lat="41.803067" lon="-8.129033">
        <ele>733.0</ele>
        <time>2010-08-26T16:25:58Z</time>
      </trkpt>
      <trkpt lat="41.803067" lon="-8.128983">
        <ele>733.0</ele>
        <time>2010-08-26T16:25:59Z</time>
      </trkpt>
      <trkpt lat="41.803083" lon="-8.128950">
        <ele>733.0</ele>
        <time>2010-08-26T16:26:00Z</time>
      </trkpt>
      <trkpt lat="41.803083" lon="-8.128917">
        <ele>733.0</ele>
        <time>2010-08-26T16:26:01Z</time>
      </trkpt>
      <trkpt lat="41.803100" lon="-8.128900">
        <ele>732.0</ele>
        <time>2010-08-26T16:26:02Z</time>
      </trkpt>
      <trkpt lat="41.803133" lon="-8.128850">
        <ele>732.0</ele>
        <time>2010-08-26T16:26:04Z</time>
      </trkpt>
      <trkpt lat="41.803150" lon="-8.128817">
        <ele>732.0</ele>
        <time>2010-08-26T16:26:06Z</time>
      </trkpt>
      <trkpt lat="41.803183" lon="-8.128800">
        <ele>731.0</ele>
        <time>2010-08-26T16:26:08Z</time>
      </trkpt>
      <trkpt lat="41.803217" lon="-8.128783">
        <ele>731.0</ele>
        <time>2010-08-26T16:26:11Z</time>
      </trkpt>
      <trkpt lat="41.803267" lon="-8.128800">
        <ele>730.0</ele>
        <time>2010-08-26T16:26:19Z</time>
      </trkpt>
      <trkpt lat="41.803300" lon="-8.128817">
        <ele>730.0</ele>
        <time>2010-08-26T16:26:31Z</time>
      </trkpt>
      <trkpt lat="41.803350" lon="-8.128833">
        <ele>730.0</ele>
        <time>2010-08-26T16:26:47Z</time>
      </trkpt>
      <trkpt lat="41.803350" lon="-8.128883">
        <ele>731.0</ele>
        <time>2010-08-26T16:27:12Z</time>
      </trkpt>
      <trkpt lat="41.803383" lon="-8.128900">
        <ele>738.0</ele>
        <time>2010-08-26T16:28:24Z</time>
      </trkpt>
      <trkpt lat="41.803417" lon="-8.128917">
        <ele>738.0</ele>
        <time>2010-08-26T16:28:26Z</time>
      </trkpt>
      <trkpt lat="41.803433" lon="-8.128933">
        <ele>738.0</ele>
        <time>2010-08-26T16:28:27Z</time>
      </trkpt>
      <trkpt lat="41.803467" lon="-8.128950">
        <ele>738.0</ele>
        <time>2010-08-26T16:28:28Z</time>
      </trkpt>
      <trkpt lat="41.803483" lon="-8.128967">
        <ele>738.0</ele>
        <time>2010-08-26T16:28:29Z</time>
      </trkpt>
      <trkpt lat="41.803500" lon="-8.129000">
        <ele>738.0</ele>
        <time>2010-08-26T16:28:30Z</time>
      </trkpt>
      <trkpt lat="41.803517" lon="-8.129017">
        <ele>738.0</ele>
        <time>2010-08-26T16:28:31Z</time>
      </trkpt>
      <trkpt lat="41.803517" lon="-8.129050">
        <ele>738.0</ele>
        <time>2010-08-26T16:28:32Z</time>
      </trkpt>
      <trkpt lat="41.803550" lon="-8.129100">
        <ele>739.0</ele>
        <time>2010-08-26T16:28:34Z</time>
      </trkpt>
      <trkpt lat="41.803550" lon="-8.129150">
        <ele>739.0</ele>
        <time>2010-08-26T16:28:36Z</time>
      </trkpt>
      <trkpt lat="41.803550" lon="-8.129217">
        <ele>739.0</ele>
        <time>2010-08-26T16:28:38Z</time>
      </trkpt>
      <trkpt lat="41.803567" lon="-8.129283">
        <ele>740.0</ele>
        <time>2010-08-26T16:28:40Z</time>
      </trkpt>
      <trkpt lat="41.803567" lon="-8.129333">
        <ele>740.0</ele>
        <time>2010-08-26T16:28:42Z</time>
      </trkpt>
      <trkpt lat="41.803583" lon="-8.129367">
        <ele>741.0</ele>
        <time>2010-08-26T16:28:44Z</time>
      </trkpt>
      <trkpt lat="41.803600" lon="-8.129417">
        <ele>741.0</ele>
        <time>2010-08-26T16:28:46Z</time>
      </trkpt>
      <trkpt lat="41.803617" lon="-8.129467">
        <ele>741.0</ele>
        <time>2010-08-26T16:28:48Z</time>
      </trkpt>
      <trkpt lat="41.803617" lon="-8.129500">
        <ele>742.0</ele>
        <time>2010-08-26T16:28:50Z</time>
      </trkpt>
      <trkpt lat="41.803633" lon="-8.129550">
        <ele>743.0</ele>
        <time>2010-08-26T16:28:52Z</time>
      </trkpt>
      <trkpt lat="41.803650" lon="-8.129583">
        <ele>743.0</ele>
        <time>2010-08-26T16:28:54Z</time>
      </trkpt>
      <trkpt lat="41.803650" lon="-8.129617">
        <ele>745.0</ele>
        <time>2010-08-26T16:28:56Z</time>
      </trkpt>
      <trkpt lat="41.803683" lon="-8.129683">
        <ele>746.0</ele>
        <time>2010-08-26T16:28:59Z</time>
      </trkpt>
      <trkpt lat="41.803683" lon="-8.129717">
        <ele>747.0</ele>
        <time>2010-08-26T16:29:01Z</time>
      </trkpt>
      <trkpt lat="41.803717" lon="-8.129767">
        <ele>748.0</ele>
        <time>2010-08-26T16:29:04Z</time>
      </trkpt>
      <trkpt lat="41.803750" lon="-8.129783">
        <ele>748.0</ele>
        <time>2010-08-26T16:29:06Z</time>
      </trkpt>
      <trkpt lat="41.803767" lon="-8.129833">
        <ele>749.0</ele>
        <time>2010-08-26T16:29:09Z</time>
      </trkpt>
      <trkpt lat="41.803800" lon="-8.129883">
        <ele>750.0</ele>
        <time>2010-08-26T16:29:12Z</time>
      </trkpt>
      <trkpt lat="41.803833" lon="-8.129917">
        <ele>750.0</ele>
        <time>2010-08-26T16:29:15Z</time>
      </trkpt>
      <trkpt lat="41.803867" lon="-8.129933">
        <ele>750.0</ele>
        <time>2010-08-26T16:29:17Z</time>
      </trkpt>
      <trkpt lat="41.803883" lon="-8.129967">
        <ele>750.0</ele>
        <time>2010-08-26T16:29:19Z</time>
      </trkpt>
      <trkpt lat="41.803900" lon="-8.129983">
        <ele>750.0</ele>
        <time>2010-08-26T16:29:21Z</time>
      </trkpt>
      <trkpt lat="41.803933" lon="-8.130017">
        <ele>750.0</ele>
        <time>2010-08-26T16:29:23Z</time>
      </trkpt>
      <trkpt lat="41.803967" lon="-8.130050">
        <ele>750.0</ele>
        <time>2010-08-26T16:29:25Z</time>
      </trkpt>
      <trkpt lat="41.804000" lon="-8.130083">
        <ele>750.0</ele>
        <time>2010-08-26T16:29:27Z</time>
      </trkpt>
      <trkpt lat="41.804033" lon="-8.130117">
        <ele>750.0</ele>
        <time>2010-08-26T16:29:29Z</time>
      </trkpt>
      <trkpt lat="41.804067" lon="-8.130167">
        <ele>749.0</ele>
        <time>2010-08-26T16:29:31Z</time>
      </trkpt>
      <trkpt lat="41.804100" lon="-8.130200">
        <ele>748.0</ele>
        <time>2010-08-26T16:29:33Z</time>
      </trkpt>
      <trkpt lat="41.804117" lon="-8.130233">
        <ele>748.0</ele>
        <time>2010-08-26T16:29:34Z</time>
      </trkpt>
      <trkpt lat="41.804117" lon="-8.130267">
        <ele>747.0</ele>
        <time>2010-08-26T16:29:35Z</time>
      </trkpt>
      <trkpt lat="41.804133" lon="-8.130283">
        <ele>746.0</ele>
        <time>2010-08-26T16:29:36Z</time>
      </trkpt>
      <trkpt lat="41.804150" lon="-8.130317">
        <ele>746.0</ele>
        <time>2010-08-26T16:29:37Z</time>
      </trkpt>
      <trkpt lat="41.804167" lon="-8.130350">
        <ele>745.0</ele>
        <time>2010-08-26T16:29:38Z</time>
      </trkpt>
      <trkpt lat="41.804183" lon="-8.130367">
        <ele>744.0</ele>
        <time>2010-08-26T16:29:39Z</time>
      </trkpt>
      <trkpt lat="41.804200" lon="-8.130400">
        <ele>744.0</ele>
        <time>2010-08-26T16:29:40Z</time>
      </trkpt>
      <trkpt lat="41.804217" lon="-8.130433">
        <ele>743.0</ele>
        <time>2010-08-26T16:29:41Z</time>
      </trkpt>
      <trkpt lat="41.804233" lon="-8.130467">
        <ele>743.0</ele>
        <time>2010-08-26T16:29:42Z</time>
      </trkpt>
      <trkpt lat="41.804250" lon="-8.130483">
        <ele>742.0</ele>
        <time>2010-08-26T16:29:43Z</time>
      </trkpt>
      <trkpt lat="41.804283" lon="-8.130517">
        <ele>741.0</ele>
        <time>2010-08-26T16:29:44Z</time>
      </trkpt>
      <trkpt lat="41.804300" lon="-8.130533">
        <ele>740.0</ele>
        <time>2010-08-26T16:29:45Z</time>
      </trkpt>
      <trkpt lat="41.804333" lon="-8.130567">
        <ele>740.0</ele>
        <time>2010-08-26T16:29:46Z</time>
      </trkpt>
      <trkpt lat="41.804367" lon="-8.130583">
        <ele>739.0</ele>
        <time>2010-08-26T16:29:47Z</time>
      </trkpt>
      <trkpt lat="41.804383" lon="-8.130600">
        <ele>738.0</ele>
        <time>2010-08-26T16:29:48Z</time>
      </trkpt>
      <trkpt lat="41.804417" lon="-8.130633">
        <ele>737.0</ele>
        <time>2010-08-26T16:29:49Z</time>
      </trkpt>
      <trkpt lat="41.804450" lon="-8.130650">
        <ele>737.0</ele>
        <time>2010-08-26T16:29:50Z</time>
      </trkpt>
      <trkpt lat="41.804483" lon="-8.130667">
        <ele>736.0</ele>
        <time>2010-08-26T16:29:51Z</time>
      </trkpt>
      <trkpt lat="41.804533" lon="-8.130700">
        <ele>735.0</ele>
        <time>2010-08-26T16:29:52Z</time>
      </trkpt>
      <trkpt lat="41.804567" lon="-8.130717">
        <ele>735.0</ele>
        <time>2010-08-26T16:29:53Z</time>
      </trkpt>
      <trkpt lat="41.804600" lon="-8.130733">
        <ele>734.0</ele>
        <time>2010-08-26T16:29:54Z</time>
      </trkpt>
      <trkpt lat="41.804633" lon="-8.130750">
        <ele>734.0</ele>
        <time>2010-08-26T16:29:55Z</time>
      </trkpt>
      <trkpt lat="41.804667" lon="-8.130767">
        <ele>733.0</ele>
        <time>2010-08-26T16:29:56Z</time>
      </trkpt>
      <trkpt lat="41.804717" lon="-8.130783">
        <ele>733.0</ele>
        <time>2010-08-26T16:29:57Z</time>
      </trkpt>
      <trkpt lat="41.804750" lon="-8.130817">
        <ele>732.0</ele>
        <time>2010-08-26T16:29:58Z</time>
      </trkpt>
      <trkpt lat="41.804783" lon="-8.130833">
        <ele>732.0</ele>
        <time>2010-08-26T16:29:59Z</time>
      </trkpt>
      <trkpt lat="41.804817" lon="-8.130867">
        <ele>732.0</ele>
        <time>2010-08-26T16:30:00Z</time>
      </trkpt>
      <trkpt lat="41.804867" lon="-8.130883">
        <ele>732.0</ele>
        <time>2010-08-26T16:30:01Z</time>
      </trkpt>
      <trkpt lat="41.804900" lon="-8.130900">
        <ele>732.0</ele>
        <time>2010-08-26T16:30:02Z</time>
      </trkpt>
      <trkpt lat="41.804933" lon="-8.130917">
        <ele>732.0</ele>
        <time>2010-08-26T16:30:03Z</time>
      </trkpt>
      <trkpt lat="41.804967" lon="-8.130933">
        <ele>732.0</ele>
        <time>2010-08-26T16:30:04Z</time>
      </trkpt>
      <trkpt lat="41.805000" lon="-8.130950">
        <ele>732.0</ele>
        <time>2010-08-26T16:30:05Z</time>
      </trkpt>
      <trkpt lat="41.805033" lon="-8.130967">
        <ele>732.0</ele>
        <time>2010-08-26T16:30:06Z</time>
      </trkpt>
      <trkpt lat="41.805067" lon="-8.130983">
        <ele>732.0</ele>
        <time>2010-08-26T16:30:07Z</time>
      </trkpt>
      <trkpt lat="41.805083" lon="-8.131000">
        <ele>732.0</ele>
        <time>2010-08-26T16:30:08Z</time>
      </trkpt>
      <trkpt lat="41.805117" lon="-8.131033">
        <ele>731.0</ele>
        <time>2010-08-26T16:30:09Z</time>
      </trkpt>
      <trkpt lat="41.805150" lon="-8.131050">
        <ele>731.0</ele>
        <time>2010-08-26T16:30:10Z</time>
      </trkpt>
      <trkpt lat="41.805183" lon="-8.131050">
        <ele>731.0</ele>
        <time>2010-08-26T16:30:11Z</time>
      </trkpt>
      <trkpt lat="41.805217" lon="-8.131067">
        <ele>731.0</ele>
        <time>2010-08-26T16:30:12Z</time>
      </trkpt>
      <trkpt lat="41.805250" lon="-8.131083">
        <ele>731.0</ele>
        <time>2010-08-26T16:30:13Z</time>
      </trkpt>
      <trkpt lat="41.805267" lon="-8.131100">
        <ele>731.0</ele>
        <time>2010-08-26T16:30:14Z</time>
      </trkpt>
      <trkpt lat="41.805300" lon="-8.131100">
        <ele>731.0</ele>
        <time>2010-08-26T16:30:15Z</time>
      </trkpt>
      <trkpt lat="41.805333" lon="-8.131100">
        <ele>731.0</ele>
        <time>2010-08-26T16:30:16Z</time>
      </trkpt>
      <trkpt lat="41.805367" lon="-8.131117">
        <ele>731.0</ele>
        <time>2010-08-26T16:30:17Z</time>
      </trkpt>
      <trkpt lat="41.805400" lon="-8.131117">
        <ele>730.0</ele>
        <time>2010-08-26T16:30:18Z</time>
      </trkpt>
      <trkpt lat="41.805433" lon="-8.131117">
        <ele>730.0</ele>
        <time>2010-08-26T16:30:19Z</time>
      </trkpt>
      <trkpt lat="41.805467" lon="-8.131117">
        <ele>730.0</ele>
        <time>2010-08-26T16:30:20Z</time>
      </trkpt>
      <trkpt lat="41.805500" lon="-8.131117">
        <ele>730.0</ele>
        <time>2010-08-26T16:30:21Z</time>
      </trkpt>
      <trkpt lat="41.805533" lon="-8.131117">
        <ele>730.0</ele>
        <time>2010-08-26T16:30:22Z</time>
      </trkpt>
      <trkpt lat="41.805567" lon="-8.131100">
        <ele>730.0</ele>
        <time>2010-08-26T16:30:23Z</time>
      </trkpt>
      <trkpt lat="41.805583" lon="-8.131100">
        <ele>730.0</ele>
        <time>2010-08-26T16:30:24Z</time>
      </trkpt>
      <trkpt lat="41.805617" lon="-8.131083">
        <ele>730.0</ele>
        <time>2010-08-26T16:30:25Z</time>
      </trkpt>
      <trkpt lat="41.805650" lon="-8.131083">
        <ele>730.0</ele>
        <time>2010-08-26T16:30:26Z</time>
      </trkpt>
      <trkpt lat="41.805667" lon="-8.131067">
        <ele>730.0</ele>
        <time>2010-08-26T16:30:27Z</time>
      </trkpt>
      <trkpt lat="41.805717" lon="-8.131067">
        <ele>731.0</ele>
        <time>2010-08-26T16:30:29Z</time>
      </trkpt>
      <trkpt lat="41.805750" lon="-8.131067">
        <ele>732.0</ele>
        <time>2010-08-26T16:30:31Z</time>
      </trkpt>
      <trkpt lat="41.805783" lon="-8.131050">
        <ele>733.0</ele>
        <time>2010-08-26T16:30:33Z</time>
      </trkpt>
      <trkpt lat="41.805833" lon="-8.131050">
        <ele>735.0</ele>
        <time>2010-08-26T16:30:35Z</time>
      </trkpt>
      <trkpt lat="41.805867" lon="-8.131033">
        <ele>736.0</ele>
        <time>2010-08-26T16:30:37Z</time>
      </trkpt>
      <trkpt lat="41.805900" lon="-8.131033">
        <ele>737.0</ele>
        <time>2010-08-26T16:30:39Z</time>
      </trkpt>
      <trkpt lat="41.805933" lon="-8.131033">
        <ele>738.0</ele>
        <time>2010-08-26T16:30:41Z</time>
      </trkpt>
      <trkpt lat="41.805967" lon="-8.131017">
        <ele>739.0</ele>
        <time>2010-08-26T16:30:43Z</time>
      </trkpt>
      <trkpt lat="41.806000" lon="-8.131017">
        <ele>740.0</ele>
        <time>2010-08-26T16:30:45Z</time>
      </trkpt>
      <trkpt lat="41.806033" lon="-8.131000">
        <ele>740.0</ele>
        <time>2010-08-26T16:30:47Z</time>
      </trkpt>
      <trkpt lat="41.806083" lon="-8.131000">
        <ele>741.0</ele>
        <time>2010-08-26T16:30:49Z</time>
      </trkpt>
      <trkpt lat="41.806117" lon="-8.130983">
        <ele>741.0</ele>
        <time>2010-08-26T16:30:51Z</time>
      </trkpt>
      <trkpt lat="41.806150" lon="-8.130967">
        <ele>741.0</ele>
        <time>2010-08-26T16:30:53Z</time>
      </trkpt>
      <trkpt lat="41.806183" lon="-8.130950">
        <ele>742.0</ele>
        <time>2010-08-26T16:30:55Z</time>
      </trkpt>
      <trkpt lat="41.806217" lon="-8.130950">
        <ele>743.0</ele>
        <time>2010-08-26T16:30:57Z</time>
      </trkpt>
      <trkpt lat="41.806250" lon="-8.130950">
        <ele>743.0</ele>
        <time>2010-08-26T16:30:59Z</time>
      </trkpt>
      <trkpt lat="41.806283" lon="-8.130917">
        <ele>743.0</ele>
        <time>2010-08-26T16:31:01Z</time>
      </trkpt>
      <trkpt lat="41.806300" lon="-8.130900">
        <ele>743.0</ele>
        <time>2010-08-26T16:31:03Z</time>
      </trkpt>
      <trkpt lat="41.806333" lon="-8.130900">
        <ele>744.0</ele>
        <time>2010-08-26T16:31:05Z</time>
      </trkpt>
      <trkpt lat="41.806367" lon="-8.130883">
        <ele>745.0</ele>
        <time>2010-08-26T16:31:07Z</time>
      </trkpt>
      <trkpt lat="41.806400" lon="-8.130867">
        <ele>746.0</ele>
        <time>2010-08-26T16:31:09Z</time>
      </trkpt>
      <trkpt lat="41.806433" lon="-8.130883">
        <ele>747.0</ele>
        <time>2010-08-26T16:31:11Z</time>
      </trkpt>
      <trkpt lat="41.806483" lon="-8.130867">
        <ele>748.0</ele>
        <time>2010-08-26T16:31:14Z</time>
      </trkpt>
      <trkpt lat="41.806517" lon="-8.130867">
        <ele>750.0</ele>
        <time>2010-08-26T16:31:17Z</time>
      </trkpt>
      <trkpt lat="41.806550" lon="-8.130850">
        <ele>750.0</ele>
        <time>2010-08-26T16:31:19Z</time>
      </trkpt>
      <trkpt lat="41.806583" lon="-8.130850">
        <ele>751.0</ele>
        <time>2010-08-26T16:31:21Z</time>
      </trkpt>
      <trkpt lat="41.806617" lon="-8.130833">
        <ele>752.0</ele>
        <time>2010-08-26T16:31:24Z</time>
      </trkpt>
      <trkpt lat="41.806650" lon="-8.130817">
        <ele>752.0</ele>
        <time>2010-08-26T16:31:26Z</time>
      </trkpt>
      <trkpt lat="41.806683" lon="-8.130800">
        <ele>753.0</ele>
        <time>2010-08-26T16:31:28Z</time>
      </trkpt>
      <trkpt lat="41.806717" lon="-8.130767">
        <ele>753.0</ele>
        <time>2010-08-26T16:31:31Z</time>
      </trkpt>
      <trkpt lat="41.806750" lon="-8.130750">
        <ele>753.0</ele>
        <time>2010-08-26T16:31:33Z</time>
      </trkpt>
      <trkpt lat="41.806783" lon="-8.130733">
        <ele>754.0</ele>
        <time>2010-08-26T16:31:35Z</time>
      </trkpt>
      <trkpt lat="41.806817" lon="-8.130717">
        <ele>754.0</ele>
        <time>2010-08-26T16:31:37Z</time>
      </trkpt>
      <trkpt lat="41.806850" lon="-8.130683">
        <ele>754.0</ele>
        <time>2010-08-26T16:31:39Z</time>
      </trkpt>
      <trkpt lat="41.806883" lon="-8.130667">
        <ele>755.0</ele>
        <time>2010-08-26T16:31:42Z</time>
      </trkpt>
      <trkpt lat="41.806917" lon="-8.130650">
        <ele>756.0</ele>
        <time>2010-08-26T16:31:44Z</time>
      </trkpt>
      <trkpt lat="41.806950" lon="-8.130633">
        <ele>756.0</ele>
        <time>2010-08-26T16:31:46Z</time>
      </trkpt>
      <trkpt lat="41.806983" lon="-8.130617">
        <ele>757.0</ele>
        <time>2010-08-26T16:31:48Z</time>
      </trkpt>
      <trkpt lat="41.807017" lon="-8.130617">
        <ele>758.0</ele>
        <time>2010-08-26T16:31:50Z</time>
      </trkpt>
      <trkpt lat="41.807033" lon="-8.130600">
        <ele>758.0</ele>
        <time>2010-08-26T16:31:52Z</time>
      </trkpt>
      <trkpt lat="41.807067" lon="-8.130600">
        <ele>758.0</ele>
        <time>2010-08-26T16:31:54Z</time>
      </trkpt>
      <trkpt lat="41.807100" lon="-8.130583">
        <ele>759.0</ele>
        <time>2010-08-26T16:31:56Z</time>
      </trkpt>
      <trkpt lat="41.807133" lon="-8.130583">
        <ele>758.0</ele>
        <time>2010-08-26T16:31:58Z</time>
      </trkpt>
      <trkpt lat="41.807167" lon="-8.130567">
        <ele>758.0</ele>
        <time>2010-08-26T16:32:00Z</time>
      </trkpt>
      <trkpt lat="41.807200" lon="-8.130567">
        <ele>758.0</ele>
        <time>2010-08-26T16:32:02Z</time>
      </trkpt>
      <trkpt lat="41.807233" lon="-8.130567">
        <ele>759.0</ele>
        <time>2010-08-26T16:32:04Z</time>
      </trkpt>
      <trkpt lat="41.807267" lon="-8.130567">
        <ele>760.0</ele>
        <time>2010-08-26T16:32:06Z</time>
      </trkpt>
      <trkpt lat="41.807300" lon="-8.130550">
        <ele>761.0</ele>
        <time>2010-08-26T16:32:09Z</time>
      </trkpt>
      <trkpt lat="41.807333" lon="-8.130567">
        <ele>762.0</ele>
        <time>2010-08-26T16:32:12Z</time>
      </trkpt>
      <trkpt lat="41.807367" lon="-8.130567">
        <ele>763.0</ele>
        <time>2010-08-26T16:32:14Z</time>
      </trkpt>
      <trkpt lat="41.807400" lon="-8.130567">
        <ele>763.0</ele>
        <time>2010-08-26T16:32:16Z</time>
      </trkpt>
      <trkpt lat="41.807450" lon="-8.130567">
        <ele>763.0</ele>
        <time>2010-08-26T16:32:18Z</time>
      </trkpt>
      <trkpt lat="41.807483" lon="-8.130567">
        <ele>763.0</ele>
        <time>2010-08-26T16:32:20Z</time>
      </trkpt>
      <trkpt lat="41.807517" lon="-8.130567">
        <ele>763.0</ele>
        <time>2010-08-26T16:32:22Z</time>
      </trkpt>
      <trkpt lat="41.807550" lon="-8.130550">
        <ele>764.0</ele>
        <time>2010-08-26T16:32:24Z</time>
      </trkpt>
      <trkpt lat="41.807583" lon="-8.130550">
        <ele>764.0</ele>
        <time>2010-08-26T16:32:26Z</time>
      </trkpt>
      <trkpt lat="41.807633" lon="-8.130550">
        <ele>765.0</ele>
        <time>2010-08-26T16:32:28Z</time>
      </trkpt>
      <trkpt lat="41.807667" lon="-8.130533">
        <ele>765.0</ele>
        <time>2010-08-26T16:32:30Z</time>
      </trkpt>
      <trkpt lat="41.807700" lon="-8.130533">
        <ele>766.0</ele>
        <time>2010-08-26T16:32:32Z</time>
      </trkpt>
      <trkpt lat="41.807750" lon="-8.130517">
        <ele>767.0</ele>
        <time>2010-08-26T16:32:34Z</time>
      </trkpt>
      <trkpt lat="41.807767" lon="-8.130500">
        <ele>768.0</ele>
        <time>2010-08-26T16:32:36Z</time>
      </trkpt>
      <trkpt lat="41.807800" lon="-8.130500">
        <ele>769.0</ele>
        <time>2010-08-26T16:32:38Z</time>
      </trkpt>
      <trkpt lat="41.807833" lon="-8.130483">
        <ele>769.0</ele>
        <time>2010-08-26T16:32:40Z</time>
      </trkpt>
      <trkpt lat="41.807867" lon="-8.130483">
        <ele>770.0</ele>
        <time>2010-08-26T16:32:42Z</time>
      </trkpt>
      <trkpt lat="41.807917" lon="-8.130483">
        <ele>771.0</ele>
        <time>2010-08-26T16:32:45Z</time>
      </trkpt>
      <trkpt lat="41.807950" lon="-8.130483">
        <ele>772.0</ele>
        <time>2010-08-26T16:32:48Z</time>
      </trkpt>
      <trkpt lat="41.807983" lon="-8.130500">
        <ele>772.0</ele>
        <time>2010-08-26T16:32:57Z</time>
      </trkpt>
      <trkpt lat="41.808017" lon="-8.130500">
        <ele>771.0</ele>
        <time>2010-08-26T16:33:03Z</time>
      </trkpt>
      <trkpt lat="41.808050" lon="-8.130467">
        <ele>770.0</ele>
        <time>2010-08-26T16:33:05Z</time>
      </trkpt>
      <trkpt lat="41.808083" lon="-8.130467">
        <ele>770.0</ele>
        <time>2010-08-26T16:33:07Z</time>
      </trkpt>
      <trkpt lat="41.808117" lon="-8.130450">
        <ele>769.0</ele>
        <time>2010-08-26T16:33:09Z</time>
      </trkpt>
      <trkpt lat="41.808150" lon="-8.130450">
        <ele>769.0</ele>
        <time>2010-08-26T16:33:11Z</time>
      </trkpt>
      <trkpt lat="41.808183" lon="-8.130450">
        <ele>769.0</ele>
        <time>2010-08-26T16:33:13Z</time>
      </trkpt>
      <trkpt lat="41.808217" lon="-8.130433">
        <ele>770.0</ele>
        <time>2010-08-26T16:33:15Z</time>
      </trkpt>
      <trkpt lat="41.808250" lon="-8.130450">
        <ele>770.0</ele>
        <time>2010-08-26T16:33:17Z</time>
      </trkpt>
      <trkpt lat="41.808283" lon="-8.130467">
        <ele>770.0</ele>
        <time>2010-08-26T16:33:19Z</time>
      </trkpt>
      <trkpt lat="41.808300" lon="-8.130483">
        <ele>770.0</ele>
        <time>2010-08-26T16:33:20Z</time>
      </trkpt>
      <trkpt lat="41.808333" lon="-8.130500">
        <ele>770.0</ele>
        <time>2010-08-26T16:33:21Z</time>
      </trkpt>
      <trkpt lat="41.808350" lon="-8.130517">
        <ele>770.0</ele>
        <time>2010-08-26T16:33:22Z</time>
      </trkpt>
      <trkpt lat="41.808383" lon="-8.130567">
        <ele>769.0</ele>
        <time>2010-08-26T16:33:24Z</time>
      </trkpt>
      <trkpt lat="41.808400" lon="-8.130617">
        <ele>770.0</ele>
        <time>2010-08-26T16:33:26Z</time>
      </trkpt>
      <trkpt lat="41.808400" lon="-8.130667">
        <ele>771.0</ele>
        <time>2010-08-26T16:33:28Z</time>
      </trkpt>
      <trkpt lat="41.808417" lon="-8.130717">
        <ele>773.0</ele>
        <time>2010-08-26T16:33:30Z</time>
      </trkpt>
      <trkpt lat="41.808417" lon="-8.130767">
        <ele>774.0</ele>
        <time>2010-08-26T16:33:32Z</time>
      </trkpt>
      <trkpt lat="41.808417" lon="-8.130800">
        <ele>775.0</ele>
        <time>2010-08-26T16:33:34Z</time>
      </trkpt>
      <trkpt lat="41.808417" lon="-8.130850">
        <ele>778.0</ele>
        <time>2010-08-26T16:33:37Z</time>
      </trkpt>
      <trkpt lat="41.808400" lon="-8.130883">
        <ele>787.0</ele>
        <time>2010-08-26T16:33:52Z</time>
      </trkpt>
      <trkpt lat="41.808400" lon="-8.130950">
        <ele>786.0</ele>
        <time>2010-08-26T16:33:54Z</time>
      </trkpt>
      <trkpt lat="41.808400" lon="-8.131000">
        <ele>785.0</ele>
        <time>2010-08-26T16:33:56Z</time>
      </trkpt>
      <trkpt lat="41.808417" lon="-8.131050">
        <ele>785.0</ele>
        <time>2010-08-26T16:33:58Z</time>
      </trkpt>
      <trkpt lat="41.808433" lon="-8.131100">
        <ele>784.0</ele>
        <time>2010-08-26T16:34:00Z</time>
      </trkpt>
      <trkpt lat="41.808450" lon="-8.131150">
        <ele>776.0</ele>
        <time>2010-08-26T16:34:11Z</time>
      </trkpt>
      <trkpt lat="41.808467" lon="-8.131200">
        <ele>769.0</ele>
        <time>2010-08-26T16:34:25Z</time>
      </trkpt>
      <trkpt lat="41.808500" lon="-8.131217">
        <ele>769.0</ele>
        <time>2010-08-26T16:34:27Z</time>
      </trkpt>
      <trkpt lat="41.808533" lon="-8.131233">
        <ele>769.0</ele>
        <time>2010-08-26T16:34:29Z</time>
      </trkpt>
      <trkpt lat="41.808567" lon="-8.131233">
        <ele>769.0</ele>
        <time>2010-08-26T16:34:30Z</time>
      </trkpt>
      <trkpt lat="41.808583" lon="-8.131233">
        <ele>769.0</ele>
        <time>2010-08-26T16:34:31Z</time>
      </trkpt>
      <trkpt lat="41.808600" lon="-8.131250">
        <ele>769.0</ele>
        <time>2010-08-26T16:34:32Z</time>
      </trkpt>
      <trkpt lat="41.808633" lon="-8.131233">
        <ele>769.0</ele>
        <time>2010-08-26T16:34:33Z</time>
      </trkpt>
      <trkpt lat="41.808650" lon="-8.131233">
        <ele>769.0</ele>
        <time>2010-08-26T16:34:34Z</time>
      </trkpt>
      <trkpt lat="41.808683" lon="-8.131233">
        <ele>769.0</ele>
        <time>2010-08-26T16:34:35Z</time>
      </trkpt>
      <trkpt lat="41.808700" lon="-8.131233">
        <ele>769.0</ele>
        <time>2010-08-26T16:34:36Z</time>
      </trkpt>
      <trkpt lat="41.808733" lon="-8.131250">
        <ele>769.0</ele>
        <time>2010-08-26T16:34:37Z</time>
      </trkpt>
      <trkpt lat="41.808750" lon="-8.131267">
        <ele>768.0</ele>
        <time>2010-08-26T16:34:38Z</time>
      </trkpt>
      <trkpt lat="41.808783" lon="-8.131267">
        <ele>768.0</ele>
        <time>2010-08-26T16:34:39Z</time>
      </trkpt>
      <trkpt lat="41.808800" lon="-8.131283">
        <ele>768.0</ele>
        <time>2010-08-26T16:34:40Z</time>
      </trkpt>
      <trkpt lat="41.808833" lon="-8.131300">
        <ele>768.0</ele>
        <time>2010-08-26T16:34:41Z</time>
      </trkpt>
      <trkpt lat="41.808867" lon="-8.131333">
        <ele>768.0</ele>
        <time>2010-08-26T16:34:45Z</time>
      </trkpt>
      <trkpt lat="41.808900" lon="-8.131350">
        <ele>770.0</ele>
        <time>2010-08-26T16:35:30Z</time>
      </trkpt>
      <trkpt lat="41.808933" lon="-8.131367">
        <ele>770.0</ele>
        <time>2010-08-26T16:35:37Z</time>
      </trkpt>
      <trkpt lat="41.808900" lon="-8.131400">
        <ele>770.0</ele>
        <time>2010-08-26T16:36:52Z</time>
      </trkpt>
      <trkpt lat="41.808900" lon="-8.131450">
        <ele>771.0</ele>
        <time>2010-08-26T16:36:56Z</time>
      </trkpt>
      <trkpt lat="41.808900" lon="-8.131383">
        <ele>772.0</ele>
        <time>2010-08-26T16:37:17Z</time>
      </trkpt>
      <trkpt lat="41.808917" lon="-8.131333">
        <ele>774.0</ele>
        <time>2010-08-26T16:37:53Z</time>
      </trkpt>
      <trkpt lat="41.808950" lon="-8.131383">
        <ele>770.0</ele>
        <time>2010-08-26T16:38:47Z</time>
      </trkpt>
      <trkpt lat="41.808983" lon="-8.131383">
        <ele>770.0</ele>
        <time>2010-08-26T16:38:48Z</time>
      </trkpt>
      <trkpt lat="41.809000" lon="-8.131383">
        <ele>770.0</ele>
        <time>2010-08-26T16:38:49Z</time>
      </trkpt>
      <trkpt lat="41.809033" lon="-8.131400">
        <ele>770.0</ele>
        <time>2010-08-26T16:38:50Z</time>
      </trkpt>
      <trkpt lat="41.809067" lon="-8.131400">
        <ele>769.0</ele>
        <time>2010-08-26T16:38:52Z</time>
      </trkpt>
      <trkpt lat="41.809100" lon="-8.131400">
        <ele>766.0</ele>
        <time>2010-08-26T16:39:19Z</time>
      </trkpt>
      <trkpt lat="41.809133" lon="-8.131417">
        <ele>766.0</ele>
        <time>2010-08-26T16:39:21Z</time>
      </trkpt>
      <trkpt lat="41.809150" lon="-8.131417">
        <ele>766.0</ele>
        <time>2010-08-26T16:39:22Z</time>
      </trkpt>
      <trkpt lat="41.809183" lon="-8.131417">
        <ele>766.0</ele>
        <time>2010-08-26T16:39:23Z</time>
      </trkpt>
      <trkpt lat="41.809217" lon="-8.131400">
        <ele>766.0</ele>
        <time>2010-08-26T16:39:24Z</time>
      </trkpt>
      <trkpt lat="41.809250" lon="-8.131383">
        <ele>766.0</ele>
        <time>2010-08-26T16:39:25Z</time>
      </trkpt>
      <trkpt lat="41.809283" lon="-8.131367">
        <ele>766.0</ele>
        <time>2010-08-26T16:39:26Z</time>
      </trkpt>
      <trkpt lat="41.809333" lon="-8.131333">
        <ele>766.0</ele>
        <time>2010-08-26T16:39:27Z</time>
      </trkpt>
      <trkpt lat="41.809383" lon="-8.131283">
        <ele>766.0</ele>
        <time>2010-08-26T16:39:28Z</time>
      </trkpt>
      <trkpt lat="41.809433" lon="-8.131233">
        <ele>766.0</ele>
        <time>2010-08-26T16:39:29Z</time>
      </trkpt>
      <trkpt lat="41.809467" lon="-8.131150">
        <ele>765.0</ele>
        <time>2010-08-26T16:39:30Z</time>
      </trkpt>
      <trkpt lat="41.809517" lon="-8.131067">
        <ele>764.0</ele>
        <time>2010-08-26T16:39:31Z</time>
      </trkpt>
      <trkpt lat="41.809567" lon="-8.130967">
        <ele>763.0</ele>
        <time>2010-08-26T16:39:32Z</time>
      </trkpt>
      <trkpt lat="41.809600" lon="-8.130867">
        <ele>762.0</ele>
        <time>2010-08-26T16:39:33Z</time>
      </trkpt>
      <trkpt lat="41.809633" lon="-8.130750">
        <ele>761.0</ele>
        <time>2010-08-26T16:39:34Z</time>
      </trkpt>
      <trkpt lat="41.809667" lon="-8.130650">
        <ele>760.0</ele>
        <time>2010-08-26T16:39:35Z</time>
      </trkpt>
      <trkpt lat="41.809700" lon="-8.130533">
        <ele>760.0</ele>
        <time>2010-08-26T16:39:36Z</time>
      </trkpt>
      <trkpt lat="41.809733" lon="-8.130417">
        <ele>759.0</ele>
        <time>2010-08-26T16:39:37Z</time>
      </trkpt>
      <trkpt lat="41.809767" lon="-8.130317">
        <ele>758.0</ele>
        <time>2010-08-26T16:39:38Z</time>
      </trkpt>
      <trkpt lat="41.809817" lon="-8.130233">
        <ele>757.0</ele>
        <time>2010-08-26T16:39:39Z</time>
      </trkpt>
      <trkpt lat="41.809867" lon="-8.130150">
        <ele>757.0</ele>
        <time>2010-08-26T16:39:40Z</time>
      </trkpt>
      <trkpt lat="41.809917" lon="-8.130083">
        <ele>756.0</ele>
        <time>2010-08-26T16:39:41Z</time>
      </trkpt>
      <trkpt lat="41.809967" lon="-8.130033">
        <ele>755.0</ele>
        <time>2010-08-26T16:39:42Z</time>
      </trkpt>
      <trkpt lat="41.810017" lon="-8.130000">
        <ele>755.0</ele>
        <time>2010-08-26T16:39:43Z</time>
      </trkpt>
      <trkpt lat="41.810033" lon="-8.130000">
        <ele>754.0</ele>
        <time>2010-08-26T16:39:44Z</time>
      </trkpt>
      <trkpt lat="41.810067" lon="-8.130017">
        <ele>754.0</ele>
        <time>2010-08-26T16:39:45Z</time>
      </trkpt>
      <trkpt lat="41.810067" lon="-8.130067">
        <ele>753.0</ele>
        <time>2010-08-26T16:39:46Z</time>
      </trkpt>
      <trkpt lat="41.810067" lon="-8.130117">
        <ele>753.0</ele>
        <time>2010-08-26T16:39:47Z</time>
      </trkpt>
      <trkpt lat="41.810067" lon="-8.130183">
        <ele>752.0</ele>
        <time>2010-08-26T16:39:48Z</time>
      </trkpt>
      <trkpt lat="41.810067" lon="-8.130267">
        <ele>752.0</ele>
        <time>2010-08-26T16:39:49Z</time>
      </trkpt>
      <trkpt lat="41.810067" lon="-8.130350">
        <ele>751.0</ele>
        <time>2010-08-26T16:39:50Z</time>
      </trkpt>
      <trkpt lat="41.810067" lon="-8.130433">
        <ele>751.0</ele>
        <time>2010-08-26T16:39:51Z</time>
      </trkpt>
      <trkpt lat="41.810067" lon="-8.130517">
        <ele>750.0</ele>
        <time>2010-08-26T16:39:52Z</time>
      </trkpt>
      <trkpt lat="41.810067" lon="-8.130600">
        <ele>750.0</ele>
        <time>2010-08-26T16:39:53Z</time>
      </trkpt>
      <trkpt lat="41.810083" lon="-8.130683">
        <ele>750.0</ele>
        <time>2010-08-26T16:39:54Z</time>
      </trkpt>
      <trkpt lat="41.810083" lon="-8.130767">
        <ele>749.0</ele>
        <time>2010-08-26T16:39:55Z</time>
      </trkpt>
      <trkpt lat="41.810100" lon="-8.130833">
        <ele>749.0</ele>
        <time>2010-08-26T16:39:56Z</time>
      </trkpt>
      <trkpt lat="41.810117" lon="-8.130867">
        <ele>749.0</ele>
        <time>2010-08-26T16:39:57Z</time>
      </trkpt>
      <trkpt lat="41.810133" lon="-8.130883">
        <ele>748.0</ele>
        <time>2010-08-26T16:39:58Z</time>
      </trkpt>
      <trkpt lat="41.810167" lon="-8.130883">
        <ele>748.0</ele>
        <time>2010-08-26T16:39:59Z</time>
      </trkpt>
      <trkpt lat="41.810217" lon="-8.130850">
        <ele>747.0</ele>
        <time>2010-08-26T16:40:00Z</time>
      </trkpt>
      <trkpt lat="41.810250" lon="-8.130817">
        <ele>747.0</ele>
        <time>2010-08-26T16:40:01Z</time>
      </trkpt>
      <trkpt lat="41.810300" lon="-8.130767">
        <ele>746.0</ele>
        <time>2010-08-26T16:40:02Z</time>
      </trkpt>
      <trkpt lat="41.810350" lon="-8.130733">
        <ele>745.0</ele>
        <time>2010-08-26T16:40:03Z</time>
      </trkpt>
      <trkpt lat="41.810400" lon="-8.130700">
        <ele>745.0</ele>
        <time>2010-08-26T16:40:04Z</time>
      </trkpt>
      <trkpt lat="41.810450" lon="-8.130667">
        <ele>744.0</ele>
        <time>2010-08-26T16:40:05Z</time>
      </trkpt>
      <trkpt lat="41.810483" lon="-8.130633">
        <ele>743.0</ele>
        <time>2010-08-26T16:40:06Z</time>
      </trkpt>
      <trkpt lat="41.810533" lon="-8.130583">
        <ele>742.0</ele>
        <time>2010-08-26T16:40:07Z</time>
      </trkpt>
      <trkpt lat="41.810567" lon="-8.130550">
        <ele>741.0</ele>
        <time>2010-08-26T16:40:08Z</time>
      </trkpt>
      <trkpt lat="41.810617" lon="-8.130500">
        <ele>740.0</ele>
        <time>2010-08-26T16:40:09Z</time>
      </trkpt>
      <trkpt lat="41.810650" lon="-8.130467">
        <ele>740.0</ele>
        <time>2010-08-26T16:40:10Z</time>
      </trkpt>
      <trkpt lat="41.810667" lon="-8.130417">
        <ele>739.0</ele>
        <time>2010-08-26T16:40:11Z</time>
      </trkpt>
      <trkpt lat="41.810667" lon="-8.130350">
        <ele>738.0</ele>
        <time>2010-08-26T16:40:12Z</time>
      </trkpt>
      <trkpt lat="41.810667" lon="-8.130300">
        <ele>738.0</ele>
        <time>2010-08-26T16:40:13Z</time>
      </trkpt>
      <trkpt lat="41.810667" lon="-8.130233">
        <ele>737.0</ele>
        <time>2010-08-26T16:40:14Z</time>
      </trkpt>
      <trkpt lat="41.810667" lon="-8.130167">
        <ele>736.0</ele>
        <time>2010-08-26T16:40:15Z</time>
      </trkpt>
      <trkpt lat="41.810700" lon="-8.130117">
        <ele>736.0</ele>
        <time>2010-08-26T16:40:16Z</time>
      </trkpt>
      <trkpt lat="41.810733" lon="-8.130050">
        <ele>735.0</ele>
        <time>2010-08-26T16:40:17Z</time>
      </trkpt>
      <trkpt lat="41.810767" lon="-8.130000">
        <ele>734.0</ele>
        <time>2010-08-26T16:40:18Z</time>
      </trkpt>
      <trkpt lat="41.810817" lon="-8.129983">
        <ele>734.0</ele>
        <time>2010-08-26T16:40:19Z</time>
      </trkpt>
      <trkpt lat="41.810883" lon="-8.129967">
        <ele>733.0</ele>
        <time>2010-08-26T16:40:20Z</time>
      </trkpt>
      <trkpt lat="41.810933" lon="-8.129950">
        <ele>732.0</ele>
        <time>2010-08-26T16:40:21Z</time>
      </trkpt>
      <trkpt lat="41.811000" lon="-8.129917">
        <ele>732.0</ele>
        <time>2010-08-26T16:40:22Z</time>
      </trkpt>
      <trkpt lat="41.811050" lon="-8.129850">
        <ele>731.0</ele>
        <time>2010-08-26T16:40:23Z</time>
      </trkpt>
      <trkpt lat="41.811100" lon="-8.129783">
        <ele>730.0</ele>
        <time>2010-08-26T16:40:24Z</time>
      </trkpt>
      <trkpt lat="41.811150" lon="-8.129733">
        <ele>729.0</ele>
        <time>2010-08-26T16:40:25Z</time>
      </trkpt>
      <trkpt lat="41.811217" lon="-8.129667">
        <ele>729.0</ele>
        <time>2010-08-26T16:40:26Z</time>
      </trkpt>
      <trkpt lat="41.811267" lon="-8.129583">
        <ele>728.0</ele>
        <time>2010-08-26T16:40:27Z</time>
      </trkpt>
      <trkpt lat="41.811317" lon="-8.129500">
        <ele>727.0</ele>
        <time>2010-08-26T16:40:28Z</time>
      </trkpt>
      <trkpt lat="41.811367" lon="-8.129417">
        <ele>726.0</ele>
        <time>2010-08-26T16:40:29Z</time>
      </trkpt>
      <trkpt lat="41.811400" lon="-8.129350">
        <ele>725.0</ele>
        <time>2010-08-26T16:40:30Z</time>
      </trkpt>
      <trkpt lat="41.811467" lon="-8.129283">
        <ele>724.0</ele>
        <time>2010-08-26T16:40:31Z</time>
      </trkpt>
      <trkpt lat="41.811533" lon="-8.129250">
        <ele>723.0</ele>
        <time>2010-08-26T16:40:32Z</time>
      </trkpt>
      <trkpt lat="41.811600" lon="-8.129200">
        <ele>722.0</ele>
        <time>2010-08-26T16:40:33Z</time>
      </trkpt>
      <trkpt lat="41.811667" lon="-8.129150">
        <ele>722.0</ele>
        <time>2010-08-26T16:40:34Z</time>
      </trkpt>
      <trkpt lat="41.811733" lon="-8.129100">
        <ele>721.0</ele>
        <time>2010-08-26T16:40:35Z</time>
      </trkpt>
      <trkpt lat="41.811800" lon="-8.129050">
        <ele>720.0</ele>
        <time>2010-08-26T16:40:36Z</time>
      </trkpt>
      <trkpt lat="41.811883" lon="-8.129017">
        <ele>719.0</ele>
        <time>2010-08-26T16:40:37Z</time>
      </trkpt>
      <trkpt lat="41.811950" lon="-8.128967">
        <ele>718.0</ele>
        <time>2010-08-26T16:40:38Z</time>
      </trkpt>
      <trkpt lat="41.812000" lon="-8.128917">
        <ele>717.0</ele>
        <time>2010-08-26T16:40:39Z</time>
      </trkpt>
      <trkpt lat="41.812050" lon="-8.128883">
        <ele>716.0</ele>
        <time>2010-08-26T16:40:40Z</time>
      </trkpt>
      <trkpt lat="41.812117" lon="-8.128850">
        <ele>715.0</ele>
        <time>2010-08-26T16:40:41Z</time>
      </trkpt>
      <trkpt lat="41.812183" lon="-8.128850">
        <ele>714.0</ele>
        <time>2010-08-26T16:40:42Z</time>
      </trkpt>
      <trkpt lat="41.812250" lon="-8.128833">
        <ele>713.0</ele>
        <time>2010-08-26T16:40:43Z</time>
      </trkpt>
      <trkpt lat="41.812317" lon="-8.128817">
        <ele>712.0</ele>
        <time>2010-08-26T16:40:44Z</time>
      </trkpt>
      <trkpt lat="41.812350" lon="-8.128767">
        <ele>712.0</ele>
        <time>2010-08-26T16:40:45Z</time>
      </trkpt>
      <trkpt lat="41.812383" lon="-8.128733">
        <ele>711.0</ele>
        <time>2010-08-26T16:40:46Z</time>
      </trkpt>
      <trkpt lat="41.812383" lon="-8.128683">
        <ele>711.0</ele>
        <time>2010-08-26T16:40:47Z</time>
      </trkpt>
      <trkpt lat="41.812383" lon="-8.128650">
        <ele>711.0</ele>
        <time>2010-08-26T16:40:48Z</time>
      </trkpt>
      <trkpt lat="41.812383" lon="-8.128617">
        <ele>711.0</ele>
        <time>2010-08-26T16:40:49Z</time>
      </trkpt>
      <trkpt lat="41.812383" lon="-8.128567">
        <ele>711.0</ele>
        <time>2010-08-26T16:40:50Z</time>
      </trkpt>
      <trkpt lat="41.812400" lon="-8.128533">
        <ele>712.0</ele>
        <time>2010-08-26T16:40:51Z</time>
      </trkpt>
      <trkpt lat="41.812417" lon="-8.128483">
        <ele>712.0</ele>
        <time>2010-08-26T16:40:52Z</time>
      </trkpt>
      <trkpt lat="41.812433" lon="-8.128450">
        <ele>712.0</ele>
        <time>2010-08-26T16:40:53Z</time>
      </trkpt>
      <trkpt lat="41.812450" lon="-8.128433">
        <ele>713.0</ele>
        <time>2010-08-26T16:40:54Z</time>
      </trkpt>
      <trkpt lat="41.812467" lon="-8.128400">
        <ele>713.0</ele>
        <time>2010-08-26T16:40:55Z</time>
      </trkpt>
      <trkpt lat="41.812483" lon="-8.128383">
        <ele>713.0</ele>
        <time>2010-08-26T16:40:56Z</time>
      </trkpt>
      <trkpt lat="41.812517" lon="-8.128367">
        <ele>713.0</ele>
        <time>2010-08-26T16:40:57Z</time>
      </trkpt>
      <trkpt lat="41.812533" lon="-8.128333">
        <ele>714.0</ele>
        <time>2010-08-26T16:40:58Z</time>
      </trkpt>
      <trkpt lat="41.812550" lon="-8.128317">
        <ele>714.0</ele>
        <time>2010-08-26T16:40:59Z</time>
      </trkpt>
      <trkpt lat="41.812567" lon="-8.128283">
        <ele>714.0</ele>
        <time>2010-08-26T16:41:00Z</time>
      </trkpt>
      <trkpt lat="41.812567" lon="-8.128250">
        <ele>714.0</ele>
        <time>2010-08-26T16:41:01Z</time>
      </trkpt>
      <trkpt lat="41.812567" lon="-8.128217">
        <ele>714.0</ele>
        <time>2010-08-26T16:41:02Z</time>
      </trkpt>
      <trkpt lat="41.812567" lon="-8.128167">
        <ele>714.0</ele>
        <time>2010-08-26T16:41:03Z</time>
      </trkpt>
      <trkpt lat="41.812567" lon="-8.128133">
        <ele>715.0</ele>
        <time>2010-08-26T16:41:04Z</time>
      </trkpt>
      <trkpt lat="41.812550" lon="-8.128100">
        <ele>715.0</ele>
        <time>2010-08-26T16:41:05Z</time>
      </trkpt>
      <trkpt lat="41.812533" lon="-8.128067">
        <ele>715.0</ele>
        <time>2010-08-26T16:41:06Z</time>
      </trkpt>
      <trkpt lat="41.812533" lon="-8.128033">
        <ele>715.0</ele>
        <time>2010-08-26T16:41:07Z</time>
      </trkpt>
      <trkpt lat="41.812517" lon="-8.127983">
        <ele>715.0</ele>
        <time>2010-08-26T16:41:08Z</time>
      </trkpt>
      <trkpt lat="41.812500" lon="-8.127950">
        <ele>715.0</ele>
        <time>2010-08-26T16:41:09Z</time>
      </trkpt>
      <trkpt lat="41.812500" lon="-8.127917">
        <ele>715.0</ele>
        <time>2010-08-26T16:41:10Z</time>
      </trkpt>
      <trkpt lat="41.812483" lon="-8.127867">
        <ele>715.0</ele>
        <time>2010-08-26T16:41:11Z</time>
      </trkpt>
      <trkpt lat="41.812500" lon="-8.127817">
        <ele>715.0</ele>
        <time>2010-08-26T16:41:12Z</time>
      </trkpt>
      <trkpt lat="41.812517" lon="-8.127783">
        <ele>715.0</ele>
        <time>2010-08-26T16:41:13Z</time>
      </trkpt>
      <trkpt lat="41.812550" lon="-8.127750">
        <ele>715.0</ele>
        <time>2010-08-26T16:41:14Z</time>
      </trkpt>
      <trkpt lat="41.812567" lon="-8.127717">
        <ele>715.0</ele>
        <time>2010-08-26T16:41:15Z</time>
      </trkpt>
      <trkpt lat="41.812600" lon="-8.127700">
        <ele>715.0</ele>
        <time>2010-08-26T16:41:16Z</time>
      </trkpt>
      <trkpt lat="41.812633" lon="-8.127683">
        <ele>715.0</ele>
        <time>2010-08-26T16:41:17Z</time>
      </trkpt>
      <trkpt lat="41.812667" lon="-8.127667">
        <ele>716.0</ele>
        <time>2010-08-26T16:41:18Z</time>
      </trkpt>
      <trkpt lat="41.812700" lon="-8.127667">
        <ele>716.0</ele>
        <time>2010-08-26T16:41:19Z</time>
      </trkpt>
      <trkpt lat="41.812717" lon="-8.127650">
        <ele>716.0</ele>
        <time>2010-08-26T16:41:20Z</time>
      </trkpt>
      <trkpt lat="41.812750" lon="-8.127650">
        <ele>716.0</ele>
        <time>2010-08-26T16:41:21Z</time>
      </trkpt>
      <trkpt lat="41.812783" lon="-8.127633">
        <ele>716.0</ele>
        <time>2010-08-26T16:41:22Z</time>
      </trkpt>
      <trkpt lat="41.812817" lon="-8.127633">
        <ele>716.0</ele>
        <time>2010-08-26T16:41:23Z</time>
      </trkpt>
      <trkpt lat="41.812850" lon="-8.127617">
        <ele>716.0</ele>
        <time>2010-08-26T16:41:24Z</time>
      </trkpt>
      <trkpt lat="41.812883" lon="-8.127600">
        <ele>716.0</ele>
        <time>2010-08-26T16:41:25Z</time>
      </trkpt>
      <trkpt lat="41.812917" lon="-8.127583">
        <ele>716.0</ele>
        <time>2010-08-26T16:41:26Z</time>
      </trkpt>
      <trkpt lat="41.812950" lon="-8.127567">
        <ele>716.0</ele>
        <time>2010-08-26T16:41:27Z</time>
      </trkpt>
      <trkpt lat="41.812983" lon="-8.127550">
        <ele>716.0</ele>
        <time>2010-08-26T16:41:28Z</time>
      </trkpt>
      <trkpt lat="41.813017" lon="-8.127550">
        <ele>716.0</ele>
        <time>2010-08-26T16:41:29Z</time>
      </trkpt>
      <trkpt lat="41.813050" lon="-8.127533">
        <ele>716.0</ele>
        <time>2010-08-26T16:41:30Z</time>
      </trkpt>
      <trkpt lat="41.813083" lon="-8.127533">
        <ele>716.0</ele>
        <time>2010-08-26T16:41:31Z</time>
      </trkpt>
      <trkpt lat="41.813117" lon="-8.127550">
        <ele>716.0</ele>
        <time>2010-08-26T16:41:32Z</time>
      </trkpt>
      <trkpt lat="41.813150" lon="-8.127550">
        <ele>716.0</ele>
        <time>2010-08-26T16:41:33Z</time>
      </trkpt>
      <trkpt lat="41.813183" lon="-8.127550">
        <ele>716.0</ele>
        <time>2010-08-26T16:41:34Z</time>
      </trkpt>
      <trkpt lat="41.813217" lon="-8.127550">
        <ele>716.0</ele>
        <time>2010-08-26T16:41:35Z</time>
      </trkpt>
      <trkpt lat="41.813233" lon="-8.127533">
        <ele>716.0</ele>
        <time>2010-08-26T16:41:36Z</time>
      </trkpt>
      <trkpt lat="41.813267" lon="-8.127533">
        <ele>716.0</ele>
        <time>2010-08-26T16:41:37Z</time>
      </trkpt>
      <trkpt lat="41.813300" lon="-8.127517">
        <ele>716.0</ele>
        <time>2010-08-26T16:41:38Z</time>
      </trkpt>
      <trkpt lat="41.813317" lon="-8.127500">
        <ele>716.0</ele>
        <time>2010-08-26T16:41:39Z</time>
      </trkpt>
      <trkpt lat="41.813350" lon="-8.127483">
        <ele>716.0</ele>
        <time>2010-08-26T16:41:40Z</time>
      </trkpt>
      <trkpt lat="41.813367" lon="-8.127450">
        <ele>716.0</ele>
        <time>2010-08-26T16:41:41Z</time>
      </trkpt>
      <trkpt lat="41.813400" lon="-8.127433">
        <ele>716.0</ele>
        <time>2010-08-26T16:41:42Z</time>
      </trkpt>
      <trkpt lat="41.813433" lon="-8.127417">
        <ele>716.0</ele>
        <time>2010-08-26T16:41:43Z</time>
      </trkpt>
      <trkpt lat="41.813450" lon="-8.127400">
        <ele>716.0</ele>
        <time>2010-08-26T16:41:44Z</time>
      </trkpt>
      <trkpt lat="41.813483" lon="-8.127383">
        <ele>716.0</ele>
        <time>2010-08-26T16:41:45Z</time>
      </trkpt>
      <trkpt lat="41.813500" lon="-8.127367">
        <ele>716.0</ele>
        <time>2010-08-26T16:41:46Z</time>
      </trkpt>
      <trkpt lat="41.813533" lon="-8.127350">
        <ele>717.0</ele>
        <time>2010-08-26T16:41:47Z</time>
      </trkpt>
      <trkpt lat="41.813567" lon="-8.127317">
        <ele>717.0</ele>
        <time>2010-08-26T16:41:48Z</time>
      </trkpt>
      <trkpt lat="41.813583" lon="-8.127300">
        <ele>717.0</ele>
        <time>2010-08-26T16:41:49Z</time>
      </trkpt>
      <trkpt lat="41.813617" lon="-8.127283">
        <ele>717.0</ele>
        <time>2010-08-26T16:41:50Z</time>
      </trkpt>
      <trkpt lat="41.813633" lon="-8.127267">
        <ele>717.0</ele>
        <time>2010-08-26T16:41:51Z</time>
      </trkpt>
      <trkpt lat="41.813650" lon="-8.127250">
        <ele>717.0</ele>
        <time>2010-08-26T16:41:52Z</time>
      </trkpt>
      <trkpt lat="41.813683" lon="-8.127233">
        <ele>717.0</ele>
        <time>2010-08-26T16:41:53Z</time>
      </trkpt>
      <trkpt lat="41.813700" lon="-8.127217">
        <ele>717.0</ele>
        <time>2010-08-26T16:41:54Z</time>
      </trkpt>
      <trkpt lat="41.813717" lon="-8.127183">
        <ele>717.0</ele>
        <time>2010-08-26T16:41:55Z</time>
      </trkpt>
      <trkpt lat="41.813767" lon="-8.127167">
        <ele>717.0</ele>
        <time>2010-08-26T16:41:57Z</time>
      </trkpt>
      <trkpt lat="41.813800" lon="-8.127150">
        <ele>718.0</ele>
        <time>2010-08-26T16:41:59Z</time>
      </trkpt>
      <trkpt lat="41.813833" lon="-8.127133">
        <ele>718.0</ele>
        <time>2010-08-26T16:42:01Z</time>
      </trkpt>
      <trkpt lat="41.813867" lon="-8.127133">
        <ele>718.0</ele>
        <time>2010-08-26T16:42:03Z</time>
      </trkpt>
      <trkpt lat="41.813900" lon="-8.127117">
        <ele>719.0</ele>
        <time>2010-08-26T16:42:05Z</time>
      </trkpt>
      <trkpt lat="41.813933" lon="-8.127100">
        <ele>719.0</ele>
        <time>2010-08-26T16:42:07Z</time>
      </trkpt>
      <trkpt lat="41.813967" lon="-8.127083">
        <ele>719.0</ele>
        <time>2010-08-26T16:42:09Z</time>
      </trkpt>
      <trkpt lat="41.814000" lon="-8.127067">
        <ele>720.0</ele>
        <time>2010-08-26T16:42:11Z</time>
      </trkpt>
      <trkpt lat="41.814033" lon="-8.127050">
        <ele>720.0</ele>
        <time>2010-08-26T16:42:13Z</time>
      </trkpt>
      <trkpt lat="41.814067" lon="-8.127033">
        <ele>721.0</ele>
        <time>2010-08-26T16:42:15Z</time>
      </trkpt>
      <trkpt lat="41.814100" lon="-8.127000">
        <ele>721.0</ele>
        <time>2010-08-26T16:42:26Z</time>
      </trkpt>
      <trkpt lat="41.814133" lon="-8.126983">
        <ele>721.0</ele>
        <time>2010-08-26T16:42:29Z</time>
      </trkpt>
      <trkpt lat="41.814150" lon="-8.126967">
        <ele>721.0</ele>
        <time>2010-08-26T16:42:30Z</time>
      </trkpt>
      <trkpt lat="41.814183" lon="-8.126967">
        <ele>721.0</ele>
        <time>2010-08-26T16:42:31Z</time>
      </trkpt>
      <trkpt lat="41.814217" lon="-8.126950">
        <ele>721.0</ele>
        <time>2010-08-26T16:42:32Z</time>
      </trkpt>
      <trkpt lat="41.814267" lon="-8.126933">
        <ele>720.0</ele>
        <time>2010-08-26T16:42:33Z</time>
      </trkpt>
      <trkpt lat="41.814300" lon="-8.126917">
        <ele>720.0</ele>
        <time>2010-08-26T16:42:34Z</time>
      </trkpt>
      <trkpt lat="41.814350" lon="-8.126900">
        <ele>720.0</ele>
        <time>2010-08-26T16:42:35Z</time>
      </trkpt>
      <trkpt lat="41.814417" lon="-8.126883">
        <ele>719.0</ele>
        <time>2010-08-26T16:42:36Z</time>
      </trkpt>
      <trkpt lat="41.814467" lon="-8.126850">
        <ele>719.0</ele>
        <time>2010-08-26T16:42:37Z</time>
      </trkpt>
      <trkpt lat="41.814533" lon="-8.126833">
        <ele>718.0</ele>
        <time>2010-08-26T16:42:38Z</time>
      </trkpt>
      <trkpt lat="41.814583" lon="-8.126800">
        <ele>718.0</ele>
        <time>2010-08-26T16:42:39Z</time>
      </trkpt>
      <trkpt lat="41.814667" lon="-8.126767">
        <ele>717.0</ele>
        <time>2010-08-26T16:42:40Z</time>
      </trkpt>
      <trkpt lat="41.814733" lon="-8.126733">
        <ele>717.0</ele>
        <time>2010-08-26T16:42:41Z</time>
      </trkpt>
      <trkpt lat="41.814800" lon="-8.126717">
        <ele>716.0</ele>
        <time>2010-08-26T16:42:42Z</time>
      </trkpt>
      <trkpt lat="41.814883" lon="-8.126700">
        <ele>716.0</ele>
        <time>2010-08-26T16:42:43Z</time>
      </trkpt>
      <trkpt lat="41.814967" lon="-8.126717">
        <ele>715.0</ele>
        <time>2010-08-26T16:42:44Z</time>
      </trkpt>
      <trkpt lat="41.815033" lon="-8.126717">
        <ele>715.0</ele>
        <time>2010-08-26T16:42:45Z</time>
      </trkpt>
      <trkpt lat="41.815117" lon="-8.126733">
        <ele>714.0</ele>
        <time>2010-08-26T16:42:46Z</time>
      </trkpt>
      <trkpt lat="41.815200" lon="-8.126750">
        <ele>713.0</ele>
        <time>2010-08-26T16:42:47Z</time>
      </trkpt>
      <trkpt lat="41.815283" lon="-8.126767">
        <ele>713.0</ele>
        <time>2010-08-26T16:42:48Z</time>
      </trkpt>
      <trkpt lat="41.815383" lon="-8.126767">
        <ele>712.0</ele>
        <time>2010-08-26T16:42:49Z</time>
      </trkpt>
      <trkpt lat="41.815467" lon="-8.126767">
        <ele>711.0</ele>
        <time>2010-08-26T16:42:50Z</time>
      </trkpt>
      <trkpt lat="41.815533" lon="-8.126733">
        <ele>710.0</ele>
        <time>2010-08-26T16:42:51Z</time>
      </trkpt>
      <trkpt lat="41.815583" lon="-8.126683">
        <ele>710.0</ele>
        <time>2010-08-26T16:42:52Z</time>
      </trkpt>
      <trkpt lat="41.815633" lon="-8.126617">
        <ele>709.0</ele>
        <time>2010-08-26T16:42:53Z</time>
      </trkpt>
      <trkpt lat="41.815667" lon="-8.126567">
        <ele>709.0</ele>
        <time>2010-08-26T16:42:54Z</time>
      </trkpt>
      <trkpt lat="41.815717" lon="-8.126550">
        <ele>709.0</ele>
        <time>2010-08-26T16:42:55Z</time>
      </trkpt>
      <trkpt lat="41.815750" lon="-8.126533">
        <ele>709.0</ele>
        <time>2010-08-26T16:42:56Z</time>
      </trkpt>
      <trkpt lat="41.815783" lon="-8.126517">
        <ele>709.0</ele>
        <time>2010-08-26T16:42:57Z</time>
      </trkpt>
      <trkpt lat="41.815833" lon="-8.126517">
        <ele>709.0</ele>
        <time>2010-08-26T16:42:58Z</time>
      </trkpt>
      <trkpt lat="41.815867" lon="-8.126517">
        <ele>709.0</ele>
        <time>2010-08-26T16:42:59Z</time>
      </trkpt>
      <trkpt lat="41.815883" lon="-8.126500">
        <ele>709.0</ele>
        <time>2010-08-26T16:43:00Z</time>
      </trkpt>
      <trkpt lat="41.815917" lon="-8.126483">
        <ele>709.0</ele>
        <time>2010-08-26T16:43:09Z</time>
      </trkpt>
      <trkpt lat="41.815950" lon="-8.126483">
        <ele>712.0</ele>
        <time>2010-08-26T16:43:44Z</time>
      </trkpt>
      <trkpt lat="41.816000" lon="-8.126467">
        <ele>713.0</ele>
        <time>2010-08-26T16:43:48Z</time>
      </trkpt>
      <trkpt lat="41.816017" lon="-8.126433">
        <ele>714.0</ele>
        <time>2010-08-26T16:43:50Z</time>
      </trkpt>
      <trkpt lat="41.816050" lon="-8.126417">
        <ele>714.0</ele>
        <time>2010-08-26T16:43:52Z</time>
      </trkpt>
      <trkpt lat="41.816067" lon="-8.126400">
        <ele>715.0</ele>
        <time>2010-08-26T16:43:54Z</time>
      </trkpt>
      <trkpt lat="41.816117" lon="-8.126383">
        <ele>716.0</ele>
        <time>2010-08-26T16:43:57Z</time>
      </trkpt>
      <trkpt lat="41.816150" lon="-8.126350">
        <ele>716.0</ele>
        <time>2010-08-26T16:44:00Z</time>
      </trkpt>
      <trkpt lat="41.816183" lon="-8.126317">
        <ele>717.0</ele>
        <time>2010-08-26T16:44:03Z</time>
      </trkpt>
      <trkpt lat="41.816217" lon="-8.126283">
        <ele>717.0</ele>
        <time>2010-08-26T16:44:06Z</time>
      </trkpt>
      <trkpt lat="41.816233" lon="-8.126233">
        <ele>718.0</ele>
        <time>2010-08-26T16:44:09Z</time>
      </trkpt>
      <trkpt lat="41.816250" lon="-8.126200">
        <ele>718.0</ele>
        <time>2010-08-26T16:44:12Z</time>
      </trkpt>
      <trkpt lat="41.816267" lon="-8.126150">
        <ele>719.0</ele>
        <time>2010-08-26T16:44:15Z</time>
      </trkpt>
      <trkpt lat="41.816300" lon="-8.126117">
        <ele>719.0</ele>
        <time>2010-08-26T16:44:42Z</time>
      </trkpt>
      <trkpt lat="41.816317" lon="-8.126050">
        <ele>719.0</ele>
        <time>2010-08-26T16:44:45Z</time>
      </trkpt>
      <trkpt lat="41.816333" lon="-8.126017">
        <ele>719.0</ele>
        <time>2010-08-26T16:44:47Z</time>
      </trkpt>
      <trkpt lat="41.816350" lon="-8.125983">
        <ele>718.0</ele>
        <time>2010-08-26T16:44:49Z</time>
      </trkpt>
      <trkpt lat="41.816367" lon="-8.125933">
        <ele>718.0</ele>
        <time>2010-08-26T16:44:51Z</time>
      </trkpt>
      <trkpt lat="41.816367" lon="-8.125900">
        <ele>718.0</ele>
        <time>2010-08-26T16:44:53Z</time>
      </trkpt>
      <trkpt lat="41.816383" lon="-8.125850">
        <ele>719.0</ele>
        <time>2010-08-26T16:44:55Z</time>
      </trkpt>
      <trkpt lat="41.816400" lon="-8.125800">
        <ele>719.0</ele>
        <time>2010-08-26T16:44:57Z</time>
      </trkpt>
      <trkpt lat="41.816417" lon="-8.125767">
        <ele>719.0</ele>
        <time>2010-08-26T16:44:59Z</time>
      </trkpt>
      <trkpt lat="41.816433" lon="-8.125733">
        <ele>719.0</ele>
        <time>2010-08-26T16:45:01Z</time>
      </trkpt>
      <trkpt lat="41.816450" lon="-8.125683">
        <ele>719.0</ele>
        <time>2010-08-26T16:45:03Z</time>
      </trkpt>
      <trkpt lat="41.816450" lon="-8.125633">
        <ele>719.0</ele>
        <time>2010-08-26T16:45:05Z</time>
      </trkpt>
      <trkpt lat="41.816467" lon="-8.125583">
        <ele>720.0</ele>
        <time>2010-08-26T16:45:07Z</time>
      </trkpt>
      <trkpt lat="41.816483" lon="-8.125550">
        <ele>720.0</ele>
        <time>2010-08-26T16:45:09Z</time>
      </trkpt>
      <trkpt lat="41.816483" lon="-8.125500">
        <ele>721.0</ele>
        <time>2010-08-26T16:45:11Z</time>
      </trkpt>
      <trkpt lat="41.816500" lon="-8.125467">
        <ele>721.0</ele>
        <time>2010-08-26T16:45:13Z</time>
      </trkpt>
      <trkpt lat="41.816500" lon="-8.125417">
        <ele>721.0</ele>
        <time>2010-08-26T16:45:15Z</time>
      </trkpt>
      <trkpt lat="41.816517" lon="-8.125383">
        <ele>722.0</ele>
        <time>2010-08-26T16:45:17Z</time>
      </trkpt>
      <trkpt lat="41.816500" lon="-8.125333">
        <ele>722.0</ele>
        <time>2010-08-26T16:45:19Z</time>
      </trkpt>
      <trkpt lat="41.816500" lon="-8.125283">
        <ele>723.0</ele>
        <time>2010-08-26T16:45:21Z</time>
      </trkpt>
      <trkpt lat="41.816500" lon="-8.125250">
        <ele>723.0</ele>
        <time>2010-08-26T16:45:23Z</time>
      </trkpt>
      <trkpt lat="41.816483" lon="-8.125200">
        <ele>723.0</ele>
        <time>2010-08-26T16:45:25Z</time>
      </trkpt>
      <trkpt lat="41.816467" lon="-8.125133">
        <ele>723.0</ele>
        <time>2010-08-26T16:45:27Z</time>
      </trkpt>
      <trkpt lat="41.816450" lon="-8.125100">
        <ele>723.0</ele>
        <time>2010-08-26T16:45:28Z</time>
      </trkpt>
      <trkpt lat="41.816450" lon="-8.125067">
        <ele>723.0</ele>
        <time>2010-08-26T16:45:29Z</time>
      </trkpt>
      <trkpt lat="41.816467" lon="-8.125033">
        <ele>723.0</ele>
        <time>2010-08-26T16:45:30Z</time>
      </trkpt>
      <trkpt lat="41.816483" lon="-8.125000">
        <ele>723.0</ele>
        <time>2010-08-26T16:45:31Z</time>
      </trkpt>
      <trkpt lat="41.816517" lon="-8.124983">
        <ele>723.0</ele>
        <time>2010-08-26T16:45:32Z</time>
      </trkpt>
      <trkpt lat="41.816550" lon="-8.124967">
        <ele>722.0</ele>
        <time>2010-08-26T16:45:33Z</time>
      </trkpt>
      <trkpt lat="41.816583" lon="-8.124933">
        <ele>722.0</ele>
        <time>2010-08-26T16:45:34Z</time>
      </trkpt>
      <trkpt lat="41.816600" lon="-8.124917">
        <ele>722.0</ele>
        <time>2010-08-26T16:45:35Z</time>
      </trkpt>
      <trkpt lat="41.816633" lon="-8.124900">
        <ele>722.0</ele>
        <time>2010-08-26T16:45:36Z</time>
      </trkpt>
      <trkpt lat="41.816667" lon="-8.124883">
        <ele>721.0</ele>
        <time>2010-08-26T16:45:37Z</time>
      </trkpt>
      <trkpt lat="41.816700" lon="-8.124883">
        <ele>721.0</ele>
        <time>2010-08-26T16:45:38Z</time>
      </trkpt>
      <trkpt lat="41.816733" lon="-8.124883">
        <ele>721.0</ele>
        <time>2010-08-26T16:45:39Z</time>
      </trkpt>
      <trkpt lat="41.816767" lon="-8.124867">
        <ele>721.0</ele>
        <time>2010-08-26T16:45:40Z</time>
      </trkpt>
      <trkpt lat="41.816800" lon="-8.124867">
        <ele>721.0</ele>
        <time>2010-08-26T16:45:41Z</time>
      </trkpt>
      <trkpt lat="41.816833" lon="-8.124867">
        <ele>721.0</ele>
        <time>2010-08-26T16:45:42Z</time>
      </trkpt>
      <trkpt lat="41.816850" lon="-8.124850">
        <ele>721.0</ele>
        <time>2010-08-26T16:45:43Z</time>
      </trkpt>
      <trkpt lat="41.816883" lon="-8.124850">
        <ele>721.0</ele>
        <time>2010-08-26T16:45:44Z</time>
      </trkpt>
      <trkpt lat="41.816917" lon="-8.124833">
        <ele>721.0</ele>
        <time>2010-08-26T16:45:45Z</time>
      </trkpt>
      <trkpt lat="41.816950" lon="-8.124817">
        <ele>721.0</ele>
        <time>2010-08-26T16:45:46Z</time>
      </trkpt>
      <trkpt lat="41.816967" lon="-8.124800">
        <ele>721.0</ele>
        <time>2010-08-26T16:45:47Z</time>
      </trkpt>
      <trkpt lat="41.817000" lon="-8.124767">
        <ele>721.0</ele>
        <time>2010-08-26T16:45:48Z</time>
      </trkpt>
      <trkpt lat="41.817017" lon="-8.124750">
        <ele>721.0</ele>
        <time>2010-08-26T16:45:49Z</time>
      </trkpt>
      <trkpt lat="41.817050" lon="-8.124733">
        <ele>721.0</ele>
        <time>2010-08-26T16:45:50Z</time>
      </trkpt>
      <trkpt lat="41.817083" lon="-8.124717">
        <ele>721.0</ele>
        <time>2010-08-26T16:45:51Z</time>
      </trkpt>
      <trkpt lat="41.817100" lon="-8.124700">
        <ele>722.0</ele>
        <time>2010-08-26T16:45:52Z</time>
      </trkpt>
      <trkpt lat="41.817117" lon="-8.124683">
        <ele>722.0</ele>
        <time>2010-08-26T16:45:53Z</time>
      </trkpt>
      <trkpt lat="41.817150" lon="-8.124667">
        <ele>722.0</ele>
        <time>2010-08-26T16:45:54Z</time>
      </trkpt>
      <trkpt lat="41.817167" lon="-8.124650">
        <ele>722.0</ele>
        <time>2010-08-26T16:45:55Z</time>
      </trkpt>
      <trkpt lat="41.817183" lon="-8.124633">
        <ele>722.0</ele>
        <time>2010-08-26T16:45:56Z</time>
      </trkpt>
      <trkpt lat="41.817217" lon="-8.124617">
        <ele>722.0</ele>
        <time>2010-08-26T16:45:57Z</time>
      </trkpt>
      <trkpt lat="41.817233" lon="-8.124583">
        <ele>722.0</ele>
        <time>2010-08-26T16:45:58Z</time>
      </trkpt>
      <trkpt lat="41.817250" lon="-8.124567">
        <ele>722.0</ele>
        <time>2010-08-26T16:45:59Z</time>
      </trkpt>
      <trkpt lat="41.817283" lon="-8.124550">
        <ele>723.0</ele>
        <time>2010-08-26T16:46:00Z</time>
      </trkpt>
      <trkpt lat="41.817300" lon="-8.124517">
        <ele>723.0</ele>
        <time>2010-08-26T16:46:01Z</time>
      </trkpt>
      <trkpt lat="41.817317" lon="-8.124500">
        <ele>723.0</ele>
        <time>2010-08-26T16:46:02Z</time>
      </trkpt>
      <trkpt lat="41.817333" lon="-8.124483">
        <ele>723.0</ele>
        <time>2010-08-26T16:46:03Z</time>
      </trkpt>
      <trkpt lat="41.817350" lon="-8.124450">
        <ele>723.0</ele>
        <time>2010-08-26T16:46:04Z</time>
      </trkpt>
      <trkpt lat="41.817367" lon="-8.124433">
        <ele>723.0</ele>
        <time>2010-08-26T16:46:05Z</time>
      </trkpt>
      <trkpt lat="41.817383" lon="-8.124417">
        <ele>723.0</ele>
        <time>2010-08-26T16:46:06Z</time>
      </trkpt>
      <trkpt lat="41.817400" lon="-8.124400">
        <ele>724.0</ele>
        <time>2010-08-26T16:46:07Z</time>
      </trkpt>
      <trkpt lat="41.817417" lon="-8.124383">
        <ele>724.0</ele>
        <time>2010-08-26T16:46:08Z</time>
      </trkpt>
      <trkpt lat="41.817433" lon="-8.124350">
        <ele>724.0</ele>
        <time>2010-08-26T16:46:09Z</time>
      </trkpt>
      <trkpt lat="41.817467" lon="-8.124333">
        <ele>724.0</ele>
        <time>2010-08-26T16:46:10Z</time>
      </trkpt>
      <trkpt lat="41.817483" lon="-8.124317">
        <ele>724.0</ele>
        <time>2010-08-26T16:46:11Z</time>
      </trkpt>
      <trkpt lat="41.817500" lon="-8.124300">
        <ele>725.0</ele>
        <time>2010-08-26T16:46:12Z</time>
      </trkpt>
      <trkpt lat="41.817517" lon="-8.124267">
        <ele>725.0</ele>
        <time>2010-08-26T16:46:13Z</time>
      </trkpt>
      <trkpt lat="41.817533" lon="-8.124250">
        <ele>725.0</ele>
        <time>2010-08-26T16:46:14Z</time>
      </trkpt>
      <trkpt lat="41.817550" lon="-8.124233">
        <ele>725.0</ele>
        <time>2010-08-26T16:46:15Z</time>
      </trkpt>
      <trkpt lat="41.817567" lon="-8.124200">
        <ele>725.0</ele>
        <time>2010-08-26T16:46:16Z</time>
      </trkpt>
      <trkpt lat="41.817583" lon="-8.124183">
        <ele>725.0</ele>
        <time>2010-08-26T16:46:17Z</time>
      </trkpt>
      <trkpt lat="41.817600" lon="-8.124150">
        <ele>726.0</ele>
        <time>2010-08-26T16:46:18Z</time>
      </trkpt>
      <trkpt lat="41.817617" lon="-8.124133">
        <ele>726.0</ele>
        <time>2010-08-26T16:46:19Z</time>
      </trkpt>
      <trkpt lat="41.817633" lon="-8.124100">
        <ele>726.0</ele>
        <time>2010-08-26T16:46:20Z</time>
      </trkpt>
      <trkpt lat="41.817650" lon="-8.124083">
        <ele>726.0</ele>
        <time>2010-08-26T16:46:21Z</time>
      </trkpt>
      <trkpt lat="41.817667" lon="-8.124050">
        <ele>726.0</ele>
        <time>2010-08-26T16:46:22Z</time>
      </trkpt>
      <trkpt lat="41.817683" lon="-8.124033">
        <ele>726.0</ele>
        <time>2010-08-26T16:46:23Z</time>
      </trkpt>
      <trkpt lat="41.817683" lon="-8.124000">
        <ele>726.0</ele>
        <time>2010-08-26T16:46:24Z</time>
      </trkpt>
      <trkpt lat="41.817700" lon="-8.123967">
        <ele>727.0</ele>
        <time>2010-08-26T16:46:25Z</time>
      </trkpt>
      <trkpt lat="41.817717" lon="-8.123950">
        <ele>727.0</ele>
        <time>2010-08-26T16:46:26Z</time>
      </trkpt>
      <trkpt lat="41.817733" lon="-8.123917">
        <ele>727.0</ele>
        <time>2010-08-26T16:46:27Z</time>
      </trkpt>
      <trkpt lat="41.817733" lon="-8.123900">
        <ele>727.0</ele>
        <time>2010-08-26T16:46:28Z</time>
      </trkpt>
      <trkpt lat="41.817767" lon="-8.123850">
        <ele>727.0</ele>
        <time>2010-08-26T16:46:30Z</time>
      </trkpt>
      <trkpt lat="41.817783" lon="-8.123817">
        <ele>727.0</ele>
        <time>2010-08-26T16:46:31Z</time>
      </trkpt>
      <trkpt lat="41.817817" lon="-8.123783">
        <ele>728.0</ele>
        <time>2010-08-26T16:46:33Z</time>
      </trkpt>
      <trkpt lat="41.817833" lon="-8.123767">
        <ele>728.0</ele>
        <time>2010-08-26T16:46:34Z</time>
      </trkpt>
      <trkpt lat="41.817850" lon="-8.123750">
        <ele>728.0</ele>
        <time>2010-08-26T16:46:35Z</time>
      </trkpt>
      <trkpt lat="41.817867" lon="-8.123717">
        <ele>728.0</ele>
        <time>2010-08-26T16:46:36Z</time>
      </trkpt>
      <trkpt lat="41.817900" lon="-8.123683">
        <ele>728.0</ele>
        <time>2010-08-26T16:46:38Z</time>
      </trkpt>
      <trkpt lat="41.817933" lon="-8.123650">
        <ele>728.0</ele>
        <time>2010-08-26T16:46:40Z</time>
      </trkpt>
      <trkpt lat="41.817967" lon="-8.123600">
        <ele>729.0</ele>
        <time>2010-08-26T16:46:42Z</time>
      </trkpt>
      <trkpt lat="41.818000" lon="-8.123567">
        <ele>729.0</ele>
        <time>2010-08-26T16:46:44Z</time>
      </trkpt>
      <trkpt lat="41.818017" lon="-8.123533">
        <ele>729.0</ele>
        <time>2010-08-26T16:46:45Z</time>
      </trkpt>
      <trkpt lat="41.818017" lon="-8.123517">
        <ele>729.0</ele>
        <time>2010-08-26T16:46:46Z</time>
      </trkpt>
      <trkpt lat="41.818050" lon="-8.123500">
        <ele>729.0</ele>
        <time>2010-08-26T16:46:47Z</time>
      </trkpt>
      <trkpt lat="41.818067" lon="-8.123467">
        <ele>729.0</ele>
        <time>2010-08-26T16:46:48Z</time>
      </trkpt>
      <trkpt lat="41.818083" lon="-8.123450">
        <ele>729.0</ele>
        <time>2010-08-26T16:46:49Z</time>
      </trkpt>
      <trkpt lat="41.818083" lon="-8.123433">
        <ele>729.0</ele>
        <time>2010-08-26T16:46:50Z</time>
      </trkpt>
      <trkpt lat="41.818100" lon="-8.123400">
        <ele>729.0</ele>
        <time>2010-08-26T16:46:51Z</time>
      </trkpt>
      <trkpt lat="41.818117" lon="-8.123383">
        <ele>730.0</ele>
        <time>2010-08-26T16:46:52Z</time>
      </trkpt>
      <trkpt lat="41.818150" lon="-8.123333">
        <ele>730.0</ele>
        <time>2010-08-26T16:46:54Z</time>
      </trkpt>
      <trkpt lat="41.818167" lon="-8.123283">
        <ele>730.0</ele>
        <time>2010-08-26T16:46:56Z</time>
      </trkpt>
      <trkpt lat="41.818200" lon="-8.123233">
        <ele>730.0</ele>
        <time>2010-08-26T16:46:58Z</time>
      </trkpt>
      <trkpt lat="41.818217" lon="-8.123183">
        <ele>730.0</ele>
        <time>2010-08-26T16:47:00Z</time>
      </trkpt>
      <trkpt lat="41.818233" lon="-8.123133">
        <ele>730.0</ele>
        <time>2010-08-26T16:47:02Z</time>
      </trkpt>
      <trkpt lat="41.818250" lon="-8.123083">
        <ele>731.0</ele>
        <time>2010-08-26T16:47:04Z</time>
      </trkpt>
      <trkpt lat="41.818283" lon="-8.123050">
        <ele>731.0</ele>
        <time>2010-08-26T16:47:06Z</time>
      </trkpt>
      <trkpt lat="41.818300" lon="-8.123000">
        <ele>732.0</ele>
        <time>2010-08-26T16:47:08Z</time>
      </trkpt>
      <trkpt lat="41.818317" lon="-8.122950">
        <ele>732.0</ele>
        <time>2010-08-26T16:47:10Z</time>
      </trkpt>
      <trkpt lat="41.818350" lon="-8.122917">
        <ele>732.0</ele>
        <time>2010-08-26T16:47:12Z</time>
      </trkpt>
      <trkpt lat="41.818383" lon="-8.122883">
        <ele>732.0</ele>
        <time>2010-08-26T16:47:14Z</time>
      </trkpt>
      <trkpt lat="41.818400" lon="-8.122867">
        <ele>732.0</ele>
        <time>2010-08-26T16:47:15Z</time>
      </trkpt>
      <trkpt lat="41.818433" lon="-8.122867">
        <ele>732.0</ele>
        <time>2010-08-26T16:47:16Z</time>
      </trkpt>
      <trkpt lat="41.818450" lon="-8.122850">
        <ele>732.0</ele>
        <time>2010-08-26T16:47:17Z</time>
      </trkpt>
      <trkpt lat="41.818483" lon="-8.122850">
        <ele>732.0</ele>
        <time>2010-08-26T16:47:18Z</time>
      </trkpt>
      <trkpt lat="41.818500" lon="-8.122833">
        <ele>732.0</ele>
        <time>2010-08-26T16:47:19Z</time>
      </trkpt>
      <trkpt lat="41.818533" lon="-8.122833">
        <ele>732.0</ele>
        <time>2010-08-26T16:47:20Z</time>
      </trkpt>
      <trkpt lat="41.818550" lon="-8.122817">
        <ele>732.0</ele>
        <time>2010-08-26T16:47:21Z</time>
      </trkpt>
      <trkpt lat="41.818583" lon="-8.122817">
        <ele>732.0</ele>
        <time>2010-08-26T16:47:22Z</time>
      </trkpt>
      <trkpt lat="41.818600" lon="-8.122800">
        <ele>732.0</ele>
        <time>2010-08-26T16:47:23Z</time>
      </trkpt>
      <trkpt lat="41.818633" lon="-8.122783">
        <ele>732.0</ele>
        <time>2010-08-26T16:47:24Z</time>
      </trkpt>
      <trkpt lat="41.818650" lon="-8.122767">
        <ele>732.0</ele>
        <time>2010-08-26T16:47:25Z</time>
      </trkpt>
      <trkpt lat="41.818667" lon="-8.122750">
        <ele>732.0</ele>
        <time>2010-08-26T16:47:26Z</time>
      </trkpt>
      <trkpt lat="41.818683" lon="-8.122733">
        <ele>732.0</ele>
        <time>2010-08-26T16:47:27Z</time>
      </trkpt>
      <trkpt lat="41.818717" lon="-8.122700">
        <ele>732.0</ele>
        <time>2010-08-26T16:47:28Z</time>
      </trkpt>
      <trkpt lat="41.818733" lon="-8.122683">
        <ele>732.0</ele>
        <time>2010-08-26T16:47:29Z</time>
      </trkpt>
      <trkpt lat="41.818750" lon="-8.122650">
        <ele>732.0</ele>
        <time>2010-08-26T16:47:30Z</time>
      </trkpt>
      <trkpt lat="41.818767" lon="-8.122633">
        <ele>732.0</ele>
        <time>2010-08-26T16:47:31Z</time>
      </trkpt>
      <trkpt lat="41.818800" lon="-8.122600">
        <ele>732.0</ele>
        <time>2010-08-26T16:47:32Z</time>
      </trkpt>
      <trkpt lat="41.818817" lon="-8.122567">
        <ele>732.0</ele>
        <time>2010-08-26T16:47:33Z</time>
      </trkpt>
      <trkpt lat="41.818833" lon="-8.122550">
        <ele>732.0</ele>
        <time>2010-08-26T16:47:34Z</time>
      </trkpt>
      <trkpt lat="41.818850" lon="-8.122517">
        <ele>732.0</ele>
        <time>2010-08-26T16:47:35Z</time>
      </trkpt>
      <trkpt lat="41.818867" lon="-8.122500">
        <ele>732.0</ele>
        <time>2010-08-26T16:47:36Z</time>
      </trkpt>
      <trkpt lat="41.818883" lon="-8.122467">
        <ele>732.0</ele>
        <time>2010-08-26T16:47:37Z</time>
      </trkpt>
      <trkpt lat="41.818900" lon="-8.122450">
        <ele>732.0</ele>
        <time>2010-08-26T16:47:38Z</time>
      </trkpt>
      <trkpt lat="41.818933" lon="-8.122417">
        <ele>732.0</ele>
        <time>2010-08-26T16:47:39Z</time>
      </trkpt>
      <trkpt lat="41.818950" lon="-8.122383">
        <ele>732.0</ele>
        <time>2010-08-26T16:47:40Z</time>
      </trkpt>
      <trkpt lat="41.818967" lon="-8.122367">
        <ele>732.0</ele>
        <time>2010-08-26T16:47:41Z</time>
      </trkpt>
      <trkpt lat="41.819000" lon="-8.122350">
        <ele>732.0</ele>
        <time>2010-08-26T16:47:42Z</time>
      </trkpt>
      <trkpt lat="41.819017" lon="-8.122333">
        <ele>732.0</ele>
        <time>2010-08-26T16:47:43Z</time>
      </trkpt>
      <trkpt lat="41.819033" lon="-8.122300">
        <ele>732.0</ele>
        <time>2010-08-26T16:47:44Z</time>
      </trkpt>
      <trkpt lat="41.819050" lon="-8.122283">
        <ele>732.0</ele>
        <time>2010-08-26T16:47:45Z</time>
      </trkpt>
      <trkpt lat="41.819083" lon="-8.122267">
        <ele>732.0</ele>
        <time>2010-08-26T16:47:46Z</time>
      </trkpt>
      <trkpt lat="41.819100" lon="-8.122250">
        <ele>733.0</ele>
        <time>2010-08-26T16:47:47Z</time>
      </trkpt>
      <trkpt lat="41.819117" lon="-8.122217">
        <ele>733.0</ele>
        <time>2010-08-26T16:47:48Z</time>
      </trkpt>
      <trkpt lat="41.819133" lon="-8.122200">
        <ele>733.0</ele>
        <time>2010-08-26T16:47:49Z</time>
      </trkpt>
      <trkpt lat="41.819167" lon="-8.122167">
        <ele>733.0</ele>
        <time>2010-08-26T16:47:50Z</time>
      </trkpt>
      <trkpt lat="41.819183" lon="-8.122150">
        <ele>734.0</ele>
        <time>2010-08-26T16:47:51Z</time>
      </trkpt>
      <trkpt lat="41.819200" lon="-8.122117">
        <ele>734.0</ele>
        <time>2010-08-26T16:47:52Z</time>
      </trkpt>
      <trkpt lat="41.819217" lon="-8.122100">
        <ele>734.0</ele>
        <time>2010-08-26T16:47:53Z</time>
      </trkpt>
      <trkpt lat="41.819233" lon="-8.122067">
        <ele>734.0</ele>
        <time>2010-08-26T16:47:54Z</time>
      </trkpt>
      <trkpt lat="41.819250" lon="-8.122033">
        <ele>734.0</ele>
        <time>2010-08-26T16:47:55Z</time>
      </trkpt>
      <trkpt lat="41.819267" lon="-8.122017">
        <ele>734.0</ele>
        <time>2010-08-26T16:47:56Z</time>
      </trkpt>
      <trkpt lat="41.819283" lon="-8.122000">
        <ele>735.0</ele>
        <time>2010-08-26T16:47:57Z</time>
      </trkpt>
      <trkpt lat="41.819300" lon="-8.121967">
        <ele>735.0</ele>
        <time>2010-08-26T16:47:58Z</time>
      </trkpt>
      <trkpt lat="41.819317" lon="-8.121950">
        <ele>735.0</ele>
        <time>2010-08-26T16:47:59Z</time>
      </trkpt>
      <trkpt lat="41.819333" lon="-8.121917">
        <ele>735.0</ele>
        <time>2010-08-26T16:48:00Z</time>
      </trkpt>
      <trkpt lat="41.819350" lon="-8.121900">
        <ele>735.0</ele>
        <time>2010-08-26T16:48:01Z</time>
      </trkpt>
      <trkpt lat="41.819367" lon="-8.121867">
        <ele>735.0</ele>
        <time>2010-08-26T16:48:02Z</time>
      </trkpt>
      <trkpt lat="41.819383" lon="-8.121850">
        <ele>736.0</ele>
        <time>2010-08-26T16:48:03Z</time>
      </trkpt>
      <trkpt lat="41.819400" lon="-8.121817">
        <ele>736.0</ele>
        <time>2010-08-26T16:48:04Z</time>
      </trkpt>
      <trkpt lat="41.819417" lon="-8.121783">
        <ele>736.0</ele>
        <time>2010-08-26T16:48:05Z</time>
      </trkpt>
      <trkpt lat="41.819433" lon="-8.121767">
        <ele>736.0</ele>
        <time>2010-08-26T16:48:06Z</time>
      </trkpt>
      <trkpt lat="41.819433" lon="-8.121733">
        <ele>737.0</ele>
        <time>2010-08-26T16:48:07Z</time>
      </trkpt>
      <trkpt lat="41.819450" lon="-8.121700">
        <ele>737.0</ele>
        <time>2010-08-26T16:48:08Z</time>
      </trkpt>
      <trkpt lat="41.819450" lon="-8.121667">
        <ele>737.0</ele>
        <time>2010-08-26T16:48:09Z</time>
      </trkpt>
      <trkpt lat="41.819467" lon="-8.121650">
        <ele>737.0</ele>
        <time>2010-08-26T16:48:10Z</time>
      </trkpt>
      <trkpt lat="41.819467" lon="-8.121617">
        <ele>738.0</ele>
        <time>2010-08-26T16:48:11Z</time>
      </trkpt>
      <trkpt lat="41.819483" lon="-8.121567">
        <ele>738.0</ele>
        <time>2010-08-26T16:48:13Z</time>
      </trkpt>
      <trkpt lat="41.819517" lon="-8.121517">
        <ele>738.0</ele>
        <time>2010-08-26T16:48:15Z</time>
      </trkpt>
      <trkpt lat="41.819517" lon="-8.121483">
        <ele>739.0</ele>
        <time>2010-08-26T16:48:16Z</time>
      </trkpt>
      <trkpt lat="41.819533" lon="-8.121467">
        <ele>739.0</ele>
        <time>2010-08-26T16:48:17Z</time>
      </trkpt>
      <trkpt lat="41.819550" lon="-8.121450">
        <ele>739.0</ele>
        <time>2010-08-26T16:48:18Z</time>
      </trkpt>
      <trkpt lat="41.819583" lon="-8.121417">
        <ele>739.0</ele>
        <time>2010-08-26T16:48:19Z</time>
      </trkpt>
      <trkpt lat="41.819600" lon="-8.121400">
        <ele>739.0</ele>
        <time>2010-08-26T16:48:20Z</time>
      </trkpt>
      <trkpt lat="41.819617" lon="-8.121383">
        <ele>739.0</ele>
        <time>2010-08-26T16:48:21Z</time>
      </trkpt>
      <trkpt lat="41.819633" lon="-8.121367">
        <ele>739.0</ele>
        <time>2010-08-26T16:48:22Z</time>
      </trkpt>
      <trkpt lat="41.819650" lon="-8.121350">
        <ele>740.0</ele>
        <time>2010-08-26T16:48:23Z</time>
      </trkpt>
      <trkpt lat="41.819667" lon="-8.121333">
        <ele>740.0</ele>
        <time>2010-08-26T16:48:24Z</time>
      </trkpt>
      <trkpt lat="41.819683" lon="-8.121317">
        <ele>740.0</ele>
        <time>2010-08-26T16:48:25Z</time>
      </trkpt>
      <trkpt lat="41.819717" lon="-8.121317">
        <ele>740.0</ele>
        <time>2010-08-26T16:48:26Z</time>
      </trkpt>
      <trkpt lat="41.819733" lon="-8.121300">
        <ele>740.0</ele>
        <time>2010-08-26T16:48:27Z</time>
      </trkpt>
      <trkpt lat="41.819750" lon="-8.121283">
        <ele>740.0</ele>
        <time>2010-08-26T16:48:28Z</time>
      </trkpt>
      <trkpt lat="41.819767" lon="-8.121267">
        <ele>741.0</ele>
        <time>2010-08-26T16:48:29Z</time>
      </trkpt>
      <trkpt lat="41.819800" lon="-8.121250">
        <ele>741.0</ele>
        <time>2010-08-26T16:48:30Z</time>
      </trkpt>
      <trkpt lat="41.819817" lon="-8.121233">
        <ele>741.0</ele>
        <time>2010-08-26T16:48:31Z</time>
      </trkpt>
      <trkpt lat="41.819833" lon="-8.121217">
        <ele>741.0</ele>
        <time>2010-08-26T16:48:32Z</time>
      </trkpt>
      <trkpt lat="41.819850" lon="-8.121200">
        <ele>741.0</ele>
        <time>2010-08-26T16:48:33Z</time>
      </trkpt>
      <trkpt lat="41.819867" lon="-8.121167">
        <ele>741.0</ele>
        <time>2010-08-26T16:48:34Z</time>
      </trkpt>
      <trkpt lat="41.819883" lon="-8.121133">
        <ele>740.0</ele>
        <time>2010-08-26T16:48:35Z</time>
      </trkpt>
      <trkpt lat="41.819883" lon="-8.121100">
        <ele>740.0</ele>
        <time>2010-08-26T16:48:36Z</time>
      </trkpt>
      <trkpt lat="41.819883" lon="-8.121067">
        <ele>740.0</ele>
        <time>2010-08-26T16:48:37Z</time>
      </trkpt>
      <trkpt lat="41.819883" lon="-8.121033">
        <ele>740.0</ele>
        <time>2010-08-26T16:48:38Z</time>
      </trkpt>
      <trkpt lat="41.819867" lon="-8.121000">
        <ele>740.0</ele>
        <time>2010-08-26T16:48:39Z</time>
      </trkpt>
      <trkpt lat="41.819850" lon="-8.120967">
        <ele>740.0</ele>
        <time>2010-08-26T16:48:40Z</time>
      </trkpt>
      <trkpt lat="41.819833" lon="-8.120933">
        <ele>740.0</ele>
        <time>2010-08-26T16:48:41Z</time>
      </trkpt>
      <trkpt lat="41.819833" lon="-8.120900">
        <ele>741.0</ele>
        <time>2010-08-26T16:48:42Z</time>
      </trkpt>
      <trkpt lat="41.819817" lon="-8.120867">
        <ele>741.0</ele>
        <time>2010-08-26T16:48:43Z</time>
      </trkpt>
      <trkpt lat="41.819817" lon="-8.120833">
        <ele>741.0</ele>
        <time>2010-08-26T16:48:44Z</time>
      </trkpt>
      <trkpt lat="41.819833" lon="-8.120800">
        <ele>741.0</ele>
        <time>2010-08-26T16:48:45Z</time>
      </trkpt>
      <trkpt lat="41.819833" lon="-8.120767">
        <ele>741.0</ele>
        <time>2010-08-26T16:48:46Z</time>
      </trkpt>
      <trkpt lat="41.819850" lon="-8.120733">
        <ele>741.0</ele>
        <time>2010-08-26T16:48:47Z</time>
      </trkpt>
      <trkpt lat="41.819883" lon="-8.120700">
        <ele>741.0</ele>
        <time>2010-08-26T16:48:48Z</time>
      </trkpt>
      <trkpt lat="41.819900" lon="-8.120683">
        <ele>741.0</ele>
        <time>2010-08-26T16:48:49Z</time>
      </trkpt>
      <trkpt lat="41.819917" lon="-8.120650">
        <ele>741.0</ele>
        <time>2010-08-26T16:48:50Z</time>
      </trkpt>
      <trkpt lat="41.819967" lon="-8.120633">
        <ele>741.0</ele>
        <time>2010-08-26T16:48:52Z</time>
      </trkpt>
      <trkpt lat="41.820000" lon="-8.120600">
        <ele>742.0</ele>
        <time>2010-08-26T16:48:54Z</time>
      </trkpt>
      <trkpt lat="41.820017" lon="-8.120583">
        <ele>742.0</ele>
        <time>2010-08-26T16:48:55Z</time>
      </trkpt>
      <trkpt lat="41.820033" lon="-8.120567">
        <ele>742.0</ele>
        <time>2010-08-26T16:48:56Z</time>
      </trkpt>
      <trkpt lat="41.820067" lon="-8.120550">
        <ele>743.0</ele>
        <time>2010-08-26T16:48:58Z</time>
      </trkpt>
      <trkpt lat="41.820117" lon="-8.120533">
        <ele>744.0</ele>
        <time>2010-08-26T16:49:00Z</time>
      </trkpt>
      <trkpt lat="41.820150" lon="-8.120517">
        <ele>744.0</ele>
        <time>2010-08-26T16:49:02Z</time>
      </trkpt>
      <trkpt lat="41.820200" lon="-8.120500">
        <ele>745.0</ele>
        <time>2010-08-26T16:49:04Z</time>
      </trkpt>
      <trkpt lat="41.820233" lon="-8.120467">
        <ele>746.0</ele>
        <time>2010-08-26T16:49:06Z</time>
      </trkpt>
      <trkpt lat="41.820250" lon="-8.120467">
        <ele>746.0</ele>
        <time>2010-08-26T16:49:07Z</time>
      </trkpt>
      <trkpt lat="41.820283" lon="-8.120450">
        <ele>746.0</ele>
        <time>2010-08-26T16:49:08Z</time>
      </trkpt>
      <trkpt lat="41.820300" lon="-8.120433">
        <ele>746.0</ele>
        <time>2010-08-26T16:49:09Z</time>
      </trkpt>
      <trkpt lat="41.820317" lon="-8.120417">
        <ele>746.0</ele>
        <time>2010-08-26T16:49:10Z</time>
      </trkpt>
      <trkpt lat="41.820333" lon="-8.120400">
        <ele>747.0</ele>
        <time>2010-08-26T16:49:11Z</time>
      </trkpt>
      <trkpt lat="41.820367" lon="-8.120383">
        <ele>747.0</ele>
        <time>2010-08-26T16:49:12Z</time>
      </trkpt>
      <trkpt lat="41.820383" lon="-8.120367">
        <ele>747.0</ele>
        <time>2010-08-26T16:49:13Z</time>
      </trkpt>
      <trkpt lat="41.820417" lon="-8.120333">
        <ele>747.0</ele>
        <time>2010-08-26T16:49:15Z</time>
      </trkpt>
      <trkpt lat="41.820450" lon="-8.120317">
        <ele>747.0</ele>
        <time>2010-08-26T16:49:17Z</time>
      </trkpt>
      <trkpt lat="41.820500" lon="-8.120283">
        <ele>747.0</ele>
        <time>2010-08-26T16:49:19Z</time>
      </trkpt>
      <trkpt lat="41.820533" lon="-8.120267">
        <ele>748.0</ele>
        <time>2010-08-26T16:49:21Z</time>
      </trkpt>
      <trkpt lat="41.820550" lon="-8.120250">
        <ele>748.0</ele>
        <time>2010-08-26T16:49:22Z</time>
      </trkpt>
      <trkpt lat="41.820600" lon="-8.120217">
        <ele>748.0</ele>
        <time>2010-08-26T16:49:24Z</time>
      </trkpt>
      <trkpt lat="41.820633" lon="-8.120200">
        <ele>748.0</ele>
        <time>2010-08-26T16:49:26Z</time>
      </trkpt>
      <trkpt lat="41.820667" lon="-8.120167">
        <ele>749.0</ele>
        <time>2010-08-26T16:49:28Z</time>
      </trkpt>
      <trkpt lat="41.820717" lon="-8.120150">
        <ele>749.0</ele>
        <time>2010-08-26T16:49:30Z</time>
      </trkpt>
      <trkpt lat="41.820750" lon="-8.120117">
        <ele>750.0</ele>
        <time>2010-08-26T16:49:32Z</time>
      </trkpt>
      <trkpt lat="41.820767" lon="-8.120100">
        <ele>750.0</ele>
        <time>2010-08-26T16:49:33Z</time>
      </trkpt>
      <trkpt lat="41.820783" lon="-8.120100">
        <ele>750.0</ele>
        <time>2010-08-26T16:49:34Z</time>
      </trkpt>
      <trkpt lat="41.820817" lon="-8.120083">
        <ele>750.0</ele>
        <time>2010-08-26T16:49:35Z</time>
      </trkpt>
      <trkpt lat="41.820833" lon="-8.120050">
        <ele>750.0</ele>
        <time>2010-08-26T16:49:36Z</time>
      </trkpt>
      <trkpt lat="41.820867" lon="-8.120017">
        <ele>751.0</ele>
        <time>2010-08-26T16:49:38Z</time>
      </trkpt>
      <trkpt lat="41.820900" lon="-8.119983">
        <ele>751.0</ele>
        <time>2010-08-26T16:49:40Z</time>
      </trkpt>
      <trkpt lat="41.820917" lon="-8.119950">
        <ele>751.0</ele>
        <time>2010-08-26T16:49:42Z</time>
      </trkpt>
      <trkpt lat="41.820950" lon="-8.119917">
        <ele>752.0</ele>
        <time>2010-08-26T16:49:44Z</time>
      </trkpt>
      <trkpt lat="41.820967" lon="-8.119867">
        <ele>752.0</ele>
        <time>2010-08-26T16:49:46Z</time>
      </trkpt>
      <trkpt lat="41.821000" lon="-8.119833">
        <ele>752.0</ele>
        <time>2010-08-26T16:49:48Z</time>
      </trkpt>
      <trkpt lat="41.821017" lon="-8.119817">
        <ele>751.0</ele>
        <time>2010-08-26T16:49:50Z</time>
      </trkpt>
      <trkpt lat="41.821050" lon="-8.119783">
        <ele>752.0</ele>
        <time>2010-08-26T16:49:52Z</time>
      </trkpt>
      <trkpt lat="41.821067" lon="-8.119750">
        <ele>752.0</ele>
        <time>2010-08-26T16:49:54Z</time>
      </trkpt>
      <trkpt lat="41.821100" lon="-8.119733">
        <ele>752.0</ele>
        <time>2010-08-26T16:49:56Z</time>
      </trkpt>
      <trkpt lat="41.821133" lon="-8.119700">
        <ele>752.0</ele>
        <time>2010-08-26T16:49:58Z</time>
      </trkpt>
      <trkpt lat="41.821167" lon="-8.119683">
        <ele>752.0</ele>
        <time>2010-08-26T16:50:00Z</time>
      </trkpt>
      <trkpt lat="41.821200" lon="-8.119667">
        <ele>752.0</ele>
        <time>2010-08-26T16:50:02Z</time>
      </trkpt>
      <trkpt lat="41.821233" lon="-8.119633">
        <ele>751.0</ele>
        <time>2010-08-26T16:50:04Z</time>
      </trkpt>
      <trkpt lat="41.821250" lon="-8.119617">
        <ele>751.0</ele>
        <time>2010-08-26T16:50:06Z</time>
      </trkpt>
      <trkpt lat="41.821283" lon="-8.119583">
        <ele>751.0</ele>
        <time>2010-08-26T16:50:08Z</time>
      </trkpt>
      <trkpt lat="41.821317" lon="-8.119567">
        <ele>751.0</ele>
        <time>2010-08-26T16:50:10Z</time>
      </trkpt>
      <trkpt lat="41.821350" lon="-8.119533">
        <ele>751.0</ele>
        <time>2010-08-26T16:50:12Z</time>
      </trkpt>
      <trkpt lat="41.821383" lon="-8.119500">
        <ele>752.0</ele>
        <time>2010-08-26T16:50:14Z</time>
      </trkpt>
      <trkpt lat="41.821400" lon="-8.119467">
        <ele>752.0</ele>
        <time>2010-08-26T16:50:16Z</time>
      </trkpt>
      <trkpt lat="41.821417" lon="-8.119433">
        <ele>752.0</ele>
        <time>2010-08-26T16:50:18Z</time>
      </trkpt>
      <trkpt lat="41.821450" lon="-8.119400">
        <ele>752.0</ele>
        <time>2010-08-26T16:50:20Z</time>
      </trkpt>
      <trkpt lat="41.821467" lon="-8.119367">
        <ele>753.0</ele>
        <time>2010-08-26T16:50:22Z</time>
      </trkpt>
      <trkpt lat="41.821500" lon="-8.119333">
        <ele>754.0</ele>
        <time>2010-08-26T16:50:25Z</time>
      </trkpt>
      <trkpt lat="41.821517" lon="-8.119283">
        <ele>755.0</ele>
        <time>2010-08-26T16:50:28Z</time>
      </trkpt>
      <trkpt lat="41.821550" lon="-8.119250">
        <ele>755.0</ele>
        <time>2010-08-26T16:50:30Z</time>
      </trkpt>
      <trkpt lat="41.821567" lon="-8.119200">
        <ele>755.0</ele>
        <time>2010-08-26T16:50:33Z</time>
      </trkpt>
      <trkpt lat="41.821600" lon="-8.119167">
        <ele>755.0</ele>
        <time>2010-08-26T16:50:36Z</time>
      </trkpt>
      <trkpt lat="41.821617" lon="-8.119133">
        <ele>756.0</ele>
        <time>2010-08-26T16:50:38Z</time>
      </trkpt>
      <trkpt lat="41.821633" lon="-8.119083">
        <ele>756.0</ele>
        <time>2010-08-26T16:50:40Z</time>
      </trkpt>
      <trkpt lat="41.821650" lon="-8.119067">
        <ele>756.0</ele>
        <time>2010-08-26T16:50:42Z</time>
      </trkpt>
      <trkpt lat="41.821667" lon="-8.119033">
        <ele>757.0</ele>
        <time>2010-08-26T16:50:44Z</time>
      </trkpt>
      <trkpt lat="41.821700" lon="-8.119000">
        <ele>757.0</ele>
        <time>2010-08-26T16:50:46Z</time>
      </trkpt>
      <trkpt lat="41.821717" lon="-8.118967">
        <ele>757.0</ele>
        <time>2010-08-26T16:50:48Z</time>
      </trkpt>
      <trkpt lat="41.821733" lon="-8.118933">
        <ele>757.0</ele>
        <time>2010-08-26T16:50:50Z</time>
      </trkpt>
      <trkpt lat="41.821767" lon="-8.118900">
        <ele>757.0</ele>
        <time>2010-08-26T16:50:52Z</time>
      </trkpt>
      <trkpt lat="41.821800" lon="-8.118883">
        <ele>758.0</ele>
        <time>2010-08-26T16:50:54Z</time>
      </trkpt>
      <trkpt lat="41.821817" lon="-8.118850">
        <ele>758.0</ele>
        <time>2010-08-26T16:50:56Z</time>
      </trkpt>
      <trkpt lat="41.821850" lon="-8.118833">
        <ele>758.0</ele>
        <time>2010-08-26T16:50:58Z</time>
      </trkpt>
      <trkpt lat="41.821867" lon="-8.118800">
        <ele>758.0</ele>
        <time>2010-08-26T16:51:00Z</time>
      </trkpt>
      <trkpt lat="41.821900" lon="-8.118767">
        <ele>758.0</ele>
        <time>2010-08-26T16:51:02Z</time>
      </trkpt>
      <trkpt lat="41.821933" lon="-8.118750">
        <ele>759.0</ele>
        <time>2010-08-26T16:51:04Z</time>
      </trkpt>
      <trkpt lat="41.821950" lon="-8.118733">
        <ele>759.0</ele>
        <time>2010-08-26T16:51:06Z</time>
      </trkpt>
      <trkpt lat="41.821983" lon="-8.118717">
        <ele>759.0</ele>
        <time>2010-08-26T16:51:08Z</time>
      </trkpt>
      <trkpt lat="41.822017" lon="-8.118700">
        <ele>760.0</ele>
        <time>2010-08-26T16:51:10Z</time>
      </trkpt>
      <trkpt lat="41.822050" lon="-8.118683">
        <ele>760.0</ele>
        <time>2010-08-26T16:51:12Z</time>
      </trkpt>
      <trkpt lat="41.822083" lon="-8.118667">
        <ele>760.0</ele>
        <time>2010-08-26T16:51:14Z</time>
      </trkpt>
      <trkpt lat="41.822117" lon="-8.118633">
        <ele>761.0</ele>
        <time>2010-08-26T16:51:16Z</time>
      </trkpt>
      <trkpt lat="41.822133" lon="-8.118617">
        <ele>761.0</ele>
        <time>2010-08-26T16:51:18Z</time>
      </trkpt>
      <trkpt lat="41.822167" lon="-8.118583">
        <ele>761.0</ele>
        <time>2010-08-26T16:51:20Z</time>
      </trkpt>
      <trkpt lat="41.822183" lon="-8.118567">
        <ele>762.0</ele>
        <time>2010-08-26T16:51:22Z</time>
      </trkpt>
      <trkpt lat="41.822217" lon="-8.118533">
        <ele>762.0</ele>
        <time>2010-08-26T16:51:24Z</time>
      </trkpt>
      <trkpt lat="41.822233" lon="-8.118500">
        <ele>762.0</ele>
        <time>2010-08-26T16:51:26Z</time>
      </trkpt>
      <trkpt lat="41.822267" lon="-8.118483">
        <ele>762.0</ele>
        <time>2010-08-26T16:51:28Z</time>
      </trkpt>
      <trkpt lat="41.822283" lon="-8.118450">
        <ele>762.0</ele>
        <time>2010-08-26T16:51:30Z</time>
      </trkpt>
      <trkpt lat="41.822300" lon="-8.118417">
        <ele>763.0</ele>
        <time>2010-08-26T16:51:32Z</time>
      </trkpt>
      <trkpt lat="41.822333" lon="-8.118400">
        <ele>763.0</ele>
        <time>2010-08-26T16:51:34Z</time>
      </trkpt>
      <trkpt lat="41.822350" lon="-8.118367">
        <ele>763.0</ele>
        <time>2010-08-26T16:51:36Z</time>
      </trkpt>
      <trkpt lat="41.822383" lon="-8.118350">
        <ele>764.0</ele>
        <time>2010-08-26T16:51:38Z</time>
      </trkpt>
      <trkpt lat="41.822417" lon="-8.118317">
        <ele>764.0</ele>
        <time>2010-08-26T16:51:40Z</time>
      </trkpt>
      <trkpt lat="41.822450" lon="-8.118300">
        <ele>764.0</ele>
        <time>2010-08-26T16:51:42Z</time>
      </trkpt>
      <trkpt lat="41.822467" lon="-8.118283">
        <ele>764.0</ele>
        <time>2010-08-26T16:51:44Z</time>
      </trkpt>
      <trkpt lat="41.822500" lon="-8.118267">
        <ele>765.0</ele>
        <time>2010-08-26T16:51:46Z</time>
      </trkpt>
      <trkpt lat="41.822533" lon="-8.118233">
        <ele>765.0</ele>
        <time>2010-08-26T16:51:48Z</time>
      </trkpt>
      <trkpt lat="41.822567" lon="-8.118217">
        <ele>765.0</ele>
        <time>2010-08-26T16:51:50Z</time>
      </trkpt>
      <trkpt lat="41.822600" lon="-8.118183">
        <ele>765.0</ele>
        <time>2010-08-26T16:51:52Z</time>
      </trkpt>
      <trkpt lat="41.822617" lon="-8.118167">
        <ele>766.0</ele>
        <time>2010-08-26T16:51:54Z</time>
      </trkpt>
      <trkpt lat="41.822650" lon="-8.118133">
        <ele>766.0</ele>
        <time>2010-08-26T16:51:56Z</time>
      </trkpt>
      <trkpt lat="41.822683" lon="-8.118100">
        <ele>766.0</ele>
        <time>2010-08-26T16:51:58Z</time>
      </trkpt>
      <trkpt lat="41.822717" lon="-8.118067">
        <ele>767.0</ele>
        <time>2010-08-26T16:52:00Z</time>
      </trkpt>
      <trkpt lat="41.822750" lon="-8.118033">
        <ele>767.0</ele>
        <time>2010-08-26T16:52:02Z</time>
      </trkpt>
      <trkpt lat="41.822783" lon="-8.118000">
        <ele>767.0</ele>
        <time>2010-08-26T16:52:04Z</time>
      </trkpt>
      <trkpt lat="41.822817" lon="-8.117967">
        <ele>767.0</ele>
        <time>2010-08-26T16:52:06Z</time>
      </trkpt>
      <trkpt lat="41.822850" lon="-8.117933">
        <ele>768.0</ele>
        <time>2010-08-26T16:52:08Z</time>
      </trkpt>
      <trkpt lat="41.822883" lon="-8.117900">
        <ele>768.0</ele>
        <time>2010-08-26T16:52:10Z</time>
      </trkpt>
      <trkpt lat="41.822933" lon="-8.117867">
        <ele>768.0</ele>
        <time>2010-08-26T16:52:12Z</time>
      </trkpt>
      <trkpt lat="41.822950" lon="-8.117850">
        <ele>768.0</ele>
        <time>2010-08-26T16:52:13Z</time>
      </trkpt>
      <trkpt lat="41.822967" lon="-8.117833">
        <ele>768.0</ele>
        <time>2010-08-26T16:52:14Z</time>
      </trkpt>
      <trkpt lat="41.822983" lon="-8.117817">
        <ele>768.0</ele>
        <time>2010-08-26T16:52:15Z</time>
      </trkpt>
      <trkpt lat="41.823000" lon="-8.117800">
        <ele>768.0</ele>
        <time>2010-08-26T16:52:16Z</time>
      </trkpt>
      <trkpt lat="41.823017" lon="-8.117767">
        <ele>769.0</ele>
        <time>2010-08-26T16:52:17Z</time>
      </trkpt>
      <trkpt lat="41.823050" lon="-8.117733">
        <ele>769.0</ele>
        <time>2010-08-26T16:52:19Z</time>
      </trkpt>
      <trkpt lat="41.823067" lon="-8.117717">
        <ele>769.0</ele>
        <time>2010-08-26T16:52:20Z</time>
      </trkpt>
      <trkpt lat="41.823083" lon="-8.117700">
        <ele>769.0</ele>
        <time>2010-08-26T16:52:21Z</time>
      </trkpt>
      <trkpt lat="41.823100" lon="-8.117667">
        <ele>769.0</ele>
        <time>2010-08-26T16:52:22Z</time>
      </trkpt>
      <trkpt lat="41.823117" lon="-8.117650">
        <ele>769.0</ele>
        <time>2010-08-26T16:52:23Z</time>
      </trkpt>
      <trkpt lat="41.823133" lon="-8.117617">
        <ele>769.0</ele>
        <time>2010-08-26T16:52:24Z</time>
      </trkpt>
      <trkpt lat="41.823150" lon="-8.117600">
        <ele>769.0</ele>
        <time>2010-08-26T16:52:25Z</time>
      </trkpt>
      <trkpt lat="41.823167" lon="-8.117567">
        <ele>770.0</ele>
        <time>2010-08-26T16:52:26Z</time>
      </trkpt>
      <trkpt lat="41.823183" lon="-8.117550">
        <ele>770.0</ele>
        <time>2010-08-26T16:52:27Z</time>
      </trkpt>
      <trkpt lat="41.823200" lon="-8.117533">
        <ele>770.0</ele>
        <time>2010-08-26T16:52:28Z</time>
      </trkpt>
      <trkpt lat="41.823200" lon="-8.117500">
        <ele>770.0</ele>
        <time>2010-08-26T16:52:29Z</time>
      </trkpt>
      <trkpt lat="41.823217" lon="-8.117467">
        <ele>770.0</ele>
        <time>2010-08-26T16:52:30Z</time>
      </trkpt>
      <trkpt lat="41.823217" lon="-8.117417">
        <ele>770.0</ele>
        <time>2010-08-26T16:52:32Z</time>
      </trkpt>
      <trkpt lat="41.823200" lon="-8.117367">
        <ele>771.0</ele>
        <time>2010-08-26T16:52:34Z</time>
      </trkpt>
      <trkpt lat="41.823183" lon="-8.117317">
        <ele>772.0</ele>
        <time>2010-08-26T16:52:37Z</time>
      </trkpt>
      <trkpt lat="41.823150" lon="-8.117283">
        <ele>773.0</ele>
        <time>2010-08-26T16:52:40Z</time>
      </trkpt>
      <trkpt lat="41.823117" lon="-8.117267">
        <ele>774.0</ele>
        <time>2010-08-26T16:52:42Z</time>
      </trkpt>
      <trkpt lat="41.823083" lon="-8.117250">
        <ele>775.0</ele>
        <time>2010-08-26T16:52:44Z</time>
      </trkpt>
      <trkpt lat="41.823067" lon="-8.117233">
        <ele>776.0</ele>
        <time>2010-08-26T16:52:46Z</time>
      </trkpt>
      <trkpt lat="41.823017" lon="-8.117233">
        <ele>777.0</ele>
        <time>2010-08-26T16:52:48Z</time>
      </trkpt>
      <trkpt lat="41.822983" lon="-8.117233">
        <ele>778.0</ele>
        <time>2010-08-26T16:52:50Z</time>
      </trkpt>
      <trkpt lat="41.822950" lon="-8.117233">
        <ele>779.0</ele>
        <time>2010-08-26T16:52:52Z</time>
      </trkpt>
      <trkpt lat="41.822933" lon="-8.117233">
        <ele>779.0</ele>
        <time>2010-08-26T16:52:54Z</time>
      </trkpt>
      <trkpt lat="41.822883" lon="-8.117217">
        <ele>780.0</ele>
        <time>2010-08-26T16:52:57Z</time>
      </trkpt>
      <trkpt lat="41.822867" lon="-8.117200">
        <ele>781.0</ele>
        <time>2010-08-26T16:52:59Z</time>
      </trkpt>
      <trkpt lat="41.822833" lon="-8.117183">
        <ele>782.0</ele>
        <time>2010-08-26T16:53:01Z</time>
      </trkpt>
      <trkpt lat="41.822800" lon="-8.117167">
        <ele>782.0</ele>
        <time>2010-08-26T16:53:03Z</time>
      </trkpt>
      <trkpt lat="41.822767" lon="-8.117150">
        <ele>783.0</ele>
        <time>2010-08-26T16:53:06Z</time>
      </trkpt>
      <trkpt lat="41.822717" lon="-8.117117">
        <ele>784.0</ele>
        <time>2010-08-26T16:53:09Z</time>
      </trkpt>
      <trkpt lat="41.822683" lon="-8.117083">
        <ele>785.0</ele>
        <time>2010-08-26T16:53:12Z</time>
      </trkpt>
      <trkpt lat="41.822667" lon="-8.117050">
        <ele>785.0</ele>
        <time>2010-08-26T16:53:15Z</time>
      </trkpt>
      <trkpt lat="41.822650" lon="-8.117000">
        <ele>786.0</ele>
        <time>2010-08-26T16:53:18Z</time>
      </trkpt>
      <trkpt lat="41.822633" lon="-8.116967">
        <ele>786.0</ele>
        <time>2010-08-26T16:53:20Z</time>
      </trkpt>
      <trkpt lat="41.822650" lon="-8.116917">
        <ele>786.0</ele>
        <time>2010-08-26T16:53:22Z</time>
      </trkpt>
      <trkpt lat="41.822650" lon="-8.116883">
        <ele>786.0</ele>
        <time>2010-08-26T16:53:24Z</time>
      </trkpt>
      <trkpt lat="41.822667" lon="-8.116833">
        <ele>786.0</ele>
        <time>2010-08-26T16:53:26Z</time>
      </trkpt>
      <trkpt lat="41.822700" lon="-8.116800">
        <ele>786.0</ele>
        <time>2010-08-26T16:53:28Z</time>
      </trkpt>
      <trkpt lat="41.822733" lon="-8.116767">
        <ele>786.0</ele>
        <time>2010-08-26T16:53:31Z</time>
      </trkpt>
      <trkpt lat="41.822767" lon="-8.116750">
        <ele>786.0</ele>
        <time>2010-08-26T16:53:34Z</time>
      </trkpt>
      <trkpt lat="41.822817" lon="-8.116733">
        <ele>786.0</ele>
        <time>2010-08-26T16:53:36Z</time>
      </trkpt>
      <trkpt lat="41.822850" lon="-8.116717">
        <ele>786.0</ele>
        <time>2010-08-26T16:53:38Z</time>
      </trkpt>
      <trkpt lat="41.822883" lon="-8.116683">
        <ele>785.0</ele>
        <time>2010-08-26T16:53:40Z</time>
      </trkpt>
      <trkpt lat="41.822917" lon="-8.116667">
        <ele>785.0</ele>
        <time>2010-08-26T16:53:42Z</time>
      </trkpt>
      <trkpt lat="41.822950" lon="-8.116633">
        <ele>785.0</ele>
        <time>2010-08-26T16:53:44Z</time>
      </trkpt>
      <trkpt lat="41.822983" lon="-8.116600">
        <ele>786.0</ele>
        <time>2010-08-26T16:53:46Z</time>
      </trkpt>
      <trkpt lat="41.823000" lon="-8.116567">
        <ele>786.0</ele>
        <time>2010-08-26T16:53:48Z</time>
      </trkpt>
      <trkpt lat="41.823017" lon="-8.116533">
        <ele>786.0</ele>
        <time>2010-08-26T16:53:50Z</time>
      </trkpt>
      <trkpt lat="41.823050" lon="-8.116483">
        <ele>787.0</ele>
        <time>2010-08-26T16:53:52Z</time>
      </trkpt>
      <trkpt lat="41.823067" lon="-8.116450">
        <ele>787.0</ele>
        <time>2010-08-26T16:53:54Z</time>
      </trkpt>
      <trkpt lat="41.823083" lon="-8.116400">
        <ele>788.0</ele>
        <time>2010-08-26T16:53:56Z</time>
      </trkpt>
      <trkpt lat="41.823100" lon="-8.116367">
        <ele>788.0</ele>
        <time>2010-08-26T16:53:58Z</time>
      </trkpt>
      <trkpt lat="41.823117" lon="-8.116317">
        <ele>788.0</ele>
        <time>2010-08-26T16:54:00Z</time>
      </trkpt>
      <trkpt lat="41.823133" lon="-8.116283">
        <ele>789.0</ele>
        <time>2010-08-26T16:54:02Z</time>
      </trkpt>
      <trkpt lat="41.823150" lon="-8.116233">
        <ele>789.0</ele>
        <time>2010-08-26T16:54:04Z</time>
      </trkpt>
      <trkpt lat="41.823183" lon="-8.116217">
        <ele>789.0</ele>
        <time>2010-08-26T16:54:06Z</time>
      </trkpt>
      <trkpt lat="41.823217" lon="-8.116183">
        <ele>790.0</ele>
        <time>2010-08-26T16:54:08Z</time>
      </trkpt>
      <trkpt lat="41.823233" lon="-8.116150">
        <ele>790.0</ele>
        <time>2010-08-26T16:54:10Z</time>
      </trkpt>
      <trkpt lat="41.823267" lon="-8.116117">
        <ele>790.0</ele>
        <time>2010-08-26T16:54:12Z</time>
      </trkpt>
      <trkpt lat="41.823300" lon="-8.116100">
        <ele>790.0</ele>
        <time>2010-08-26T16:54:14Z</time>
      </trkpt>
      <trkpt lat="41.823350" lon="-8.116083">
        <ele>790.0</ele>
        <time>2010-08-26T16:54:16Z</time>
      </trkpt>
      <trkpt lat="41.823383" lon="-8.116083">
        <ele>790.0</ele>
        <time>2010-08-26T16:54:18Z</time>
      </trkpt>
      <trkpt lat="41.823417" lon="-8.116067">
        <ele>791.0</ele>
        <time>2010-08-26T16:54:20Z</time>
      </trkpt>
      <trkpt lat="41.823450" lon="-8.116067">
        <ele>791.0</ele>
        <time>2010-08-26T16:54:22Z</time>
      </trkpt>
      <trkpt lat="41.823483" lon="-8.116050">
        <ele>791.0</ele>
        <time>2010-08-26T16:54:24Z</time>
      </trkpt>
      <trkpt lat="41.823517" lon="-8.116050">
        <ele>792.0</ele>
        <time>2010-08-26T16:54:26Z</time>
      </trkpt>
      <trkpt lat="41.823550" lon="-8.116050">
        <ele>792.0</ele>
        <time>2010-08-26T16:54:28Z</time>
      </trkpt>
      <trkpt lat="41.823583" lon="-8.116033">
        <ele>792.0</ele>
        <time>2010-08-26T16:54:30Z</time>
      </trkpt>
      <trkpt lat="41.823617" lon="-8.116033">
        <ele>793.0</ele>
        <time>2010-08-26T16:54:32Z</time>
      </trkpt>
      <trkpt lat="41.823650" lon="-8.116017">
        <ele>794.0</ele>
        <time>2010-08-26T16:54:35Z</time>
      </trkpt>
      <trkpt lat="41.823683" lon="-8.116017">
        <ele>794.0</ele>
        <time>2010-08-26T16:54:37Z</time>
      </trkpt>
      <trkpt lat="41.823717" lon="-8.116000">
        <ele>795.0</ele>
        <time>2010-08-26T16:54:39Z</time>
      </trkpt>
      <trkpt lat="41.823750" lon="-8.115983">
        <ele>795.0</ele>
        <time>2010-08-26T16:54:41Z</time>
      </trkpt>
      <trkpt lat="41.823783" lon="-8.115983">
        <ele>796.0</ele>
        <time>2010-08-26T16:54:43Z</time>
      </trkpt>
      <trkpt lat="41.823817" lon="-8.115967">
        <ele>796.0</ele>
        <time>2010-08-26T16:54:45Z</time>
      </trkpt>
      <trkpt lat="41.823850" lon="-8.115967">
        <ele>796.0</ele>
        <time>2010-08-26T16:54:47Z</time>
      </trkpt>
      <trkpt lat="41.823883" lon="-8.115950">
        <ele>797.0</ele>
        <time>2010-08-26T16:54:49Z</time>
      </trkpt>
      <trkpt lat="41.823917" lon="-8.115933">
        <ele>797.0</ele>
        <time>2010-08-26T16:54:51Z</time>
      </trkpt>
      <trkpt lat="41.823950" lon="-8.115917">
        <ele>798.0</ele>
        <time>2010-08-26T16:54:53Z</time>
      </trkpt>
      <trkpt lat="41.823983" lon="-8.115917">
        <ele>798.0</ele>
        <time>2010-08-26T16:54:55Z</time>
      </trkpt>
      <trkpt lat="41.824017" lon="-8.115900">
        <ele>798.0</ele>
        <time>2010-08-26T16:54:57Z</time>
      </trkpt>
      <trkpt lat="41.824050" lon="-8.115883">
        <ele>799.0</ele>
        <time>2010-08-26T16:54:59Z</time>
      </trkpt>
      <trkpt lat="41.824083" lon="-8.115867">
        <ele>799.0</ele>
        <time>2010-08-26T16:55:01Z</time>
      </trkpt>
      <trkpt lat="41.824117" lon="-8.115850">
        <ele>800.0</ele>
        <time>2010-08-26T16:55:03Z</time>
      </trkpt>
      <trkpt lat="41.824150" lon="-8.115817">
        <ele>800.0</ele>
        <time>2010-08-26T16:55:05Z</time>
      </trkpt>
      <trkpt lat="41.824183" lon="-8.115783">
        <ele>800.0</ele>
        <time>2010-08-26T16:55:07Z</time>
      </trkpt>
      <trkpt lat="41.824200" lon="-8.115750">
        <ele>800.0</ele>
        <time>2010-08-26T16:55:09Z</time>
      </trkpt>
      <trkpt lat="41.824233" lon="-8.115717">
        <ele>800.0</ele>
        <time>2010-08-26T16:55:11Z</time>
      </trkpt>
      <trkpt lat="41.824267" lon="-8.115667">
        <ele>799.0</ele>
        <time>2010-08-26T16:55:13Z</time>
      </trkpt>
      <trkpt lat="41.824283" lon="-8.115633">
        <ele>799.0</ele>
        <time>2010-08-26T16:55:15Z</time>
      </trkpt>
      <trkpt lat="41.824300" lon="-8.115583">
        <ele>799.0</ele>
        <time>2010-08-26T16:55:17Z</time>
      </trkpt>
      <trkpt lat="41.824317" lon="-8.115550">
        <ele>798.0</ele>
        <time>2010-08-26T16:55:19Z</time>
      </trkpt>
      <trkpt lat="41.824350" lon="-8.115500">
        <ele>798.0</ele>
        <time>2010-08-26T16:55:21Z</time>
      </trkpt>
      <trkpt lat="41.824367" lon="-8.115467">
        <ele>798.0</ele>
        <time>2010-08-26T16:55:23Z</time>
      </trkpt>
      <trkpt lat="41.824383" lon="-8.115417">
        <ele>798.0</ele>
        <time>2010-08-26T16:55:25Z</time>
      </trkpt>
      <trkpt lat="41.824400" lon="-8.115367">
        <ele>797.0</ele>
        <time>2010-08-26T16:55:27Z</time>
      </trkpt>
      <trkpt lat="41.824417" lon="-8.115333">
        <ele>797.0</ele>
        <time>2010-08-26T16:55:29Z</time>
      </trkpt>
      <trkpt lat="41.824450" lon="-8.115283">
        <ele>793.0</ele>
        <time>2010-08-26T16:55:51Z</time>
      </trkpt>
      <trkpt lat="41.824467" lon="-8.115250">
        <ele>792.0</ele>
        <time>2010-08-26T16:56:04Z</time>
      </trkpt>
      <trkpt lat="41.824483" lon="-8.115217">
        <ele>792.0</ele>
        <time>2010-08-26T16:56:06Z</time>
      </trkpt>
      <trkpt lat="41.824500" lon="-8.115167">
        <ele>792.0</ele>
        <time>2010-08-26T16:56:08Z</time>
      </trkpt>
      <trkpt lat="41.824500" lon="-8.115117">
        <ele>792.0</ele>
        <time>2010-08-26T16:56:10Z</time>
      </trkpt>
      <trkpt lat="41.824517" lon="-8.115083">
        <ele>792.0</ele>
        <time>2010-08-26T16:56:12Z</time>
      </trkpt>
      <trkpt lat="41.824517" lon="-8.115033">
        <ele>792.0</ele>
        <time>2010-08-26T16:56:14Z</time>
      </trkpt>
      <trkpt lat="41.824533" lon="-8.114983">
        <ele>792.0</ele>
        <time>2010-08-26T16:56:16Z</time>
      </trkpt>
      <trkpt lat="41.824550" lon="-8.114950">
        <ele>792.0</ele>
        <time>2010-08-26T16:56:18Z</time>
      </trkpt>
      <trkpt lat="41.824583" lon="-8.114900">
        <ele>792.0</ele>
        <time>2010-08-26T16:56:20Z</time>
      </trkpt>
      <trkpt lat="41.824600" lon="-8.114867">
        <ele>792.0</ele>
        <time>2010-08-26T16:56:22Z</time>
      </trkpt>
      <trkpt lat="41.824617" lon="-8.114817">
        <ele>792.0</ele>
        <time>2010-08-26T16:56:24Z</time>
      </trkpt>
      <trkpt lat="41.824650" lon="-8.114783">
        <ele>792.0</ele>
        <time>2010-08-26T16:56:26Z</time>
      </trkpt>
      <trkpt lat="41.824667" lon="-8.114750">
        <ele>793.0</ele>
        <time>2010-08-26T16:56:28Z</time>
      </trkpt>
      <trkpt lat="41.824700" lon="-8.114717">
        <ele>793.0</ele>
        <time>2010-08-26T16:56:30Z</time>
      </trkpt>
      <trkpt lat="41.824717" lon="-8.114683">
        <ele>793.0</ele>
        <time>2010-08-26T16:56:32Z</time>
      </trkpt>
      <trkpt lat="41.824750" lon="-8.114633">
        <ele>793.0</ele>
        <time>2010-08-26T16:56:34Z</time>
      </trkpt>
      <trkpt lat="41.824767" lon="-8.114600">
        <ele>794.0</ele>
        <time>2010-08-26T16:56:36Z</time>
      </trkpt>
      <trkpt lat="41.824783" lon="-8.114550">
        <ele>794.0</ele>
        <time>2010-08-26T16:56:38Z</time>
      </trkpt>
      <trkpt lat="41.824800" lon="-8.114500">
        <ele>794.0</ele>
        <time>2010-08-26T16:56:40Z</time>
      </trkpt>
      <trkpt lat="41.824800" lon="-8.114450">
        <ele>794.0</ele>
        <time>2010-08-26T16:56:42Z</time>
      </trkpt>
      <trkpt lat="41.824817" lon="-8.114400">
        <ele>794.0</ele>
        <time>2010-08-26T16:56:44Z</time>
      </trkpt>
      <trkpt lat="41.824800" lon="-8.114350">
        <ele>795.0</ele>
        <time>2010-08-26T16:56:46Z</time>
      </trkpt>
      <trkpt lat="41.824800" lon="-8.114317">
        <ele>795.0</ele>
        <time>2010-08-26T16:56:47Z</time>
      </trkpt>
      <trkpt lat="41.824800" lon="-8.114267">
        <ele>796.0</ele>
        <time>2010-08-26T16:56:49Z</time>
      </trkpt>
      <trkpt lat="41.824783" lon="-8.114200">
        <ele>796.0</ele>
        <time>2010-08-26T16:56:51Z</time>
      </trkpt>
      <trkpt lat="41.824767" lon="-8.114150">
        <ele>797.0</ele>
        <time>2010-08-26T16:56:53Z</time>
      </trkpt>
      <trkpt lat="41.824767" lon="-8.114117">
        <ele>797.0</ele>
        <time>2010-08-26T16:56:55Z</time>
      </trkpt>
      <trkpt lat="41.824750" lon="-8.114050">
        <ele>798.0</ele>
        <time>2010-08-26T16:56:57Z</time>
      </trkpt>
      <trkpt lat="41.824733" lon="-8.114000">
        <ele>798.0</ele>
        <time>2010-08-26T16:56:59Z</time>
      </trkpt>
      <trkpt lat="41.824717" lon="-8.113950">
        <ele>798.0</ele>
        <time>2010-08-26T16:57:01Z</time>
      </trkpt>
      <trkpt lat="41.824700" lon="-8.113900">
        <ele>798.0</ele>
        <time>2010-08-26T16:57:03Z</time>
      </trkpt>
      <trkpt lat="41.824667" lon="-8.113867">
        <ele>799.0</ele>
        <time>2010-08-26T16:57:05Z</time>
      </trkpt>
      <trkpt lat="41.824633" lon="-8.113817">
        <ele>799.0</ele>
        <time>2010-08-26T16:57:07Z</time>
      </trkpt>
      <trkpt lat="41.824617" lon="-8.113800">
        <ele>799.0</ele>
        <time>2010-08-26T16:57:08Z</time>
      </trkpt>
      <trkpt lat="41.824600" lon="-8.113783">
        <ele>799.0</ele>
        <time>2010-08-26T16:57:09Z</time>
      </trkpt>
      <trkpt lat="41.824567" lon="-8.113750">
        <ele>800.0</ele>
        <time>2010-08-26T16:57:11Z</time>
      </trkpt>
      <trkpt lat="41.824533" lon="-8.113717">
        <ele>800.0</ele>
        <time>2010-08-26T16:57:13Z</time>
      </trkpt>
      <trkpt lat="41.824483" lon="-8.113683">
        <ele>800.0</ele>
        <time>2010-08-26T16:57:15Z</time>
      </trkpt>
      <trkpt lat="41.824467" lon="-8.113650">
        <ele>800.0</ele>
        <time>2010-08-26T16:57:17Z</time>
      </trkpt>
      <trkpt lat="41.824433" lon="-8.113617">
        <ele>800.0</ele>
        <time>2010-08-26T16:57:19Z</time>
      </trkpt>
      <trkpt lat="41.824400" lon="-8.113583">
        <ele>800.0</ele>
        <time>2010-08-26T16:57:21Z</time>
      </trkpt>
      <trkpt lat="41.824383" lon="-8.113533">
        <ele>800.0</ele>
        <time>2010-08-26T16:57:23Z</time>
      </trkpt>
      <trkpt lat="41.824383" lon="-8.113467">
        <ele>800.0</ele>
        <time>2010-08-26T16:57:25Z</time>
      </trkpt>
      <trkpt lat="41.824400" lon="-8.113433">
        <ele>800.0</ele>
        <time>2010-08-26T16:57:27Z</time>
      </trkpt>
      <trkpt lat="41.824417" lon="-8.113383">
        <ele>800.0</ele>
        <time>2010-08-26T16:57:29Z</time>
      </trkpt>
      <trkpt lat="41.824450" lon="-8.113367">
        <ele>801.0</ele>
        <time>2010-08-26T16:57:31Z</time>
      </trkpt>
      <trkpt lat="41.824500" lon="-8.113350">
        <ele>802.0</ele>
        <time>2010-08-26T16:57:33Z</time>
      </trkpt>
      <trkpt lat="41.824533" lon="-8.113350">
        <ele>803.0</ele>
        <time>2010-08-26T16:57:35Z</time>
      </trkpt>
      <trkpt lat="41.824567" lon="-8.113350">
        <ele>803.0</ele>
        <time>2010-08-26T16:57:37Z</time>
      </trkpt>
      <trkpt lat="41.824617" lon="-8.113350">
        <ele>804.0</ele>
        <time>2010-08-26T16:57:39Z</time>
      </trkpt>
      <trkpt lat="41.824650" lon="-8.113350">
        <ele>805.0</ele>
        <time>2010-08-26T16:57:41Z</time>
      </trkpt>
      <trkpt lat="41.824683" lon="-8.113350">
        <ele>805.0</ele>
        <time>2010-08-26T16:57:43Z</time>
      </trkpt>
      <trkpt lat="41.824733" lon="-8.113350">
        <ele>806.0</ele>
        <time>2010-08-26T16:57:45Z</time>
      </trkpt>
      <trkpt lat="41.824767" lon="-8.113350">
        <ele>806.0</ele>
        <time>2010-08-26T16:57:47Z</time>
      </trkpt>
      <trkpt lat="41.824817" lon="-8.113350">
        <ele>807.0</ele>
        <time>2010-08-26T16:57:49Z</time>
      </trkpt>
      <trkpt lat="41.824850" lon="-8.113350">
        <ele>807.0</ele>
        <time>2010-08-26T16:57:51Z</time>
      </trkpt>
      <trkpt lat="41.824883" lon="-8.113350">
        <ele>808.0</ele>
        <time>2010-08-26T16:57:53Z</time>
      </trkpt>
      <trkpt lat="41.824933" lon="-8.113350">
        <ele>808.0</ele>
        <time>2010-08-26T16:57:55Z</time>
      </trkpt>
      <trkpt lat="41.824967" lon="-8.113350">
        <ele>809.0</ele>
        <time>2010-08-26T16:57:57Z</time>
      </trkpt>
      <trkpt lat="41.825017" lon="-8.113350">
        <ele>809.0</ele>
        <time>2010-08-26T16:57:59Z</time>
      </trkpt>
      <trkpt lat="41.825050" lon="-8.113367">
        <ele>810.0</ele>
        <time>2010-08-26T16:58:01Z</time>
      </trkpt>
      <trkpt lat="41.825083" lon="-8.113367">
        <ele>810.0</ele>
        <time>2010-08-26T16:58:03Z</time>
      </trkpt>
      <trkpt lat="41.825133" lon="-8.113383">
        <ele>811.0</ele>
        <time>2010-08-26T16:58:05Z</time>
      </trkpt>
      <trkpt lat="41.825167" lon="-8.113383">
        <ele>811.0</ele>
        <time>2010-08-26T16:58:07Z</time>
      </trkpt>
      <trkpt lat="41.825200" lon="-8.113383">
        <ele>811.0</ele>
        <time>2010-08-26T16:58:09Z</time>
      </trkpt>
      <trkpt lat="41.825250" lon="-8.113400">
        <ele>811.0</ele>
        <time>2010-08-26T16:58:11Z</time>
      </trkpt>
      <trkpt lat="41.825283" lon="-8.113417">
        <ele>811.0</ele>
        <time>2010-08-26T16:58:13Z</time>
      </trkpt>
      <trkpt lat="41.825317" lon="-8.113417">
        <ele>812.0</ele>
        <time>2010-08-26T16:58:15Z</time>
      </trkpt>
      <trkpt lat="41.825350" lon="-8.113433">
        <ele>812.0</ele>
        <time>2010-08-26T16:58:17Z</time>
      </trkpt>
      <trkpt lat="41.825400" lon="-8.113450">
        <ele>812.0</ele>
        <time>2010-08-26T16:58:19Z</time>
      </trkpt>
      <trkpt lat="41.825433" lon="-8.113467">
        <ele>812.0</ele>
        <time>2010-08-26T16:58:21Z</time>
      </trkpt>
      <trkpt lat="41.825467" lon="-8.113467">
        <ele>812.0</ele>
        <time>2010-08-26T16:58:23Z</time>
      </trkpt>
      <trkpt lat="41.825517" lon="-8.113483">
        <ele>812.0</ele>
        <time>2010-08-26T16:58:25Z</time>
      </trkpt>
      <trkpt lat="41.825550" lon="-8.113483">
        <ele>812.0</ele>
        <time>2010-08-26T16:58:27Z</time>
      </trkpt>
      <trkpt lat="41.825583" lon="-8.113467">
        <ele>812.0</ele>
        <time>2010-08-26T16:58:29Z</time>
      </trkpt>
      <trkpt lat="41.825633" lon="-8.113467">
        <ele>812.0</ele>
        <time>2010-08-26T16:58:31Z</time>
      </trkpt>
      <trkpt lat="41.825667" lon="-8.113450">
        <ele>812.0</ele>
        <time>2010-08-26T16:58:33Z</time>
      </trkpt>
      <trkpt lat="41.825700" lon="-8.113433">
        <ele>813.0</ele>
        <time>2010-08-26T16:58:35Z</time>
      </trkpt>
      <trkpt lat="41.825733" lon="-8.113417">
        <ele>813.0</ele>
        <time>2010-08-26T16:58:37Z</time>
      </trkpt>
      <trkpt lat="41.825767" lon="-8.113400">
        <ele>813.0</ele>
        <time>2010-08-26T16:58:39Z</time>
      </trkpt>
      <trkpt lat="41.825800" lon="-8.113383">
        <ele>813.0</ele>
        <time>2010-08-26T16:58:41Z</time>
      </trkpt>
      <trkpt lat="41.825833" lon="-8.113367">
        <ele>813.0</ele>
        <time>2010-08-26T16:58:43Z</time>
      </trkpt>
      <trkpt lat="41.825867" lon="-8.113367">
        <ele>813.0</ele>
        <time>2010-08-26T16:58:45Z</time>
      </trkpt>
      <trkpt lat="41.825917" lon="-8.113350">
        <ele>813.0</ele>
        <time>2010-08-26T16:58:47Z</time>
      </trkpt>
      <trkpt lat="41.825950" lon="-8.113350">
        <ele>814.0</ele>
        <time>2010-08-26T16:58:49Z</time>
      </trkpt>
      <trkpt lat="41.825983" lon="-8.113367">
        <ele>814.0</ele>
        <time>2010-08-26T16:58:51Z</time>
      </trkpt>
      <trkpt lat="41.826017" lon="-8.113367">
        <ele>814.0</ele>
        <time>2010-08-26T16:58:53Z</time>
      </trkpt>
      <trkpt lat="41.826050" lon="-8.113350">
        <ele>814.0</ele>
        <time>2010-08-26T16:58:55Z</time>
      </trkpt>
      <trkpt lat="41.826083" lon="-8.113350">
        <ele>814.0</ele>
        <time>2010-08-26T16:58:57Z</time>
      </trkpt>
      <trkpt lat="41.826117" lon="-8.113317">
        <ele>814.0</ele>
        <time>2010-08-26T16:58:59Z</time>
      </trkpt>
      <trkpt lat="41.826133" lon="-8.113300">
        <ele>814.0</ele>
        <time>2010-08-26T16:59:01Z</time>
      </trkpt>
      <trkpt lat="41.826150" lon="-8.113267">
        <ele>814.0</ele>
        <time>2010-08-26T16:59:03Z</time>
      </trkpt>
      <trkpt lat="41.826150" lon="-8.113217">
        <ele>815.0</ele>
        <time>2010-08-26T16:59:05Z</time>
      </trkpt>
      <trkpt lat="41.826150" lon="-8.113183">
        <ele>815.0</ele>
        <time>2010-08-26T16:59:07Z</time>
      </trkpt>
      <trkpt lat="41.826133" lon="-8.113133">
        <ele>815.0</ele>
        <time>2010-08-26T16:59:09Z</time>
      </trkpt>
      <trkpt lat="41.826117" lon="-8.113117">
        <ele>816.0</ele>
        <time>2010-08-26T16:59:11Z</time>
      </trkpt>
      <trkpt lat="41.826083" lon="-8.113083">
        <ele>816.0</ele>
        <time>2010-08-26T16:59:13Z</time>
      </trkpt>
      <trkpt lat="41.826067" lon="-8.113050">
        <ele>817.0</ele>
        <time>2010-08-26T16:59:15Z</time>
      </trkpt>
      <trkpt lat="41.826050" lon="-8.113017">
        <ele>818.0</ele>
        <time>2010-08-26T16:59:17Z</time>
      </trkpt>
      <trkpt lat="41.826017" lon="-8.113000">
        <ele>818.0</ele>
        <time>2010-08-26T16:59:19Z</time>
      </trkpt>
      <trkpt lat="41.826000" lon="-8.112967">
        <ele>818.0</ele>
        <time>2010-08-26T16:59:21Z</time>
      </trkpt>
      <trkpt lat="41.825967" lon="-8.112950">
        <ele>819.0</ele>
        <time>2010-08-26T16:59:23Z</time>
      </trkpt>
      <trkpt lat="41.825933" lon="-8.112933">
        <ele>819.0</ele>
        <time>2010-08-26T16:59:25Z</time>
      </trkpt>
      <trkpt lat="41.825917" lon="-8.112917">
        <ele>820.0</ele>
        <time>2010-08-26T16:59:27Z</time>
      </trkpt>
      <trkpt lat="41.825883" lon="-8.112900">
        <ele>820.0</ele>
        <time>2010-08-26T16:59:29Z</time>
      </trkpt>
      <trkpt lat="41.825850" lon="-8.112883">
        <ele>821.0</ele>
        <time>2010-08-26T16:59:31Z</time>
      </trkpt>
      <trkpt lat="41.825817" lon="-8.112867">
        <ele>821.0</ele>
        <time>2010-08-26T16:59:33Z</time>
      </trkpt>
      <trkpt lat="41.825783" lon="-8.112867">
        <ele>821.0</ele>
        <time>2010-08-26T16:59:35Z</time>
      </trkpt>
      <trkpt lat="41.825750" lon="-8.112850">
        <ele>821.0</ele>
        <time>2010-08-26T16:59:37Z</time>
      </trkpt>
      <trkpt lat="41.825733" lon="-8.112850">
        <ele>822.0</ele>
        <time>2010-08-26T16:59:39Z</time>
      </trkpt>
      <trkpt lat="41.825700" lon="-8.112833">
        <ele>822.0</ele>
        <time>2010-08-26T16:59:41Z</time>
      </trkpt>
      <trkpt lat="41.825650" lon="-8.112817">
        <ele>823.0</ele>
        <time>2010-08-26T16:59:44Z</time>
      </trkpt>
      <trkpt lat="41.825617" lon="-8.112817">
        <ele>823.0</ele>
        <time>2010-08-26T16:59:47Z</time>
      </trkpt>
      <trkpt lat="41.825583" lon="-8.112800">
        <ele>824.0</ele>
        <time>2010-08-26T16:59:49Z</time>
      </trkpt>
      <trkpt lat="41.825550" lon="-8.112800">
        <ele>824.0</ele>
        <time>2010-08-26T16:59:51Z</time>
      </trkpt>
      <trkpt lat="41.825517" lon="-8.112800">
        <ele>824.0</ele>
        <time>2010-08-26T16:59:53Z</time>
      </trkpt>
      <trkpt lat="41.825483" lon="-8.112783">
        <ele>824.0</ele>
        <time>2010-08-26T16:59:55Z</time>
      </trkpt>
      <trkpt lat="41.825450" lon="-8.112783">
        <ele>824.0</ele>
        <time>2010-08-26T16:59:57Z</time>
      </trkpt>
      <trkpt lat="41.825417" lon="-8.112783">
        <ele>824.0</ele>
        <time>2010-08-26T16:59:59Z</time>
      </trkpt>
      <trkpt lat="41.825383" lon="-8.112783">
        <ele>824.0</ele>
        <time>2010-08-26T17:00:01Z</time>
      </trkpt>
      <trkpt lat="41.825350" lon="-8.112800">
        <ele>825.0</ele>
        <time>2010-08-26T17:00:03Z</time>
      </trkpt>
      <trkpt lat="41.825333" lon="-8.112800">
        <ele>825.0</ele>
        <time>2010-08-26T17:00:05Z</time>
      </trkpt>
      <trkpt lat="41.825300" lon="-8.112817">
        <ele>825.0</ele>
        <time>2010-08-26T17:00:07Z</time>
      </trkpt>
      <trkpt lat="41.825267" lon="-8.112833">
        <ele>826.0</ele>
        <time>2010-08-26T17:00:09Z</time>
      </trkpt>
      <trkpt lat="41.825233" lon="-8.112850">
        <ele>826.0</ele>
        <time>2010-08-26T17:00:11Z</time>
      </trkpt>
      <trkpt lat="41.825200" lon="-8.112833">
        <ele>826.0</ele>
        <time>2010-08-26T17:00:13Z</time>
      </trkpt>
      <trkpt lat="41.825167" lon="-8.112817">
        <ele>826.0</ele>
        <time>2010-08-26T17:00:15Z</time>
      </trkpt>
      <trkpt lat="41.825150" lon="-8.112783">
        <ele>826.0</ele>
        <time>2010-08-26T17:00:17Z</time>
      </trkpt>
      <trkpt lat="41.825150" lon="-8.112717">
        <ele>826.0</ele>
        <time>2010-08-26T17:00:20Z</time>
      </trkpt>
      <trkpt lat="41.825167" lon="-8.112667">
        <ele>827.0</ele>
        <time>2010-08-26T17:00:23Z</time>
      </trkpt>
      <trkpt lat="41.825200" lon="-8.112650">
        <ele>827.0</ele>
        <time>2010-08-26T17:00:25Z</time>
      </trkpt>
      <trkpt lat="41.825233" lon="-8.112617">
        <ele>827.0</ele>
        <time>2010-08-26T17:00:28Z</time>
      </trkpt>
      <trkpt lat="41.825283" lon="-8.112600">
        <ele>828.0</ele>
        <time>2010-08-26T17:00:31Z</time>
      </trkpt>
      <trkpt lat="41.825300" lon="-8.112583">
        <ele>828.0</ele>
        <time>2010-08-26T17:00:33Z</time>
      </trkpt>
      <trkpt lat="41.825333" lon="-8.112567">
        <ele>829.0</ele>
        <time>2010-08-26T17:00:35Z</time>
      </trkpt>
      <trkpt lat="41.825367" lon="-8.112533">
        <ele>830.0</ele>
        <time>2010-08-26T17:00:38Z</time>
      </trkpt>
      <trkpt lat="41.825400" lon="-8.112517">
        <ele>831.0</ele>
        <time>2010-08-26T17:00:41Z</time>
      </trkpt>
      <trkpt lat="41.825450" lon="-8.112483">
        <ele>832.0</ele>
        <time>2010-08-26T17:00:44Z</time>
      </trkpt>
      <trkpt lat="41.825483" lon="-8.112467">
        <ele>832.0</ele>
        <time>2010-08-26T17:00:47Z</time>
      </trkpt>
      <trkpt lat="41.825500" lon="-8.112433">
        <ele>833.0</ele>
        <time>2010-08-26T17:00:49Z</time>
      </trkpt>
      <trkpt lat="41.825550" lon="-8.112400">
        <ele>834.0</ele>
        <time>2010-08-26T17:00:52Z</time>
      </trkpt>
      <trkpt lat="41.825583" lon="-8.112367">
        <ele>834.0</ele>
        <time>2010-08-26T17:00:55Z</time>
      </trkpt>
      <trkpt lat="41.825600" lon="-8.112333">
        <ele>835.0</ele>
        <time>2010-08-26T17:00:58Z</time>
      </trkpt>
      <trkpt lat="41.825633" lon="-8.112283">
        <ele>835.0</ele>
        <time>2010-08-26T17:01:01Z</time>
      </trkpt>
      <trkpt lat="41.825650" lon="-8.112233">
        <ele>834.0</ele>
        <time>2010-08-26T17:01:20Z</time>
      </trkpt>
      <trkpt lat="41.825667" lon="-8.112183">
        <ele>834.0</ele>
        <time>2010-08-26T17:01:24Z</time>
      </trkpt>
      <trkpt lat="41.825683" lon="-8.112133">
        <ele>834.0</ele>
        <time>2010-08-26T17:01:28Z</time>
      </trkpt>
      <trkpt lat="41.825683" lon="-8.112083">
        <ele>835.0</ele>
        <time>2010-08-26T17:01:31Z</time>
      </trkpt>
      <trkpt lat="41.825667" lon="-8.112033">
        <ele>835.0</ele>
        <time>2010-08-26T17:01:34Z</time>
      </trkpt>
      <trkpt lat="41.825650" lon="-8.111983">
        <ele>836.0</ele>
        <time>2010-08-26T17:01:37Z</time>
      </trkpt>
      <trkpt lat="41.825633" lon="-8.111933">
        <ele>836.0</ele>
        <time>2010-08-26T17:01:40Z</time>
      </trkpt>
      <trkpt lat="41.825617" lon="-8.111883">
        <ele>837.0</ele>
        <time>2010-08-26T17:01:43Z</time>
      </trkpt>
      <trkpt lat="41.825583" lon="-8.111850">
        <ele>837.0</ele>
        <time>2010-08-26T17:01:46Z</time>
      </trkpt>
      <trkpt lat="41.825567" lon="-8.111800">
        <ele>838.0</ele>
        <time>2010-08-26T17:01:49Z</time>
      </trkpt>
      <trkpt lat="41.825533" lon="-8.111767">
        <ele>838.0</ele>
        <time>2010-08-26T17:01:52Z</time>
      </trkpt>
      <trkpt lat="41.825517" lon="-8.111733">
        <ele>839.0</ele>
        <time>2010-08-26T17:01:55Z</time>
      </trkpt>
      <trkpt lat="41.825483" lon="-8.111683">
        <ele>839.0</ele>
        <time>2010-08-26T17:01:58Z</time>
      </trkpt>
      <trkpt lat="41.825450" lon="-8.111650">
        <ele>839.0</ele>
        <time>2010-08-26T17:02:01Z</time>
      </trkpt>
      <trkpt lat="41.825417" lon="-8.111617">
        <ele>839.0</ele>
        <time>2010-08-26T17:02:04Z</time>
      </trkpt>
      <trkpt lat="41.825400" lon="-8.111583">
        <ele>840.0</ele>
        <time>2010-08-26T17:02:06Z</time>
      </trkpt>
      <trkpt lat="41.825367" lon="-8.111550">
        <ele>840.0</ele>
        <time>2010-08-26T17:02:09Z</time>
      </trkpt>
      <trkpt lat="41.825333" lon="-8.111517">
        <ele>841.0</ele>
        <time>2010-08-26T17:02:12Z</time>
      </trkpt>
      <trkpt lat="41.825300" lon="-8.111483">
        <ele>841.0</ele>
        <time>2010-08-26T17:02:15Z</time>
      </trkpt>
      <trkpt lat="41.825267" lon="-8.111450">
        <ele>842.0</ele>
        <time>2010-08-26T17:02:18Z</time>
      </trkpt>
      <trkpt lat="41.825217" lon="-8.111433">
        <ele>842.0</ele>
        <time>2010-08-26T17:02:21Z</time>
      </trkpt>
      <trkpt lat="41.825200" lon="-8.111417">
        <ele>843.0</ele>
        <time>2010-08-26T17:02:23Z</time>
      </trkpt>
      <trkpt lat="41.825167" lon="-8.111417">
        <ele>843.0</ele>
        <time>2010-08-26T17:02:25Z</time>
      </trkpt>
      <trkpt lat="41.825133" lon="-8.111400">
        <ele>843.0</ele>
        <time>2010-08-26T17:02:27Z</time>
      </trkpt>
      <trkpt lat="41.825100" lon="-8.111400">
        <ele>844.0</ele>
        <time>2010-08-26T17:02:29Z</time>
      </trkpt>
      <trkpt lat="41.825067" lon="-8.111383">
        <ele>844.0</ele>
        <time>2010-08-26T17:02:31Z</time>
      </trkpt>
      <trkpt lat="41.825033" lon="-8.111367">
        <ele>844.0</ele>
        <time>2010-08-26T17:02:33Z</time>
      </trkpt>
      <trkpt lat="41.825017" lon="-8.111350">
        <ele>845.0</ele>
        <time>2010-08-26T17:02:35Z</time>
      </trkpt>
      <trkpt lat="41.824983" lon="-8.111333">
        <ele>845.0</ele>
        <time>2010-08-26T17:02:37Z</time>
      </trkpt>
      <trkpt lat="41.824967" lon="-8.111283">
        <ele>842.0</ele>
        <time>2010-08-26T17:02:59Z</time>
      </trkpt>
      <trkpt lat="41.824933" lon="-8.111250">
        <ele>836.0</ele>
        <time>2010-08-26T17:04:01Z</time>
      </trkpt>
      <trkpt lat="41.824900" lon="-8.111217">
        <ele>836.0</ele>
        <time>2010-08-26T17:04:03Z</time>
      </trkpt>
      <trkpt lat="41.824883" lon="-8.111183">
        <ele>837.0</ele>
        <time>2010-08-26T17:04:05Z</time>
      </trkpt>
      <trkpt lat="41.824867" lon="-8.111150">
        <ele>837.0</ele>
        <time>2010-08-26T17:04:07Z</time>
      </trkpt>
      <trkpt lat="41.824833" lon="-8.111117">
        <ele>837.0</ele>
        <time>2010-08-26T17:04:09Z</time>
      </trkpt>
      <trkpt lat="41.824817" lon="-8.111100">
        <ele>837.0</ele>
        <time>2010-08-26T17:04:11Z</time>
      </trkpt>
      <trkpt lat="41.824800" lon="-8.111067">
        <ele>838.0</ele>
        <time>2010-08-26T17:04:13Z</time>
      </trkpt>
      <trkpt lat="41.824767" lon="-8.111033">
        <ele>838.0</ele>
        <time>2010-08-26T17:04:15Z</time>
      </trkpt>
      <trkpt lat="41.824733" lon="-8.111000">
        <ele>838.0</ele>
        <time>2010-08-26T17:04:18Z</time>
      </trkpt>
      <trkpt lat="41.824717" lon="-8.110967">
        <ele>839.0</ele>
        <time>2010-08-26T17:04:20Z</time>
      </trkpt>
      <trkpt lat="41.824683" lon="-8.110950">
        <ele>839.0</ele>
        <time>2010-08-26T17:04:22Z</time>
      </trkpt>
      <trkpt lat="41.824667" lon="-8.110917">
        <ele>839.0</ele>
        <time>2010-08-26T17:04:24Z</time>
      </trkpt>
      <trkpt lat="41.824633" lon="-8.110900">
        <ele>840.0</ele>
        <time>2010-08-26T17:04:26Z</time>
      </trkpt>
      <trkpt lat="41.824617" lon="-8.110867">
        <ele>840.0</ele>
        <time>2010-08-26T17:04:28Z</time>
      </trkpt>
      <trkpt lat="41.824583" lon="-8.110833">
        <ele>840.0</ele>
        <time>2010-08-26T17:04:30Z</time>
      </trkpt>
      <trkpt lat="41.824567" lon="-8.110817">
        <ele>841.0</ele>
        <time>2010-08-26T17:04:32Z</time>
      </trkpt>
      <trkpt lat="41.824533" lon="-8.110783">
        <ele>841.0</ele>
        <time>2010-08-26T17:04:34Z</time>
      </trkpt>
      <trkpt lat="41.824517" lon="-8.110750">
        <ele>842.0</ele>
        <time>2010-08-26T17:04:36Z</time>
      </trkpt>
      <trkpt lat="41.824483" lon="-8.110717">
        <ele>842.0</ele>
        <time>2010-08-26T17:04:38Z</time>
      </trkpt>
      <trkpt lat="41.824467" lon="-8.110683">
        <ele>843.0</ele>
        <time>2010-08-26T17:04:40Z</time>
      </trkpt>
      <trkpt lat="41.824450" lon="-8.110650">
        <ele>844.0</ele>
        <time>2010-08-26T17:04:42Z</time>
      </trkpt>
      <trkpt lat="41.824417" lon="-8.110633">
        <ele>844.0</ele>
        <time>2010-08-26T17:04:44Z</time>
      </trkpt>
      <trkpt lat="41.824400" lon="-8.110600">
        <ele>844.0</ele>
        <time>2010-08-26T17:04:46Z</time>
      </trkpt>
      <trkpt lat="41.824383" lon="-8.110567">
        <ele>845.0</ele>
        <time>2010-08-26T17:04:48Z</time>
      </trkpt>
      <trkpt lat="41.824350" lon="-8.110533">
        <ele>845.0</ele>
        <time>2010-08-26T17:04:50Z</time>
      </trkpt>
      <trkpt lat="41.824333" lon="-8.110500">
        <ele>846.0</ele>
        <time>2010-08-26T17:04:52Z</time>
      </trkpt>
      <trkpt lat="41.824300" lon="-8.110483">
        <ele>846.0</ele>
        <time>2010-08-26T17:04:54Z</time>
      </trkpt>
      <trkpt lat="41.824283" lon="-8.110450">
        <ele>846.0</ele>
        <time>2010-08-26T17:04:56Z</time>
      </trkpt>
      <trkpt lat="41.824267" lon="-8.110400">
        <ele>846.0</ele>
        <time>2010-08-26T17:04:58Z</time>
      </trkpt>
      <trkpt lat="41.824267" lon="-8.110367">
        <ele>847.0</ele>
        <time>2010-08-26T17:05:00Z</time>
      </trkpt>
      <trkpt lat="41.824283" lon="-8.110300">
        <ele>848.0</ele>
        <time>2010-08-26T17:05:03Z</time>
      </trkpt>
      <trkpt lat="41.824317" lon="-8.110283">
        <ele>848.0</ele>
        <time>2010-08-26T17:05:06Z</time>
      </trkpt>
      <trkpt lat="41.824367" lon="-8.110267">
        <ele>849.0</ele>
        <time>2010-08-26T17:05:09Z</time>
      </trkpt>
      <trkpt lat="41.824400" lon="-8.110283">
        <ele>850.0</ele>
        <time>2010-08-26T17:05:12Z</time>
      </trkpt>
      <trkpt lat="41.824433" lon="-8.110300">
        <ele>851.0</ele>
        <time>2010-08-26T17:05:15Z</time>
      </trkpt>
      <trkpt lat="41.824483" lon="-8.110333">
        <ele>852.0</ele>
        <time>2010-08-26T17:05:18Z</time>
      </trkpt>
      <trkpt lat="41.824500" lon="-8.110350">
        <ele>852.0</ele>
        <time>2010-08-26T17:05:20Z</time>
      </trkpt>
      <trkpt lat="41.824533" lon="-8.110367">
        <ele>853.0</ele>
        <time>2010-08-26T17:05:22Z</time>
      </trkpt>
      <trkpt lat="41.824567" lon="-8.110383">
        <ele>853.0</ele>
        <time>2010-08-26T17:05:24Z</time>
      </trkpt>
      <trkpt lat="41.824583" lon="-8.110383">
        <ele>853.0</ele>
        <time>2010-08-26T17:05:26Z</time>
      </trkpt>
      <trkpt lat="41.824617" lon="-8.110400">
        <ele>854.0</ele>
        <time>2010-08-26T17:05:28Z</time>
      </trkpt>
      <trkpt lat="41.824650" lon="-8.110417">
        <ele>854.0</ele>
        <time>2010-08-26T17:05:30Z</time>
      </trkpt>
      <trkpt lat="41.824683" lon="-8.110417">
        <ele>855.0</ele>
        <time>2010-08-26T17:05:32Z</time>
      </trkpt>
      <trkpt lat="41.824717" lon="-8.110417">
        <ele>855.0</ele>
        <time>2010-08-26T17:05:34Z</time>
      </trkpt>
      <trkpt lat="41.824750" lon="-8.110400">
        <ele>856.0</ele>
        <time>2010-08-26T17:05:37Z</time>
      </trkpt>
      <trkpt lat="41.824800" lon="-8.110383">
        <ele>856.0</ele>
        <time>2010-08-26T17:05:40Z</time>
      </trkpt>
      <trkpt lat="41.824833" lon="-8.110367">
        <ele>857.0</ele>
        <time>2010-08-26T17:05:43Z</time>
      </trkpt>
      <trkpt lat="41.824867" lon="-8.110333">
        <ele>858.0</ele>
        <time>2010-08-26T17:05:46Z</time>
      </trkpt>
      <trkpt lat="41.824900" lon="-8.110317">
        <ele>858.0</ele>
        <time>2010-08-26T17:05:48Z</time>
      </trkpt>
      <trkpt lat="41.824917" lon="-8.110283">
        <ele>859.0</ele>
        <time>2010-08-26T17:05:50Z</time>
      </trkpt>
      <trkpt lat="41.824950" lon="-8.110267">
        <ele>859.0</ele>
        <time>2010-08-26T17:05:52Z</time>
      </trkpt>
      <trkpt lat="41.824967" lon="-8.110233">
        <ele>859.0</ele>
        <time>2010-08-26T17:05:54Z</time>
      </trkpt>
      <trkpt lat="41.825000" lon="-8.110183">
        <ele>860.0</ele>
        <time>2010-08-26T17:05:57Z</time>
      </trkpt>
      <trkpt lat="41.825017" lon="-8.110150">
        <ele>860.0</ele>
        <time>2010-08-26T17:05:59Z</time>
      </trkpt>
      <trkpt lat="41.825033" lon="-8.110100">
        <ele>860.0</ele>
        <time>2010-08-26T17:06:01Z</time>
      </trkpt>
      <trkpt lat="41.825033" lon="-8.110067">
        <ele>861.0</ele>
        <time>2010-08-26T17:06:03Z</time>
      </trkpt>
      <trkpt lat="41.825033" lon="-8.110000">
        <ele>861.0</ele>
        <time>2010-08-26T17:06:06Z</time>
      </trkpt>
      <trkpt lat="41.825017" lon="-8.109967">
        <ele>861.0</ele>
        <time>2010-08-26T17:06:08Z</time>
      </trkpt>
      <trkpt lat="41.825000" lon="-8.109933">
        <ele>861.0</ele>
        <time>2010-08-26T17:06:10Z</time>
      </trkpt>
      <trkpt lat="41.824983" lon="-8.109883">
        <ele>861.0</ele>
        <time>2010-08-26T17:06:12Z</time>
      </trkpt>
      <trkpt lat="41.824967" lon="-8.109833">
        <ele>861.0</ele>
        <time>2010-08-26T17:06:14Z</time>
      </trkpt>
      <trkpt lat="41.824950" lon="-8.109800">
        <ele>861.0</ele>
        <time>2010-08-26T17:06:16Z</time>
      </trkpt>
      <trkpt lat="41.824933" lon="-8.109750">
        <ele>861.0</ele>
        <time>2010-08-26T17:06:18Z</time>
      </trkpt>
      <trkpt lat="41.824917" lon="-8.109700">
        <ele>861.0</ele>
        <time>2010-08-26T17:06:20Z</time>
      </trkpt>
      <trkpt lat="41.824900" lon="-8.109633">
        <ele>861.0</ele>
        <time>2010-08-26T17:06:22Z</time>
      </trkpt>
      <trkpt lat="41.824900" lon="-8.109583">
        <ele>861.0</ele>
        <time>2010-08-26T17:06:24Z</time>
      </trkpt>
      <trkpt lat="41.824883" lon="-8.109550">
        <ele>861.0</ele>
        <time>2010-08-26T17:06:25Z</time>
      </trkpt>
      <trkpt lat="41.824867" lon="-8.109517">
        <ele>861.0</ele>
        <time>2010-08-26T17:06:26Z</time>
      </trkpt>
      <trkpt lat="41.824867" lon="-8.109483">
        <ele>861.0</ele>
        <time>2010-08-26T17:06:27Z</time>
      </trkpt>
      <trkpt lat="41.824850" lon="-8.109433">
        <ele>861.0</ele>
        <time>2010-08-26T17:06:29Z</time>
      </trkpt>
      <trkpt lat="41.824833" lon="-8.109383">
        <ele>859.0</ele>
        <time>2010-08-26T17:06:42Z</time>
      </trkpt>
      <trkpt lat="41.824817" lon="-8.109333">
        <ele>859.0</ele>
        <time>2010-08-26T17:06:44Z</time>
      </trkpt>
      <trkpt lat="41.824817" lon="-8.109283">
        <ele>859.0</ele>
        <time>2010-08-26T17:06:46Z</time>
      </trkpt>
      <trkpt lat="41.824817" lon="-8.109250">
        <ele>859.0</ele>
        <time>2010-08-26T17:06:47Z</time>
      </trkpt>
      <trkpt lat="41.824800" lon="-8.109200">
        <ele>859.0</ele>
        <time>2010-08-26T17:06:48Z</time>
      </trkpt>
      <trkpt lat="41.824817" lon="-8.109167">
        <ele>859.0</ele>
        <time>2010-08-26T17:06:49Z</time>
      </trkpt>
      <trkpt lat="41.824800" lon="-8.109133">
        <ele>859.0</ele>
        <time>2010-08-26T17:06:50Z</time>
      </trkpt>
      <trkpt lat="41.824800" lon="-8.109083">
        <ele>859.0</ele>
        <time>2010-08-26T17:06:51Z</time>
      </trkpt>
      <trkpt lat="41.824800" lon="-8.109050">
        <ele>860.0</ele>
        <time>2010-08-26T17:06:52Z</time>
      </trkpt>
      <trkpt lat="41.824783" lon="-8.109000">
        <ele>860.0</ele>
        <time>2010-08-26T17:06:53Z</time>
      </trkpt>
      <trkpt lat="41.824767" lon="-8.108967">
        <ele>860.0</ele>
        <time>2010-08-26T17:06:54Z</time>
      </trkpt>
      <trkpt lat="41.824767" lon="-8.108917">
        <ele>860.0</ele>
        <time>2010-08-26T17:06:55Z</time>
      </trkpt>
      <trkpt lat="41.824750" lon="-8.108883">
        <ele>860.0</ele>
        <time>2010-08-26T17:06:56Z</time>
      </trkpt>
      <trkpt lat="41.824733" lon="-8.108850">
        <ele>860.0</ele>
        <time>2010-08-26T17:06:57Z</time>
      </trkpt>
      <trkpt lat="41.824733" lon="-8.108817">
        <ele>860.0</ele>
        <time>2010-08-26T17:06:58Z</time>
      </trkpt>
      <trkpt lat="41.824717" lon="-8.108783">
        <ele>860.0</ele>
        <time>2010-08-26T17:06:59Z</time>
      </trkpt>
      <trkpt lat="41.824700" lon="-8.108750">
        <ele>860.0</ele>
        <time>2010-08-26T17:07:00Z</time>
      </trkpt>
      <trkpt lat="41.824683" lon="-8.108717">
        <ele>860.0</ele>
        <time>2010-08-26T17:07:01Z</time>
      </trkpt>
      <trkpt lat="41.824667" lon="-8.108700">
        <ele>860.0</ele>
        <time>2010-08-26T17:07:02Z</time>
      </trkpt>
      <trkpt lat="41.824650" lon="-8.108667">
        <ele>860.0</ele>
        <time>2010-08-26T17:07:03Z</time>
      </trkpt>
      <trkpt lat="41.824650" lon="-8.108650">
        <ele>861.0</ele>
        <time>2010-08-26T17:07:04Z</time>
      </trkpt>
      <trkpt lat="41.824617" lon="-8.108600">
        <ele>861.0</ele>
        <time>2010-08-26T17:07:06Z</time>
      </trkpt>
      <trkpt lat="41.824583" lon="-8.108550">
        <ele>861.0</ele>
        <time>2010-08-26T17:07:08Z</time>
      </trkpt>
      <trkpt lat="41.824567" lon="-8.108517">
        <ele>861.0</ele>
        <time>2010-08-26T17:07:10Z</time>
      </trkpt>
      <trkpt lat="41.824533" lon="-8.108483">
        <ele>861.0</ele>
        <time>2010-08-26T17:07:12Z</time>
      </trkpt>
      <trkpt lat="41.824500" lon="-8.108450">
        <ele>862.0</ele>
        <time>2010-08-26T17:07:14Z</time>
      </trkpt>
      <trkpt lat="41.824483" lon="-8.108417">
        <ele>862.0</ele>
        <time>2010-08-26T17:07:16Z</time>
      </trkpt>
      <trkpt lat="41.824450" lon="-8.108383">
        <ele>862.0</ele>
        <time>2010-08-26T17:07:18Z</time>
      </trkpt>
      <trkpt lat="41.824417" lon="-8.108350">
        <ele>863.0</ele>
        <time>2010-08-26T17:07:20Z</time>
      </trkpt>
      <trkpt lat="41.824383" lon="-8.108333">
        <ele>863.0</ele>
        <time>2010-08-26T17:07:22Z</time>
      </trkpt>
      <trkpt lat="41.824350" lon="-8.108300">
        <ele>863.0</ele>
        <time>2010-08-26T17:07:24Z</time>
      </trkpt>
      <trkpt lat="41.824317" lon="-8.108267">
        <ele>863.0</ele>
        <time>2010-08-26T17:07:26Z</time>
      </trkpt>
      <trkpt lat="41.824283" lon="-8.108233">
        <ele>864.0</ele>
        <time>2010-08-26T17:07:28Z</time>
      </trkpt>
      <trkpt lat="41.824250" lon="-8.108200">
        <ele>864.0</ele>
        <time>2010-08-26T17:07:30Z</time>
      </trkpt>
      <trkpt lat="41.824233" lon="-8.108167">
        <ele>865.0</ele>
        <time>2010-08-26T17:07:32Z</time>
      </trkpt>
      <trkpt lat="41.824200" lon="-8.108150">
        <ele>865.0</ele>
        <time>2010-08-26T17:07:33Z</time>
      </trkpt>
      <trkpt lat="41.824183" lon="-8.108133">
        <ele>865.0</ele>
        <time>2010-08-26T17:07:34Z</time>
      </trkpt>
      <trkpt lat="41.824167" lon="-8.108117">
        <ele>866.0</ele>
        <time>2010-08-26T17:07:35Z</time>
      </trkpt>
      <trkpt lat="41.824133" lon="-8.108100">
        <ele>866.0</ele>
        <time>2010-08-26T17:07:36Z</time>
      </trkpt>
      <trkpt lat="41.824117" lon="-8.108067">
        <ele>866.0</ele>
        <time>2010-08-26T17:07:37Z</time>
      </trkpt>
      <trkpt lat="41.824100" lon="-8.108050">
        <ele>866.0</ele>
        <time>2010-08-26T17:07:38Z</time>
      </trkpt>
      <trkpt lat="41.824083" lon="-8.108033">
        <ele>867.0</ele>
        <time>2010-08-26T17:07:39Z</time>
      </trkpt>
      <trkpt lat="41.824067" lon="-8.108017">
        <ele>867.0</ele>
        <time>2010-08-26T17:07:40Z</time>
      </trkpt>
      <trkpt lat="41.824050" lon="-8.108000">
        <ele>867.0</ele>
        <time>2010-08-26T17:07:41Z</time>
      </trkpt>
      <trkpt lat="41.824017" lon="-8.107967">
        <ele>867.0</ele>
        <time>2010-08-26T17:07:42Z</time>
      </trkpt>
      <trkpt lat="41.824000" lon="-8.107950">
        <ele>868.0</ele>
        <time>2010-08-26T17:07:43Z</time>
      </trkpt>
      <trkpt lat="41.823983" lon="-8.107917">
        <ele>868.0</ele>
        <time>2010-08-26T17:07:44Z</time>
      </trkpt>
      <trkpt lat="41.823950" lon="-8.107900">
        <ele>868.0</ele>
        <time>2010-08-26T17:07:45Z</time>
      </trkpt>
      <trkpt lat="41.823933" lon="-8.107867">
        <ele>868.0</ele>
        <time>2010-08-26T17:07:46Z</time>
      </trkpt>
      <trkpt lat="41.823917" lon="-8.107833">
        <ele>869.0</ele>
        <time>2010-08-26T17:07:47Z</time>
      </trkpt>
      <trkpt lat="41.823900" lon="-8.107800">
        <ele>869.0</ele>
        <time>2010-08-26T17:07:48Z</time>
      </trkpt>
      <trkpt lat="41.823900" lon="-8.107750">
        <ele>869.0</ele>
        <time>2010-08-26T17:07:49Z</time>
      </trkpt>
      <trkpt lat="41.823900" lon="-8.107717">
        <ele>869.0</ele>
        <time>2010-08-26T17:07:50Z</time>
      </trkpt>
      <trkpt lat="41.823917" lon="-8.107700">
        <ele>869.0</ele>
        <time>2010-08-26T17:07:51Z</time>
      </trkpt>
      <trkpt lat="41.823950" lon="-8.107667">
        <ele>870.0</ele>
        <time>2010-08-26T17:07:52Z</time>
      </trkpt>
      <trkpt lat="41.823967" lon="-8.107650">
        <ele>870.0</ele>
        <time>2010-08-26T17:07:53Z</time>
      </trkpt>
      <trkpt lat="41.823983" lon="-8.107633">
        <ele>870.0</ele>
        <time>2010-08-26T17:07:54Z</time>
      </trkpt>
      <trkpt lat="41.824017" lon="-8.107633">
        <ele>871.0</ele>
        <time>2010-08-26T17:07:55Z</time>
      </trkpt>
      <trkpt lat="41.824033" lon="-8.107633">
        <ele>871.0</ele>
        <time>2010-08-26T17:07:56Z</time>
      </trkpt>
      <trkpt lat="41.824067" lon="-8.107633">
        <ele>872.0</ele>
        <time>2010-08-26T17:07:57Z</time>
      </trkpt>
      <trkpt lat="41.824083" lon="-8.107633">
        <ele>873.0</ele>
        <time>2010-08-26T17:07:58Z</time>
      </trkpt>
      <trkpt lat="41.824133" lon="-8.107650">
        <ele>874.0</ele>
        <time>2010-08-26T17:08:00Z</time>
      </trkpt>
      <trkpt lat="41.824167" lon="-8.107650">
        <ele>874.0</ele>
        <time>2010-08-26T17:08:02Z</time>
      </trkpt>
      <trkpt lat="41.824200" lon="-8.107667">
        <ele>874.0</ele>
        <time>2010-08-26T17:08:04Z</time>
      </trkpt>
      <trkpt lat="41.824233" lon="-8.107667">
        <ele>875.0</ele>
        <time>2010-08-26T17:08:06Z</time>
      </trkpt>
      <trkpt lat="41.824267" lon="-8.107667">
        <ele>875.0</ele>
        <time>2010-08-26T17:08:08Z</time>
      </trkpt>
      <trkpt lat="41.824300" lon="-8.107667">
        <ele>875.0</ele>
        <time>2010-08-26T17:08:10Z</time>
      </trkpt>
      <trkpt lat="41.824350" lon="-8.107667">
        <ele>875.0</ele>
        <time>2010-08-26T17:08:12Z</time>
      </trkpt>
      <trkpt lat="41.824383" lon="-8.107667">
        <ele>875.0</ele>
        <time>2010-08-26T17:08:14Z</time>
      </trkpt>
      <trkpt lat="41.824417" lon="-8.107667">
        <ele>875.0</ele>
        <time>2010-08-26T17:08:16Z</time>
      </trkpt>
      <trkpt lat="41.824450" lon="-8.107667">
        <ele>875.0</ele>
        <time>2010-08-26T17:08:18Z</time>
      </trkpt>
      <trkpt lat="41.824500" lon="-8.107650">
        <ele>875.0</ele>
        <time>2010-08-26T17:08:20Z</time>
      </trkpt>
      <trkpt lat="41.824517" lon="-8.107667">
        <ele>875.0</ele>
        <time>2010-08-26T17:08:21Z</time>
      </trkpt>
      <trkpt lat="41.824550" lon="-8.107667">
        <ele>875.0</ele>
        <time>2010-08-26T17:08:22Z</time>
      </trkpt>
      <trkpt lat="41.824567" lon="-8.107667">
        <ele>875.0</ele>
        <time>2010-08-26T17:08:23Z</time>
      </trkpt>
      <trkpt lat="41.824600" lon="-8.107667">
        <ele>875.0</ele>
        <time>2010-08-26T17:08:24Z</time>
      </trkpt>
      <trkpt lat="41.824617" lon="-8.107667">
        <ele>875.0</ele>
        <time>2010-08-26T17:08:25Z</time>
      </trkpt>
      <trkpt lat="41.824650" lon="-8.107683">
        <ele>875.0</ele>
        <time>2010-08-26T17:08:26Z</time>
      </trkpt>
      <trkpt lat="41.824683" lon="-8.107683">
        <ele>875.0</ele>
        <time>2010-08-26T17:08:27Z</time>
      </trkpt>
      <trkpt lat="41.824700" lon="-8.107683">
        <ele>875.0</ele>
        <time>2010-08-26T17:08:28Z</time>
      </trkpt>
      <trkpt lat="41.824733" lon="-8.107700">
        <ele>875.0</ele>
        <time>2010-08-26T17:08:29Z</time>
      </trkpt>
      <trkpt lat="41.824750" lon="-8.107700">
        <ele>875.0</ele>
        <time>2010-08-26T17:08:30Z</time>
      </trkpt>
      <trkpt lat="41.824783" lon="-8.107717">
        <ele>875.0</ele>
        <time>2010-08-26T17:08:31Z</time>
      </trkpt>
      <trkpt lat="41.824817" lon="-8.107717">
        <ele>875.0</ele>
        <time>2010-08-26T17:08:32Z</time>
      </trkpt>
      <trkpt lat="41.824833" lon="-8.107733">
        <ele>875.0</ele>
        <time>2010-08-26T17:08:33Z</time>
      </trkpt>
      <trkpt lat="41.824867" lon="-8.107733">
        <ele>876.0</ele>
        <time>2010-08-26T17:08:34Z</time>
      </trkpt>
      <trkpt lat="41.824883" lon="-8.107750">
        <ele>876.0</ele>
        <time>2010-08-26T17:08:35Z</time>
      </trkpt>
      <trkpt lat="41.824917" lon="-8.107767">
        <ele>876.0</ele>
        <time>2010-08-26T17:08:36Z</time>
      </trkpt>
      <trkpt lat="41.824950" lon="-8.107767">
        <ele>876.0</ele>
        <time>2010-08-26T17:08:37Z</time>
      </trkpt>
      <trkpt lat="41.824967" lon="-8.107783">
        <ele>876.0</ele>
        <time>2010-08-26T17:08:38Z</time>
      </trkpt>
      <trkpt lat="41.825000" lon="-8.107783">
        <ele>876.0</ele>
        <time>2010-08-26T17:08:39Z</time>
      </trkpt>
      <trkpt lat="41.825033" lon="-8.107800">
        <ele>876.0</ele>
        <time>2010-08-26T17:08:40Z</time>
      </trkpt>
      <trkpt lat="41.825050" lon="-8.107817">
        <ele>876.0</ele>
        <time>2010-08-26T17:08:41Z</time>
      </trkpt>
      <trkpt lat="41.825083" lon="-8.107833">
        <ele>876.0</ele>
        <time>2010-08-26T17:08:42Z</time>
      </trkpt>
      <trkpt lat="41.825100" lon="-8.107850">
        <ele>876.0</ele>
        <time>2010-08-26T17:08:43Z</time>
      </trkpt>
      <trkpt lat="41.825133" lon="-8.107850">
        <ele>876.0</ele>
        <time>2010-08-26T17:08:44Z</time>
      </trkpt>
      <trkpt lat="41.825167" lon="-8.107867">
        <ele>876.0</ele>
        <time>2010-08-26T17:08:45Z</time>
      </trkpt>
      <trkpt lat="41.825183" lon="-8.107900">
        <ele>876.0</ele>
        <time>2010-08-26T17:08:46Z</time>
      </trkpt>
      <trkpt lat="41.825217" lon="-8.107917">
        <ele>876.0</ele>
        <time>2010-08-26T17:08:47Z</time>
      </trkpt>
      <trkpt lat="41.825233" lon="-8.107933">
        <ele>876.0</ele>
        <time>2010-08-26T17:08:48Z</time>
      </trkpt>
      <trkpt lat="41.825267" lon="-8.107950">
        <ele>876.0</ele>
        <time>2010-08-26T17:08:49Z</time>
      </trkpt>
      <trkpt lat="41.825300" lon="-8.107967">
        <ele>876.0</ele>
        <time>2010-08-26T17:08:50Z</time>
      </trkpt>
      <trkpt lat="41.825317" lon="-8.107983">
        <ele>876.0</ele>
        <time>2010-08-26T17:08:51Z</time>
      </trkpt>
      <trkpt lat="41.825350" lon="-8.108017">
        <ele>877.0</ele>
        <time>2010-08-26T17:08:52Z</time>
      </trkpt>
      <trkpt lat="41.825367" lon="-8.108033">
        <ele>877.0</ele>
        <time>2010-08-26T17:08:53Z</time>
      </trkpt>
      <trkpt lat="41.825400" lon="-8.108067">
        <ele>877.0</ele>
        <time>2010-08-26T17:08:54Z</time>
      </trkpt>
      <trkpt lat="41.825417" lon="-8.108083">
        <ele>877.0</ele>
        <time>2010-08-26T17:08:55Z</time>
      </trkpt>
      <trkpt lat="41.825433" lon="-8.108100">
        <ele>877.0</ele>
        <time>2010-08-26T17:08:56Z</time>
      </trkpt>
      <trkpt lat="41.825467" lon="-8.108117">
        <ele>878.0</ele>
        <time>2010-08-26T17:08:57Z</time>
      </trkpt>
      <trkpt lat="41.825483" lon="-8.108150">
        <ele>878.0</ele>
        <time>2010-08-26T17:08:58Z</time>
      </trkpt>
      <trkpt lat="41.825517" lon="-8.108167">
        <ele>878.0</ele>
        <time>2010-08-26T17:08:59Z</time>
      </trkpt>
      <trkpt lat="41.825533" lon="-8.108183">
        <ele>879.0</ele>
        <time>2010-08-26T17:09:00Z</time>
      </trkpt>
      <trkpt lat="41.825567" lon="-8.108200">
        <ele>879.0</ele>
        <time>2010-08-26T17:09:01Z</time>
      </trkpt>
      <trkpt lat="41.825583" lon="-8.108217">
        <ele>879.0</ele>
        <time>2010-08-26T17:09:02Z</time>
      </trkpt>
      <trkpt lat="41.825617" lon="-8.108233">
        <ele>880.0</ele>
        <time>2010-08-26T17:09:03Z</time>
      </trkpt>
      <trkpt lat="41.825633" lon="-8.108267">
        <ele>880.0</ele>
        <time>2010-08-26T17:09:04Z</time>
      </trkpt>
      <trkpt lat="41.825667" lon="-8.108283">
        <ele>881.0</ele>
        <time>2010-08-26T17:09:05Z</time>
      </trkpt>
      <trkpt lat="41.825683" lon="-8.108300">
        <ele>881.0</ele>
        <time>2010-08-26T17:09:06Z</time>
      </trkpt>
      <trkpt lat="41.825700" lon="-8.108317">
        <ele>881.0</ele>
        <time>2010-08-26T17:09:07Z</time>
      </trkpt>
      <trkpt lat="41.825733" lon="-8.108333">
        <ele>882.0</ele>
        <time>2010-08-26T17:09:08Z</time>
      </trkpt>
      <trkpt lat="41.825750" lon="-8.108350">
        <ele>882.0</ele>
        <time>2010-08-26T17:09:09Z</time>
      </trkpt>
      <trkpt lat="41.825783" lon="-8.108367">
        <ele>882.0</ele>
        <time>2010-08-26T17:09:10Z</time>
      </trkpt>
      <trkpt lat="41.825817" lon="-8.108383">
        <ele>882.0</ele>
        <time>2010-08-26T17:09:11Z</time>
      </trkpt>
      <trkpt lat="41.825833" lon="-8.108400">
        <ele>883.0</ele>
        <time>2010-08-26T17:09:12Z</time>
      </trkpt>
      <trkpt lat="41.825867" lon="-8.108417">
        <ele>883.0</ele>
        <time>2010-08-26T17:09:13Z</time>
      </trkpt>
      <trkpt lat="41.825883" lon="-8.108433">
        <ele>883.0</ele>
        <time>2010-08-26T17:09:14Z</time>
      </trkpt>
      <trkpt lat="41.825917" lon="-8.108450">
        <ele>883.0</ele>
        <time>2010-08-26T17:09:15Z</time>
      </trkpt>
      <trkpt lat="41.825950" lon="-8.108467">
        <ele>883.0</ele>
        <time>2010-08-26T17:09:16Z</time>
      </trkpt>
      <trkpt lat="41.825983" lon="-8.108483">
        <ele>883.0</ele>
        <time>2010-08-26T17:09:17Z</time>
      </trkpt>
      <trkpt lat="41.826017" lon="-8.108500">
        <ele>883.0</ele>
        <time>2010-08-26T17:09:18Z</time>
      </trkpt>
      <trkpt lat="41.826050" lon="-8.108517">
        <ele>883.0</ele>
        <time>2010-08-26T17:09:19Z</time>
      </trkpt>
      <trkpt lat="41.826100" lon="-8.108533">
        <ele>883.0</ele>
        <time>2010-08-26T17:09:20Z</time>
      </trkpt>
      <trkpt lat="41.826133" lon="-8.108550">
        <ele>883.0</ele>
        <time>2010-08-26T17:09:21Z</time>
      </trkpt>
      <trkpt lat="41.826167" lon="-8.108550">
        <ele>884.0</ele>
        <time>2010-08-26T17:09:22Z</time>
      </trkpt>
      <trkpt lat="41.826217" lon="-8.108567">
        <ele>884.0</ele>
        <time>2010-08-26T17:09:23Z</time>
      </trkpt>
      <trkpt lat="41.826250" lon="-8.108567">
        <ele>884.0</ele>
        <time>2010-08-26T17:09:24Z</time>
      </trkpt>
      <trkpt lat="41.826300" lon="-8.108583">
        <ele>884.0</ele>
        <time>2010-08-26T17:09:25Z</time>
      </trkpt>
      <trkpt lat="41.826333" lon="-8.108583">
        <ele>883.0</ele>
        <time>2010-08-26T17:09:26Z</time>
      </trkpt>
      <trkpt lat="41.826383" lon="-8.108583">
        <ele>883.0</ele>
        <time>2010-08-26T17:09:27Z</time>
      </trkpt>
      <trkpt lat="41.826433" lon="-8.108583">
        <ele>883.0</ele>
        <time>2010-08-26T17:09:28Z</time>
      </trkpt>
      <trkpt lat="41.826483" lon="-8.108583">
        <ele>883.0</ele>
        <time>2010-08-26T17:09:29Z</time>
      </trkpt>
      <trkpt lat="41.826533" lon="-8.108600">
        <ele>883.0</ele>
        <time>2010-08-26T17:09:30Z</time>
      </trkpt>
      <trkpt lat="41.826583" lon="-8.108600">
        <ele>883.0</ele>
        <time>2010-08-26T17:09:31Z</time>
      </trkpt>
      <trkpt lat="41.826617" lon="-8.108600">
        <ele>882.0</ele>
        <time>2010-08-26T17:09:32Z</time>
      </trkpt>
      <trkpt lat="41.826667" lon="-8.108617">
        <ele>882.0</ele>
        <time>2010-08-26T17:09:33Z</time>
      </trkpt>
      <trkpt lat="41.826717" lon="-8.108617">
        <ele>882.0</ele>
        <time>2010-08-26T17:09:34Z</time>
      </trkpt>
      <trkpt lat="41.826750" lon="-8.108617">
        <ele>881.0</ele>
        <time>2010-08-26T17:09:35Z</time>
      </trkpt>
      <trkpt lat="41.826800" lon="-8.108617">
        <ele>881.0</ele>
        <time>2010-08-26T17:09:36Z</time>
      </trkpt>
      <trkpt lat="41.826850" lon="-8.108617">
        <ele>881.0</ele>
        <time>2010-08-26T17:09:37Z</time>
      </trkpt>
      <trkpt lat="41.826900" lon="-8.108600">
        <ele>881.0</ele>
        <time>2010-08-26T17:09:38Z</time>
      </trkpt>
      <trkpt lat="41.826933" lon="-8.108583">
        <ele>881.0</ele>
        <time>2010-08-26T17:09:39Z</time>
      </trkpt>
      <trkpt lat="41.826983" lon="-8.108583">
        <ele>881.0</ele>
        <time>2010-08-26T17:09:40Z</time>
      </trkpt>
      <trkpt lat="41.827033" lon="-8.108567">
        <ele>881.0</ele>
        <time>2010-08-26T17:09:41Z</time>
      </trkpt>
      <trkpt lat="41.827067" lon="-8.108550">
        <ele>881.0</ele>
        <time>2010-08-26T17:09:42Z</time>
      </trkpt>
      <trkpt lat="41.827117" lon="-8.108533">
        <ele>881.0</ele>
        <time>2010-08-26T17:09:43Z</time>
      </trkpt>
      <trkpt lat="41.827150" lon="-8.108533">
        <ele>882.0</ele>
        <time>2010-08-26T17:09:44Z</time>
      </trkpt>
      <trkpt lat="41.827200" lon="-8.108533">
        <ele>882.0</ele>
        <time>2010-08-26T17:09:45Z</time>
      </trkpt>
      <trkpt lat="41.827233" lon="-8.108533">
        <ele>882.0</ele>
        <time>2010-08-26T17:09:46Z</time>
      </trkpt>
      <trkpt lat="41.827267" lon="-8.108533">
        <ele>883.0</ele>
        <time>2010-08-26T17:09:47Z</time>
      </trkpt>
      <trkpt lat="41.827300" lon="-8.108533">
        <ele>883.0</ele>
        <time>2010-08-26T17:09:48Z</time>
      </trkpt>
      <trkpt lat="41.827333" lon="-8.108533">
        <ele>883.0</ele>
        <time>2010-08-26T17:09:49Z</time>
      </trkpt>
      <trkpt lat="41.827367" lon="-8.108533">
        <ele>884.0</ele>
        <time>2010-08-26T17:09:50Z</time>
      </trkpt>
      <trkpt lat="41.827400" lon="-8.108533">
        <ele>884.0</ele>
        <time>2010-08-26T17:09:51Z</time>
      </trkpt>
      <trkpt lat="41.827433" lon="-8.108533">
        <ele>884.0</ele>
        <time>2010-08-26T17:09:52Z</time>
      </trkpt>
      <trkpt lat="41.827467" lon="-8.108533">
        <ele>884.0</ele>
        <time>2010-08-26T17:09:53Z</time>
      </trkpt>
      <trkpt lat="41.827500" lon="-8.108533">
        <ele>884.0</ele>
        <time>2010-08-26T17:09:54Z</time>
      </trkpt>
      <trkpt lat="41.827517" lon="-8.108533">
        <ele>885.0</ele>
        <time>2010-08-26T17:09:55Z</time>
      </trkpt>
      <trkpt lat="41.827550" lon="-8.108533">
        <ele>885.0</ele>
        <time>2010-08-26T17:09:56Z</time>
      </trkpt>
      <trkpt lat="41.827583" lon="-8.108533">
        <ele>885.0</ele>
        <time>2010-08-26T17:09:57Z</time>
      </trkpt>
      <trkpt lat="41.827617" lon="-8.108533">
        <ele>885.0</ele>
        <time>2010-08-26T17:09:58Z</time>
      </trkpt>
      <trkpt lat="41.827633" lon="-8.108533">
        <ele>885.0</ele>
        <time>2010-08-26T17:09:59Z</time>
      </trkpt>
      <trkpt lat="41.827667" lon="-8.108533">
        <ele>885.0</ele>
        <time>2010-08-26T17:10:00Z</time>
      </trkpt>
      <trkpt lat="41.827700" lon="-8.108533">
        <ele>885.0</ele>
        <time>2010-08-26T17:10:01Z</time>
      </trkpt>
      <trkpt lat="41.827733" lon="-8.108533">
        <ele>885.0</ele>
        <time>2010-08-26T17:10:02Z</time>
      </trkpt>
      <trkpt lat="41.827750" lon="-8.108533">
        <ele>885.0</ele>
        <time>2010-08-26T17:10:03Z</time>
      </trkpt>
      <trkpt lat="41.827783" lon="-8.108533">
        <ele>886.0</ele>
        <time>2010-08-26T17:10:04Z</time>
      </trkpt>
      <trkpt lat="41.827817" lon="-8.108533">
        <ele>886.0</ele>
        <time>2010-08-26T17:10:05Z</time>
      </trkpt>
      <trkpt lat="41.827850" lon="-8.108517">
        <ele>886.0</ele>
        <time>2010-08-26T17:10:06Z</time>
      </trkpt>
      <trkpt lat="41.827867" lon="-8.108517">
        <ele>886.0</ele>
        <time>2010-08-26T17:10:07Z</time>
      </trkpt>
      <trkpt lat="41.827900" lon="-8.108517">
        <ele>886.0</ele>
        <time>2010-08-26T17:10:08Z</time>
      </trkpt>
      <trkpt lat="41.827933" lon="-8.108517">
        <ele>886.0</ele>
        <time>2010-08-26T17:10:09Z</time>
      </trkpt>
      <trkpt lat="41.827950" lon="-8.108500">
        <ele>886.0</ele>
        <time>2010-08-26T17:10:10Z</time>
      </trkpt>
      <trkpt lat="41.827983" lon="-8.108500">
        <ele>886.0</ele>
        <time>2010-08-26T17:10:11Z</time>
      </trkpt>
      <trkpt lat="41.828017" lon="-8.108483">
        <ele>887.0</ele>
        <time>2010-08-26T17:10:12Z</time>
      </trkpt>
      <trkpt lat="41.828050" lon="-8.108467">
        <ele>887.0</ele>
        <time>2010-08-26T17:10:13Z</time>
      </trkpt>
      <trkpt lat="41.828083" lon="-8.108450">
        <ele>887.0</ele>
        <time>2010-08-26T17:10:14Z</time>
      </trkpt>
      <trkpt lat="41.828117" lon="-8.108450">
        <ele>887.0</ele>
        <time>2010-08-26T17:10:15Z</time>
      </trkpt>
      <trkpt lat="41.828150" lon="-8.108433">
        <ele>887.0</ele>
        <time>2010-08-26T17:10:16Z</time>
      </trkpt>
      <trkpt lat="41.828183" lon="-8.108417">
        <ele>887.0</ele>
        <time>2010-08-26T17:10:17Z</time>
      </trkpt>
      <trkpt lat="41.828217" lon="-8.108400">
        <ele>887.0</ele>
        <time>2010-08-26T17:10:18Z</time>
      </trkpt>
      <trkpt lat="41.828250" lon="-8.108383">
        <ele>887.0</ele>
        <time>2010-08-26T17:10:19Z</time>
      </trkpt>
      <trkpt lat="41.828300" lon="-8.108367">
        <ele>887.0</ele>
        <time>2010-08-26T17:10:20Z</time>
      </trkpt>
      <trkpt lat="41.828333" lon="-8.108350">
        <ele>887.0</ele>
        <time>2010-08-26T17:10:21Z</time>
      </trkpt>
      <trkpt lat="41.828383" lon="-8.108333">
        <ele>887.0</ele>
        <time>2010-08-26T17:10:22Z</time>
      </trkpt>
      <trkpt lat="41.828417" lon="-8.108333">
        <ele>887.0</ele>
        <time>2010-08-26T17:10:23Z</time>
      </trkpt>
      <trkpt lat="41.828450" lon="-8.108317">
        <ele>887.0</ele>
        <time>2010-08-26T17:10:24Z</time>
      </trkpt>
      <trkpt lat="41.828483" lon="-8.108300">
        <ele>887.0</ele>
        <time>2010-08-26T17:10:25Z</time>
      </trkpt>
      <trkpt lat="41.828533" lon="-8.108283">
        <ele>887.0</ele>
        <time>2010-08-26T17:10:26Z</time>
      </trkpt>
      <trkpt lat="41.828567" lon="-8.108267">
        <ele>887.0</ele>
        <time>2010-08-26T17:10:27Z</time>
      </trkpt>
      <trkpt lat="41.828600" lon="-8.108250">
        <ele>887.0</ele>
        <time>2010-08-26T17:10:28Z</time>
      </trkpt>
      <trkpt lat="41.828633" lon="-8.108233">
        <ele>887.0</ele>
        <time>2010-08-26T17:10:29Z</time>
      </trkpt>
      <trkpt lat="41.828683" lon="-8.108217">
        <ele>886.0</ele>
        <time>2010-08-26T17:10:30Z</time>
      </trkpt>
      <trkpt lat="41.828717" lon="-8.108200">
        <ele>886.0</ele>
        <time>2010-08-26T17:10:31Z</time>
      </trkpt>
      <trkpt lat="41.828750" lon="-8.108183">
        <ele>886.0</ele>
        <time>2010-08-26T17:10:32Z</time>
      </trkpt>
      <trkpt lat="41.828783" lon="-8.108167">
        <ele>886.0</ele>
        <time>2010-08-26T17:10:33Z</time>
      </trkpt>
      <trkpt lat="41.828817" lon="-8.108133">
        <ele>886.0</ele>
        <time>2010-08-26T17:10:34Z</time>
      </trkpt>
      <trkpt lat="41.828850" lon="-8.108117">
        <ele>886.0</ele>
        <time>2010-08-26T17:10:35Z</time>
      </trkpt>
      <trkpt lat="41.828883" lon="-8.108083">
        <ele>886.0</ele>
        <time>2010-08-26T17:10:36Z</time>
      </trkpt>
      <trkpt lat="41.828917" lon="-8.108050">
        <ele>886.0</ele>
        <time>2010-08-26T17:10:37Z</time>
      </trkpt>
      <trkpt lat="41.828950" lon="-8.108033">
        <ele>886.0</ele>
        <time>2010-08-26T17:10:38Z</time>
      </trkpt>
      <trkpt lat="41.828983" lon="-8.108000">
        <ele>886.0</ele>
        <time>2010-08-26T17:10:39Z</time>
      </trkpt>
      <trkpt lat="41.829000" lon="-8.107967">
        <ele>886.0</ele>
        <time>2010-08-26T17:10:40Z</time>
      </trkpt>
      <trkpt lat="41.829033" lon="-8.107917">
        <ele>886.0</ele>
        <time>2010-08-26T17:10:41Z</time>
      </trkpt>
      <trkpt lat="41.829050" lon="-8.107883">
        <ele>886.0</ele>
        <time>2010-08-26T17:10:42Z</time>
      </trkpt>
      <trkpt lat="41.829083" lon="-8.107850">
        <ele>886.0</ele>
        <time>2010-08-26T17:10:43Z</time>
      </trkpt>
      <trkpt lat="41.829100" lon="-8.107817">
        <ele>886.0</ele>
        <time>2010-08-26T17:10:44Z</time>
      </trkpt>
      <trkpt lat="41.829117" lon="-8.107783">
        <ele>886.0</ele>
        <time>2010-08-26T17:10:45Z</time>
      </trkpt>
      <trkpt lat="41.829150" lon="-8.107750">
        <ele>886.0</ele>
        <time>2010-08-26T17:10:46Z</time>
      </trkpt>
      <trkpt lat="41.829167" lon="-8.107700">
        <ele>886.0</ele>
        <time>2010-08-26T17:10:47Z</time>
      </trkpt>
      <trkpt lat="41.829183" lon="-8.107667">
        <ele>886.0</ele>
        <time>2010-08-26T17:10:48Z</time>
      </trkpt>
      <trkpt lat="41.829200" lon="-8.107633">
        <ele>886.0</ele>
        <time>2010-08-26T17:10:49Z</time>
      </trkpt>
      <trkpt lat="41.829217" lon="-8.107600">
        <ele>886.0</ele>
        <time>2010-08-26T17:10:50Z</time>
      </trkpt>
      <trkpt lat="41.829233" lon="-8.107550">
        <ele>886.0</ele>
        <time>2010-08-26T17:10:51Z</time>
      </trkpt>
      <trkpt lat="41.829250" lon="-8.107500">
        <ele>886.0</ele>
        <time>2010-08-26T17:10:52Z</time>
      </trkpt>
      <trkpt lat="41.829250" lon="-8.107450">
        <ele>885.0</ele>
        <time>2010-08-26T17:10:53Z</time>
      </trkpt>
      <trkpt lat="41.829250" lon="-8.107400">
        <ele>885.0</ele>
        <time>2010-08-26T17:10:54Z</time>
      </trkpt>
      <trkpt lat="41.829250" lon="-8.107367">
        <ele>885.0</ele>
        <time>2010-08-26T17:10:55Z</time>
      </trkpt>
      <trkpt lat="41.829233" lon="-8.107317">
        <ele>885.0</ele>
        <time>2010-08-26T17:10:56Z</time>
      </trkpt>
      <trkpt lat="41.829217" lon="-8.107283">
        <ele>885.0</ele>
        <time>2010-08-26T17:10:57Z</time>
      </trkpt>
      <trkpt lat="41.829200" lon="-8.107233">
        <ele>885.0</ele>
        <time>2010-08-26T17:10:58Z</time>
      </trkpt>
      <trkpt lat="41.829200" lon="-8.107200">
        <ele>885.0</ele>
        <time>2010-08-26T17:10:59Z</time>
      </trkpt>
      <trkpt lat="41.829183" lon="-8.107150">
        <ele>885.0</ele>
        <time>2010-08-26T17:11:00Z</time>
      </trkpt>
      <trkpt lat="41.829183" lon="-8.107100">
        <ele>885.0</ele>
        <time>2010-08-26T17:11:01Z</time>
      </trkpt>
      <trkpt lat="41.829183" lon="-8.107067">
        <ele>885.0</ele>
        <time>2010-08-26T17:11:02Z</time>
      </trkpt>
      <trkpt lat="41.829183" lon="-8.107017">
        <ele>885.0</ele>
        <time>2010-08-26T17:11:03Z</time>
      </trkpt>
      <trkpt lat="41.829183" lon="-8.106967">
        <ele>885.0</ele>
        <time>2010-08-26T17:11:04Z</time>
      </trkpt>
      <trkpt lat="41.829183" lon="-8.106933">
        <ele>884.0</ele>
        <time>2010-08-26T17:11:05Z</time>
      </trkpt>
      <trkpt lat="41.829200" lon="-8.106883">
        <ele>884.0</ele>
        <time>2010-08-26T17:11:06Z</time>
      </trkpt>
      <trkpt lat="41.829200" lon="-8.106850">
        <ele>884.0</ele>
        <time>2010-08-26T17:11:07Z</time>
      </trkpt>
      <trkpt lat="41.829200" lon="-8.106800">
        <ele>884.0</ele>
        <time>2010-08-26T17:11:08Z</time>
      </trkpt>
      <trkpt lat="41.829200" lon="-8.106767">
        <ele>884.0</ele>
        <time>2010-08-26T17:11:09Z</time>
      </trkpt>
      <trkpt lat="41.829183" lon="-8.106717">
        <ele>883.0</ele>
        <time>2010-08-26T17:11:10Z</time>
      </trkpt>
      <trkpt lat="41.829183" lon="-8.106683">
        <ele>883.0</ele>
        <time>2010-08-26T17:11:11Z</time>
      </trkpt>
      <trkpt lat="41.829183" lon="-8.106650">
        <ele>883.0</ele>
        <time>2010-08-26T17:11:12Z</time>
      </trkpt>
      <trkpt lat="41.829167" lon="-8.106600">
        <ele>883.0</ele>
        <time>2010-08-26T17:11:13Z</time>
      </trkpt>
      <trkpt lat="41.829167" lon="-8.106567">
        <ele>883.0</ele>
        <time>2010-08-26T17:11:14Z</time>
      </trkpt>
      <trkpt lat="41.829150" lon="-8.106533">
        <ele>883.0</ele>
        <time>2010-08-26T17:11:15Z</time>
      </trkpt>
      <trkpt lat="41.829133" lon="-8.106500">
        <ele>883.0</ele>
        <time>2010-08-26T17:11:16Z</time>
      </trkpt>
      <trkpt lat="41.829100" lon="-8.106467">
        <ele>883.0</ele>
        <time>2010-08-26T17:11:17Z</time>
      </trkpt>
      <trkpt lat="41.829067" lon="-8.106450">
        <ele>883.0</ele>
        <time>2010-08-26T17:11:18Z</time>
      </trkpt>
      <trkpt lat="41.829050" lon="-8.106433">
        <ele>883.0</ele>
        <time>2010-08-26T17:11:19Z</time>
      </trkpt>
      <trkpt lat="41.829017" lon="-8.106417">
        <ele>883.0</ele>
        <time>2010-08-26T17:11:20Z</time>
      </trkpt>
      <trkpt lat="41.828983" lon="-8.106400">
        <ele>883.0</ele>
        <time>2010-08-26T17:11:21Z</time>
      </trkpt>
      <trkpt lat="41.828950" lon="-8.106383">
        <ele>883.0</ele>
        <time>2010-08-26T17:11:22Z</time>
      </trkpt>
      <trkpt lat="41.828933" lon="-8.106350">
        <ele>883.0</ele>
        <time>2010-08-26T17:11:23Z</time>
      </trkpt>
      <trkpt lat="41.828917" lon="-8.106333">
        <ele>883.0</ele>
        <time>2010-08-26T17:11:24Z</time>
      </trkpt>
      <trkpt lat="41.828883" lon="-8.106300">
        <ele>883.0</ele>
        <time>2010-08-26T17:11:25Z</time>
      </trkpt>
      <trkpt lat="41.828867" lon="-8.106283">
        <ele>883.0</ele>
        <time>2010-08-26T17:11:26Z</time>
      </trkpt>
      <trkpt lat="41.828850" lon="-8.106267">
        <ele>883.0</ele>
        <time>2010-08-26T17:11:27Z</time>
      </trkpt>
      <trkpt lat="41.828833" lon="-8.106233">
        <ele>883.0</ele>
        <time>2010-08-26T17:11:28Z</time>
      </trkpt>
      <trkpt lat="41.828817" lon="-8.106200">
        <ele>883.0</ele>
        <time>2010-08-26T17:11:29Z</time>
      </trkpt>
      <trkpt lat="41.828800" lon="-8.106167">
        <ele>882.0</ele>
        <time>2010-08-26T17:11:30Z</time>
      </trkpt>
      <trkpt lat="41.828783" lon="-8.106150">
        <ele>882.0</ele>
        <time>2010-08-26T17:11:31Z</time>
      </trkpt>
      <trkpt lat="41.828767" lon="-8.106117">
        <ele>882.0</ele>
        <time>2010-08-26T17:11:32Z</time>
      </trkpt>
      <trkpt lat="41.828750" lon="-8.106100">
        <ele>882.0</ele>
        <time>2010-08-26T17:11:33Z</time>
      </trkpt>
      <trkpt lat="41.828733" lon="-8.106083">
        <ele>882.0</ele>
        <time>2010-08-26T17:11:34Z</time>
      </trkpt>
      <trkpt lat="41.828717" lon="-8.106067">
        <ele>881.0</ele>
        <time>2010-08-26T17:11:35Z</time>
      </trkpt>
      <trkpt lat="41.828700" lon="-8.106050">
        <ele>881.0</ele>
        <time>2010-08-26T17:11:36Z</time>
      </trkpt>
      <trkpt lat="41.828667" lon="-8.106033">
        <ele>881.0</ele>
        <time>2010-08-26T17:11:37Z</time>
      </trkpt>
      <trkpt lat="41.828650" lon="-8.106017">
        <ele>881.0</ele>
        <time>2010-08-26T17:11:38Z</time>
      </trkpt>
      <trkpt lat="41.828617" lon="-8.106000">
        <ele>881.0</ele>
        <time>2010-08-26T17:11:39Z</time>
      </trkpt>
      <trkpt lat="41.828583" lon="-8.105983">
        <ele>881.0</ele>
        <time>2010-08-26T17:11:40Z</time>
      </trkpt>
      <trkpt lat="41.828550" lon="-8.105967">
        <ele>881.0</ele>
        <time>2010-08-26T17:11:41Z</time>
      </trkpt>
      <trkpt lat="41.828517" lon="-8.105950">
        <ele>881.0</ele>
        <time>2010-08-26T17:11:42Z</time>
      </trkpt>
      <trkpt lat="41.828500" lon="-8.105933">
        <ele>881.0</ele>
        <time>2010-08-26T17:11:43Z</time>
      </trkpt>
      <trkpt lat="41.828467" lon="-8.105900">
        <ele>881.0</ele>
        <time>2010-08-26T17:11:44Z</time>
      </trkpt>
      <trkpt lat="41.828433" lon="-8.105867">
        <ele>881.0</ele>
        <time>2010-08-26T17:11:45Z</time>
      </trkpt>
      <trkpt lat="41.828400" lon="-8.105833">
        <ele>881.0</ele>
        <time>2010-08-26T17:11:46Z</time>
      </trkpt>
      <trkpt lat="41.828383" lon="-8.105800">
        <ele>881.0</ele>
        <time>2010-08-26T17:11:47Z</time>
      </trkpt>
      <trkpt lat="41.828350" lon="-8.105783">
        <ele>881.0</ele>
        <time>2010-08-26T17:11:48Z</time>
      </trkpt>
      <trkpt lat="41.828317" lon="-8.105750">
        <ele>881.0</ele>
        <time>2010-08-26T17:11:49Z</time>
      </trkpt>
      <trkpt lat="41.828283" lon="-8.105733">
        <ele>881.0</ele>
        <time>2010-08-26T17:11:50Z</time>
      </trkpt>
      <trkpt lat="41.828250" lon="-8.105700">
        <ele>881.0</ele>
        <time>2010-08-26T17:11:51Z</time>
      </trkpt>
      <trkpt lat="41.828217" lon="-8.105683">
        <ele>881.0</ele>
        <time>2010-08-26T17:11:52Z</time>
      </trkpt>
      <trkpt lat="41.828200" lon="-8.105650">
        <ele>881.0</ele>
        <time>2010-08-26T17:11:53Z</time>
      </trkpt>
      <trkpt lat="41.828167" lon="-8.105633">
        <ele>881.0</ele>
        <time>2010-08-26T17:11:54Z</time>
      </trkpt>
      <trkpt lat="41.828133" lon="-8.105617">
        <ele>882.0</ele>
        <time>2010-08-26T17:11:55Z</time>
      </trkpt>
      <trkpt lat="41.828100" lon="-8.105583">
        <ele>882.0</ele>
        <time>2010-08-26T17:11:56Z</time>
      </trkpt>
      <trkpt lat="41.828067" lon="-8.105567">
        <ele>882.0</ele>
        <time>2010-08-26T17:11:57Z</time>
      </trkpt>
      <trkpt lat="41.828033" lon="-8.105533">
        <ele>882.0</ele>
        <time>2010-08-26T17:11:58Z</time>
      </trkpt>
      <trkpt lat="41.828017" lon="-8.105500">
        <ele>882.0</ele>
        <time>2010-08-26T17:11:59Z</time>
      </trkpt>
      <trkpt lat="41.827983" lon="-8.105467">
        <ele>883.0</ele>
        <time>2010-08-26T17:12:00Z</time>
      </trkpt>
      <trkpt lat="41.827967" lon="-8.105433">
        <ele>883.0</ele>
        <time>2010-08-26T17:12:01Z</time>
      </trkpt>
      <trkpt lat="41.827933" lon="-8.105400">
        <ele>883.0</ele>
        <time>2010-08-26T17:12:02Z</time>
      </trkpt>
      <trkpt lat="41.827933" lon="-8.105350">
        <ele>883.0</ele>
        <time>2010-08-26T17:12:03Z</time>
      </trkpt>
      <trkpt lat="41.827917" lon="-8.105317">
        <ele>883.0</ele>
        <time>2010-08-26T17:12:04Z</time>
      </trkpt>
      <trkpt lat="41.827900" lon="-8.105267">
        <ele>883.0</ele>
        <time>2010-08-26T17:12:05Z</time>
      </trkpt>
      <trkpt lat="41.827900" lon="-8.105233">
        <ele>883.0</ele>
        <time>2010-08-26T17:12:06Z</time>
      </trkpt>
      <trkpt lat="41.827900" lon="-8.105183">
        <ele>883.0</ele>
        <time>2010-08-26T17:12:07Z</time>
      </trkpt>
      <trkpt lat="41.827900" lon="-8.105150">
        <ele>883.0</ele>
        <time>2010-08-26T17:12:08Z</time>
      </trkpt>
      <trkpt lat="41.827900" lon="-8.105100">
        <ele>883.0</ele>
        <time>2010-08-26T17:12:09Z</time>
      </trkpt>
      <trkpt lat="41.827900" lon="-8.105067">
        <ele>883.0</ele>
        <time>2010-08-26T17:12:10Z</time>
      </trkpt>
      <trkpt lat="41.827900" lon="-8.105017">
        <ele>883.0</ele>
        <time>2010-08-26T17:12:11Z</time>
      </trkpt>
      <trkpt lat="41.827900" lon="-8.104967">
        <ele>883.0</ele>
        <time>2010-08-26T17:12:12Z</time>
      </trkpt>
      <trkpt lat="41.827900" lon="-8.104917">
        <ele>883.0</ele>
        <time>2010-08-26T17:12:13Z</time>
      </trkpt>
      <trkpt lat="41.827900" lon="-8.104883">
        <ele>883.0</ele>
        <time>2010-08-26T17:12:14Z</time>
      </trkpt>
      <trkpt lat="41.827900" lon="-8.104833">
        <ele>882.0</ele>
        <time>2010-08-26T17:12:15Z</time>
      </trkpt>
      <trkpt lat="41.827883" lon="-8.104800">
        <ele>882.0</ele>
        <time>2010-08-26T17:12:16Z</time>
      </trkpt>
      <trkpt lat="41.827867" lon="-8.104750">
        <ele>882.0</ele>
        <time>2010-08-26T17:12:17Z</time>
      </trkpt>
      <trkpt lat="41.827833" lon="-8.104717">
        <ele>881.0</ele>
        <time>2010-08-26T17:12:18Z</time>
      </trkpt>
      <trkpt lat="41.827800" lon="-8.104683">
        <ele>881.0</ele>
        <time>2010-08-26T17:12:19Z</time>
      </trkpt>
      <trkpt lat="41.827767" lon="-8.104633">
        <ele>881.0</ele>
        <time>2010-08-26T17:12:20Z</time>
      </trkpt>
      <trkpt lat="41.827733" lon="-8.104583">
        <ele>880.0</ele>
        <time>2010-08-26T17:12:21Z</time>
      </trkpt>
      <trkpt lat="41.827717" lon="-8.104517">
        <ele>879.0</ele>
        <time>2010-08-26T17:12:22Z</time>
      </trkpt>
      <trkpt lat="41.827717" lon="-8.104450">
        <ele>879.0</ele>
        <time>2010-08-26T17:12:23Z</time>
      </trkpt>
      <trkpt lat="41.827717" lon="-8.104367">
        <ele>878.0</ele>
        <time>2010-08-26T17:12:24Z</time>
      </trkpt>
      <trkpt lat="41.827733" lon="-8.104300">
        <ele>878.0</ele>
        <time>2010-08-26T17:12:25Z</time>
      </trkpt>
      <trkpt lat="41.827750" lon="-8.104217">
        <ele>877.0</ele>
        <time>2010-08-26T17:12:26Z</time>
      </trkpt>
      <trkpt lat="41.827783" lon="-8.104133">
        <ele>877.0</ele>
        <time>2010-08-26T17:12:27Z</time>
      </trkpt>
      <trkpt lat="41.827817" lon="-8.104050">
        <ele>876.0</ele>
        <time>2010-08-26T17:12:28Z</time>
      </trkpt>
      <trkpt lat="41.827867" lon="-8.103983">
        <ele>875.0</ele>
        <time>2010-08-26T17:12:29Z</time>
      </trkpt>
      <trkpt lat="41.827917" lon="-8.103933">
        <ele>875.0</ele>
        <time>2010-08-26T17:12:30Z</time>
      </trkpt>
      <trkpt lat="41.827983" lon="-8.103867">
        <ele>874.0</ele>
        <time>2010-08-26T17:12:31Z</time>
      </trkpt>
      <trkpt lat="41.828033" lon="-8.103817">
        <ele>874.0</ele>
        <time>2010-08-26T17:12:32Z</time>
      </trkpt>
      <trkpt lat="41.828083" lon="-8.103767">
        <ele>874.0</ele>
        <time>2010-08-26T17:12:33Z</time>
      </trkpt>
      <trkpt lat="41.828133" lon="-8.103700">
        <ele>873.0</ele>
        <time>2010-08-26T17:12:34Z</time>
      </trkpt>
      <trkpt lat="41.828183" lon="-8.103650">
        <ele>873.0</ele>
        <time>2010-08-26T17:12:35Z</time>
      </trkpt>
      <trkpt lat="41.828233" lon="-8.103567">
        <ele>873.0</ele>
        <time>2010-08-26T17:12:36Z</time>
      </trkpt>
      <trkpt lat="41.828267" lon="-8.103483">
        <ele>873.0</ele>
        <time>2010-08-26T17:12:37Z</time>
      </trkpt>
      <trkpt lat="41.828283" lon="-8.103400">
        <ele>872.0</ele>
        <time>2010-08-26T17:12:38Z</time>
      </trkpt>
      <trkpt lat="41.828300" lon="-8.103300">
        <ele>872.0</ele>
        <time>2010-08-26T17:12:39Z</time>
      </trkpt>
      <trkpt lat="41.828300" lon="-8.103200">
        <ele>871.0</ele>
        <time>2010-08-26T17:12:40Z</time>
      </trkpt>
      <trkpt lat="41.828283" lon="-8.103100">
        <ele>870.0</ele>
        <time>2010-08-26T17:12:41Z</time>
      </trkpt>
      <trkpt lat="41.828267" lon="-8.102983">
        <ele>869.0</ele>
        <time>2010-08-26T17:12:42Z</time>
      </trkpt>
      <trkpt lat="41.828250" lon="-8.102867">
        <ele>868.0</ele>
        <time>2010-08-26T17:12:43Z</time>
      </trkpt>
      <trkpt lat="41.828217" lon="-8.102767">
        <ele>868.0</ele>
        <time>2010-08-26T17:12:44Z</time>
      </trkpt>
      <trkpt lat="41.828183" lon="-8.102650">
        <ele>867.0</ele>
        <time>2010-08-26T17:12:45Z</time>
      </trkpt>
      <trkpt lat="41.828150" lon="-8.102533">
        <ele>866.0</ele>
        <time>2010-08-26T17:12:46Z</time>
      </trkpt>
      <trkpt lat="41.828117" lon="-8.102433">
        <ele>865.0</ele>
        <time>2010-08-26T17:12:47Z</time>
      </trkpt>
      <trkpt lat="41.828083" lon="-8.102333">
        <ele>864.0</ele>
        <time>2010-08-26T17:12:48Z</time>
      </trkpt>
      <trkpt lat="41.828050" lon="-8.102217">
        <ele>864.0</ele>
        <time>2010-08-26T17:12:49Z</time>
      </trkpt>
      <trkpt lat="41.828017" lon="-8.102133">
        <ele>863.0</ele>
        <time>2010-08-26T17:12:50Z</time>
      </trkpt>
      <trkpt lat="41.827983" lon="-8.102033">
        <ele>863.0</ele>
        <time>2010-08-26T17:12:51Z</time>
      </trkpt>
      <trkpt lat="41.827950" lon="-8.101950">
        <ele>862.0</ele>
        <time>2010-08-26T17:12:52Z</time>
      </trkpt>
      <trkpt lat="41.827933" lon="-8.101883">
        <ele>862.0</ele>
        <time>2010-08-26T17:12:53Z</time>
      </trkpt>
      <trkpt lat="41.827900" lon="-8.101817">
        <ele>862.0</ele>
        <time>2010-08-26T17:12:54Z</time>
      </trkpt>
      <trkpt lat="41.827883" lon="-8.101767">
        <ele>862.0</ele>
        <time>2010-08-26T17:12:55Z</time>
      </trkpt>
      <trkpt lat="41.827867" lon="-8.101717">
        <ele>862.0</ele>
        <time>2010-08-26T17:12:56Z</time>
      </trkpt>
      <trkpt lat="41.827850" lon="-8.101683">
        <ele>863.0</ele>
        <time>2010-08-26T17:12:57Z</time>
      </trkpt>
      <trkpt lat="41.827833" lon="-8.101633">
        <ele>863.0</ele>
        <time>2010-08-26T17:12:58Z</time>
      </trkpt>
      <trkpt lat="41.827817" lon="-8.101600">
        <ele>863.0</ele>
        <time>2010-08-26T17:12:59Z</time>
      </trkpt>
      <trkpt lat="41.827817" lon="-8.101550">
        <ele>863.0</ele>
        <time>2010-08-26T17:13:00Z</time>
      </trkpt>
      <trkpt lat="41.827800" lon="-8.101517">
        <ele>864.0</ele>
        <time>2010-08-26T17:13:01Z</time>
      </trkpt>
      <trkpt lat="41.827800" lon="-8.101483">
        <ele>864.0</ele>
        <time>2010-08-26T17:13:02Z</time>
      </trkpt>
      <trkpt lat="41.827800" lon="-8.101450">
        <ele>864.0</ele>
        <time>2010-08-26T17:13:03Z</time>
      </trkpt>
      <trkpt lat="41.827783" lon="-8.101400">
        <ele>864.0</ele>
        <time>2010-08-26T17:13:04Z</time>
      </trkpt>
      <trkpt lat="41.827783" lon="-8.101367">
        <ele>865.0</ele>
        <time>2010-08-26T17:13:05Z</time>
      </trkpt>
      <trkpt lat="41.827767" lon="-8.101333">
        <ele>865.0</ele>
        <time>2010-08-26T17:13:06Z</time>
      </trkpt>
      <trkpt lat="41.827767" lon="-8.101300">
        <ele>865.0</ele>
        <time>2010-08-26T17:13:07Z</time>
      </trkpt>
      <trkpt lat="41.827750" lon="-8.101250">
        <ele>865.0</ele>
        <time>2010-08-26T17:13:08Z</time>
      </trkpt>
      <trkpt lat="41.827750" lon="-8.101217">
        <ele>865.0</ele>
        <time>2010-08-26T17:13:09Z</time>
      </trkpt>
      <trkpt lat="41.827733" lon="-8.101167">
        <ele>865.0</ele>
        <time>2010-08-26T17:13:10Z</time>
      </trkpt>
      <trkpt lat="41.827717" lon="-8.101133">
        <ele>865.0</ele>
        <time>2010-08-26T17:13:11Z</time>
      </trkpt>
      <trkpt lat="41.827700" lon="-8.101100">
        <ele>865.0</ele>
        <time>2010-08-26T17:13:12Z</time>
      </trkpt>
      <trkpt lat="41.827683" lon="-8.101067">
        <ele>865.0</ele>
        <time>2010-08-26T17:13:13Z</time>
      </trkpt>
      <trkpt lat="41.827650" lon="-8.101033">
        <ele>865.0</ele>
        <time>2010-08-26T17:13:14Z</time>
      </trkpt>
      <trkpt lat="41.827633" lon="-8.101000">
        <ele>865.0</ele>
        <time>2010-08-26T17:13:15Z</time>
      </trkpt>
      <trkpt lat="41.827617" lon="-8.100967">
        <ele>865.0</ele>
        <time>2010-08-26T17:13:16Z</time>
      </trkpt>
      <trkpt lat="41.827583" lon="-8.100933">
        <ele>865.0</ele>
        <time>2010-08-26T17:13:17Z</time>
      </trkpt>
      <trkpt lat="41.827550" lon="-8.100900">
        <ele>865.0</ele>
        <time>2010-08-26T17:13:18Z</time>
      </trkpt>
      <trkpt lat="41.827533" lon="-8.100867">
        <ele>864.0</ele>
        <time>2010-08-26T17:13:19Z</time>
      </trkpt>
      <trkpt lat="41.827483" lon="-8.100833">
        <ele>864.0</ele>
        <time>2010-08-26T17:13:20Z</time>
      </trkpt>
      <trkpt lat="41.827450" lon="-8.100800">
        <ele>864.0</ele>
        <time>2010-08-26T17:13:21Z</time>
      </trkpt>
      <trkpt lat="41.827400" lon="-8.100750">
        <ele>864.0</ele>
        <time>2010-08-26T17:13:22Z</time>
      </trkpt>
      <trkpt lat="41.827367" lon="-8.100717">
        <ele>863.0</ele>
        <time>2010-08-26T17:13:23Z</time>
      </trkpt>
      <trkpt lat="41.827317" lon="-8.100667">
        <ele>863.0</ele>
        <time>2010-08-26T17:13:24Z</time>
      </trkpt>
      <trkpt lat="41.827283" lon="-8.100633">
        <ele>863.0</ele>
        <time>2010-08-26T17:13:25Z</time>
      </trkpt>
      <trkpt lat="41.827233" lon="-8.100583">
        <ele>863.0</ele>
        <time>2010-08-26T17:13:26Z</time>
      </trkpt>
      <trkpt lat="41.827200" lon="-8.100533">
        <ele>862.0</ele>
        <time>2010-08-26T17:13:27Z</time>
      </trkpt>
      <trkpt lat="41.827167" lon="-8.100483">
        <ele>862.0</ele>
        <time>2010-08-26T17:13:28Z</time>
      </trkpt>
      <trkpt lat="41.827117" lon="-8.100433">
        <ele>861.0</ele>
        <time>2010-08-26T17:13:29Z</time>
      </trkpt>
      <trkpt lat="41.827067" lon="-8.100400">
        <ele>861.0</ele>
        <time>2010-08-26T17:13:30Z</time>
      </trkpt>
      <trkpt lat="41.827017" lon="-8.100350">
        <ele>861.0</ele>
        <time>2010-08-26T17:13:31Z</time>
      </trkpt>
      <trkpt lat="41.826967" lon="-8.100317">
        <ele>860.0</ele>
        <time>2010-08-26T17:13:32Z</time>
      </trkpt>
      <trkpt lat="41.826917" lon="-8.100283">
        <ele>860.0</ele>
        <time>2010-08-26T17:13:33Z</time>
      </trkpt>
      <trkpt lat="41.826883" lon="-8.100233">
        <ele>860.0</ele>
        <time>2010-08-26T17:13:34Z</time>
      </trkpt>
      <trkpt lat="41.826850" lon="-8.100200">
        <ele>859.0</ele>
        <time>2010-08-26T17:13:35Z</time>
      </trkpt>
      <trkpt lat="41.826833" lon="-8.100150">
        <ele>859.0</ele>
        <time>2010-08-26T17:13:36Z</time>
      </trkpt>
      <trkpt lat="41.826833" lon="-8.100100">
        <ele>859.0</ele>
        <time>2010-08-26T17:13:37Z</time>
      </trkpt>
      <trkpt lat="41.826817" lon="-8.100067">
        <ele>860.0</ele>
        <time>2010-08-26T17:13:38Z</time>
      </trkpt>
      <trkpt lat="41.826833" lon="-8.100017">
        <ele>860.0</ele>
        <time>2010-08-26T17:13:39Z</time>
      </trkpt>
      <trkpt lat="41.826850" lon="-8.099983">
        <ele>860.0</ele>
        <time>2010-08-26T17:13:40Z</time>
      </trkpt>
      <trkpt lat="41.826867" lon="-8.099967">
        <ele>860.0</ele>
        <time>2010-08-26T17:13:41Z</time>
      </trkpt>
      <trkpt lat="41.826900" lon="-8.099950">
        <ele>860.0</ele>
        <time>2010-08-26T17:13:42Z</time>
      </trkpt>
      <trkpt lat="41.826933" lon="-8.099950">
        <ele>861.0</ele>
        <time>2010-08-26T17:13:43Z</time>
      </trkpt>
      <trkpt lat="41.826950" lon="-8.099950">
        <ele>861.0</ele>
        <time>2010-08-26T17:13:44Z</time>
      </trkpt>
      <trkpt lat="41.826983" lon="-8.099950">
        <ele>861.0</ele>
        <time>2010-08-26T17:13:45Z</time>
      </trkpt>
      <trkpt lat="41.827017" lon="-8.099933">
        <ele>862.0</ele>
        <time>2010-08-26T17:13:46Z</time>
      </trkpt>
      <trkpt lat="41.827033" lon="-8.099933">
        <ele>862.0</ele>
        <time>2010-08-26T17:13:47Z</time>
      </trkpt>
      <trkpt lat="41.827067" lon="-8.099933">
        <ele>862.0</ele>
        <time>2010-08-26T17:13:48Z</time>
      </trkpt>
      <trkpt lat="41.827100" lon="-8.099917">
        <ele>863.0</ele>
        <time>2010-08-26T17:13:49Z</time>
      </trkpt>
      <trkpt lat="41.827133" lon="-8.099900">
        <ele>863.0</ele>
        <time>2010-08-26T17:13:50Z</time>
      </trkpt>
      <trkpt lat="41.827167" lon="-8.099883">
        <ele>863.0</ele>
        <time>2010-08-26T17:13:51Z</time>
      </trkpt>
      <trkpt lat="41.827200" lon="-8.099867">
        <ele>864.0</ele>
        <time>2010-08-26T17:13:52Z</time>
      </trkpt>
      <trkpt lat="41.827233" lon="-8.099850">
        <ele>864.0</ele>
        <time>2010-08-26T17:13:53Z</time>
      </trkpt>
      <trkpt lat="41.827267" lon="-8.099817">
        <ele>864.0</ele>
        <time>2010-08-26T17:13:54Z</time>
      </trkpt>
      <trkpt lat="41.827300" lon="-8.099783">
        <ele>864.0</ele>
        <time>2010-08-26T17:13:55Z</time>
      </trkpt>
      <trkpt lat="41.827350" lon="-8.099750">
        <ele>864.0</ele>
        <time>2010-08-26T17:13:56Z</time>
      </trkpt>
      <trkpt lat="41.827383" lon="-8.099700">
        <ele>863.0</ele>
        <time>2010-08-26T17:13:57Z</time>
      </trkpt>
      <trkpt lat="41.827433" lon="-8.099650">
        <ele>863.0</ele>
        <time>2010-08-26T17:13:58Z</time>
      </trkpt>
      <trkpt lat="41.827483" lon="-8.099600">
        <ele>863.0</ele>
        <time>2010-08-26T17:13:59Z</time>
      </trkpt>
      <trkpt lat="41.827533" lon="-8.099550">
        <ele>863.0</ele>
        <time>2010-08-26T17:14:00Z</time>
      </trkpt>
      <trkpt lat="41.827583" lon="-8.099517">
        <ele>862.0</ele>
        <time>2010-08-26T17:14:01Z</time>
      </trkpt>
      <trkpt lat="41.827650" lon="-8.099467">
        <ele>862.0</ele>
        <time>2010-08-26T17:14:02Z</time>
      </trkpt>
      <trkpt lat="41.827717" lon="-8.099417">
        <ele>862.0</ele>
        <time>2010-08-26T17:14:03Z</time>
      </trkpt>
      <trkpt lat="41.827767" lon="-8.099383">
        <ele>861.0</ele>
        <time>2010-08-26T17:14:04Z</time>
      </trkpt>
      <trkpt lat="41.827833" lon="-8.099333">
        <ele>861.0</ele>
        <time>2010-08-26T17:14:05Z</time>
      </trkpt>
      <trkpt lat="41.827900" lon="-8.099300">
        <ele>860.0</ele>
        <time>2010-08-26T17:14:06Z</time>
      </trkpt>
      <trkpt lat="41.827967" lon="-8.099267">
        <ele>860.0</ele>
        <time>2010-08-26T17:14:07Z</time>
      </trkpt>
      <trkpt lat="41.828017" lon="-8.099233">
        <ele>860.0</ele>
        <time>2010-08-26T17:14:08Z</time>
      </trkpt>
      <trkpt lat="41.828083" lon="-8.099200">
        <ele>860.0</ele>
        <time>2010-08-26T17:14:09Z</time>
      </trkpt>
      <trkpt lat="41.828133" lon="-8.099167">
        <ele>860.0</ele>
        <time>2010-08-26T17:14:10Z</time>
      </trkpt>
      <trkpt lat="41.828183" lon="-8.099133">
        <ele>860.0</ele>
        <time>2010-08-26T17:14:11Z</time>
      </trkpt>
      <trkpt lat="41.828233" lon="-8.099100">
        <ele>860.0</ele>
        <time>2010-08-26T17:14:12Z</time>
      </trkpt>
      <trkpt lat="41.828283" lon="-8.099067">
        <ele>860.0</ele>
        <time>2010-08-26T17:14:13Z</time>
      </trkpt>
      <trkpt lat="41.828317" lon="-8.099033">
        <ele>860.0</ele>
        <time>2010-08-26T17:14:14Z</time>
      </trkpt>
      <trkpt lat="41.828350" lon="-8.099000">
        <ele>860.0</ele>
        <time>2010-08-26T17:14:15Z</time>
      </trkpt>
      <trkpt lat="41.828400" lon="-8.098967">
        <ele>860.0</ele>
        <time>2010-08-26T17:14:16Z</time>
      </trkpt>
      <trkpt lat="41.828417" lon="-8.098933">
        <ele>860.0</ele>
        <time>2010-08-26T17:14:17Z</time>
      </trkpt>
      <trkpt lat="41.828450" lon="-8.098917">
        <ele>860.0</ele>
        <time>2010-08-26T17:14:18Z</time>
      </trkpt>
      <trkpt lat="41.828483" lon="-8.098883">
        <ele>861.0</ele>
        <time>2010-08-26T17:14:19Z</time>
      </trkpt>
      <trkpt lat="41.828517" lon="-8.098867">
        <ele>861.0</ele>
        <time>2010-08-26T17:14:20Z</time>
      </trkpt>
      <trkpt lat="41.828550" lon="-8.098833">
        <ele>861.0</ele>
        <time>2010-08-26T17:14:21Z</time>
      </trkpt>
      <trkpt lat="41.828583" lon="-8.098817">
        <ele>861.0</ele>
        <time>2010-08-26T17:14:22Z</time>
      </trkpt>
      <trkpt lat="41.828600" lon="-8.098783">
        <ele>861.0</ele>
        <time>2010-08-26T17:14:23Z</time>
      </trkpt>
      <trkpt lat="41.828633" lon="-8.098767">
        <ele>861.0</ele>
        <time>2010-08-26T17:14:24Z</time>
      </trkpt>
      <trkpt lat="41.828650" lon="-8.098733">
        <ele>862.0</ele>
        <time>2010-08-26T17:14:25Z</time>
      </trkpt>
      <trkpt lat="41.828683" lon="-8.098717">
        <ele>862.0</ele>
        <time>2010-08-26T17:14:26Z</time>
      </trkpt>
      <trkpt lat="41.828700" lon="-8.098700">
        <ele>862.0</ele>
        <time>2010-08-26T17:14:27Z</time>
      </trkpt>
      <trkpt lat="41.828717" lon="-8.098683">
        <ele>862.0</ele>
        <time>2010-08-26T17:14:28Z</time>
      </trkpt>
      <trkpt lat="41.828750" lon="-8.098633">
        <ele>861.0</ele>
        <time>2010-08-26T17:14:30Z</time>
      </trkpt>
      <trkpt lat="41.828767" lon="-8.098600">
        <ele>861.0</ele>
        <time>2010-08-26T17:14:32Z</time>
      </trkpt>
      <trkpt lat="41.828767" lon="-8.098550">
        <ele>861.0</ele>
        <time>2010-08-26T17:14:34Z</time>
      </trkpt>
      <trkpt lat="41.828767" lon="-8.098500">
        <ele>861.0</ele>
        <time>2010-08-26T17:14:36Z</time>
      </trkpt>
      <trkpt lat="41.828767" lon="-8.098450">
        <ele>861.0</ele>
        <time>2010-08-26T17:14:38Z</time>
      </trkpt>
      <trkpt lat="41.828767" lon="-8.098417">
        <ele>861.0</ele>
        <time>2010-08-26T17:14:39Z</time>
      </trkpt>
      <trkpt lat="41.828750" lon="-8.098383">
        <ele>861.0</ele>
        <time>2010-08-26T17:14:40Z</time>
      </trkpt>
      <trkpt lat="41.828750" lon="-8.098350">
        <ele>861.0</ele>
        <time>2010-08-26T17:14:41Z</time>
      </trkpt>
      <trkpt lat="41.828733" lon="-8.098317">
        <ele>861.0</ele>
        <time>2010-08-26T17:14:42Z</time>
      </trkpt>
      <trkpt lat="41.828733" lon="-8.098283">
        <ele>861.0</ele>
        <time>2010-08-26T17:14:43Z</time>
      </trkpt>
      <trkpt lat="41.828717" lon="-8.098250">
        <ele>861.0</ele>
        <time>2010-08-26T17:14:44Z</time>
      </trkpt>
      <trkpt lat="41.828717" lon="-8.098217">
        <ele>861.0</ele>
        <time>2010-08-26T17:14:45Z</time>
      </trkpt>
      <trkpt lat="41.828700" lon="-8.098183">
        <ele>861.0</ele>
        <time>2010-08-26T17:14:46Z</time>
      </trkpt>
      <trkpt lat="41.828700" lon="-8.098150">
        <ele>861.0</ele>
        <time>2010-08-26T17:14:47Z</time>
      </trkpt>
      <trkpt lat="41.828667" lon="-8.098083">
        <ele>861.0</ele>
        <time>2010-08-26T17:14:49Z</time>
      </trkpt>
      <trkpt lat="41.828667" lon="-8.098067">
        <ele>861.0</ele>
        <time>2010-08-26T17:14:50Z</time>
      </trkpt>
      <trkpt lat="41.828650" lon="-8.098033">
        <ele>862.0</ele>
        <time>2010-08-26T17:14:51Z</time>
      </trkpt>
      <trkpt lat="41.828617" lon="-8.097983">
        <ele>862.0</ele>
        <time>2010-08-26T17:14:53Z</time>
      </trkpt>
      <trkpt lat="41.828600" lon="-8.097950">
        <ele>862.0</ele>
        <time>2010-08-26T17:14:55Z</time>
      </trkpt>
      <trkpt lat="41.828583" lon="-8.097900">
        <ele>862.0</ele>
        <time>2010-08-26T17:14:57Z</time>
      </trkpt>
      <trkpt lat="41.828550" lon="-8.097850">
        <ele>862.0</ele>
        <time>2010-08-26T17:14:59Z</time>
      </trkpt>
      <trkpt lat="41.828517" lon="-8.097817">
        <ele>863.0</ele>
        <time>2010-08-26T17:15:01Z</time>
      </trkpt>
      <trkpt lat="41.828500" lon="-8.097767">
        <ele>862.0</ele>
        <time>2010-08-26T17:15:03Z</time>
      </trkpt>
      <trkpt lat="41.828483" lon="-8.097733">
        <ele>862.0</ele>
        <time>2010-08-26T17:15:05Z</time>
      </trkpt>
      <trkpt lat="41.828467" lon="-8.097683">
        <ele>862.0</ele>
        <time>2010-08-26T17:15:07Z</time>
      </trkpt>
      <trkpt lat="41.828433" lon="-8.097633">
        <ele>861.0</ele>
        <time>2010-08-26T17:15:09Z</time>
      </trkpt>
      <trkpt lat="41.828417" lon="-8.097617">
        <ele>861.0</ele>
        <time>2010-08-26T17:15:10Z</time>
      </trkpt>
      <trkpt lat="41.828400" lon="-8.097583">
        <ele>861.0</ele>
        <time>2010-08-26T17:15:11Z</time>
      </trkpt>
      <trkpt lat="41.828367" lon="-8.097550">
        <ele>860.0</ele>
        <time>2010-08-26T17:15:12Z</time>
      </trkpt>
      <trkpt lat="41.828333" lon="-8.097533">
        <ele>860.0</ele>
        <time>2010-08-26T17:15:13Z</time>
      </trkpt>
      <trkpt lat="41.828300" lon="-8.097517">
        <ele>860.0</ele>
        <time>2010-08-26T17:15:14Z</time>
      </trkpt>
      <trkpt lat="41.828267" lon="-8.097500">
        <ele>860.0</ele>
        <time>2010-08-26T17:15:15Z</time>
      </trkpt>
      <trkpt lat="41.828233" lon="-8.097483">
        <ele>859.0</ele>
        <time>2010-08-26T17:15:16Z</time>
      </trkpt>
      <trkpt lat="41.828200" lon="-8.097467">
        <ele>859.0</ele>
        <time>2010-08-26T17:15:17Z</time>
      </trkpt>
      <trkpt lat="41.828167" lon="-8.097467">
        <ele>859.0</ele>
        <time>2010-08-26T17:15:18Z</time>
      </trkpt>
      <trkpt lat="41.828150" lon="-8.097450">
        <ele>859.0</ele>
        <time>2010-08-26T17:15:19Z</time>
      </trkpt>
      <trkpt lat="41.828133" lon="-8.097450">
        <ele>859.0</ele>
        <time>2010-08-26T17:15:20Z</time>
      </trkpt>
      <trkpt lat="41.828100" lon="-8.097433">
        <ele>859.0</ele>
        <time>2010-08-26T17:15:21Z</time>
      </trkpt>
      <trkpt lat="41.828083" lon="-8.097433">
        <ele>859.0</ele>
        <time>2010-08-26T17:15:22Z</time>
      </trkpt>
      <trkpt lat="41.828050" lon="-8.097417">
        <ele>859.0</ele>
        <time>2010-08-26T17:15:23Z</time>
      </trkpt>
      <trkpt lat="41.828017" lon="-8.097400">
        <ele>860.0</ele>
        <time>2010-08-26T17:15:25Z</time>
      </trkpt>
      <trkpt lat="41.827983" lon="-8.097383">
        <ele>861.0</ele>
        <time>2010-08-26T17:15:27Z</time>
      </trkpt>
      <trkpt lat="41.827950" lon="-8.097367">
        <ele>861.0</ele>
        <time>2010-08-26T17:15:29Z</time>
      </trkpt>
      <trkpt lat="41.827917" lon="-8.097350">
        <ele>862.0</ele>
        <time>2010-08-26T17:15:31Z</time>
      </trkpt>
      <trkpt lat="41.827883" lon="-8.097350">
        <ele>862.0</ele>
        <time>2010-08-26T17:15:33Z</time>
      </trkpt>
      <trkpt lat="41.827850" lon="-8.097333">
        <ele>863.0</ele>
        <time>2010-08-26T17:15:35Z</time>
      </trkpt>
      <trkpt lat="41.827800" lon="-8.097317">
        <ele>864.0</ele>
        <time>2010-08-26T17:15:38Z</time>
      </trkpt>
      <trkpt lat="41.827783" lon="-8.097283">
        <ele>877.0</ele>
        <time>2010-08-26T17:16:00Z</time>
      </trkpt>
      <trkpt lat="41.827733" lon="-8.097283">
        <ele>878.0</ele>
        <time>2010-08-26T17:16:02Z</time>
      </trkpt>
      <trkpt lat="41.827717" lon="-8.097267">
        <ele>879.0</ele>
        <time>2010-08-26T17:16:03Z</time>
      </trkpt>
      <trkpt lat="41.827700" lon="-8.097250">
        <ele>880.0</ele>
        <time>2010-08-26T17:16:04Z</time>
      </trkpt>
      <trkpt lat="41.827667" lon="-8.097250">
        <ele>882.0</ele>
        <time>2010-08-26T17:16:05Z</time>
      </trkpt>
      <trkpt lat="41.827633" lon="-8.097233">
        <ele>883.0</ele>
        <time>2010-08-26T17:16:06Z</time>
      </trkpt>
      <trkpt lat="41.827600" lon="-8.097217">
        <ele>885.0</ele>
        <time>2010-08-26T17:16:07Z</time>
      </trkpt>
      <trkpt lat="41.827567" lon="-8.097200">
        <ele>887.0</ele>
        <time>2010-08-26T17:16:08Z</time>
      </trkpt>
      <trkpt lat="41.827533" lon="-8.097167">
        <ele>888.0</ele>
        <time>2010-08-26T17:16:09Z</time>
      </trkpt>
      <trkpt lat="41.827500" lon="-8.097150">
        <ele>890.0</ele>
        <time>2010-08-26T17:16:10Z</time>
      </trkpt>
      <trkpt lat="41.827483" lon="-8.097117">
        <ele>892.0</ele>
        <time>2010-08-26T17:16:11Z</time>
      </trkpt>
      <trkpt lat="41.827467" lon="-8.097083">
        <ele>893.0</ele>
        <time>2010-08-26T17:16:12Z</time>
      </trkpt>
      <trkpt lat="41.827450" lon="-8.097050">
        <ele>894.0</ele>
        <time>2010-08-26T17:16:13Z</time>
      </trkpt>
      <trkpt lat="41.827433" lon="-8.097017">
        <ele>896.0</ele>
        <time>2010-08-26T17:16:14Z</time>
      </trkpt>
      <trkpt lat="41.827433" lon="-8.096983">
        <ele>897.0</ele>
        <time>2010-08-26T17:16:15Z</time>
      </trkpt>
      <trkpt lat="41.827417" lon="-8.096950">
        <ele>898.0</ele>
        <time>2010-08-26T17:16:16Z</time>
      </trkpt>
      <trkpt lat="41.827417" lon="-8.096917">
        <ele>899.0</ele>
        <time>2010-08-26T17:16:17Z</time>
      </trkpt>
      <trkpt lat="41.827400" lon="-8.096883">
        <ele>899.0</ele>
        <time>2010-08-26T17:16:18Z</time>
      </trkpt>
      <trkpt lat="41.827383" lon="-8.096850">
        <ele>900.0</ele>
        <time>2010-08-26T17:16:19Z</time>
      </trkpt>
      <trkpt lat="41.827383" lon="-8.096817">
        <ele>900.0</ele>
        <time>2010-08-26T17:16:20Z</time>
      </trkpt>
      <trkpt lat="41.827383" lon="-8.096783">
        <ele>900.0</ele>
        <time>2010-08-26T17:16:21Z</time>
      </trkpt>
      <trkpt lat="41.827383" lon="-8.096750">
        <ele>900.0</ele>
        <time>2010-08-26T17:16:22Z</time>
      </trkpt>
      <trkpt lat="41.827383" lon="-8.096683">
        <ele>900.0</ele>
        <time>2010-08-26T17:16:24Z</time>
      </trkpt>
      <trkpt lat="41.827383" lon="-8.096650">
        <ele>900.0</ele>
        <time>2010-08-26T17:16:25Z</time>
      </trkpt>
      <trkpt lat="41.827383" lon="-8.096617">
        <ele>899.0</ele>
        <time>2010-08-26T17:16:26Z</time>
      </trkpt>
      <trkpt lat="41.827400" lon="-8.096600">
        <ele>898.0</ele>
        <time>2010-08-26T17:16:27Z</time>
      </trkpt>
      <trkpt lat="41.827417" lon="-8.096567">
        <ele>898.0</ele>
        <time>2010-08-26T17:16:28Z</time>
      </trkpt>
      <trkpt lat="41.827450" lon="-8.096567">
        <ele>897.0</ele>
        <time>2010-08-26T17:16:29Z</time>
      </trkpt>
      <trkpt lat="41.827467" lon="-8.096550">
        <ele>897.0</ele>
        <time>2010-08-26T17:16:30Z</time>
      </trkpt>
      <trkpt lat="41.827500" lon="-8.096517">
        <ele>896.0</ele>
        <time>2010-08-26T17:16:32Z</time>
      </trkpt>
      <trkpt lat="41.827517" lon="-8.096500">
        <ele>895.0</ele>
        <time>2010-08-26T17:16:33Z</time>
      </trkpt>
      <trkpt lat="41.827550" lon="-8.096500">
        <ele>895.0</ele>
        <time>2010-08-26T17:16:34Z</time>
      </trkpt>
      <trkpt lat="41.827567" lon="-8.096483">
        <ele>894.0</ele>
        <time>2010-08-26T17:16:35Z</time>
      </trkpt>
      <trkpt lat="41.827600" lon="-8.096483">
        <ele>893.0</ele>
        <time>2010-08-26T17:16:36Z</time>
      </trkpt>
      <trkpt lat="41.827617" lon="-8.096467">
        <ele>893.0</ele>
        <time>2010-08-26T17:16:37Z</time>
      </trkpt>
      <trkpt lat="41.827633" lon="-8.096450">
        <ele>892.0</ele>
        <time>2010-08-26T17:16:38Z</time>
      </trkpt>
      <trkpt lat="41.827667" lon="-8.096450">
        <ele>891.0</ele>
        <time>2010-08-26T17:16:39Z</time>
      </trkpt>
      <trkpt lat="41.827683" lon="-8.096433">
        <ele>891.0</ele>
        <time>2010-08-26T17:16:40Z</time>
      </trkpt>
      <trkpt lat="41.827717" lon="-8.096417">
        <ele>890.0</ele>
        <time>2010-08-26T17:16:41Z</time>
      </trkpt>
      <trkpt lat="41.827750" lon="-8.096383">
        <ele>890.0</ele>
        <time>2010-08-26T17:16:42Z</time>
      </trkpt>
      <trkpt lat="41.827767" lon="-8.096367">
        <ele>889.0</ele>
        <time>2010-08-26T17:16:43Z</time>
      </trkpt>
      <trkpt lat="41.827800" lon="-8.096350">
        <ele>888.0</ele>
        <time>2010-08-26T17:16:44Z</time>
      </trkpt>
      <trkpt lat="41.827833" lon="-8.096333">
        <ele>888.0</ele>
        <time>2010-08-26T17:16:45Z</time>
      </trkpt>
      <trkpt lat="41.827850" lon="-8.096317">
        <ele>887.0</ele>
        <time>2010-08-26T17:16:46Z</time>
      </trkpt>
      <trkpt lat="41.827867" lon="-8.096300">
        <ele>886.0</ele>
        <time>2010-08-26T17:16:47Z</time>
      </trkpt>
      <trkpt lat="41.827900" lon="-8.096283">
        <ele>885.0</ele>
        <time>2010-08-26T17:16:48Z</time>
      </trkpt>
      <trkpt lat="41.827917" lon="-8.096267">
        <ele>885.0</ele>
        <time>2010-08-26T17:16:49Z</time>
      </trkpt>
      <trkpt lat="41.827950" lon="-8.096250">
        <ele>884.0</ele>
        <time>2010-08-26T17:16:50Z</time>
      </trkpt>
      <trkpt lat="41.827967" lon="-8.096233">
        <ele>884.0</ele>
        <time>2010-08-26T17:16:51Z</time>
      </trkpt>
      <trkpt lat="41.828000" lon="-8.096217">
        <ele>883.0</ele>
        <time>2010-08-26T17:16:52Z</time>
      </trkpt>
      <trkpt lat="41.828033" lon="-8.096200">
        <ele>883.0</ele>
        <time>2010-08-26T17:16:53Z</time>
      </trkpt>
      <trkpt lat="41.828050" lon="-8.096167">
        <ele>883.0</ele>
        <time>2010-08-26T17:16:54Z</time>
      </trkpt>
      <trkpt lat="41.828083" lon="-8.096150">
        <ele>882.0</ele>
        <time>2010-08-26T17:16:55Z</time>
      </trkpt>
      <trkpt lat="41.828100" lon="-8.096133">
        <ele>882.0</ele>
        <time>2010-08-26T17:16:56Z</time>
      </trkpt>
      <trkpt lat="41.828133" lon="-8.096117">
        <ele>882.0</ele>
        <time>2010-08-26T17:16:57Z</time>
      </trkpt>
      <trkpt lat="41.828167" lon="-8.096100">
        <ele>881.0</ele>
        <time>2010-08-26T17:16:58Z</time>
      </trkpt>
      <trkpt lat="41.828183" lon="-8.096067">
        <ele>881.0</ele>
        <time>2010-08-26T17:16:59Z</time>
      </trkpt>
      <trkpt lat="41.828217" lon="-8.096050">
        <ele>880.0</ele>
        <time>2010-08-26T17:17:00Z</time>
      </trkpt>
      <trkpt lat="41.828250" lon="-8.096017">
        <ele>880.0</ele>
        <time>2010-08-26T17:17:01Z</time>
      </trkpt>
      <trkpt lat="41.828283" lon="-8.096000">
        <ele>880.0</ele>
        <time>2010-08-26T17:17:02Z</time>
      </trkpt>
      <trkpt lat="41.828317" lon="-8.095967">
        <ele>879.0</ele>
        <time>2010-08-26T17:17:03Z</time>
      </trkpt>
      <trkpt lat="41.828350" lon="-8.095933">
        <ele>879.0</ele>
        <time>2010-08-26T17:17:04Z</time>
      </trkpt>
      <trkpt lat="41.828383" lon="-8.095900">
        <ele>878.0</ele>
        <time>2010-08-26T17:17:05Z</time>
      </trkpt>
      <trkpt lat="41.828400" lon="-8.095867">
        <ele>878.0</ele>
        <time>2010-08-26T17:17:06Z</time>
      </trkpt>
      <trkpt lat="41.828433" lon="-8.095833">
        <ele>877.0</ele>
        <time>2010-08-26T17:17:07Z</time>
      </trkpt>
      <trkpt lat="41.828467" lon="-8.095817">
        <ele>877.0</ele>
        <time>2010-08-26T17:17:08Z</time>
      </trkpt>
      <trkpt lat="41.828517" lon="-8.095800">
        <ele>877.0</ele>
        <time>2010-08-26T17:17:09Z</time>
      </trkpt>
      <trkpt lat="41.828550" lon="-8.095783">
        <ele>877.0</ele>
        <time>2010-08-26T17:17:10Z</time>
      </trkpt>
      <trkpt lat="41.828583" lon="-8.095767">
        <ele>876.0</ele>
        <time>2010-08-26T17:17:11Z</time>
      </trkpt>
      <trkpt lat="41.828617" lon="-8.095750">
        <ele>877.0</ele>
        <time>2010-08-26T17:17:12Z</time>
      </trkpt>
      <trkpt lat="41.828667" lon="-8.095750">
        <ele>877.0</ele>
        <time>2010-08-26T17:17:13Z</time>
      </trkpt>
      <trkpt lat="41.828700" lon="-8.095750">
        <ele>877.0</ele>
        <time>2010-08-26T17:17:14Z</time>
      </trkpt>
      <trkpt lat="41.828733" lon="-8.095750">
        <ele>877.0</ele>
        <time>2010-08-26T17:17:15Z</time>
      </trkpt>
      <trkpt lat="41.828767" lon="-8.095733">
        <ele>877.0</ele>
        <time>2010-08-26T17:17:16Z</time>
      </trkpt>
      <trkpt lat="41.828800" lon="-8.095733">
        <ele>877.0</ele>
        <time>2010-08-26T17:17:17Z</time>
      </trkpt>
      <trkpt lat="41.828850" lon="-8.095733">
        <ele>877.0</ele>
        <time>2010-08-26T17:17:18Z</time>
      </trkpt>
      <trkpt lat="41.828883" lon="-8.095717">
        <ele>877.0</ele>
        <time>2010-08-26T17:17:19Z</time>
      </trkpt>
      <trkpt lat="41.828933" lon="-8.095717">
        <ele>876.0</ele>
        <time>2010-08-26T17:17:20Z</time>
      </trkpt>
      <trkpt lat="41.828967" lon="-8.095717">
        <ele>876.0</ele>
        <time>2010-08-26T17:17:21Z</time>
      </trkpt>
      <trkpt lat="41.829000" lon="-8.095700">
        <ele>876.0</ele>
        <time>2010-08-26T17:17:22Z</time>
      </trkpt>
      <trkpt lat="41.829033" lon="-8.095683">
        <ele>876.0</ele>
        <time>2010-08-26T17:17:23Z</time>
      </trkpt>
      <trkpt lat="41.829067" lon="-8.095683">
        <ele>876.0</ele>
        <time>2010-08-26T17:17:24Z</time>
      </trkpt>
      <trkpt lat="41.829100" lon="-8.095667">
        <ele>876.0</ele>
        <time>2010-08-26T17:17:25Z</time>
      </trkpt>
      <trkpt lat="41.829133" lon="-8.095667">
        <ele>876.0</ele>
        <time>2010-08-26T17:17:26Z</time>
      </trkpt>
      <trkpt lat="41.829167" lon="-8.095650">
        <ele>876.0</ele>
        <time>2010-08-26T17:17:27Z</time>
      </trkpt>
      <trkpt lat="41.829200" lon="-8.095650">
        <ele>876.0</ele>
        <time>2010-08-26T17:17:28Z</time>
      </trkpt>
      <trkpt lat="41.829233" lon="-8.095633">
        <ele>876.0</ele>
        <time>2010-08-26T17:17:30Z</time>
      </trkpt>
      <trkpt lat="41.829267" lon="-8.095600">
        <ele>876.0</ele>
        <time>2010-08-26T17:17:32Z</time>
      </trkpt>
      <trkpt lat="41.829300" lon="-8.095583">
        <ele>875.0</ele>
        <time>2010-08-26T17:17:34Z</time>
      </trkpt>
      <trkpt lat="41.829350" lon="-8.095567">
        <ele>876.0</ele>
        <time>2010-08-26T17:17:36Z</time>
      </trkpt>
      <trkpt lat="41.829383" lon="-8.095550">
        <ele>875.0</ele>
        <time>2010-08-26T17:17:38Z</time>
      </trkpt>
      <trkpt lat="41.829433" lon="-8.095533">
        <ele>875.0</ele>
        <time>2010-08-26T17:17:40Z</time>
      </trkpt>
      <trkpt lat="41.829450" lon="-8.095533">
        <ele>875.0</ele>
        <time>2010-08-26T17:17:41Z</time>
      </trkpt>
      <trkpt lat="41.829467" lon="-8.095517">
        <ele>875.0</ele>
        <time>2010-08-26T17:17:42Z</time>
      </trkpt>
      <trkpt lat="41.829500" lon="-8.095500">
        <ele>875.0</ele>
        <time>2010-08-26T17:17:43Z</time>
      </trkpt>
      <trkpt lat="41.829517" lon="-8.095500">
        <ele>875.0</ele>
        <time>2010-08-26T17:17:44Z</time>
      </trkpt>
      <trkpt lat="41.829533" lon="-8.095483">
        <ele>875.0</ele>
        <time>2010-08-26T17:17:45Z</time>
      </trkpt>
      <trkpt lat="41.829567" lon="-8.095483">
        <ele>875.0</ele>
        <time>2010-08-26T17:17:46Z</time>
      </trkpt>
      <trkpt lat="41.829583" lon="-8.095467">
        <ele>875.0</ele>
        <time>2010-08-26T17:17:47Z</time>
      </trkpt>
      <trkpt lat="41.829617" lon="-8.095450">
        <ele>875.0</ele>
        <time>2010-08-26T17:17:48Z</time>
      </trkpt>
      <trkpt lat="41.829633" lon="-8.095450">
        <ele>876.0</ele>
        <time>2010-08-26T17:17:49Z</time>
      </trkpt>
      <trkpt lat="41.829650" lon="-8.095433">
        <ele>876.0</ele>
        <time>2010-08-26T17:17:50Z</time>
      </trkpt>
      <trkpt lat="41.829700" lon="-8.095417">
        <ele>876.0</ele>
        <time>2010-08-26T17:17:52Z</time>
      </trkpt>
      <trkpt lat="41.829733" lon="-8.095400">
        <ele>876.0</ele>
        <time>2010-08-26T17:17:55Z</time>
      </trkpt>
      <trkpt lat="41.829767" lon="-8.095383">
        <ele>876.0</ele>
        <time>2010-08-26T17:17:57Z</time>
      </trkpt>
      <trkpt lat="41.829800" lon="-8.095367">
        <ele>876.0</ele>
        <time>2010-08-26T17:17:58Z</time>
      </trkpt>
      <trkpt lat="41.829833" lon="-8.095350">
        <ele>877.0</ele>
        <time>2010-08-26T17:18:00Z</time>
      </trkpt>
      <trkpt lat="41.829850" lon="-8.095350">
        <ele>877.0</ele>
        <time>2010-08-26T17:18:01Z</time>
      </trkpt>
      <trkpt lat="41.829883" lon="-8.095333">
        <ele>877.0</ele>
        <time>2010-08-26T17:18:02Z</time>
      </trkpt>
      <trkpt lat="41.829917" lon="-8.095333">
        <ele>878.0</ele>
        <time>2010-08-26T17:18:04Z</time>
      </trkpt>
      <trkpt lat="41.829967" lon="-8.095317">
        <ele>879.0</ele>
        <time>2010-08-26T17:18:06Z</time>
      </trkpt>
      <trkpt lat="41.830000" lon="-8.095300">
        <ele>879.0</ele>
        <time>2010-08-26T17:18:08Z</time>
      </trkpt>
      <trkpt lat="41.830050" lon="-8.095300">
        <ele>880.0</ele>
        <time>2010-08-26T17:18:10Z</time>
      </trkpt>
      <trkpt lat="41.830067" lon="-8.095283">
        <ele>880.0</ele>
        <time>2010-08-26T17:18:11Z</time>
      </trkpt>
      <trkpt lat="41.830100" lon="-8.095283">
        <ele>881.0</ele>
        <time>2010-08-26T17:18:12Z</time>
      </trkpt>
      <trkpt lat="41.830117" lon="-8.095283">
        <ele>881.0</ele>
        <time>2010-08-26T17:18:13Z</time>
      </trkpt>
      <trkpt lat="41.830133" lon="-8.095267">
        <ele>881.0</ele>
        <time>2010-08-26T17:18:14Z</time>
      </trkpt>
      <trkpt lat="41.830167" lon="-8.095267">
        <ele>882.0</ele>
        <time>2010-08-26T17:18:15Z</time>
      </trkpt>
      <trkpt lat="41.830183" lon="-8.095250">
        <ele>882.0</ele>
        <time>2010-08-26T17:18:16Z</time>
      </trkpt>
      <trkpt lat="41.830217" lon="-8.095250">
        <ele>882.0</ele>
        <time>2010-08-26T17:18:17Z</time>
      </trkpt>
      <trkpt lat="41.830233" lon="-8.095250">
        <ele>881.0</ele>
        <time>2010-08-26T17:18:18Z</time>
      </trkpt>
      <trkpt lat="41.830267" lon="-8.095233">
        <ele>881.0</ele>
        <time>2010-08-26T17:18:19Z</time>
      </trkpt>
      <trkpt lat="41.830300" lon="-8.095233">
        <ele>881.0</ele>
        <time>2010-08-26T17:18:20Z</time>
      </trkpt>
      <trkpt lat="41.830317" lon="-8.095217">
        <ele>881.0</ele>
        <time>2010-08-26T17:18:21Z</time>
      </trkpt>
      <trkpt lat="41.830350" lon="-8.095200">
        <ele>881.0</ele>
        <time>2010-08-26T17:18:22Z</time>
      </trkpt>
      <trkpt lat="41.830383" lon="-8.095200">
        <ele>881.0</ele>
        <time>2010-08-26T17:18:23Z</time>
      </trkpt>
      <trkpt lat="41.830417" lon="-8.095183">
        <ele>881.0</ele>
        <time>2010-08-26T17:18:24Z</time>
      </trkpt>
      <trkpt lat="41.830450" lon="-8.095183">
        <ele>881.0</ele>
        <time>2010-08-26T17:18:25Z</time>
      </trkpt>
      <trkpt lat="41.830483" lon="-8.095167">
        <ele>880.0</ele>
        <time>2010-08-26T17:18:26Z</time>
      </trkpt>
      <trkpt lat="41.830533" lon="-8.095167">
        <ele>880.0</ele>
        <time>2010-08-26T17:18:27Z</time>
      </trkpt>
      <trkpt lat="41.830567" lon="-8.095167">
        <ele>880.0</ele>
        <time>2010-08-26T17:18:28Z</time>
      </trkpt>
      <trkpt lat="41.830600" lon="-8.095167">
        <ele>880.0</ele>
        <time>2010-08-26T17:18:29Z</time>
      </trkpt>
      <trkpt lat="41.830633" lon="-8.095167">
        <ele>880.0</ele>
        <time>2010-08-26T17:18:30Z</time>
      </trkpt>
      <trkpt lat="41.830683" lon="-8.095167">
        <ele>879.0</ele>
        <time>2010-08-26T17:18:31Z</time>
      </trkpt>
      <trkpt lat="41.830717" lon="-8.095183">
        <ele>879.0</ele>
        <time>2010-08-26T17:18:32Z</time>
      </trkpt>
      <trkpt lat="41.830750" lon="-8.095183">
        <ele>879.0</ele>
        <time>2010-08-26T17:18:33Z</time>
      </trkpt>
      <trkpt lat="41.830783" lon="-8.095200">
        <ele>879.0</ele>
        <time>2010-08-26T17:18:34Z</time>
      </trkpt>
      <trkpt lat="41.830817" lon="-8.095200">
        <ele>879.0</ele>
        <time>2010-08-26T17:18:35Z</time>
      </trkpt>
      <trkpt lat="41.830850" lon="-8.095217">
        <ele>879.0</ele>
        <time>2010-08-26T17:18:36Z</time>
      </trkpt>
      <trkpt lat="41.830883" lon="-8.095217">
        <ele>879.0</ele>
        <time>2010-08-26T17:18:37Z</time>
      </trkpt>
      <trkpt lat="41.830917" lon="-8.095217">
        <ele>879.0</ele>
        <time>2010-08-26T17:18:38Z</time>
      </trkpt>
      <trkpt lat="41.830933" lon="-8.095217">
        <ele>880.0</ele>
        <time>2010-08-26T17:18:39Z</time>
      </trkpt>
      <trkpt lat="41.830967" lon="-8.095217">
        <ele>880.0</ele>
        <time>2010-08-26T17:18:40Z</time>
      </trkpt>
      <trkpt lat="41.831000" lon="-8.095233">
        <ele>880.0</ele>
        <time>2010-08-26T17:18:41Z</time>
      </trkpt>
      <trkpt lat="41.831033" lon="-8.095233">
        <ele>880.0</ele>
        <time>2010-08-26T17:18:42Z</time>
      </trkpt>
      <trkpt lat="41.831067" lon="-8.095233">
        <ele>880.0</ele>
        <time>2010-08-26T17:18:43Z</time>
      </trkpt>
      <trkpt lat="41.831083" lon="-8.095250">
        <ele>880.0</ele>
        <time>2010-08-26T17:18:44Z</time>
      </trkpt>
      <trkpt lat="41.831117" lon="-8.095250">
        <ele>881.0</ele>
        <time>2010-08-26T17:18:45Z</time>
      </trkpt>
      <trkpt lat="41.831150" lon="-8.095267">
        <ele>881.0</ele>
        <time>2010-08-26T17:18:46Z</time>
      </trkpt>
      <trkpt lat="41.831183" lon="-8.095267">
        <ele>881.0</ele>
        <time>2010-08-26T17:18:47Z</time>
      </trkpt>
      <trkpt lat="41.831200" lon="-8.095283">
        <ele>882.0</ele>
        <time>2010-08-26T17:18:48Z</time>
      </trkpt>
      <trkpt lat="41.831233" lon="-8.095283">
        <ele>882.0</ele>
        <time>2010-08-26T17:18:49Z</time>
      </trkpt>
      <trkpt lat="41.831250" lon="-8.095283">
        <ele>882.0</ele>
        <time>2010-08-26T17:18:50Z</time>
      </trkpt>
      <trkpt lat="41.831300" lon="-8.095283">
        <ele>883.0</ele>
        <time>2010-08-26T17:18:52Z</time>
      </trkpt>
      <trkpt lat="41.831333" lon="-8.095283">
        <ele>884.0</ele>
        <time>2010-08-26T17:18:54Z</time>
      </trkpt>
      <trkpt lat="41.831367" lon="-8.095283">
        <ele>884.0</ele>
        <time>2010-08-26T17:18:56Z</time>
      </trkpt>
      <trkpt lat="41.831417" lon="-8.095283">
        <ele>885.0</ele>
        <time>2010-08-26T17:18:58Z</time>
      </trkpt>
      <trkpt lat="41.831450" lon="-8.095267">
        <ele>885.0</ele>
        <time>2010-08-26T17:19:00Z</time>
      </trkpt>
      <trkpt lat="41.831500" lon="-8.095267">
        <ele>886.0</ele>
        <time>2010-08-26T17:19:02Z</time>
      </trkpt>
      <trkpt lat="41.831533" lon="-8.095250">
        <ele>886.0</ele>
        <time>2010-08-26T17:19:04Z</time>
      </trkpt>
      <trkpt lat="41.831567" lon="-8.095250">
        <ele>887.0</ele>
        <time>2010-08-26T17:19:06Z</time>
      </trkpt>
      <trkpt lat="41.831600" lon="-8.095233">
        <ele>887.0</ele>
        <time>2010-08-26T17:19:08Z</time>
      </trkpt>
      <trkpt lat="41.831650" lon="-8.095233">
        <ele>888.0</ele>
        <time>2010-08-26T17:19:10Z</time>
      </trkpt>
      <trkpt lat="41.831683" lon="-8.095233">
        <ele>888.0</ele>
        <time>2010-08-26T17:19:12Z</time>
      </trkpt>
      <trkpt lat="41.831717" lon="-8.095217">
        <ele>888.0</ele>
        <time>2010-08-26T17:19:14Z</time>
      </trkpt>
      <trkpt lat="41.831767" lon="-8.095200">
        <ele>889.0</ele>
        <time>2010-08-26T17:19:16Z</time>
      </trkpt>
      <trkpt lat="41.831800" lon="-8.095183">
        <ele>889.0</ele>
        <time>2010-08-26T17:19:18Z</time>
      </trkpt>
      <trkpt lat="41.831833" lon="-8.095183">
        <ele>889.0</ele>
        <time>2010-08-26T17:19:19Z</time>
      </trkpt>
      <trkpt lat="41.831850" lon="-8.095183">
        <ele>889.0</ele>
        <time>2010-08-26T17:19:20Z</time>
      </trkpt>
      <trkpt lat="41.831883" lon="-8.095167">
        <ele>890.0</ele>
        <time>2010-08-26T17:19:22Z</time>
      </trkpt>
      <trkpt lat="41.831933" lon="-8.095150">
        <ele>890.0</ele>
        <time>2010-08-26T17:19:24Z</time>
      </trkpt>
      <trkpt lat="41.831983" lon="-8.095133">
        <ele>890.0</ele>
        <time>2010-08-26T17:19:26Z</time>
      </trkpt>
      <trkpt lat="41.832017" lon="-8.095133">
        <ele>890.0</ele>
        <time>2010-08-26T17:19:28Z</time>
      </trkpt>
      <trkpt lat="41.832050" lon="-8.095117">
        <ele>891.0</ele>
        <time>2010-08-26T17:19:30Z</time>
      </trkpt>
      <trkpt lat="41.832100" lon="-8.095117">
        <ele>891.0</ele>
        <time>2010-08-26T17:19:32Z</time>
      </trkpt>
      <trkpt lat="41.832133" lon="-8.095100">
        <ele>892.0</ele>
        <time>2010-08-26T17:19:34Z</time>
      </trkpt>
      <trkpt lat="41.832167" lon="-8.095100">
        <ele>892.0</ele>
        <time>2010-08-26T17:19:36Z</time>
      </trkpt>
      <trkpt lat="41.832200" lon="-8.095100">
        <ele>893.0</ele>
        <time>2010-08-26T17:19:38Z</time>
      </trkpt>
      <trkpt lat="41.832233" lon="-8.095100">
        <ele>893.0</ele>
        <time>2010-08-26T17:19:41Z</time>
      </trkpt>
      <trkpt lat="41.832267" lon="-8.095117">
        <ele>893.0</ele>
        <time>2010-08-26T17:19:43Z</time>
      </trkpt>
      <trkpt lat="41.832317" lon="-8.095133">
        <ele>893.0</ele>
        <time>2010-08-26T17:19:46Z</time>
      </trkpt>
      <trkpt lat="41.832333" lon="-8.095150">
        <ele>893.0</ele>
        <time>2010-08-26T17:19:48Z</time>
      </trkpt>
      <trkpt lat="41.832367" lon="-8.095183">
        <ele>893.0</ele>
        <time>2010-08-26T17:19:51Z</time>
      </trkpt>
      <trkpt lat="41.832400" lon="-8.095217">
        <ele>892.0</ele>
        <time>2010-08-26T17:19:53Z</time>
      </trkpt>
      <trkpt lat="41.832433" lon="-8.095233">
        <ele>892.0</ele>
        <time>2010-08-26T17:19:55Z</time>
      </trkpt>
      <trkpt lat="41.832450" lon="-8.095250">
        <ele>891.0</ele>
        <time>2010-08-26T17:19:57Z</time>
      </trkpt>
      <trkpt lat="41.832483" lon="-8.095267">
        <ele>890.0</ele>
        <time>2010-08-26T17:19:59Z</time>
      </trkpt>
      <trkpt lat="41.832517" lon="-8.095283">
        <ele>890.0</ele>
        <time>2010-08-26T17:20:01Z</time>
      </trkpt>
      <trkpt lat="41.832550" lon="-8.095300">
        <ele>890.0</ele>
        <time>2010-08-26T17:20:03Z</time>
      </trkpt>
      <trkpt lat="41.832583" lon="-8.095300">
        <ele>890.0</ele>
        <time>2010-08-26T17:20:05Z</time>
      </trkpt>
      <trkpt lat="41.832633" lon="-8.095317">
        <ele>889.0</ele>
        <time>2010-08-26T17:20:07Z</time>
      </trkpt>
      <trkpt lat="41.832667" lon="-8.095333">
        <ele>889.0</ele>
        <time>2010-08-26T17:20:09Z</time>
      </trkpt>
      <trkpt lat="41.832700" lon="-8.095333">
        <ele>889.0</ele>
        <time>2010-08-26T17:20:11Z</time>
      </trkpt>
      <trkpt lat="41.832733" lon="-8.095333">
        <ele>889.0</ele>
        <time>2010-08-26T17:20:13Z</time>
      </trkpt>
      <trkpt lat="41.832767" lon="-8.095350">
        <ele>888.0</ele>
        <time>2010-08-26T17:20:15Z</time>
      </trkpt>
      <trkpt lat="41.832800" lon="-8.095333">
        <ele>888.0</ele>
        <time>2010-08-26T17:20:17Z</time>
      </trkpt>
      <trkpt lat="41.832833" lon="-8.095333">
        <ele>888.0</ele>
        <time>2010-08-26T17:20:19Z</time>
      </trkpt>
      <trkpt lat="41.832867" lon="-8.095333">
        <ele>888.0</ele>
        <time>2010-08-26T17:20:21Z</time>
      </trkpt>
      <trkpt lat="41.832900" lon="-8.095317">
        <ele>888.0</ele>
        <time>2010-08-26T17:20:23Z</time>
      </trkpt>
      <trkpt lat="41.832933" lon="-8.095283">
        <ele>888.0</ele>
        <time>2010-08-26T17:20:25Z</time>
      </trkpt>
      <trkpt lat="41.832967" lon="-8.095267">
        <ele>888.0</ele>
        <time>2010-08-26T17:20:27Z</time>
      </trkpt>
      <trkpt lat="41.832983" lon="-8.095217">
        <ele>888.0</ele>
        <time>2010-08-26T17:20:29Z</time>
      </trkpt>
      <trkpt lat="41.833000" lon="-8.095183">
        <ele>888.0</ele>
        <time>2010-08-26T17:20:31Z</time>
      </trkpt>
      <trkpt lat="41.833017" lon="-8.095133">
        <ele>888.0</ele>
        <time>2010-08-26T17:20:33Z</time>
      </trkpt>
      <trkpt lat="41.833000" lon="-8.095083">
        <ele>889.0</ele>
        <time>2010-08-26T17:20:35Z</time>
      </trkpt>
      <trkpt lat="41.833000" lon="-8.095033">
        <ele>889.0</ele>
        <time>2010-08-26T17:20:37Z</time>
      </trkpt>
      <trkpt lat="41.832983" lon="-8.095000">
        <ele>889.0</ele>
        <time>2010-08-26T17:20:39Z</time>
      </trkpt>
      <trkpt lat="41.832967" lon="-8.094950">
        <ele>890.0</ele>
        <time>2010-08-26T17:20:41Z</time>
      </trkpt>
      <trkpt lat="41.832950" lon="-8.094917">
        <ele>890.0</ele>
        <time>2010-08-26T17:20:43Z</time>
      </trkpt>
      <trkpt lat="41.832917" lon="-8.094883">
        <ele>891.0</ele>
        <time>2010-08-26T17:20:45Z</time>
      </trkpt>
      <trkpt lat="41.832900" lon="-8.094833">
        <ele>891.0</ele>
        <time>2010-08-26T17:20:47Z</time>
      </trkpt>
      <trkpt lat="41.832867" lon="-8.094800">
        <ele>891.0</ele>
        <time>2010-08-26T17:20:49Z</time>
      </trkpt>
      <trkpt lat="41.832850" lon="-8.094767">
        <ele>891.0</ele>
        <time>2010-08-26T17:20:50Z</time>
      </trkpt>
      <trkpt lat="41.832850" lon="-8.094750">
        <ele>891.0</ele>
        <time>2010-08-26T17:20:51Z</time>
      </trkpt>
      <trkpt lat="41.832833" lon="-8.094717">
        <ele>891.0</ele>
        <time>2010-08-26T17:20:52Z</time>
      </trkpt>
      <trkpt lat="41.832833" lon="-8.094683">
        <ele>891.0</ele>
        <time>2010-08-26T17:20:53Z</time>
      </trkpt>
      <trkpt lat="41.832817" lon="-8.094650">
        <ele>891.0</ele>
        <time>2010-08-26T17:20:54Z</time>
      </trkpt>
      <trkpt lat="41.832817" lon="-8.094600">
        <ele>891.0</ele>
        <time>2010-08-26T17:20:55Z</time>
      </trkpt>
      <trkpt lat="41.832817" lon="-8.094567">
        <ele>890.0</ele>
        <time>2010-08-26T17:20:56Z</time>
      </trkpt>
      <trkpt lat="41.832817" lon="-8.094517">
        <ele>890.0</ele>
        <time>2010-08-26T17:20:57Z</time>
      </trkpt>
      <trkpt lat="41.832817" lon="-8.094467">
        <ele>891.0</ele>
        <time>2010-08-26T17:20:58Z</time>
      </trkpt>
      <trkpt lat="41.832833" lon="-8.094433">
        <ele>890.0</ele>
        <time>2010-08-26T17:20:59Z</time>
      </trkpt>
      <trkpt lat="41.832833" lon="-8.094400">
        <ele>890.0</ele>
        <time>2010-08-26T17:21:00Z</time>
      </trkpt>
      <trkpt lat="41.832833" lon="-8.094367">
        <ele>890.0</ele>
        <time>2010-08-26T17:21:01Z</time>
      </trkpt>
      <trkpt lat="41.832850" lon="-8.094333">
        <ele>890.0</ele>
        <time>2010-08-26T17:21:02Z</time>
      </trkpt>
      <trkpt lat="41.832850" lon="-8.094300">
        <ele>890.0</ele>
        <time>2010-08-26T17:21:03Z</time>
      </trkpt>
      <trkpt lat="41.832867" lon="-8.094267">
        <ele>890.0</ele>
        <time>2010-08-26T17:21:04Z</time>
      </trkpt>
      <trkpt lat="41.832867" lon="-8.094233">
        <ele>890.0</ele>
        <time>2010-08-26T17:21:05Z</time>
      </trkpt>
      <trkpt lat="41.832883" lon="-8.094200">
        <ele>891.0</ele>
        <time>2010-08-26T17:21:06Z</time>
      </trkpt>
      <trkpt lat="41.832883" lon="-8.094167">
        <ele>891.0</ele>
        <time>2010-08-26T17:21:07Z</time>
      </trkpt>
      <trkpt lat="41.832883" lon="-8.094133">
        <ele>891.0</ele>
        <time>2010-08-26T17:21:08Z</time>
      </trkpt>
      <trkpt lat="41.832900" lon="-8.094083">
        <ele>891.0</ele>
        <time>2010-08-26T17:21:09Z</time>
      </trkpt>
      <trkpt lat="41.832900" lon="-8.094050">
        <ele>891.0</ele>
        <time>2010-08-26T17:21:10Z</time>
      </trkpt>
      <trkpt lat="41.832917" lon="-8.094000">
        <ele>890.0</ele>
        <time>2010-08-26T17:21:11Z</time>
      </trkpt>
      <trkpt lat="41.832917" lon="-8.093967">
        <ele>890.0</ele>
        <time>2010-08-26T17:21:12Z</time>
      </trkpt>
      <trkpt lat="41.832917" lon="-8.093917">
        <ele>890.0</ele>
        <time>2010-08-26T17:21:13Z</time>
      </trkpt>
      <trkpt lat="41.832917" lon="-8.093883">
        <ele>890.0</ele>
        <time>2010-08-26T17:21:14Z</time>
      </trkpt>
      <trkpt lat="41.832917" lon="-8.093833">
        <ele>890.0</ele>
        <time>2010-08-26T17:21:15Z</time>
      </trkpt>
      <trkpt lat="41.832900" lon="-8.093800">
        <ele>890.0</ele>
        <time>2010-08-26T17:21:16Z</time>
      </trkpt>
      <trkpt lat="41.832900" lon="-8.093767">
        <ele>890.0</ele>
        <time>2010-08-26T17:21:17Z</time>
      </trkpt>
      <trkpt lat="41.832900" lon="-8.093717">
        <ele>890.0</ele>
        <time>2010-08-26T17:21:18Z</time>
      </trkpt>
      <trkpt lat="41.832883" lon="-8.093683">
        <ele>890.0</ele>
        <time>2010-08-26T17:21:19Z</time>
      </trkpt>
      <trkpt lat="41.832883" lon="-8.093633">
        <ele>890.0</ele>
        <time>2010-08-26T17:21:20Z</time>
      </trkpt>
      <trkpt lat="41.832883" lon="-8.093600">
        <ele>890.0</ele>
        <time>2010-08-26T17:21:21Z</time>
      </trkpt>
      <trkpt lat="41.832867" lon="-8.093550">
        <ele>890.0</ele>
        <time>2010-08-26T17:21:22Z</time>
      </trkpt>
      <trkpt lat="41.832867" lon="-8.093517">
        <ele>890.0</ele>
        <time>2010-08-26T17:21:23Z</time>
      </trkpt>
      <trkpt lat="41.832867" lon="-8.093467">
        <ele>890.0</ele>
        <time>2010-08-26T17:21:24Z</time>
      </trkpt>
      <trkpt lat="41.832867" lon="-8.093433">
        <ele>891.0</ele>
        <time>2010-08-26T17:21:25Z</time>
      </trkpt>
      <trkpt lat="41.832850" lon="-8.093383">
        <ele>891.0</ele>
        <time>2010-08-26T17:21:26Z</time>
      </trkpt>
      <trkpt lat="41.832850" lon="-8.093350">
        <ele>891.0</ele>
        <time>2010-08-26T17:21:27Z</time>
      </trkpt>
      <trkpt lat="41.832833" lon="-8.093317">
        <ele>891.0</ele>
        <time>2010-08-26T17:21:28Z</time>
      </trkpt>
      <trkpt lat="41.832833" lon="-8.093283">
        <ele>891.0</ele>
        <time>2010-08-26T17:21:29Z</time>
      </trkpt>
      <trkpt lat="41.832833" lon="-8.093250">
        <ele>891.0</ele>
        <time>2010-08-26T17:21:30Z</time>
      </trkpt>
      <trkpt lat="41.832833" lon="-8.093217">
        <ele>891.0</ele>
        <time>2010-08-26T17:21:31Z</time>
      </trkpt>
      <trkpt lat="41.832817" lon="-8.093183">
        <ele>891.0</ele>
        <time>2010-08-26T17:21:32Z</time>
      </trkpt>
      <trkpt lat="41.832817" lon="-8.093150">
        <ele>892.0</ele>
        <time>2010-08-26T17:21:33Z</time>
      </trkpt>
      <trkpt lat="41.832817" lon="-8.093100">
        <ele>892.0</ele>
        <time>2010-08-26T17:21:34Z</time>
      </trkpt>
      <trkpt lat="41.832800" lon="-8.093067">
        <ele>892.0</ele>
        <time>2010-08-26T17:21:35Z</time>
      </trkpt>
      <trkpt lat="41.832800" lon="-8.093017">
        <ele>892.0</ele>
        <time>2010-08-26T17:21:36Z</time>
      </trkpt>
      <trkpt lat="41.832800" lon="-8.092983">
        <ele>892.0</ele>
        <time>2010-08-26T17:21:37Z</time>
      </trkpt>
      <trkpt lat="41.832800" lon="-8.092950">
        <ele>892.0</ele>
        <time>2010-08-26T17:21:38Z</time>
      </trkpt>
      <trkpt lat="41.832817" lon="-8.092917">
        <ele>892.0</ele>
        <time>2010-08-26T17:21:39Z</time>
      </trkpt>
      <trkpt lat="41.832817" lon="-8.092867">
        <ele>892.0</ele>
        <time>2010-08-26T17:21:40Z</time>
      </trkpt>
      <trkpt lat="41.832833" lon="-8.092833">
        <ele>892.0</ele>
        <time>2010-08-26T17:21:41Z</time>
      </trkpt>
      <trkpt lat="41.832867" lon="-8.092800">
        <ele>892.0</ele>
        <time>2010-08-26T17:21:42Z</time>
      </trkpt>
      <trkpt lat="41.832883" lon="-8.092767">
        <ele>892.0</ele>
        <time>2010-08-26T17:21:43Z</time>
      </trkpt>
      <trkpt lat="41.832900" lon="-8.092750">
        <ele>892.0</ele>
        <time>2010-08-26T17:21:44Z</time>
      </trkpt>
      <trkpt lat="41.832917" lon="-8.092717">
        <ele>892.0</ele>
        <time>2010-08-26T17:21:45Z</time>
      </trkpt>
      <trkpt lat="41.832950" lon="-8.092700">
        <ele>892.0</ele>
        <time>2010-08-26T17:21:46Z</time>
      </trkpt>
      <trkpt lat="41.832967" lon="-8.092667">
        <ele>892.0</ele>
        <time>2010-08-26T17:21:47Z</time>
      </trkpt>
      <trkpt lat="41.833000" lon="-8.092650">
        <ele>893.0</ele>
        <time>2010-08-26T17:21:48Z</time>
      </trkpt>
      <trkpt lat="41.833017" lon="-8.092617">
        <ele>893.0</ele>
        <time>2010-08-26T17:21:49Z</time>
      </trkpt>
      <trkpt lat="41.833050" lon="-8.092600">
        <ele>893.0</ele>
        <time>2010-08-26T17:21:50Z</time>
      </trkpt>
      <trkpt lat="41.833067" lon="-8.092567">
        <ele>893.0</ele>
        <time>2010-08-26T17:21:51Z</time>
      </trkpt>
      <trkpt lat="41.833100" lon="-8.092533">
        <ele>893.0</ele>
        <time>2010-08-26T17:21:52Z</time>
      </trkpt>
      <trkpt lat="41.833117" lon="-8.092500">
        <ele>893.0</ele>
        <time>2010-08-26T17:21:53Z</time>
      </trkpt>
      <trkpt lat="41.833150" lon="-8.092467">
        <ele>893.0</ele>
        <time>2010-08-26T17:21:54Z</time>
      </trkpt>
      <trkpt lat="41.833167" lon="-8.092450">
        <ele>892.0</ele>
        <time>2010-08-26T17:21:55Z</time>
      </trkpt>
      <trkpt lat="41.833183" lon="-8.092400">
        <ele>892.0</ele>
        <time>2010-08-26T17:21:56Z</time>
      </trkpt>
      <trkpt lat="41.833200" lon="-8.092367">
        <ele>892.0</ele>
        <time>2010-08-26T17:21:57Z</time>
      </trkpt>
      <trkpt lat="41.833217" lon="-8.092333">
        <ele>892.0</ele>
        <time>2010-08-26T17:21:58Z</time>
      </trkpt>
      <trkpt lat="41.833233" lon="-8.092300">
        <ele>892.0</ele>
        <time>2010-08-26T17:21:59Z</time>
      </trkpt>
      <trkpt lat="41.833233" lon="-8.092267">
        <ele>893.0</ele>
        <time>2010-08-26T17:22:00Z</time>
      </trkpt>
      <trkpt lat="41.833250" lon="-8.092217">
        <ele>893.0</ele>
        <time>2010-08-26T17:22:02Z</time>
      </trkpt>
      <trkpt lat="41.833283" lon="-8.092183">
        <ele>893.0</ele>
        <time>2010-08-26T17:22:04Z</time>
      </trkpt>
      <trkpt lat="41.833300" lon="-8.092133">
        <ele>893.0</ele>
        <time>2010-08-26T17:22:06Z</time>
      </trkpt>
      <trkpt lat="41.833333" lon="-8.092100">
        <ele>894.0</ele>
        <time>2010-08-26T17:22:08Z</time>
      </trkpt>
      <trkpt lat="41.833350" lon="-8.092050">
        <ele>894.0</ele>
        <time>2010-08-26T17:22:10Z</time>
      </trkpt>
      <trkpt lat="41.833367" lon="-8.092000">
        <ele>895.0</ele>
        <time>2010-08-26T17:22:12Z</time>
      </trkpt>
      <trkpt lat="41.833383" lon="-8.091950">
        <ele>895.0</ele>
        <time>2010-08-26T17:22:14Z</time>
      </trkpt>
      <trkpt lat="41.833400" lon="-8.091900">
        <ele>895.0</ele>
        <time>2010-08-26T17:22:16Z</time>
      </trkpt>
      <trkpt lat="41.833400" lon="-8.091850">
        <ele>895.0</ele>
        <time>2010-08-26T17:22:18Z</time>
      </trkpt>
      <trkpt lat="41.833417" lon="-8.091800">
        <ele>896.0</ele>
        <time>2010-08-26T17:22:20Z</time>
      </trkpt>
      <trkpt lat="41.833417" lon="-8.091750">
        <ele>896.0</ele>
        <time>2010-08-26T17:22:22Z</time>
      </trkpt>
      <trkpt lat="41.833433" lon="-8.091700">
        <ele>897.0</ele>
        <time>2010-08-26T17:22:24Z</time>
      </trkpt>
      <trkpt lat="41.833450" lon="-8.091650">
        <ele>897.0</ele>
        <time>2010-08-26T17:22:26Z</time>
      </trkpt>
      <trkpt lat="41.833450" lon="-8.091600">
        <ele>898.0</ele>
        <time>2010-08-26T17:22:28Z</time>
      </trkpt>
      <trkpt lat="41.833467" lon="-8.091567">
        <ele>898.0</ele>
        <time>2010-08-26T17:22:30Z</time>
      </trkpt>
      <trkpt lat="41.833467" lon="-8.091517">
        <ele>898.0</ele>
        <time>2010-08-26T17:22:32Z</time>
      </trkpt>
      <trkpt lat="41.833467" lon="-8.091467">
        <ele>898.0</ele>
        <time>2010-08-26T17:22:34Z</time>
      </trkpt>
      <trkpt lat="41.833467" lon="-8.091400">
        <ele>898.0</ele>
        <time>2010-08-26T17:22:36Z</time>
      </trkpt>
      <trkpt lat="41.833483" lon="-8.091350">
        <ele>899.0</ele>
        <time>2010-08-26T17:22:38Z</time>
      </trkpt>
      <trkpt lat="41.833483" lon="-8.091300">
        <ele>899.0</ele>
        <time>2010-08-26T17:22:40Z</time>
      </trkpt>
      <trkpt lat="41.833483" lon="-8.091250">
        <ele>899.0</ele>
        <time>2010-08-26T17:22:42Z</time>
      </trkpt>
      <trkpt lat="41.833483" lon="-8.091200">
        <ele>899.0</ele>
        <time>2010-08-26T17:22:44Z</time>
      </trkpt>
      <trkpt lat="41.833467" lon="-8.091150">
        <ele>899.0</ele>
        <time>2010-08-26T17:22:46Z</time>
      </trkpt>
      <trkpt lat="41.833467" lon="-8.091100">
        <ele>899.0</ele>
        <time>2010-08-26T17:22:48Z</time>
      </trkpt>
      <trkpt lat="41.833467" lon="-8.091050">
        <ele>899.0</ele>
        <time>2010-08-26T17:22:50Z</time>
      </trkpt>
      <trkpt lat="41.833467" lon="-8.091000">
        <ele>899.0</ele>
        <time>2010-08-26T17:22:52Z</time>
      </trkpt>
      <trkpt lat="41.833467" lon="-8.090950">
        <ele>900.0</ele>
        <time>2010-08-26T17:22:54Z</time>
      </trkpt>
      <trkpt lat="41.833450" lon="-8.090900">
        <ele>900.0</ele>
        <time>2010-08-26T17:22:56Z</time>
      </trkpt>
      <trkpt lat="41.833433" lon="-8.090850">
        <ele>900.0</ele>
        <time>2010-08-26T17:22:59Z</time>
      </trkpt>
      <trkpt lat="41.833400" lon="-8.090817">
        <ele>892.0</ele>
        <time>2010-08-26T17:23:59Z</time>
      </trkpt>
      <trkpt lat="41.833383" lon="-8.090783">
        <ele>892.0</ele>
        <time>2010-08-26T17:24:02Z</time>
      </trkpt>
      <trkpt lat="41.833383" lon="-8.090750">
        <ele>893.0</ele>
        <time>2010-08-26T17:24:04Z</time>
      </trkpt>
      <trkpt lat="41.833350" lon="-8.090700">
        <ele>893.0</ele>
        <time>2010-08-26T17:24:06Z</time>
      </trkpt>
      <trkpt lat="41.833333" lon="-8.090667">
        <ele>893.0</ele>
        <time>2010-08-26T17:24:08Z</time>
      </trkpt>
      <trkpt lat="41.833317" lon="-8.090617">
        <ele>894.0</ele>
        <time>2010-08-26T17:24:10Z</time>
      </trkpt>
      <trkpt lat="41.833300" lon="-8.090583">
        <ele>894.0</ele>
        <time>2010-08-26T17:24:12Z</time>
      </trkpt>
      <trkpt lat="41.833283" lon="-8.090533">
        <ele>895.0</ele>
        <time>2010-08-26T17:24:14Z</time>
      </trkpt>
      <trkpt lat="41.833267" lon="-8.090483">
        <ele>895.0</ele>
        <time>2010-08-26T17:24:16Z</time>
      </trkpt>
      <trkpt lat="41.833250" lon="-8.090433">
        <ele>896.0</ele>
        <time>2010-08-26T17:24:18Z</time>
      </trkpt>
      <trkpt lat="41.833250" lon="-8.090400">
        <ele>896.0</ele>
        <time>2010-08-26T17:24:20Z</time>
      </trkpt>
      <trkpt lat="41.833233" lon="-8.090350">
        <ele>896.0</ele>
        <time>2010-08-26T17:24:22Z</time>
      </trkpt>
      <trkpt lat="41.833217" lon="-8.090317">
        <ele>896.0</ele>
        <time>2010-08-26T17:24:24Z</time>
      </trkpt>
      <trkpt lat="41.833200" lon="-8.090267">
        <ele>896.0</ele>
        <time>2010-08-26T17:24:26Z</time>
      </trkpt>
      <trkpt lat="41.833183" lon="-8.090233">
        <ele>896.0</ele>
        <time>2010-08-26T17:24:28Z</time>
      </trkpt>
      <trkpt lat="41.833150" lon="-8.090200">
        <ele>897.0</ele>
        <time>2010-08-26T17:24:30Z</time>
      </trkpt>
      <trkpt lat="41.833133" lon="-8.090150">
        <ele>897.0</ele>
        <time>2010-08-26T17:24:32Z</time>
      </trkpt>
      <trkpt lat="41.833100" lon="-8.090117">
        <ele>897.0</ele>
        <time>2010-08-26T17:24:34Z</time>
      </trkpt>
      <trkpt lat="41.833083" lon="-8.090083">
        <ele>898.0</ele>
        <time>2010-08-26T17:24:36Z</time>
      </trkpt>
      <trkpt lat="41.833050" lon="-8.090050">
        <ele>898.0</ele>
        <time>2010-08-26T17:24:38Z</time>
      </trkpt>
      <trkpt lat="41.833033" lon="-8.090017">
        <ele>898.0</ele>
        <time>2010-08-26T17:24:40Z</time>
      </trkpt>
      <trkpt lat="41.833000" lon="-8.089983">
        <ele>898.0</ele>
        <time>2010-08-26T17:24:42Z</time>
      </trkpt>
      <trkpt lat="41.832983" lon="-8.089967">
        <ele>899.0</ele>
        <time>2010-08-26T17:24:44Z</time>
      </trkpt>
      <trkpt lat="41.832950" lon="-8.089933">
        <ele>899.0</ele>
        <time>2010-08-26T17:24:46Z</time>
      </trkpt>
      <trkpt lat="41.832917" lon="-8.089900">
        <ele>899.0</ele>
        <time>2010-08-26T17:24:48Z</time>
      </trkpt>
      <trkpt lat="41.832900" lon="-8.089867">
        <ele>899.0</ele>
        <time>2010-08-26T17:24:50Z</time>
      </trkpt>
      <trkpt lat="41.832867" lon="-8.089850">
        <ele>900.0</ele>
        <time>2010-08-26T17:24:52Z</time>
      </trkpt>
      <trkpt lat="41.832833" lon="-8.089817">
        <ele>900.0</ele>
        <time>2010-08-26T17:24:54Z</time>
      </trkpt>
      <trkpt lat="41.832817" lon="-8.089783">
        <ele>901.0</ele>
        <time>2010-08-26T17:24:56Z</time>
      </trkpt>
      <trkpt lat="41.832783" lon="-8.089750">
        <ele>901.0</ele>
        <time>2010-08-26T17:24:58Z</time>
      </trkpt>
      <trkpt lat="41.832767" lon="-8.089717">
        <ele>901.0</ele>
        <time>2010-08-26T17:25:00Z</time>
      </trkpt>
      <trkpt lat="41.832733" lon="-8.089700">
        <ele>902.0</ele>
        <time>2010-08-26T17:25:02Z</time>
      </trkpt>
      <trkpt lat="41.832700" lon="-8.089667">
        <ele>902.0</ele>
        <time>2010-08-26T17:25:04Z</time>
      </trkpt>
      <trkpt lat="41.832667" lon="-8.089650">
        <ele>903.0</ele>
        <time>2010-08-26T17:25:06Z</time>
      </trkpt>
      <trkpt lat="41.832633" lon="-8.089633">
        <ele>903.0</ele>
        <time>2010-08-26T17:25:08Z</time>
      </trkpt>
      <trkpt lat="41.832600" lon="-8.089600">
        <ele>903.0</ele>
        <time>2010-08-26T17:25:10Z</time>
      </trkpt>
      <trkpt lat="41.832583" lon="-8.089583">
        <ele>904.0</ele>
        <time>2010-08-26T17:25:12Z</time>
      </trkpt>
      <trkpt lat="41.832550" lon="-8.089550">
        <ele>904.0</ele>
        <time>2010-08-26T17:25:14Z</time>
      </trkpt>
      <trkpt lat="41.832517" lon="-8.089517">
        <ele>904.0</ele>
        <time>2010-08-26T17:25:16Z</time>
      </trkpt>
      <trkpt lat="41.832500" lon="-8.089483">
        <ele>905.0</ele>
        <time>2010-08-26T17:25:18Z</time>
      </trkpt>
      <trkpt lat="41.832467" lon="-8.089450">
        <ele>905.0</ele>
        <time>2010-08-26T17:25:20Z</time>
      </trkpt>
      <trkpt lat="41.832433" lon="-8.089433">
        <ele>905.0</ele>
        <time>2010-08-26T17:25:22Z</time>
      </trkpt>
      <trkpt lat="41.832417" lon="-8.089400">
        <ele>906.0</ele>
        <time>2010-08-26T17:25:24Z</time>
      </trkpt>
      <trkpt lat="41.832383" lon="-8.089367">
        <ele>906.0</ele>
        <time>2010-08-26T17:25:26Z</time>
      </trkpt>
      <trkpt lat="41.832350" lon="-8.089350">
        <ele>906.0</ele>
        <time>2010-08-26T17:25:28Z</time>
      </trkpt>
      <trkpt lat="41.832317" lon="-8.089317">
        <ele>906.0</ele>
        <time>2010-08-26T17:25:30Z</time>
      </trkpt>
      <trkpt lat="41.832283" lon="-8.089300">
        <ele>907.0</ele>
        <time>2010-08-26T17:25:32Z</time>
      </trkpt>
      <trkpt lat="41.832250" lon="-8.089283">
        <ele>907.0</ele>
        <time>2010-08-26T17:25:34Z</time>
      </trkpt>
      <trkpt lat="41.832217" lon="-8.089267">
        <ele>907.0</ele>
        <time>2010-08-26T17:25:36Z</time>
      </trkpt>
      <trkpt lat="41.832183" lon="-8.089233">
        <ele>907.0</ele>
        <time>2010-08-26T17:25:38Z</time>
      </trkpt>
      <trkpt lat="41.832167" lon="-8.089217">
        <ele>907.0</ele>
        <time>2010-08-26T17:25:40Z</time>
      </trkpt>
      <trkpt lat="41.832133" lon="-8.089200">
        <ele>908.0</ele>
        <time>2010-08-26T17:25:42Z</time>
      </trkpt>
      <trkpt lat="41.832100" lon="-8.089183">
        <ele>908.0</ele>
        <time>2010-08-26T17:25:44Z</time>
      </trkpt>
      <trkpt lat="41.832067" lon="-8.089167">
        <ele>909.0</ele>
        <time>2010-08-26T17:25:46Z</time>
      </trkpt>
      <trkpt lat="41.832033" lon="-8.089150">
        <ele>909.0</ele>
        <time>2010-08-26T17:25:48Z</time>
      </trkpt>
      <trkpt lat="41.832000" lon="-8.089133">
        <ele>910.0</ele>
        <time>2010-08-26T17:25:50Z</time>
      </trkpt>
      <trkpt lat="41.831967" lon="-8.089117">
        <ele>910.0</ele>
        <time>2010-08-26T17:25:52Z</time>
      </trkpt>
      <trkpt lat="41.831933" lon="-8.089100">
        <ele>911.0</ele>
        <time>2010-08-26T17:25:54Z</time>
      </trkpt>
      <trkpt lat="41.831900" lon="-8.089083">
        <ele>911.0</ele>
        <time>2010-08-26T17:25:56Z</time>
      </trkpt>
      <trkpt lat="41.831867" lon="-8.089067">
        <ele>912.0</ele>
        <time>2010-08-26T17:25:58Z</time>
      </trkpt>
      <trkpt lat="41.831850" lon="-8.089050">
        <ele>913.0</ele>
        <time>2010-08-26T17:26:00Z</time>
      </trkpt>
      <trkpt lat="41.831817" lon="-8.089033">
        <ele>913.0</ele>
        <time>2010-08-26T17:26:02Z</time>
      </trkpt>
      <trkpt lat="41.831783" lon="-8.089017">
        <ele>914.0</ele>
        <time>2010-08-26T17:26:04Z</time>
      </trkpt>
      <trkpt lat="41.831750" lon="-8.089000">
        <ele>915.0</ele>
        <time>2010-08-26T17:26:06Z</time>
      </trkpt>
      <trkpt lat="41.831717" lon="-8.088967">
        <ele>915.0</ele>
        <time>2010-08-26T17:26:08Z</time>
      </trkpt>
      <trkpt lat="41.831683" lon="-8.088950">
        <ele>915.0</ele>
        <time>2010-08-26T17:26:10Z</time>
      </trkpt>
      <trkpt lat="41.831650" lon="-8.088917">
        <ele>916.0</ele>
        <time>2010-08-26T17:26:12Z</time>
      </trkpt>
      <trkpt lat="41.831617" lon="-8.088900">
        <ele>916.0</ele>
        <time>2010-08-26T17:26:14Z</time>
      </trkpt>
      <trkpt lat="41.831583" lon="-8.088883">
        <ele>916.0</ele>
        <time>2010-08-26T17:26:16Z</time>
      </trkpt>
      <trkpt lat="41.831567" lon="-8.088867">
        <ele>916.0</ele>
        <time>2010-08-26T17:26:18Z</time>
      </trkpt>
      <trkpt lat="41.831533" lon="-8.088850">
        <ele>916.0</ele>
        <time>2010-08-26T17:26:20Z</time>
      </trkpt>
      <trkpt lat="41.831500" lon="-8.088833">
        <ele>916.0</ele>
        <time>2010-08-26T17:26:22Z</time>
      </trkpt>
      <trkpt lat="41.831450" lon="-8.088817">
        <ele>916.0</ele>
        <time>2010-08-26T17:26:26Z</time>
      </trkpt>
      <trkpt lat="41.831483" lon="-8.088767">
        <ele>931.0</ele>
        <time>2010-08-26T17:28:12Z</time>
      </trkpt>
      <trkpt lat="41.831533" lon="-8.088750">
        <ele>963.0</ele>
        <time>2010-08-26T17:30:23Z</time>
      </trkpt>
      <trkpt lat="41.831483" lon="-8.088767">
        <ele>944.0</ele>
        <time>2010-08-26T17:31:06Z</time>
      </trkpt>
      <trkpt lat="41.831450" lon="-8.088750">
        <ele>926.0</ele>
        <time>2010-08-26T17:32:32Z</time>
      </trkpt>
      <trkpt lat="41.831417" lon="-8.088700">
        <ele>928.0</ele>
        <time>2010-08-26T17:32:47Z</time>
      </trkpt>
      <trkpt lat="41.831367" lon="-8.088700">
        <ele>916.0</ele>
        <time>2010-08-26T17:33:11Z</time>
      </trkpt>
      <trkpt lat="41.831350" lon="-8.088750">
        <ele>907.0</ele>
        <time>2010-08-26T17:33:33Z</time>
      </trkpt>
      <trkpt lat="41.831367" lon="-8.088817">
        <ele>902.0</ele>
        <time>2010-08-26T17:33:53Z</time>
      </trkpt>
      <trkpt lat="41.831317" lon="-8.088800">
        <ele>896.0</ele>
        <time>2010-08-26T17:35:14Z</time>
      </trkpt>
      <trkpt lat="41.831283" lon="-8.088767">
        <ele>897.0</ele>
        <time>2010-08-26T17:35:17Z</time>
      </trkpt>
      <trkpt lat="41.831250" lon="-8.088733">
        <ele>899.0</ele>
        <time>2010-08-26T17:35:20Z</time>
      </trkpt>
      <trkpt lat="41.831217" lon="-8.088733">
        <ele>900.0</ele>
        <time>2010-08-26T17:35:22Z</time>
      </trkpt>
      <trkpt lat="41.831183" lon="-8.088700">
        <ele>901.0</ele>
        <time>2010-08-26T17:35:24Z</time>
      </trkpt>
      <trkpt lat="41.831167" lon="-8.088683">
        <ele>902.0</ele>
        <time>2010-08-26T17:35:26Z</time>
      </trkpt>
      <trkpt lat="41.831133" lon="-8.088633">
        <ele>903.0</ele>
        <time>2010-08-26T17:35:29Z</time>
      </trkpt>
      <trkpt lat="41.831117" lon="-8.088600">
        <ele>904.0</ele>
        <time>2010-08-26T17:35:31Z</time>
      </trkpt>
      <trkpt lat="41.831083" lon="-8.088583">
        <ele>905.0</ele>
        <time>2010-08-26T17:35:33Z</time>
      </trkpt>
      <trkpt lat="41.831067" lon="-8.088567">
        <ele>906.0</ele>
        <time>2010-08-26T17:35:35Z</time>
      </trkpt>
      <trkpt lat="41.831033" lon="-8.088533">
        <ele>907.0</ele>
        <time>2010-08-26T17:35:37Z</time>
      </trkpt>
      <trkpt lat="41.831000" lon="-8.088517">
        <ele>908.0</ele>
        <time>2010-08-26T17:35:39Z</time>
      </trkpt>
      <trkpt lat="41.830967" lon="-8.088500">
        <ele>909.0</ele>
        <time>2010-08-26T17:35:41Z</time>
      </trkpt>
      <trkpt lat="41.830933" lon="-8.088483">
        <ele>910.0</ele>
        <time>2010-08-26T17:35:43Z</time>
      </trkpt>
      <trkpt lat="41.830900" lon="-8.088467">
        <ele>910.0</ele>
        <time>2010-08-26T17:35:45Z</time>
      </trkpt>
      <trkpt lat="41.830883" lon="-8.088450">
        <ele>911.0</ele>
        <time>2010-08-26T17:35:47Z</time>
      </trkpt>
      <trkpt lat="41.830850" lon="-8.088417">
        <ele>911.0</ele>
        <time>2010-08-26T17:35:49Z</time>
      </trkpt>
      <trkpt lat="41.830833" lon="-8.088383">
        <ele>911.0</ele>
        <time>2010-08-26T17:35:51Z</time>
      </trkpt>
      <trkpt lat="41.830833" lon="-8.088333">
        <ele>911.0</ele>
        <time>2010-08-26T17:35:53Z</time>
      </trkpt>
      <trkpt lat="41.830833" lon="-8.088283">
        <ele>911.0</ele>
        <time>2010-08-26T17:35:55Z</time>
      </trkpt>
      <trkpt lat="41.830850" lon="-8.088250">
        <ele>911.0</ele>
        <time>2010-08-26T17:35:57Z</time>
      </trkpt>
      <trkpt lat="41.830883" lon="-8.088217">
        <ele>913.0</ele>
        <time>2010-08-26T17:35:59Z</time>
      </trkpt>
      <trkpt lat="41.830917" lon="-8.088183">
        <ele>914.0</ele>
        <time>2010-08-26T17:36:01Z</time>
      </trkpt>
      <trkpt lat="41.830950" lon="-8.088167">
        <ele>915.0</ele>
        <time>2010-08-26T17:36:03Z</time>
      </trkpt>
      <trkpt lat="41.830983" lon="-8.088133">
        <ele>916.0</ele>
        <time>2010-08-26T17:36:05Z</time>
      </trkpt>
      <trkpt lat="41.831017" lon="-8.088117">
        <ele>917.0</ele>
        <time>2010-08-26T17:36:07Z</time>
      </trkpt>
      <trkpt lat="41.831050" lon="-8.088083">
        <ele>919.0</ele>
        <time>2010-08-26T17:36:09Z</time>
      </trkpt>
      <trkpt lat="41.831083" lon="-8.088067">
        <ele>920.0</ele>
        <time>2010-08-26T17:36:11Z</time>
      </trkpt>
      <trkpt lat="41.831100" lon="-8.088033">
        <ele>921.0</ele>
        <time>2010-08-26T17:36:13Z</time>
      </trkpt>
      <trkpt lat="41.831133" lon="-8.088000">
        <ele>922.0</ele>
        <time>2010-08-26T17:36:16Z</time>
      </trkpt>
      <trkpt lat="41.831150" lon="-8.087933">
        <ele>922.0</ele>
        <time>2010-08-26T17:36:20Z</time>
      </trkpt>
      <trkpt lat="41.831150" lon="-8.087900">
        <ele>922.0</ele>
        <time>2010-08-26T17:36:22Z</time>
      </trkpt>
      <trkpt lat="41.831150" lon="-8.087850">
        <ele>922.0</ele>
        <time>2010-08-26T17:36:24Z</time>
      </trkpt>
      <trkpt lat="41.831150" lon="-8.087800">
        <ele>922.0</ele>
        <time>2010-08-26T17:36:26Z</time>
      </trkpt>
      <trkpt lat="41.831133" lon="-8.087750">
        <ele>922.0</ele>
        <time>2010-08-26T17:36:28Z</time>
      </trkpt>
      <trkpt lat="41.831133" lon="-8.087700">
        <ele>922.0</ele>
        <time>2010-08-26T17:36:30Z</time>
      </trkpt>
      <trkpt lat="41.831133" lon="-8.087650">
        <ele>922.0</ele>
        <time>2010-08-26T17:36:32Z</time>
      </trkpt>
      <trkpt lat="41.831133" lon="-8.087600">
        <ele>922.0</ele>
        <time>2010-08-26T17:36:34Z</time>
      </trkpt>
      <trkpt lat="41.831117" lon="-8.087550">
        <ele>922.0</ele>
        <time>2010-08-26T17:36:36Z</time>
      </trkpt>
      <trkpt lat="41.831133" lon="-8.087517">
        <ele>922.0</ele>
        <time>2010-08-26T17:36:38Z</time>
      </trkpt>
      <trkpt lat="41.831133" lon="-8.087467">
        <ele>922.0</ele>
        <time>2010-08-26T17:36:40Z</time>
      </trkpt>
      <trkpt lat="41.831150" lon="-8.087417">
        <ele>922.0</ele>
        <time>2010-08-26T17:36:42Z</time>
      </trkpt>
      <trkpt lat="41.831150" lon="-8.087367">
        <ele>922.0</ele>
        <time>2010-08-26T17:36:44Z</time>
      </trkpt>
      <trkpt lat="41.831167" lon="-8.087333">
        <ele>923.0</ele>
        <time>2010-08-26T17:36:46Z</time>
      </trkpt>
      <trkpt lat="41.831167" lon="-8.087283">
        <ele>923.0</ele>
        <time>2010-08-26T17:36:48Z</time>
      </trkpt>
      <trkpt lat="41.831167" lon="-8.087233">
        <ele>923.0</ele>
        <time>2010-08-26T17:36:50Z</time>
      </trkpt>
      <trkpt lat="41.831167" lon="-8.087183">
        <ele>923.0</ele>
        <time>2010-08-26T17:36:52Z</time>
      </trkpt>
      <trkpt lat="41.831167" lon="-8.087117">
        <ele>923.0</ele>
        <time>2010-08-26T17:36:54Z</time>
      </trkpt>
      <trkpt lat="41.831167" lon="-8.087067">
        <ele>923.0</ele>
        <time>2010-08-26T17:36:56Z</time>
      </trkpt>
      <trkpt lat="41.831167" lon="-8.087017">
        <ele>922.0</ele>
        <time>2010-08-26T17:36:58Z</time>
      </trkpt>
      <trkpt lat="41.831150" lon="-8.086950">
        <ele>922.0</ele>
        <time>2010-08-26T17:37:00Z</time>
      </trkpt>
      <trkpt lat="41.831133" lon="-8.086900">
        <ele>921.0</ele>
        <time>2010-08-26T17:37:02Z</time>
      </trkpt>
      <trkpt lat="41.831133" lon="-8.086850">
        <ele>921.0</ele>
        <time>2010-08-26T17:37:04Z</time>
      </trkpt>
      <trkpt lat="41.831117" lon="-8.086800">
        <ele>921.0</ele>
        <time>2010-08-26T17:37:06Z</time>
      </trkpt>
      <trkpt lat="41.831100" lon="-8.086750">
        <ele>921.0</ele>
        <time>2010-08-26T17:37:08Z</time>
      </trkpt>
      <trkpt lat="41.831100" lon="-8.086700">
        <ele>922.0</ele>
        <time>2010-08-26T17:37:10Z</time>
      </trkpt>
      <trkpt lat="41.831083" lon="-8.086650">
        <ele>922.0</ele>
        <time>2010-08-26T17:37:12Z</time>
      </trkpt>
      <trkpt lat="41.831083" lon="-8.086583">
        <ele>922.0</ele>
        <time>2010-08-26T17:37:14Z</time>
      </trkpt>
      <trkpt lat="41.831083" lon="-8.086533">
        <ele>922.0</ele>
        <time>2010-08-26T17:37:16Z</time>
      </trkpt>
      <trkpt lat="41.831083" lon="-8.086500">
        <ele>922.0</ele>
        <time>2010-08-26T17:37:18Z</time>
      </trkpt>
      <trkpt lat="41.831083" lon="-8.086450">
        <ele>922.0</ele>
        <time>2010-08-26T17:37:20Z</time>
      </trkpt>
      <trkpt lat="41.831083" lon="-8.086400">
        <ele>923.0</ele>
        <time>2010-08-26T17:37:22Z</time>
      </trkpt>
      <trkpt lat="41.831083" lon="-8.086350">
        <ele>923.0</ele>
        <time>2010-08-26T17:37:24Z</time>
      </trkpt>
      <trkpt lat="41.831067" lon="-8.086300">
        <ele>924.0</ele>
        <time>2010-08-26T17:37:26Z</time>
      </trkpt>
      <trkpt lat="41.831067" lon="-8.086250">
        <ele>924.0</ele>
        <time>2010-08-26T17:37:28Z</time>
      </trkpt>
      <trkpt lat="41.831067" lon="-8.086200">
        <ele>924.0</ele>
        <time>2010-08-26T17:37:30Z</time>
      </trkpt>
      <trkpt lat="41.831067" lon="-8.086150">
        <ele>925.0</ele>
        <time>2010-08-26T17:37:32Z</time>
      </trkpt>
      <trkpt lat="41.831067" lon="-8.086117">
        <ele>925.0</ele>
        <time>2010-08-26T17:37:34Z</time>
      </trkpt>
      <trkpt lat="41.831067" lon="-8.086067">
        <ele>926.0</ele>
        <time>2010-08-26T17:37:36Z</time>
      </trkpt>
      <trkpt lat="41.831067" lon="-8.086017">
        <ele>926.0</ele>
        <time>2010-08-26T17:37:38Z</time>
      </trkpt>
      <trkpt lat="41.831083" lon="-8.085967">
        <ele>927.0</ele>
        <time>2010-08-26T17:37:40Z</time>
      </trkpt>
      <trkpt lat="41.831083" lon="-8.085917">
        <ele>927.0</ele>
        <time>2010-08-26T17:37:42Z</time>
      </trkpt>
      <trkpt lat="41.831083" lon="-8.085867">
        <ele>927.0</ele>
        <time>2010-08-26T17:37:44Z</time>
      </trkpt>
      <trkpt lat="41.831083" lon="-8.085817">
        <ele>927.0</ele>
        <time>2010-08-26T17:37:46Z</time>
      </trkpt>
      <trkpt lat="41.831100" lon="-8.085767">
        <ele>928.0</ele>
        <time>2010-08-26T17:37:48Z</time>
      </trkpt>
      <trkpt lat="41.831117" lon="-8.085733">
        <ele>929.0</ele>
        <time>2010-08-26T17:37:50Z</time>
      </trkpt>
      <trkpt lat="41.831133" lon="-8.085700">
        <ele>929.0</ele>
        <time>2010-08-26T17:37:52Z</time>
      </trkpt>
      <trkpt lat="41.831133" lon="-8.085650">
        <ele>929.0</ele>
        <time>2010-08-26T17:37:54Z</time>
      </trkpt>
      <trkpt lat="41.831150" lon="-8.085617">
        <ele>930.0</ele>
        <time>2010-08-26T17:37:56Z</time>
      </trkpt>
      <trkpt lat="41.831167" lon="-8.085567">
        <ele>930.0</ele>
        <time>2010-08-26T17:37:58Z</time>
      </trkpt>
      <trkpt lat="41.831167" lon="-8.085533">
        <ele>930.0</ele>
        <time>2010-08-26T17:38:00Z</time>
      </trkpt>
      <trkpt lat="41.831183" lon="-8.085483">
        <ele>930.0</ele>
        <time>2010-08-26T17:38:02Z</time>
      </trkpt>
      <trkpt lat="41.831217" lon="-8.085433">
        <ele>931.0</ele>
        <time>2010-08-26T17:38:04Z</time>
      </trkpt>
      <trkpt lat="41.831233" lon="-8.085400">
        <ele>931.0</ele>
        <time>2010-08-26T17:38:06Z</time>
      </trkpt>
      <trkpt lat="41.831267" lon="-8.085367">
        <ele>931.0</ele>
        <time>2010-08-26T17:38:08Z</time>
      </trkpt>
      <trkpt lat="41.831283" lon="-8.085333">
        <ele>932.0</ele>
        <time>2010-08-26T17:38:10Z</time>
      </trkpt>
      <trkpt lat="41.831300" lon="-8.085300">
        <ele>932.0</ele>
        <time>2010-08-26T17:38:12Z</time>
      </trkpt>
      <trkpt lat="41.831317" lon="-8.085267">
        <ele>933.0</ele>
        <time>2010-08-26T17:38:14Z</time>
      </trkpt>
      <trkpt lat="41.831333" lon="-8.085200">
        <ele>934.0</ele>
        <time>2010-08-26T17:38:17Z</time>
      </trkpt>
      <trkpt lat="41.831333" lon="-8.085150">
        <ele>934.0</ele>
        <time>2010-08-26T17:38:19Z</time>
      </trkpt>
      <trkpt lat="41.831350" lon="-8.085100">
        <ele>934.0</ele>
        <time>2010-08-26T17:38:21Z</time>
      </trkpt>
      <trkpt lat="41.831333" lon="-8.085050">
        <ele>934.0</ele>
        <time>2010-08-26T17:38:23Z</time>
      </trkpt>
      <trkpt lat="41.831333" lon="-8.085000">
        <ele>934.0</ele>
        <time>2010-08-26T17:38:25Z</time>
      </trkpt>
      <trkpt lat="41.831350" lon="-8.084950">
        <ele>934.0</ele>
        <time>2010-08-26T17:38:28Z</time>
      </trkpt>
      <trkpt lat="41.831367" lon="-8.084900">
        <ele>935.0</ele>
        <time>2010-08-26T17:38:30Z</time>
      </trkpt>
      <trkpt lat="41.831383" lon="-8.084867">
        <ele>935.0</ele>
        <time>2010-08-26T17:38:32Z</time>
      </trkpt>
      <trkpt lat="41.831400" lon="-8.084817">
        <ele>936.0</ele>
        <time>2010-08-26T17:38:35Z</time>
      </trkpt>
      <trkpt lat="41.831433" lon="-8.084767">
        <ele>938.0</ele>
        <time>2010-08-26T17:38:38Z</time>
      </trkpt>
      <trkpt lat="41.831450" lon="-8.084717">
        <ele>938.0</ele>
        <time>2010-08-26T17:38:40Z</time>
      </trkpt>
      <trkpt lat="41.831467" lon="-8.084700">
        <ele>939.0</ele>
        <time>2010-08-26T17:38:42Z</time>
      </trkpt>
      <trkpt lat="41.831483" lon="-8.084650">
        <ele>940.0</ele>
        <time>2010-08-26T17:38:44Z</time>
      </trkpt>
      <trkpt lat="41.831483" lon="-8.084600">
        <ele>940.0</ele>
        <time>2010-08-26T17:38:46Z</time>
      </trkpt>
      <trkpt lat="41.831500" lon="-8.084550">
        <ele>940.0</ele>
        <time>2010-08-26T17:38:48Z</time>
      </trkpt>
      <trkpt lat="41.831500" lon="-8.084500">
        <ele>940.0</ele>
        <time>2010-08-26T17:38:50Z</time>
      </trkpt>
      <trkpt lat="41.831500" lon="-8.084467">
        <ele>940.0</ele>
        <time>2010-08-26T17:38:52Z</time>
      </trkpt>
      <trkpt lat="41.831517" lon="-8.084417">
        <ele>940.0</ele>
        <time>2010-08-26T17:38:54Z</time>
      </trkpt>
      <trkpt lat="41.831517" lon="-8.084367">
        <ele>940.0</ele>
        <time>2010-08-26T17:38:56Z</time>
      </trkpt>
      <trkpt lat="41.831517" lon="-8.084317">
        <ele>940.0</ele>
        <time>2010-08-26T17:38:58Z</time>
      </trkpt>
      <trkpt lat="41.831517" lon="-8.084267">
        <ele>940.0</ele>
        <time>2010-08-26T17:39:00Z</time>
      </trkpt>
      <trkpt lat="41.831517" lon="-8.084200">
        <ele>940.0</ele>
        <time>2010-08-26T17:39:02Z</time>
      </trkpt>
      <trkpt lat="41.831517" lon="-8.084150">
        <ele>940.0</ele>
        <time>2010-08-26T17:39:04Z</time>
      </trkpt>
      <trkpt lat="41.831500" lon="-8.084100">
        <ele>939.0</ele>
        <time>2010-08-26T17:39:06Z</time>
      </trkpt>
      <trkpt lat="41.831483" lon="-8.084050">
        <ele>939.0</ele>
        <time>2010-08-26T17:39:08Z</time>
      </trkpt>
      <trkpt lat="41.831467" lon="-8.084017">
        <ele>939.0</ele>
        <time>2010-08-26T17:39:10Z</time>
      </trkpt>
      <trkpt lat="41.831433" lon="-8.083983">
        <ele>939.0</ele>
        <time>2010-08-26T17:39:12Z</time>
      </trkpt>
      <trkpt lat="41.831400" lon="-8.083950">
        <ele>939.0</ele>
        <time>2010-08-26T17:39:14Z</time>
      </trkpt>
      <trkpt lat="41.831367" lon="-8.083917">
        <ele>939.0</ele>
        <time>2010-08-26T17:39:16Z</time>
      </trkpt>
      <trkpt lat="41.831350" lon="-8.083883">
        <ele>939.0</ele>
        <time>2010-08-26T17:39:18Z</time>
      </trkpt>
      <trkpt lat="41.831317" lon="-8.083850">
        <ele>939.0</ele>
        <time>2010-08-26T17:39:20Z</time>
      </trkpt>
      <trkpt lat="41.831283" lon="-8.083800">
        <ele>939.0</ele>
        <time>2010-08-26T17:39:22Z</time>
      </trkpt>
      <trkpt lat="41.831267" lon="-8.083767">
        <ele>939.0</ele>
        <time>2010-08-26T17:39:23Z</time>
      </trkpt>
      <trkpt lat="41.831267" lon="-8.083733">
        <ele>939.0</ele>
        <time>2010-08-26T17:39:24Z</time>
      </trkpt>
      <trkpt lat="41.831250" lon="-8.083717">
        <ele>938.0</ele>
        <time>2010-08-26T17:39:25Z</time>
      </trkpt>
      <trkpt lat="41.831233" lon="-8.083683">
        <ele>938.0</ele>
        <time>2010-08-26T17:39:26Z</time>
      </trkpt>
      <trkpt lat="41.831233" lon="-8.083650">
        <ele>938.0</ele>
        <time>2010-08-26T17:39:27Z</time>
      </trkpt>
      <trkpt lat="41.831217" lon="-8.083617">
        <ele>938.0</ele>
        <time>2010-08-26T17:39:28Z</time>
      </trkpt>
      <trkpt lat="41.831217" lon="-8.083583">
        <ele>937.0</ele>
        <time>2010-08-26T17:39:29Z</time>
      </trkpt>
      <trkpt lat="41.831200" lon="-8.083550">
        <ele>937.0</ele>
        <time>2010-08-26T17:39:30Z</time>
      </trkpt>
      <trkpt lat="41.831200" lon="-8.083500">
        <ele>937.0</ele>
        <time>2010-08-26T17:39:31Z</time>
      </trkpt>
      <trkpt lat="41.831200" lon="-8.083467">
        <ele>936.0</ele>
        <time>2010-08-26T17:39:32Z</time>
      </trkpt>
      <trkpt lat="41.831183" lon="-8.083433">
        <ele>936.0</ele>
        <time>2010-08-26T17:39:33Z</time>
      </trkpt>
      <trkpt lat="41.831183" lon="-8.083400">
        <ele>936.0</ele>
        <time>2010-08-26T17:39:34Z</time>
      </trkpt>
      <trkpt lat="41.831183" lon="-8.083350">
        <ele>935.0</ele>
        <time>2010-08-26T17:39:35Z</time>
      </trkpt>
      <trkpt lat="41.831167" lon="-8.083317">
        <ele>935.0</ele>
        <time>2010-08-26T17:39:36Z</time>
      </trkpt>
      <trkpt lat="41.831167" lon="-8.083283">
        <ele>935.0</ele>
        <time>2010-08-26T17:39:37Z</time>
      </trkpt>
      <trkpt lat="41.831167" lon="-8.083233">
        <ele>935.0</ele>
        <time>2010-08-26T17:39:38Z</time>
      </trkpt>
      <trkpt lat="41.831150" lon="-8.083200">
        <ele>935.0</ele>
        <time>2010-08-26T17:39:39Z</time>
      </trkpt>
      <trkpt lat="41.831150" lon="-8.083150">
        <ele>934.0</ele>
        <time>2010-08-26T17:39:40Z</time>
      </trkpt>
      <trkpt lat="41.831133" lon="-8.083117">
        <ele>934.0</ele>
        <time>2010-08-26T17:39:41Z</time>
      </trkpt>
      <trkpt lat="41.831117" lon="-8.083067">
        <ele>934.0</ele>
        <time>2010-08-26T17:39:42Z</time>
      </trkpt>
      <trkpt lat="41.831117" lon="-8.083017">
        <ele>934.0</ele>
        <time>2010-08-26T17:39:43Z</time>
      </trkpt>
      <trkpt lat="41.831100" lon="-8.082983">
        <ele>934.0</ele>
        <time>2010-08-26T17:39:44Z</time>
      </trkpt>
      <trkpt lat="41.831083" lon="-8.082950">
        <ele>933.0</ele>
        <time>2010-08-26T17:39:45Z</time>
      </trkpt>
      <trkpt lat="41.831067" lon="-8.082900">
        <ele>933.0</ele>
        <time>2010-08-26T17:39:46Z</time>
      </trkpt>
      <trkpt lat="41.831050" lon="-8.082867">
        <ele>932.0</ele>
        <time>2010-08-26T17:39:47Z</time>
      </trkpt>
      <trkpt lat="41.831033" lon="-8.082817">
        <ele>932.0</ele>
        <time>2010-08-26T17:39:48Z</time>
      </trkpt>
      <trkpt lat="41.831017" lon="-8.082783">
        <ele>932.0</ele>
        <time>2010-08-26T17:39:49Z</time>
      </trkpt>
      <trkpt lat="41.831000" lon="-8.082733">
        <ele>931.0</ele>
        <time>2010-08-26T17:39:50Z</time>
      </trkpt>
      <trkpt lat="41.830967" lon="-8.082683">
        <ele>931.0</ele>
        <time>2010-08-26T17:39:51Z</time>
      </trkpt>
      <trkpt lat="41.830950" lon="-8.082633">
        <ele>930.0</ele>
        <time>2010-08-26T17:39:52Z</time>
      </trkpt>
      <trkpt lat="41.830917" lon="-8.082600">
        <ele>930.0</ele>
        <time>2010-08-26T17:39:53Z</time>
      </trkpt>
      <trkpt lat="41.830883" lon="-8.082567">
        <ele>929.0</ele>
        <time>2010-08-26T17:39:54Z</time>
      </trkpt>
      <trkpt lat="41.830850" lon="-8.082533">
        <ele>929.0</ele>
        <time>2010-08-26T17:39:55Z</time>
      </trkpt>
      <trkpt lat="41.830833" lon="-8.082500">
        <ele>929.0</ele>
        <time>2010-08-26T17:39:56Z</time>
      </trkpt>
      <trkpt lat="41.830800" lon="-8.082467">
        <ele>929.0</ele>
        <time>2010-08-26T17:39:57Z</time>
      </trkpt>
      <trkpt lat="41.830767" lon="-8.082433">
        <ele>929.0</ele>
        <time>2010-08-26T17:39:58Z</time>
      </trkpt>
      <trkpt lat="41.830733" lon="-8.082400">
        <ele>928.0</ele>
        <time>2010-08-26T17:39:59Z</time>
      </trkpt>
      <trkpt lat="41.830700" lon="-8.082367">
        <ele>928.0</ele>
        <time>2010-08-26T17:40:00Z</time>
      </trkpt>
      <trkpt lat="41.830667" lon="-8.082333">
        <ele>928.0</ele>
        <time>2010-08-26T17:40:01Z</time>
      </trkpt>
      <trkpt lat="41.830633" lon="-8.082317">
        <ele>928.0</ele>
        <time>2010-08-26T17:40:02Z</time>
      </trkpt>
      <trkpt lat="41.830600" lon="-8.082283">
        <ele>928.0</ele>
        <time>2010-08-26T17:40:03Z</time>
      </trkpt>
      <trkpt lat="41.830567" lon="-8.082267">
        <ele>928.0</ele>
        <time>2010-08-26T17:40:04Z</time>
      </trkpt>
      <trkpt lat="41.830550" lon="-8.082233">
        <ele>928.0</ele>
        <time>2010-08-26T17:40:05Z</time>
      </trkpt>
      <trkpt lat="41.830517" lon="-8.082200">
        <ele>928.0</ele>
        <time>2010-08-26T17:40:06Z</time>
      </trkpt>
      <trkpt lat="41.830483" lon="-8.082183">
        <ele>928.0</ele>
        <time>2010-08-26T17:40:07Z</time>
      </trkpt>
      <trkpt lat="41.830467" lon="-8.082167">
        <ele>927.0</ele>
        <time>2010-08-26T17:40:08Z</time>
      </trkpt>
      <trkpt lat="41.830433" lon="-8.082133">
        <ele>927.0</ele>
        <time>2010-08-26T17:40:09Z</time>
      </trkpt>
      <trkpt lat="41.830400" lon="-8.082117">
        <ele>927.0</ele>
        <time>2010-08-26T17:40:10Z</time>
      </trkpt>
      <trkpt lat="41.830367" lon="-8.082100">
        <ele>927.0</ele>
        <time>2010-08-26T17:40:11Z</time>
      </trkpt>
      <trkpt lat="41.830333" lon="-8.082083">
        <ele>927.0</ele>
        <time>2010-08-26T17:40:12Z</time>
      </trkpt>
      <trkpt lat="41.830300" lon="-8.082067">
        <ele>927.0</ele>
        <time>2010-08-26T17:40:13Z</time>
      </trkpt>
      <trkpt lat="41.830283" lon="-8.082050">
        <ele>927.0</ele>
        <time>2010-08-26T17:40:14Z</time>
      </trkpt>
      <trkpt lat="41.830250" lon="-8.082033">
        <ele>927.0</ele>
        <time>2010-08-26T17:40:15Z</time>
      </trkpt>
      <trkpt lat="41.830217" lon="-8.082000">
        <ele>927.0</ele>
        <time>2010-08-26T17:40:16Z</time>
      </trkpt>
      <trkpt lat="41.830183" lon="-8.081983">
        <ele>927.0</ele>
        <time>2010-08-26T17:40:17Z</time>
      </trkpt>
      <trkpt lat="41.830150" lon="-8.081950">
        <ele>928.0</ele>
        <time>2010-08-26T17:40:18Z</time>
      </trkpt>
      <trkpt lat="41.830117" lon="-8.081933">
        <ele>928.0</ele>
        <time>2010-08-26T17:40:19Z</time>
      </trkpt>
      <trkpt lat="41.830083" lon="-8.081917">
        <ele>928.0</ele>
        <time>2010-08-26T17:40:20Z</time>
      </trkpt>
      <trkpt lat="41.830050" lon="-8.081883">
        <ele>928.0</ele>
        <time>2010-08-26T17:40:21Z</time>
      </trkpt>
      <trkpt lat="41.830033" lon="-8.081850">
        <ele>928.0</ele>
        <time>2010-08-26T17:40:22Z</time>
      </trkpt>
      <trkpt lat="41.830000" lon="-8.081817">
        <ele>928.0</ele>
        <time>2010-08-26T17:40:23Z</time>
      </trkpt>
      <trkpt lat="41.829983" lon="-8.081800">
        <ele>928.0</ele>
        <time>2010-08-26T17:40:24Z</time>
      </trkpt>
      <trkpt lat="41.829950" lon="-8.081750">
        <ele>928.0</ele>
        <time>2010-08-26T17:40:25Z</time>
      </trkpt>
      <trkpt lat="41.829933" lon="-8.081717">
        <ele>928.0</ele>
        <time>2010-08-26T17:40:26Z</time>
      </trkpt>
      <trkpt lat="41.829900" lon="-8.081683">
        <ele>929.0</ele>
        <time>2010-08-26T17:40:27Z</time>
      </trkpt>
      <trkpt lat="41.829883" lon="-8.081650">
        <ele>929.0</ele>
        <time>2010-08-26T17:40:28Z</time>
      </trkpt>
      <trkpt lat="41.829867" lon="-8.081617">
        <ele>929.0</ele>
        <time>2010-08-26T17:40:29Z</time>
      </trkpt>
      <trkpt lat="41.829833" lon="-8.081600">
        <ele>929.0</ele>
        <time>2010-08-26T17:40:30Z</time>
      </trkpt>
      <trkpt lat="41.829817" lon="-8.081567">
        <ele>930.0</ele>
        <time>2010-08-26T17:40:31Z</time>
      </trkpt>
      <trkpt lat="41.829800" lon="-8.081550">
        <ele>930.0</ele>
        <time>2010-08-26T17:40:32Z</time>
      </trkpt>
      <trkpt lat="41.829767" lon="-8.081517">
        <ele>930.0</ele>
        <time>2010-08-26T17:40:33Z</time>
      </trkpt>
      <trkpt lat="41.829750" lon="-8.081500">
        <ele>931.0</ele>
        <time>2010-08-26T17:40:34Z</time>
      </trkpt>
      <trkpt lat="41.829733" lon="-8.081467">
        <ele>931.0</ele>
        <time>2010-08-26T17:40:35Z</time>
      </trkpt>
      <trkpt lat="41.829717" lon="-8.081450">
        <ele>931.0</ele>
        <time>2010-08-26T17:40:36Z</time>
      </trkpt>
      <trkpt lat="41.829700" lon="-8.081417">
        <ele>931.0</ele>
        <time>2010-08-26T17:40:37Z</time>
      </trkpt>
      <trkpt lat="41.829667" lon="-8.081383">
        <ele>932.0</ele>
        <time>2010-08-26T17:40:38Z</time>
      </trkpt>
      <trkpt lat="41.829650" lon="-8.081367">
        <ele>932.0</ele>
        <time>2010-08-26T17:40:39Z</time>
      </trkpt>
      <trkpt lat="41.829633" lon="-8.081333">
        <ele>932.0</ele>
        <time>2010-08-26T17:40:40Z</time>
      </trkpt>
      <trkpt lat="41.829600" lon="-8.081317">
        <ele>932.0</ele>
        <time>2010-08-26T17:40:41Z</time>
      </trkpt>
      <trkpt lat="41.829583" lon="-8.081283">
        <ele>932.0</ele>
        <time>2010-08-26T17:40:42Z</time>
      </trkpt>
      <trkpt lat="41.829567" lon="-8.081267">
        <ele>932.0</ele>
        <time>2010-08-26T17:40:43Z</time>
      </trkpt>
      <trkpt lat="41.829533" lon="-8.081233">
        <ele>932.0</ele>
        <time>2010-08-26T17:40:44Z</time>
      </trkpt>
      <trkpt lat="41.829517" lon="-8.081217">
        <ele>932.0</ele>
        <time>2010-08-26T17:40:45Z</time>
      </trkpt>
      <trkpt lat="41.829500" lon="-8.081200">
        <ele>932.0</ele>
        <time>2010-08-26T17:40:46Z</time>
      </trkpt>
      <trkpt lat="41.829467" lon="-8.081183">
        <ele>932.0</ele>
        <time>2010-08-26T17:40:47Z</time>
      </trkpt>
      <trkpt lat="41.829450" lon="-8.081167">
        <ele>932.0</ele>
        <time>2010-08-26T17:40:48Z</time>
      </trkpt>
      <trkpt lat="41.829417" lon="-8.081150">
        <ele>932.0</ele>
        <time>2010-08-26T17:40:49Z</time>
      </trkpt>
      <trkpt lat="41.829400" lon="-8.081133">
        <ele>932.0</ele>
        <time>2010-08-26T17:40:50Z</time>
      </trkpt>
      <trkpt lat="41.829383" lon="-8.081117">
        <ele>932.0</ele>
        <time>2010-08-26T17:40:51Z</time>
      </trkpt>
      <trkpt lat="41.829350" lon="-8.081117">
        <ele>932.0</ele>
        <time>2010-08-26T17:40:52Z</time>
      </trkpt>
      <trkpt lat="41.829333" lon="-8.081100">
        <ele>932.0</ele>
        <time>2010-08-26T17:40:53Z</time>
      </trkpt>
      <trkpt lat="41.829300" lon="-8.081083">
        <ele>932.0</ele>
        <time>2010-08-26T17:40:54Z</time>
      </trkpt>
      <trkpt lat="41.829283" lon="-8.081083">
        <ele>932.0</ele>
        <time>2010-08-26T17:40:55Z</time>
      </trkpt>
      <trkpt lat="41.829250" lon="-8.081067">
        <ele>933.0</ele>
        <time>2010-08-26T17:40:56Z</time>
      </trkpt>
      <trkpt lat="41.829217" lon="-8.081050">
        <ele>933.0</ele>
        <time>2010-08-26T17:40:57Z</time>
      </trkpt>
      <trkpt lat="41.829200" lon="-8.081050">
        <ele>933.0</ele>
        <time>2010-08-26T17:40:58Z</time>
      </trkpt>
      <trkpt lat="41.829167" lon="-8.081033">
        <ele>932.0</ele>
        <time>2010-08-26T17:40:59Z</time>
      </trkpt>
      <trkpt lat="41.829150" lon="-8.081033">
        <ele>932.0</ele>
        <time>2010-08-26T17:41:00Z</time>
      </trkpt>
      <trkpt lat="41.829117" lon="-8.081017">
        <ele>932.0</ele>
        <time>2010-08-26T17:41:01Z</time>
      </trkpt>
      <trkpt lat="41.829100" lon="-8.081017">
        <ele>932.0</ele>
        <time>2010-08-26T17:41:02Z</time>
      </trkpt>
      <trkpt lat="41.829067" lon="-8.081000">
        <ele>932.0</ele>
        <time>2010-08-26T17:41:03Z</time>
      </trkpt>
      <trkpt lat="41.829050" lon="-8.081000">
        <ele>932.0</ele>
        <time>2010-08-26T17:41:04Z</time>
      </trkpt>
      <trkpt lat="41.829017" lon="-8.080983">
        <ele>932.0</ele>
        <time>2010-08-26T17:41:05Z</time>
      </trkpt>
      <trkpt lat="41.828983" lon="-8.080967">
        <ele>932.0</ele>
        <time>2010-08-26T17:41:06Z</time>
      </trkpt>
      <trkpt lat="41.828967" lon="-8.080967">
        <ele>932.0</ele>
        <time>2010-08-26T17:41:07Z</time>
      </trkpt>
      <trkpt lat="41.828933" lon="-8.080950">
        <ele>932.0</ele>
        <time>2010-08-26T17:41:08Z</time>
      </trkpt>
      <trkpt lat="41.828900" lon="-8.080933">
        <ele>932.0</ele>
        <time>2010-08-26T17:41:09Z</time>
      </trkpt>
      <trkpt lat="41.828867" lon="-8.080917">
        <ele>932.0</ele>
        <time>2010-08-26T17:41:10Z</time>
      </trkpt>
      <trkpt lat="41.828833" lon="-8.080917">
        <ele>932.0</ele>
        <time>2010-08-26T17:41:11Z</time>
      </trkpt>
      <trkpt lat="41.828817" lon="-8.080900">
        <ele>932.0</ele>
        <time>2010-08-26T17:41:12Z</time>
      </trkpt>
      <trkpt lat="41.828783" lon="-8.080883">
        <ele>932.0</ele>
        <time>2010-08-26T17:41:13Z</time>
      </trkpt>
      <trkpt lat="41.828750" lon="-8.080883">
        <ele>932.0</ele>
        <time>2010-08-26T17:41:14Z</time>
      </trkpt>
      <trkpt lat="41.828717" lon="-8.080867">
        <ele>932.0</ele>
        <time>2010-08-26T17:41:15Z</time>
      </trkpt>
      <trkpt lat="41.828700" lon="-8.080850">
        <ele>932.0</ele>
        <time>2010-08-26T17:41:16Z</time>
      </trkpt>
      <trkpt lat="41.828667" lon="-8.080850">
        <ele>932.0</ele>
        <time>2010-08-26T17:41:17Z</time>
      </trkpt>
      <trkpt lat="41.828650" lon="-8.080833">
        <ele>932.0</ele>
        <time>2010-08-26T17:41:18Z</time>
      </trkpt>
      <trkpt lat="41.828617" lon="-8.080817">
        <ele>932.0</ele>
        <time>2010-08-26T17:41:19Z</time>
      </trkpt>
      <trkpt lat="41.828583" lon="-8.080800">
        <ele>932.0</ele>
        <time>2010-08-26T17:41:21Z</time>
      </trkpt>
      <trkpt lat="41.828567" lon="-8.080750">
        <ele>932.0</ele>
        <time>2010-08-26T17:41:23Z</time>
      </trkpt>
      <trkpt lat="41.828550" lon="-8.080717">
        <ele>932.0</ele>
        <time>2010-08-26T17:41:25Z</time>
      </trkpt>
      <trkpt lat="41.828550" lon="-8.080667">
        <ele>932.0</ele>
        <time>2010-08-26T17:41:27Z</time>
      </trkpt>
      <trkpt lat="41.828533" lon="-8.080617">
        <ele>933.0</ele>
        <time>2010-08-26T17:41:30Z</time>
      </trkpt>
      <trkpt lat="41.828550" lon="-8.080567">
        <ele>935.0</ele>
        <time>2010-08-26T17:41:36Z</time>
      </trkpt>
      <trkpt lat="41.828583" lon="-8.080533">
        <ele>936.0</ele>
        <time>2010-08-26T17:41:38Z</time>
      </trkpt>
      <trkpt lat="41.828600" lon="-8.080517">
        <ele>937.0</ele>
        <time>2010-08-26T17:41:40Z</time>
      </trkpt>
      <trkpt lat="41.828633" lon="-8.080483">
        <ele>939.0</ele>
        <time>2010-08-26T17:41:42Z</time>
      </trkpt>
      <trkpt lat="41.828650" lon="-8.080450">
        <ele>941.0</ele>
        <time>2010-08-26T17:41:45Z</time>
      </trkpt>
      <trkpt lat="41.828667" lon="-8.080383">
        <ele>936.0</ele>
        <time>2010-08-26T17:42:27Z</time>
      </trkpt>
      <trkpt lat="41.828667" lon="-8.080450">
        <ele>930.0</ele>
        <time>2010-08-26T17:43:41Z</time>
      </trkpt>
      <trkpt lat="41.828700" lon="-8.080400">
        <ele>939.0</ele>
        <time>2010-08-26T17:44:00Z</time>
      </trkpt>
      <trkpt lat="41.828717" lon="-8.080350">
        <ele>940.0</ele>
        <time>2010-08-26T17:44:03Z</time>
      </trkpt>
      <trkpt lat="41.828733" lon="-8.080317">
        <ele>940.0</ele>
        <time>2010-08-26T17:44:05Z</time>
      </trkpt>
      <trkpt lat="41.828750" lon="-8.080283">
        <ele>941.0</ele>
        <time>2010-08-26T17:44:07Z</time>
      </trkpt>
      <trkpt lat="41.828750" lon="-8.080233">
        <ele>941.0</ele>
        <time>2010-08-26T17:44:09Z</time>
      </trkpt>
      <trkpt lat="41.828767" lon="-8.080200">
        <ele>942.0</ele>
        <time>2010-08-26T17:44:11Z</time>
      </trkpt>
      <trkpt lat="41.828750" lon="-8.080133">
        <ele>945.0</ele>
        <time>2010-08-26T17:44:25Z</time>
      </trkpt>
      <trkpt lat="41.828767" lon="-8.080083">
        <ele>946.0</ele>
        <time>2010-08-26T17:44:28Z</time>
      </trkpt>
      <trkpt lat="41.828767" lon="-8.080050">
        <ele>946.0</ele>
        <time>2010-08-26T17:44:30Z</time>
      </trkpt>
      <trkpt lat="41.828767" lon="-8.080017">
        <ele>947.0</ele>
        <time>2010-08-26T17:44:32Z</time>
      </trkpt>
      <trkpt lat="41.828767" lon="-8.079967">
        <ele>947.0</ele>
        <time>2010-08-26T17:44:34Z</time>
      </trkpt>
      <trkpt lat="41.828783" lon="-8.079933">
        <ele>947.0</ele>
        <time>2010-08-26T17:44:36Z</time>
      </trkpt>
      <trkpt lat="41.828800" lon="-8.079883">
        <ele>947.0</ele>
        <time>2010-08-26T17:44:38Z</time>
      </trkpt>
      <trkpt lat="41.828817" lon="-8.079850">
        <ele>947.0</ele>
        <time>2010-08-26T17:44:40Z</time>
      </trkpt>
      <trkpt lat="41.828833" lon="-8.079800">
        <ele>947.0</ele>
        <time>2010-08-26T17:44:43Z</time>
      </trkpt>
      <trkpt lat="41.828850" lon="-8.079733">
        <ele>948.0</ele>
        <time>2010-08-26T17:44:46Z</time>
      </trkpt>
      <trkpt lat="41.828850" lon="-8.079700">
        <ele>948.0</ele>
        <time>2010-08-26T17:44:48Z</time>
      </trkpt>
      <trkpt lat="41.828850" lon="-8.079650">
        <ele>948.0</ele>
        <time>2010-08-26T17:44:50Z</time>
      </trkpt>
      <trkpt lat="41.828850" lon="-8.079617">
        <ele>948.0</ele>
        <time>2010-08-26T17:44:52Z</time>
      </trkpt>
      <trkpt lat="41.828850" lon="-8.079567">
        <ele>948.0</ele>
        <time>2010-08-26T17:44:54Z</time>
      </trkpt>
      <trkpt lat="41.828850" lon="-8.079517">
        <ele>947.0</ele>
        <time>2010-08-26T17:44:56Z</time>
      </trkpt>
      <trkpt lat="41.828850" lon="-8.079467">
        <ele>947.0</ele>
        <time>2010-08-26T17:44:58Z</time>
      </trkpt>
      <trkpt lat="41.828850" lon="-8.079417">
        <ele>947.0</ele>
        <time>2010-08-26T17:45:00Z</time>
      </trkpt>
      <trkpt lat="41.828850" lon="-8.079383">
        <ele>947.0</ele>
        <time>2010-08-26T17:45:02Z</time>
      </trkpt>
      <trkpt lat="41.828850" lon="-8.079333">
        <ele>947.0</ele>
        <time>2010-08-26T17:45:04Z</time>
      </trkpt>
      <trkpt lat="41.828867" lon="-8.079283">
        <ele>947.0</ele>
        <time>2010-08-26T17:45:06Z</time>
      </trkpt>
      <trkpt lat="41.828883" lon="-8.079250">
        <ele>947.0</ele>
        <time>2010-08-26T17:45:08Z</time>
      </trkpt>
      <trkpt lat="41.828900" lon="-8.079200">
        <ele>946.0</ele>
        <time>2010-08-26T17:45:10Z</time>
      </trkpt>
      <trkpt lat="41.828917" lon="-8.079150">
        <ele>946.0</ele>
        <time>2010-08-26T17:45:13Z</time>
      </trkpt>
      <trkpt lat="41.828933" lon="-8.079117">
        <ele>946.0</ele>
        <time>2010-08-26T17:45:15Z</time>
      </trkpt>
      <trkpt lat="41.828950" lon="-8.079083">
        <ele>946.0</ele>
        <time>2010-08-26T17:45:17Z</time>
      </trkpt>
      <trkpt lat="41.828967" lon="-8.079050">
        <ele>947.0</ele>
        <time>2010-08-26T17:45:19Z</time>
      </trkpt>
      <trkpt lat="41.828983" lon="-8.079000">
        <ele>947.0</ele>
        <time>2010-08-26T17:45:21Z</time>
      </trkpt>
      <trkpt lat="41.828983" lon="-8.078967">
        <ele>947.0</ele>
        <time>2010-08-26T17:45:23Z</time>
      </trkpt>
      <trkpt lat="41.829000" lon="-8.078917">
        <ele>946.0</ele>
        <time>2010-08-26T17:45:25Z</time>
      </trkpt>
      <trkpt lat="41.829000" lon="-8.078867">
        <ele>946.0</ele>
        <time>2010-08-26T17:45:27Z</time>
      </trkpt>
      <trkpt lat="41.828983" lon="-8.078817">
        <ele>946.0</ele>
        <time>2010-08-26T17:45:29Z</time>
      </trkpt>
      <trkpt lat="41.828983" lon="-8.078767">
        <ele>946.0</ele>
        <time>2010-08-26T17:45:31Z</time>
      </trkpt>
      <trkpt lat="41.828967" lon="-8.078733">
        <ele>946.0</ele>
        <time>2010-08-26T17:45:33Z</time>
      </trkpt>
      <trkpt lat="41.828950" lon="-8.078700">
        <ele>946.0</ele>
        <time>2010-08-26T17:45:35Z</time>
      </trkpt>
      <trkpt lat="41.828933" lon="-8.078650">
        <ele>947.0</ele>
        <time>2010-08-26T17:45:37Z</time>
      </trkpt>
      <trkpt lat="41.828917" lon="-8.078617">
        <ele>947.0</ele>
        <time>2010-08-26T17:45:39Z</time>
      </trkpt>
      <trkpt lat="41.828917" lon="-8.078567">
        <ele>947.0</ele>
        <time>2010-08-26T17:45:41Z</time>
      </trkpt>
      <trkpt lat="41.828900" lon="-8.078533">
        <ele>947.0</ele>
        <time>2010-08-26T17:45:43Z</time>
      </trkpt>
      <trkpt lat="41.828883" lon="-8.078500">
        <ele>947.0</ele>
        <time>2010-08-26T17:45:45Z</time>
      </trkpt>
      <trkpt lat="41.828867" lon="-8.078467">
        <ele>947.0</ele>
        <time>2010-08-26T17:45:47Z</time>
      </trkpt>
      <trkpt lat="41.828850" lon="-8.078433">
        <ele>947.0</ele>
        <time>2010-08-26T17:45:49Z</time>
      </trkpt>
      <trkpt lat="41.828833" lon="-8.078383">
        <ele>947.0</ele>
        <time>2010-08-26T17:45:51Z</time>
      </trkpt>
      <trkpt lat="41.828817" lon="-8.078350">
        <ele>948.0</ele>
        <time>2010-08-26T17:45:53Z</time>
      </trkpt>
      <trkpt lat="41.828800" lon="-8.078300">
        <ele>948.0</ele>
        <time>2010-08-26T17:45:55Z</time>
      </trkpt>
      <trkpt lat="41.828783" lon="-8.078267">
        <ele>948.0</ele>
        <time>2010-08-26T17:45:57Z</time>
      </trkpt>
      <trkpt lat="41.828783" lon="-8.078217">
        <ele>948.0</ele>
        <time>2010-08-26T17:45:59Z</time>
      </trkpt>
      <trkpt lat="41.828767" lon="-8.078167">
        <ele>948.0</ele>
        <time>2010-08-26T17:46:01Z</time>
      </trkpt>
      <trkpt lat="41.828767" lon="-8.078117">
        <ele>949.0</ele>
        <time>2010-08-26T17:46:03Z</time>
      </trkpt>
      <trkpt lat="41.828767" lon="-8.078083">
        <ele>949.0</ele>
        <time>2010-08-26T17:46:05Z</time>
      </trkpt>
      <trkpt lat="41.828750" lon="-8.078033">
        <ele>949.0</ele>
        <time>2010-08-26T17:46:07Z</time>
      </trkpt>
      <trkpt lat="41.828750" lon="-8.077983">
        <ele>949.0</ele>
        <time>2010-08-26T17:46:09Z</time>
      </trkpt>
      <trkpt lat="41.828750" lon="-8.077950">
        <ele>950.0</ele>
        <time>2010-08-26T17:46:11Z</time>
      </trkpt>
      <trkpt lat="41.828733" lon="-8.077900">
        <ele>950.0</ele>
        <time>2010-08-26T17:46:13Z</time>
      </trkpt>
      <trkpt lat="41.828733" lon="-8.077850">
        <ele>950.0</ele>
        <time>2010-08-26T17:46:15Z</time>
      </trkpt>
      <trkpt lat="41.828733" lon="-8.077800">
        <ele>950.0</ele>
        <time>2010-08-26T17:46:17Z</time>
      </trkpt>
      <trkpt lat="41.828717" lon="-8.077750">
        <ele>950.0</ele>
        <time>2010-08-26T17:46:19Z</time>
      </trkpt>
      <trkpt lat="41.828700" lon="-8.077717">
        <ele>951.0</ele>
        <time>2010-08-26T17:46:21Z</time>
      </trkpt>
      <trkpt lat="41.828700" lon="-8.077667">
        <ele>951.0</ele>
        <time>2010-08-26T17:46:23Z</time>
      </trkpt>
      <trkpt lat="41.828683" lon="-8.077633">
        <ele>952.0</ele>
        <time>2010-08-26T17:46:25Z</time>
      </trkpt>
      <trkpt lat="41.828667" lon="-8.077583">
        <ele>952.0</ele>
        <time>2010-08-26T17:46:27Z</time>
      </trkpt>
      <trkpt lat="41.828667" lon="-8.077533">
        <ele>953.0</ele>
        <time>2010-08-26T17:46:29Z</time>
      </trkpt>
      <trkpt lat="41.828650" lon="-8.077500">
        <ele>953.0</ele>
        <time>2010-08-26T17:46:31Z</time>
      </trkpt>
      <trkpt lat="41.828650" lon="-8.077467">
        <ele>953.0</ele>
        <time>2010-08-26T17:46:33Z</time>
      </trkpt>
      <trkpt lat="41.828633" lon="-8.077417">
        <ele>954.0</ele>
        <time>2010-08-26T17:46:35Z</time>
      </trkpt>
      <trkpt lat="41.828633" lon="-8.077383">
        <ele>954.0</ele>
        <time>2010-08-26T17:46:37Z</time>
      </trkpt>
      <trkpt lat="41.828617" lon="-8.077333">
        <ele>954.0</ele>
        <time>2010-08-26T17:46:39Z</time>
      </trkpt>
      <trkpt lat="41.828600" lon="-8.077300">
        <ele>954.0</ele>
        <time>2010-08-26T17:46:41Z</time>
      </trkpt>
      <trkpt lat="41.828600" lon="-8.077250">
        <ele>955.0</ele>
        <time>2010-08-26T17:46:43Z</time>
      </trkpt>
      <trkpt lat="41.828583" lon="-8.077217">
        <ele>955.0</ele>
        <time>2010-08-26T17:46:45Z</time>
      </trkpt>
      <trkpt lat="41.828567" lon="-8.077167">
        <ele>955.0</ele>
        <time>2010-08-26T17:46:47Z</time>
      </trkpt>
      <trkpt lat="41.828550" lon="-8.077117">
        <ele>956.0</ele>
        <time>2010-08-26T17:46:50Z</time>
      </trkpt>
      <trkpt lat="41.828550" lon="-8.077083">
        <ele>956.0</ele>
        <time>2010-08-26T17:46:52Z</time>
      </trkpt>
      <trkpt lat="41.828533" lon="-8.077033">
        <ele>956.0</ele>
        <time>2010-08-26T17:46:54Z</time>
      </trkpt>
      <trkpt lat="41.828517" lon="-8.076983">
        <ele>958.0</ele>
        <time>2010-08-26T17:46:57Z</time>
      </trkpt>
      <trkpt lat="41.828517" lon="-8.076933">
        <ele>958.0</ele>
        <time>2010-08-26T17:46:59Z</time>
      </trkpt>
      <trkpt lat="41.828500" lon="-8.076900">
        <ele>959.0</ele>
        <time>2010-08-26T17:47:01Z</time>
      </trkpt>
      <trkpt lat="41.828500" lon="-8.076867">
        <ele>959.0</ele>
        <time>2010-08-26T17:47:03Z</time>
      </trkpt>
      <trkpt lat="41.828483" lon="-8.076817">
        <ele>960.0</ele>
        <time>2010-08-26T17:47:05Z</time>
      </trkpt>
      <trkpt lat="41.828467" lon="-8.076767">
        <ele>960.0</ele>
        <time>2010-08-26T17:47:08Z</time>
      </trkpt>
      <trkpt lat="41.828450" lon="-8.076733">
        <ele>961.0</ele>
        <time>2010-08-26T17:47:10Z</time>
      </trkpt>
      <trkpt lat="41.828450" lon="-8.076683">
        <ele>961.0</ele>
        <time>2010-08-26T17:47:12Z</time>
      </trkpt>
      <trkpt lat="41.828433" lon="-8.076650">
        <ele>961.0</ele>
        <time>2010-08-26T17:47:14Z</time>
      </trkpt>
      <trkpt lat="41.828417" lon="-8.076600">
        <ele>962.0</ele>
        <time>2010-08-26T17:47:16Z</time>
      </trkpt>
      <trkpt lat="41.828417" lon="-8.076567">
        <ele>962.0</ele>
        <time>2010-08-26T17:47:18Z</time>
      </trkpt>
      <trkpt lat="41.828400" lon="-8.076517">
        <ele>963.0</ele>
        <time>2010-08-26T17:47:20Z</time>
      </trkpt>
      <trkpt lat="41.828383" lon="-8.076483">
        <ele>964.0</ele>
        <time>2010-08-26T17:47:22Z</time>
      </trkpt>
      <trkpt lat="41.828383" lon="-8.076433">
        <ele>964.0</ele>
        <time>2010-08-26T17:47:24Z</time>
      </trkpt>
      <trkpt lat="41.828367" lon="-8.076400">
        <ele>965.0</ele>
        <time>2010-08-26T17:47:26Z</time>
      </trkpt>
      <trkpt lat="41.828350" lon="-8.076367">
        <ele>965.0</ele>
        <time>2010-08-26T17:47:28Z</time>
      </trkpt>
      <trkpt lat="41.828317" lon="-8.076333">
        <ele>966.0</ele>
        <time>2010-08-26T17:47:30Z</time>
      </trkpt>
      <trkpt lat="41.828300" lon="-8.076300">
        <ele>966.0</ele>
        <time>2010-08-26T17:47:32Z</time>
      </trkpt>
      <trkpt lat="41.828283" lon="-8.076267">
        <ele>966.0</ele>
        <time>2010-08-26T17:47:34Z</time>
      </trkpt>
      <trkpt lat="41.828267" lon="-8.076217">
        <ele>966.0</ele>
        <time>2010-08-26T17:47:36Z</time>
      </trkpt>
      <trkpt lat="41.828267" lon="-8.076167">
        <ele>966.0</ele>
        <time>2010-08-26T17:47:38Z</time>
      </trkpt>
      <trkpt lat="41.828250" lon="-8.076133">
        <ele>966.0</ele>
        <time>2010-08-26T17:47:40Z</time>
      </trkpt>
      <trkpt lat="41.828250" lon="-8.076083">
        <ele>967.0</ele>
        <time>2010-08-26T17:47:42Z</time>
      </trkpt>
      <trkpt lat="41.828233" lon="-8.076033">
        <ele>967.0</ele>
        <time>2010-08-26T17:47:44Z</time>
      </trkpt>
      <trkpt lat="41.828233" lon="-8.075983">
        <ele>967.0</ele>
        <time>2010-08-26T17:47:46Z</time>
      </trkpt>
      <trkpt lat="41.828233" lon="-8.075950">
        <ele>967.0</ele>
        <time>2010-08-26T17:47:48Z</time>
      </trkpt>
      <trkpt lat="41.828250" lon="-8.075900">
        <ele>967.0</ele>
        <time>2010-08-26T17:47:50Z</time>
      </trkpt>
      <trkpt lat="41.828250" lon="-8.075850">
        <ele>967.0</ele>
        <time>2010-08-26T17:47:52Z</time>
      </trkpt>
      <trkpt lat="41.828250" lon="-8.075800">
        <ele>967.0</ele>
        <time>2010-08-26T17:47:54Z</time>
      </trkpt>
      <trkpt lat="41.828250" lon="-8.075750">
        <ele>968.0</ele>
        <time>2010-08-26T17:47:56Z</time>
      </trkpt>
      <trkpt lat="41.828250" lon="-8.075700">
        <ele>968.0</ele>
        <time>2010-08-26T17:47:58Z</time>
      </trkpt>
      <trkpt lat="41.828250" lon="-8.075667">
        <ele>968.0</ele>
        <time>2010-08-26T17:48:00Z</time>
      </trkpt>
      <trkpt lat="41.828233" lon="-8.075617">
        <ele>969.0</ele>
        <time>2010-08-26T17:48:02Z</time>
      </trkpt>
      <trkpt lat="41.828233" lon="-8.075567">
        <ele>969.0</ele>
        <time>2010-08-26T17:48:04Z</time>
      </trkpt>
      <trkpt lat="41.828233" lon="-8.075533">
        <ele>969.0</ele>
        <time>2010-08-26T17:48:06Z</time>
      </trkpt>
      <trkpt lat="41.828233" lon="-8.075483">
        <ele>970.0</ele>
        <time>2010-08-26T17:48:08Z</time>
      </trkpt>
      <trkpt lat="41.828233" lon="-8.075433">
        <ele>970.0</ele>
        <time>2010-08-26T17:48:10Z</time>
      </trkpt>
      <trkpt lat="41.828233" lon="-8.075383">
        <ele>970.0</ele>
        <time>2010-08-26T17:48:12Z</time>
      </trkpt>
      <trkpt lat="41.828250" lon="-8.075333">
        <ele>971.0</ele>
        <time>2010-08-26T17:48:14Z</time>
      </trkpt>
      <trkpt lat="41.828267" lon="-8.075300">
        <ele>971.0</ele>
        <time>2010-08-26T17:48:16Z</time>
      </trkpt>
      <trkpt lat="41.828267" lon="-8.075250">
        <ele>971.0</ele>
        <time>2010-08-26T17:48:18Z</time>
      </trkpt>
      <trkpt lat="41.828283" lon="-8.075200">
        <ele>971.0</ele>
        <time>2010-08-26T17:48:20Z</time>
      </trkpt>
      <trkpt lat="41.828283" lon="-8.075150">
        <ele>971.0</ele>
        <time>2010-08-26T17:48:22Z</time>
      </trkpt>
      <trkpt lat="41.828300" lon="-8.075100">
        <ele>971.0</ele>
        <time>2010-08-26T17:48:24Z</time>
      </trkpt>
      <trkpt lat="41.828300" lon="-8.075050">
        <ele>971.0</ele>
        <time>2010-08-26T17:48:26Z</time>
      </trkpt>
      <trkpt lat="41.828317" lon="-8.075000">
        <ele>971.0</ele>
        <time>2010-08-26T17:48:28Z</time>
      </trkpt>
      <trkpt lat="41.828317" lon="-8.074967">
        <ele>971.0</ele>
        <time>2010-08-26T17:48:30Z</time>
      </trkpt>
      <trkpt lat="41.828333" lon="-8.074917">
        <ele>972.0</ele>
        <time>2010-08-26T17:48:32Z</time>
      </trkpt>
      <trkpt lat="41.828333" lon="-8.074867">
        <ele>972.0</ele>
        <time>2010-08-26T17:48:34Z</time>
      </trkpt>
      <trkpt lat="41.828317" lon="-8.074833">
        <ele>972.0</ele>
        <time>2010-08-26T17:48:36Z</time>
      </trkpt>
      <trkpt lat="41.828317" lon="-8.074783">
        <ele>972.0</ele>
        <time>2010-08-26T17:48:38Z</time>
      </trkpt>
      <trkpt lat="41.828317" lon="-8.074750">
        <ele>973.0</ele>
        <time>2010-08-26T17:48:40Z</time>
      </trkpt>
      <trkpt lat="41.828300" lon="-8.074700">
        <ele>973.0</ele>
        <time>2010-08-26T17:48:42Z</time>
      </trkpt>
      <trkpt lat="41.828317" lon="-8.074650">
        <ele>973.0</ele>
        <time>2010-08-26T17:48:44Z</time>
      </trkpt>
      <trkpt lat="41.828317" lon="-8.074617">
        <ele>973.0</ele>
        <time>2010-08-26T17:48:46Z</time>
      </trkpt>
      <trkpt lat="41.828317" lon="-8.074567">
        <ele>974.0</ele>
        <time>2010-08-26T17:48:48Z</time>
      </trkpt>
      <trkpt lat="41.828333" lon="-8.074533">
        <ele>974.0</ele>
        <time>2010-08-26T17:48:50Z</time>
      </trkpt>
      <trkpt lat="41.828350" lon="-8.074483">
        <ele>976.0</ele>
        <time>2010-08-26T17:48:53Z</time>
      </trkpt>
      <trkpt lat="41.828367" lon="-8.074417">
        <ele>976.0</ele>
        <time>2010-08-26T17:48:56Z</time>
      </trkpt>
      <trkpt lat="41.828383" lon="-8.074383">
        <ele>977.0</ele>
        <time>2010-08-26T17:48:59Z</time>
      </trkpt>
      <trkpt lat="41.828400" lon="-8.074333">
        <ele>978.0</ele>
        <time>2010-08-26T17:49:02Z</time>
      </trkpt>
      <trkpt lat="41.828433" lon="-8.074283">
        <ele>979.0</ele>
        <time>2010-08-26T17:49:05Z</time>
      </trkpt>
      <trkpt lat="41.828467" lon="-8.074250">
        <ele>980.0</ele>
        <time>2010-08-26T17:49:08Z</time>
      </trkpt>
      <trkpt lat="41.828483" lon="-8.074217">
        <ele>981.0</ele>
        <time>2010-08-26T17:49:10Z</time>
      </trkpt>
      <trkpt lat="41.828500" lon="-8.074183">
        <ele>982.0</ele>
        <time>2010-08-26T17:49:12Z</time>
      </trkpt>
      <trkpt lat="41.828533" lon="-8.074150">
        <ele>983.0</ele>
        <time>2010-08-26T17:49:15Z</time>
      </trkpt>
      <trkpt lat="41.828567" lon="-8.074117">
        <ele>983.0</ele>
        <time>2010-08-26T17:49:18Z</time>
      </trkpt>
      <trkpt lat="41.828600" lon="-8.074083">
        <ele>984.0</ele>
        <time>2010-08-26T17:49:20Z</time>
      </trkpt>
      <trkpt lat="41.828633" lon="-8.074067">
        <ele>985.0</ele>
        <time>2010-08-26T17:49:22Z</time>
      </trkpt>
      <trkpt lat="41.828650" lon="-8.074067">
        <ele>985.0</ele>
        <time>2010-08-26T17:49:24Z</time>
      </trkpt>
      <trkpt lat="41.828683" lon="-8.074067">
        <ele>986.0</ele>
        <time>2010-08-26T17:49:26Z</time>
      </trkpt>
      <trkpt lat="41.828717" lon="-8.074067">
        <ele>986.0</ele>
        <time>2010-08-26T17:49:28Z</time>
      </trkpt>
      <trkpt lat="41.828750" lon="-8.074117">
        <ele>986.0</ele>
        <time>2010-08-26T17:49:30Z</time>
      </trkpt>
      <trkpt lat="41.828767" lon="-8.074150">
        <ele>986.0</ele>
        <time>2010-08-26T17:49:32Z</time>
      </trkpt>
      <trkpt lat="41.828767" lon="-8.074217">
        <ele>986.0</ele>
        <time>2010-08-26T17:49:34Z</time>
      </trkpt>
      <trkpt lat="41.828783" lon="-8.074267">
        <ele>986.0</ele>
        <time>2010-08-26T17:49:36Z</time>
      </trkpt>
      <trkpt lat="41.828800" lon="-8.074317">
        <ele>986.0</ele>
        <time>2010-08-26T17:49:38Z</time>
      </trkpt>
      <trkpt lat="41.828817" lon="-8.074350">
        <ele>986.0</ele>
        <time>2010-08-26T17:49:39Z</time>
      </trkpt>
      <trkpt lat="41.828817" lon="-8.074383">
        <ele>986.0</ele>
        <time>2010-08-26T17:49:40Z</time>
      </trkpt>
      <trkpt lat="41.828833" lon="-8.074417">
        <ele>986.0</ele>
        <time>2010-08-26T17:49:41Z</time>
      </trkpt>
      <trkpt lat="41.828850" lon="-8.074450">
        <ele>986.0</ele>
        <time>2010-08-26T17:49:42Z</time>
      </trkpt>
      <trkpt lat="41.828867" lon="-8.074483">
        <ele>986.0</ele>
        <time>2010-08-26T17:49:43Z</time>
      </trkpt>
      <trkpt lat="41.828867" lon="-8.074517">
        <ele>985.0</ele>
        <time>2010-08-26T17:49:44Z</time>
      </trkpt>
      <trkpt lat="41.828883" lon="-8.074550">
        <ele>985.0</ele>
        <time>2010-08-26T17:49:45Z</time>
      </trkpt>
      <trkpt lat="41.828900" lon="-8.074583">
        <ele>985.0</ele>
        <time>2010-08-26T17:49:46Z</time>
      </trkpt>
      <trkpt lat="41.828917" lon="-8.074600">
        <ele>984.0</ele>
        <time>2010-08-26T17:49:47Z</time>
      </trkpt>
      <trkpt lat="41.828933" lon="-8.074633">
        <ele>984.0</ele>
        <time>2010-08-26T17:49:48Z</time>
      </trkpt>
      <trkpt lat="41.828950" lon="-8.074650">
        <ele>984.0</ele>
        <time>2010-08-26T17:49:49Z</time>
      </trkpt>
      <trkpt lat="41.828983" lon="-8.074683">
        <ele>984.0</ele>
        <time>2010-08-26T17:49:50Z</time>
      </trkpt>
      <trkpt lat="41.829000" lon="-8.074700">
        <ele>983.0</ele>
        <time>2010-08-26T17:49:51Z</time>
      </trkpt>
      <trkpt lat="41.829033" lon="-8.074733">
        <ele>983.0</ele>
        <time>2010-08-26T17:49:52Z</time>
      </trkpt>
      <trkpt lat="41.829050" lon="-8.074750">
        <ele>983.0</ele>
        <time>2010-08-26T17:49:53Z</time>
      </trkpt>
      <trkpt lat="41.829083" lon="-8.074767">
        <ele>983.0</ele>
        <time>2010-08-26T17:49:54Z</time>
      </trkpt>
      <trkpt lat="41.829117" lon="-8.074783">
        <ele>983.0</ele>
        <time>2010-08-26T17:49:55Z</time>
      </trkpt>
      <trkpt lat="41.829133" lon="-8.074800">
        <ele>982.0</ele>
        <time>2010-08-26T17:49:56Z</time>
      </trkpt>
      <trkpt lat="41.829167" lon="-8.074817">
        <ele>982.0</ele>
        <time>2010-08-26T17:49:57Z</time>
      </trkpt>
      <trkpt lat="41.829200" lon="-8.074833">
        <ele>982.0</ele>
        <time>2010-08-26T17:49:58Z</time>
      </trkpt>
      <trkpt lat="41.829217" lon="-8.074850">
        <ele>982.0</ele>
        <time>2010-08-26T17:49:59Z</time>
      </trkpt>
      <trkpt lat="41.829250" lon="-8.074883">
        <ele>982.0</ele>
        <time>2010-08-26T17:50:00Z</time>
      </trkpt>
      <trkpt lat="41.829283" lon="-8.074900">
        <ele>982.0</ele>
        <time>2010-08-26T17:50:01Z</time>
      </trkpt>
      <trkpt lat="41.829300" lon="-8.074917">
        <ele>982.0</ele>
        <time>2010-08-26T17:50:02Z</time>
      </trkpt>
      <trkpt lat="41.829333" lon="-8.074933">
        <ele>981.0</ele>
        <time>2010-08-26T17:50:03Z</time>
      </trkpt>
      <trkpt lat="41.829350" lon="-8.074950">
        <ele>981.0</ele>
        <time>2010-08-26T17:50:04Z</time>
      </trkpt>
      <trkpt lat="41.829383" lon="-8.074967">
        <ele>981.0</ele>
        <time>2010-08-26T17:50:05Z</time>
      </trkpt>
      <trkpt lat="41.829400" lon="-8.074983">
        <ele>981.0</ele>
        <time>2010-08-26T17:50:06Z</time>
      </trkpt>
      <trkpt lat="41.829433" lon="-8.075000">
        <ele>981.0</ele>
        <time>2010-08-26T17:50:07Z</time>
      </trkpt>
      <trkpt lat="41.829450" lon="-8.075017">
        <ele>981.0</ele>
        <time>2010-08-26T17:50:08Z</time>
      </trkpt>
      <trkpt lat="41.829483" lon="-8.075033">
        <ele>981.0</ele>
        <time>2010-08-26T17:50:09Z</time>
      </trkpt>
      <trkpt lat="41.829500" lon="-8.075050">
        <ele>981.0</ele>
        <time>2010-08-26T17:50:10Z</time>
      </trkpt>
      <trkpt lat="41.829533" lon="-8.075067">
        <ele>980.0</ele>
        <time>2010-08-26T17:50:11Z</time>
      </trkpt>
      <trkpt lat="41.829567" lon="-8.075083">
        <ele>980.0</ele>
        <time>2010-08-26T17:50:12Z</time>
      </trkpt>
      <trkpt lat="41.829583" lon="-8.075100">
        <ele>980.0</ele>
        <time>2010-08-26T17:50:13Z</time>
      </trkpt>
      <trkpt lat="41.829617" lon="-8.075117">
        <ele>980.0</ele>
        <time>2010-08-26T17:50:14Z</time>
      </trkpt>
      <trkpt lat="41.829633" lon="-8.075133">
        <ele>980.0</ele>
        <time>2010-08-26T17:50:15Z</time>
      </trkpt>
      <trkpt lat="41.829667" lon="-8.075167">
        <ele>980.0</ele>
        <time>2010-08-26T17:50:16Z</time>
      </trkpt>
      <trkpt lat="41.829683" lon="-8.075183">
        <ele>980.0</ele>
        <time>2010-08-26T17:50:17Z</time>
      </trkpt>
      <trkpt lat="41.829717" lon="-8.075200">
        <ele>980.0</ele>
        <time>2010-08-26T17:50:18Z</time>
      </trkpt>
      <trkpt lat="41.829733" lon="-8.075233">
        <ele>980.0</ele>
        <time>2010-08-26T17:50:19Z</time>
      </trkpt>
      <trkpt lat="41.829767" lon="-8.075250">
        <ele>979.0</ele>
        <time>2010-08-26T17:50:20Z</time>
      </trkpt>
      <trkpt lat="41.829783" lon="-8.075283">
        <ele>979.0</ele>
        <time>2010-08-26T17:50:21Z</time>
      </trkpt>
      <trkpt lat="41.829800" lon="-8.075317">
        <ele>979.0</ele>
        <time>2010-08-26T17:50:22Z</time>
      </trkpt>
      <trkpt lat="41.829817" lon="-8.075350">
        <ele>979.0</ele>
        <time>2010-08-26T17:50:23Z</time>
      </trkpt>
      <trkpt lat="41.829833" lon="-8.075383">
        <ele>979.0</ele>
        <time>2010-08-26T17:50:24Z</time>
      </trkpt>
      <trkpt lat="41.829850" lon="-8.075400">
        <ele>979.0</ele>
        <time>2010-08-26T17:50:25Z</time>
      </trkpt>
      <trkpt lat="41.829867" lon="-8.075433">
        <ele>979.0</ele>
        <time>2010-08-26T17:50:26Z</time>
      </trkpt>
      <trkpt lat="41.829883" lon="-8.075467">
        <ele>979.0</ele>
        <time>2010-08-26T17:50:27Z</time>
      </trkpt>
      <trkpt lat="41.829900" lon="-8.075500">
        <ele>980.0</ele>
        <time>2010-08-26T17:50:28Z</time>
      </trkpt>
      <trkpt lat="41.829917" lon="-8.075533">
        <ele>980.0</ele>
        <time>2010-08-26T17:50:29Z</time>
      </trkpt>
      <trkpt lat="41.829933" lon="-8.075550">
        <ele>980.0</ele>
        <time>2010-08-26T17:50:30Z</time>
      </trkpt>
      <trkpt lat="41.829950" lon="-8.075583">
        <ele>980.0</ele>
        <time>2010-08-26T17:50:31Z</time>
      </trkpt>
      <trkpt lat="41.829967" lon="-8.075617">
        <ele>980.0</ele>
        <time>2010-08-26T17:50:32Z</time>
      </trkpt>
      <trkpt lat="41.829967" lon="-8.075633">
        <ele>980.0</ele>
        <time>2010-08-26T17:50:33Z</time>
      </trkpt>
      <trkpt lat="41.829983" lon="-8.075667">
        <ele>980.0</ele>
        <time>2010-08-26T17:50:34Z</time>
      </trkpt>
      <trkpt lat="41.830000" lon="-8.075717">
        <ele>981.0</ele>
        <time>2010-08-26T17:50:36Z</time>
      </trkpt>
      <trkpt lat="41.830033" lon="-8.075750">
        <ele>981.0</ele>
        <time>2010-08-26T17:50:38Z</time>
      </trkpt>
      <trkpt lat="41.830050" lon="-8.075800">
        <ele>981.0</ele>
        <time>2010-08-26T17:50:40Z</time>
      </trkpt>
      <trkpt lat="41.830067" lon="-8.075833">
        <ele>982.0</ele>
        <time>2010-08-26T17:50:42Z</time>
      </trkpt>
      <trkpt lat="41.830083" lon="-8.075883">
        <ele>982.0</ele>
        <time>2010-08-26T17:50:44Z</time>
      </trkpt>
      <trkpt lat="41.830117" lon="-8.075917">
        <ele>982.0</ele>
        <time>2010-08-26T17:50:46Z</time>
      </trkpt>
      <trkpt lat="41.830133" lon="-8.075950">
        <ele>982.0</ele>
        <time>2010-08-26T17:50:48Z</time>
      </trkpt>
      <trkpt lat="41.830167" lon="-8.076000">
        <ele>982.0</ele>
        <time>2010-08-26T17:50:50Z</time>
      </trkpt>
      <trkpt lat="41.830183" lon="-8.076033">
        <ele>983.0</ele>
        <time>2010-08-26T17:50:52Z</time>
      </trkpt>
      <trkpt lat="41.830217" lon="-8.076067">
        <ele>983.0</ele>
        <time>2010-08-26T17:50:54Z</time>
      </trkpt>
      <trkpt lat="41.830233" lon="-8.076083">
        <ele>983.0</ele>
        <time>2010-08-26T17:50:56Z</time>
      </trkpt>
      <trkpt lat="41.830267" lon="-8.076100">
        <ele>983.0</ele>
        <time>2010-08-26T17:50:58Z</time>
      </trkpt>
      <trkpt lat="41.830300" lon="-8.076117">
        <ele>984.0</ele>
        <time>2010-08-26T17:51:00Z</time>
      </trkpt>
      <trkpt lat="41.830333" lon="-8.076133">
        <ele>984.0</ele>
        <time>2010-08-26T17:51:02Z</time>
      </trkpt>
      <trkpt lat="41.830367" lon="-8.076150">
        <ele>984.0</ele>
        <time>2010-08-26T17:51:04Z</time>
      </trkpt>
      <trkpt lat="41.830400" lon="-8.076167">
        <ele>985.0</ele>
        <time>2010-08-26T17:51:06Z</time>
      </trkpt>
      <trkpt lat="41.830433" lon="-8.076200">
        <ele>985.0</ele>
        <time>2010-08-26T17:51:08Z</time>
      </trkpt>
      <trkpt lat="41.830450" lon="-8.076233">
        <ele>985.0</ele>
        <time>2010-08-26T17:51:10Z</time>
      </trkpt>
      <trkpt lat="41.830483" lon="-8.076250">
        <ele>985.0</ele>
        <time>2010-08-26T17:51:12Z</time>
      </trkpt>
      <trkpt lat="41.830500" lon="-8.076283">
        <ele>985.0</ele>
        <time>2010-08-26T17:51:14Z</time>
      </trkpt>
      <trkpt lat="41.830533" lon="-8.076317">
        <ele>986.0</ele>
        <time>2010-08-26T17:51:16Z</time>
      </trkpt>
      <trkpt lat="41.830567" lon="-8.076350">
        <ele>986.0</ele>
        <time>2010-08-26T17:51:18Z</time>
      </trkpt>
      <trkpt lat="41.830583" lon="-8.076383">
        <ele>986.0</ele>
        <time>2010-08-26T17:51:20Z</time>
      </trkpt>
      <trkpt lat="41.830617" lon="-8.076417">
        <ele>987.0</ele>
        <time>2010-08-26T17:51:22Z</time>
      </trkpt>
      <trkpt lat="41.830650" lon="-8.076433">
        <ele>987.0</ele>
        <time>2010-08-26T17:51:24Z</time>
      </trkpt>
      <trkpt lat="41.830683" lon="-8.076450">
        <ele>988.0</ele>
        <time>2010-08-26T17:51:26Z</time>
      </trkpt>
      <trkpt lat="41.830700" lon="-8.076483">
        <ele>988.0</ele>
        <time>2010-08-26T17:51:28Z</time>
      </trkpt>
      <trkpt lat="41.830733" lon="-8.076500">
        <ele>989.0</ele>
        <time>2010-08-26T17:51:30Z</time>
      </trkpt>
      <trkpt lat="41.830767" lon="-8.076517">
        <ele>990.0</ele>
        <time>2010-08-26T17:51:32Z</time>
      </trkpt>
      <trkpt lat="41.830800" lon="-8.076533">
        <ele>990.0</ele>
        <time>2010-08-26T17:51:34Z</time>
      </trkpt>
      <trkpt lat="41.830833" lon="-8.076550">
        <ele>990.0</ele>
        <time>2010-08-26T17:51:36Z</time>
      </trkpt>
      <trkpt lat="41.830867" lon="-8.076567">
        <ele>991.0</ele>
        <time>2010-08-26T17:51:38Z</time>
      </trkpt>
      <trkpt lat="41.830900" lon="-8.076567">
        <ele>991.0</ele>
        <time>2010-08-26T17:51:40Z</time>
      </trkpt>
      <trkpt lat="41.830933" lon="-8.076583">
        <ele>992.0</ele>
        <time>2010-08-26T17:51:43Z</time>
      </trkpt>
      <trkpt lat="41.830950" lon="-8.076600">
        <ele>992.0</ele>
        <time>2010-08-26T17:51:45Z</time>
      </trkpt>
      <trkpt lat="41.830983" lon="-8.076617">
        <ele>992.0</ele>
        <time>2010-08-26T17:51:47Z</time>
      </trkpt>
      <trkpt lat="41.831033" lon="-8.076633">
        <ele>993.0</ele>
        <time>2010-08-26T17:51:49Z</time>
      </trkpt>
      <trkpt lat="41.831067" lon="-8.076650">
        <ele>994.0</ele>
        <time>2010-08-26T17:51:51Z</time>
      </trkpt>
      <trkpt lat="41.831100" lon="-8.076683">
        <ele>994.0</ele>
        <time>2010-08-26T17:51:53Z</time>
      </trkpt>
      <trkpt lat="41.831133" lon="-8.076700">
        <ele>995.0</ele>
        <time>2010-08-26T17:51:55Z</time>
      </trkpt>
      <trkpt lat="41.831167" lon="-8.076733">
        <ele>996.0</ele>
        <time>2010-08-26T17:51:57Z</time>
      </trkpt>
      <trkpt lat="41.831200" lon="-8.076750">
        <ele>996.0</ele>
        <time>2010-08-26T17:51:59Z</time>
      </trkpt>
      <trkpt lat="41.831233" lon="-8.076783">
        <ele>997.0</ele>
        <time>2010-08-26T17:52:01Z</time>
      </trkpt>
      <trkpt lat="41.831267" lon="-8.076817">
        <ele>997.0</ele>
        <time>2010-08-26T17:52:03Z</time>
      </trkpt>
      <trkpt lat="41.831300" lon="-8.076833">
        <ele>998.0</ele>
        <time>2010-08-26T17:52:05Z</time>
      </trkpt>
      <trkpt lat="41.831333" lon="-8.076867">
        <ele>998.0</ele>
        <time>2010-08-26T17:52:07Z</time>
      </trkpt>
      <trkpt lat="41.831367" lon="-8.076883">
        <ele>998.0</ele>
        <time>2010-08-26T17:52:09Z</time>
      </trkpt>
      <trkpt lat="41.831400" lon="-8.076900">
        <ele>999.0</ele>
        <time>2010-08-26T17:52:11Z</time>
      </trkpt>
      <trkpt lat="41.831433" lon="-8.076917">
        <ele>999.0</ele>
        <time>2010-08-26T17:52:13Z</time>
      </trkpt>
      <trkpt lat="41.831467" lon="-8.076933">
        <ele>1000.0</ele>
        <time>2010-08-26T17:52:15Z</time>
      </trkpt>
      <trkpt lat="41.831500" lon="-8.076933">
        <ele>1000.0</ele>
        <time>2010-08-26T17:52:17Z</time>
      </trkpt>
      <trkpt lat="41.831533" lon="-8.076950">
        <ele>1001.0</ele>
        <time>2010-08-26T17:52:20Z</time>
      </trkpt>
      <trkpt lat="41.831567" lon="-8.076967">
        <ele>1001.0</ele>
        <time>2010-08-26T17:52:22Z</time>
      </trkpt>
      <trkpt lat="41.831600" lon="-8.076983">
        <ele>1001.0</ele>
        <time>2010-08-26T17:52:25Z</time>
      </trkpt>
      <trkpt lat="41.831633" lon="-8.077000">
        <ele>1002.0</ele>
        <time>2010-08-26T17:52:27Z</time>
      </trkpt>
      <trkpt lat="41.831667" lon="-8.077033">
        <ele>1002.0</ele>
        <time>2010-08-26T17:52:29Z</time>
      </trkpt>
      <trkpt lat="41.831683" lon="-8.077050">
        <ele>1003.0</ele>
        <time>2010-08-26T17:52:31Z</time>
      </trkpt>
      <trkpt lat="41.831717" lon="-8.077067">
        <ele>1003.0</ele>
        <time>2010-08-26T17:52:33Z</time>
      </trkpt>
      <trkpt lat="41.831750" lon="-8.077083">
        <ele>1004.0</ele>
        <time>2010-08-26T17:52:35Z</time>
      </trkpt>
      <trkpt lat="41.831783" lon="-8.077100">
        <ele>1004.0</ele>
        <time>2010-08-26T17:52:37Z</time>
      </trkpt>
      <trkpt lat="41.831817" lon="-8.077100">
        <ele>1004.0</ele>
        <time>2010-08-26T17:52:39Z</time>
      </trkpt>
      <trkpt lat="41.831850" lon="-8.077133">
        <ele>1004.0</ele>
        <time>2010-08-26T17:52:41Z</time>
      </trkpt>
      <trkpt lat="41.831883" lon="-8.077150">
        <ele>1004.0</ele>
        <time>2010-08-26T17:52:43Z</time>
      </trkpt>
      <trkpt lat="41.831900" lon="-8.077150">
        <ele>1004.0</ele>
        <time>2010-08-26T17:52:45Z</time>
      </trkpt>
      <trkpt lat="41.831933" lon="-8.077167">
        <ele>1004.0</ele>
        <time>2010-08-26T17:52:47Z</time>
      </trkpt>
      <trkpt lat="41.831967" lon="-8.077183">
        <ele>1004.0</ele>
        <time>2010-08-26T17:52:49Z</time>
      </trkpt>
      <trkpt lat="41.832000" lon="-8.077200">
        <ele>1004.0</ele>
        <time>2010-08-26T17:52:51Z</time>
      </trkpt>
      <trkpt lat="41.832033" lon="-8.077217">
        <ele>1004.0</ele>
        <time>2010-08-26T17:52:53Z</time>
      </trkpt>
      <trkpt lat="41.832067" lon="-8.077233">
        <ele>1004.0</ele>
        <time>2010-08-26T17:52:55Z</time>
      </trkpt>
      <trkpt lat="41.832083" lon="-8.077267">
        <ele>1004.0</ele>
        <time>2010-08-26T17:52:57Z</time>
      </trkpt>
      <trkpt lat="41.832117" lon="-8.077300">
        <ele>1004.0</ele>
        <time>2010-08-26T17:52:59Z</time>
      </trkpt>
      <trkpt lat="41.832150" lon="-8.077317">
        <ele>1004.0</ele>
        <time>2010-08-26T17:53:01Z</time>
      </trkpt>
      <trkpt lat="41.832183" lon="-8.077350">
        <ele>1004.0</ele>
        <time>2010-08-26T17:53:03Z</time>
      </trkpt>
      <trkpt lat="41.832217" lon="-8.077383">
        <ele>1004.0</ele>
        <time>2010-08-26T17:53:05Z</time>
      </trkpt>
      <trkpt lat="41.832250" lon="-8.077400">
        <ele>1004.0</ele>
        <time>2010-08-26T17:53:07Z</time>
      </trkpt>
      <trkpt lat="41.832267" lon="-8.077433">
        <ele>1005.0</ele>
        <time>2010-08-26T17:53:09Z</time>
      </trkpt>
      <trkpt lat="41.832300" lon="-8.077450">
        <ele>1005.0</ele>
        <time>2010-08-26T17:53:11Z</time>
      </trkpt>
      <trkpt lat="41.832333" lon="-8.077467">
        <ele>1005.0</ele>
        <time>2010-08-26T17:53:13Z</time>
      </trkpt>
      <trkpt lat="41.832367" lon="-8.077500">
        <ele>1006.0</ele>
        <time>2010-08-26T17:53:15Z</time>
      </trkpt>
      <trkpt lat="41.832400" lon="-8.077517">
        <ele>1008.0</ele>
        <time>2010-08-26T17:53:17Z</time>
      </trkpt>
      <trkpt lat="41.832433" lon="-8.077550">
        <ele>1009.0</ele>
        <time>2010-08-26T17:53:19Z</time>
      </trkpt>
      <trkpt lat="41.832467" lon="-8.077567">
        <ele>1010.0</ele>
        <time>2010-08-26T17:53:21Z</time>
      </trkpt>
      <trkpt lat="41.832500" lon="-8.077600">
        <ele>1011.0</ele>
        <time>2010-08-26T17:53:23Z</time>
      </trkpt>
      <trkpt lat="41.832533" lon="-8.077617">
        <ele>1012.0</ele>
        <time>2010-08-26T17:53:25Z</time>
      </trkpt>
      <trkpt lat="41.832567" lon="-8.077633">
        <ele>1012.0</ele>
        <time>2010-08-26T17:53:27Z</time>
      </trkpt>
      <trkpt lat="41.832600" lon="-8.077650">
        <ele>1012.0</ele>
        <time>2010-08-26T17:53:29Z</time>
      </trkpt>
      <trkpt lat="41.832650" lon="-8.077667">
        <ele>1013.0</ele>
        <time>2010-08-26T17:53:31Z</time>
      </trkpt>
      <trkpt lat="41.832683" lon="-8.077667">
        <ele>1013.0</ele>
        <time>2010-08-26T17:53:33Z</time>
      </trkpt>
      <trkpt lat="41.832717" lon="-8.077683">
        <ele>1014.0</ele>
        <time>2010-08-26T17:53:35Z</time>
      </trkpt>
      <trkpt lat="41.832767" lon="-8.077683">
        <ele>1014.0</ele>
        <time>2010-08-26T17:53:37Z</time>
      </trkpt>
      <trkpt lat="41.832783" lon="-8.077683">
        <ele>1014.0</ele>
        <time>2010-08-26T17:53:38Z</time>
      </trkpt>
      <trkpt lat="41.832833" lon="-8.077683">
        <ele>1015.0</ele>
        <time>2010-08-26T17:53:40Z</time>
      </trkpt>
      <trkpt lat="41.832867" lon="-8.077683">
        <ele>1015.0</ele>
        <time>2010-08-26T17:53:42Z</time>
      </trkpt>
      <trkpt lat="41.832917" lon="-8.077683">
        <ele>1015.0</ele>
        <time>2010-08-26T17:53:44Z</time>
      </trkpt>
      <trkpt lat="41.832950" lon="-8.077667">
        <ele>1015.0</ele>
        <time>2010-08-26T17:53:46Z</time>
      </trkpt>
      <trkpt lat="41.833000" lon="-8.077667">
        <ele>1015.0</ele>
        <time>2010-08-26T17:53:48Z</time>
      </trkpt>
      <trkpt lat="41.833033" lon="-8.077667">
        <ele>1016.0</ele>
        <time>2010-08-26T17:53:50Z</time>
      </trkpt>
      <trkpt lat="41.833067" lon="-8.077667">
        <ele>1016.0</ele>
        <time>2010-08-26T17:53:52Z</time>
      </trkpt>
      <trkpt lat="41.833117" lon="-8.077667">
        <ele>1017.0</ele>
        <time>2010-08-26T17:53:54Z</time>
      </trkpt>
      <trkpt lat="41.833150" lon="-8.077667">
        <ele>1017.0</ele>
        <time>2010-08-26T17:53:56Z</time>
      </trkpt>
      <trkpt lat="41.833183" lon="-8.077667">
        <ele>1018.0</ele>
        <time>2010-08-26T17:53:58Z</time>
      </trkpt>
      <trkpt lat="41.833233" lon="-8.077667">
        <ele>1018.0</ele>
        <time>2010-08-26T17:54:00Z</time>
      </trkpt>
      <trkpt lat="41.833267" lon="-8.077667">
        <ele>1019.0</ele>
        <time>2010-08-26T17:54:02Z</time>
      </trkpt>
      <trkpt lat="41.833317" lon="-8.077667">
        <ele>1019.0</ele>
        <time>2010-08-26T17:54:04Z</time>
      </trkpt>
      <trkpt lat="41.833350" lon="-8.077667">
        <ele>1020.0</ele>
        <time>2010-08-26T17:54:06Z</time>
      </trkpt>
      <trkpt lat="41.833400" lon="-8.077667">
        <ele>1020.0</ele>
        <time>2010-08-26T17:54:08Z</time>
      </trkpt>
      <trkpt lat="41.833433" lon="-8.077650">
        <ele>1020.0</ele>
        <time>2010-08-26T17:54:10Z</time>
      </trkpt>
      <trkpt lat="41.833467" lon="-8.077650">
        <ele>1020.0</ele>
        <time>2010-08-26T17:54:12Z</time>
      </trkpt>
      <trkpt lat="41.833517" lon="-8.077633">
        <ele>1020.0</ele>
        <time>2010-08-26T17:54:14Z</time>
      </trkpt>
      <trkpt lat="41.833550" lon="-8.077633">
        <ele>1020.0</ele>
        <time>2010-08-26T17:54:16Z</time>
      </trkpt>
      <trkpt lat="41.833600" lon="-8.077650">
        <ele>1020.0</ele>
        <time>2010-08-26T17:54:18Z</time>
      </trkpt>
      <trkpt lat="41.833633" lon="-8.077650">
        <ele>1020.0</ele>
        <time>2010-08-26T17:54:20Z</time>
      </trkpt>
      <trkpt lat="41.833667" lon="-8.077667">
        <ele>1020.0</ele>
        <time>2010-08-26T17:54:21Z</time>
      </trkpt>
      <trkpt lat="41.833683" lon="-8.077667">
        <ele>1020.0</ele>
        <time>2010-08-26T17:54:22Z</time>
      </trkpt>
      <trkpt lat="41.833717" lon="-8.077667">
        <ele>1020.0</ele>
        <time>2010-08-26T17:54:23Z</time>
      </trkpt>
      <trkpt lat="41.833750" lon="-8.077683">
        <ele>1019.0</ele>
        <time>2010-08-26T17:54:25Z</time>
      </trkpt>
      <trkpt lat="41.833800" lon="-8.077683">
        <ele>1020.0</ele>
        <time>2010-08-26T17:54:27Z</time>
      </trkpt>
      <trkpt lat="41.833833" lon="-8.077700">
        <ele>1020.0</ele>
        <time>2010-08-26T17:54:29Z</time>
      </trkpt>
      <trkpt lat="41.833867" lon="-8.077650">
        <ele>1011.0</ele>
        <time>2010-08-26T17:54:50Z</time>
      </trkpt>
      <trkpt lat="41.833900" lon="-8.077667">
        <ele>1008.0</ele>
        <time>2010-08-26T17:55:14Z</time>
      </trkpt>
      <trkpt lat="41.833933" lon="-8.077683">
        <ele>1008.0</ele>
        <time>2010-08-26T17:55:16Z</time>
      </trkpt>
      <trkpt lat="41.833967" lon="-8.077700">
        <ele>1009.0</ele>
        <time>2010-08-26T17:55:18Z</time>
      </trkpt>
      <trkpt lat="41.834017" lon="-8.077717">
        <ele>1009.0</ele>
        <time>2010-08-26T17:55:20Z</time>
      </trkpt>
      <trkpt lat="41.834050" lon="-8.077733">
        <ele>1010.0</ele>
        <time>2010-08-26T17:55:22Z</time>
      </trkpt>
      <trkpt lat="41.834083" lon="-8.077750">
        <ele>1011.0</ele>
        <time>2010-08-26T17:55:24Z</time>
      </trkpt>
      <trkpt lat="41.834133" lon="-8.077767">
        <ele>1012.0</ele>
        <time>2010-08-26T17:55:26Z</time>
      </trkpt>
      <trkpt lat="41.834167" lon="-8.077767">
        <ele>1012.0</ele>
        <time>2010-08-26T17:55:28Z</time>
      </trkpt>
      <trkpt lat="41.834217" lon="-8.077783">
        <ele>1013.0</ele>
        <time>2010-08-26T17:55:30Z</time>
      </trkpt>
      <trkpt lat="41.834250" lon="-8.077783">
        <ele>1013.0</ele>
        <time>2010-08-26T17:55:32Z</time>
      </trkpt>
      <trkpt lat="41.834283" lon="-8.077783">
        <ele>1014.0</ele>
        <time>2010-08-26T17:55:34Z</time>
      </trkpt>
      <trkpt lat="41.834317" lon="-8.077783">
        <ele>1015.0</ele>
        <time>2010-08-26T17:55:36Z</time>
      </trkpt>
      <trkpt lat="41.834350" lon="-8.077783">
        <ele>1016.0</ele>
        <time>2010-08-26T17:55:38Z</time>
      </trkpt>
      <trkpt lat="41.834400" lon="-8.077800">
        <ele>1017.0</ele>
        <time>2010-08-26T17:55:40Z</time>
      </trkpt>
      <trkpt lat="41.834417" lon="-8.077800">
        <ele>1018.0</ele>
        <time>2010-08-26T17:55:42Z</time>
      </trkpt>
      <trkpt lat="41.834450" lon="-8.077800">
        <ele>1019.0</ele>
        <time>2010-08-26T17:55:44Z</time>
      </trkpt>
      <trkpt lat="41.834483" lon="-8.077800">
        <ele>1021.0</ele>
        <time>2010-08-26T17:55:46Z</time>
      </trkpt>
      <trkpt lat="41.834517" lon="-8.077817">
        <ele>1023.0</ele>
        <time>2010-08-26T17:55:48Z</time>
      </trkpt>
      <trkpt lat="41.834567" lon="-8.077817">
        <ele>1025.0</ele>
        <time>2010-08-26T17:55:50Z</time>
      </trkpt>
      <trkpt lat="41.834600" lon="-8.077833">
        <ele>1027.0</ele>
        <time>2010-08-26T17:55:52Z</time>
      </trkpt>
      <trkpt lat="41.834633" lon="-8.077867">
        <ele>1029.0</ele>
        <time>2010-08-26T17:55:54Z</time>
      </trkpt>
      <trkpt lat="41.834667" lon="-8.077883">
        <ele>1032.0</ele>
        <time>2010-08-26T17:55:56Z</time>
      </trkpt>
      <trkpt lat="41.834683" lon="-8.077900">
        <ele>1036.0</ele>
        <time>2010-08-26T17:55:58Z</time>
      </trkpt>
      <trkpt lat="41.834717" lon="-8.077917">
        <ele>1039.0</ele>
        <time>2010-08-26T17:56:00Z</time>
      </trkpt>
      <trkpt lat="41.834750" lon="-8.077933">
        <ele>1042.0</ele>
        <time>2010-08-26T17:56:02Z</time>
      </trkpt>
      <trkpt lat="41.834783" lon="-8.077967">
        <ele>1045.0</ele>
        <time>2010-08-26T17:56:04Z</time>
      </trkpt>
      <trkpt lat="41.834817" lon="-8.078000">
        <ele>1048.0</ele>
        <time>2010-08-26T17:56:07Z</time>
      </trkpt>
      <trkpt lat="41.834850" lon="-8.078033">
        <ele>1051.0</ele>
        <time>2010-08-26T17:56:10Z</time>
      </trkpt>
      <trkpt lat="41.834883" lon="-8.078067">
        <ele>1053.0</ele>
        <time>2010-08-26T17:56:12Z</time>
      </trkpt>
      <trkpt lat="41.834917" lon="-8.078100">
        <ele>1055.0</ele>
        <time>2010-08-26T17:56:14Z</time>
      </trkpt>
      <trkpt lat="41.834933" lon="-8.078133">
        <ele>1057.0</ele>
        <time>2010-08-26T17:56:16Z</time>
      </trkpt>
      <trkpt lat="41.834967" lon="-8.078150">
        <ele>1059.0</ele>
        <time>2010-08-26T17:56:18Z</time>
      </trkpt>
      <trkpt lat="41.835000" lon="-8.078183">
        <ele>1061.0</ele>
        <time>2010-08-26T17:56:20Z</time>
      </trkpt>
      <trkpt lat="41.835017" lon="-8.078217">
        <ele>1062.0</ele>
        <time>2010-08-26T17:56:22Z</time>
      </trkpt>
      <trkpt lat="41.835050" lon="-8.078233">
        <ele>1064.0</ele>
        <time>2010-08-26T17:56:24Z</time>
      </trkpt>
      <trkpt lat="41.835083" lon="-8.078267">
        <ele>1065.0</ele>
        <time>2010-08-26T17:56:26Z</time>
      </trkpt>
      <trkpt lat="41.835100" lon="-8.078300">
        <ele>1066.0</ele>
        <time>2010-08-26T17:56:28Z</time>
      </trkpt>
      <trkpt lat="41.835133" lon="-8.078333">
        <ele>1067.0</ele>
        <time>2010-08-26T17:56:30Z</time>
      </trkpt>
      <trkpt lat="41.835150" lon="-8.078367">
        <ele>1069.0</ele>
        <time>2010-08-26T17:56:32Z</time>
      </trkpt>
      <trkpt lat="41.835183" lon="-8.078383">
        <ele>1070.0</ele>
        <time>2010-08-26T17:56:34Z</time>
      </trkpt>
      <trkpt lat="41.835217" lon="-8.078417">
        <ele>1070.0</ele>
        <time>2010-08-26T17:56:36Z</time>
      </trkpt>
      <trkpt lat="41.835250" lon="-8.078450">
        <ele>1070.0</ele>
        <time>2010-08-26T17:56:38Z</time>
      </trkpt>
      <trkpt lat="41.835283" lon="-8.078483">
        <ele>1070.0</ele>
        <time>2010-08-26T17:56:40Z</time>
      </trkpt>
      <trkpt lat="41.835317" lon="-8.078517">
        <ele>1069.0</ele>
        <time>2010-08-26T17:56:42Z</time>
      </trkpt>
      <trkpt lat="41.835333" lon="-8.078533">
        <ele>1068.0</ele>
        <time>2010-08-26T17:56:44Z</time>
      </trkpt>
      <trkpt lat="41.835367" lon="-8.078567">
        <ele>1068.0</ele>
        <time>2010-08-26T17:56:46Z</time>
      </trkpt>
      <trkpt lat="41.835383" lon="-8.078617">
        <ele>1066.0</ele>
        <time>2010-08-26T17:56:49Z</time>
      </trkpt>
      <trkpt lat="41.835417" lon="-8.078650">
        <ele>1065.0</ele>
        <time>2010-08-26T17:56:51Z</time>
      </trkpt>
      <trkpt lat="41.835433" lon="-8.078667">
        <ele>1062.0</ele>
        <time>2010-08-26T17:56:53Z</time>
      </trkpt>
      <trkpt lat="41.835450" lon="-8.078700">
        <ele>1059.0</ele>
        <time>2010-08-26T17:56:55Z</time>
      </trkpt>
      <trkpt lat="41.835483" lon="-8.078733">
        <ele>1055.0</ele>
        <time>2010-08-26T17:56:57Z</time>
      </trkpt>
      <trkpt lat="41.835517" lon="-8.078767">
        <ele>1051.0</ele>
        <time>2010-08-26T17:56:59Z</time>
      </trkpt>
      <trkpt lat="41.835550" lon="-8.078783">
        <ele>1048.0</ele>
        <time>2010-08-26T17:57:01Z</time>
      </trkpt>
      <trkpt lat="41.835583" lon="-8.078800">
        <ele>1045.0</ele>
        <time>2010-08-26T17:57:03Z</time>
      </trkpt>
      <trkpt lat="41.835617" lon="-8.078817">
        <ele>1043.0</ele>
        <time>2010-08-26T17:57:05Z</time>
      </trkpt>
      <trkpt lat="41.835667" lon="-8.078850">
        <ele>1041.0</ele>
        <time>2010-08-26T17:57:07Z</time>
      </trkpt>
      <trkpt lat="41.835700" lon="-8.078883">
        <ele>1040.0</ele>
        <time>2010-08-26T17:57:09Z</time>
      </trkpt>
      <trkpt lat="41.835717" lon="-8.078917">
        <ele>1039.0</ele>
        <time>2010-08-26T17:57:10Z</time>
      </trkpt>
      <trkpt lat="41.835717" lon="-8.078933">
        <ele>1038.0</ele>
        <time>2010-08-26T17:57:11Z</time>
      </trkpt>
      <trkpt lat="41.835733" lon="-8.078967">
        <ele>1038.0</ele>
        <time>2010-08-26T17:57:12Z</time>
      </trkpt>
      <trkpt lat="41.835750" lon="-8.078983">
        <ele>1037.0</ele>
        <time>2010-08-26T17:57:13Z</time>
      </trkpt>
      <trkpt lat="41.835767" lon="-8.079017">
        <ele>1037.0</ele>
        <time>2010-08-26T17:57:14Z</time>
      </trkpt>
      <trkpt lat="41.835783" lon="-8.079033">
        <ele>1036.0</ele>
        <time>2010-08-26T17:57:15Z</time>
      </trkpt>
      <trkpt lat="41.835783" lon="-8.079067">
        <ele>1036.0</ele>
        <time>2010-08-26T17:57:16Z</time>
      </trkpt>
      <trkpt lat="41.835800" lon="-8.079117">
        <ele>1035.0</ele>
        <time>2010-08-26T17:57:18Z</time>
      </trkpt>
      <trkpt lat="41.835817" lon="-8.079183">
        <ele>1035.0</ele>
        <time>2010-08-26T17:57:20Z</time>
      </trkpt>
      <trkpt lat="41.835833" lon="-8.079200">
        <ele>1035.0</ele>
        <time>2010-08-26T17:57:21Z</time>
      </trkpt>
      <trkpt lat="41.835850" lon="-8.079233">
        <ele>1034.0</ele>
        <time>2010-08-26T17:57:22Z</time>
      </trkpt>
      <trkpt lat="41.835850" lon="-8.079267">
        <ele>1034.0</ele>
        <time>2010-08-26T17:57:23Z</time>
      </trkpt>
      <trkpt lat="41.835867" lon="-8.079300">
        <ele>1034.0</ele>
        <time>2010-08-26T17:57:24Z</time>
      </trkpt>
      <trkpt lat="41.835883" lon="-8.079333">
        <ele>1034.0</ele>
        <time>2010-08-26T17:57:25Z</time>
      </trkpt>
      <trkpt lat="41.835900" lon="-8.079367">
        <ele>1034.0</ele>
        <time>2010-08-26T17:57:26Z</time>
      </trkpt>
      <trkpt lat="41.835917" lon="-8.079400">
        <ele>1034.0</ele>
        <time>2010-08-26T17:57:27Z</time>
      </trkpt>
      <trkpt lat="41.835933" lon="-8.079417">
        <ele>1034.0</ele>
        <time>2010-08-26T17:57:28Z</time>
      </trkpt>
      <trkpt lat="41.835950" lon="-8.079450">
        <ele>1033.0</ele>
        <time>2010-08-26T17:57:29Z</time>
      </trkpt>
      <trkpt lat="41.835983" lon="-8.079483">
        <ele>1033.0</ele>
        <time>2010-08-26T17:57:30Z</time>
      </trkpt>
      <trkpt lat="41.836017" lon="-8.079517">
        <ele>1033.0</ele>
        <time>2010-08-26T17:57:31Z</time>
      </trkpt>
      <trkpt lat="41.836050" lon="-8.079550">
        <ele>1033.0</ele>
        <time>2010-08-26T17:57:32Z</time>
      </trkpt>
      <trkpt lat="41.836067" lon="-8.079583">
        <ele>1033.0</ele>
        <time>2010-08-26T17:57:33Z</time>
      </trkpt>
      <trkpt lat="41.836100" lon="-8.079617">
        <ele>1032.0</ele>
        <time>2010-08-26T17:57:34Z</time>
      </trkpt>
      <trkpt lat="41.836117" lon="-8.079667">
        <ele>1032.0</ele>
        <time>2010-08-26T17:57:35Z</time>
      </trkpt>
      <trkpt lat="41.836150" lon="-8.079717">
        <ele>1032.0</ele>
        <time>2010-08-26T17:57:36Z</time>
      </trkpt>
      <trkpt lat="41.836167" lon="-8.079767">
        <ele>1032.0</ele>
        <time>2010-08-26T17:57:37Z</time>
      </trkpt>
      <trkpt lat="41.836183" lon="-8.079817">
        <ele>1032.0</ele>
        <time>2010-08-26T17:57:38Z</time>
      </trkpt>
      <trkpt lat="41.836183" lon="-8.079883">
        <ele>1032.0</ele>
        <time>2010-08-26T17:57:39Z</time>
      </trkpt>
      <trkpt lat="41.836200" lon="-8.079933">
        <ele>1031.0</ele>
        <time>2010-08-26T17:57:40Z</time>
      </trkpt>
      <trkpt lat="41.836217" lon="-8.079983">
        <ele>1031.0</ele>
        <time>2010-08-26T17:57:41Z</time>
      </trkpt>
      <trkpt lat="41.836233" lon="-8.080017">
        <ele>1031.0</ele>
        <time>2010-08-26T17:57:42Z</time>
      </trkpt>
      <trkpt lat="41.836250" lon="-8.080067">
        <ele>1031.0</ele>
        <time>2010-08-26T17:57:43Z</time>
      </trkpt>
      <trkpt lat="41.836267" lon="-8.080100">
        <ele>1031.0</ele>
        <time>2010-08-26T17:57:44Z</time>
      </trkpt>
      <trkpt lat="41.836267" lon="-8.080133">
        <ele>1031.0</ele>
        <time>2010-08-26T17:57:45Z</time>
      </trkpt>
      <trkpt lat="41.836267" lon="-8.080200">
        <ele>1030.0</ele>
        <time>2010-08-26T17:57:49Z</time>
      </trkpt>
      <trkpt lat="41.836283" lon="-8.080250">
        <ele>1022.0</ele>
        <time>2010-08-26T17:58:48Z</time>
      </trkpt>
      <trkpt lat="41.836283" lon="-8.080300">
        <ele>1022.0</ele>
        <time>2010-08-26T17:58:50Z</time>
      </trkpt>
      <trkpt lat="41.836300" lon="-8.080333">
        <ele>1022.0</ele>
        <time>2010-08-26T17:58:51Z</time>
      </trkpt>
      <trkpt lat="41.836300" lon="-8.080367">
        <ele>1022.0</ele>
        <time>2010-08-26T17:58:52Z</time>
      </trkpt>
      <trkpt lat="41.836317" lon="-8.080417">
        <ele>1022.0</ele>
        <time>2010-08-26T17:58:53Z</time>
      </trkpt>
      <trkpt lat="41.836333" lon="-8.080450">
        <ele>1022.0</ele>
        <time>2010-08-26T17:58:54Z</time>
      </trkpt>
      <trkpt lat="41.836333" lon="-8.080500">
        <ele>1022.0</ele>
        <time>2010-08-26T17:58:55Z</time>
      </trkpt>
      <trkpt lat="41.836350" lon="-8.080533">
        <ele>1023.0</ele>
        <time>2010-08-26T17:58:56Z</time>
      </trkpt>
      <trkpt lat="41.836367" lon="-8.080583">
        <ele>1023.0</ele>
        <time>2010-08-26T17:58:57Z</time>
      </trkpt>
      <trkpt lat="41.836383" lon="-8.080633">
        <ele>1023.0</ele>
        <time>2010-08-26T17:58:58Z</time>
      </trkpt>
      <trkpt lat="41.836400" lon="-8.080667">
        <ele>1023.0</ele>
        <time>2010-08-26T17:58:59Z</time>
      </trkpt>
      <trkpt lat="41.836400" lon="-8.080717">
        <ele>1023.0</ele>
        <time>2010-08-26T17:59:00Z</time>
      </trkpt>
      <trkpt lat="41.836417" lon="-8.080750">
        <ele>1023.0</ele>
        <time>2010-08-26T17:59:01Z</time>
      </trkpt>
      <trkpt lat="41.836433" lon="-8.080800">
        <ele>1023.0</ele>
        <time>2010-08-26T17:59:02Z</time>
      </trkpt>
      <trkpt lat="41.836433" lon="-8.080833">
        <ele>1023.0</ele>
        <time>2010-08-26T17:59:03Z</time>
      </trkpt>
      <trkpt lat="41.836450" lon="-8.080867">
        <ele>1024.0</ele>
        <time>2010-08-26T17:59:04Z</time>
      </trkpt>
      <trkpt lat="41.836450" lon="-8.080900">
        <ele>1024.0</ele>
        <time>2010-08-26T17:59:05Z</time>
      </trkpt>
      <trkpt lat="41.836467" lon="-8.080933">
        <ele>1024.0</ele>
        <time>2010-08-26T17:59:06Z</time>
      </trkpt>
      <trkpt lat="41.836483" lon="-8.080983">
        <ele>1025.0</ele>
        <time>2010-08-26T17:59:08Z</time>
      </trkpt>
      <trkpt lat="41.836500" lon="-8.081033">
        <ele>1025.0</ele>
        <time>2010-08-26T17:59:10Z</time>
      </trkpt>
      <trkpt lat="41.836517" lon="-8.081083">
        <ele>1025.0</ele>
        <time>2010-08-26T17:59:12Z</time>
      </trkpt>
      <trkpt lat="41.836533" lon="-8.081133">
        <ele>1026.0</ele>
        <time>2010-08-26T17:59:14Z</time>
      </trkpt>
      <trkpt lat="41.836533" lon="-8.081200">
        <ele>1026.0</ele>
        <time>2010-08-26T17:59:16Z</time>
      </trkpt>
      <trkpt lat="41.836550" lon="-8.081250">
        <ele>1027.0</ele>
        <time>2010-08-26T17:59:18Z</time>
      </trkpt>
      <trkpt lat="41.836550" lon="-8.081283">
        <ele>1027.0</ele>
        <time>2010-08-26T17:59:20Z</time>
      </trkpt>
      <trkpt lat="41.836567" lon="-8.081333">
        <ele>1028.0</ele>
        <time>2010-08-26T17:59:22Z</time>
      </trkpt>
      <trkpt lat="41.836583" lon="-8.081367">
        <ele>1028.0</ele>
        <time>2010-08-26T17:59:24Z</time>
      </trkpt>
      <trkpt lat="41.836617" lon="-8.081417">
        <ele>1029.0</ele>
        <time>2010-08-26T17:59:26Z</time>
      </trkpt>
      <trkpt lat="41.836633" lon="-8.081450">
        <ele>1029.0</ele>
        <time>2010-08-26T17:59:28Z</time>
      </trkpt>
      <trkpt lat="41.836650" lon="-8.081500">
        <ele>1030.0</ele>
        <time>2010-08-26T17:59:30Z</time>
      </trkpt>
      <trkpt lat="41.836667" lon="-8.081517">
        <ele>1030.0</ele>
        <time>2010-08-26T17:59:32Z</time>
      </trkpt>
      <trkpt lat="41.836700" lon="-8.081550">
        <ele>1030.0</ele>
        <time>2010-08-26T17:59:34Z</time>
      </trkpt>
      <trkpt lat="41.836717" lon="-8.081583">
        <ele>1031.0</ele>
        <time>2010-08-26T17:59:36Z</time>
      </trkpt>
      <trkpt lat="41.836750" lon="-8.081617">
        <ele>1031.0</ele>
        <time>2010-08-26T17:59:38Z</time>
      </trkpt>
      <trkpt lat="41.836767" lon="-8.081650">
        <ele>1032.0</ele>
        <time>2010-08-26T17:59:40Z</time>
      </trkpt>
      <trkpt lat="41.836783" lon="-8.081683">
        <ele>1033.0</ele>
        <time>2010-08-26T17:59:42Z</time>
      </trkpt>
      <trkpt lat="41.836817" lon="-8.081700">
        <ele>1033.0</ele>
        <time>2010-08-26T17:59:44Z</time>
      </trkpt>
      <trkpt lat="41.836833" lon="-8.081733">
        <ele>1034.0</ele>
        <time>2010-08-26T17:59:46Z</time>
      </trkpt>
      <trkpt lat="41.836867" lon="-8.081750">
        <ele>1035.0</ele>
        <time>2010-08-26T17:59:49Z</time>
      </trkpt>
      <trkpt lat="41.836900" lon="-8.081783">
        <ele>1036.0</ele>
        <time>2010-08-26T17:59:52Z</time>
      </trkpt>
      <trkpt lat="41.836933" lon="-8.081817">
        <ele>1041.0</ele>
        <time>2010-08-26T18:00:19Z</time>
      </trkpt>
      <trkpt lat="41.836983" lon="-8.081850">
        <ele>1042.0</ele>
        <time>2010-08-26T18:00:22Z</time>
      </trkpt>
      <trkpt lat="41.837000" lon="-8.081867">
        <ele>1043.0</ele>
        <time>2010-08-26T18:00:24Z</time>
      </trkpt>
      <trkpt lat="41.837033" lon="-8.081883">
        <ele>1043.0</ele>
        <time>2010-08-26T18:00:26Z</time>
      </trkpt>
      <trkpt lat="41.837067" lon="-8.081917">
        <ele>1044.0</ele>
        <time>2010-08-26T18:00:28Z</time>
      </trkpt>
      <trkpt lat="41.837100" lon="-8.081933">
        <ele>1044.0</ele>
        <time>2010-08-26T18:00:30Z</time>
      </trkpt>
      <trkpt lat="41.837133" lon="-8.081967">
        <ele>1045.0</ele>
        <time>2010-08-26T18:00:32Z</time>
      </trkpt>
      <trkpt lat="41.837167" lon="-8.081983">
        <ele>1046.0</ele>
        <time>2010-08-26T18:00:34Z</time>
      </trkpt>
      <trkpt lat="41.837183" lon="-8.082000">
        <ele>1046.0</ele>
        <time>2010-08-26T18:00:36Z</time>
      </trkpt>
      <trkpt lat="41.837217" lon="-8.082033">
        <ele>1047.0</ele>
        <time>2010-08-26T18:00:38Z</time>
      </trkpt>
      <trkpt lat="41.837250" lon="-8.082050">
        <ele>1048.0</ele>
        <time>2010-08-26T18:00:40Z</time>
      </trkpt>
      <trkpt lat="41.837267" lon="-8.082083">
        <ele>1049.0</ele>
        <time>2010-08-26T18:00:42Z</time>
      </trkpt>
      <trkpt lat="41.837300" lon="-8.082100">
        <ele>1049.0</ele>
        <time>2010-08-26T18:00:44Z</time>
      </trkpt>
      <trkpt lat="41.837317" lon="-8.082133">
        <ele>1050.0</ele>
        <time>2010-08-26T18:00:46Z</time>
      </trkpt>
      <trkpt lat="41.837350" lon="-8.082150">
        <ele>1051.0</ele>
        <time>2010-08-26T18:00:48Z</time>
      </trkpt>
      <trkpt lat="41.837367" lon="-8.082183">
        <ele>1051.0</ele>
        <time>2010-08-26T18:00:50Z</time>
      </trkpt>
      <trkpt lat="41.837383" lon="-8.082217">
        <ele>1052.0</ele>
        <time>2010-08-26T18:00:52Z</time>
      </trkpt>
      <trkpt lat="41.837400" lon="-8.082250">
        <ele>1053.0</ele>
        <time>2010-08-26T18:00:54Z</time>
      </trkpt>
      <trkpt lat="41.837433" lon="-8.082283">
        <ele>1053.0</ele>
        <time>2010-08-26T18:00:56Z</time>
      </trkpt>
      <trkpt lat="41.837450" lon="-8.082317">
        <ele>1054.0</ele>
        <time>2010-08-26T18:00:58Z</time>
      </trkpt>
      <trkpt lat="41.837483" lon="-8.082350">
        <ele>1055.0</ele>
        <time>2010-08-26T18:01:01Z</time>
      </trkpt>
      <trkpt lat="41.837500" lon="-8.082383">
        <ele>1056.0</ele>
        <time>2010-08-26T18:01:23Z</time>
      </trkpt>
      <trkpt lat="41.837533" lon="-8.082400">
        <ele>1056.0</ele>
        <time>2010-08-26T18:01:25Z</time>
      </trkpt>
      <trkpt lat="41.837567" lon="-8.082417">
        <ele>1056.0</ele>
        <time>2010-08-26T18:01:27Z</time>
      </trkpt>
      <trkpt lat="41.837600" lon="-8.082433">
        <ele>1056.0</ele>
        <time>2010-08-26T18:01:29Z</time>
      </trkpt>
      <trkpt lat="41.837617" lon="-8.082450">
        <ele>1057.0</ele>
        <time>2010-08-26T18:01:31Z</time>
      </trkpt>
      <trkpt lat="41.837650" lon="-8.082483">
        <ele>1057.0</ele>
        <time>2010-08-26T18:01:33Z</time>
      </trkpt>
      <trkpt lat="41.837683" lon="-8.082500">
        <ele>1057.0</ele>
        <time>2010-08-26T18:01:35Z</time>
      </trkpt>
      <trkpt lat="41.837717" lon="-8.082517">
        <ele>1058.0</ele>
        <time>2010-08-26T18:01:37Z</time>
      </trkpt>
      <trkpt lat="41.837733" lon="-8.082550">
        <ele>1058.0</ele>
        <time>2010-08-26T18:01:39Z</time>
      </trkpt>
      <trkpt lat="41.837767" lon="-8.082550">
        <ele>1058.0</ele>
        <time>2010-08-26T18:01:41Z</time>
      </trkpt>
      <trkpt lat="41.837800" lon="-8.082567">
        <ele>1059.0</ele>
        <time>2010-08-26T18:01:43Z</time>
      </trkpt>
      <trkpt lat="41.837833" lon="-8.082583">
        <ele>1059.0</ele>
        <time>2010-08-26T18:01:45Z</time>
      </trkpt>
      <trkpt lat="41.837867" lon="-8.082600">
        <ele>1059.0</ele>
        <time>2010-08-26T18:01:47Z</time>
      </trkpt>
      <trkpt lat="41.837900" lon="-8.082600">
        <ele>1060.0</ele>
        <time>2010-08-26T18:01:49Z</time>
      </trkpt>
      <trkpt lat="41.837933" lon="-8.082600">
        <ele>1060.0</ele>
        <time>2010-08-26T18:01:51Z</time>
      </trkpt>
      <trkpt lat="41.837967" lon="-8.082600">
        <ele>1060.0</ele>
        <time>2010-08-26T18:01:53Z</time>
      </trkpt>
      <trkpt lat="41.838000" lon="-8.082600">
        <ele>1060.0</ele>
        <time>2010-08-26T18:01:55Z</time>
      </trkpt>
      <trkpt lat="41.838033" lon="-8.082600">
        <ele>1061.0</ele>
        <time>2010-08-26T18:01:57Z</time>
      </trkpt>
      <trkpt lat="41.838083" lon="-8.082600">
        <ele>1061.0</ele>
        <time>2010-08-26T18:01:59Z</time>
      </trkpt>
      <trkpt lat="41.838117" lon="-8.082600">
        <ele>1061.0</ele>
        <time>2010-08-26T18:02:01Z</time>
      </trkpt>
      <trkpt lat="41.838150" lon="-8.082600">
        <ele>1061.0</ele>
        <time>2010-08-26T18:02:03Z</time>
      </trkpt>
      <trkpt lat="41.838183" lon="-8.082600">
        <ele>1062.0</ele>
        <time>2010-08-26T18:02:05Z</time>
      </trkpt>
      <trkpt lat="41.838217" lon="-8.082600">
        <ele>1062.0</ele>
        <time>2010-08-26T18:02:07Z</time>
      </trkpt>
      <trkpt lat="41.838250" lon="-8.082600">
        <ele>1062.0</ele>
        <time>2010-08-26T18:02:09Z</time>
      </trkpt>
      <trkpt lat="41.838300" lon="-8.082600">
        <ele>1062.0</ele>
        <time>2010-08-26T18:02:11Z</time>
      </trkpt>
      <trkpt lat="41.838333" lon="-8.082600">
        <ele>1063.0</ele>
        <time>2010-08-26T18:02:13Z</time>
      </trkpt>
      <trkpt lat="41.838367" lon="-8.082600">
        <ele>1063.0</ele>
        <time>2010-08-26T18:02:15Z</time>
      </trkpt>
      <trkpt lat="41.838400" lon="-8.082600">
        <ele>1063.0</ele>
        <time>2010-08-26T18:02:17Z</time>
      </trkpt>
      <trkpt lat="41.838450" lon="-8.082617">
        <ele>1064.0</ele>
        <time>2010-08-26T18:02:19Z</time>
      </trkpt>
      <trkpt lat="41.838483" lon="-8.082617">
        <ele>1064.0</ele>
        <time>2010-08-26T18:02:21Z</time>
      </trkpt>
      <trkpt lat="41.838533" lon="-8.082633">
        <ele>1064.0</ele>
        <time>2010-08-26T18:02:23Z</time>
      </trkpt>
      <trkpt lat="41.838567" lon="-8.082633">
        <ele>1065.0</ele>
        <time>2010-08-26T18:02:25Z</time>
      </trkpt>
      <trkpt lat="41.838600" lon="-8.082650">
        <ele>1065.0</ele>
        <time>2010-08-26T18:02:27Z</time>
      </trkpt>
      <trkpt lat="41.838633" lon="-8.082667">
        <ele>1066.0</ele>
        <time>2010-08-26T18:02:29Z</time>
      </trkpt>
      <trkpt lat="41.838683" lon="-8.082683">
        <ele>1066.0</ele>
        <time>2010-08-26T18:02:31Z</time>
      </trkpt>
      <trkpt lat="41.838717" lon="-8.082700">
        <ele>1067.0</ele>
        <time>2010-08-26T18:02:33Z</time>
      </trkpt>
      <trkpt lat="41.838750" lon="-8.082700">
        <ele>1067.0</ele>
        <time>2010-08-26T18:02:47Z</time>
      </trkpt>
      <trkpt lat="41.838800" lon="-8.082683">
        <ele>1063.0</ele>
        <time>2010-08-26T18:03:01Z</time>
      </trkpt>
      <trkpt lat="41.838817" lon="-8.082667">
        <ele>1063.0</ele>
        <time>2010-08-26T18:03:03Z</time>
      </trkpt>
      <trkpt lat="41.838833" lon="-8.082650">
        <ele>1062.0</ele>
        <time>2010-08-26T18:03:04Z</time>
      </trkpt>
      <trkpt lat="41.838867" lon="-8.082633">
        <ele>1062.0</ele>
        <time>2010-08-26T18:03:05Z</time>
      </trkpt>
      <trkpt lat="41.838900" lon="-8.082617">
        <ele>1062.0</ele>
        <time>2010-08-26T18:03:06Z</time>
      </trkpt>
      <trkpt lat="41.838933" lon="-8.082600">
        <ele>1062.0</ele>
        <time>2010-08-26T18:03:07Z</time>
      </trkpt>
      <trkpt lat="41.838967" lon="-8.082583">
        <ele>1061.0</ele>
        <time>2010-08-26T18:03:08Z</time>
      </trkpt>
      <trkpt lat="41.839000" lon="-8.082567">
        <ele>1061.0</ele>
        <time>2010-08-26T18:03:09Z</time>
      </trkpt>
      <trkpt lat="41.839033" lon="-8.082550">
        <ele>1061.0</ele>
        <time>2010-08-26T18:03:10Z</time>
      </trkpt>
      <trkpt lat="41.839067" lon="-8.082533">
        <ele>1061.0</ele>
        <time>2010-08-26T18:03:11Z</time>
      </trkpt>
      <trkpt lat="41.839100" lon="-8.082500">
        <ele>1061.0</ele>
        <time>2010-08-26T18:03:12Z</time>
      </trkpt>
      <trkpt lat="41.839133" lon="-8.082483">
        <ele>1061.0</ele>
        <time>2010-08-26T18:03:13Z</time>
      </trkpt>
      <trkpt lat="41.839150" lon="-8.082450">
        <ele>1061.0</ele>
        <time>2010-08-26T18:03:14Z</time>
      </trkpt>
      <trkpt lat="41.839183" lon="-8.082433">
        <ele>1061.0</ele>
        <time>2010-08-26T18:03:15Z</time>
      </trkpt>
      <trkpt lat="41.839217" lon="-8.082400">
        <ele>1060.0</ele>
        <time>2010-08-26T18:03:16Z</time>
      </trkpt>
      <trkpt lat="41.839250" lon="-8.082383">
        <ele>1060.0</ele>
        <time>2010-08-26T18:03:17Z</time>
      </trkpt>
      <trkpt lat="41.839267" lon="-8.082367">
        <ele>1060.0</ele>
        <time>2010-08-26T18:03:18Z</time>
      </trkpt>
      <trkpt lat="41.839300" lon="-8.082350">
        <ele>1060.0</ele>
        <time>2010-08-26T18:03:19Z</time>
      </trkpt>
      <trkpt lat="41.839317" lon="-8.082333">
        <ele>1060.0</ele>
        <time>2010-08-26T18:03:20Z</time>
      </trkpt>
      <trkpt lat="41.839333" lon="-8.082317">
        <ele>1060.0</ele>
        <time>2010-08-26T18:03:21Z</time>
      </trkpt>
      <trkpt lat="41.839367" lon="-8.082283">
        <ele>1060.0</ele>
        <time>2010-08-26T18:03:22Z</time>
      </trkpt>
      <trkpt lat="41.839400" lon="-8.082267">
        <ele>1059.0</ele>
        <time>2010-08-26T18:03:23Z</time>
      </trkpt>
      <trkpt lat="41.839433" lon="-8.082233">
        <ele>1059.0</ele>
        <time>2010-08-26T18:03:24Z</time>
      </trkpt>
      <trkpt lat="41.839450" lon="-8.082200">
        <ele>1059.0</ele>
        <time>2010-08-26T18:03:25Z</time>
      </trkpt>
      <trkpt lat="41.839483" lon="-8.082167">
        <ele>1058.0</ele>
        <time>2010-08-26T18:03:26Z</time>
      </trkpt>
      <trkpt lat="41.839500" lon="-8.082133">
        <ele>1058.0</ele>
        <time>2010-08-26T18:03:27Z</time>
      </trkpt>
      <trkpt lat="41.839517" lon="-8.082083">
        <ele>1058.0</ele>
        <time>2010-08-26T18:03:28Z</time>
      </trkpt>
      <trkpt lat="41.839533" lon="-8.082033">
        <ele>1058.0</ele>
        <time>2010-08-26T18:03:29Z</time>
      </trkpt>
      <trkpt lat="41.839550" lon="-8.081983">
        <ele>1058.0</ele>
        <time>2010-08-26T18:03:30Z</time>
      </trkpt>
      <trkpt lat="41.839567" lon="-8.081933">
        <ele>1057.0</ele>
        <time>2010-08-26T18:03:31Z</time>
      </trkpt>
      <trkpt lat="41.839583" lon="-8.081883">
        <ele>1057.0</ele>
        <time>2010-08-26T18:03:32Z</time>
      </trkpt>
      <trkpt lat="41.839600" lon="-8.081833">
        <ele>1057.0</ele>
        <time>2010-08-26T18:03:33Z</time>
      </trkpt>
      <trkpt lat="41.839617" lon="-8.081800">
        <ele>1057.0</ele>
        <time>2010-08-26T18:03:34Z</time>
      </trkpt>
      <trkpt lat="41.839650" lon="-8.081750">
        <ele>1057.0</ele>
        <time>2010-08-26T18:03:35Z</time>
      </trkpt>
      <trkpt lat="41.839667" lon="-8.081700">
        <ele>1056.0</ele>
        <time>2010-08-26T18:03:36Z</time>
      </trkpt>
      <trkpt lat="41.839700" lon="-8.081667">
        <ele>1056.0</ele>
        <time>2010-08-26T18:03:37Z</time>
      </trkpt>
      <trkpt lat="41.839717" lon="-8.081617">
        <ele>1056.0</ele>
        <time>2010-08-26T18:03:38Z</time>
      </trkpt>
      <trkpt lat="41.839750" lon="-8.081567">
        <ele>1056.0</ele>
        <time>2010-08-26T18:03:39Z</time>
      </trkpt>
      <trkpt lat="41.839783" lon="-8.081533">
        <ele>1055.0</ele>
        <time>2010-08-26T18:03:40Z</time>
      </trkpt>
      <trkpt lat="41.839800" lon="-8.081483">
        <ele>1055.0</ele>
        <time>2010-08-26T18:03:41Z</time>
      </trkpt>
      <trkpt lat="41.839833" lon="-8.081433">
        <ele>1055.0</ele>
        <time>2010-08-26T18:03:42Z</time>
      </trkpt>
      <trkpt lat="41.839850" lon="-8.081383">
        <ele>1054.0</ele>
        <time>2010-08-26T18:03:43Z</time>
      </trkpt>
      <trkpt lat="41.839867" lon="-8.081333">
        <ele>1054.0</ele>
        <time>2010-08-26T18:03:44Z</time>
      </trkpt>
      <trkpt lat="41.839883" lon="-8.081283">
        <ele>1054.0</ele>
        <time>2010-08-26T18:03:45Z</time>
      </trkpt>
      <trkpt lat="41.839900" lon="-8.081233">
        <ele>1054.0</ele>
        <time>2010-08-26T18:03:46Z</time>
      </trkpt>
      <trkpt lat="41.839917" lon="-8.081183">
        <ele>1054.0</ele>
        <time>2010-08-26T18:03:47Z</time>
      </trkpt>
      <trkpt lat="41.839917" lon="-8.081150">
        <ele>1053.0</ele>
        <time>2010-08-26T18:03:48Z</time>
      </trkpt>
      <trkpt lat="41.839933" lon="-8.081117">
        <ele>1053.0</ele>
        <time>2010-08-26T18:03:49Z</time>
      </trkpt>
      <trkpt lat="41.839950" lon="-8.081067">
        <ele>1053.0</ele>
        <time>2010-08-26T18:03:51Z</time>
      </trkpt>
      <trkpt lat="41.839967" lon="-8.081017">
        <ele>1049.0</ele>
        <time>2010-08-26T18:04:23Z</time>
      </trkpt>
      <trkpt lat="41.840017" lon="-8.081000">
        <ele>1049.0</ele>
        <time>2010-08-26T18:04:26Z</time>
      </trkpt>
      <trkpt lat="41.840033" lon="-8.080983">
        <ele>1048.0</ele>
        <time>2010-08-26T18:04:27Z</time>
      </trkpt>
      <trkpt lat="41.840050" lon="-8.080967">
        <ele>1048.0</ele>
        <time>2010-08-26T18:04:28Z</time>
      </trkpt>
      <trkpt lat="41.840083" lon="-8.080933">
        <ele>1048.0</ele>
        <time>2010-08-26T18:04:29Z</time>
      </trkpt>
      <trkpt lat="41.840117" lon="-8.080917">
        <ele>1048.0</ele>
        <time>2010-08-26T18:04:30Z</time>
      </trkpt>
      <trkpt lat="41.840150" lon="-8.080900">
        <ele>1048.0</ele>
        <time>2010-08-26T18:04:31Z</time>
      </trkpt>
      <trkpt lat="41.840183" lon="-8.080867">
        <ele>1047.0</ele>
        <time>2010-08-26T18:04:32Z</time>
      </trkpt>
      <trkpt lat="41.840217" lon="-8.080833">
        <ele>1047.0</ele>
        <time>2010-08-26T18:04:33Z</time>
      </trkpt>
      <trkpt lat="41.840250" lon="-8.080817">
        <ele>1047.0</ele>
        <time>2010-08-26T18:04:34Z</time>
      </trkpt>
      <trkpt lat="41.840283" lon="-8.080783">
        <ele>1047.0</ele>
        <time>2010-08-26T18:04:35Z</time>
      </trkpt>
      <trkpt lat="41.840317" lon="-8.080750">
        <ele>1047.0</ele>
        <time>2010-08-26T18:04:36Z</time>
      </trkpt>
      <trkpt lat="41.840367" lon="-8.080717">
        <ele>1047.0</ele>
        <time>2010-08-26T18:04:37Z</time>
      </trkpt>
      <trkpt lat="41.840400" lon="-8.080683">
        <ele>1046.0</ele>
        <time>2010-08-26T18:04:38Z</time>
      </trkpt>
      <trkpt lat="41.840450" lon="-8.080650">
        <ele>1046.0</ele>
        <time>2010-08-26T18:04:39Z</time>
      </trkpt>
      <trkpt lat="41.840500" lon="-8.080633">
        <ele>1046.0</ele>
        <time>2010-08-26T18:04:40Z</time>
      </trkpt>
      <trkpt lat="41.840550" lon="-8.080617">
        <ele>1046.0</ele>
        <time>2010-08-26T18:04:41Z</time>
      </trkpt>
      <trkpt lat="41.840600" lon="-8.080617">
        <ele>1046.0</ele>
        <time>2010-08-26T18:04:42Z</time>
      </trkpt>
      <trkpt lat="41.840650" lon="-8.080617">
        <ele>1046.0</ele>
        <time>2010-08-26T18:04:43Z</time>
      </trkpt>
      <trkpt lat="41.840700" lon="-8.080633">
        <ele>1046.0</ele>
        <time>2010-08-26T18:04:44Z</time>
      </trkpt>
      <trkpt lat="41.840750" lon="-8.080633">
        <ele>1046.0</ele>
        <time>2010-08-26T18:04:45Z</time>
      </trkpt>
      <trkpt lat="41.840800" lon="-8.080667">
        <ele>1046.0</ele>
        <time>2010-08-26T18:04:46Z</time>
      </trkpt>
      <trkpt lat="41.840850" lon="-8.080683">
        <ele>1046.0</ele>
        <time>2010-08-26T18:04:47Z</time>
      </trkpt>
      <trkpt lat="41.840900" lon="-8.080700">
        <ele>1046.0</ele>
        <time>2010-08-26T18:04:48Z</time>
      </trkpt>
      <trkpt lat="41.840933" lon="-8.080733">
        <ele>1046.0</ele>
        <time>2010-08-26T18:04:49Z</time>
      </trkpt>
      <trkpt lat="41.840983" lon="-8.080767">
        <ele>1046.0</ele>
        <time>2010-08-26T18:04:50Z</time>
      </trkpt>
      <trkpt lat="41.841033" lon="-8.080783">
        <ele>1046.0</ele>
        <time>2010-08-26T18:04:51Z</time>
      </trkpt>
      <trkpt lat="41.841083" lon="-8.080800">
        <ele>1046.0</ele>
        <time>2010-08-26T18:04:52Z</time>
      </trkpt>
      <trkpt lat="41.841133" lon="-8.080817">
        <ele>1046.0</ele>
        <time>2010-08-26T18:04:53Z</time>
      </trkpt>
      <trkpt lat="41.841183" lon="-8.080817">
        <ele>1046.0</ele>
        <time>2010-08-26T18:04:54Z</time>
      </trkpt>
      <trkpt lat="41.841233" lon="-8.080817">
        <ele>1047.0</ele>
        <time>2010-08-26T18:04:55Z</time>
      </trkpt>
      <trkpt lat="41.841283" lon="-8.080833">
        <ele>1047.0</ele>
        <time>2010-08-26T18:04:56Z</time>
      </trkpt>
      <trkpt lat="41.841333" lon="-8.080833">
        <ele>1047.0</ele>
        <time>2010-08-26T18:04:57Z</time>
      </trkpt>
      <trkpt lat="41.841383" lon="-8.080833">
        <ele>1047.0</ele>
        <time>2010-08-26T18:04:58Z</time>
      </trkpt>
      <trkpt lat="41.841433" lon="-8.080833">
        <ele>1047.0</ele>
        <time>2010-08-26T18:04:59Z</time>
      </trkpt>
      <trkpt lat="41.841483" lon="-8.080833">
        <ele>1047.0</ele>
        <time>2010-08-26T18:05:00Z</time>
      </trkpt>
      <trkpt lat="41.841533" lon="-8.080850">
        <ele>1047.0</ele>
        <time>2010-08-26T18:05:01Z</time>
      </trkpt>
      <trkpt lat="41.841600" lon="-8.080850">
        <ele>1047.0</ele>
        <time>2010-08-26T18:05:02Z</time>
      </trkpt>
      <trkpt lat="41.841650" lon="-8.080867">
        <ele>1047.0</ele>
        <time>2010-08-26T18:05:03Z</time>
      </trkpt>
      <trkpt lat="41.841700" lon="-8.080900">
        <ele>1047.0</ele>
        <time>2010-08-26T18:05:04Z</time>
      </trkpt>
      <trkpt lat="41.841733" lon="-8.080917">
        <ele>1047.0</ele>
        <time>2010-08-26T18:05:05Z</time>
      </trkpt>
      <trkpt lat="41.841783" lon="-8.080933">
        <ele>1047.0</ele>
        <time>2010-08-26T18:05:06Z</time>
      </trkpt>
      <trkpt lat="41.841833" lon="-8.080967">
        <ele>1047.0</ele>
        <time>2010-08-26T18:05:07Z</time>
      </trkpt>
      <trkpt lat="41.841883" lon="-8.080983">
        <ele>1047.0</ele>
        <time>2010-08-26T18:05:08Z</time>
      </trkpt>
      <trkpt lat="41.841933" lon="-8.081000">
        <ele>1047.0</ele>
        <time>2010-08-26T18:05:09Z</time>
      </trkpt>
      <trkpt lat="41.841983" lon="-8.081033">
        <ele>1047.0</ele>
        <time>2010-08-26T18:05:10Z</time>
      </trkpt>
      <trkpt lat="41.842033" lon="-8.081050">
        <ele>1047.0</ele>
        <time>2010-08-26T18:05:11Z</time>
      </trkpt>
      <trkpt lat="41.842083" lon="-8.081083">
        <ele>1048.0</ele>
        <time>2010-08-26T18:05:12Z</time>
      </trkpt>
      <trkpt lat="41.842133" lon="-8.081100">
        <ele>1048.0</ele>
        <time>2010-08-26T18:05:13Z</time>
      </trkpt>
      <trkpt lat="41.842183" lon="-8.081133">
        <ele>1048.0</ele>
        <time>2010-08-26T18:05:14Z</time>
      </trkpt>
      <trkpt lat="41.842233" lon="-8.081150">
        <ele>1048.0</ele>
        <time>2010-08-26T18:05:15Z</time>
      </trkpt>
      <trkpt lat="41.842283" lon="-8.081183">
        <ele>1048.0</ele>
        <time>2010-08-26T18:05:16Z</time>
      </trkpt>
      <trkpt lat="41.842317" lon="-8.081200">
        <ele>1048.0</ele>
        <time>2010-08-26T18:05:17Z</time>
      </trkpt>
      <trkpt lat="41.842367" lon="-8.081233">
        <ele>1048.0</ele>
        <time>2010-08-26T18:05:18Z</time>
      </trkpt>
      <trkpt lat="41.842417" lon="-8.081250">
        <ele>1048.0</ele>
        <time>2010-08-26T18:05:19Z</time>
      </trkpt>
      <trkpt lat="41.842467" lon="-8.081267">
        <ele>1048.0</ele>
        <time>2010-08-26T18:05:20Z</time>
      </trkpt>
      <trkpt lat="41.842517" lon="-8.081300">
        <ele>1048.0</ele>
        <time>2010-08-26T18:05:21Z</time>
      </trkpt>
      <trkpt lat="41.842567" lon="-8.081317">
        <ele>1048.0</ele>
        <time>2010-08-26T18:05:22Z</time>
      </trkpt>
      <trkpt lat="41.842617" lon="-8.081350">
        <ele>1048.0</ele>
        <time>2010-08-26T18:05:23Z</time>
      </trkpt>
      <trkpt lat="41.842650" lon="-8.081367">
        <ele>1048.0</ele>
        <time>2010-08-26T18:05:24Z</time>
      </trkpt>
      <trkpt lat="41.842700" lon="-8.081400">
        <ele>1048.0</ele>
        <time>2010-08-26T18:05:25Z</time>
      </trkpt>
      <trkpt lat="41.842750" lon="-8.081417">
        <ele>1048.0</ele>
        <time>2010-08-26T18:05:26Z</time>
      </trkpt>
      <trkpt lat="41.842800" lon="-8.081433">
        <ele>1048.0</ele>
        <time>2010-08-26T18:05:27Z</time>
      </trkpt>
      <trkpt lat="41.842833" lon="-8.081450">
        <ele>1048.0</ele>
        <time>2010-08-26T18:05:28Z</time>
      </trkpt>
      <trkpt lat="41.842883" lon="-8.081483">
        <ele>1048.0</ele>
        <time>2010-08-26T18:05:29Z</time>
      </trkpt>
      <trkpt lat="41.842933" lon="-8.081500">
        <ele>1048.0</ele>
        <time>2010-08-26T18:05:30Z</time>
      </trkpt>
      <trkpt lat="41.842983" lon="-8.081517">
        <ele>1049.0</ele>
        <time>2010-08-26T18:05:31Z</time>
      </trkpt>
      <trkpt lat="41.843017" lon="-8.081533">
        <ele>1049.0</ele>
        <time>2010-08-26T18:05:32Z</time>
      </trkpt>
      <trkpt lat="41.843067" lon="-8.081567">
        <ele>1049.0</ele>
        <time>2010-08-26T18:05:33Z</time>
      </trkpt>
      <trkpt lat="41.843117" lon="-8.081583">
        <ele>1049.0</ele>
        <time>2010-08-26T18:05:34Z</time>
      </trkpt>
      <trkpt lat="41.843167" lon="-8.081583">
        <ele>1049.0</ele>
        <time>2010-08-26T18:05:35Z</time>
      </trkpt>
      <trkpt lat="41.843217" lon="-8.081600">
        <ele>1049.0</ele>
        <time>2010-08-26T18:05:36Z</time>
      </trkpt>
      <trkpt lat="41.843267" lon="-8.081617">
        <ele>1049.0</ele>
        <time>2010-08-26T18:05:37Z</time>
      </trkpt>
      <trkpt lat="41.843317" lon="-8.081617">
        <ele>1049.0</ele>
        <time>2010-08-26T18:05:38Z</time>
      </trkpt>
      <trkpt lat="41.843367" lon="-8.081617">
        <ele>1049.0</ele>
        <time>2010-08-26T18:05:39Z</time>
      </trkpt>
      <trkpt lat="41.843417" lon="-8.081633">
        <ele>1049.0</ele>
        <time>2010-08-26T18:05:40Z</time>
      </trkpt>
      <trkpt lat="41.843467" lon="-8.081633">
        <ele>1049.0</ele>
        <time>2010-08-26T18:05:41Z</time>
      </trkpt>
      <trkpt lat="41.843517" lon="-8.081650">
        <ele>1049.0</ele>
        <time>2010-08-26T18:05:42Z</time>
      </trkpt>
      <trkpt lat="41.843567" lon="-8.081650">
        <ele>1049.0</ele>
        <time>2010-08-26T18:05:43Z</time>
      </trkpt>
      <trkpt lat="41.843617" lon="-8.081650">
        <ele>1049.0</ele>
        <time>2010-08-26T18:05:44Z</time>
      </trkpt>
      <trkpt lat="41.843667" lon="-8.081667">
        <ele>1049.0</ele>
        <time>2010-08-26T18:05:45Z</time>
      </trkpt>
      <trkpt lat="41.843717" lon="-8.081667">
        <ele>1049.0</ele>
        <time>2010-08-26T18:05:46Z</time>
      </trkpt>
      <trkpt lat="41.843767" lon="-8.081667">
        <ele>1049.0</ele>
        <time>2010-08-26T18:05:47Z</time>
      </trkpt>
      <trkpt lat="41.843817" lon="-8.081667">
        <ele>1049.0</ele>
        <time>2010-08-26T18:05:48Z</time>
      </trkpt>
      <trkpt lat="41.843867" lon="-8.081683">
        <ele>1049.0</ele>
        <time>2010-08-26T18:05:49Z</time>
      </trkpt>
      <trkpt lat="41.843917" lon="-8.081683">
        <ele>1049.0</ele>
        <time>2010-08-26T18:05:50Z</time>
      </trkpt>
      <trkpt lat="41.843967" lon="-8.081683">
        <ele>1049.0</ele>
        <time>2010-08-26T18:05:51Z</time>
      </trkpt>
      <trkpt lat="41.844017" lon="-8.081683">
        <ele>1049.0</ele>
        <time>2010-08-26T18:05:52Z</time>
      </trkpt>
      <trkpt lat="41.844067" lon="-8.081683">
        <ele>1049.0</ele>
        <time>2010-08-26T18:05:53Z</time>
      </trkpt>
      <trkpt lat="41.844133" lon="-8.081683">
        <ele>1049.0</ele>
        <time>2010-08-26T18:05:54Z</time>
      </trkpt>
      <trkpt lat="41.844183" lon="-8.081700">
        <ele>1049.0</ele>
        <time>2010-08-26T18:05:55Z</time>
      </trkpt>
      <trkpt lat="41.844233" lon="-8.081700">
        <ele>1049.0</ele>
        <time>2010-08-26T18:05:56Z</time>
      </trkpt>
      <trkpt lat="41.844283" lon="-8.081700">
        <ele>1049.0</ele>
        <time>2010-08-26T18:05:57Z</time>
      </trkpt>
      <trkpt lat="41.844333" lon="-8.081717">
        <ele>1049.0</ele>
        <time>2010-08-26T18:05:58Z</time>
      </trkpt>
      <trkpt lat="41.844383" lon="-8.081733">
        <ele>1049.0</ele>
        <time>2010-08-26T18:05:59Z</time>
      </trkpt>
      <trkpt lat="41.844433" lon="-8.081750">
        <ele>1049.0</ele>
        <time>2010-08-26T18:06:00Z</time>
      </trkpt>
      <trkpt lat="41.844500" lon="-8.081767">
        <ele>1049.0</ele>
        <time>2010-08-26T18:06:01Z</time>
      </trkpt>
      <trkpt lat="41.844550" lon="-8.081767">
        <ele>1049.0</ele>
        <time>2010-08-26T18:06:02Z</time>
      </trkpt>
      <trkpt lat="41.844600" lon="-8.081783">
        <ele>1049.0</ele>
        <time>2010-08-26T18:06:03Z</time>
      </trkpt>
      <trkpt lat="41.844633" lon="-8.081783">
        <ele>1049.0</ele>
        <time>2010-08-26T18:06:04Z</time>
      </trkpt>
      <trkpt lat="41.844683" lon="-8.081800">
        <ele>1050.0</ele>
        <time>2010-08-26T18:06:05Z</time>
      </trkpt>
      <trkpt lat="41.844717" lon="-8.081800">
        <ele>1050.0</ele>
        <time>2010-08-26T18:06:06Z</time>
      </trkpt>
      <trkpt lat="41.844750" lon="-8.081783">
        <ele>1050.0</ele>
        <time>2010-08-26T18:06:07Z</time>
      </trkpt>
      <trkpt lat="41.844783" lon="-8.081767">
        <ele>1050.0</ele>
        <time>2010-08-26T18:06:08Z</time>
      </trkpt>
      <trkpt lat="41.844800" lon="-8.081733">
        <ele>1051.0</ele>
        <time>2010-08-26T18:06:09Z</time>
      </trkpt>
      <trkpt lat="41.844833" lon="-8.081717">
        <ele>1051.0</ele>
        <time>2010-08-26T18:06:10Z</time>
      </trkpt>
      <trkpt lat="41.844850" lon="-8.081683">
        <ele>1051.0</ele>
        <time>2010-08-26T18:06:11Z</time>
      </trkpt>
      <trkpt lat="41.844867" lon="-8.081650">
        <ele>1052.0</ele>
        <time>2010-08-26T18:06:12Z</time>
      </trkpt>
      <trkpt lat="41.844883" lon="-8.081633">
        <ele>1052.0</ele>
        <time>2010-08-26T18:06:13Z</time>
      </trkpt>
      <trkpt lat="41.844917" lon="-8.081600">
        <ele>1052.0</ele>
        <time>2010-08-26T18:06:14Z</time>
      </trkpt>
      <trkpt lat="41.844933" lon="-8.081583">
        <ele>1052.0</ele>
        <time>2010-08-26T18:06:15Z</time>
      </trkpt>
      <trkpt lat="41.844950" lon="-8.081567">
        <ele>1052.0</ele>
        <time>2010-08-26T18:06:16Z</time>
      </trkpt>
      <trkpt lat="41.844983" lon="-8.081550">
        <ele>1052.0</ele>
        <time>2010-08-26T18:06:17Z</time>
      </trkpt>
      <trkpt lat="41.845017" lon="-8.081517">
        <ele>1052.0</ele>
        <time>2010-08-26T18:06:19Z</time>
      </trkpt>
      <trkpt lat="41.845033" lon="-8.081500">
        <ele>1051.0</ele>
        <time>2010-08-26T18:06:32Z</time>
      </trkpt>
      <trkpt lat="41.845050" lon="-8.081450">
        <ele>1051.0</ele>
        <time>2010-08-26T18:06:34Z</time>
      </trkpt>
      <trkpt lat="41.845067" lon="-8.081400">
        <ele>1050.0</ele>
        <time>2010-08-26T18:06:36Z</time>
      </trkpt>
      <trkpt lat="41.845083" lon="-8.081367">
        <ele>1050.0</ele>
        <time>2010-08-26T18:06:37Z</time>
      </trkpt>
      <trkpt lat="41.845083" lon="-8.081333">
        <ele>1050.0</ele>
        <time>2010-08-26T18:06:38Z</time>
      </trkpt>
      <trkpt lat="41.845100" lon="-8.081300">
        <ele>1049.0</ele>
        <time>2010-08-26T18:06:39Z</time>
      </trkpt>
      <trkpt lat="41.845117" lon="-8.081267">
        <ele>1049.0</ele>
        <time>2010-08-26T18:06:40Z</time>
      </trkpt>
      <trkpt lat="41.845117" lon="-8.081233">
        <ele>1049.0</ele>
        <time>2010-08-26T18:06:41Z</time>
      </trkpt>
      <trkpt lat="41.845117" lon="-8.081200">
        <ele>1049.0</ele>
        <time>2010-08-26T18:06:42Z</time>
      </trkpt>
      <trkpt lat="41.845117" lon="-8.081167">
        <ele>1048.0</ele>
        <time>2010-08-26T18:06:43Z</time>
      </trkpt>
      <trkpt lat="41.845117" lon="-8.081133">
        <ele>1048.0</ele>
        <time>2010-08-26T18:06:44Z</time>
      </trkpt>
      <trkpt lat="41.845117" lon="-8.081100">
        <ele>1048.0</ele>
        <time>2010-08-26T18:06:45Z</time>
      </trkpt>
      <trkpt lat="41.845083" lon="-8.081033">
        <ele>1047.0</ele>
        <time>2010-08-26T18:06:47Z</time>
      </trkpt>
      <trkpt lat="41.845083" lon="-8.081017">
        <ele>1047.0</ele>
        <time>2010-08-26T18:06:48Z</time>
      </trkpt>
      <trkpt lat="41.845067" lon="-8.080983">
        <ele>1047.0</ele>
        <time>2010-08-26T18:06:49Z</time>
      </trkpt>
      <trkpt lat="41.845050" lon="-8.080950">
        <ele>1046.0</ele>
        <time>2010-08-26T18:06:50Z</time>
      </trkpt>
      <trkpt lat="41.845033" lon="-8.080917">
        <ele>1046.0</ele>
        <time>2010-08-26T18:06:51Z</time>
      </trkpt>
      <trkpt lat="41.845017" lon="-8.080883">
        <ele>1046.0</ele>
        <time>2010-08-26T18:06:52Z</time>
      </trkpt>
      <trkpt lat="41.845000" lon="-8.080833">
        <ele>1046.0</ele>
        <time>2010-08-26T18:06:53Z</time>
      </trkpt>
      <trkpt lat="41.844983" lon="-8.080800">
        <ele>1045.0</ele>
        <time>2010-08-26T18:06:54Z</time>
      </trkpt>
      <trkpt lat="41.844967" lon="-8.080767">
        <ele>1045.0</ele>
        <time>2010-08-26T18:06:55Z</time>
      </trkpt>
      <trkpt lat="41.844950" lon="-8.080717">
        <ele>1045.0</ele>
        <time>2010-08-26T18:06:56Z</time>
      </trkpt>
      <trkpt lat="41.844933" lon="-8.080683">
        <ele>1045.0</ele>
        <time>2010-08-26T18:06:57Z</time>
      </trkpt>
      <trkpt lat="41.844900" lon="-8.080633">
        <ele>1045.0</ele>
        <time>2010-08-26T18:06:59Z</time>
      </trkpt>
      <trkpt lat="41.844867" lon="-8.080650">
        <ele>1044.0</ele>
        <time>2010-08-26T18:07:25Z</time>
      </trkpt>
      <trkpt lat="41.844833" lon="-8.080600">
        <ele>1046.0</ele>
        <time>2010-08-26T18:12:31Z</time>
      </trkpt>
      <trkpt lat="41.844800" lon="-8.080583">
        <ele>1047.0</ele>
        <time>2010-08-26T18:12:33Z</time>
      </trkpt>
      <trkpt lat="41.844767" lon="-8.080583">
        <ele>1047.0</ele>
        <time>2010-08-26T18:12:34Z</time>
      </trkpt>
      <trkpt lat="41.844750" lon="-8.080567">
        <ele>1047.0</ele>
        <time>2010-08-26T18:12:35Z</time>
      </trkpt>
      <trkpt lat="41.844717" lon="-8.080550">
        <ele>1047.0</ele>
        <time>2010-08-26T18:12:36Z</time>
      </trkpt>
      <trkpt lat="41.844700" lon="-8.080533">
        <ele>1047.0</ele>
        <time>2010-08-26T18:12:37Z</time>
      </trkpt>
      <trkpt lat="41.844667" lon="-8.080517">
        <ele>1048.0</ele>
        <time>2010-08-26T18:12:38Z</time>
      </trkpt>
      <trkpt lat="41.844650" lon="-8.080500">
        <ele>1048.0</ele>
        <time>2010-08-26T18:12:39Z</time>
      </trkpt>
      <trkpt lat="41.844617" lon="-8.080483">
        <ele>1048.0</ele>
        <time>2010-08-26T18:12:40Z</time>
      </trkpt>
      <trkpt lat="41.844600" lon="-8.080467">
        <ele>1048.0</ele>
        <time>2010-08-26T18:12:41Z</time>
      </trkpt>
      <trkpt lat="41.844583" lon="-8.080450">
        <ele>1048.0</ele>
        <time>2010-08-26T18:12:42Z</time>
      </trkpt>
      <trkpt lat="41.844550" lon="-8.080433">
        <ele>1048.0</ele>
        <time>2010-08-26T18:12:43Z</time>
      </trkpt>
      <trkpt lat="41.844533" lon="-8.080417">
        <ele>1048.0</ele>
        <time>2010-08-26T18:12:44Z</time>
      </trkpt>
      <trkpt lat="41.844517" lon="-8.080400">
        <ele>1048.0</ele>
        <time>2010-08-26T18:12:45Z</time>
      </trkpt>
      <trkpt lat="41.844500" lon="-8.080367">
        <ele>1048.0</ele>
        <time>2010-08-26T18:12:46Z</time>
      </trkpt>
      <trkpt lat="41.844483" lon="-8.080350">
        <ele>1048.0</ele>
        <time>2010-08-26T18:12:47Z</time>
      </trkpt>
      <trkpt lat="41.844450" lon="-8.080333">
        <ele>1048.0</ele>
        <time>2010-08-26T18:12:48Z</time>
      </trkpt>
      <trkpt lat="41.844433" lon="-8.080300">
        <ele>1048.0</ele>
        <time>2010-08-26T18:12:49Z</time>
      </trkpt>
      <trkpt lat="41.844400" lon="-8.080283">
        <ele>1048.0</ele>
        <time>2010-08-26T18:12:50Z</time>
      </trkpt>
      <trkpt lat="41.844383" lon="-8.080250">
        <ele>1048.0</ele>
        <time>2010-08-26T18:12:51Z</time>
      </trkpt>
      <trkpt lat="41.844350" lon="-8.080217">
        <ele>1048.0</ele>
        <time>2010-08-26T18:12:52Z</time>
      </trkpt>
      <trkpt lat="41.844333" lon="-8.080183">
        <ele>1049.0</ele>
        <time>2010-08-26T18:12:53Z</time>
      </trkpt>
      <trkpt lat="41.844317" lon="-8.080133">
        <ele>1049.0</ele>
        <time>2010-08-26T18:12:54Z</time>
      </trkpt>
      <trkpt lat="41.844300" lon="-8.080100">
        <ele>1049.0</ele>
        <time>2010-08-26T18:12:55Z</time>
      </trkpt>
      <trkpt lat="41.844283" lon="-8.080067">
        <ele>1049.0</ele>
        <time>2010-08-26T18:12:56Z</time>
      </trkpt>
      <trkpt lat="41.844283" lon="-8.080017">
        <ele>1049.0</ele>
        <time>2010-08-26T18:12:57Z</time>
      </trkpt>
      <trkpt lat="41.844267" lon="-8.079983">
        <ele>1049.0</ele>
        <time>2010-08-26T18:12:58Z</time>
      </trkpt>
      <trkpt lat="41.844250" lon="-8.079933">
        <ele>1049.0</ele>
        <time>2010-08-26T18:12:59Z</time>
      </trkpt>
      <trkpt lat="41.844250" lon="-8.079883">
        <ele>1049.0</ele>
        <time>2010-08-26T18:13:00Z</time>
      </trkpt>
      <trkpt lat="41.844233" lon="-8.079850">
        <ele>1049.0</ele>
        <time>2010-08-26T18:13:01Z</time>
      </trkpt>
      <trkpt lat="41.844200" lon="-8.079800">
        <ele>1049.0</ele>
        <time>2010-08-26T18:13:02Z</time>
      </trkpt>
      <trkpt lat="41.844183" lon="-8.079750">
        <ele>1049.0</ele>
        <time>2010-08-26T18:13:03Z</time>
      </trkpt>
      <trkpt lat="41.844167" lon="-8.079700">
        <ele>1048.0</ele>
        <time>2010-08-26T18:13:04Z</time>
      </trkpt>
      <trkpt lat="41.844133" lon="-8.079633">
        <ele>1048.0</ele>
        <time>2010-08-26T18:13:05Z</time>
      </trkpt>
      <trkpt lat="41.844117" lon="-8.079583">
        <ele>1048.0</ele>
        <time>2010-08-26T18:13:06Z</time>
      </trkpt>
      <trkpt lat="41.844100" lon="-8.079517">
        <ele>1048.0</ele>
        <time>2010-08-26T18:13:07Z</time>
      </trkpt>
      <trkpt lat="41.844083" lon="-8.079450">
        <ele>1048.0</ele>
        <time>2010-08-26T18:13:08Z</time>
      </trkpt>
      <trkpt lat="41.844067" lon="-8.079400">
        <ele>1047.0</ele>
        <time>2010-08-26T18:13:09Z</time>
      </trkpt>
      <trkpt lat="41.844050" lon="-8.079333">
        <ele>1047.0</ele>
        <time>2010-08-26T18:13:10Z</time>
      </trkpt>
      <trkpt lat="41.844050" lon="-8.079283">
        <ele>1047.0</ele>
        <time>2010-08-26T18:13:11Z</time>
      </trkpt>
      <trkpt lat="41.844033" lon="-8.079217">
        <ele>1047.0</ele>
        <time>2010-08-26T18:13:12Z</time>
      </trkpt>
      <trkpt lat="41.844017" lon="-8.079183">
        <ele>1047.0</ele>
        <time>2010-08-26T18:13:13Z</time>
      </trkpt>
      <trkpt lat="41.844000" lon="-8.079133">
        <ele>1047.0</ele>
        <time>2010-08-26T18:13:14Z</time>
      </trkpt>
      <trkpt lat="41.844000" lon="-8.079100">
        <ele>1047.0</ele>
        <time>2010-08-26T18:13:15Z</time>
      </trkpt>
      <trkpt lat="41.843983" lon="-8.079067">
        <ele>1047.0</ele>
        <time>2010-08-26T18:13:16Z</time>
      </trkpt>
      <trkpt lat="41.843967" lon="-8.079033">
        <ele>1047.0</ele>
        <time>2010-08-26T18:13:17Z</time>
      </trkpt>
      <trkpt lat="41.843967" lon="-8.079000">
        <ele>1047.0</ele>
        <time>2010-08-26T18:13:18Z</time>
      </trkpt>
      <trkpt lat="41.843950" lon="-8.078967">
        <ele>1047.0</ele>
        <time>2010-08-26T18:13:19Z</time>
      </trkpt>
      <trkpt lat="41.843933" lon="-8.078933">
        <ele>1047.0</ele>
        <time>2010-08-26T18:13:20Z</time>
      </trkpt>
      <trkpt lat="41.843933" lon="-8.078900">
        <ele>1047.0</ele>
        <time>2010-08-26T18:13:21Z</time>
      </trkpt>
      <trkpt lat="41.843933" lon="-8.078867">
        <ele>1047.0</ele>
        <time>2010-08-26T18:13:22Z</time>
      </trkpt>
      <trkpt lat="41.843933" lon="-8.078833">
        <ele>1046.0</ele>
        <time>2010-08-26T18:13:23Z</time>
      </trkpt>
      <trkpt lat="41.843917" lon="-8.078800">
        <ele>1046.0</ele>
        <time>2010-08-26T18:13:24Z</time>
      </trkpt>
      <trkpt lat="41.843917" lon="-8.078767">
        <ele>1046.0</ele>
        <time>2010-08-26T18:13:25Z</time>
      </trkpt>
      <trkpt lat="41.843917" lon="-8.078733">
        <ele>1046.0</ele>
        <time>2010-08-26T18:13:26Z</time>
      </trkpt>
      <trkpt lat="41.843933" lon="-8.078700">
        <ele>1046.0</ele>
        <time>2010-08-26T18:13:27Z</time>
      </trkpt>
      <trkpt lat="41.843933" lon="-8.078667">
        <ele>1046.0</ele>
        <time>2010-08-26T18:13:28Z</time>
      </trkpt>
      <trkpt lat="41.843950" lon="-8.078617">
        <ele>1046.0</ele>
        <time>2010-08-26T18:13:29Z</time>
      </trkpt>
      <trkpt lat="41.843950" lon="-8.078583">
        <ele>1046.0</ele>
        <time>2010-08-26T18:13:30Z</time>
      </trkpt>
      <trkpt lat="41.843967" lon="-8.078533">
        <ele>1046.0</ele>
        <time>2010-08-26T18:13:32Z</time>
      </trkpt>
      <trkpt lat="41.843967" lon="-8.078483">
        <ele>1046.0</ele>
        <time>2010-08-26T18:13:51Z</time>
      </trkpt>
      <trkpt lat="41.843983" lon="-8.078417">
        <ele>1046.0</ele>
        <time>2010-08-26T18:14:01Z</time>
      </trkpt>
      <trkpt lat="41.843967" lon="-8.078367">
        <ele>1046.0</ele>
        <time>2010-08-26T18:14:04Z</time>
      </trkpt>
      <trkpt lat="41.843967" lon="-8.078317">
        <ele>1046.0</ele>
        <time>2010-08-26T18:14:34Z</time>
      </trkpt>
      <trkpt lat="41.843933" lon="-8.078283">
        <ele>1045.0</ele>
        <time>2010-08-26T18:14:37Z</time>
      </trkpt>
      <trkpt lat="41.843900" lon="-8.078250">
        <ele>1045.0</ele>
        <time>2010-08-26T18:14:40Z</time>
      </trkpt>
      <trkpt lat="41.843867" lon="-8.078217">
        <ele>1045.0</ele>
        <time>2010-08-26T18:14:42Z</time>
      </trkpt>
      <trkpt lat="41.843850" lon="-8.078167">
        <ele>1046.0</ele>
        <time>2010-08-26T18:14:55Z</time>
      </trkpt>
      <trkpt lat="41.843833" lon="-8.078133">
        <ele>1047.0</ele>
        <time>2010-08-26T18:14:57Z</time>
      </trkpt>
      <trkpt lat="41.843817" lon="-8.078117">
        <ele>1048.0</ele>
        <time>2010-08-26T18:14:58Z</time>
      </trkpt>
      <trkpt lat="41.843783" lon="-8.078083">
        <ele>1048.0</ele>
        <time>2010-08-26T18:14:59Z</time>
      </trkpt>
      <trkpt lat="41.843767" lon="-8.078033">
        <ele>1048.0</ele>
        <time>2010-08-26T18:15:00Z</time>
      </trkpt>
      <trkpt lat="41.843733" lon="-8.077967">
        <ele>1049.0</ele>
        <time>2010-08-26T18:15:01Z</time>
      </trkpt>
      <trkpt lat="41.843700" lon="-8.077900">
        <ele>1049.0</ele>
        <time>2010-08-26T18:15:02Z</time>
      </trkpt>
      <trkpt lat="41.843650" lon="-8.077817">
        <ele>1048.0</ele>
        <time>2010-08-26T18:15:03Z</time>
      </trkpt>
      <trkpt lat="41.843617" lon="-8.077733">
        <ele>1048.0</ele>
        <time>2010-08-26T18:15:04Z</time>
      </trkpt>
      <trkpt lat="41.843567" lon="-8.077650">
        <ele>1048.0</ele>
        <time>2010-08-26T18:15:05Z</time>
      </trkpt>
      <trkpt lat="41.843517" lon="-8.077583">
        <ele>1047.0</ele>
        <time>2010-08-26T18:15:06Z</time>
      </trkpt>
      <trkpt lat="41.843450" lon="-8.077517">
        <ele>1047.0</ele>
        <time>2010-08-26T18:15:07Z</time>
      </trkpt>
      <trkpt lat="41.843383" lon="-8.077467">
        <ele>1046.0</ele>
        <time>2010-08-26T18:15:08Z</time>
      </trkpt>
      <trkpt lat="41.843317" lon="-8.077417">
        <ele>1046.0</ele>
        <time>2010-08-26T18:15:09Z</time>
      </trkpt>
      <trkpt lat="41.843250" lon="-8.077383">
        <ele>1046.0</ele>
        <time>2010-08-26T18:15:10Z</time>
      </trkpt>
      <trkpt lat="41.843183" lon="-8.077350">
        <ele>1045.0</ele>
        <time>2010-08-26T18:15:11Z</time>
      </trkpt>
      <trkpt lat="41.843117" lon="-8.077317">
        <ele>1045.0</ele>
        <time>2010-08-26T18:15:12Z</time>
      </trkpt>
      <trkpt lat="41.843050" lon="-8.077267">
        <ele>1045.0</ele>
        <time>2010-08-26T18:15:13Z</time>
      </trkpt>
      <trkpt lat="41.843000" lon="-8.077217">
        <ele>1044.0</ele>
        <time>2010-08-26T18:15:14Z</time>
      </trkpt>
      <trkpt lat="41.842933" lon="-8.077150">
        <ele>1044.0</ele>
        <time>2010-08-26T18:15:15Z</time>
      </trkpt>
      <trkpt lat="41.842883" lon="-8.077083">
        <ele>1044.0</ele>
        <time>2010-08-26T18:15:16Z</time>
      </trkpt>
      <trkpt lat="41.842833" lon="-8.077017">
        <ele>1044.0</ele>
        <time>2010-08-26T18:15:17Z</time>
      </trkpt>
      <trkpt lat="41.842767" lon="-8.076950">
        <ele>1043.0</ele>
        <time>2010-08-26T18:15:18Z</time>
      </trkpt>
      <trkpt lat="41.842717" lon="-8.076883">
        <ele>1043.0</ele>
        <time>2010-08-26T18:15:19Z</time>
      </trkpt>
      <trkpt lat="41.842667" lon="-8.076817">
        <ele>1042.0</ele>
        <time>2010-08-26T18:15:20Z</time>
      </trkpt>
      <trkpt lat="41.842600" lon="-8.076767">
        <ele>1042.0</ele>
        <time>2010-08-26T18:15:21Z</time>
      </trkpt>
      <trkpt lat="41.842533" lon="-8.076733">
        <ele>1042.0</ele>
        <time>2010-08-26T18:15:22Z</time>
      </trkpt>
      <trkpt lat="41.842467" lon="-8.076717">
        <ele>1041.0</ele>
        <time>2010-08-26T18:15:23Z</time>
      </trkpt>
      <trkpt lat="41.842400" lon="-8.076717">
        <ele>1041.0</ele>
        <time>2010-08-26T18:15:24Z</time>
      </trkpt>
      <trkpt lat="41.842333" lon="-8.076717">
        <ele>1040.0</ele>
        <time>2010-08-26T18:15:25Z</time>
      </trkpt>
      <trkpt lat="41.842267" lon="-8.076733">
        <ele>1040.0</ele>
        <time>2010-08-26T18:15:26Z</time>
      </trkpt>
      <trkpt lat="41.842200" lon="-8.076750">
        <ele>1040.0</ele>
        <time>2010-08-26T18:15:27Z</time>
      </trkpt>
      <trkpt lat="41.842133" lon="-8.076750">
        <ele>1040.0</ele>
        <time>2010-08-26T18:15:28Z</time>
      </trkpt>
      <trkpt lat="41.842067" lon="-8.076717">
        <ele>1039.0</ele>
        <time>2010-08-26T18:15:29Z</time>
      </trkpt>
      <trkpt lat="41.842000" lon="-8.076683">
        <ele>1039.0</ele>
        <time>2010-08-26T18:15:30Z</time>
      </trkpt>
      <trkpt lat="41.841950" lon="-8.076617">
        <ele>1039.0</ele>
        <time>2010-08-26T18:15:31Z</time>
      </trkpt>
      <trkpt lat="41.841900" lon="-8.076567">
        <ele>1038.0</ele>
        <time>2010-08-26T18:15:32Z</time>
      </trkpt>
      <trkpt lat="41.841850" lon="-8.076517">
        <ele>1038.0</ele>
        <time>2010-08-26T18:15:33Z</time>
      </trkpt>
      <trkpt lat="41.841783" lon="-8.076517">
        <ele>1038.0</ele>
        <time>2010-08-26T18:15:34Z</time>
      </trkpt>
      <trkpt lat="41.841717" lon="-8.076517">
        <ele>1037.0</ele>
        <time>2010-08-26T18:15:35Z</time>
      </trkpt>
      <trkpt lat="41.841650" lon="-8.076517">
        <ele>1037.0</ele>
        <time>2010-08-26T18:15:36Z</time>
      </trkpt>
      <trkpt lat="41.841567" lon="-8.076517">
        <ele>1036.0</ele>
        <time>2010-08-26T18:15:37Z</time>
      </trkpt>
      <trkpt lat="41.841517" lon="-8.076500">
        <ele>1036.0</ele>
        <time>2010-08-26T18:15:38Z</time>
      </trkpt>
      <trkpt lat="41.841433" lon="-8.076483">
        <ele>1036.0</ele>
        <time>2010-08-26T18:15:39Z</time>
      </trkpt>
      <trkpt lat="41.841367" lon="-8.076450">
        <ele>1036.0</ele>
        <time>2010-08-26T18:15:40Z</time>
      </trkpt>
      <trkpt lat="41.841317" lon="-8.076400">
        <ele>1036.0</ele>
        <time>2010-08-26T18:15:41Z</time>
      </trkpt>
      <trkpt lat="41.841283" lon="-8.076317">
        <ele>1036.0</ele>
        <time>2010-08-26T18:15:42Z</time>
      </trkpt>
      <trkpt lat="41.841250" lon="-8.076233">
        <ele>1036.0</ele>
        <time>2010-08-26T18:15:43Z</time>
      </trkpt>
      <trkpt lat="41.841217" lon="-8.076167">
        <ele>1035.0</ele>
        <time>2010-08-26T18:15:44Z</time>
      </trkpt>
      <trkpt lat="41.841183" lon="-8.076100">
        <ele>1035.0</ele>
        <time>2010-08-26T18:15:45Z</time>
      </trkpt>
      <trkpt lat="41.841133" lon="-8.076033">
        <ele>1035.0</ele>
        <time>2010-08-26T18:15:46Z</time>
      </trkpt>
      <trkpt lat="41.841100" lon="-8.075983">
        <ele>1035.0</ele>
        <time>2010-08-26T18:15:47Z</time>
      </trkpt>
      <trkpt lat="41.841050" lon="-8.075917">
        <ele>1035.0</ele>
        <time>2010-08-26T18:15:48Z</time>
      </trkpt>
      <trkpt lat="41.841000" lon="-8.075883">
        <ele>1034.0</ele>
        <time>2010-08-26T18:15:49Z</time>
      </trkpt>
      <trkpt lat="41.840950" lon="-8.075850">
        <ele>1034.0</ele>
        <time>2010-08-26T18:15:50Z</time>
      </trkpt>
      <trkpt lat="41.840883" lon="-8.075817">
        <ele>1034.0</ele>
        <time>2010-08-26T18:15:51Z</time>
      </trkpt>
      <trkpt lat="41.840833" lon="-8.075800">
        <ele>1033.0</ele>
        <time>2010-08-26T18:15:52Z</time>
      </trkpt>
      <trkpt lat="41.840783" lon="-8.075783">
        <ele>1033.0</ele>
        <time>2010-08-26T18:15:53Z</time>
      </trkpt>
      <trkpt lat="41.840733" lon="-8.075767">
        <ele>1033.0</ele>
        <time>2010-08-26T18:15:54Z</time>
      </trkpt>
      <trkpt lat="41.840683" lon="-8.075717">
        <ele>1033.0</ele>
        <time>2010-08-26T18:15:55Z</time>
      </trkpt>
      <trkpt lat="41.840667" lon="-8.075650">
        <ele>1033.0</ele>
        <time>2010-08-26T18:15:56Z</time>
      </trkpt>
      <trkpt lat="41.840650" lon="-8.075583">
        <ele>1033.0</ele>
        <time>2010-08-26T18:15:57Z</time>
      </trkpt>
      <trkpt lat="41.840650" lon="-8.075517">
        <ele>1032.0</ele>
        <time>2010-08-26T18:15:58Z</time>
      </trkpt>
      <trkpt lat="41.840650" lon="-8.075450">
        <ele>1032.0</ele>
        <time>2010-08-26T18:15:59Z</time>
      </trkpt>
      <trkpt lat="41.840650" lon="-8.075383">
        <ele>1032.0</ele>
        <time>2010-08-26T18:16:00Z</time>
      </trkpt>
      <trkpt lat="41.840650" lon="-8.075317">
        <ele>1032.0</ele>
        <time>2010-08-26T18:16:01Z</time>
      </trkpt>
      <trkpt lat="41.840633" lon="-8.075233">
        <ele>1032.0</ele>
        <time>2010-08-26T18:16:02Z</time>
      </trkpt>
      <trkpt lat="41.840633" lon="-8.075167">
        <ele>1031.0</ele>
        <time>2010-08-26T18:16:03Z</time>
      </trkpt>
      <trkpt lat="41.840633" lon="-8.075100">
        <ele>1031.0</ele>
        <time>2010-08-26T18:16:04Z</time>
      </trkpt>
      <trkpt lat="41.840617" lon="-8.075033">
        <ele>1031.0</ele>
        <time>2010-08-26T18:16:05Z</time>
      </trkpt>
      <trkpt lat="41.840617" lon="-8.074967">
        <ele>1030.0</ele>
        <time>2010-08-26T18:16:06Z</time>
      </trkpt>
      <trkpt lat="41.840600" lon="-8.074900">
        <ele>1030.0</ele>
        <time>2010-08-26T18:16:07Z</time>
      </trkpt>
      <trkpt lat="41.840583" lon="-8.074850">
        <ele>1030.0</ele>
        <time>2010-08-26T18:16:08Z</time>
      </trkpt>
      <trkpt lat="41.840583" lon="-8.074800">
        <ele>1030.0</ele>
        <time>2010-08-26T18:16:09Z</time>
      </trkpt>
      <trkpt lat="41.840567" lon="-8.074750">
        <ele>1029.0</ele>
        <time>2010-08-26T18:16:11Z</time>
      </trkpt>
      <trkpt lat="41.840550" lon="-8.074700">
        <ele>1026.0</ele>
        <time>2010-08-26T18:16:39Z</time>
      </trkpt>
      <trkpt lat="41.840533" lon="-8.074683">
        <ele>1026.0</ele>
        <time>2010-08-26T18:16:40Z</time>
      </trkpt>
      <trkpt lat="41.840517" lon="-8.074650">
        <ele>1026.0</ele>
        <time>2010-08-26T18:16:41Z</time>
      </trkpt>
      <trkpt lat="41.840500" lon="-8.074617">
        <ele>1026.0</ele>
        <time>2010-08-26T18:16:42Z</time>
      </trkpt>
      <trkpt lat="41.840467" lon="-8.074583">
        <ele>1026.0</ele>
        <time>2010-08-26T18:16:43Z</time>
      </trkpt>
      <trkpt lat="41.840450" lon="-8.074550">
        <ele>1026.0</ele>
        <time>2010-08-26T18:16:44Z</time>
      </trkpt>
      <trkpt lat="41.840417" lon="-8.074517">
        <ele>1025.0</ele>
        <time>2010-08-26T18:16:45Z</time>
      </trkpt>
      <trkpt lat="41.840383" lon="-8.074483">
        <ele>1025.0</ele>
        <time>2010-08-26T18:16:46Z</time>
      </trkpt>
      <trkpt lat="41.840367" lon="-8.074450">
        <ele>1025.0</ele>
        <time>2010-08-26T18:16:47Z</time>
      </trkpt>
      <trkpt lat="41.840333" lon="-8.074400">
        <ele>1025.0</ele>
        <time>2010-08-26T18:16:48Z</time>
      </trkpt>
      <trkpt lat="41.840300" lon="-8.074350">
        <ele>1025.0</ele>
        <time>2010-08-26T18:16:49Z</time>
      </trkpt>
      <trkpt lat="41.840283" lon="-8.074300">
        <ele>1025.0</ele>
        <time>2010-08-26T18:16:50Z</time>
      </trkpt>
      <trkpt lat="41.840250" lon="-8.074250">
        <ele>1024.0</ele>
        <time>2010-08-26T18:16:51Z</time>
      </trkpt>
      <trkpt lat="41.840217" lon="-8.074200">
        <ele>1024.0</ele>
        <time>2010-08-26T18:16:52Z</time>
      </trkpt>
      <trkpt lat="41.840200" lon="-8.074150">
        <ele>1024.0</ele>
        <time>2010-08-26T18:16:53Z</time>
      </trkpt>
      <trkpt lat="41.840167" lon="-8.074083">
        <ele>1024.0</ele>
        <time>2010-08-26T18:16:54Z</time>
      </trkpt>
      <trkpt lat="41.840133" lon="-8.074033">
        <ele>1024.0</ele>
        <time>2010-08-26T18:16:55Z</time>
      </trkpt>
      <trkpt lat="41.840100" lon="-8.073983">
        <ele>1024.0</ele>
        <time>2010-08-26T18:16:56Z</time>
      </trkpt>
      <trkpt lat="41.840050" lon="-8.073950">
        <ele>1023.0</ele>
        <time>2010-08-26T18:16:57Z</time>
      </trkpt>
      <trkpt lat="41.840017" lon="-8.073900">
        <ele>1023.0</ele>
        <time>2010-08-26T18:16:58Z</time>
      </trkpt>
      <trkpt lat="41.839967" lon="-8.073867">
        <ele>1023.0</ele>
        <time>2010-08-26T18:16:59Z</time>
      </trkpt>
      <trkpt lat="41.839933" lon="-8.073833">
        <ele>1023.0</ele>
        <time>2010-08-26T18:17:00Z</time>
      </trkpt>
      <trkpt lat="41.839900" lon="-8.073783">
        <ele>1023.0</ele>
        <time>2010-08-26T18:17:01Z</time>
      </trkpt>
      <trkpt lat="41.839867" lon="-8.073733">
        <ele>1023.0</ele>
        <time>2010-08-26T18:17:02Z</time>
      </trkpt>
      <trkpt lat="41.839833" lon="-8.073683">
        <ele>1023.0</ele>
        <time>2010-08-26T18:17:03Z</time>
      </trkpt>
      <trkpt lat="41.839817" lon="-8.073617">
        <ele>1022.0</ele>
        <time>2010-08-26T18:17:04Z</time>
      </trkpt>
      <trkpt lat="41.839783" lon="-8.073550">
        <ele>1022.0</ele>
        <time>2010-08-26T18:17:05Z</time>
      </trkpt>
      <trkpt lat="41.839767" lon="-8.073467">
        <ele>1022.0</ele>
        <time>2010-08-26T18:17:06Z</time>
      </trkpt>
      <trkpt lat="41.839750" lon="-8.073400">
        <ele>1022.0</ele>
        <time>2010-08-26T18:17:07Z</time>
      </trkpt>
      <trkpt lat="41.839733" lon="-8.073317">
        <ele>1021.0</ele>
        <time>2010-08-26T18:17:08Z</time>
      </trkpt>
      <trkpt lat="41.839717" lon="-8.073233">
        <ele>1021.0</ele>
        <time>2010-08-26T18:17:09Z</time>
      </trkpt>
      <trkpt lat="41.839733" lon="-8.073150">
        <ele>1021.0</ele>
        <time>2010-08-26T18:17:10Z</time>
      </trkpt>
      <trkpt lat="41.839750" lon="-8.073083">
        <ele>1021.0</ele>
        <time>2010-08-26T18:17:11Z</time>
      </trkpt>
      <trkpt lat="41.839783" lon="-8.073017">
        <ele>1020.0</ele>
        <time>2010-08-26T18:17:12Z</time>
      </trkpt>
      <trkpt lat="41.839833" lon="-8.072967">
        <ele>1020.0</ele>
        <time>2010-08-26T18:17:13Z</time>
      </trkpt>
      <trkpt lat="41.839867" lon="-8.072933">
        <ele>1020.0</ele>
        <time>2010-08-26T18:17:14Z</time>
      </trkpt>
      <trkpt lat="41.839917" lon="-8.072900">
        <ele>1020.0</ele>
        <time>2010-08-26T18:17:15Z</time>
      </trkpt>
      <trkpt lat="41.839950" lon="-8.072850">
        <ele>1020.0</ele>
        <time>2010-08-26T18:17:16Z</time>
      </trkpt>
      <trkpt lat="41.839983" lon="-8.072833">
        <ele>1020.0</ele>
        <time>2010-08-26T18:17:17Z</time>
      </trkpt>
      <trkpt lat="41.840000" lon="-8.072800">
        <ele>1020.0</ele>
        <time>2010-08-26T18:17:18Z</time>
      </trkpt>
      <trkpt lat="41.840033" lon="-8.072767">
        <ele>1020.0</ele>
        <time>2010-08-26T18:17:19Z</time>
      </trkpt>
      <trkpt lat="41.840050" lon="-8.072750">
        <ele>1021.0</ele>
        <time>2010-08-26T18:17:20Z</time>
      </trkpt>
      <trkpt lat="41.840067" lon="-8.072733">
        <ele>1021.0</ele>
        <time>2010-08-26T18:17:21Z</time>
      </trkpt>
      <trkpt lat="41.840083" lon="-8.072700">
        <ele>1021.0</ele>
        <time>2010-08-26T18:17:22Z</time>
      </trkpt>
      <trkpt lat="41.840100" lon="-8.072683">
        <ele>1021.0</ele>
        <time>2010-08-26T18:17:23Z</time>
      </trkpt>
      <trkpt lat="41.840117" lon="-8.072667">
        <ele>1022.0</ele>
        <time>2010-08-26T18:17:24Z</time>
      </trkpt>
      <trkpt lat="41.840133" lon="-8.072633">
        <ele>1022.0</ele>
        <time>2010-08-26T18:17:25Z</time>
      </trkpt>
      <trkpt lat="41.840150" lon="-8.072600">
        <ele>1022.0</ele>
        <time>2010-08-26T18:17:26Z</time>
      </trkpt>
      <trkpt lat="41.840183" lon="-8.072583">
        <ele>1022.0</ele>
        <time>2010-08-26T18:17:27Z</time>
      </trkpt>
      <trkpt lat="41.840200" lon="-8.072550">
        <ele>1022.0</ele>
        <time>2010-08-26T18:17:28Z</time>
      </trkpt>
      <trkpt lat="41.840217" lon="-8.072533">
        <ele>1022.0</ele>
        <time>2010-08-26T18:17:29Z</time>
      </trkpt>
      <trkpt lat="41.840233" lon="-8.072500">
        <ele>1022.0</ele>
        <time>2010-08-26T18:17:30Z</time>
      </trkpt>
      <trkpt lat="41.840267" lon="-8.072467">
        <ele>1022.0</ele>
        <time>2010-08-26T18:17:31Z</time>
      </trkpt>
      <trkpt lat="41.840283" lon="-8.072450">
        <ele>1022.0</ele>
        <time>2010-08-26T18:17:32Z</time>
      </trkpt>
      <trkpt lat="41.840300" lon="-8.072417">
        <ele>1022.0</ele>
        <time>2010-08-26T18:17:33Z</time>
      </trkpt>
      <trkpt lat="41.840300" lon="-8.072383">
        <ele>1022.0</ele>
        <time>2010-08-26T18:17:34Z</time>
      </trkpt>
      <trkpt lat="41.840317" lon="-8.072350">
        <ele>1022.0</ele>
        <time>2010-08-26T18:17:35Z</time>
      </trkpt>
      <trkpt lat="41.840333" lon="-8.072317">
        <ele>1022.0</ele>
        <time>2010-08-26T18:17:36Z</time>
      </trkpt>
      <trkpt lat="41.840350" lon="-8.072283">
        <ele>1022.0</ele>
        <time>2010-08-26T18:17:37Z</time>
      </trkpt>
      <trkpt lat="41.840350" lon="-8.072233">
        <ele>1022.0</ele>
        <time>2010-08-26T18:17:38Z</time>
      </trkpt>
      <trkpt lat="41.840367" lon="-8.072200">
        <ele>1022.0</ele>
        <time>2010-08-26T18:17:39Z</time>
      </trkpt>
      <trkpt lat="41.840367" lon="-8.072150">
        <ele>1021.0</ele>
        <time>2010-08-26T18:17:40Z</time>
      </trkpt>
      <trkpt lat="41.840383" lon="-8.072100">
        <ele>1021.0</ele>
        <time>2010-08-26T18:17:41Z</time>
      </trkpt>
      <trkpt lat="41.840383" lon="-8.072067">
        <ele>1021.0</ele>
        <time>2010-08-26T18:17:42Z</time>
      </trkpt>
      <trkpt lat="41.840383" lon="-8.072017">
        <ele>1021.0</ele>
        <time>2010-08-26T18:17:43Z</time>
      </trkpt>
      <trkpt lat="41.840400" lon="-8.071983">
        <ele>1021.0</ele>
        <time>2010-08-26T18:17:44Z</time>
      </trkpt>
      <trkpt lat="41.840400" lon="-8.071933">
        <ele>1021.0</ele>
        <time>2010-08-26T18:17:45Z</time>
      </trkpt>
      <trkpt lat="41.840417" lon="-8.071883">
        <ele>1020.0</ele>
        <time>2010-08-26T18:17:46Z</time>
      </trkpt>
      <trkpt lat="41.840417" lon="-8.071833">
        <ele>1020.0</ele>
        <time>2010-08-26T18:17:47Z</time>
      </trkpt>
      <trkpt lat="41.840433" lon="-8.071800">
        <ele>1020.0</ele>
        <time>2010-08-26T18:17:48Z</time>
      </trkpt>
      <trkpt lat="41.840433" lon="-8.071767">
        <ele>1020.0</ele>
        <time>2010-08-26T18:17:49Z</time>
      </trkpt>
      <trkpt lat="41.840450" lon="-8.071733">
        <ele>1021.0</ele>
        <time>2010-08-26T18:17:50Z</time>
      </trkpt>
      <trkpt lat="41.840467" lon="-8.071683">
        <ele>1021.0</ele>
        <time>2010-08-26T18:18:11Z</time>
      </trkpt>
      <trkpt lat="41.840450" lon="-8.071650">
        <ele>1021.0</ele>
        <time>2010-08-26T18:18:14Z</time>
      </trkpt>
      <trkpt lat="41.840433" lon="-8.071617">
        <ele>1021.0</ele>
        <time>2010-08-26T18:18:15Z</time>
      </trkpt>
      <trkpt lat="41.840417" lon="-8.071583">
        <ele>1021.0</ele>
        <time>2010-08-26T18:18:16Z</time>
      </trkpt>
      <trkpt lat="41.840400" lon="-8.071533">
        <ele>1020.0</ele>
        <time>2010-08-26T18:18:17Z</time>
      </trkpt>
      <trkpt lat="41.840400" lon="-8.071483">
        <ele>1020.0</ele>
        <time>2010-08-26T18:18:18Z</time>
      </trkpt>
      <trkpt lat="41.840383" lon="-8.071417">
        <ele>1020.0</ele>
        <time>2010-08-26T18:18:19Z</time>
      </trkpt>
      <trkpt lat="41.840367" lon="-8.071367">
        <ele>1019.0</ele>
        <time>2010-08-26T18:18:20Z</time>
      </trkpt>
      <trkpt lat="41.840350" lon="-8.071300">
        <ele>1019.0</ele>
        <time>2010-08-26T18:18:21Z</time>
      </trkpt>
      <trkpt lat="41.840333" lon="-8.071233">
        <ele>1019.0</ele>
        <time>2010-08-26T18:18:22Z</time>
      </trkpt>
      <trkpt lat="41.840300" lon="-8.071167">
        <ele>1018.0</ele>
        <time>2010-08-26T18:18:23Z</time>
      </trkpt>
      <trkpt lat="41.840267" lon="-8.071100">
        <ele>1018.0</ele>
        <time>2010-08-26T18:18:24Z</time>
      </trkpt>
      <trkpt lat="41.840233" lon="-8.071033">
        <ele>1018.0</ele>
        <time>2010-08-26T18:18:25Z</time>
      </trkpt>
      <trkpt lat="41.840200" lon="-8.070967">
        <ele>1017.0</ele>
        <time>2010-08-26T18:18:26Z</time>
      </trkpt>
      <trkpt lat="41.840167" lon="-8.070917">
        <ele>1017.0</ele>
        <time>2010-08-26T18:18:27Z</time>
      </trkpt>
      <trkpt lat="41.840133" lon="-8.070850">
        <ele>1016.0</ele>
        <time>2010-08-26T18:18:28Z</time>
      </trkpt>
      <trkpt lat="41.840100" lon="-8.070783">
        <ele>1016.0</ele>
        <time>2010-08-26T18:18:29Z</time>
      </trkpt>
      <trkpt lat="41.840067" lon="-8.070717">
        <ele>1016.0</ele>
        <time>2010-08-26T18:18:30Z</time>
      </trkpt>
      <trkpt lat="41.840017" lon="-8.070650">
        <ele>1015.0</ele>
        <time>2010-08-26T18:18:31Z</time>
      </trkpt>
      <trkpt lat="41.839983" lon="-8.070583">
        <ele>1015.0</ele>
        <time>2010-08-26T18:18:32Z</time>
      </trkpt>
      <trkpt lat="41.839933" lon="-8.070500">
        <ele>1014.0</ele>
        <time>2010-08-26T18:18:33Z</time>
      </trkpt>
      <trkpt lat="41.839900" lon="-8.070433">
        <ele>1014.0</ele>
        <time>2010-08-26T18:18:34Z</time>
      </trkpt>
      <trkpt lat="41.839850" lon="-8.070367">
        <ele>1013.0</ele>
        <time>2010-08-26T18:18:35Z</time>
      </trkpt>
      <trkpt lat="41.839800" lon="-8.070300">
        <ele>1013.0</ele>
        <time>2010-08-26T18:18:36Z</time>
      </trkpt>
      <trkpt lat="41.839733" lon="-8.070233">
        <ele>1012.0</ele>
        <time>2010-08-26T18:18:37Z</time>
      </trkpt>
      <trkpt lat="41.839683" lon="-8.070183">
        <ele>1012.0</ele>
        <time>2010-08-26T18:18:38Z</time>
      </trkpt>
      <trkpt lat="41.839633" lon="-8.070117">
        <ele>1012.0</ele>
        <time>2010-08-26T18:18:39Z</time>
      </trkpt>
      <trkpt lat="41.839567" lon="-8.070050">
        <ele>1012.0</ele>
        <time>2010-08-26T18:18:40Z</time>
      </trkpt>
      <trkpt lat="41.839517" lon="-8.069983">
        <ele>1011.0</ele>
        <time>2010-08-26T18:18:41Z</time>
      </trkpt>
      <trkpt lat="41.839450" lon="-8.069933">
        <ele>1011.0</ele>
        <time>2010-08-26T18:18:42Z</time>
      </trkpt>
      <trkpt lat="41.839383" lon="-8.069867">
        <ele>1011.0</ele>
        <time>2010-08-26T18:18:43Z</time>
      </trkpt>
      <trkpt lat="41.839333" lon="-8.069833">
        <ele>1011.0</ele>
        <time>2010-08-26T18:18:44Z</time>
      </trkpt>
      <trkpt lat="41.839267" lon="-8.069800">
        <ele>1011.0</ele>
        <time>2010-08-26T18:18:45Z</time>
      </trkpt>
      <trkpt lat="41.839200" lon="-8.069767">
        <ele>1011.0</ele>
        <time>2010-08-26T18:18:46Z</time>
      </trkpt>
      <trkpt lat="41.839150" lon="-8.069733">
        <ele>1011.0</ele>
        <time>2010-08-26T18:18:47Z</time>
      </trkpt>
      <trkpt lat="41.839083" lon="-8.069700">
        <ele>1011.0</ele>
        <time>2010-08-26T18:18:48Z</time>
      </trkpt>
      <trkpt lat="41.839033" lon="-8.069683">
        <ele>1011.0</ele>
        <time>2010-08-26T18:18:49Z</time>
      </trkpt>
      <trkpt lat="41.838983" lon="-8.069650">
        <ele>1011.0</ele>
        <time>2010-08-26T18:18:50Z</time>
      </trkpt>
      <trkpt lat="41.838917" lon="-8.069633">
        <ele>1011.0</ele>
        <time>2010-08-26T18:18:51Z</time>
      </trkpt>
      <trkpt lat="41.838867" lon="-8.069617">
        <ele>1011.0</ele>
        <time>2010-08-26T18:18:52Z</time>
      </trkpt>
      <trkpt lat="41.838817" lon="-8.069617">
        <ele>1012.0</ele>
        <time>2010-08-26T18:18:53Z</time>
      </trkpt>
      <trkpt lat="41.838767" lon="-8.069600">
        <ele>1012.0</ele>
        <time>2010-08-26T18:18:54Z</time>
      </trkpt>
      <trkpt lat="41.838717" lon="-8.069600">
        <ele>1012.0</ele>
        <time>2010-08-26T18:18:55Z</time>
      </trkpt>
      <trkpt lat="41.838667" lon="-8.069583">
        <ele>1012.0</ele>
        <time>2010-08-26T18:18:56Z</time>
      </trkpt>
      <trkpt lat="41.838617" lon="-8.069583">
        <ele>1012.0</ele>
        <time>2010-08-26T18:18:57Z</time>
      </trkpt>
      <trkpt lat="41.838567" lon="-8.069583">
        <ele>1012.0</ele>
        <time>2010-08-26T18:18:58Z</time>
      </trkpt>
      <trkpt lat="41.838533" lon="-8.069567">
        <ele>1012.0</ele>
        <time>2010-08-26T18:18:59Z</time>
      </trkpt>
      <trkpt lat="41.838483" lon="-8.069567">
        <ele>1012.0</ele>
        <time>2010-08-26T18:19:00Z</time>
      </trkpt>
      <trkpt lat="41.838433" lon="-8.069550">
        <ele>1013.0</ele>
        <time>2010-08-26T18:19:01Z</time>
      </trkpt>
      <trkpt lat="41.838383" lon="-8.069533">
        <ele>1013.0</ele>
        <time>2010-08-26T18:19:02Z</time>
      </trkpt>
      <trkpt lat="41.838333" lon="-8.069533">
        <ele>1013.0</ele>
        <time>2010-08-26T18:19:03Z</time>
      </trkpt>
      <trkpt lat="41.838283" lon="-8.069533">
        <ele>1013.0</ele>
        <time>2010-08-26T18:19:04Z</time>
      </trkpt>
      <trkpt lat="41.838233" lon="-8.069517">
        <ele>1013.0</ele>
        <time>2010-08-26T18:19:05Z</time>
      </trkpt>
      <trkpt lat="41.838200" lon="-8.069517">
        <ele>1013.0</ele>
        <time>2010-08-26T18:19:06Z</time>
      </trkpt>
      <trkpt lat="41.838150" lon="-8.069517">
        <ele>1013.0</ele>
        <time>2010-08-26T18:19:07Z</time>
      </trkpt>
      <trkpt lat="41.838100" lon="-8.069533">
        <ele>1013.0</ele>
        <time>2010-08-26T18:19:08Z</time>
      </trkpt>
      <trkpt lat="41.838050" lon="-8.069550">
        <ele>1013.0</ele>
        <time>2010-08-26T18:19:09Z</time>
      </trkpt>
      <trkpt lat="41.838000" lon="-8.069567">
        <ele>1013.0</ele>
        <time>2010-08-26T18:19:10Z</time>
      </trkpt>
      <trkpt lat="41.837967" lon="-8.069600">
        <ele>1013.0</ele>
        <time>2010-08-26T18:19:11Z</time>
      </trkpt>
      <trkpt lat="41.837917" lon="-8.069617">
        <ele>1014.0</ele>
        <time>2010-08-26T18:19:12Z</time>
      </trkpt>
      <trkpt lat="41.837867" lon="-8.069633">
        <ele>1014.0</ele>
        <time>2010-08-26T18:19:13Z</time>
      </trkpt>
      <trkpt lat="41.837817" lon="-8.069650">
        <ele>1014.0</ele>
        <time>2010-08-26T18:19:14Z</time>
      </trkpt>
      <trkpt lat="41.837783" lon="-8.069650">
        <ele>1014.0</ele>
        <time>2010-08-26T18:19:15Z</time>
      </trkpt>
      <trkpt lat="41.837733" lon="-8.069667">
        <ele>1014.0</ele>
        <time>2010-08-26T18:19:16Z</time>
      </trkpt>
      <trkpt lat="41.837683" lon="-8.069667">
        <ele>1014.0</ele>
        <time>2010-08-26T18:19:17Z</time>
      </trkpt>
      <trkpt lat="41.837650" lon="-8.069667">
        <ele>1014.0</ele>
        <time>2010-08-26T18:19:18Z</time>
      </trkpt>
      <trkpt lat="41.837600" lon="-8.069667">
        <ele>1014.0</ele>
        <time>2010-08-26T18:19:19Z</time>
      </trkpt>
      <trkpt lat="41.837567" lon="-8.069667">
        <ele>1014.0</ele>
        <time>2010-08-26T18:19:20Z</time>
      </trkpt>
      <trkpt lat="41.837517" lon="-8.069667">
        <ele>1014.0</ele>
        <time>2010-08-26T18:19:21Z</time>
      </trkpt>
      <trkpt lat="41.837483" lon="-8.069667">
        <ele>1014.0</ele>
        <time>2010-08-26T18:19:22Z</time>
      </trkpt>
      <trkpt lat="41.837450" lon="-8.069633">
        <ele>1014.0</ele>
        <time>2010-08-26T18:19:23Z</time>
      </trkpt>
      <trkpt lat="41.837417" lon="-8.069583">
        <ele>1014.0</ele>
        <time>2010-08-26T18:19:24Z</time>
      </trkpt>
      <trkpt lat="41.837417" lon="-8.069533">
        <ele>1015.0</ele>
        <time>2010-08-26T18:19:25Z</time>
      </trkpt>
      <trkpt lat="41.837417" lon="-8.069467">
        <ele>1015.0</ele>
        <time>2010-08-26T18:19:26Z</time>
      </trkpt>
      <trkpt lat="41.837417" lon="-8.069417">
        <ele>1015.0</ele>
        <time>2010-08-26T18:19:27Z</time>
      </trkpt>
      <trkpt lat="41.837400" lon="-8.069367">
        <ele>1015.0</ele>
        <time>2010-08-26T18:19:28Z</time>
      </trkpt>
      <trkpt lat="41.837367" lon="-8.069317">
        <ele>1015.0</ele>
        <time>2010-08-26T18:19:29Z</time>
      </trkpt>
      <trkpt lat="41.837333" lon="-8.069283">
        <ele>1015.0</ele>
        <time>2010-08-26T18:19:30Z</time>
      </trkpt>
      <trkpt lat="41.837300" lon="-8.069267">
        <ele>1015.0</ele>
        <time>2010-08-26T18:19:31Z</time>
      </trkpt>
      <trkpt lat="41.837267" lon="-8.069250">
        <ele>1015.0</ele>
        <time>2010-08-26T18:19:32Z</time>
      </trkpt>
      <trkpt lat="41.837233" lon="-8.069233">
        <ele>1015.0</ele>
        <time>2010-08-26T18:19:33Z</time>
      </trkpt>
      <trkpt lat="41.837183" lon="-8.069233">
        <ele>1015.0</ele>
        <time>2010-08-26T18:19:34Z</time>
      </trkpt>
      <trkpt lat="41.837150" lon="-8.069217">
        <ele>1016.0</ele>
        <time>2010-08-26T18:19:35Z</time>
      </trkpt>
      <trkpt lat="41.837100" lon="-8.069217">
        <ele>1016.0</ele>
        <time>2010-08-26T18:19:36Z</time>
      </trkpt>
      <trkpt lat="41.837067" lon="-8.069217">
        <ele>1016.0</ele>
        <time>2010-08-26T18:19:37Z</time>
      </trkpt>
      <trkpt lat="41.837017" lon="-8.069217">
        <ele>1016.0</ele>
        <time>2010-08-26T18:19:38Z</time>
      </trkpt>
      <trkpt lat="41.836983" lon="-8.069200">
        <ele>1016.0</ele>
        <time>2010-08-26T18:19:39Z</time>
      </trkpt>
      <trkpt lat="41.836933" lon="-8.069183">
        <ele>1016.0</ele>
        <time>2010-08-26T18:19:40Z</time>
      </trkpt>
      <trkpt lat="41.836900" lon="-8.069167">
        <ele>1016.0</ele>
        <time>2010-08-26T18:19:41Z</time>
      </trkpt>
      <trkpt lat="41.836867" lon="-8.069117">
        <ele>1016.0</ele>
        <time>2010-08-26T18:19:42Z</time>
      </trkpt>
      <trkpt lat="41.836850" lon="-8.069067">
        <ele>1016.0</ele>
        <time>2010-08-26T18:19:43Z</time>
      </trkpt>
      <trkpt lat="41.836850" lon="-8.069017">
        <ele>1016.0</ele>
        <time>2010-08-26T18:19:44Z</time>
      </trkpt>
      <trkpt lat="41.836850" lon="-8.068950">
        <ele>1016.0</ele>
        <time>2010-08-26T18:19:45Z</time>
      </trkpt>
      <trkpt lat="41.836850" lon="-8.068900">
        <ele>1016.0</ele>
        <time>2010-08-26T18:19:46Z</time>
      </trkpt>
      <trkpt lat="41.836850" lon="-8.068850">
        <ele>1016.0</ele>
        <time>2010-08-26T18:19:47Z</time>
      </trkpt>
      <trkpt lat="41.836850" lon="-8.068800">
        <ele>1016.0</ele>
        <time>2010-08-26T18:19:48Z</time>
      </trkpt>
      <trkpt lat="41.836850" lon="-8.068733">
        <ele>1016.0</ele>
        <time>2010-08-26T18:19:49Z</time>
      </trkpt>
      <trkpt lat="41.836867" lon="-8.068683">
        <ele>1016.0</ele>
        <time>2010-08-26T18:19:50Z</time>
      </trkpt>
      <trkpt lat="41.836867" lon="-8.068633">
        <ele>1016.0</ele>
        <time>2010-08-26T18:19:51Z</time>
      </trkpt>
      <trkpt lat="41.836883" lon="-8.068567">
        <ele>1016.0</ele>
        <time>2010-08-26T18:19:52Z</time>
      </trkpt>
      <trkpt lat="41.836883" lon="-8.068517">
        <ele>1016.0</ele>
        <time>2010-08-26T18:19:53Z</time>
      </trkpt>
      <trkpt lat="41.836900" lon="-8.068450">
        <ele>1016.0</ele>
        <time>2010-08-26T18:19:54Z</time>
      </trkpt>
      <trkpt lat="41.836917" lon="-8.068400">
        <ele>1016.0</ele>
        <time>2010-08-26T18:19:55Z</time>
      </trkpt>
      <trkpt lat="41.836917" lon="-8.068333">
        <ele>1016.0</ele>
        <time>2010-08-26T18:19:56Z</time>
      </trkpt>
      <trkpt lat="41.836917" lon="-8.068283">
        <ele>1017.0</ele>
        <time>2010-08-26T18:19:57Z</time>
      </trkpt>
      <trkpt lat="41.836917" lon="-8.068217">
        <ele>1017.0</ele>
        <time>2010-08-26T18:19:58Z</time>
      </trkpt>
      <trkpt lat="41.836900" lon="-8.068167">
        <ele>1017.0</ele>
        <time>2010-08-26T18:19:59Z</time>
      </trkpt>
      <trkpt lat="41.836900" lon="-8.068100">
        <ele>1017.0</ele>
        <time>2010-08-26T18:20:00Z</time>
      </trkpt>
      <trkpt lat="41.836883" lon="-8.068050">
        <ele>1017.0</ele>
        <time>2010-08-26T18:20:01Z</time>
      </trkpt>
      <trkpt lat="41.836867" lon="-8.068000">
        <ele>1017.0</ele>
        <time>2010-08-26T18:20:02Z</time>
      </trkpt>
      <trkpt lat="41.836850" lon="-8.067950">
        <ele>1017.0</ele>
        <time>2010-08-26T18:20:03Z</time>
      </trkpt>
      <trkpt lat="41.836833" lon="-8.067900">
        <ele>1017.0</ele>
        <time>2010-08-26T18:20:04Z</time>
      </trkpt>
      <trkpt lat="41.836817" lon="-8.067850">
        <ele>1017.0</ele>
        <time>2010-08-26T18:20:05Z</time>
      </trkpt>
      <trkpt lat="41.836783" lon="-8.067817">
        <ele>1017.0</ele>
        <time>2010-08-26T18:20:06Z</time>
      </trkpt>
      <trkpt lat="41.836750" lon="-8.067783">
        <ele>1017.0</ele>
        <time>2010-08-26T18:20:07Z</time>
      </trkpt>
      <trkpt lat="41.836733" lon="-8.067733">
        <ele>1017.0</ele>
        <time>2010-08-26T18:20:08Z</time>
      </trkpt>
      <trkpt lat="41.836700" lon="-8.067700">
        <ele>1018.0</ele>
        <time>2010-08-26T18:20:09Z</time>
      </trkpt>
      <trkpt lat="41.836667" lon="-8.067683">
        <ele>1018.0</ele>
        <time>2010-08-26T18:20:10Z</time>
      </trkpt>
      <trkpt lat="41.836650" lon="-8.067650">
        <ele>1018.0</ele>
        <time>2010-08-26T18:20:11Z</time>
      </trkpt>
      <trkpt lat="41.836617" lon="-8.067617">
        <ele>1018.0</ele>
        <time>2010-08-26T18:20:12Z</time>
      </trkpt>
      <trkpt lat="41.836583" lon="-8.067600">
        <ele>1018.0</ele>
        <time>2010-08-26T18:20:13Z</time>
      </trkpt>
      <trkpt lat="41.836550" lon="-8.067583">
        <ele>1018.0</ele>
        <time>2010-08-26T18:20:14Z</time>
      </trkpt>
      <trkpt lat="41.836517" lon="-8.067567">
        <ele>1018.0</ele>
        <time>2010-08-26T18:20:15Z</time>
      </trkpt>
      <trkpt lat="41.836483" lon="-8.067550">
        <ele>1018.0</ele>
        <time>2010-08-26T18:20:16Z</time>
      </trkpt>
      <trkpt lat="41.836450" lon="-8.067533">
        <ele>1018.0</ele>
        <time>2010-08-26T18:20:17Z</time>
      </trkpt>
      <trkpt lat="41.836433" lon="-8.067517">
        <ele>1019.0</ele>
        <time>2010-08-26T18:20:18Z</time>
      </trkpt>
      <trkpt lat="41.836400" lon="-8.067517">
        <ele>1019.0</ele>
        <time>2010-08-26T18:20:19Z</time>
      </trkpt>
      <trkpt lat="41.836383" lon="-8.067500">
        <ele>1019.0</ele>
        <time>2010-08-26T18:20:20Z</time>
      </trkpt>
      <trkpt lat="41.836350" lon="-8.067483">
        <ele>1019.0</ele>
        <time>2010-08-26T18:20:21Z</time>
      </trkpt>
      <trkpt lat="41.836333" lon="-8.067483">
        <ele>1019.0</ele>
        <time>2010-08-26T18:20:22Z</time>
      </trkpt>
      <trkpt lat="41.836300" lon="-8.067467">
        <ele>1019.0</ele>
        <time>2010-08-26T18:20:23Z</time>
      </trkpt>
      <trkpt lat="41.836283" lon="-8.067467">
        <ele>1019.0</ele>
        <time>2010-08-26T18:20:24Z</time>
      </trkpt>
      <trkpt lat="41.836250" lon="-8.067450">
        <ele>1019.0</ele>
        <time>2010-08-26T18:20:25Z</time>
      </trkpt>
      <trkpt lat="41.836233" lon="-8.067450">
        <ele>1019.0</ele>
        <time>2010-08-26T18:20:26Z</time>
      </trkpt>
      <trkpt lat="41.836200" lon="-8.067450">
        <ele>1020.0</ele>
        <time>2010-08-26T18:20:27Z</time>
      </trkpt>
      <trkpt lat="41.836183" lon="-8.067433">
        <ele>1020.0</ele>
        <time>2010-08-26T18:20:28Z</time>
      </trkpt>
      <trkpt lat="41.836150" lon="-8.067433">
        <ele>1020.0</ele>
        <time>2010-08-26T18:20:29Z</time>
      </trkpt>
      <trkpt lat="41.836133" lon="-8.067433">
        <ele>1020.0</ele>
        <time>2010-08-26T18:20:30Z</time>
      </trkpt>
      <trkpt lat="41.836117" lon="-8.067433">
        <ele>1020.0</ele>
        <time>2010-08-26T18:20:31Z</time>
      </trkpt>
      <trkpt lat="41.836083" lon="-8.067433">
        <ele>1021.0</ele>
        <time>2010-08-26T18:20:32Z</time>
      </trkpt>
      <trkpt lat="41.836067" lon="-8.067433">
        <ele>1021.0</ele>
        <time>2010-08-26T18:20:33Z</time>
      </trkpt>
      <trkpt lat="41.836033" lon="-8.067433">
        <ele>1021.0</ele>
        <time>2010-08-26T18:20:34Z</time>
      </trkpt>
      <trkpt lat="41.836000" lon="-8.067433">
        <ele>1021.0</ele>
        <time>2010-08-26T18:20:36Z</time>
      </trkpt>
      <trkpt lat="41.835967" lon="-8.067433">
        <ele>1022.0</ele>
        <time>2010-08-26T18:20:37Z</time>
      </trkpt>
      <trkpt lat="41.835950" lon="-8.067417">
        <ele>1022.0</ele>
        <time>2010-08-26T18:20:38Z</time>
      </trkpt>
      <trkpt lat="41.835933" lon="-8.067417">
        <ele>1022.0</ele>
        <time>2010-08-26T18:20:39Z</time>
      </trkpt>
      <trkpt lat="41.835900" lon="-8.067417">
        <ele>1022.0</ele>
        <time>2010-08-26T18:20:40Z</time>
      </trkpt>
      <trkpt lat="41.835883" lon="-8.067417">
        <ele>1022.0</ele>
        <time>2010-08-26T18:20:41Z</time>
      </trkpt>
      <trkpt lat="41.835867" lon="-8.067417">
        <ele>1022.0</ele>
        <time>2010-08-26T18:20:42Z</time>
      </trkpt>
      <trkpt lat="41.835833" lon="-8.067417">
        <ele>1022.0</ele>
        <time>2010-08-26T18:20:43Z</time>
      </trkpt>
      <trkpt lat="41.835800" lon="-8.067400">
        <ele>1022.0</ele>
        <time>2010-08-26T18:20:45Z</time>
      </trkpt>
      <trkpt lat="41.835767" lon="-8.067400">
        <ele>1022.0</ele>
        <time>2010-08-26T18:20:46Z</time>
      </trkpt>
      <trkpt lat="41.835733" lon="-8.067400">
        <ele>1022.0</ele>
        <time>2010-08-26T18:20:48Z</time>
      </trkpt>
      <trkpt lat="41.835700" lon="-8.067383">
        <ele>1023.0</ele>
        <time>2010-08-26T18:20:49Z</time>
      </trkpt>
      <trkpt lat="41.835683" lon="-8.067383">
        <ele>1023.0</ele>
        <time>2010-08-26T18:20:50Z</time>
      </trkpt>
      <trkpt lat="41.835667" lon="-8.067383">
        <ele>1023.0</ele>
        <time>2010-08-26T18:20:51Z</time>
      </trkpt>
      <trkpt lat="41.835633" lon="-8.067367">
        <ele>1023.0</ele>
        <time>2010-08-26T18:20:52Z</time>
      </trkpt>
      <trkpt lat="41.835617" lon="-8.067367">
        <ele>1023.0</ele>
        <time>2010-08-26T18:20:53Z</time>
      </trkpt>
      <trkpt lat="41.835583" lon="-8.067367">
        <ele>1023.0</ele>
        <time>2010-08-26T18:20:54Z</time>
      </trkpt>
      <trkpt lat="41.835550" lon="-8.067350">
        <ele>1023.0</ele>
        <time>2010-08-26T18:20:55Z</time>
      </trkpt>
      <trkpt lat="41.835517" lon="-8.067350">
        <ele>1023.0</ele>
        <time>2010-08-26T18:20:56Z</time>
      </trkpt>
      <trkpt lat="41.835500" lon="-8.067350">
        <ele>1023.0</ele>
        <time>2010-08-26T18:20:57Z</time>
      </trkpt>
      <trkpt lat="41.835467" lon="-8.067333">
        <ele>1023.0</ele>
        <time>2010-08-26T18:20:58Z</time>
      </trkpt>
      <trkpt lat="41.835433" lon="-8.067333">
        <ele>1023.0</ele>
        <time>2010-08-26T18:20:59Z</time>
      </trkpt>
      <trkpt lat="41.835400" lon="-8.067333">
        <ele>1023.0</ele>
        <time>2010-08-26T18:21:00Z</time>
      </trkpt>
      <trkpt lat="41.835367" lon="-8.067317">
        <ele>1023.0</ele>
        <time>2010-08-26T18:21:01Z</time>
      </trkpt>
      <trkpt lat="41.835333" lon="-8.067300">
        <ele>1023.0</ele>
        <time>2010-08-26T18:21:02Z</time>
      </trkpt>
      <trkpt lat="41.835300" lon="-8.067283">
        <ele>1023.0</ele>
        <time>2010-08-26T18:21:03Z</time>
      </trkpt>
      <trkpt lat="41.835267" lon="-8.067267">
        <ele>1023.0</ele>
        <time>2010-08-26T18:21:04Z</time>
      </trkpt>
      <trkpt lat="41.835233" lon="-8.067250">
        <ele>1023.0</ele>
        <time>2010-08-26T18:21:05Z</time>
      </trkpt>
      <trkpt lat="41.835200" lon="-8.067233">
        <ele>1023.0</ele>
        <time>2010-08-26T18:21:06Z</time>
      </trkpt>
      <trkpt lat="41.835167" lon="-8.067217">
        <ele>1023.0</ele>
        <time>2010-08-26T18:21:07Z</time>
      </trkpt>
      <trkpt lat="41.835133" lon="-8.067183">
        <ele>1023.0</ele>
        <time>2010-08-26T18:21:08Z</time>
      </trkpt>
      <trkpt lat="41.835100" lon="-8.067167">
        <ele>1023.0</ele>
        <time>2010-08-26T18:21:09Z</time>
      </trkpt>
      <trkpt lat="41.835067" lon="-8.067150">
        <ele>1023.0</ele>
        <time>2010-08-26T18:21:10Z</time>
      </trkpt>
      <trkpt lat="41.835033" lon="-8.067133">
        <ele>1023.0</ele>
        <time>2010-08-26T18:21:11Z</time>
      </trkpt>
      <trkpt lat="41.835000" lon="-8.067117">
        <ele>1023.0</ele>
        <time>2010-08-26T18:21:12Z</time>
      </trkpt>
      <trkpt lat="41.834967" lon="-8.067117">
        <ele>1023.0</ele>
        <time>2010-08-26T18:21:13Z</time>
      </trkpt>
      <trkpt lat="41.834933" lon="-8.067117">
        <ele>1023.0</ele>
        <time>2010-08-26T18:21:14Z</time>
      </trkpt>
      <trkpt lat="41.834883" lon="-8.067117">
        <ele>1023.0</ele>
        <time>2010-08-26T18:21:15Z</time>
      </trkpt>
      <trkpt lat="41.834850" lon="-8.067117">
        <ele>1023.0</ele>
        <time>2010-08-26T18:21:16Z</time>
      </trkpt>
      <trkpt lat="41.834817" lon="-8.067117">
        <ele>1023.0</ele>
        <time>2010-08-26T18:21:17Z</time>
      </trkpt>
      <trkpt lat="41.834767" lon="-8.067117">
        <ele>1023.0</ele>
        <time>2010-08-26T18:21:18Z</time>
      </trkpt>
      <trkpt lat="41.834733" lon="-8.067100">
        <ele>1023.0</ele>
        <time>2010-08-26T18:21:19Z</time>
      </trkpt>
      <trkpt lat="41.834700" lon="-8.067100">
        <ele>1023.0</ele>
        <time>2010-08-26T18:21:20Z</time>
      </trkpt>
      <trkpt lat="41.834667" lon="-8.067083">
        <ele>1024.0</ele>
        <time>2010-08-26T18:21:21Z</time>
      </trkpt>
      <trkpt lat="41.834633" lon="-8.067083">
        <ele>1024.0</ele>
        <time>2010-08-26T18:21:22Z</time>
      </trkpt>
      <trkpt lat="41.834600" lon="-8.067083">
        <ele>1024.0</ele>
        <time>2010-08-26T18:21:23Z</time>
      </trkpt>
      <trkpt lat="41.834567" lon="-8.067067">
        <ele>1024.0</ele>
        <time>2010-08-26T18:21:24Z</time>
      </trkpt>
      <trkpt lat="41.834533" lon="-8.067050">
        <ele>1024.0</ele>
        <time>2010-08-26T18:21:25Z</time>
      </trkpt>
      <trkpt lat="41.834500" lon="-8.067050">
        <ele>1024.0</ele>
        <time>2010-08-26T18:21:26Z</time>
      </trkpt>
      <trkpt lat="41.834450" lon="-8.067050">
        <ele>1024.0</ele>
        <time>2010-08-26T18:21:27Z</time>
      </trkpt>
      <trkpt lat="41.834417" lon="-8.067033">
        <ele>1024.0</ele>
        <time>2010-08-26T18:21:28Z</time>
      </trkpt>
      <trkpt lat="41.834383" lon="-8.067033">
        <ele>1024.0</ele>
        <time>2010-08-26T18:21:29Z</time>
      </trkpt>
      <trkpt lat="41.834350" lon="-8.067033">
        <ele>1024.0</ele>
        <time>2010-08-26T18:21:30Z</time>
      </trkpt>
      <trkpt lat="41.834317" lon="-8.067017">
        <ele>1024.0</ele>
        <time>2010-08-26T18:21:31Z</time>
      </trkpt>
      <trkpt lat="41.834267" lon="-8.067017">
        <ele>1024.0</ele>
        <time>2010-08-26T18:21:32Z</time>
      </trkpt>
      <trkpt lat="41.834233" lon="-8.067017">
        <ele>1024.0</ele>
        <time>2010-08-26T18:21:33Z</time>
      </trkpt>
      <trkpt lat="41.834200" lon="-8.067017">
        <ele>1024.0</ele>
        <time>2010-08-26T18:21:34Z</time>
      </trkpt>
      <trkpt lat="41.834167" lon="-8.067017">
        <ele>1025.0</ele>
        <time>2010-08-26T18:21:35Z</time>
      </trkpt>
      <trkpt lat="41.834133" lon="-8.067017">
        <ele>1025.0</ele>
        <time>2010-08-26T18:21:36Z</time>
      </trkpt>
      <trkpt lat="41.834083" lon="-8.067000">
        <ele>1025.0</ele>
        <time>2010-08-26T18:21:37Z</time>
      </trkpt>
      <trkpt lat="41.834050" lon="-8.067000">
        <ele>1025.0</ele>
        <time>2010-08-26T18:21:38Z</time>
      </trkpt>
      <trkpt lat="41.834017" lon="-8.067000">
        <ele>1025.0</ele>
        <time>2010-08-26T18:21:39Z</time>
      </trkpt>
      <trkpt lat="41.833983" lon="-8.066983">
        <ele>1025.0</ele>
        <time>2010-08-26T18:21:40Z</time>
      </trkpt>
      <trkpt lat="41.833950" lon="-8.066967">
        <ele>1025.0</ele>
        <time>2010-08-26T18:21:41Z</time>
      </trkpt>
      <trkpt lat="41.833917" lon="-8.066967">
        <ele>1025.0</ele>
        <time>2010-08-26T18:21:42Z</time>
      </trkpt>
      <trkpt lat="41.833883" lon="-8.066950">
        <ele>1025.0</ele>
        <time>2010-08-26T18:21:43Z</time>
      </trkpt>
      <trkpt lat="41.833850" lon="-8.066933">
        <ele>1025.0</ele>
        <time>2010-08-26T18:21:44Z</time>
      </trkpt>
      <trkpt lat="41.833817" lon="-8.066933">
        <ele>1025.0</ele>
        <time>2010-08-26T18:21:45Z</time>
      </trkpt>
      <trkpt lat="41.833800" lon="-8.066933">
        <ele>1026.0</ele>
        <time>2010-08-26T18:21:46Z</time>
      </trkpt>
      <trkpt lat="41.833767" lon="-8.066933">
        <ele>1026.0</ele>
        <time>2010-08-26T18:21:47Z</time>
      </trkpt>
      <trkpt lat="41.833733" lon="-8.066933">
        <ele>1026.0</ele>
        <time>2010-08-26T18:21:48Z</time>
      </trkpt>
      <trkpt lat="41.833717" lon="-8.066933">
        <ele>1026.0</ele>
        <time>2010-08-26T18:21:49Z</time>
      </trkpt>
      <trkpt lat="41.833683" lon="-8.066950">
        <ele>1026.0</ele>
        <time>2010-08-26T18:21:50Z</time>
      </trkpt>
      <trkpt lat="41.833650" lon="-8.066950">
        <ele>1027.0</ele>
        <time>2010-08-26T18:21:51Z</time>
      </trkpt>
      <trkpt lat="41.833633" lon="-8.066950">
        <ele>1027.0</ele>
        <time>2010-08-26T18:21:52Z</time>
      </trkpt>
      <trkpt lat="41.833600" lon="-8.066950">
        <ele>1027.0</ele>
        <time>2010-08-26T18:21:53Z</time>
      </trkpt>
      <trkpt lat="41.833567" lon="-8.066933">
        <ele>1027.0</ele>
        <time>2010-08-26T18:21:54Z</time>
      </trkpt>
      <trkpt lat="41.833550" lon="-8.066933">
        <ele>1027.0</ele>
        <time>2010-08-26T18:21:55Z</time>
      </trkpt>
      <trkpt lat="41.833517" lon="-8.066933">
        <ele>1027.0</ele>
        <time>2010-08-26T18:21:56Z</time>
      </trkpt>
      <trkpt lat="41.833500" lon="-8.066933">
        <ele>1028.0</ele>
        <time>2010-08-26T18:21:57Z</time>
      </trkpt>
      <trkpt lat="41.833450" lon="-8.066917">
        <ele>1028.0</ele>
        <time>2010-08-26T18:21:59Z</time>
      </trkpt>
      <trkpt lat="41.833417" lon="-8.066900">
        <ele>1029.0</ele>
        <time>2010-08-26T18:22:01Z</time>
      </trkpt>
      <trkpt lat="41.833383" lon="-8.066883">
        <ele>1030.0</ele>
        <time>2010-08-26T18:22:03Z</time>
      </trkpt>
      <trkpt lat="41.833350" lon="-8.066867">
        <ele>1030.0</ele>
        <time>2010-08-26T18:22:05Z</time>
      </trkpt>
      <trkpt lat="41.833317" lon="-8.066867">
        <ele>1031.0</ele>
        <time>2010-08-26T18:22:07Z</time>
      </trkpt>
      <trkpt lat="41.833283" lon="-8.066867">
        <ele>1031.0</ele>
        <time>2010-08-26T18:22:09Z</time>
      </trkpt>
      <trkpt lat="41.833250" lon="-8.066850">
        <ele>1031.0</ele>
        <time>2010-08-26T18:22:11Z</time>
      </trkpt>
      <trkpt lat="41.833217" lon="-8.066850">
        <ele>1032.0</ele>
        <time>2010-08-26T18:22:13Z</time>
      </trkpt>
      <trkpt lat="41.833183" lon="-8.066850">
        <ele>1032.0</ele>
        <time>2010-08-26T18:22:15Z</time>
      </trkpt>
      <trkpt lat="41.833150" lon="-8.066833">
        <ele>1033.0</ele>
        <time>2010-08-26T18:22:17Z</time>
      </trkpt>
      <trkpt lat="41.833117" lon="-8.066817">
        <ele>1033.0</ele>
        <time>2010-08-26T18:22:20Z</time>
      </trkpt>
      <trkpt lat="41.833083" lon="-8.066800">
        <ele>1033.0</ele>
        <time>2010-08-26T18:22:22Z</time>
      </trkpt>
      <trkpt lat="41.833050" lon="-8.066800">
        <ele>1033.0</ele>
        <time>2010-08-26T18:22:24Z</time>
      </trkpt>
      <trkpt lat="41.833017" lon="-8.066783">
        <ele>1033.0</ele>
        <time>2010-08-26T18:22:26Z</time>
      </trkpt>
      <trkpt lat="41.832983" lon="-8.066767">
        <ele>1033.0</ele>
        <time>2010-08-26T18:22:28Z</time>
      </trkpt>
      <trkpt lat="41.832950" lon="-8.066750">
        <ele>1034.0</ele>
        <time>2010-08-26T18:22:30Z</time>
      </trkpt>
      <trkpt lat="41.832917" lon="-8.066750">
        <ele>1034.0</ele>
        <time>2010-08-26T18:22:32Z</time>
      </trkpt>
      <trkpt lat="41.832883" lon="-8.066733">
        <ele>1035.0</ele>
        <time>2010-08-26T18:22:34Z</time>
      </trkpt>
      <trkpt lat="41.832850" lon="-8.066717">
        <ele>1035.0</ele>
        <time>2010-08-26T18:22:36Z</time>
      </trkpt>
      <trkpt lat="41.832800" lon="-8.066700">
        <ele>1035.0</ele>
        <time>2010-08-26T18:22:38Z</time>
      </trkpt>
      <trkpt lat="41.832767" lon="-8.066683">
        <ele>1036.0</ele>
        <time>2010-08-26T18:22:40Z</time>
      </trkpt>
      <trkpt lat="41.832733" lon="-8.066667">
        <ele>1037.0</ele>
        <time>2010-08-26T18:22:42Z</time>
      </trkpt>
      <trkpt lat="41.832700" lon="-8.066650">
        <ele>1036.0</ele>
        <time>2010-08-26T18:22:44Z</time>
      </trkpt>
      <trkpt lat="41.832667" lon="-8.066650">
        <ele>1036.0</ele>
        <time>2010-08-26T18:22:46Z</time>
      </trkpt>
      <trkpt lat="41.832633" lon="-8.066633">
        <ele>1036.0</ele>
        <time>2010-08-26T18:22:48Z</time>
      </trkpt>
      <trkpt lat="41.832617" lon="-8.066600">
        <ele>1036.0</ele>
        <time>2010-08-26T18:22:50Z</time>
      </trkpt>
      <trkpt lat="41.832583" lon="-8.066583">
        <ele>1037.0</ele>
        <time>2010-08-26T18:22:52Z</time>
      </trkpt>
      <trkpt lat="41.832550" lon="-8.066567">
        <ele>1037.0</ele>
        <time>2010-08-26T18:22:54Z</time>
      </trkpt>
      <trkpt lat="41.832517" lon="-8.066550">
        <ele>1037.0</ele>
        <time>2010-08-26T18:22:56Z</time>
      </trkpt>
      <trkpt lat="41.832483" lon="-8.066533">
        <ele>1037.0</ele>
        <time>2010-08-26T18:22:58Z</time>
      </trkpt>
      <trkpt lat="41.832450" lon="-8.066500">
        <ele>1037.0</ele>
        <time>2010-08-26T18:23:00Z</time>
      </trkpt>
      <trkpt lat="41.832417" lon="-8.066467">
        <ele>1037.0</ele>
        <time>2010-08-26T18:23:02Z</time>
      </trkpt>
      <trkpt lat="41.832383" lon="-8.066450">
        <ele>1037.0</ele>
        <time>2010-08-26T18:23:04Z</time>
      </trkpt>
      <trkpt lat="41.832350" lon="-8.066417">
        <ele>1037.0</ele>
        <time>2010-08-26T18:23:06Z</time>
      </trkpt>
      <trkpt lat="41.832333" lon="-8.066383">
        <ele>1037.0</ele>
        <time>2010-08-26T18:23:08Z</time>
      </trkpt>
      <trkpt lat="41.832300" lon="-8.066350">
        <ele>1037.0</ele>
        <time>2010-08-26T18:23:10Z</time>
      </trkpt>
      <trkpt lat="41.832267" lon="-8.066317">
        <ele>1037.0</ele>
        <time>2010-08-26T18:23:12Z</time>
      </trkpt>
      <trkpt lat="41.832233" lon="-8.066283">
        <ele>1037.0</ele>
        <time>2010-08-26T18:23:14Z</time>
      </trkpt>
      <trkpt lat="41.832200" lon="-8.066250">
        <ele>1037.0</ele>
        <time>2010-08-26T18:23:16Z</time>
      </trkpt>
      <trkpt lat="41.832183" lon="-8.066217">
        <ele>1037.0</ele>
        <time>2010-08-26T18:23:17Z</time>
      </trkpt>
      <trkpt lat="41.832167" lon="-8.066200">
        <ele>1037.0</ele>
        <time>2010-08-26T18:23:18Z</time>
      </trkpt>
      <trkpt lat="41.832150" lon="-8.066183">
        <ele>1037.0</ele>
        <time>2010-08-26T18:23:19Z</time>
      </trkpt>
      <trkpt lat="41.832133" lon="-8.066167">
        <ele>1037.0</ele>
        <time>2010-08-26T18:23:20Z</time>
      </trkpt>
      <trkpt lat="41.832117" lon="-8.066133">
        <ele>1037.0</ele>
        <time>2010-08-26T18:23:21Z</time>
      </trkpt>
      <trkpt lat="41.832100" lon="-8.066117">
        <ele>1037.0</ele>
        <time>2010-08-26T18:23:22Z</time>
      </trkpt>
      <trkpt lat="41.832083" lon="-8.066100">
        <ele>1037.0</ele>
        <time>2010-08-26T18:23:23Z</time>
      </trkpt>
      <trkpt lat="41.832067" lon="-8.066067">
        <ele>1037.0</ele>
        <time>2010-08-26T18:23:24Z</time>
      </trkpt>
      <trkpt lat="41.832050" lon="-8.066050">
        <ele>1037.0</ele>
        <time>2010-08-26T18:23:25Z</time>
      </trkpt>
      <trkpt lat="41.832033" lon="-8.066033">
        <ele>1037.0</ele>
        <time>2010-08-26T18:23:26Z</time>
      </trkpt>
      <trkpt lat="41.832017" lon="-8.066017">
        <ele>1037.0</ele>
        <time>2010-08-26T18:23:27Z</time>
      </trkpt>
      <trkpt lat="41.832000" lon="-8.065983">
        <ele>1037.0</ele>
        <time>2010-08-26T18:23:28Z</time>
      </trkpt>
      <trkpt lat="41.831983" lon="-8.065967">
        <ele>1037.0</ele>
        <time>2010-08-26T18:23:29Z</time>
      </trkpt>
      <trkpt lat="41.831967" lon="-8.065950">
        <ele>1037.0</ele>
        <time>2010-08-26T18:23:30Z</time>
      </trkpt>
      <trkpt lat="41.831950" lon="-8.065917">
        <ele>1037.0</ele>
        <time>2010-08-26T18:23:31Z</time>
      </trkpt>
      <trkpt lat="41.831933" lon="-8.065900">
        <ele>1037.0</ele>
        <time>2010-08-26T18:23:32Z</time>
      </trkpt>
      <trkpt lat="41.831917" lon="-8.065867">
        <ele>1037.0</ele>
        <time>2010-08-26T18:23:33Z</time>
      </trkpt>
      <trkpt lat="41.831900" lon="-8.065850">
        <ele>1037.0</ele>
        <time>2010-08-26T18:23:34Z</time>
      </trkpt>
      <trkpt lat="41.831867" lon="-8.065833">
        <ele>1037.0</ele>
        <time>2010-08-26T18:23:35Z</time>
      </trkpt>
      <trkpt lat="41.831850" lon="-8.065817">
        <ele>1037.0</ele>
        <time>2010-08-26T18:23:36Z</time>
      </trkpt>
      <trkpt lat="41.831833" lon="-8.065783">
        <ele>1037.0</ele>
        <time>2010-08-26T18:23:37Z</time>
      </trkpt>
      <trkpt lat="41.831817" lon="-8.065767">
        <ele>1037.0</ele>
        <time>2010-08-26T18:23:38Z</time>
      </trkpt>
      <trkpt lat="41.831800" lon="-8.065750">
        <ele>1037.0</ele>
        <time>2010-08-26T18:23:39Z</time>
      </trkpt>
      <trkpt lat="41.831783" lon="-8.065700">
        <ele>1037.0</ele>
        <time>2010-08-26T18:23:41Z</time>
      </trkpt>
      <trkpt lat="41.831767" lon="-8.065650">
        <ele>1037.0</ele>
        <time>2010-08-26T18:23:43Z</time>
      </trkpt>
      <trkpt lat="41.831767" lon="-8.065583">
        <ele>1037.0</ele>
        <time>2010-08-26T18:23:45Z</time>
      </trkpt>
      <trkpt lat="41.831783" lon="-8.065533">
        <ele>1037.0</ele>
        <time>2010-08-26T18:23:47Z</time>
      </trkpt>
      <trkpt lat="41.831800" lon="-8.065483">
        <ele>1038.0</ele>
        <time>2010-08-26T18:24:30Z</time>
      </trkpt>
      <trkpt lat="41.831833" lon="-8.065483">
        <ele>1038.0</ele>
        <time>2010-08-26T18:24:32Z</time>
      </trkpt>
      <trkpt lat="41.831883" lon="-8.065483">
        <ele>1038.0</ele>
        <time>2010-08-26T18:24:34Z</time>
      </trkpt>
      <trkpt lat="41.831900" lon="-8.065483">
        <ele>1038.0</ele>
        <time>2010-08-26T18:24:35Z</time>
      </trkpt>
      <trkpt lat="41.831917" lon="-8.065483">
        <ele>1038.0</ele>
        <time>2010-08-26T18:24:36Z</time>
      </trkpt>
      <trkpt lat="41.831950" lon="-8.065483">
        <ele>1039.0</ele>
        <time>2010-08-26T18:24:37Z</time>
      </trkpt>
      <trkpt lat="41.831967" lon="-8.065500">
        <ele>1039.0</ele>
        <time>2010-08-26T18:24:38Z</time>
      </trkpt>
      <trkpt lat="41.832000" lon="-8.065500">
        <ele>1039.0</ele>
        <time>2010-08-26T18:24:39Z</time>
      </trkpt>
      <trkpt lat="41.832017" lon="-8.065500">
        <ele>1039.0</ele>
        <time>2010-08-26T18:24:40Z</time>
      </trkpt>
      <trkpt lat="41.832033" lon="-8.065500">
        <ele>1039.0</ele>
        <time>2010-08-26T18:24:41Z</time>
      </trkpt>
      <trkpt lat="41.832067" lon="-8.065500">
        <ele>1039.0</ele>
        <time>2010-08-26T18:24:42Z</time>
      </trkpt>
      <trkpt lat="41.832083" lon="-8.065517">
        <ele>1039.0</ele>
        <time>2010-08-26T18:24:43Z</time>
      </trkpt>
      <trkpt lat="41.832100" lon="-8.065517">
        <ele>1039.0</ele>
        <time>2010-08-26T18:24:44Z</time>
      </trkpt>
      <trkpt lat="41.832133" lon="-8.065517">
        <ele>1040.0</ele>
        <time>2010-08-26T18:24:45Z</time>
      </trkpt>
      <trkpt lat="41.832150" lon="-8.065517">
        <ele>1040.0</ele>
        <time>2010-08-26T18:24:46Z</time>
      </trkpt>
      <trkpt lat="41.832200" lon="-8.065517">
        <ele>1040.0</ele>
        <time>2010-08-26T18:24:48Z</time>
      </trkpt>
      <trkpt lat="41.832233" lon="-8.065517">
        <ele>1040.0</ele>
        <time>2010-08-26T18:24:50Z</time>
      </trkpt>
      <trkpt lat="41.832283" lon="-8.065500">
        <ele>1041.0</ele>
        <time>2010-08-26T18:24:52Z</time>
      </trkpt>
      <trkpt lat="41.832317" lon="-8.065500">
        <ele>1041.0</ele>
        <time>2010-08-26T18:24:54Z</time>
      </trkpt>
      <trkpt lat="41.832367" lon="-8.065500">
        <ele>1041.0</ele>
        <time>2010-08-26T18:24:56Z</time>
      </trkpt>
      <trkpt lat="41.832383" lon="-8.065500">
        <ele>1042.0</ele>
        <time>2010-08-26T18:24:57Z</time>
      </trkpt>
      <trkpt lat="41.832417" lon="-8.065483">
        <ele>1042.0</ele>
        <time>2010-08-26T18:24:58Z</time>
      </trkpt>
      <trkpt lat="41.832433" lon="-8.065483">
        <ele>1042.0</ele>
        <time>2010-08-26T18:24:59Z</time>
      </trkpt>
      <trkpt lat="41.832467" lon="-8.065467">
        <ele>1042.0</ele>
        <time>2010-08-26T18:25:01Z</time>
      </trkpt>
      <trkpt lat="41.832517" lon="-8.065450">
        <ele>1043.0</ele>
        <time>2010-08-26T18:25:03Z</time>
      </trkpt>
      <trkpt lat="41.832550" lon="-8.065417">
        <ele>1043.0</ele>
        <time>2010-08-26T18:25:05Z</time>
      </trkpt>
      <trkpt lat="41.832583" lon="-8.065400">
        <ele>1044.0</ele>
        <time>2010-08-26T18:25:22Z</time>
      </trkpt>
      <trkpt lat="41.832617" lon="-8.065400">
        <ele>1039.0</ele>
        <time>2010-08-26T18:25:54Z</time>
      </trkpt>
      <trkpt lat="41.832667" lon="-8.065400">
        <ele>1034.0</ele>
        <time>2010-08-26T18:26:00Z</time>
      </trkpt>
      <trkpt lat="41.832700" lon="-8.065383">
        <ele>1030.0</ele>
        <time>2010-08-26T18:26:06Z</time>
      </trkpt>
      <trkpt lat="41.832750" lon="-8.065383">
        <ele>1025.0</ele>
        <time>2010-08-26T18:26:16Z</time>
      </trkpt>
      <trkpt lat="41.832783" lon="-8.065400">
        <ele>1024.0</ele>
        <time>2010-08-26T18:26:50Z</time>
      </trkpt>
      <trkpt lat="41.832817" lon="-8.065400">
        <ele>1024.0</ele>
        <time>2010-08-26T18:26:52Z</time>
      </trkpt>
      <trkpt lat="41.832850" lon="-8.065417">
        <ele>1024.0</ele>
        <time>2010-08-26T18:26:54Z</time>
      </trkpt>
      <trkpt lat="41.832900" lon="-8.065433">
        <ele>1023.0</ele>
        <time>2010-08-26T18:26:56Z</time>
      </trkpt>
      <trkpt lat="41.832933" lon="-8.065467">
        <ele>1022.0</ele>
        <time>2010-08-26T18:26:58Z</time>
      </trkpt>
      <trkpt lat="41.832967" lon="-8.065500">
        <ele>1021.0</ele>
        <time>2010-08-26T18:27:00Z</time>
      </trkpt>
      <trkpt lat="41.833000" lon="-8.065517">
        <ele>1020.0</ele>
        <time>2010-08-26T18:27:03Z</time>
      </trkpt>
      <trkpt lat="41.833033" lon="-8.065550">
        <ele>1019.0</ele>
        <time>2010-08-26T18:27:06Z</time>
      </trkpt>
      <trkpt lat="41.833067" lon="-8.065567">
        <ele>1019.0</ele>
        <time>2010-08-26T18:27:09Z</time>
      </trkpt>
      <trkpt lat="41.833100" lon="-8.065583">
        <ele>1023.0</ele>
        <time>2010-08-26T18:27:35Z</time>
      </trkpt>
      <trkpt lat="41.833150" lon="-8.065583">
        <ele>1024.0</ele>
        <time>2010-08-26T18:27:37Z</time>
      </trkpt>
      <trkpt lat="41.833167" lon="-8.065567">
        <ele>1024.0</ele>
        <time>2010-08-26T18:27:38Z</time>
      </trkpt>
      <trkpt lat="41.833200" lon="-8.065567">
        <ele>1024.0</ele>
        <time>2010-08-26T18:27:39Z</time>
      </trkpt>
      <trkpt lat="41.833217" lon="-8.065583">
        <ele>1024.0</ele>
        <time>2010-08-26T18:27:40Z</time>
      </trkpt>
      <trkpt lat="41.833250" lon="-8.065583">
        <ele>1024.0</ele>
        <time>2010-08-26T18:27:41Z</time>
      </trkpt>
      <trkpt lat="41.833267" lon="-8.065600">
        <ele>1024.0</ele>
        <time>2010-08-26T18:27:42Z</time>
      </trkpt>
      <trkpt lat="41.833300" lon="-8.065617">
        <ele>1024.0</ele>
        <time>2010-08-26T18:27:43Z</time>
      </trkpt>
      <trkpt lat="41.833333" lon="-8.065633">
        <ele>1023.0</ele>
        <time>2010-08-26T18:27:44Z</time>
      </trkpt>
      <trkpt lat="41.833367" lon="-8.065650">
        <ele>1023.0</ele>
        <time>2010-08-26T18:27:45Z</time>
      </trkpt>
      <trkpt lat="41.833400" lon="-8.065667">
        <ele>1023.0</ele>
        <time>2010-08-26T18:27:46Z</time>
      </trkpt>
      <trkpt lat="41.833433" lon="-8.065683">
        <ele>1023.0</ele>
        <time>2010-08-26T18:27:47Z</time>
      </trkpt>
      <trkpt lat="41.833467" lon="-8.065700">
        <ele>1022.0</ele>
        <time>2010-08-26T18:27:48Z</time>
      </trkpt>
      <trkpt lat="41.833500" lon="-8.065700">
        <ele>1022.0</ele>
        <time>2010-08-26T18:27:49Z</time>
      </trkpt>
      <trkpt lat="41.833550" lon="-8.065717">
        <ele>1021.0</ele>
        <time>2010-08-26T18:27:50Z</time>
      </trkpt>
      <trkpt lat="41.833600" lon="-8.065750">
        <ele>1021.0</ele>
        <time>2010-08-26T18:27:51Z</time>
      </trkpt>
      <trkpt lat="41.833650" lon="-8.065750">
        <ele>1020.0</ele>
        <time>2010-08-26T18:27:52Z</time>
      </trkpt>
      <trkpt lat="41.833683" lon="-8.065783">
        <ele>1020.0</ele>
        <time>2010-08-26T18:27:53Z</time>
      </trkpt>
      <trkpt lat="41.833733" lon="-8.065800">
        <ele>1019.0</ele>
        <time>2010-08-26T18:27:54Z</time>
      </trkpt>
      <trkpt lat="41.833767" lon="-8.065833">
        <ele>1019.0</ele>
        <time>2010-08-26T18:27:55Z</time>
      </trkpt>
      <trkpt lat="41.833783" lon="-8.065850">
        <ele>1018.0</ele>
        <time>2010-08-26T18:27:56Z</time>
      </trkpt>
      <trkpt lat="41.833833" lon="-8.065867">
        <ele>1018.0</ele>
        <time>2010-08-26T18:27:57Z</time>
      </trkpt>
      <trkpt lat="41.833867" lon="-8.065883">
        <ele>1017.0</ele>
        <time>2010-08-26T18:27:58Z</time>
      </trkpt>
      <trkpt lat="41.833900" lon="-8.065883">
        <ele>1017.0</ele>
        <time>2010-08-26T18:27:59Z</time>
      </trkpt>
      <trkpt lat="41.833933" lon="-8.065883">
        <ele>1016.0</ele>
        <time>2010-08-26T18:28:00Z</time>
      </trkpt>
      <trkpt lat="41.833967" lon="-8.065883">
        <ele>1016.0</ele>
        <time>2010-08-26T18:28:01Z</time>
      </trkpt>
      <trkpt lat="41.834000" lon="-8.065900">
        <ele>1016.0</ele>
        <time>2010-08-26T18:28:02Z</time>
      </trkpt>
      <trkpt lat="41.834033" lon="-8.065900">
        <ele>1015.0</ele>
        <time>2010-08-26T18:28:03Z</time>
      </trkpt>
      <trkpt lat="41.834067" lon="-8.065900">
        <ele>1015.0</ele>
        <time>2010-08-26T18:28:04Z</time>
      </trkpt>
      <trkpt lat="41.834100" lon="-8.065883">
        <ele>1015.0</ele>
        <time>2010-08-26T18:28:05Z</time>
      </trkpt>
      <trkpt lat="41.834133" lon="-8.065883">
        <ele>1015.0</ele>
        <time>2010-08-26T18:28:06Z</time>
      </trkpt>
      <trkpt lat="41.834167" lon="-8.065867">
        <ele>1015.0</ele>
        <time>2010-08-26T18:28:07Z</time>
      </trkpt>
      <trkpt lat="41.834217" lon="-8.065850">
        <ele>1014.0</ele>
        <time>2010-08-26T18:28:08Z</time>
      </trkpt>
      <trkpt lat="41.834250" lon="-8.065833">
        <ele>1014.0</ele>
        <time>2010-08-26T18:28:09Z</time>
      </trkpt>
      <trkpt lat="41.834283" lon="-8.065817">
        <ele>1014.0</ele>
        <time>2010-08-26T18:28:10Z</time>
      </trkpt>
      <trkpt lat="41.834317" lon="-8.065800">
        <ele>1014.0</ele>
        <time>2010-08-26T18:28:11Z</time>
      </trkpt>
      <trkpt lat="41.834350" lon="-8.065783">
        <ele>1014.0</ele>
        <time>2010-08-26T18:28:12Z</time>
      </trkpt>
      <trkpt lat="41.834383" lon="-8.065783">
        <ele>1014.0</ele>
        <time>2010-08-26T18:28:13Z</time>
      </trkpt>
      <trkpt lat="41.834417" lon="-8.065750">
        <ele>1014.0</ele>
        <time>2010-08-26T18:28:14Z</time>
      </trkpt>
      <trkpt lat="41.834433" lon="-8.065733">
        <ele>1014.0</ele>
        <time>2010-08-26T18:28:15Z</time>
      </trkpt>
      <trkpt lat="41.834450" lon="-8.065700">
        <ele>1014.0</ele>
        <time>2010-08-26T18:28:16Z</time>
      </trkpt>
      <trkpt lat="41.834467" lon="-8.065667">
        <ele>1014.0</ele>
        <time>2010-08-26T18:28:17Z</time>
      </trkpt>
      <trkpt lat="41.834500" lon="-8.065633">
        <ele>1014.0</ele>
        <time>2010-08-26T18:28:23Z</time>
      </trkpt>
      <trkpt lat="41.834550" lon="-8.065617">
        <ele>1016.0</ele>
        <time>2010-08-26T18:28:47Z</time>
      </trkpt>
      <trkpt lat="41.834583" lon="-8.065617">
        <ele>1018.0</ele>
        <time>2010-08-26T18:28:53Z</time>
      </trkpt>
      <trkpt lat="41.834617" lon="-8.065633">
        <ele>1021.0</ele>
        <time>2010-08-26T18:28:58Z</time>
      </trkpt>
      <trkpt lat="41.834650" lon="-8.065667">
        <ele>1024.0</ele>
        <time>2010-08-26T18:29:04Z</time>
      </trkpt>
      <trkpt lat="41.834683" lon="-8.065667">
        <ele>1024.0</ele>
        <time>2010-08-26T18:29:08Z</time>
      </trkpt>
      <trkpt lat="41.834717" lon="-8.065667">
        <ele>1024.0</ele>
        <time>2010-08-26T18:29:10Z</time>
      </trkpt>
      <trkpt lat="41.834767" lon="-8.065683">
        <ele>1024.0</ele>
        <time>2010-08-26T18:29:12Z</time>
      </trkpt>
      <trkpt lat="41.834800" lon="-8.065717">
        <ele>1023.0</ele>
        <time>2010-08-26T18:29:14Z</time>
      </trkpt>
      <trkpt lat="41.834833" lon="-8.065750">
        <ele>1022.0</ele>
        <time>2010-08-26T18:29:18Z</time>
      </trkpt>
      <trkpt lat="41.834850" lon="-8.065783">
        <ele>1020.0</ele>
        <time>2010-08-26T18:29:29Z</time>
      </trkpt>
      <trkpt lat="41.834883" lon="-8.065817">
        <ele>1020.0</ele>
        <time>2010-08-26T18:29:32Z</time>
      </trkpt>
      <trkpt lat="41.834917" lon="-8.065850">
        <ele>1020.0</ele>
        <time>2010-08-26T18:29:39Z</time>
      </trkpt>
      <trkpt lat="41.834950" lon="-8.065883">
        <ele>1019.0</ele>
        <time>2010-08-26T18:29:47Z</time>
      </trkpt>
      <trkpt lat="41.834983" lon="-8.065900">
        <ele>1018.0</ele>
        <time>2010-08-26T18:29:49Z</time>
      </trkpt>
      <trkpt lat="41.835017" lon="-8.065917">
        <ele>1018.0</ele>
        <time>2010-08-26T18:29:51Z</time>
      </trkpt>
      <trkpt lat="41.835050" lon="-8.065950">
        <ele>1017.0</ele>
        <time>2010-08-26T18:29:53Z</time>
      </trkpt>
      <trkpt lat="41.835083" lon="-8.065967">
        <ele>1016.0</ele>
        <time>2010-08-26T18:29:57Z</time>
      </trkpt>
      <trkpt lat="41.835117" lon="-8.065983">
        <ele>1015.0</ele>
        <time>2010-08-26T18:30:03Z</time>
      </trkpt>
      <trkpt lat="41.835150" lon="-8.066017">
        <ele>1014.0</ele>
        <time>2010-08-26T18:30:09Z</time>
      </trkpt>
      <trkpt lat="41.835183" lon="-8.066033">
        <ele>1014.0</ele>
        <time>2010-08-26T18:30:13Z</time>
      </trkpt>
      <trkpt lat="41.835217" lon="-8.066067">
        <ele>1014.0</ele>
        <time>2010-08-26T18:30:18Z</time>
      </trkpt>
      <trkpt lat="41.835267" lon="-8.066083">
        <ele>1014.0</ele>
        <time>2010-08-26T18:30:23Z</time>
      </trkpt>
      <trkpt lat="41.835300" lon="-8.066100">
        <ele>1013.0</ele>
        <time>2010-08-26T18:30:28Z</time>
      </trkpt>
      <trkpt lat="41.835333" lon="-8.066117">
        <ele>1013.0</ele>
        <time>2010-08-26T18:30:30Z</time>
      </trkpt>
      <trkpt lat="41.835367" lon="-8.066133">
        <ele>1012.0</ele>
        <time>2010-08-26T18:30:32Z</time>
      </trkpt>
      <trkpt lat="41.835400" lon="-8.066133">
        <ele>1012.0</ele>
        <time>2010-08-26T18:30:34Z</time>
      </trkpt>
      <trkpt lat="41.835433" lon="-8.066150">
        <ele>1011.0</ele>
        <time>2010-08-26T18:30:36Z</time>
      </trkpt>
      <trkpt lat="41.835467" lon="-8.066167">
        <ele>1010.0</ele>
        <time>2010-08-26T18:30:38Z</time>
      </trkpt>
      <trkpt lat="41.835500" lon="-8.066167">
        <ele>1010.0</ele>
        <time>2010-08-26T18:30:40Z</time>
      </trkpt>
      <trkpt lat="41.835550" lon="-8.066150">
        <ele>1009.0</ele>
        <time>2010-08-26T18:30:42Z</time>
      </trkpt>
      <trkpt lat="41.835583" lon="-8.066150">
        <ele>1008.0</ele>
        <time>2010-08-26T18:30:44Z</time>
      </trkpt>
      <trkpt lat="41.835600" lon="-8.066150">
        <ele>1008.0</ele>
        <time>2010-08-26T18:30:45Z</time>
      </trkpt>
      <trkpt lat="41.835633" lon="-8.066150">
        <ele>1007.0</ele>
        <time>2010-08-26T18:30:46Z</time>
      </trkpt>
      <trkpt lat="41.835667" lon="-8.066133">
        <ele>1006.0</ele>
        <time>2010-08-26T18:30:48Z</time>
      </trkpt>
      <trkpt lat="41.835700" lon="-8.066133">
        <ele>1006.0</ele>
        <time>2010-08-26T18:30:49Z</time>
      </trkpt>
      <trkpt lat="41.835717" lon="-8.066133">
        <ele>1005.0</ele>
        <time>2010-08-26T18:30:50Z</time>
      </trkpt>
      <trkpt lat="41.835750" lon="-8.066133">
        <ele>1005.0</ele>
        <time>2010-08-26T18:30:51Z</time>
      </trkpt>
      <trkpt lat="41.835767" lon="-8.066117">
        <ele>1005.0</ele>
        <time>2010-08-26T18:30:52Z</time>
      </trkpt>
      <trkpt lat="41.835800" lon="-8.066117">
        <ele>1004.0</ele>
        <time>2010-08-26T18:30:53Z</time>
      </trkpt>
      <trkpt lat="41.835817" lon="-8.066100">
        <ele>1004.0</ele>
        <time>2010-08-26T18:30:54Z</time>
      </trkpt>
      <trkpt lat="41.835867" lon="-8.066083">
        <ele>1003.0</ele>
        <time>2010-08-26T18:30:56Z</time>
      </trkpt>
      <trkpt lat="41.835900" lon="-8.066050">
        <ele>1003.0</ele>
        <time>2010-08-26T18:30:58Z</time>
      </trkpt>
      <trkpt lat="41.835917" lon="-8.066017">
        <ele>1002.0</ele>
        <time>2010-08-26T18:31:00Z</time>
      </trkpt>
      <trkpt lat="41.835967" lon="-8.065983">
        <ele>1000.0</ele>
        <time>2010-08-26T18:31:04Z</time>
      </trkpt>
      <trkpt lat="41.835983" lon="-8.065967">
        <ele>1000.0</ele>
        <time>2010-08-26T18:31:09Z</time>
      </trkpt>
      <trkpt lat="41.836033" lon="-8.065950">
        <ele>999.0</ele>
        <time>2010-08-26T18:31:12Z</time>
      </trkpt>
      <trkpt lat="41.836067" lon="-8.065950">
        <ele>998.0</ele>
        <time>2010-08-26T18:31:15Z</time>
      </trkpt>
      <trkpt lat="41.836100" lon="-8.065900">
        <ele>997.0</ele>
        <time>2010-08-26T18:31:18Z</time>
      </trkpt>
      <trkpt lat="41.836133" lon="-8.065883">
        <ele>997.0</ele>
        <time>2010-08-26T18:31:20Z</time>
      </trkpt>
      <trkpt lat="41.836167" lon="-8.065883">
        <ele>996.0</ele>
        <time>2010-08-26T18:31:22Z</time>
      </trkpt>
      <trkpt lat="41.836200" lon="-8.065883">
        <ele>995.0</ele>
        <time>2010-08-26T18:31:23Z</time>
      </trkpt>
      <trkpt lat="41.836233" lon="-8.065883">
        <ele>995.0</ele>
        <time>2010-08-26T18:31:25Z</time>
      </trkpt>
      <trkpt lat="41.836250" lon="-8.065867">
        <ele>994.0</ele>
        <time>2010-08-26T18:31:26Z</time>
      </trkpt>
      <trkpt lat="41.836283" lon="-8.065850">
        <ele>994.0</ele>
        <time>2010-08-26T18:31:27Z</time>
      </trkpt>
      <trkpt lat="41.836317" lon="-8.065833">
        <ele>993.0</ele>
        <time>2010-08-26T18:31:29Z</time>
      </trkpt>
      <trkpt lat="41.836350" lon="-8.065833">
        <ele>990.0</ele>
        <time>2010-08-26T18:32:30Z</time>
      </trkpt>
      <trkpt lat="41.836367" lon="-8.065817">
        <ele>990.0</ele>
        <time>2010-08-26T18:32:31Z</time>
      </trkpt>
      <trkpt lat="41.836400" lon="-8.065800">
        <ele>989.0</ele>
        <time>2010-08-26T18:32:32Z</time>
      </trkpt>
      <trkpt lat="41.836417" lon="-8.065783">
        <ele>989.0</ele>
        <time>2010-08-26T18:32:33Z</time>
      </trkpt>
      <trkpt lat="41.836450" lon="-8.065767">
        <ele>989.0</ele>
        <time>2010-08-26T18:32:34Z</time>
      </trkpt>
      <trkpt lat="41.836483" lon="-8.065750">
        <ele>989.0</ele>
        <time>2010-08-26T18:32:35Z</time>
      </trkpt>
      <trkpt lat="41.836517" lon="-8.065733">
        <ele>988.0</ele>
        <time>2010-08-26T18:32:36Z</time>
      </trkpt>
      <trkpt lat="41.836533" lon="-8.065733">
        <ele>988.0</ele>
        <time>2010-08-26T18:32:37Z</time>
      </trkpt>
      <trkpt lat="41.836567" lon="-8.065717">
        <ele>988.0</ele>
        <time>2010-08-26T18:32:38Z</time>
      </trkpt>
      <trkpt lat="41.836600" lon="-8.065717">
        <ele>988.0</ele>
        <time>2010-08-26T18:32:39Z</time>
      </trkpt>
      <trkpt lat="41.836633" lon="-8.065717">
        <ele>987.0</ele>
        <time>2010-08-26T18:32:40Z</time>
      </trkpt>
      <trkpt lat="41.836650" lon="-8.065700">
        <ele>987.0</ele>
        <time>2010-08-26T18:32:41Z</time>
      </trkpt>
      <trkpt lat="41.836683" lon="-8.065683">
        <ele>986.0</ele>
        <time>2010-08-26T18:32:42Z</time>
      </trkpt>
      <trkpt lat="41.836717" lon="-8.065667">
        <ele>986.0</ele>
        <time>2010-08-26T18:32:43Z</time>
      </trkpt>
      <trkpt lat="41.836750" lon="-8.065650">
        <ele>986.0</ele>
        <time>2010-08-26T18:32:44Z</time>
      </trkpt>
      <trkpt lat="41.836783" lon="-8.065633">
        <ele>985.0</ele>
        <time>2010-08-26T18:32:45Z</time>
      </trkpt>
      <trkpt lat="41.836817" lon="-8.065617">
        <ele>985.0</ele>
        <time>2010-08-26T18:32:46Z</time>
      </trkpt>
      <trkpt lat="41.836850" lon="-8.065600">
        <ele>985.0</ele>
        <time>2010-08-26T18:32:47Z</time>
      </trkpt>
      <trkpt lat="41.836883" lon="-8.065617">
        <ele>984.0</ele>
        <time>2010-08-26T18:32:50Z</time>
      </trkpt>
      <trkpt lat="41.836917" lon="-8.065633">
        <ele>984.0</ele>
        <time>2010-08-26T18:32:55Z</time>
      </trkpt>
      <trkpt lat="41.836950" lon="-8.065667">
        <ele>984.0</ele>
        <time>2010-08-26T18:32:58Z</time>
      </trkpt>
      <trkpt lat="41.836967" lon="-8.065683">
        <ele>984.0</ele>
        <time>2010-08-26T18:32:59Z</time>
      </trkpt>
      <trkpt lat="41.836983" lon="-8.065700">
        <ele>983.0</ele>
        <time>2010-08-26T18:33:00Z</time>
      </trkpt>
      <trkpt lat="41.837000" lon="-8.065717">
        <ele>983.0</ele>
        <time>2010-08-26T18:33:01Z</time>
      </trkpt>
      <trkpt lat="41.837033" lon="-8.065733">
        <ele>983.0</ele>
        <time>2010-08-26T18:33:02Z</time>
      </trkpt>
      <trkpt lat="41.837050" lon="-8.065767">
        <ele>982.0</ele>
        <time>2010-08-26T18:33:03Z</time>
      </trkpt>
      <trkpt lat="41.837083" lon="-8.065783">
        <ele>982.0</ele>
        <time>2010-08-26T18:33:04Z</time>
      </trkpt>
      <trkpt lat="41.837100" lon="-8.065800">
        <ele>981.0</ele>
        <time>2010-08-26T18:33:05Z</time>
      </trkpt>
      <trkpt lat="41.837150" lon="-8.065817">
        <ele>976.0</ele>
        <time>2010-08-26T18:33:22Z</time>
      </trkpt>
      <trkpt lat="41.837100" lon="-8.065800">
        <ele>986.0</ele>
        <time>2010-08-26T18:33:41Z</time>
      </trkpt>
      <trkpt lat="41.837133" lon="-8.065817">
        <ele>990.0</ele>
        <time>2010-08-26T18:34:28Z</time>
      </trkpt>
      <trkpt lat="41.837150" lon="-8.065817">
        <ele>990.0</ele>
        <time>2010-08-26T18:34:29Z</time>
      </trkpt>
      <trkpt lat="41.837183" lon="-8.065833">
        <ele>989.0</ele>
        <time>2010-08-26T18:34:30Z</time>
      </trkpt>
      <trkpt lat="41.837200" lon="-8.065850">
        <ele>989.0</ele>
        <time>2010-08-26T18:34:31Z</time>
      </trkpt>
      <trkpt lat="41.837233" lon="-8.065867">
        <ele>989.0</ele>
        <time>2010-08-26T18:34:32Z</time>
      </trkpt>
      <trkpt lat="41.837267" lon="-8.065867">
        <ele>988.0</ele>
        <time>2010-08-26T18:34:33Z</time>
      </trkpt>
      <trkpt lat="41.837283" lon="-8.065867">
        <ele>988.0</ele>
        <time>2010-08-26T18:34:34Z</time>
      </trkpt>
      <trkpt lat="41.837333" lon="-8.065883">
        <ele>987.0</ele>
        <time>2010-08-26T18:34:35Z</time>
      </trkpt>
      <trkpt lat="41.837367" lon="-8.065900">
        <ele>987.0</ele>
        <time>2010-08-26T18:34:36Z</time>
      </trkpt>
      <trkpt lat="41.837400" lon="-8.065917">
        <ele>986.0</ele>
        <time>2010-08-26T18:34:37Z</time>
      </trkpt>
      <trkpt lat="41.837450" lon="-8.065933">
        <ele>986.0</ele>
        <time>2010-08-26T18:34:38Z</time>
      </trkpt>
      <trkpt lat="41.837483" lon="-8.065950">
        <ele>985.0</ele>
        <time>2010-08-26T18:34:39Z</time>
      </trkpt>
      <trkpt lat="41.837517" lon="-8.065950">
        <ele>985.0</ele>
        <time>2010-08-26T18:34:40Z</time>
      </trkpt>
      <trkpt lat="41.837550" lon="-8.065967">
        <ele>984.0</ele>
        <time>2010-08-26T18:34:41Z</time>
      </trkpt>
      <trkpt lat="41.837567" lon="-8.065967">
        <ele>984.0</ele>
        <time>2010-08-26T18:34:42Z</time>
      </trkpt>
      <trkpt lat="41.837583" lon="-8.065983">
        <ele>983.0</ele>
        <time>2010-08-26T18:34:43Z</time>
      </trkpt>
      <trkpt lat="41.837617" lon="-8.065983">
        <ele>983.0</ele>
        <time>2010-08-26T18:34:44Z</time>
      </trkpt>
      <trkpt lat="41.837633" lon="-8.065983">
        <ele>982.0</ele>
        <time>2010-08-26T18:34:45Z</time>
      </trkpt>
      <trkpt lat="41.837667" lon="-8.065983">
        <ele>982.0</ele>
        <time>2010-08-26T18:34:46Z</time>
      </trkpt>
      <trkpt lat="41.837683" lon="-8.065983">
        <ele>981.0</ele>
        <time>2010-08-26T18:34:47Z</time>
      </trkpt>
      <trkpt lat="41.837717" lon="-8.066000">
        <ele>981.0</ele>
        <time>2010-08-26T18:34:48Z</time>
      </trkpt>
      <trkpt lat="41.837750" lon="-8.066000">
        <ele>980.0</ele>
        <time>2010-08-26T18:34:49Z</time>
      </trkpt>
      <trkpt lat="41.837800" lon="-8.066000">
        <ele>979.0</ele>
        <time>2010-08-26T18:34:51Z</time>
      </trkpt>
      <trkpt lat="41.837817" lon="-8.065983">
        <ele>978.0</ele>
        <time>2010-08-26T18:34:52Z</time>
      </trkpt>
      <trkpt lat="41.837850" lon="-8.065983">
        <ele>978.0</ele>
        <time>2010-08-26T18:34:53Z</time>
      </trkpt>
      <trkpt lat="41.837883" lon="-8.065983">
        <ele>977.0</ele>
        <time>2010-08-26T18:34:54Z</time>
      </trkpt>
      <trkpt lat="41.837917" lon="-8.065983">
        <ele>977.0</ele>
        <time>2010-08-26T18:34:55Z</time>
      </trkpt>
      <trkpt lat="41.837950" lon="-8.065983">
        <ele>976.0</ele>
        <time>2010-08-26T18:34:56Z</time>
      </trkpt>
      <trkpt lat="41.837983" lon="-8.066000">
        <ele>975.0</ele>
        <time>2010-08-26T18:34:58Z</time>
      </trkpt>
      <trkpt lat="41.838017" lon="-8.066017">
        <ele>973.0</ele>
        <time>2010-08-26T18:35:06Z</time>
      </trkpt>
      <trkpt lat="41.838050" lon="-8.066050">
        <ele>973.0</ele>
        <time>2010-08-26T18:35:18Z</time>
      </trkpt>
      <trkpt lat="41.838067" lon="-8.066100">
        <ele>973.0</ele>
        <time>2010-08-26T18:35:20Z</time>
      </trkpt>
      <trkpt lat="41.838083" lon="-8.066117">
        <ele>973.0</ele>
        <time>2010-08-26T18:35:21Z</time>
      </trkpt>
      <trkpt lat="41.838100" lon="-8.066150">
        <ele>973.0</ele>
        <time>2010-08-26T18:35:22Z</time>
      </trkpt>
      <trkpt lat="41.838117" lon="-8.066183">
        <ele>973.0</ele>
        <time>2010-08-26T18:35:23Z</time>
      </trkpt>
      <trkpt lat="41.838133" lon="-8.066200">
        <ele>973.0</ele>
        <time>2010-08-26T18:35:24Z</time>
      </trkpt>
      <trkpt lat="41.838150" lon="-8.066233">
        <ele>972.0</ele>
        <time>2010-08-26T18:35:25Z</time>
      </trkpt>
      <trkpt lat="41.838167" lon="-8.066267">
        <ele>972.0</ele>
        <time>2010-08-26T18:35:26Z</time>
      </trkpt>
      <trkpt lat="41.838200" lon="-8.066300">
        <ele>972.0</ele>
        <time>2010-08-26T18:35:27Z</time>
      </trkpt>
      <trkpt lat="41.838217" lon="-8.066317">
        <ele>971.0</ele>
        <time>2010-08-26T18:35:28Z</time>
      </trkpt>
      <trkpt lat="41.838250" lon="-8.066333">
        <ele>971.0</ele>
        <time>2010-08-26T18:35:29Z</time>
      </trkpt>
      <trkpt lat="41.838267" lon="-8.066333">
        <ele>970.0</ele>
        <time>2010-08-26T18:35:30Z</time>
      </trkpt>
      <trkpt lat="41.838300" lon="-8.066350">
        <ele>970.0</ele>
        <time>2010-08-26T18:35:31Z</time>
      </trkpt>
      <trkpt lat="41.838317" lon="-8.066367">
        <ele>969.0</ele>
        <time>2010-08-26T18:35:32Z</time>
      </trkpt>
      <trkpt lat="41.838350" lon="-8.066383">
        <ele>969.0</ele>
        <time>2010-08-26T18:35:33Z</time>
      </trkpt>
      <trkpt lat="41.838383" lon="-8.066400">
        <ele>968.0</ele>
        <time>2010-08-26T18:35:34Z</time>
      </trkpt>
      <trkpt lat="41.838417" lon="-8.066417">
        <ele>967.0</ele>
        <time>2010-08-26T18:35:35Z</time>
      </trkpt>
      <trkpt lat="41.838450" lon="-8.066433">
        <ele>967.0</ele>
        <time>2010-08-26T18:35:36Z</time>
      </trkpt>
      <trkpt lat="41.838483" lon="-8.066467">
        <ele>966.0</ele>
        <time>2010-08-26T18:35:37Z</time>
      </trkpt>
      <trkpt lat="41.838517" lon="-8.066483">
        <ele>966.0</ele>
        <time>2010-08-26T18:35:38Z</time>
      </trkpt>
      <trkpt lat="41.838533" lon="-8.066517">
        <ele>966.0</ele>
        <time>2010-08-26T18:35:39Z</time>
      </trkpt>
      <trkpt lat="41.838567" lon="-8.066533">
        <ele>965.0</ele>
        <time>2010-08-26T18:35:40Z</time>
      </trkpt>
      <trkpt lat="41.838583" lon="-8.066567">
        <ele>965.0</ele>
        <time>2010-08-26T18:35:41Z</time>
      </trkpt>
      <trkpt lat="41.838617" lon="-8.066583">
        <ele>964.0</ele>
        <time>2010-08-26T18:35:42Z</time>
      </trkpt>
      <trkpt lat="41.838633" lon="-8.066600">
        <ele>964.0</ele>
        <time>2010-08-26T18:35:43Z</time>
      </trkpt>
      <trkpt lat="41.838667" lon="-8.066617">
        <ele>963.0</ele>
        <time>2010-08-26T18:35:44Z</time>
      </trkpt>
      <trkpt lat="41.838700" lon="-8.066633">
        <ele>963.0</ele>
        <time>2010-08-26T18:35:45Z</time>
      </trkpt>
      <trkpt lat="41.838717" lon="-8.066650">
        <ele>962.0</ele>
        <time>2010-08-26T18:35:46Z</time>
      </trkpt>
      <trkpt lat="41.838750" lon="-8.066667">
        <ele>962.0</ele>
        <time>2010-08-26T18:35:47Z</time>
      </trkpt>
      <trkpt lat="41.838767" lon="-8.066683">
        <ele>961.0</ele>
        <time>2010-08-26T18:35:48Z</time>
      </trkpt>
      <trkpt lat="41.838800" lon="-8.066700">
        <ele>961.0</ele>
        <time>2010-08-26T18:35:49Z</time>
      </trkpt>
      <trkpt lat="41.838833" lon="-8.066733">
        <ele>960.0</ele>
        <time>2010-08-26T18:35:50Z</time>
      </trkpt>
      <trkpt lat="41.838850" lon="-8.066750">
        <ele>960.0</ele>
        <time>2010-08-26T18:35:51Z</time>
      </trkpt>
      <trkpt lat="41.838883" lon="-8.066783">
        <ele>959.0</ele>
        <time>2010-08-26T18:35:52Z</time>
      </trkpt>
      <trkpt lat="41.838917" lon="-8.066800">
        <ele>959.0</ele>
        <time>2010-08-26T18:35:53Z</time>
      </trkpt>
      <trkpt lat="41.838933" lon="-8.066817">
        <ele>959.0</ele>
        <time>2010-08-26T18:35:54Z</time>
      </trkpt>
      <trkpt lat="41.838950" lon="-8.066833">
        <ele>958.0</ele>
        <time>2010-08-26T18:35:55Z</time>
      </trkpt>
      <trkpt lat="41.838983" lon="-8.066850">
        <ele>958.0</ele>
        <time>2010-08-26T18:35:56Z</time>
      </trkpt>
      <trkpt lat="41.839017" lon="-8.066867">
        <ele>957.0</ele>
        <time>2010-08-26T18:35:57Z</time>
      </trkpt>
      <trkpt lat="41.839050" lon="-8.066883">
        <ele>957.0</ele>
        <time>2010-08-26T18:35:58Z</time>
      </trkpt>
      <trkpt lat="41.839067" lon="-8.066917">
        <ele>956.0</ele>
        <time>2010-08-26T18:35:59Z</time>
      </trkpt>
      <trkpt lat="41.839083" lon="-8.066933">
        <ele>956.0</ele>
        <time>2010-08-26T18:36:00Z</time>
      </trkpt>
      <trkpt lat="41.839100" lon="-8.066967">
        <ele>956.0</ele>
        <time>2010-08-26T18:36:01Z</time>
      </trkpt>
      <trkpt lat="41.839117" lon="-8.067000">
        <ele>955.0</ele>
        <time>2010-08-26T18:36:02Z</time>
      </trkpt>
      <trkpt lat="41.839133" lon="-8.067033">
        <ele>955.0</ele>
        <time>2010-08-26T18:36:03Z</time>
      </trkpt>
      <trkpt lat="41.839167" lon="-8.067067">
        <ele>954.0</ele>
        <time>2010-08-26T18:36:04Z</time>
      </trkpt>
      <trkpt lat="41.839183" lon="-8.067100">
        <ele>954.0</ele>
        <time>2010-08-26T18:36:05Z</time>
      </trkpt>
      <trkpt lat="41.839200" lon="-8.067117">
        <ele>954.0</ele>
        <time>2010-08-26T18:36:06Z</time>
      </trkpt>
      <trkpt lat="41.839217" lon="-8.067167">
        <ele>953.0</ele>
        <time>2010-08-26T18:36:07Z</time>
      </trkpt>
      <trkpt lat="41.839233" lon="-8.067200">
        <ele>953.0</ele>
        <time>2010-08-26T18:36:08Z</time>
      </trkpt>
      <trkpt lat="41.839250" lon="-8.067233">
        <ele>953.0</ele>
        <time>2010-08-26T18:36:09Z</time>
      </trkpt>
      <trkpt lat="41.839283" lon="-8.067267">
        <ele>952.0</ele>
        <time>2010-08-26T18:36:10Z</time>
      </trkpt>
      <trkpt lat="41.839317" lon="-8.067300">
        <ele>952.0</ele>
        <time>2010-08-26T18:36:11Z</time>
      </trkpt>
      <trkpt lat="41.839350" lon="-8.067350">
        <ele>952.0</ele>
        <time>2010-08-26T18:36:12Z</time>
      </trkpt>
      <trkpt lat="41.839383" lon="-8.067383">
        <ele>951.0</ele>
        <time>2010-08-26T18:36:13Z</time>
      </trkpt>
      <trkpt lat="41.839417" lon="-8.067417">
        <ele>951.0</ele>
        <time>2010-08-26T18:36:14Z</time>
      </trkpt>
      <trkpt lat="41.839450" lon="-8.067450">
        <ele>951.0</ele>
        <time>2010-08-26T18:36:15Z</time>
      </trkpt>
      <trkpt lat="41.839483" lon="-8.067483">
        <ele>950.0</ele>
        <time>2010-08-26T18:36:16Z</time>
      </trkpt>
      <trkpt lat="41.839517" lon="-8.067500">
        <ele>949.0</ele>
        <time>2010-08-26T18:36:17Z</time>
      </trkpt>
      <trkpt lat="41.839550" lon="-8.067533">
        <ele>949.0</ele>
        <time>2010-08-26T18:36:18Z</time>
      </trkpt>
      <trkpt lat="41.839583" lon="-8.067550">
        <ele>949.0</ele>
        <time>2010-08-26T18:36:19Z</time>
      </trkpt>
      <trkpt lat="41.839617" lon="-8.067583">
        <ele>948.0</ele>
        <time>2010-08-26T18:36:20Z</time>
      </trkpt>
      <trkpt lat="41.839650" lon="-8.067600">
        <ele>948.0</ele>
        <time>2010-08-26T18:36:21Z</time>
      </trkpt>
      <trkpt lat="41.839683" lon="-8.067617">
        <ele>948.0</ele>
        <time>2010-08-26T18:36:22Z</time>
      </trkpt>
      <trkpt lat="41.839717" lon="-8.067633">
        <ele>948.0</ele>
        <time>2010-08-26T18:36:23Z</time>
      </trkpt>
      <trkpt lat="41.839750" lon="-8.067650">
        <ele>948.0</ele>
        <time>2010-08-26T18:36:24Z</time>
      </trkpt>
      <trkpt lat="41.839783" lon="-8.067667">
        <ele>947.0</ele>
        <time>2010-08-26T18:36:25Z</time>
      </trkpt>
      <trkpt lat="41.839833" lon="-8.067683">
        <ele>947.0</ele>
        <time>2010-08-26T18:36:26Z</time>
      </trkpt>
      <trkpt lat="41.839867" lon="-8.067683">
        <ele>947.0</ele>
        <time>2010-08-26T18:36:27Z</time>
      </trkpt>
      <trkpt lat="41.839900" lon="-8.067700">
        <ele>947.0</ele>
        <time>2010-08-26T18:36:28Z</time>
      </trkpt>
      <trkpt lat="41.839933" lon="-8.067683">
        <ele>946.0</ele>
        <time>2010-08-26T18:36:29Z</time>
      </trkpt>
      <trkpt lat="41.839967" lon="-8.067667">
        <ele>946.0</ele>
        <time>2010-08-26T18:36:30Z</time>
      </trkpt>
      <trkpt lat="41.840000" lon="-8.067650">
        <ele>946.0</ele>
        <time>2010-08-26T18:36:31Z</time>
      </trkpt>
      <trkpt lat="41.840033" lon="-8.067617">
        <ele>945.0</ele>
        <time>2010-08-26T18:36:32Z</time>
      </trkpt>
      <trkpt lat="41.840067" lon="-8.067600">
        <ele>945.0</ele>
        <time>2010-08-26T18:36:33Z</time>
      </trkpt>
      <trkpt lat="41.840100" lon="-8.067583">
        <ele>945.0</ele>
        <time>2010-08-26T18:36:34Z</time>
      </trkpt>
      <trkpt lat="41.840150" lon="-8.067567">
        <ele>944.0</ele>
        <time>2010-08-26T18:36:35Z</time>
      </trkpt>
      <trkpt lat="41.840183" lon="-8.067550">
        <ele>944.0</ele>
        <time>2010-08-26T18:36:36Z</time>
      </trkpt>
      <trkpt lat="41.840217" lon="-8.067533">
        <ele>943.0</ele>
        <time>2010-08-26T18:36:39Z</time>
      </trkpt>
      <trkpt lat="41.840250" lon="-8.067500">
        <ele>942.0</ele>
        <time>2010-08-26T18:36:43Z</time>
      </trkpt>
      <trkpt lat="41.840283" lon="-8.067483">
        <ele>942.0</ele>
        <time>2010-08-26T18:36:46Z</time>
      </trkpt>
      <trkpt lat="41.840317" lon="-8.067467">
        <ele>942.0</ele>
        <time>2010-08-26T18:36:48Z</time>
      </trkpt>
      <trkpt lat="41.840333" lon="-8.067467">
        <ele>942.0</ele>
        <time>2010-08-26T18:36:49Z</time>
      </trkpt>
      <trkpt lat="41.840350" lon="-8.067450">
        <ele>941.0</ele>
        <time>2010-08-26T18:36:50Z</time>
      </trkpt>
      <trkpt lat="41.840383" lon="-8.067450">
        <ele>941.0</ele>
        <time>2010-08-26T18:36:51Z</time>
      </trkpt>
      <trkpt lat="41.840417" lon="-8.067433">
        <ele>941.0</ele>
        <time>2010-08-26T18:36:53Z</time>
      </trkpt>
      <trkpt lat="41.840467" lon="-8.067433">
        <ele>941.0</ele>
        <time>2010-08-26T18:36:55Z</time>
      </trkpt>
      <trkpt lat="41.840500" lon="-8.067433">
        <ele>941.0</ele>
        <time>2010-08-26T18:36:57Z</time>
      </trkpt>
      <trkpt lat="41.840550" lon="-8.067450">
        <ele>941.0</ele>
        <time>2010-08-26T18:36:59Z</time>
      </trkpt>
      <trkpt lat="41.840583" lon="-8.067467">
        <ele>940.0</ele>
        <time>2010-08-26T18:37:01Z</time>
      </trkpt>
      <trkpt lat="41.840617" lon="-8.067483">
        <ele>940.0</ele>
        <time>2010-08-26T18:37:03Z</time>
      </trkpt>
      <trkpt lat="41.840650" lon="-8.067483">
        <ele>940.0</ele>
        <time>2010-08-26T18:37:05Z</time>
      </trkpt>
      <trkpt lat="41.840683" lon="-8.067517">
        <ele>940.0</ele>
        <time>2010-08-26T18:37:07Z</time>
      </trkpt>
      <trkpt lat="41.840717" lon="-8.067533">
        <ele>940.0</ele>
        <time>2010-08-26T18:37:09Z</time>
      </trkpt>
      <trkpt lat="41.840750" lon="-8.067550">
        <ele>940.0</ele>
        <time>2010-08-26T18:37:10Z</time>
      </trkpt>
      <trkpt lat="41.840767" lon="-8.067550">
        <ele>940.0</ele>
        <time>2010-08-26T18:37:11Z</time>
      </trkpt>
      <trkpt lat="41.840783" lon="-8.067567">
        <ele>939.0</ele>
        <time>2010-08-26T18:37:12Z</time>
      </trkpt>
      <trkpt lat="41.840817" lon="-8.067567">
        <ele>939.0</ele>
        <time>2010-08-26T18:37:13Z</time>
      </trkpt>
      <trkpt lat="41.840833" lon="-8.067583">
        <ele>939.0</ele>
        <time>2010-08-26T18:37:14Z</time>
      </trkpt>
      <trkpt lat="41.840867" lon="-8.067600">
        <ele>938.0</ele>
        <time>2010-08-26T18:37:15Z</time>
      </trkpt>
      <trkpt lat="41.840900" lon="-8.067617">
        <ele>938.0</ele>
        <time>2010-08-26T18:37:16Z</time>
      </trkpt>
      <trkpt lat="41.840917" lon="-8.067633">
        <ele>938.0</ele>
        <time>2010-08-26T18:37:17Z</time>
      </trkpt>
      <trkpt lat="41.840950" lon="-8.067650">
        <ele>937.0</ele>
        <time>2010-08-26T18:37:18Z</time>
      </trkpt>
      <trkpt lat="41.840983" lon="-8.067667">
        <ele>937.0</ele>
        <time>2010-08-26T18:37:19Z</time>
      </trkpt>
      <trkpt lat="41.841000" lon="-8.067683">
        <ele>937.0</ele>
        <time>2010-08-26T18:37:20Z</time>
      </trkpt>
      <trkpt lat="41.841033" lon="-8.067700">
        <ele>936.0</ele>
        <time>2010-08-26T18:37:21Z</time>
      </trkpt>
      <trkpt lat="41.841067" lon="-8.067717">
        <ele>936.0</ele>
        <time>2010-08-26T18:37:22Z</time>
      </trkpt>
      <trkpt lat="41.841100" lon="-8.067733">
        <ele>935.0</ele>
        <time>2010-08-26T18:37:23Z</time>
      </trkpt>
      <trkpt lat="41.841117" lon="-8.067750">
        <ele>935.0</ele>
        <time>2010-08-26T18:37:24Z</time>
      </trkpt>
      <trkpt lat="41.841150" lon="-8.067767">
        <ele>934.0</ele>
        <time>2010-08-26T18:37:25Z</time>
      </trkpt>
      <trkpt lat="41.841183" lon="-8.067783">
        <ele>934.0</ele>
        <time>2010-08-26T18:37:26Z</time>
      </trkpt>
      <trkpt lat="41.841200" lon="-8.067817">
        <ele>934.0</ele>
        <time>2010-08-26T18:37:27Z</time>
      </trkpt>
      <trkpt lat="41.841217" lon="-8.067833">
        <ele>933.0</ele>
        <time>2010-08-26T18:37:28Z</time>
      </trkpt>
      <trkpt lat="41.841250" lon="-8.067850">
        <ele>933.0</ele>
        <time>2010-08-26T18:37:29Z</time>
      </trkpt>
      <trkpt lat="41.841267" lon="-8.067867">
        <ele>933.0</ele>
        <time>2010-08-26T18:37:30Z</time>
      </trkpt>
      <trkpt lat="41.841300" lon="-8.067883">
        <ele>932.0</ele>
        <time>2010-08-26T18:37:31Z</time>
      </trkpt>
      <trkpt lat="41.841317" lon="-8.067917">
        <ele>932.0</ele>
        <time>2010-08-26T18:37:32Z</time>
      </trkpt>
      <trkpt lat="41.841333" lon="-8.067950">
        <ele>932.0</ele>
        <time>2010-08-26T18:37:33Z</time>
      </trkpt>
      <trkpt lat="41.841350" lon="-8.067983">
        <ele>932.0</ele>
        <time>2010-08-26T18:37:34Z</time>
      </trkpt>
      <trkpt lat="41.841383" lon="-8.068000">
        <ele>932.0</ele>
        <time>2010-08-26T18:37:35Z</time>
      </trkpt>
      <trkpt lat="41.841400" lon="-8.068033">
        <ele>931.0</ele>
        <time>2010-08-26T18:37:36Z</time>
      </trkpt>
      <trkpt lat="41.841417" lon="-8.068067">
        <ele>931.0</ele>
        <time>2010-08-26T18:37:37Z</time>
      </trkpt>
      <trkpt lat="41.841433" lon="-8.068100">
        <ele>931.0</ele>
        <time>2010-08-26T18:37:38Z</time>
      </trkpt>
      <trkpt lat="41.841450" lon="-8.068133">
        <ele>931.0</ele>
        <time>2010-08-26T18:37:39Z</time>
      </trkpt>
      <trkpt lat="41.841483" lon="-8.068167">
        <ele>931.0</ele>
        <time>2010-08-26T18:37:40Z</time>
      </trkpt>
      <trkpt lat="41.841500" lon="-8.068200">
        <ele>930.0</ele>
        <time>2010-08-26T18:37:41Z</time>
      </trkpt>
      <trkpt lat="41.841517" lon="-8.068233">
        <ele>930.0</ele>
        <time>2010-08-26T18:37:42Z</time>
      </trkpt>
      <trkpt lat="41.841533" lon="-8.068267">
        <ele>930.0</ele>
        <time>2010-08-26T18:37:43Z</time>
      </trkpt>
      <trkpt lat="41.841550" lon="-8.068283">
        <ele>930.0</ele>
        <time>2010-08-26T18:37:44Z</time>
      </trkpt>
      <trkpt lat="41.841583" lon="-8.068333">
        <ele>929.0</ele>
        <time>2010-08-26T18:37:46Z</time>
      </trkpt>
      <trkpt lat="41.841617" lon="-8.068350">
        <ele>928.0</ele>
        <time>2010-08-26T18:37:48Z</time>
      </trkpt>
      <trkpt lat="41.841633" lon="-8.068367">
        <ele>928.0</ele>
        <time>2010-08-26T18:37:49Z</time>
      </trkpt>
      <trkpt lat="41.841650" lon="-8.068400">
        <ele>927.0</ele>
        <time>2010-08-26T18:37:50Z</time>
      </trkpt>
      <trkpt lat="41.841683" lon="-8.068417">
        <ele>927.0</ele>
        <time>2010-08-26T18:37:51Z</time>
      </trkpt>
      <trkpt lat="41.841700" lon="-8.068467">
        <ele>926.0</ele>
        <time>2010-08-26T18:37:53Z</time>
      </trkpt>
      <trkpt lat="41.841733" lon="-8.068500">
        <ele>926.0</ele>
        <time>2010-08-26T18:37:55Z</time>
      </trkpt>
      <trkpt lat="41.841767" lon="-8.068533">
        <ele>925.0</ele>
        <time>2010-08-26T18:37:57Z</time>
      </trkpt>
      <trkpt lat="41.841800" lon="-8.068583">
        <ele>925.0</ele>
        <time>2010-08-26T18:37:59Z</time>
      </trkpt>
      <trkpt lat="41.841817" lon="-8.068600">
        <ele>924.0</ele>
        <time>2010-08-26T18:38:00Z</time>
      </trkpt>
      <trkpt lat="41.841833" lon="-8.068633">
        <ele>924.0</ele>
        <time>2010-08-26T18:38:01Z</time>
      </trkpt>
      <trkpt lat="41.841850" lon="-8.068650">
        <ele>924.0</ele>
        <time>2010-08-26T18:38:02Z</time>
      </trkpt>
      <trkpt lat="41.841867" lon="-8.068683">
        <ele>924.0</ele>
        <time>2010-08-26T18:38:03Z</time>
      </trkpt>
      <trkpt lat="41.841883" lon="-8.068700">
        <ele>923.0</ele>
        <time>2010-08-26T18:38:04Z</time>
      </trkpt>
      <trkpt lat="41.841900" lon="-8.068733">
        <ele>923.0</ele>
        <time>2010-08-26T18:38:05Z</time>
      </trkpt>
      <trkpt lat="41.841917" lon="-8.068767">
        <ele>922.0</ele>
        <time>2010-08-26T18:38:06Z</time>
      </trkpt>
      <trkpt lat="41.841933" lon="-8.068783">
        <ele>922.0</ele>
        <time>2010-08-26T18:38:07Z</time>
      </trkpt>
      <trkpt lat="41.841950" lon="-8.068833">
        <ele>921.0</ele>
        <time>2010-08-26T18:38:09Z</time>
      </trkpt>
      <trkpt lat="41.841967" lon="-8.068883">
        <ele>920.0</ele>
        <time>2010-08-26T18:38:11Z</time>
      </trkpt>
      <trkpt lat="41.842017" lon="-8.068917">
        <ele>918.0</ele>
        <time>2010-08-26T18:38:38Z</time>
      </trkpt>
      <trkpt lat="41.842033" lon="-8.068950">
        <ele>925.0</ele>
        <time>2010-08-26T18:39:28Z</time>
      </trkpt>
      <trkpt lat="41.842050" lon="-8.068967">
        <ele>925.0</ele>
        <time>2010-08-26T18:39:29Z</time>
      </trkpt>
      <trkpt lat="41.842067" lon="-8.069000">
        <ele>924.0</ele>
        <time>2010-08-26T18:39:30Z</time>
      </trkpt>
      <trkpt lat="41.842083" lon="-8.069033">
        <ele>924.0</ele>
        <time>2010-08-26T18:39:31Z</time>
      </trkpt>
      <trkpt lat="41.842100" lon="-8.069067">
        <ele>923.0</ele>
        <time>2010-08-26T18:39:32Z</time>
      </trkpt>
      <trkpt lat="41.842117" lon="-8.069100">
        <ele>923.0</ele>
        <time>2010-08-26T18:39:33Z</time>
      </trkpt>
      <trkpt lat="41.842133" lon="-8.069150">
        <ele>922.0</ele>
        <time>2010-08-26T18:39:34Z</time>
      </trkpt>
      <trkpt lat="41.842150" lon="-8.069183">
        <ele>921.0</ele>
        <time>2010-08-26T18:39:35Z</time>
      </trkpt>
      <trkpt lat="41.842167" lon="-8.069233">
        <ele>921.0</ele>
        <time>2010-08-26T18:39:36Z</time>
      </trkpt>
      <trkpt lat="41.842200" lon="-8.069267">
        <ele>920.0</ele>
        <time>2010-08-26T18:39:37Z</time>
      </trkpt>
      <trkpt lat="41.842217" lon="-8.069317">
        <ele>919.0</ele>
        <time>2010-08-26T18:39:38Z</time>
      </trkpt>
      <trkpt lat="41.842233" lon="-8.069350">
        <ele>919.0</ele>
        <time>2010-08-26T18:39:39Z</time>
      </trkpt>
      <trkpt lat="41.842267" lon="-8.069383">
        <ele>918.0</ele>
        <time>2010-08-26T18:39:40Z</time>
      </trkpt>
      <trkpt lat="41.842283" lon="-8.069417">
        <ele>917.0</ele>
        <time>2010-08-26T18:39:41Z</time>
      </trkpt>
      <trkpt lat="41.842300" lon="-8.069450">
        <ele>917.0</ele>
        <time>2010-08-26T18:39:42Z</time>
      </trkpt>
      <trkpt lat="41.842333" lon="-8.069500">
        <ele>916.0</ele>
        <time>2010-08-26T18:39:44Z</time>
      </trkpt>
      <trkpt lat="41.842350" lon="-8.069550">
        <ele>915.0</ele>
        <time>2010-08-26T18:39:46Z</time>
      </trkpt>
      <trkpt lat="41.842367" lon="-8.069583">
        <ele>913.0</ele>
        <time>2010-08-26T18:39:48Z</time>
      </trkpt>
      <trkpt lat="41.842367" lon="-8.069617">
        <ele>912.0</ele>
        <time>2010-08-26T18:39:50Z</time>
      </trkpt>
      <trkpt lat="41.842383" lon="-8.069650">
        <ele>912.0</ele>
        <time>2010-08-26T18:39:51Z</time>
      </trkpt>
      <trkpt lat="41.842383" lon="-8.069683">
        <ele>911.0</ele>
        <time>2010-08-26T18:39:52Z</time>
      </trkpt>
      <trkpt lat="41.842400" lon="-8.069733">
        <ele>911.0</ele>
        <time>2010-08-26T18:39:53Z</time>
      </trkpt>
      <trkpt lat="41.842400" lon="-8.069783">
        <ele>910.0</ele>
        <time>2010-08-26T18:39:54Z</time>
      </trkpt>
      <trkpt lat="41.842400" lon="-8.069833">
        <ele>909.0</ele>
        <time>2010-08-26T18:39:55Z</time>
      </trkpt>
      <trkpt lat="41.842400" lon="-8.069867">
        <ele>909.0</ele>
        <time>2010-08-26T18:39:56Z</time>
      </trkpt>
      <trkpt lat="41.842400" lon="-8.069917">
        <ele>908.0</ele>
        <time>2010-08-26T18:39:57Z</time>
      </trkpt>
      <trkpt lat="41.842417" lon="-8.069967">
        <ele>908.0</ele>
        <time>2010-08-26T18:39:58Z</time>
      </trkpt>
      <trkpt lat="41.842417" lon="-8.070000">
        <ele>908.0</ele>
        <time>2010-08-26T18:39:59Z</time>
      </trkpt>
      <trkpt lat="41.842433" lon="-8.070050">
        <ele>907.0</ele>
        <time>2010-08-26T18:40:00Z</time>
      </trkpt>
      <trkpt lat="41.842433" lon="-8.070083">
        <ele>907.0</ele>
        <time>2010-08-26T18:40:01Z</time>
      </trkpt>
      <trkpt lat="41.842450" lon="-8.070133">
        <ele>907.0</ele>
        <time>2010-08-26T18:40:02Z</time>
      </trkpt>
      <trkpt lat="41.842450" lon="-8.070183">
        <ele>907.0</ele>
        <time>2010-08-26T18:40:03Z</time>
      </trkpt>
      <trkpt lat="41.842467" lon="-8.070233">
        <ele>906.0</ele>
        <time>2010-08-26T18:40:04Z</time>
      </trkpt>
      <trkpt lat="41.842467" lon="-8.070267">
        <ele>906.0</ele>
        <time>2010-08-26T18:40:05Z</time>
      </trkpt>
      <trkpt lat="41.842467" lon="-8.070317">
        <ele>906.0</ele>
        <time>2010-08-26T18:40:06Z</time>
      </trkpt>
      <trkpt lat="41.842483" lon="-8.070350">
        <ele>905.0</ele>
        <time>2010-08-26T18:40:07Z</time>
      </trkpt>
      <trkpt lat="41.842483" lon="-8.070400">
        <ele>905.0</ele>
        <time>2010-08-26T18:40:08Z</time>
      </trkpt>
      <trkpt lat="41.842483" lon="-8.070450">
        <ele>904.0</ele>
        <time>2010-08-26T18:40:09Z</time>
      </trkpt>
      <trkpt lat="41.842483" lon="-8.070483">
        <ele>904.0</ele>
        <time>2010-08-26T18:40:10Z</time>
      </trkpt>
      <trkpt lat="41.842483" lon="-8.070533">
        <ele>903.0</ele>
        <time>2010-08-26T18:40:11Z</time>
      </trkpt>
      <trkpt lat="41.842500" lon="-8.070583">
        <ele>902.0</ele>
        <time>2010-08-26T18:40:12Z</time>
      </trkpt>
      <trkpt lat="41.842517" lon="-8.070633">
        <ele>901.0</ele>
        <time>2010-08-26T18:40:13Z</time>
      </trkpt>
      <trkpt lat="41.842533" lon="-8.070683">
        <ele>901.0</ele>
        <time>2010-08-26T18:40:14Z</time>
      </trkpt>
      <trkpt lat="41.842550" lon="-8.070733">
        <ele>900.0</ele>
        <time>2010-08-26T18:40:15Z</time>
      </trkpt>
      <trkpt lat="41.842550" lon="-8.070783">
        <ele>900.0</ele>
        <time>2010-08-26T18:40:16Z</time>
      </trkpt>
      <trkpt lat="41.842567" lon="-8.070833">
        <ele>899.0</ele>
        <time>2010-08-26T18:40:17Z</time>
      </trkpt>
      <trkpt lat="41.842583" lon="-8.070867">
        <ele>899.0</ele>
        <time>2010-08-26T18:40:18Z</time>
      </trkpt>
      <trkpt lat="41.842600" lon="-8.070917">
        <ele>898.0</ele>
        <time>2010-08-26T18:40:19Z</time>
      </trkpt>
      <trkpt lat="41.842600" lon="-8.070967">
        <ele>898.0</ele>
        <time>2010-08-26T18:40:20Z</time>
      </trkpt>
      <trkpt lat="41.842617" lon="-8.071017">
        <ele>898.0</ele>
        <time>2010-08-26T18:40:21Z</time>
      </trkpt>
      <trkpt lat="41.842633" lon="-8.071067">
        <ele>897.0</ele>
        <time>2010-08-26T18:40:22Z</time>
      </trkpt>
      <trkpt lat="41.842633" lon="-8.071117">
        <ele>897.0</ele>
        <time>2010-08-26T18:40:23Z</time>
      </trkpt>
      <trkpt lat="41.842650" lon="-8.071167">
        <ele>897.0</ele>
        <time>2010-08-26T18:40:24Z</time>
      </trkpt>
      <trkpt lat="41.842650" lon="-8.071233">
        <ele>897.0</ele>
        <time>2010-08-26T18:40:25Z</time>
      </trkpt>
      <trkpt lat="41.842667" lon="-8.071283">
        <ele>897.0</ele>
        <time>2010-08-26T18:40:26Z</time>
      </trkpt>
      <trkpt lat="41.842667" lon="-8.071333">
        <ele>897.0</ele>
        <time>2010-08-26T18:40:27Z</time>
      </trkpt>
      <trkpt lat="41.842667" lon="-8.071383">
        <ele>897.0</ele>
        <time>2010-08-26T18:40:28Z</time>
      </trkpt>
      <trkpt lat="41.842683" lon="-8.071433">
        <ele>897.0</ele>
        <time>2010-08-26T18:40:29Z</time>
      </trkpt>
      <trkpt lat="41.842700" lon="-8.071500">
        <ele>897.0</ele>
        <time>2010-08-26T18:40:30Z</time>
      </trkpt>
      <trkpt lat="41.842733" lon="-8.071567">
        <ele>896.0</ele>
        <time>2010-08-26T18:40:31Z</time>
      </trkpt>
      <trkpt lat="41.842750" lon="-8.071633">
        <ele>896.0</ele>
        <time>2010-08-26T18:40:32Z</time>
      </trkpt>
      <trkpt lat="41.842783" lon="-8.071683">
        <ele>896.0</ele>
        <time>2010-08-26T18:40:33Z</time>
      </trkpt>
      <trkpt lat="41.842800" lon="-8.071733">
        <ele>896.0</ele>
        <time>2010-08-26T18:40:34Z</time>
      </trkpt>
      <trkpt lat="41.842833" lon="-8.071783">
        <ele>896.0</ele>
        <time>2010-08-26T18:40:35Z</time>
      </trkpt>
      <trkpt lat="41.842850" lon="-8.071833">
        <ele>896.0</ele>
        <time>2010-08-26T18:40:36Z</time>
      </trkpt>
      <trkpt lat="41.842883" lon="-8.071867">
        <ele>896.0</ele>
        <time>2010-08-26T18:40:37Z</time>
      </trkpt>
      <trkpt lat="41.842900" lon="-8.071883">
        <ele>896.0</ele>
        <time>2010-08-26T18:40:38Z</time>
      </trkpt>
      <trkpt lat="41.842933" lon="-8.071900">
        <ele>896.0</ele>
        <time>2010-08-26T18:40:39Z</time>
      </trkpt>
      <trkpt lat="41.842950" lon="-8.071917">
        <ele>896.0</ele>
        <time>2010-08-26T18:40:40Z</time>
      </trkpt>
      <trkpt lat="41.842983" lon="-8.071933">
        <ele>896.0</ele>
        <time>2010-08-26T18:40:41Z</time>
      </trkpt>
      <trkpt lat="41.843017" lon="-8.071950">
        <ele>897.0</ele>
        <time>2010-08-26T18:40:42Z</time>
      </trkpt>
      <trkpt lat="41.843033" lon="-8.071967">
        <ele>897.0</ele>
        <time>2010-08-26T18:40:43Z</time>
      </trkpt>
      <trkpt lat="41.843050" lon="-8.072000">
        <ele>897.0</ele>
        <time>2010-08-26T18:40:44Z</time>
      </trkpt>
      <trkpt lat="41.843083" lon="-8.072000">
        <ele>897.0</ele>
        <time>2010-08-26T18:40:45Z</time>
      </trkpt>
      <trkpt lat="41.843100" lon="-8.072017">
        <ele>898.0</ele>
        <time>2010-08-26T18:40:46Z</time>
      </trkpt>
      <trkpt lat="41.843117" lon="-8.072033">
        <ele>898.0</ele>
        <time>2010-08-26T18:40:47Z</time>
      </trkpt>
      <trkpt lat="41.843150" lon="-8.072050">
        <ele>898.0</ele>
        <time>2010-08-26T18:40:48Z</time>
      </trkpt>
      <trkpt lat="41.843167" lon="-8.072067">
        <ele>898.0</ele>
        <time>2010-08-26T18:40:49Z</time>
      </trkpt>
      <trkpt lat="41.843183" lon="-8.072067">
        <ele>898.0</ele>
        <time>2010-08-26T18:40:50Z</time>
      </trkpt>
      <trkpt lat="41.843217" lon="-8.072083">
        <ele>898.0</ele>
        <time>2010-08-26T18:40:51Z</time>
      </trkpt>
      <trkpt lat="41.843233" lon="-8.072100">
        <ele>898.0</ele>
        <time>2010-08-26T18:40:52Z</time>
      </trkpt>
      <trkpt lat="41.843267" lon="-8.072117">
        <ele>898.0</ele>
        <time>2010-08-26T18:40:53Z</time>
      </trkpt>
      <trkpt lat="41.843300" lon="-8.072133">
        <ele>897.0</ele>
        <time>2010-08-26T18:40:54Z</time>
      </trkpt>
      <trkpt lat="41.843333" lon="-8.072150">
        <ele>897.0</ele>
        <time>2010-08-26T18:40:55Z</time>
      </trkpt>
      <trkpt lat="41.843367" lon="-8.072167">
        <ele>897.0</ele>
        <time>2010-08-26T18:40:56Z</time>
      </trkpt>
      <trkpt lat="41.843400" lon="-8.072183">
        <ele>897.0</ele>
        <time>2010-08-26T18:40:57Z</time>
      </trkpt>
      <trkpt lat="41.843450" lon="-8.072200">
        <ele>896.0</ele>
        <time>2010-08-26T18:40:58Z</time>
      </trkpt>
      <trkpt lat="41.843483" lon="-8.072217">
        <ele>896.0</ele>
        <time>2010-08-26T18:40:59Z</time>
      </trkpt>
      <trkpt lat="41.843517" lon="-8.072233">
        <ele>896.0</ele>
        <time>2010-08-26T18:41:00Z</time>
      </trkpt>
      <trkpt lat="41.843533" lon="-8.072250">
        <ele>896.0</ele>
        <time>2010-08-26T18:41:01Z</time>
      </trkpt>
      <trkpt lat="41.843567" lon="-8.072267">
        <ele>896.0</ele>
        <time>2010-08-26T18:41:02Z</time>
      </trkpt>
      <trkpt lat="41.843583" lon="-8.072283">
        <ele>896.0</ele>
        <time>2010-08-26T18:41:03Z</time>
      </trkpt>
      <trkpt lat="41.843633" lon="-8.072300">
        <ele>897.0</ele>
        <time>2010-08-26T18:41:05Z</time>
      </trkpt>
      <trkpt lat="41.843650" lon="-8.072317">
        <ele>897.0</ele>
        <time>2010-08-26T18:41:06Z</time>
      </trkpt>
      <trkpt lat="41.843667" lon="-8.072350">
        <ele>897.0</ele>
        <time>2010-08-26T18:41:07Z</time>
      </trkpt>
      <trkpt lat="41.843683" lon="-8.072367">
        <ele>897.0</ele>
        <time>2010-08-26T18:41:08Z</time>
      </trkpt>
      <trkpt lat="41.843700" lon="-8.072383">
        <ele>897.0</ele>
        <time>2010-08-26T18:41:09Z</time>
      </trkpt>
      <trkpt lat="41.843733" lon="-8.072417">
        <ele>897.0</ele>
        <time>2010-08-26T18:41:10Z</time>
      </trkpt>
      <trkpt lat="41.843750" lon="-8.072433">
        <ele>898.0</ele>
        <time>2010-08-26T18:41:11Z</time>
      </trkpt>
      <trkpt lat="41.843783" lon="-8.072450">
        <ele>898.0</ele>
        <time>2010-08-26T18:41:12Z</time>
      </trkpt>
      <trkpt lat="41.843800" lon="-8.072483">
        <ele>898.0</ele>
        <time>2010-08-26T18:41:13Z</time>
      </trkpt>
      <trkpt lat="41.843817" lon="-8.072500">
        <ele>897.0</ele>
        <time>2010-08-26T18:41:14Z</time>
      </trkpt>
      <trkpt lat="41.843850" lon="-8.072533">
        <ele>897.0</ele>
        <time>2010-08-26T18:41:15Z</time>
      </trkpt>
      <trkpt lat="41.843867" lon="-8.072550">
        <ele>897.0</ele>
        <time>2010-08-26T18:41:16Z</time>
      </trkpt>
      <trkpt lat="41.843883" lon="-8.072583">
        <ele>897.0</ele>
        <time>2010-08-26T18:41:17Z</time>
      </trkpt>
      <trkpt lat="41.843917" lon="-8.072617">
        <ele>897.0</ele>
        <time>2010-08-26T18:41:18Z</time>
      </trkpt>
      <trkpt lat="41.843933" lon="-8.072633">
        <ele>897.0</ele>
        <time>2010-08-26T18:41:19Z</time>
      </trkpt>
      <trkpt lat="41.843967" lon="-8.072667">
        <ele>896.0</ele>
        <time>2010-08-26T18:41:20Z</time>
      </trkpt>
      <trkpt lat="41.844000" lon="-8.072683">
        <ele>896.0</ele>
        <time>2010-08-26T18:41:21Z</time>
      </trkpt>
      <trkpt lat="41.844033" lon="-8.072717">
        <ele>895.0</ele>
        <time>2010-08-26T18:41:22Z</time>
      </trkpt>
      <trkpt lat="41.844067" lon="-8.072733">
        <ele>895.0</ele>
        <time>2010-08-26T18:41:23Z</time>
      </trkpt>
      <trkpt lat="41.844100" lon="-8.072750">
        <ele>895.0</ele>
        <time>2010-08-26T18:41:24Z</time>
      </trkpt>
      <trkpt lat="41.844117" lon="-8.072783">
        <ele>895.0</ele>
        <time>2010-08-26T18:41:25Z</time>
      </trkpt>
      <trkpt lat="41.844150" lon="-8.072800">
        <ele>894.0</ele>
        <time>2010-08-26T18:41:26Z</time>
      </trkpt>
      <trkpt lat="41.844183" lon="-8.072817">
        <ele>894.0</ele>
        <time>2010-08-26T18:41:27Z</time>
      </trkpt>
      <trkpt lat="41.844217" lon="-8.072833">
        <ele>894.0</ele>
        <time>2010-08-26T18:41:28Z</time>
      </trkpt>
      <trkpt lat="41.844250" lon="-8.072867">
        <ele>894.0</ele>
        <time>2010-08-26T18:41:29Z</time>
      </trkpt>
      <trkpt lat="41.844283" lon="-8.072900">
        <ele>894.0</ele>
        <time>2010-08-26T18:41:30Z</time>
      </trkpt>
      <trkpt lat="41.844317" lon="-8.072917">
        <ele>894.0</ele>
        <time>2010-08-26T18:41:31Z</time>
      </trkpt>
      <trkpt lat="41.844350" lon="-8.072950">
        <ele>893.0</ele>
        <time>2010-08-26T18:41:32Z</time>
      </trkpt>
      <trkpt lat="41.844383" lon="-8.072983">
        <ele>893.0</ele>
        <time>2010-08-26T18:41:33Z</time>
      </trkpt>
      <trkpt lat="41.844417" lon="-8.073017">
        <ele>893.0</ele>
        <time>2010-08-26T18:41:34Z</time>
      </trkpt>
      <trkpt lat="41.844433" lon="-8.073033">
        <ele>893.0</ele>
        <time>2010-08-26T18:41:35Z</time>
      </trkpt>
      <trkpt lat="41.844467" lon="-8.073067">
        <ele>893.0</ele>
        <time>2010-08-26T18:41:36Z</time>
      </trkpt>
      <trkpt lat="41.844500" lon="-8.073100">
        <ele>892.0</ele>
        <time>2010-08-26T18:41:37Z</time>
      </trkpt>
      <trkpt lat="41.844533" lon="-8.073117">
        <ele>892.0</ele>
        <time>2010-08-26T18:41:38Z</time>
      </trkpt>
      <trkpt lat="41.844567" lon="-8.073117">
        <ele>892.0</ele>
        <time>2010-08-26T18:41:39Z</time>
      </trkpt>
      <trkpt lat="41.844600" lon="-8.073133">
        <ele>891.0</ele>
        <time>2010-08-26T18:41:40Z</time>
      </trkpt>
      <trkpt lat="41.844633" lon="-8.073150">
        <ele>891.0</ele>
        <time>2010-08-26T18:41:41Z</time>
      </trkpt>
      <trkpt lat="41.844667" lon="-8.073167">
        <ele>891.0</ele>
        <time>2010-08-26T18:41:42Z</time>
      </trkpt>
      <trkpt lat="41.844700" lon="-8.073183">
        <ele>891.0</ele>
        <time>2010-08-26T18:41:43Z</time>
      </trkpt>
      <trkpt lat="41.844733" lon="-8.073200">
        <ele>890.0</ele>
        <time>2010-08-26T18:41:44Z</time>
      </trkpt>
      <trkpt lat="41.844750" lon="-8.073217">
        <ele>890.0</ele>
        <time>2010-08-26T18:41:45Z</time>
      </trkpt>
      <trkpt lat="41.844783" lon="-8.073233">
        <ele>890.0</ele>
        <time>2010-08-26T18:41:46Z</time>
      </trkpt>
      <trkpt lat="41.844800" lon="-8.073250">
        <ele>889.0</ele>
        <time>2010-08-26T18:41:47Z</time>
      </trkpt>
      <trkpt lat="41.844833" lon="-8.073267">
        <ele>889.0</ele>
        <time>2010-08-26T18:41:48Z</time>
      </trkpt>
      <trkpt lat="41.844867" lon="-8.073300">
        <ele>888.0</ele>
        <time>2010-08-26T18:41:49Z</time>
      </trkpt>
      <trkpt lat="41.844900" lon="-8.073317">
        <ele>888.0</ele>
        <time>2010-08-26T18:41:50Z</time>
      </trkpt>
      <trkpt lat="41.844933" lon="-8.073333">
        <ele>887.0</ele>
        <time>2010-08-26T18:41:51Z</time>
      </trkpt>
      <trkpt lat="41.844967" lon="-8.073350">
        <ele>887.0</ele>
        <time>2010-08-26T18:41:52Z</time>
      </trkpt>
      <trkpt lat="41.844983" lon="-8.073367">
        <ele>886.0</ele>
        <time>2010-08-26T18:41:53Z</time>
      </trkpt>
      <trkpt lat="41.845017" lon="-8.073383">
        <ele>886.0</ele>
        <time>2010-08-26T18:41:54Z</time>
      </trkpt>
      <trkpt lat="41.845050" lon="-8.073400">
        <ele>885.0</ele>
        <time>2010-08-26T18:41:55Z</time>
      </trkpt>
      <trkpt lat="41.845083" lon="-8.073417">
        <ele>885.0</ele>
        <time>2010-08-26T18:41:56Z</time>
      </trkpt>
      <trkpt lat="41.845117" lon="-8.073433">
        <ele>884.0</ele>
        <time>2010-08-26T18:41:57Z</time>
      </trkpt>
      <trkpt lat="41.845150" lon="-8.073450">
        <ele>884.0</ele>
        <time>2010-08-26T18:41:58Z</time>
      </trkpt>
      <trkpt lat="41.845200" lon="-8.073467">
        <ele>884.0</ele>
        <time>2010-08-26T18:41:59Z</time>
      </trkpt>
      <trkpt lat="41.845233" lon="-8.073500">
        <ele>883.0</ele>
        <time>2010-08-26T18:42:00Z</time>
      </trkpt>
      <trkpt lat="41.845267" lon="-8.073533">
        <ele>883.0</ele>
        <time>2010-08-26T18:42:01Z</time>
      </trkpt>
      <trkpt lat="41.845300" lon="-8.073550">
        <ele>882.0</ele>
        <time>2010-08-26T18:42:02Z</time>
      </trkpt>
      <trkpt lat="41.845333" lon="-8.073583">
        <ele>882.0</ele>
        <time>2010-08-26T18:42:03Z</time>
      </trkpt>
      <trkpt lat="41.845350" lon="-8.073617">
        <ele>882.0</ele>
        <time>2010-08-26T18:42:04Z</time>
      </trkpt>
      <trkpt lat="41.845383" lon="-8.073633">
        <ele>881.0</ele>
        <time>2010-08-26T18:42:05Z</time>
      </trkpt>
      <trkpt lat="41.845417" lon="-8.073650">
        <ele>881.0</ele>
        <time>2010-08-26T18:42:06Z</time>
      </trkpt>
      <trkpt lat="41.845450" lon="-8.073667">
        <ele>881.0</ele>
        <time>2010-08-26T18:42:07Z</time>
      </trkpt>
      <trkpt lat="41.845483" lon="-8.073700">
        <ele>880.0</ele>
        <time>2010-08-26T18:42:08Z</time>
      </trkpt>
      <trkpt lat="41.845500" lon="-8.073717">
        <ele>880.0</ele>
        <time>2010-08-26T18:42:09Z</time>
      </trkpt>
      <trkpt lat="41.845533" lon="-8.073750">
        <ele>879.0</ele>
        <time>2010-08-26T18:42:10Z</time>
      </trkpt>
      <trkpt lat="41.845583" lon="-8.073767">
        <ele>879.0</ele>
        <time>2010-08-26T18:42:11Z</time>
      </trkpt>
      <trkpt lat="41.845617" lon="-8.073817">
        <ele>879.0</ele>
        <time>2010-08-26T18:42:12Z</time>
      </trkpt>
      <trkpt lat="41.845650" lon="-8.073833">
        <ele>878.0</ele>
        <time>2010-08-26T18:42:13Z</time>
      </trkpt>
      <trkpt lat="41.845683" lon="-8.073867">
        <ele>878.0</ele>
        <time>2010-08-26T18:42:14Z</time>
      </trkpt>
      <trkpt lat="41.845717" lon="-8.073900">
        <ele>878.0</ele>
        <time>2010-08-26T18:42:15Z</time>
      </trkpt>
      <trkpt lat="41.845750" lon="-8.073917">
        <ele>878.0</ele>
        <time>2010-08-26T18:42:16Z</time>
      </trkpt>
      <trkpt lat="41.845783" lon="-8.073933">
        <ele>878.0</ele>
        <time>2010-08-26T18:42:17Z</time>
      </trkpt>
      <trkpt lat="41.845817" lon="-8.073950">
        <ele>877.0</ele>
        <time>2010-08-26T18:42:18Z</time>
      </trkpt>
      <trkpt lat="41.845850" lon="-8.073967">
        <ele>877.0</ele>
        <time>2010-08-26T18:42:19Z</time>
      </trkpt>
      <trkpt lat="41.845883" lon="-8.073983">
        <ele>877.0</ele>
        <time>2010-08-26T18:42:20Z</time>
      </trkpt>
      <trkpt lat="41.845933" lon="-8.074000">
        <ele>877.0</ele>
        <time>2010-08-26T18:42:21Z</time>
      </trkpt>
      <trkpt lat="41.845967" lon="-8.074000">
        <ele>877.0</ele>
        <time>2010-08-26T18:42:22Z</time>
      </trkpt>
      <trkpt lat="41.846000" lon="-8.074017">
        <ele>876.0</ele>
        <time>2010-08-26T18:42:23Z</time>
      </trkpt>
      <trkpt lat="41.846050" lon="-8.074017">
        <ele>876.0</ele>
        <time>2010-08-26T18:42:24Z</time>
      </trkpt>
      <trkpt lat="41.846083" lon="-8.074000">
        <ele>876.0</ele>
        <time>2010-08-26T18:42:25Z</time>
      </trkpt>
      <trkpt lat="41.846117" lon="-8.073983">
        <ele>876.0</ele>
        <time>2010-08-26T18:42:26Z</time>
      </trkpt>
      <trkpt lat="41.846167" lon="-8.073967">
        <ele>876.0</ele>
        <time>2010-08-26T18:42:27Z</time>
      </trkpt>
      <trkpt lat="41.846200" lon="-8.073950">
        <ele>875.0</ele>
        <time>2010-08-26T18:42:28Z</time>
      </trkpt>
      <trkpt lat="41.846233" lon="-8.073917">
        <ele>875.0</ele>
        <time>2010-08-26T18:42:29Z</time>
      </trkpt>
      <trkpt lat="41.846267" lon="-8.073900">
        <ele>875.0</ele>
        <time>2010-08-26T18:42:30Z</time>
      </trkpt>
      <trkpt lat="41.846300" lon="-8.073867">
        <ele>874.0</ele>
        <time>2010-08-26T18:42:31Z</time>
      </trkpt>
      <trkpt lat="41.846317" lon="-8.073833">
        <ele>874.0</ele>
        <time>2010-08-26T18:42:32Z</time>
      </trkpt>
      <trkpt lat="41.846317" lon="-8.073783">
        <ele>874.0</ele>
        <time>2010-08-26T18:42:33Z</time>
      </trkpt>
      <trkpt lat="41.846333" lon="-8.073733">
        <ele>873.0</ele>
        <time>2010-08-26T18:42:34Z</time>
      </trkpt>
      <trkpt lat="41.846350" lon="-8.073700">
        <ele>873.0</ele>
        <time>2010-08-26T18:42:35Z</time>
      </trkpt>
      <trkpt lat="41.846350" lon="-8.073650">
        <ele>873.0</ele>
        <time>2010-08-26T18:42:37Z</time>
      </trkpt>
      <trkpt lat="41.846383" lon="-8.073600">
        <ele>872.0</ele>
        <time>2010-08-26T18:42:43Z</time>
      </trkpt>
      <trkpt lat="41.846417" lon="-8.073600">
        <ele>872.0</ele>
        <time>2010-08-26T18:42:51Z</time>
      </trkpt>
      <trkpt lat="41.846467" lon="-8.073617">
        <ele>872.0</ele>
        <time>2010-08-26T18:42:56Z</time>
      </trkpt>
      <trkpt lat="41.846483" lon="-8.073667">
        <ele>872.0</ele>
        <time>2010-08-26T18:43:00Z</time>
      </trkpt>
      <trkpt lat="41.846517" lon="-8.073717">
        <ele>873.0</ele>
        <time>2010-08-26T18:43:05Z</time>
      </trkpt>
      <trkpt lat="41.846533" lon="-8.073767">
        <ele>874.0</ele>
        <time>2010-08-26T18:43:30Z</time>
      </trkpt>
      <trkpt lat="41.846550" lon="-8.073817">
        <ele>875.0</ele>
        <time>2010-08-26T18:43:33Z</time>
      </trkpt>
      <trkpt lat="41.846550" lon="-8.073850">
        <ele>875.0</ele>
        <time>2010-08-26T18:43:35Z</time>
      </trkpt>
      <trkpt lat="41.846533" lon="-8.073917">
        <ele>875.0</ele>
        <time>2010-08-26T18:43:42Z</time>
      </trkpt>
      <trkpt lat="41.846533" lon="-8.073950">
        <ele>875.0</ele>
        <time>2010-08-26T18:43:44Z</time>
      </trkpt>
      <trkpt lat="41.846550" lon="-8.073983">
        <ele>875.0</ele>
        <time>2010-08-26T18:43:45Z</time>
      </trkpt>
      <trkpt lat="41.846550" lon="-8.074017">
        <ele>875.0</ele>
        <time>2010-08-26T18:43:46Z</time>
      </trkpt>
      <trkpt lat="41.846550" lon="-8.074050">
        <ele>875.0</ele>
        <time>2010-08-26T18:43:47Z</time>
      </trkpt>
      <trkpt lat="41.846567" lon="-8.074100">
        <ele>874.0</ele>
        <time>2010-08-26T18:43:48Z</time>
      </trkpt>
      <trkpt lat="41.846567" lon="-8.074133">
        <ele>873.0</ele>
        <time>2010-08-26T18:43:49Z</time>
      </trkpt>
      <trkpt lat="41.846583" lon="-8.074167">
        <ele>873.0</ele>
        <time>2010-08-26T18:43:50Z</time>
      </trkpt>
      <trkpt lat="41.846600" lon="-8.074200">
        <ele>872.0</ele>
        <time>2010-08-26T18:43:51Z</time>
      </trkpt>
      <trkpt lat="41.846600" lon="-8.074250">
        <ele>871.0</ele>
        <time>2010-08-26T18:43:52Z</time>
      </trkpt>
      <trkpt lat="41.846600" lon="-8.074283">
        <ele>871.0</ele>
        <time>2010-08-26T18:43:53Z</time>
      </trkpt>
      <trkpt lat="41.846617" lon="-8.074317">
        <ele>870.0</ele>
        <time>2010-08-26T18:43:54Z</time>
      </trkpt>
      <trkpt lat="41.846617" lon="-8.074350">
        <ele>869.0</ele>
        <time>2010-08-26T18:43:55Z</time>
      </trkpt>
      <trkpt lat="41.846633" lon="-8.074383">
        <ele>869.0</ele>
        <time>2010-08-26T18:43:56Z</time>
      </trkpt>
      <trkpt lat="41.846667" lon="-8.074417">
        <ele>868.0</ele>
        <time>2010-08-26T18:43:57Z</time>
      </trkpt>
      <trkpt lat="41.846683" lon="-8.074450">
        <ele>868.0</ele>
        <time>2010-08-26T18:43:58Z</time>
      </trkpt>
      <trkpt lat="41.846700" lon="-8.074467">
        <ele>867.0</ele>
        <time>2010-08-26T18:43:59Z</time>
      </trkpt>
      <trkpt lat="41.846717" lon="-8.074483">
        <ele>867.0</ele>
        <time>2010-08-26T18:44:00Z</time>
      </trkpt>
      <trkpt lat="41.846733" lon="-8.074517">
        <ele>866.0</ele>
        <time>2010-08-26T18:44:01Z</time>
      </trkpt>
      <trkpt lat="41.846767" lon="-8.074533">
        <ele>866.0</ele>
        <time>2010-08-26T18:44:02Z</time>
      </trkpt>
      <trkpt lat="41.846783" lon="-8.074550">
        <ele>865.0</ele>
        <time>2010-08-26T18:44:03Z</time>
      </trkpt>
      <trkpt lat="41.846817" lon="-8.074583">
        <ele>865.0</ele>
        <time>2010-08-26T18:44:04Z</time>
      </trkpt>
      <trkpt lat="41.846833" lon="-8.074600">
        <ele>865.0</ele>
        <time>2010-08-26T18:44:05Z</time>
      </trkpt>
      <trkpt lat="41.846850" lon="-8.074650">
        <ele>864.0</ele>
        <time>2010-08-26T18:44:07Z</time>
      </trkpt>
      <trkpt lat="41.846883" lon="-8.074667">
        <ele>864.0</ele>
        <time>2010-08-26T18:44:08Z</time>
      </trkpt>
      <trkpt lat="41.846900" lon="-8.074683">
        <ele>863.0</ele>
        <time>2010-08-26T18:44:09Z</time>
      </trkpt>
      <trkpt lat="41.846933" lon="-8.074700">
        <ele>863.0</ele>
        <time>2010-08-26T18:44:10Z</time>
      </trkpt>
      <trkpt lat="41.846950" lon="-8.074717">
        <ele>863.0</ele>
        <time>2010-08-26T18:44:11Z</time>
      </trkpt>
      <trkpt lat="41.846983" lon="-8.074717">
        <ele>863.0</ele>
        <time>2010-08-26T18:44:12Z</time>
      </trkpt>
      <trkpt lat="41.847017" lon="-8.074733">
        <ele>862.0</ele>
        <time>2010-08-26T18:44:13Z</time>
      </trkpt>
      <trkpt lat="41.847033" lon="-8.074750">
        <ele>862.0</ele>
        <time>2010-08-26T18:44:14Z</time>
      </trkpt>
      <trkpt lat="41.847067" lon="-8.074767">
        <ele>862.0</ele>
        <time>2010-08-26T18:44:15Z</time>
      </trkpt>
      <trkpt lat="41.847083" lon="-8.074783">
        <ele>861.0</ele>
        <time>2010-08-26T18:44:16Z</time>
      </trkpt>
      <trkpt lat="41.847117" lon="-8.074817">
        <ele>861.0</ele>
        <time>2010-08-26T18:44:17Z</time>
      </trkpt>
      <trkpt lat="41.847133" lon="-8.074833">
        <ele>860.0</ele>
        <time>2010-08-26T18:44:18Z</time>
      </trkpt>
      <trkpt lat="41.847167" lon="-8.074850">
        <ele>859.0</ele>
        <time>2010-08-26T18:44:19Z</time>
      </trkpt>
      <trkpt lat="41.847183" lon="-8.074867">
        <ele>859.0</ele>
        <time>2010-08-26T18:44:20Z</time>
      </trkpt>
      <trkpt lat="41.847217" lon="-8.074883">
        <ele>858.0</ele>
        <time>2010-08-26T18:44:21Z</time>
      </trkpt>
      <trkpt lat="41.847250" lon="-8.074900">
        <ele>858.0</ele>
        <time>2010-08-26T18:44:22Z</time>
      </trkpt>
      <trkpt lat="41.847267" lon="-8.074917">
        <ele>857.0</ele>
        <time>2010-08-26T18:44:23Z</time>
      </trkpt>
      <trkpt lat="41.847283" lon="-8.074917">
        <ele>857.0</ele>
        <time>2010-08-26T18:44:24Z</time>
      </trkpt>
      <trkpt lat="41.847317" lon="-8.074933">
        <ele>857.0</ele>
        <time>2010-08-26T18:44:25Z</time>
      </trkpt>
      <trkpt lat="41.847333" lon="-8.074950">
        <ele>856.0</ele>
        <time>2010-08-26T18:44:26Z</time>
      </trkpt>
      <trkpt lat="41.847350" lon="-8.074967">
        <ele>856.0</ele>
        <time>2010-08-26T18:44:27Z</time>
      </trkpt>
      <trkpt lat="41.847383" lon="-8.074967">
        <ele>855.0</ele>
        <time>2010-08-26T18:44:28Z</time>
      </trkpt>
      <trkpt lat="41.847400" lon="-8.074983">
        <ele>855.0</ele>
        <time>2010-08-26T18:44:29Z</time>
      </trkpt>
      <trkpt lat="41.847433" lon="-8.075000">
        <ele>854.0</ele>
        <time>2010-08-26T18:44:30Z</time>
      </trkpt>
      <trkpt lat="41.847450" lon="-8.075000">
        <ele>854.0</ele>
        <time>2010-08-26T18:44:31Z</time>
      </trkpt>
      <trkpt lat="41.847467" lon="-8.075017">
        <ele>853.0</ele>
        <time>2010-08-26T18:44:32Z</time>
      </trkpt>
      <trkpt lat="41.847500" lon="-8.075033">
        <ele>853.0</ele>
        <time>2010-08-26T18:44:33Z</time>
      </trkpt>
      <trkpt lat="41.847517" lon="-8.075033">
        <ele>853.0</ele>
        <time>2010-08-26T18:44:34Z</time>
      </trkpt>
      <trkpt lat="41.847550" lon="-8.075050">
        <ele>852.0</ele>
        <time>2010-08-26T18:44:35Z</time>
      </trkpt>
      <trkpt lat="41.847583" lon="-8.075067">
        <ele>852.0</ele>
        <time>2010-08-26T18:44:36Z</time>
      </trkpt>
      <trkpt lat="41.847617" lon="-8.075083">
        <ele>851.0</ele>
        <time>2010-08-26T18:44:37Z</time>
      </trkpt>
      <trkpt lat="41.847633" lon="-8.075100">
        <ele>851.0</ele>
        <time>2010-08-26T18:44:38Z</time>
      </trkpt>
      <trkpt lat="41.847667" lon="-8.075117">
        <ele>850.0</ele>
        <time>2010-08-26T18:44:39Z</time>
      </trkpt>
      <trkpt lat="41.847700" lon="-8.075117">
        <ele>849.0</ele>
        <time>2010-08-26T18:44:40Z</time>
      </trkpt>
      <trkpt lat="41.847733" lon="-8.075117">
        <ele>849.0</ele>
        <time>2010-08-26T18:44:41Z</time>
      </trkpt>
      <trkpt lat="41.847783" lon="-8.075133">
        <ele>848.0</ele>
        <time>2010-08-26T18:44:42Z</time>
      </trkpt>
      <trkpt lat="41.847817" lon="-8.075150">
        <ele>848.0</ele>
        <time>2010-08-26T18:44:43Z</time>
      </trkpt>
      <trkpt lat="41.847850" lon="-8.075167">
        <ele>847.0</ele>
        <time>2010-08-26T18:44:44Z</time>
      </trkpt>
      <trkpt lat="41.847883" lon="-8.075183">
        <ele>846.0</ele>
        <time>2010-08-26T18:44:45Z</time>
      </trkpt>
      <trkpt lat="41.847917" lon="-8.075183">
        <ele>846.0</ele>
        <time>2010-08-26T18:44:46Z</time>
      </trkpt>
      <trkpt lat="41.847950" lon="-8.075217">
        <ele>845.0</ele>
        <time>2010-08-26T18:44:47Z</time>
      </trkpt>
      <trkpt lat="41.847983" lon="-8.075233">
        <ele>845.0</ele>
        <time>2010-08-26T18:44:48Z</time>
      </trkpt>
      <trkpt lat="41.848000" lon="-8.075250">
        <ele>845.0</ele>
        <time>2010-08-26T18:44:49Z</time>
      </trkpt>
      <trkpt lat="41.848050" lon="-8.075250">
        <ele>842.0</ele>
        <time>2010-08-26T18:45:02Z</time>
      </trkpt>
      <trkpt lat="41.848083" lon="-8.075250">
        <ele>842.0</ele>
        <time>2010-08-26T18:45:05Z</time>
      </trkpt>
      <trkpt lat="41.848117" lon="-8.075250">
        <ele>841.0</ele>
        <time>2010-08-26T18:45:12Z</time>
      </trkpt>
      <trkpt lat="41.848150" lon="-8.075250">
        <ele>841.0</ele>
        <time>2010-08-26T18:45:14Z</time>
      </trkpt>
      <trkpt lat="41.848167" lon="-8.075267">
        <ele>841.0</ele>
        <time>2010-08-26T18:45:15Z</time>
      </trkpt>
      <trkpt lat="41.848200" lon="-8.075267">
        <ele>841.0</ele>
        <time>2010-08-26T18:45:16Z</time>
      </trkpt>
      <trkpt lat="41.848233" lon="-8.075250">
        <ele>840.0</ele>
        <time>2010-08-26T18:45:18Z</time>
      </trkpt>
      <trkpt lat="41.848267" lon="-8.075233">
        <ele>839.0</ele>
        <time>2010-08-26T18:45:20Z</time>
      </trkpt>
      <trkpt lat="41.848300" lon="-8.075200">
        <ele>839.0</ele>
        <time>2010-08-26T18:45:22Z</time>
      </trkpt>
      <trkpt lat="41.848333" lon="-8.075200">
        <ele>838.0</ele>
        <time>2010-08-26T18:45:24Z</time>
      </trkpt>
      <trkpt lat="41.848383" lon="-8.075183">
        <ele>838.0</ele>
        <time>2010-08-26T18:45:26Z</time>
      </trkpt>
      <trkpt lat="41.848400" lon="-8.075183">
        <ele>837.0</ele>
        <time>2010-08-26T18:45:27Z</time>
      </trkpt>
      <trkpt lat="41.848433" lon="-8.075183">
        <ele>837.0</ele>
        <time>2010-08-26T18:45:28Z</time>
      </trkpt>
      <trkpt lat="41.848450" lon="-8.075200">
        <ele>837.0</ele>
        <time>2010-08-26T18:45:29Z</time>
      </trkpt>
      <trkpt lat="41.848467" lon="-8.075217">
        <ele>836.0</ele>
        <time>2010-08-26T18:45:30Z</time>
      </trkpt>
      <trkpt lat="41.848500" lon="-8.075233">
        <ele>836.0</ele>
        <time>2010-08-26T18:45:31Z</time>
      </trkpt>
      <trkpt lat="41.848517" lon="-8.075250">
        <ele>836.0</ele>
        <time>2010-08-26T18:45:32Z</time>
      </trkpt>
      <trkpt lat="41.848550" lon="-8.075267">
        <ele>835.0</ele>
        <time>2010-08-26T18:45:33Z</time>
      </trkpt>
      <trkpt lat="41.848567" lon="-8.075283">
        <ele>835.0</ele>
        <time>2010-08-26T18:45:34Z</time>
      </trkpt>
      <trkpt lat="41.848600" lon="-8.075300">
        <ele>835.0</ele>
        <time>2010-08-26T18:45:35Z</time>
      </trkpt>
      <trkpt lat="41.848633" lon="-8.075317">
        <ele>834.0</ele>
        <time>2010-08-26T18:45:36Z</time>
      </trkpt>
      <trkpt lat="41.848667" lon="-8.075333">
        <ele>834.0</ele>
        <time>2010-08-26T18:45:37Z</time>
      </trkpt>
      <trkpt lat="41.848683" lon="-8.075350">
        <ele>833.0</ele>
        <time>2010-08-26T18:45:38Z</time>
      </trkpt>
      <trkpt lat="41.848717" lon="-8.075367">
        <ele>833.0</ele>
        <time>2010-08-26T18:45:39Z</time>
      </trkpt>
      <trkpt lat="41.848733" lon="-8.075367">
        <ele>833.0</ele>
        <time>2010-08-26T18:45:40Z</time>
      </trkpt>
      <trkpt lat="41.848767" lon="-8.075383">
        <ele>832.0</ele>
        <time>2010-08-26T18:45:41Z</time>
      </trkpt>
      <trkpt lat="41.848800" lon="-8.075400">
        <ele>832.0</ele>
        <time>2010-08-26T18:45:42Z</time>
      </trkpt>
      <trkpt lat="41.848817" lon="-8.075433">
        <ele>831.0</ele>
        <time>2010-08-26T18:45:43Z</time>
      </trkpt>
      <trkpt lat="41.848850" lon="-8.075450">
        <ele>831.0</ele>
        <time>2010-08-26T18:45:44Z</time>
      </trkpt>
      <trkpt lat="41.848883" lon="-8.075450">
        <ele>831.0</ele>
        <time>2010-08-26T18:45:45Z</time>
      </trkpt>
      <trkpt lat="41.848917" lon="-8.075467">
        <ele>830.0</ele>
        <time>2010-08-26T18:45:46Z</time>
      </trkpt>
      <trkpt lat="41.848950" lon="-8.075483">
        <ele>830.0</ele>
        <time>2010-08-26T18:45:47Z</time>
      </trkpt>
      <trkpt lat="41.848983" lon="-8.075517">
        <ele>829.0</ele>
        <time>2010-08-26T18:45:48Z</time>
      </trkpt>
      <trkpt lat="41.849033" lon="-8.075517">
        <ele>829.0</ele>
        <time>2010-08-26T18:45:49Z</time>
      </trkpt>
      <trkpt lat="41.849067" lon="-8.075533">
        <ele>828.0</ele>
        <time>2010-08-26T18:45:50Z</time>
      </trkpt>
      <trkpt lat="41.849100" lon="-8.075550">
        <ele>828.0</ele>
        <time>2010-08-26T18:45:51Z</time>
      </trkpt>
      <trkpt lat="41.849150" lon="-8.075550">
        <ele>827.0</ele>
        <time>2010-08-26T18:45:52Z</time>
      </trkpt>
      <trkpt lat="41.849183" lon="-8.075567">
        <ele>827.0</ele>
        <time>2010-08-26T18:45:53Z</time>
      </trkpt>
      <trkpt lat="41.849217" lon="-8.075583">
        <ele>826.0</ele>
        <time>2010-08-26T18:45:54Z</time>
      </trkpt>
      <trkpt lat="41.849250" lon="-8.075583">
        <ele>826.0</ele>
        <time>2010-08-26T18:45:55Z</time>
      </trkpt>
      <trkpt lat="41.849283" lon="-8.075583">
        <ele>825.0</ele>
        <time>2010-08-26T18:45:56Z</time>
      </trkpt>
      <trkpt lat="41.849317" lon="-8.075583">
        <ele>825.0</ele>
        <time>2010-08-26T18:45:57Z</time>
      </trkpt>
      <trkpt lat="41.849367" lon="-8.075583">
        <ele>824.0</ele>
        <time>2010-08-26T18:45:58Z</time>
      </trkpt>
      <trkpt lat="41.849400" lon="-8.075567">
        <ele>824.0</ele>
        <time>2010-08-26T18:45:59Z</time>
      </trkpt>
      <trkpt lat="41.849433" lon="-8.075567">
        <ele>824.0</ele>
        <time>2010-08-26T18:46:00Z</time>
      </trkpt>
      <trkpt lat="41.849467" lon="-8.075567">
        <ele>823.0</ele>
        <time>2010-08-26T18:46:01Z</time>
      </trkpt>
      <trkpt lat="41.849500" lon="-8.075550">
        <ele>823.0</ele>
        <time>2010-08-26T18:46:02Z</time>
      </trkpt>
      <trkpt lat="41.849533" lon="-8.075567">
        <ele>823.0</ele>
        <time>2010-08-26T18:46:03Z</time>
      </trkpt>
      <trkpt lat="41.849583" lon="-8.075583">
        <ele>822.0</ele>
        <time>2010-08-26T18:46:04Z</time>
      </trkpt>
      <trkpt lat="41.849617" lon="-8.075600">
        <ele>822.0</ele>
        <time>2010-08-26T18:46:05Z</time>
      </trkpt>
      <trkpt lat="41.849667" lon="-8.075633">
        <ele>821.0</ele>
        <time>2010-08-26T18:46:06Z</time>
      </trkpt>
      <trkpt lat="41.849700" lon="-8.075667">
        <ele>821.0</ele>
        <time>2010-08-26T18:46:07Z</time>
      </trkpt>
      <trkpt lat="41.849733" lon="-8.075683">
        <ele>820.0</ele>
        <time>2010-08-26T18:46:08Z</time>
      </trkpt>
      <trkpt lat="41.849767" lon="-8.075717">
        <ele>820.0</ele>
        <time>2010-08-26T18:46:09Z</time>
      </trkpt>
      <trkpt lat="41.849800" lon="-8.075750">
        <ele>820.0</ele>
        <time>2010-08-26T18:46:10Z</time>
      </trkpt>
      <trkpt lat="41.849833" lon="-8.075767">
        <ele>819.0</ele>
        <time>2010-08-26T18:46:11Z</time>
      </trkpt>
      <trkpt lat="41.849867" lon="-8.075767">
        <ele>819.0</ele>
        <time>2010-08-26T18:46:12Z</time>
      </trkpt>
      <trkpt lat="41.849900" lon="-8.075783">
        <ele>819.0</ele>
        <time>2010-08-26T18:46:13Z</time>
      </trkpt>
      <trkpt lat="41.849917" lon="-8.075800">
        <ele>818.0</ele>
        <time>2010-08-26T18:46:14Z</time>
      </trkpt>
      <trkpt lat="41.849950" lon="-8.075800">
        <ele>818.0</ele>
        <time>2010-08-26T18:46:15Z</time>
      </trkpt>
      <trkpt lat="41.849967" lon="-8.075800">
        <ele>818.0</ele>
        <time>2010-08-26T18:46:16Z</time>
      </trkpt>
      <trkpt lat="41.850000" lon="-8.075800">
        <ele>817.0</ele>
        <time>2010-08-26T18:46:17Z</time>
      </trkpt>
      <trkpt lat="41.850033" lon="-8.075817">
        <ele>817.0</ele>
        <time>2010-08-26T18:46:18Z</time>
      </trkpt>
      <trkpt lat="41.850050" lon="-8.075817">
        <ele>817.0</ele>
        <time>2010-08-26T18:46:19Z</time>
      </trkpt>
      <trkpt lat="41.850083" lon="-8.075833">
        <ele>816.0</ele>
        <time>2010-08-26T18:46:20Z</time>
      </trkpt>
      <trkpt lat="41.850117" lon="-8.075833">
        <ele>816.0</ele>
        <time>2010-08-26T18:46:21Z</time>
      </trkpt>
      <trkpt lat="41.850133" lon="-8.075850">
        <ele>816.0</ele>
        <time>2010-08-26T18:46:22Z</time>
      </trkpt>
      <trkpt lat="41.850150" lon="-8.075850">
        <ele>815.0</ele>
        <time>2010-08-26T18:46:23Z</time>
      </trkpt>
      <trkpt lat="41.850183" lon="-8.075867">
        <ele>815.0</ele>
        <time>2010-08-26T18:46:24Z</time>
      </trkpt>
      <trkpt lat="41.850217" lon="-8.075867">
        <ele>814.0</ele>
        <time>2010-08-26T18:46:25Z</time>
      </trkpt>
      <trkpt lat="41.850233" lon="-8.075883">
        <ele>814.0</ele>
        <time>2010-08-26T18:46:26Z</time>
      </trkpt>
      <trkpt lat="41.850250" lon="-8.075883">
        <ele>814.0</ele>
        <time>2010-08-26T18:46:27Z</time>
      </trkpt>
      <trkpt lat="41.850283" lon="-8.075900">
        <ele>813.0</ele>
        <time>2010-08-26T18:46:28Z</time>
      </trkpt>
      <trkpt lat="41.850300" lon="-8.075900">
        <ele>813.0</ele>
        <time>2010-08-26T18:46:29Z</time>
      </trkpt>
      <trkpt lat="41.850333" lon="-8.075917">
        <ele>812.0</ele>
        <time>2010-08-26T18:46:30Z</time>
      </trkpt>
      <trkpt lat="41.850350" lon="-8.075917">
        <ele>812.0</ele>
        <time>2010-08-26T18:46:31Z</time>
      </trkpt>
      <trkpt lat="41.850383" lon="-8.075917">
        <ele>812.0</ele>
        <time>2010-08-26T18:46:32Z</time>
      </trkpt>
      <trkpt lat="41.850417" lon="-8.075933">
        <ele>811.0</ele>
        <time>2010-08-26T18:46:33Z</time>
      </trkpt>
      <trkpt lat="41.850450" lon="-8.075933">
        <ele>811.0</ele>
        <time>2010-08-26T18:46:34Z</time>
      </trkpt>
      <trkpt lat="41.850483" lon="-8.075950">
        <ele>810.0</ele>
        <time>2010-08-26T18:46:35Z</time>
      </trkpt>
      <trkpt lat="41.850517" lon="-8.075967">
        <ele>810.0</ele>
        <time>2010-08-26T18:46:36Z</time>
      </trkpt>
      <trkpt lat="41.850567" lon="-8.075983">
        <ele>809.0</ele>
        <time>2010-08-26T18:46:37Z</time>
      </trkpt>
      <trkpt lat="41.850600" lon="-8.075983">
        <ele>808.0</ele>
        <time>2010-08-26T18:46:38Z</time>
      </trkpt>
      <trkpt lat="41.850650" lon="-8.076000">
        <ele>808.0</ele>
        <time>2010-08-26T18:46:39Z</time>
      </trkpt>
      <trkpt lat="41.850717" lon="-8.076017">
        <ele>807.0</ele>
        <time>2010-08-26T18:46:40Z</time>
      </trkpt>
      <trkpt lat="41.850767" lon="-8.076033">
        <ele>807.0</ele>
        <time>2010-08-26T18:46:41Z</time>
      </trkpt>
      <trkpt lat="41.850817" lon="-8.076050">
        <ele>806.0</ele>
        <time>2010-08-26T18:46:42Z</time>
      </trkpt>
      <trkpt lat="41.850850" lon="-8.076050">
        <ele>806.0</ele>
        <time>2010-08-26T18:46:43Z</time>
      </trkpt>
      <trkpt lat="41.850900" lon="-8.076067">
        <ele>805.0</ele>
        <time>2010-08-26T18:46:44Z</time>
      </trkpt>
      <trkpt lat="41.850950" lon="-8.076083">
        <ele>805.0</ele>
        <time>2010-08-26T18:46:45Z</time>
      </trkpt>
      <trkpt lat="41.850983" lon="-8.076100">
        <ele>805.0</ele>
        <time>2010-08-26T18:46:46Z</time>
      </trkpt>
      <trkpt lat="41.851033" lon="-8.076100">
        <ele>805.0</ele>
        <time>2010-08-26T18:46:47Z</time>
      </trkpt>
      <trkpt lat="41.851067" lon="-8.076100">
        <ele>805.0</ele>
        <time>2010-08-26T18:46:48Z</time>
      </trkpt>
      <trkpt lat="41.851100" lon="-8.076100">
        <ele>804.0</ele>
        <time>2010-08-26T18:46:49Z</time>
      </trkpt>
      <trkpt lat="41.851133" lon="-8.076117">
        <ele>804.0</ele>
        <time>2010-08-26T18:46:50Z</time>
      </trkpt>
      <trkpt lat="41.851167" lon="-8.076133">
        <ele>804.0</ele>
        <time>2010-08-26T18:46:51Z</time>
      </trkpt>
      <trkpt lat="41.851200" lon="-8.076133">
        <ele>804.0</ele>
        <time>2010-08-26T18:46:52Z</time>
      </trkpt>
      <trkpt lat="41.851233" lon="-8.076150">
        <ele>804.0</ele>
        <time>2010-08-26T18:46:53Z</time>
      </trkpt>
      <trkpt lat="41.851267" lon="-8.076167">
        <ele>804.0</ele>
        <time>2010-08-26T18:46:54Z</time>
      </trkpt>
      <trkpt lat="41.851300" lon="-8.076183">
        <ele>804.0</ele>
        <time>2010-08-26T18:46:55Z</time>
      </trkpt>
      <trkpt lat="41.851333" lon="-8.076217">
        <ele>804.0</ele>
        <time>2010-08-26T18:46:56Z</time>
      </trkpt>
      <trkpt lat="41.851367" lon="-8.076233">
        <ele>804.0</ele>
        <time>2010-08-26T18:46:57Z</time>
      </trkpt>
      <trkpt lat="41.851417" lon="-8.076250">
        <ele>804.0</ele>
        <time>2010-08-26T18:46:58Z</time>
      </trkpt>
      <trkpt lat="41.851450" lon="-8.076283">
        <ele>804.0</ele>
        <time>2010-08-26T18:46:59Z</time>
      </trkpt>
      <trkpt lat="41.851483" lon="-8.076300">
        <ele>804.0</ele>
        <time>2010-08-26T18:47:00Z</time>
      </trkpt>
      <trkpt lat="41.851533" lon="-8.076317">
        <ele>803.0</ele>
        <time>2010-08-26T18:47:01Z</time>
      </trkpt>
      <trkpt lat="41.851567" lon="-8.076333">
        <ele>803.0</ele>
        <time>2010-08-26T18:47:02Z</time>
      </trkpt>
      <trkpt lat="41.851600" lon="-8.076333">
        <ele>803.0</ele>
        <time>2010-08-26T18:47:03Z</time>
      </trkpt>
      <trkpt lat="41.851650" lon="-8.076333">
        <ele>802.0</ele>
        <time>2010-08-26T18:47:04Z</time>
      </trkpt>
      <trkpt lat="41.851700" lon="-8.076350">
        <ele>802.0</ele>
        <time>2010-08-26T18:47:05Z</time>
      </trkpt>
      <trkpt lat="41.851750" lon="-8.076333">
        <ele>801.0</ele>
        <time>2010-08-26T18:47:06Z</time>
      </trkpt>
      <trkpt lat="41.851783" lon="-8.076333">
        <ele>801.0</ele>
        <time>2010-08-26T18:47:07Z</time>
      </trkpt>
      <trkpt lat="41.851833" lon="-8.076333">
        <ele>800.0</ele>
        <time>2010-08-26T18:47:08Z</time>
      </trkpt>
      <trkpt lat="41.851883" lon="-8.076333">
        <ele>800.0</ele>
        <time>2010-08-26T18:47:09Z</time>
      </trkpt>
      <trkpt lat="41.851917" lon="-8.076333">
        <ele>799.0</ele>
        <time>2010-08-26T18:47:10Z</time>
      </trkpt>
      <trkpt lat="41.851950" lon="-8.076333">
        <ele>798.0</ele>
        <time>2010-08-26T18:47:11Z</time>
      </trkpt>
      <trkpt lat="41.851983" lon="-8.076333">
        <ele>798.0</ele>
        <time>2010-08-26T18:47:12Z</time>
      </trkpt>
      <trkpt lat="41.852033" lon="-8.076317">
        <ele>797.0</ele>
        <time>2010-08-26T18:47:13Z</time>
      </trkpt>
      <trkpt lat="41.852067" lon="-8.076317">
        <ele>797.0</ele>
        <time>2010-08-26T18:47:14Z</time>
      </trkpt>
      <trkpt lat="41.852100" lon="-8.076317">
        <ele>796.0</ele>
        <time>2010-08-26T18:47:15Z</time>
      </trkpt>
      <trkpt lat="41.852150" lon="-8.076317">
        <ele>796.0</ele>
        <time>2010-08-26T18:47:16Z</time>
      </trkpt>
      <trkpt lat="41.852200" lon="-8.076317">
        <ele>795.0</ele>
        <time>2010-08-26T18:47:17Z</time>
      </trkpt>
      <trkpt lat="41.852233" lon="-8.076317">
        <ele>795.0</ele>
        <time>2010-08-26T18:47:18Z</time>
      </trkpt>
      <trkpt lat="41.852267" lon="-8.076300">
        <ele>793.0</ele>
        <time>2010-08-26T18:47:27Z</time>
      </trkpt>
      <trkpt lat="41.852300" lon="-8.076300">
        <ele>793.0</ele>
        <time>2010-08-26T18:47:29Z</time>
      </trkpt>
      <trkpt lat="41.852317" lon="-8.076283">
        <ele>793.0</ele>
        <time>2010-08-26T18:47:30Z</time>
      </trkpt>
      <trkpt lat="41.852350" lon="-8.076283">
        <ele>792.0</ele>
        <time>2010-08-26T18:47:31Z</time>
      </trkpt>
      <trkpt lat="41.852383" lon="-8.076267">
        <ele>792.0</ele>
        <time>2010-08-26T18:47:33Z</time>
      </trkpt>
      <trkpt lat="41.852433" lon="-8.076250">
        <ele>791.0</ele>
        <time>2010-08-26T18:47:35Z</time>
      </trkpt>
      <trkpt lat="41.852467" lon="-8.076233">
        <ele>791.0</ele>
        <time>2010-08-26T18:47:36Z</time>
      </trkpt>
      <trkpt lat="41.852483" lon="-8.076217">
        <ele>790.0</ele>
        <time>2010-08-26T18:47:37Z</time>
      </trkpt>
      <trkpt lat="41.852517" lon="-8.076200">
        <ele>790.0</ele>
        <time>2010-08-26T18:47:38Z</time>
      </trkpt>
      <trkpt lat="41.852533" lon="-8.076183">
        <ele>789.0</ele>
        <time>2010-08-26T18:47:39Z</time>
      </trkpt>
      <trkpt lat="41.852567" lon="-8.076167">
        <ele>789.0</ele>
        <time>2010-08-26T18:47:40Z</time>
      </trkpt>
      <trkpt lat="41.852583" lon="-8.076167">
        <ele>788.0</ele>
        <time>2010-08-26T18:47:41Z</time>
      </trkpt>
      <trkpt lat="41.852600" lon="-8.076150">
        <ele>788.0</ele>
        <time>2010-08-26T18:47:42Z</time>
      </trkpt>
      <trkpt lat="41.852633" lon="-8.076133">
        <ele>787.0</ele>
        <time>2010-08-26T18:47:43Z</time>
      </trkpt>
      <trkpt lat="41.852667" lon="-8.076117">
        <ele>787.0</ele>
        <time>2010-08-26T18:47:44Z</time>
      </trkpt>
      <trkpt lat="41.852700" lon="-8.076100">
        <ele>786.0</ele>
        <time>2010-08-26T18:47:45Z</time>
      </trkpt>
      <trkpt lat="41.852733" lon="-8.076083">
        <ele>786.0</ele>
        <time>2010-08-26T18:47:46Z</time>
      </trkpt>
      <trkpt lat="41.852767" lon="-8.076067">
        <ele>785.0</ele>
        <time>2010-08-26T18:47:47Z</time>
      </trkpt>
      <trkpt lat="41.852800" lon="-8.076050">
        <ele>785.0</ele>
        <time>2010-08-26T18:47:48Z</time>
      </trkpt>
      <trkpt lat="41.852833" lon="-8.076017">
        <ele>785.0</ele>
        <time>2010-08-26T18:47:49Z</time>
      </trkpt>
      <trkpt lat="41.852867" lon="-8.076000">
        <ele>784.0</ele>
        <time>2010-08-26T18:47:50Z</time>
      </trkpt>
      <trkpt lat="41.852900" lon="-8.075983">
        <ele>784.0</ele>
        <time>2010-08-26T18:47:51Z</time>
      </trkpt>
      <trkpt lat="41.852933" lon="-8.075967">
        <ele>783.0</ele>
        <time>2010-08-26T18:47:52Z</time>
      </trkpt>
      <trkpt lat="41.852967" lon="-8.075950">
        <ele>782.0</ele>
        <time>2010-08-26T18:47:53Z</time>
      </trkpt>
      <trkpt lat="41.853000" lon="-8.075933">
        <ele>782.0</ele>
        <time>2010-08-26T18:47:54Z</time>
      </trkpt>
      <trkpt lat="41.853033" lon="-8.075900">
        <ele>781.0</ele>
        <time>2010-08-26T18:47:55Z</time>
      </trkpt>
      <trkpt lat="41.853067" lon="-8.075867">
        <ele>780.0</ele>
        <time>2010-08-26T18:47:56Z</time>
      </trkpt>
      <trkpt lat="41.853100" lon="-8.075833">
        <ele>780.0</ele>
        <time>2010-08-26T18:47:57Z</time>
      </trkpt>
      <trkpt lat="41.853117" lon="-8.075817">
        <ele>779.0</ele>
        <time>2010-08-26T18:47:58Z</time>
      </trkpt>
      <trkpt lat="41.853150" lon="-8.075783">
        <ele>779.0</ele>
        <time>2010-08-26T18:47:59Z</time>
      </trkpt>
      <trkpt lat="41.853167" lon="-8.075750">
        <ele>781.0</ele>
        <time>2010-08-26T18:48:46Z</time>
      </trkpt>
      <trkpt lat="41.853183" lon="-8.075683">
        <ele>781.0</ele>
        <time>2010-08-26T18:48:59Z</time>
      </trkpt>
      <trkpt lat="41.853167" lon="-8.075633">
        <ele>781.0</ele>
        <time>2010-08-26T18:49:01Z</time>
      </trkpt>
      <trkpt lat="41.853167" lon="-8.075600">
        <ele>781.0</ele>
        <time>2010-08-26T18:49:02Z</time>
      </trkpt>
      <trkpt lat="41.853150" lon="-8.075583">
        <ele>781.0</ele>
        <time>2010-08-26T18:49:03Z</time>
      </trkpt>
      <trkpt lat="41.853133" lon="-8.075550">
        <ele>780.0</ele>
        <time>2010-08-26T18:49:04Z</time>
      </trkpt>
      <trkpt lat="41.853133" lon="-8.075517">
        <ele>780.0</ele>
        <time>2010-08-26T18:49:05Z</time>
      </trkpt>
      <trkpt lat="41.853117" lon="-8.075483">
        <ele>780.0</ele>
        <time>2010-08-26T18:49:06Z</time>
      </trkpt>
      <trkpt lat="41.853100" lon="-8.075467">
        <ele>780.0</ele>
        <time>2010-08-26T18:49:07Z</time>
      </trkpt>
      <trkpt lat="41.853083" lon="-8.075417">
        <ele>780.0</ele>
        <time>2010-08-26T18:49:08Z</time>
      </trkpt>
      <trkpt lat="41.853067" lon="-8.075383">
        <ele>779.0</ele>
        <time>2010-08-26T18:49:09Z</time>
      </trkpt>
      <trkpt lat="41.853050" lon="-8.075350">
        <ele>779.0</ele>
        <time>2010-08-26T18:49:10Z</time>
      </trkpt>
      <trkpt lat="41.853033" lon="-8.075317">
        <ele>779.0</ele>
        <time>2010-08-26T18:49:11Z</time>
      </trkpt>
      <trkpt lat="41.853033" lon="-8.075283">
        <ele>779.0</ele>
        <time>2010-08-26T18:49:12Z</time>
      </trkpt>
      <trkpt lat="41.853033" lon="-8.075250">
        <ele>778.0</ele>
        <time>2010-08-26T18:49:13Z</time>
      </trkpt>
      <trkpt lat="41.853033" lon="-8.075217">
        <ele>778.0</ele>
        <time>2010-08-26T18:49:14Z</time>
      </trkpt>
      <trkpt lat="41.853033" lon="-8.075183">
        <ele>778.0</ele>
        <time>2010-08-26T18:49:15Z</time>
      </trkpt>
      <trkpt lat="41.853050" lon="-8.075133">
        <ele>777.0</ele>
        <time>2010-08-26T18:49:16Z</time>
      </trkpt>
      <trkpt lat="41.853067" lon="-8.075100">
        <ele>777.0</ele>
        <time>2010-08-26T18:49:17Z</time>
      </trkpt>
      <trkpt lat="41.853083" lon="-8.075050">
        <ele>776.0</ele>
        <time>2010-08-26T18:49:18Z</time>
      </trkpt>
      <trkpt lat="41.853100" lon="-8.075017">
        <ele>776.0</ele>
        <time>2010-08-26T18:49:19Z</time>
      </trkpt>
      <trkpt lat="41.853117" lon="-8.074983">
        <ele>776.0</ele>
        <time>2010-08-26T18:49:20Z</time>
      </trkpt>
      <trkpt lat="41.853117" lon="-8.074967">
        <ele>776.0</ele>
        <time>2010-08-26T18:49:21Z</time>
      </trkpt>
      <trkpt lat="41.853150" lon="-8.074933">
        <ele>775.0</ele>
        <time>2010-08-26T18:49:22Z</time>
      </trkpt>
      <trkpt lat="41.853167" lon="-8.074917">
        <ele>775.0</ele>
        <time>2010-08-26T18:49:23Z</time>
      </trkpt>
      <trkpt lat="41.853183" lon="-8.074900">
        <ele>774.0</ele>
        <time>2010-08-26T18:49:24Z</time>
      </trkpt>
      <trkpt lat="41.853233" lon="-8.074917">
        <ele>774.0</ele>
        <time>2010-08-26T18:49:26Z</time>
      </trkpt>
      <trkpt lat="41.853267" lon="-8.074933">
        <ele>774.0</ele>
        <time>2010-08-26T18:49:28Z</time>
      </trkpt>
      <trkpt lat="41.853317" lon="-8.074933">
        <ele>772.0</ele>
        <time>2010-08-26T18:49:39Z</time>
      </trkpt>
      <trkpt lat="41.853350" lon="-8.074967">
        <ele>771.0</ele>
        <time>2010-08-26T18:49:42Z</time>
      </trkpt>
      <trkpt lat="41.853383" lon="-8.075000">
        <ele>771.0</ele>
        <time>2010-08-26T18:49:44Z</time>
      </trkpt>
      <trkpt lat="41.853417" lon="-8.075017">
        <ele>770.0</ele>
        <time>2010-08-26T18:49:46Z</time>
      </trkpt>
      <trkpt lat="41.853450" lon="-8.075050">
        <ele>769.0</ele>
        <time>2010-08-26T18:49:48Z</time>
      </trkpt>
      <trkpt lat="41.853483" lon="-8.075067">
        <ele>768.0</ele>
        <time>2010-08-26T18:49:50Z</time>
      </trkpt>
      <trkpt lat="41.853517" lon="-8.075083">
        <ele>767.0</ele>
        <time>2010-08-26T18:49:52Z</time>
      </trkpt>
      <trkpt lat="41.853567" lon="-8.075100">
        <ele>766.0</ele>
        <time>2010-08-26T18:49:54Z</time>
      </trkpt>
      <trkpt lat="41.853600" lon="-8.075133">
        <ele>765.0</ele>
        <time>2010-08-26T18:49:56Z</time>
      </trkpt>
      <trkpt lat="41.853633" lon="-8.075133">
        <ele>764.0</ele>
        <time>2010-08-26T18:49:58Z</time>
      </trkpt>
      <trkpt lat="41.853683" lon="-8.075150">
        <ele>763.0</ele>
        <time>2010-08-26T18:50:01Z</time>
      </trkpt>
      <trkpt lat="41.853717" lon="-8.075150">
        <ele>762.0</ele>
        <time>2010-08-26T18:50:10Z</time>
      </trkpt>
      <trkpt lat="41.853750" lon="-8.075183">
        <ele>761.0</ele>
        <time>2010-08-26T18:50:13Z</time>
      </trkpt>
      <trkpt lat="41.853783" lon="-8.075200">
        <ele>761.0</ele>
        <time>2010-08-26T18:50:17Z</time>
      </trkpt>
      <trkpt lat="41.853833" lon="-8.075217">
        <ele>760.0</ele>
        <time>2010-08-26T18:50:20Z</time>
      </trkpt>
      <trkpt lat="41.853867" lon="-8.075233">
        <ele>759.0</ele>
        <time>2010-08-26T18:50:22Z</time>
      </trkpt>
      <trkpt lat="41.853900" lon="-8.075250">
        <ele>758.0</ele>
        <time>2010-08-26T18:50:24Z</time>
      </trkpt>
      <trkpt lat="41.853917" lon="-8.075250">
        <ele>758.0</ele>
        <time>2010-08-26T18:50:25Z</time>
      </trkpt>
      <trkpt lat="41.853950" lon="-8.075267">
        <ele>758.0</ele>
        <time>2010-08-26T18:50:26Z</time>
      </trkpt>
      <trkpt lat="41.853967" lon="-8.075283">
        <ele>757.0</ele>
        <time>2010-08-26T18:50:27Z</time>
      </trkpt>
      <trkpt lat="41.854000" lon="-8.075300">
        <ele>757.0</ele>
        <time>2010-08-26T18:50:28Z</time>
      </trkpt>
      <trkpt lat="41.854033" lon="-8.075317">
        <ele>756.0</ele>
        <time>2010-08-26T18:50:30Z</time>
      </trkpt>
      <trkpt lat="41.854050" lon="-8.075317">
        <ele>756.0</ele>
        <time>2010-08-26T18:50:31Z</time>
      </trkpt>
      <trkpt lat="41.854083" lon="-8.075317">
        <ele>755.0</ele>
        <time>2010-08-26T18:50:32Z</time>
      </trkpt>
      <trkpt lat="41.854100" lon="-8.075317">
        <ele>755.0</ele>
        <time>2010-08-26T18:50:33Z</time>
      </trkpt>
      <trkpt lat="41.854133" lon="-8.075333">
        <ele>755.0</ele>
        <time>2010-08-26T18:50:34Z</time>
      </trkpt>
      <trkpt lat="41.854150" lon="-8.075333">
        <ele>754.0</ele>
        <time>2010-08-26T18:50:35Z</time>
      </trkpt>
      <trkpt lat="41.854183" lon="-8.075317">
        <ele>754.0</ele>
        <time>2010-08-26T18:50:36Z</time>
      </trkpt>
      <trkpt lat="41.854217" lon="-8.075317">
        <ele>753.0</ele>
        <time>2010-08-26T18:50:37Z</time>
      </trkpt>
      <trkpt lat="41.854250" lon="-8.075317">
        <ele>753.0</ele>
        <time>2010-08-26T18:50:38Z</time>
      </trkpt>
      <trkpt lat="41.854283" lon="-8.075317">
        <ele>752.0</ele>
        <time>2010-08-26T18:50:39Z</time>
      </trkpt>
      <trkpt lat="41.854317" lon="-8.075317">
        <ele>752.0</ele>
        <time>2010-08-26T18:50:40Z</time>
      </trkpt>
      <trkpt lat="41.854350" lon="-8.075317">
        <ele>751.0</ele>
        <time>2010-08-26T18:50:41Z</time>
      </trkpt>
      <trkpt lat="41.854383" lon="-8.075317">
        <ele>751.0</ele>
        <time>2010-08-26T18:50:42Z</time>
      </trkpt>
      <trkpt lat="41.854417" lon="-8.075333">
        <ele>751.0</ele>
        <time>2010-08-26T18:50:43Z</time>
      </trkpt>
      <trkpt lat="41.854433" lon="-8.075333">
        <ele>750.0</ele>
        <time>2010-08-26T18:50:44Z</time>
      </trkpt>
      <trkpt lat="41.854467" lon="-8.075333">
        <ele>750.0</ele>
        <time>2010-08-26T18:50:45Z</time>
      </trkpt>
      <trkpt lat="41.854483" lon="-8.075333">
        <ele>750.0</ele>
        <time>2010-08-26T18:50:46Z</time>
      </trkpt>
      <trkpt lat="41.854517" lon="-8.075333">
        <ele>749.0</ele>
        <time>2010-08-26T18:50:47Z</time>
      </trkpt>
      <trkpt lat="41.854550" lon="-8.075333">
        <ele>749.0</ele>
        <time>2010-08-26T18:50:49Z</time>
      </trkpt>
      <trkpt lat="41.854583" lon="-8.075350">
        <ele>748.0</ele>
        <time>2010-08-26T18:50:51Z</time>
      </trkpt>
      <trkpt lat="41.854600" lon="-8.075350">
        <ele>748.0</ele>
        <time>2010-08-26T18:50:52Z</time>
      </trkpt>
      <trkpt lat="41.854633" lon="-8.075383">
        <ele>748.0</ele>
        <time>2010-08-26T18:50:53Z</time>
      </trkpt>
      <trkpt lat="41.854650" lon="-8.075400">
        <ele>747.0</ele>
        <time>2010-08-26T18:50:54Z</time>
      </trkpt>
      <trkpt lat="41.854667" lon="-8.075417">
        <ele>747.0</ele>
        <time>2010-08-26T18:50:55Z</time>
      </trkpt>
      <trkpt lat="41.854683" lon="-8.075433">
        <ele>747.0</ele>
        <time>2010-08-26T18:50:56Z</time>
      </trkpt>
      <trkpt lat="41.854700" lon="-8.075450">
        <ele>747.0</ele>
        <time>2010-08-26T18:50:57Z</time>
      </trkpt>
      <trkpt lat="41.854733" lon="-8.075467">
        <ele>747.0</ele>
        <time>2010-08-26T18:50:58Z</time>
      </trkpt>
      <trkpt lat="41.854750" lon="-8.075483">
        <ele>747.0</ele>
        <time>2010-08-26T18:50:59Z</time>
      </trkpt>
      <trkpt lat="41.854767" lon="-8.075500">
        <ele>747.0</ele>
        <time>2010-08-26T18:51:00Z</time>
      </trkpt>
      <trkpt lat="41.854800" lon="-8.075500">
        <ele>747.0</ele>
        <time>2010-08-26T18:51:01Z</time>
      </trkpt>
      <trkpt lat="41.854817" lon="-8.075500">
        <ele>746.0</ele>
        <time>2010-08-26T18:51:02Z</time>
      </trkpt>
      <trkpt lat="41.854850" lon="-8.075500">
        <ele>746.0</ele>
        <time>2010-08-26T18:51:03Z</time>
      </trkpt>
      <trkpt lat="41.854867" lon="-8.075517">
        <ele>746.0</ele>
        <time>2010-08-26T18:51:04Z</time>
      </trkpt>
      <trkpt lat="41.854883" lon="-8.075517">
        <ele>745.0</ele>
        <time>2010-08-26T18:51:05Z</time>
      </trkpt>
      <trkpt lat="41.854917" lon="-8.075533">
        <ele>745.0</ele>
        <time>2010-08-26T18:51:06Z</time>
      </trkpt>
      <trkpt lat="41.854933" lon="-8.075550">
        <ele>745.0</ele>
        <time>2010-08-26T18:51:07Z</time>
      </trkpt>
      <trkpt lat="41.854950" lon="-8.075567">
        <ele>744.0</ele>
        <time>2010-08-26T18:51:08Z</time>
      </trkpt>
      <trkpt lat="41.854983" lon="-8.075583">
        <ele>744.0</ele>
        <time>2010-08-26T18:51:09Z</time>
      </trkpt>
      <trkpt lat="41.855000" lon="-8.075600">
        <ele>744.0</ele>
        <time>2010-08-26T18:51:10Z</time>
      </trkpt>
      <trkpt lat="41.855017" lon="-8.075617">
        <ele>744.0</ele>
        <time>2010-08-26T18:51:11Z</time>
      </trkpt>
      <trkpt lat="41.855067" lon="-8.075633">
        <ele>743.0</ele>
        <time>2010-08-26T18:51:13Z</time>
      </trkpt>
      <trkpt lat="41.855083" lon="-8.075667">
        <ele>743.0</ele>
        <time>2010-08-26T18:51:15Z</time>
      </trkpt>
      <trkpt lat="41.855117" lon="-8.075683">
        <ele>743.0</ele>
        <time>2010-08-26T18:51:17Z</time>
      </trkpt>
      <trkpt lat="41.855167" lon="-8.075700">
        <ele>742.0</ele>
        <time>2010-08-26T18:51:19Z</time>
      </trkpt>
      <trkpt lat="41.855183" lon="-8.075717">
        <ele>742.0</ele>
        <time>2010-08-26T18:51:20Z</time>
      </trkpt>
      <trkpt lat="41.855217" lon="-8.075733">
        <ele>742.0</ele>
        <time>2010-08-26T18:51:21Z</time>
      </trkpt>
      <trkpt lat="41.855233" lon="-8.075750">
        <ele>742.0</ele>
        <time>2010-08-26T18:51:22Z</time>
      </trkpt>
      <trkpt lat="41.855267" lon="-8.075767">
        <ele>741.0</ele>
        <time>2010-08-26T18:51:23Z</time>
      </trkpt>
      <trkpt lat="41.855283" lon="-8.075783">
        <ele>741.0</ele>
        <time>2010-08-26T18:51:24Z</time>
      </trkpt>
      <trkpt lat="41.855300" lon="-8.075817">
        <ele>741.0</ele>
        <time>2010-08-26T18:51:25Z</time>
      </trkpt>
      <trkpt lat="41.855333" lon="-8.075850">
        <ele>741.0</ele>
        <time>2010-08-26T18:51:27Z</time>
      </trkpt>
      <trkpt lat="41.855350" lon="-8.075883">
        <ele>741.0</ele>
        <time>2010-08-26T18:51:29Z</time>
      </trkpt>
      <trkpt lat="41.855367" lon="-8.075917">
        <ele>741.0</ele>
        <time>2010-08-26T18:51:31Z</time>
      </trkpt>
      <trkpt lat="41.855400" lon="-8.075950">
        <ele>741.0</ele>
        <time>2010-08-26T18:51:33Z</time>
      </trkpt>
      <trkpt lat="41.855400" lon="-8.076000">
        <ele>743.0</ele>
        <time>2010-08-26T18:51:56Z</time>
      </trkpt>
      <trkpt lat="41.855433" lon="-8.076033">
        <ele>742.0</ele>
        <time>2010-08-26T18:51:58Z</time>
      </trkpt>
      <trkpt lat="41.855450" lon="-8.076067">
        <ele>742.0</ele>
        <time>2010-08-26T18:51:59Z</time>
      </trkpt>
      <trkpt lat="41.855483" lon="-8.076100">
        <ele>741.0</ele>
        <time>2010-08-26T18:52:00Z</time>
      </trkpt>
      <trkpt lat="41.855500" lon="-8.076150">
        <ele>741.0</ele>
        <time>2010-08-26T18:52:01Z</time>
      </trkpt>
      <trkpt lat="41.855533" lon="-8.076183">
        <ele>740.0</ele>
        <time>2010-08-26T18:52:02Z</time>
      </trkpt>
      <trkpt lat="41.855567" lon="-8.076233">
        <ele>740.0</ele>
        <time>2010-08-26T18:52:03Z</time>
      </trkpt>
      <trkpt lat="41.855600" lon="-8.076267">
        <ele>739.0</ele>
        <time>2010-08-26T18:52:04Z</time>
      </trkpt>
      <trkpt lat="41.855633" lon="-8.076317">
        <ele>739.0</ele>
        <time>2010-08-26T18:52:05Z</time>
      </trkpt>
      <trkpt lat="41.855650" lon="-8.076350">
        <ele>739.0</ele>
        <time>2010-08-26T18:52:06Z</time>
      </trkpt>
      <trkpt lat="41.855667" lon="-8.076400">
        <ele>739.0</ele>
        <time>2010-08-26T18:52:07Z</time>
      </trkpt>
      <trkpt lat="41.855667" lon="-8.076433">
        <ele>739.0</ele>
        <time>2010-08-26T18:52:08Z</time>
      </trkpt>
      <trkpt lat="41.855700" lon="-8.076483">
        <ele>739.0</ele>
        <time>2010-08-26T18:52:10Z</time>
      </trkpt>
      <trkpt lat="41.855717" lon="-8.076533">
        <ele>739.0</ele>
        <time>2010-08-26T18:52:12Z</time>
      </trkpt>
      <trkpt lat="41.855717" lon="-8.076567">
        <ele>739.0</ele>
        <time>2010-08-26T18:52:13Z</time>
      </trkpt>
      <trkpt lat="41.855717" lon="-8.076600">
        <ele>740.0</ele>
        <time>2010-08-26T18:52:14Z</time>
      </trkpt>
      <trkpt lat="41.855733" lon="-8.076650">
        <ele>740.0</ele>
        <time>2010-08-26T18:52:15Z</time>
      </trkpt>
      <trkpt lat="41.855733" lon="-8.076683">
        <ele>740.0</ele>
        <time>2010-08-26T18:52:16Z</time>
      </trkpt>
      <trkpt lat="41.855750" lon="-8.076700">
        <ele>740.0</ele>
        <time>2010-08-26T18:52:17Z</time>
      </trkpt>
      <trkpt lat="41.855750" lon="-8.076733">
        <ele>740.0</ele>
        <time>2010-08-26T18:52:18Z</time>
      </trkpt>
      <trkpt lat="41.855750" lon="-8.076767">
        <ele>740.0</ele>
        <time>2010-08-26T18:52:19Z</time>
      </trkpt>
      <trkpt lat="41.855767" lon="-8.076800">
        <ele>740.0</ele>
        <time>2010-08-26T18:52:20Z</time>
      </trkpt>
      <trkpt lat="41.855767" lon="-8.076833">
        <ele>740.0</ele>
        <time>2010-08-26T18:52:21Z</time>
      </trkpt>
      <trkpt lat="41.855783" lon="-8.076867">
        <ele>740.0</ele>
        <time>2010-08-26T18:52:22Z</time>
      </trkpt>
      <trkpt lat="41.855800" lon="-8.076883">
        <ele>740.0</ele>
        <time>2010-08-26T18:52:23Z</time>
      </trkpt>
      <trkpt lat="41.855800" lon="-8.076933">
        <ele>740.0</ele>
        <time>2010-08-26T18:52:24Z</time>
      </trkpt>
      <trkpt lat="41.855817" lon="-8.076967">
        <ele>740.0</ele>
        <time>2010-08-26T18:52:25Z</time>
      </trkpt>
      <trkpt lat="41.855833" lon="-8.077000">
        <ele>740.0</ele>
        <time>2010-08-26T18:52:26Z</time>
      </trkpt>
      <trkpt lat="41.855833" lon="-8.077033">
        <ele>740.0</ele>
        <time>2010-08-26T18:52:27Z</time>
      </trkpt>
      <trkpt lat="41.855850" lon="-8.077083">
        <ele>740.0</ele>
        <time>2010-08-26T18:52:28Z</time>
      </trkpt>
      <trkpt lat="41.855867" lon="-8.077117">
        <ele>740.0</ele>
        <time>2010-08-26T18:52:29Z</time>
      </trkpt>
      <trkpt lat="41.855883" lon="-8.077150">
        <ele>740.0</ele>
        <time>2010-08-26T18:52:30Z</time>
      </trkpt>
      <trkpt lat="41.855883" lon="-8.077200">
        <ele>740.0</ele>
        <time>2010-08-26T18:52:31Z</time>
      </trkpt>
      <trkpt lat="41.855900" lon="-8.077233">
        <ele>740.0</ele>
        <time>2010-08-26T18:52:32Z</time>
      </trkpt>
      <trkpt lat="41.855917" lon="-8.077283">
        <ele>740.0</ele>
        <time>2010-08-26T18:52:33Z</time>
      </trkpt>
      <trkpt lat="41.855917" lon="-8.077317">
        <ele>740.0</ele>
        <time>2010-08-26T18:52:34Z</time>
      </trkpt>
      <trkpt lat="41.855933" lon="-8.077367">
        <ele>740.0</ele>
        <time>2010-08-26T18:52:35Z</time>
      </trkpt>
      <trkpt lat="41.855950" lon="-8.077400">
        <ele>740.0</ele>
        <time>2010-08-26T18:52:36Z</time>
      </trkpt>
      <trkpt lat="41.855950" lon="-8.077450">
        <ele>739.0</ele>
        <time>2010-08-26T18:52:37Z</time>
      </trkpt>
      <trkpt lat="41.855983" lon="-8.077483">
        <ele>739.0</ele>
        <time>2010-08-26T18:52:38Z</time>
      </trkpt>
      <trkpt lat="41.856000" lon="-8.077500">
        <ele>739.0</ele>
        <time>2010-08-26T18:52:39Z</time>
      </trkpt>
      <trkpt lat="41.856017" lon="-8.077550">
        <ele>739.0</ele>
        <time>2010-08-26T18:52:40Z</time>
      </trkpt>
      <trkpt lat="41.856033" lon="-8.077583">
        <ele>739.0</ele>
        <time>2010-08-26T18:52:41Z</time>
      </trkpt>
      <trkpt lat="41.856050" lon="-8.077617">
        <ele>739.0</ele>
        <time>2010-08-26T18:52:42Z</time>
      </trkpt>
      <trkpt lat="41.856067" lon="-8.077650">
        <ele>738.0</ele>
        <time>2010-08-26T18:52:43Z</time>
      </trkpt>
      <trkpt lat="41.856067" lon="-8.077700">
        <ele>738.0</ele>
        <time>2010-08-26T18:52:44Z</time>
      </trkpt>
      <trkpt lat="41.856083" lon="-8.077733">
        <ele>738.0</ele>
        <time>2010-08-26T18:52:45Z</time>
      </trkpt>
      <trkpt lat="41.856117" lon="-8.077767">
        <ele>737.0</ele>
        <time>2010-08-26T18:52:46Z</time>
      </trkpt>
      <trkpt lat="41.856133" lon="-8.077800">
        <ele>737.0</ele>
        <time>2010-08-26T18:52:47Z</time>
      </trkpt>
      <trkpt lat="41.856167" lon="-8.077833">
        <ele>737.0</ele>
        <time>2010-08-26T18:52:48Z</time>
      </trkpt>
      <trkpt lat="41.856183" lon="-8.077833">
        <ele>736.0</ele>
        <time>2010-08-26T18:52:49Z</time>
      </trkpt>
      <trkpt lat="41.856217" lon="-8.077867">
        <ele>736.0</ele>
        <time>2010-08-26T18:52:50Z</time>
      </trkpt>
      <trkpt lat="41.856233" lon="-8.077883">
        <ele>735.0</ele>
        <time>2010-08-26T18:52:51Z</time>
      </trkpt>
      <trkpt lat="41.856250" lon="-8.077900">
        <ele>735.0</ele>
        <time>2010-08-26T18:52:52Z</time>
      </trkpt>
      <trkpt lat="41.856283" lon="-8.077933">
        <ele>734.0</ele>
        <time>2010-08-26T18:52:53Z</time>
      </trkpt>
      <trkpt lat="41.856300" lon="-8.077950">
        <ele>734.0</ele>
        <time>2010-08-26T18:52:54Z</time>
      </trkpt>
      <trkpt lat="41.856333" lon="-8.077967">
        <ele>734.0</ele>
        <time>2010-08-26T18:52:55Z</time>
      </trkpt>
      <trkpt lat="41.856350" lon="-8.077967">
        <ele>733.0</ele>
        <time>2010-08-26T18:52:56Z</time>
      </trkpt>
      <trkpt lat="41.856383" lon="-8.077983">
        <ele>733.0</ele>
        <time>2010-08-26T18:52:57Z</time>
      </trkpt>
      <trkpt lat="41.856400" lon="-8.077983">
        <ele>732.0</ele>
        <time>2010-08-26T18:52:58Z</time>
      </trkpt>
      <trkpt lat="41.856450" lon="-8.078000">
        <ele>731.0</ele>
        <time>2010-08-26T18:53:00Z</time>
      </trkpt>
      <trkpt lat="41.856483" lon="-8.078017">
        <ele>731.0</ele>
        <time>2010-08-26T18:53:42Z</time>
      </trkpt>
      <trkpt lat="41.856517" lon="-8.078017">
        <ele>731.0</ele>
        <time>2010-08-26T18:53:44Z</time>
      </trkpt>
      <trkpt lat="41.856550" lon="-8.078000">
        <ele>730.0</ele>
        <time>2010-08-26T18:53:46Z</time>
      </trkpt>
      <trkpt lat="41.856600" lon="-8.077983">
        <ele>730.0</ele>
        <time>2010-08-26T18:53:48Z</time>
      </trkpt>
      <trkpt lat="41.856633" lon="-8.077967">
        <ele>729.0</ele>
        <time>2010-08-26T18:53:50Z</time>
      </trkpt>
      <trkpt lat="41.856683" lon="-8.077950">
        <ele>728.0</ele>
        <time>2010-08-26T18:53:52Z</time>
      </trkpt>
      <trkpt lat="41.856717" lon="-8.077933">
        <ele>727.0</ele>
        <time>2010-08-26T18:53:54Z</time>
      </trkpt>
      <trkpt lat="41.856750" lon="-8.077900">
        <ele>726.0</ele>
        <time>2010-08-26T18:53:56Z</time>
      </trkpt>
      <trkpt lat="41.856783" lon="-8.077883">
        <ele>725.0</ele>
        <time>2010-08-26T18:53:58Z</time>
      </trkpt>
      <trkpt lat="41.856833" lon="-8.077850">
        <ele>724.0</ele>
        <time>2010-08-26T18:54:00Z</time>
      </trkpt>
      <trkpt lat="41.856867" lon="-8.077833">
        <ele>723.0</ele>
        <time>2010-08-26T18:54:02Z</time>
      </trkpt>
      <trkpt lat="41.856900" lon="-8.077817">
        <ele>721.0</ele>
        <time>2010-08-26T18:54:10Z</time>
      </trkpt>
      <trkpt lat="41.856917" lon="-8.077767">
        <ele>715.0</ele>
        <time>2010-08-26T18:56:35Z</time>
      </trkpt>
      <trkpt lat="41.856950" lon="-8.077767">
        <ele>715.0</ele>
        <time>2010-08-26T18:56:37Z</time>
      </trkpt>
      <trkpt lat="41.856983" lon="-8.077733">
        <ele>714.0</ele>
        <time>2010-08-26T18:56:39Z</time>
      </trkpt>
      <trkpt lat="41.857000" lon="-8.077717">
        <ele>713.0</ele>
        <time>2010-08-26T18:56:40Z</time>
      </trkpt>
      <trkpt lat="41.857033" lon="-8.077700">
        <ele>713.0</ele>
        <time>2010-08-26T18:56:41Z</time>
      </trkpt>
      <trkpt lat="41.857050" lon="-8.077683">
        <ele>712.0</ele>
        <time>2010-08-26T18:56:42Z</time>
      </trkpt>
      <trkpt lat="41.857100" lon="-8.077683">
        <ele>711.0</ele>
        <time>2010-08-26T18:56:44Z</time>
      </trkpt>
      <trkpt lat="41.857100" lon="-8.077733">
        <ele>710.0</ele>
        <time>2010-08-26T18:56:55Z</time>
      </trkpt>
      <trkpt lat="41.857100" lon="-8.077783">
        <ele>710.0</ele>
        <time>2010-08-26T18:57:01Z</time>
      </trkpt>
      <trkpt lat="41.857083" lon="-8.077817">
        <ele>710.0</ele>
        <time>2010-08-26T18:57:04Z</time>
      </trkpt>
      <trkpt lat="41.857050" lon="-8.077850">
        <ele>710.0</ele>
        <time>2010-08-26T18:57:06Z</time>
      </trkpt>
      <trkpt lat="41.857033" lon="-8.077883">
        <ele>710.0</ele>
        <time>2010-08-26T18:57:08Z</time>
      </trkpt>
      <trkpt lat="41.857017" lon="-8.077933">
        <ele>709.0</ele>
        <time>2010-08-26T18:57:10Z</time>
      </trkpt>
      <trkpt lat="41.857000" lon="-8.077983">
        <ele>709.0</ele>
        <time>2010-08-26T18:57:13Z</time>
      </trkpt>
      <trkpt lat="41.856983" lon="-8.078033">
        <ele>707.0</ele>
        <time>2010-08-26T18:57:24Z</time>
      </trkpt>
      <trkpt lat="41.856967" lon="-8.078083">
        <ele>706.0</ele>
        <time>2010-08-26T18:57:26Z</time>
      </trkpt>
      <trkpt lat="41.856950" lon="-8.078100">
        <ele>706.0</ele>
        <time>2010-08-26T18:57:27Z</time>
      </trkpt>
      <trkpt lat="41.856933" lon="-8.078150">
        <ele>706.0</ele>
        <time>2010-08-26T18:57:28Z</time>
      </trkpt>
      <trkpt lat="41.856917" lon="-8.078183">
        <ele>705.0</ele>
        <time>2010-08-26T18:57:29Z</time>
      </trkpt>
      <trkpt lat="41.856900" lon="-8.078217">
        <ele>705.0</ele>
        <time>2010-08-26T18:57:30Z</time>
      </trkpt>
      <trkpt lat="41.856883" lon="-8.078250">
        <ele>704.0</ele>
        <time>2010-08-26T18:57:31Z</time>
      </trkpt>
      <trkpt lat="41.856850" lon="-8.078283">
        <ele>704.0</ele>
        <time>2010-08-26T18:57:32Z</time>
      </trkpt>
      <trkpt lat="41.856833" lon="-8.078317">
        <ele>703.0</ele>
        <time>2010-08-26T18:57:33Z</time>
      </trkpt>
      <trkpt lat="41.856817" lon="-8.078350">
        <ele>703.0</ele>
        <time>2010-08-26T18:57:34Z</time>
      </trkpt>
      <trkpt lat="41.856783" lon="-8.078383">
        <ele>702.0</ele>
        <time>2010-08-26T18:57:35Z</time>
      </trkpt>
      <trkpt lat="41.856767" lon="-8.078417">
        <ele>702.0</ele>
        <time>2010-08-26T18:57:37Z</time>
      </trkpt>
      <trkpt lat="41.856750" lon="-8.078467">
        <ele>701.0</ele>
        <time>2010-08-26T18:57:40Z</time>
      </trkpt>
      <trkpt lat="41.856750" lon="-8.078500">
        <ele>700.0</ele>
        <time>2010-08-26T18:57:42Z</time>
      </trkpt>
      <trkpt lat="41.856750" lon="-8.078550">
        <ele>701.0</ele>
        <time>2010-08-26T18:57:44Z</time>
      </trkpt>
      <trkpt lat="41.856750" lon="-8.078583">
        <ele>701.0</ele>
        <time>2010-08-26T18:57:45Z</time>
      </trkpt>
      <trkpt lat="41.856767" lon="-8.078617">
        <ele>701.0</ele>
        <time>2010-08-26T18:57:46Z</time>
      </trkpt>
      <trkpt lat="41.856800" lon="-8.078633">
        <ele>703.0</ele>
        <time>2010-08-26T18:57:55Z</time>
      </trkpt>
      <trkpt lat="41.856850" lon="-8.078633">
        <ele>704.0</ele>
        <time>2010-08-26T18:58:06Z</time>
      </trkpt>
      <trkpt lat="41.856867" lon="-8.078633">
        <ele>704.0</ele>
        <time>2010-08-26T18:58:21Z</time>
      </trkpt>
      <trkpt lat="41.856900" lon="-8.078617">
        <ele>704.0</ele>
        <time>2010-08-26T18:58:23Z</time>
      </trkpt>
      <trkpt lat="41.856867" lon="-8.078600">
        <ele>703.0</ele>
        <time>2010-08-26T18:59:25Z</time>
      </trkpt>
      <trkpt lat="41.856900" lon="-8.078600">
        <ele>702.0</ele>
        <time>2010-08-26T18:59:43Z</time>
      </trkpt>
      <trkpt lat="41.856933" lon="-8.078600">
        <ele>702.0</ele>
        <time>2010-08-26T18:59:44Z</time>
      </trkpt>
      <trkpt lat="41.856950" lon="-8.078600">
        <ele>702.0</ele>
        <time>2010-08-26T18:59:45Z</time>
      </trkpt>
      <trkpt lat="41.856983" lon="-8.078600">
        <ele>702.0</ele>
        <time>2010-08-26T18:59:46Z</time>
      </trkpt>
      <trkpt lat="41.857017" lon="-8.078600">
        <ele>702.0</ele>
        <time>2010-08-26T18:59:48Z</time>
      </trkpt>
      <trkpt lat="41.857050" lon="-8.078583">
        <ele>702.0</ele>
        <time>2010-08-26T18:59:50Z</time>
      </trkpt>
      <trkpt lat="41.857100" lon="-8.078567">
        <ele>702.0</ele>
        <time>2010-08-26T18:59:52Z</time>
      </trkpt>
      <trkpt lat="41.857133" lon="-8.078567">
        <ele>703.0</ele>
        <time>2010-08-26T18:59:56Z</time>
      </trkpt>
      <trkpt lat="41.857167" lon="-8.078550">
        <ele>703.0</ele>
        <time>2010-08-26T18:59:58Z</time>
      </trkpt>
      <trkpt lat="41.857200" lon="-8.078533">
        <ele>702.0</ele>
        <time>2010-08-26T19:00:00Z</time>
      </trkpt>
      <trkpt lat="41.857233" lon="-8.078550">
        <ele>702.0</ele>
        <time>2010-08-26T19:00:01Z</time>
      </trkpt>
      <trkpt lat="41.857267" lon="-8.078533">
        <ele>702.0</ele>
        <time>2010-08-26T19:00:03Z</time>
      </trkpt>
      <trkpt lat="41.857317" lon="-8.078517">
        <ele>701.0</ele>
        <time>2010-08-26T19:00:07Z</time>
      </trkpt>
      <trkpt lat="41.857350" lon="-8.078500">
        <ele>700.0</ele>
        <time>2010-08-26T19:00:12Z</time>
      </trkpt>
      <trkpt lat="41.857383" lon="-8.078483">
        <ele>700.0</ele>
        <time>2010-08-26T19:00:16Z</time>
      </trkpt>
      <trkpt lat="41.857417" lon="-8.078467">
        <ele>699.0</ele>
        <time>2010-08-26T19:00:22Z</time>
      </trkpt>
      <trkpt lat="41.857450" lon="-8.078450">
        <ele>698.0</ele>
        <time>2010-08-26T19:00:26Z</time>
      </trkpt>
      <trkpt lat="41.857500" lon="-8.078450">
        <ele>698.0</ele>
        <time>2010-08-26T19:00:34Z</time>
      </trkpt>
      <trkpt lat="41.857533" lon="-8.078450">
        <ele>699.0</ele>
        <time>2010-08-26T19:00:42Z</time>
      </trkpt>
      <trkpt lat="41.857567" lon="-8.078417">
        <ele>699.0</ele>
        <time>2010-08-26T19:00:53Z</time>
      </trkpt>
      <trkpt lat="41.857583" lon="-8.078383">
        <ele>698.0</ele>
        <time>2010-08-26T19:00:55Z</time>
      </trkpt>
      <trkpt lat="41.857617" lon="-8.078350">
        <ele>696.0</ele>
        <time>2010-08-26T19:00:58Z</time>
      </trkpt>
      <trkpt lat="41.857650" lon="-8.078367">
        <ele>697.0</ele>
        <time>2010-08-26T19:01:25Z</time>
      </trkpt>
      <trkpt lat="41.857700" lon="-8.078367">
        <ele>698.0</ele>
        <time>2010-08-26T19:02:16Z</time>
      </trkpt>
      <trkpt lat="41.857733" lon="-8.078350">
        <ele>699.0</ele>
        <time>2010-08-26T19:02:21Z</time>
      </trkpt>
      <trkpt lat="41.857767" lon="-8.078350">
        <ele>700.0</ele>
        <time>2010-08-26T19:02:26Z</time>
      </trkpt>
      <trkpt lat="41.857800" lon="-8.078350">
        <ele>699.0</ele>
        <time>2010-08-26T19:02:37Z</time>
      </trkpt>
      <trkpt lat="41.857850" lon="-8.078333">
        <ele>699.0</ele>
        <time>2010-08-26T19:02:40Z</time>
      </trkpt>
      <trkpt lat="41.857867" lon="-8.078333">
        <ele>699.0</ele>
        <time>2010-08-26T19:02:41Z</time>
      </trkpt>
      <trkpt lat="41.857883" lon="-8.078350">
        <ele>699.0</ele>
        <time>2010-08-26T19:02:42Z</time>
      </trkpt>
      <trkpt lat="41.857917" lon="-8.078350">
        <ele>699.0</ele>
        <time>2010-08-26T19:02:43Z</time>
      </trkpt>
      <trkpt lat="41.857933" lon="-8.078350">
        <ele>699.0</ele>
        <time>2010-08-26T19:02:44Z</time>
      </trkpt>
      <trkpt lat="41.857967" lon="-8.078367">
        <ele>699.0</ele>
        <time>2010-08-26T19:02:45Z</time>
      </trkpt>
      <trkpt lat="41.857983" lon="-8.078383">
        <ele>699.0</ele>
        <time>2010-08-26T19:02:46Z</time>
      </trkpt>
      <trkpt lat="41.858017" lon="-8.078400">
        <ele>698.0</ele>
        <time>2010-08-26T19:02:47Z</time>
      </trkpt>
      <trkpt lat="41.858050" lon="-8.078417">
        <ele>698.0</ele>
        <time>2010-08-26T19:02:48Z</time>
      </trkpt>
      <trkpt lat="41.858083" lon="-8.078433">
        <ele>698.0</ele>
        <time>2010-08-26T19:02:49Z</time>
      </trkpt>
      <trkpt lat="41.858100" lon="-8.078467">
        <ele>697.0</ele>
        <time>2010-08-26T19:02:50Z</time>
      </trkpt>
      <trkpt lat="41.858133" lon="-8.078483">
        <ele>697.0</ele>
        <time>2010-08-26T19:02:51Z</time>
      </trkpt>
      <trkpt lat="41.858167" lon="-8.078500">
        <ele>697.0</ele>
        <time>2010-08-26T19:02:52Z</time>
      </trkpt>
      <trkpt lat="41.858183" lon="-8.078533">
        <ele>697.0</ele>
        <time>2010-08-26T19:02:53Z</time>
      </trkpt>
      <trkpt lat="41.858217" lon="-8.078550">
        <ele>696.0</ele>
        <time>2010-08-26T19:02:54Z</time>
      </trkpt>
      <trkpt lat="41.858233" lon="-8.078583">
        <ele>696.0</ele>
        <time>2010-08-26T19:02:55Z</time>
      </trkpt>
      <trkpt lat="41.858250" lon="-8.078600">
        <ele>696.0</ele>
        <time>2010-08-26T19:02:56Z</time>
      </trkpt>
      <trkpt lat="41.858283" lon="-8.078633">
        <ele>695.0</ele>
        <time>2010-08-26T19:02:57Z</time>
      </trkpt>
      <trkpt lat="41.858300" lon="-8.078667">
        <ele>695.0</ele>
        <time>2010-08-26T19:02:58Z</time>
      </trkpt>
      <trkpt lat="41.858317" lon="-8.078700">
        <ele>695.0</ele>
        <time>2010-08-26T19:02:59Z</time>
      </trkpt>
      <trkpt lat="41.858350" lon="-8.078733">
        <ele>694.0</ele>
        <time>2010-08-26T19:03:00Z</time>
      </trkpt>
      <trkpt lat="41.858367" lon="-8.078767">
        <ele>694.0</ele>
        <time>2010-08-26T19:03:01Z</time>
      </trkpt>
      <trkpt lat="41.858400" lon="-8.078800">
        <ele>694.0</ele>
        <time>2010-08-26T19:03:02Z</time>
      </trkpt>
      <trkpt lat="41.858417" lon="-8.078817">
        <ele>694.0</ele>
        <time>2010-08-26T19:03:03Z</time>
      </trkpt>
      <trkpt lat="41.858450" lon="-8.078867">
        <ele>694.0</ele>
        <time>2010-08-26T19:03:04Z</time>
      </trkpt>
      <trkpt lat="41.858467" lon="-8.078900">
        <ele>693.0</ele>
        <time>2010-08-26T19:03:05Z</time>
      </trkpt>
      <trkpt lat="41.858500" lon="-8.078933">
        <ele>693.0</ele>
        <time>2010-08-26T19:03:06Z</time>
      </trkpt>
      <trkpt lat="41.858517" lon="-8.078967">
        <ele>693.0</ele>
        <time>2010-08-26T19:03:07Z</time>
      </trkpt>
      <trkpt lat="41.858533" lon="-8.079000">
        <ele>694.0</ele>
        <time>2010-08-26T19:03:08Z</time>
      </trkpt>
      <trkpt lat="41.858567" lon="-8.079033">
        <ele>694.0</ele>
        <time>2010-08-26T19:03:09Z</time>
      </trkpt>
      <trkpt lat="41.858600" lon="-8.079050">
        <ele>694.0</ele>
        <time>2010-08-26T19:03:10Z</time>
      </trkpt>
      <trkpt lat="41.858617" lon="-8.079083">
        <ele>694.0</ele>
        <time>2010-08-26T19:03:11Z</time>
      </trkpt>
      <trkpt lat="41.858650" lon="-8.079117">
        <ele>694.0</ele>
        <time>2010-08-26T19:03:12Z</time>
      </trkpt>
      <trkpt lat="41.858667" lon="-8.079150">
        <ele>694.0</ele>
        <time>2010-08-26T19:03:13Z</time>
      </trkpt>
      <trkpt lat="41.858683" lon="-8.079183">
        <ele>694.0</ele>
        <time>2010-08-26T19:03:14Z</time>
      </trkpt>
      <trkpt lat="41.858700" lon="-8.079200">
        <ele>694.0</ele>
        <time>2010-08-26T19:03:15Z</time>
      </trkpt>
      <trkpt lat="41.858733" lon="-8.079250">
        <ele>695.0</ele>
        <time>2010-08-26T19:03:17Z</time>
      </trkpt>
      <trkpt lat="41.858750" lon="-8.079283">
        <ele>695.0</ele>
        <time>2010-08-26T19:03:19Z</time>
      </trkpt>
      <trkpt lat="41.858767" lon="-8.079333">
        <ele>695.0</ele>
        <time>2010-08-26T19:03:21Z</time>
      </trkpt>
      <trkpt lat="41.858767" lon="-8.079367">
        <ele>696.0</ele>
        <time>2010-08-26T19:03:22Z</time>
      </trkpt>
      <trkpt lat="41.858783" lon="-8.079400">
        <ele>696.0</ele>
        <time>2010-08-26T19:03:23Z</time>
      </trkpt>
      <trkpt lat="41.858800" lon="-8.079433">
        <ele>696.0</ele>
        <time>2010-08-26T19:03:25Z</time>
      </trkpt>
      <trkpt lat="41.858833" lon="-8.079483">
        <ele>696.0</ele>
        <time>2010-08-26T19:03:27Z</time>
      </trkpt>
      <trkpt lat="41.858867" lon="-8.079517">
        <ele>697.0</ele>
        <time>2010-08-26T19:03:30Z</time>
      </trkpt>
      <trkpt lat="41.858900" lon="-8.079550">
        <ele>697.0</ele>
        <time>2010-08-26T19:03:33Z</time>
      </trkpt>
      <trkpt lat="41.858917" lon="-8.079600">
        <ele>698.0</ele>
        <time>2010-08-26T19:03:35Z</time>
      </trkpt>
      <trkpt lat="41.858950" lon="-8.079633">
        <ele>698.0</ele>
        <time>2010-08-26T19:03:38Z</time>
      </trkpt>
      <trkpt lat="41.858967" lon="-8.079683">
        <ele>698.0</ele>
        <time>2010-08-26T19:03:40Z</time>
      </trkpt>
      <trkpt lat="41.858983" lon="-8.079717">
        <ele>699.0</ele>
        <time>2010-08-26T19:03:42Z</time>
      </trkpt>
      <trkpt lat="41.858983" lon="-8.079750">
        <ele>699.0</ele>
        <time>2010-08-26T19:03:44Z</time>
      </trkpt>
      <trkpt lat="41.859000" lon="-8.079800">
        <ele>699.0</ele>
        <time>2010-08-26T19:03:46Z</time>
      </trkpt>
      <trkpt lat="41.859017" lon="-8.079850">
        <ele>699.0</ele>
        <time>2010-08-26T19:03:48Z</time>
      </trkpt>
      <trkpt lat="41.859033" lon="-8.079883">
        <ele>700.0</ele>
        <time>2010-08-26T19:03:50Z</time>
      </trkpt>
      <trkpt lat="41.859050" lon="-8.079933">
        <ele>699.0</ele>
        <time>2010-08-26T19:04:15Z</time>
      </trkpt>
      <trkpt lat="41.859067" lon="-8.079983">
        <ele>699.0</ele>
        <time>2010-08-26T19:04:18Z</time>
      </trkpt>
      <trkpt lat="41.859083" lon="-8.080017">
        <ele>699.0</ele>
        <time>2010-08-26T19:04:20Z</time>
      </trkpt>
      <trkpt lat="41.859100" lon="-8.080067">
        <ele>700.0</ele>
        <time>2010-08-26T19:04:23Z</time>
      </trkpt>
      <trkpt lat="41.859117" lon="-8.080100">
        <ele>701.0</ele>
        <time>2010-08-26T19:04:25Z</time>
      </trkpt>
      <trkpt lat="41.859117" lon="-8.080167">
        <ele>701.0</ele>
        <time>2010-08-26T19:04:27Z</time>
      </trkpt>
      <trkpt lat="41.859133" lon="-8.080217">
        <ele>701.0</ele>
        <time>2010-08-26T19:04:29Z</time>
      </trkpt>
      <trkpt lat="41.859150" lon="-8.080267">
        <ele>702.0</ele>
        <time>2010-08-26T19:04:31Z</time>
      </trkpt>
      <trkpt lat="41.859150" lon="-8.080283">
        <ele>702.0</ele>
        <time>2010-08-26T19:04:32Z</time>
      </trkpt>
      <trkpt lat="41.859167" lon="-8.080317">
        <ele>702.0</ele>
        <time>2010-08-26T19:04:33Z</time>
      </trkpt>
      <trkpt lat="41.859167" lon="-8.080350">
        <ele>703.0</ele>
        <time>2010-08-26T19:04:34Z</time>
      </trkpt>
      <trkpt lat="41.859200" lon="-8.080400">
        <ele>703.0</ele>
        <time>2010-08-26T19:04:36Z</time>
      </trkpt>
      <trkpt lat="41.859217" lon="-8.080433">
        <ele>703.0</ele>
        <time>2010-08-26T19:04:37Z</time>
      </trkpt>
      <trkpt lat="41.859233" lon="-8.080450">
        <ele>703.0</ele>
        <time>2010-08-26T19:04:38Z</time>
      </trkpt>
      <trkpt lat="41.859250" lon="-8.080467">
        <ele>703.0</ele>
        <time>2010-08-26T19:04:39Z</time>
      </trkpt>
      <trkpt lat="41.859267" lon="-8.080500">
        <ele>703.0</ele>
        <time>2010-08-26T19:04:40Z</time>
      </trkpt>
      <trkpt lat="41.859300" lon="-8.080533">
        <ele>703.0</ele>
        <time>2010-08-26T19:04:42Z</time>
      </trkpt>
      <trkpt lat="41.859333" lon="-8.080583">
        <ele>704.0</ele>
        <time>2010-08-26T19:04:44Z</time>
      </trkpt>
      <trkpt lat="41.859350" lon="-8.080600">
        <ele>704.0</ele>
        <time>2010-08-26T19:04:45Z</time>
      </trkpt>
      <trkpt lat="41.859367" lon="-8.080617">
        <ele>704.0</ele>
        <time>2010-08-26T19:04:46Z</time>
      </trkpt>
      <trkpt lat="41.859383" lon="-8.080633">
        <ele>704.0</ele>
        <time>2010-08-26T19:04:47Z</time>
      </trkpt>
      <trkpt lat="41.859400" lon="-8.080650">
        <ele>704.0</ele>
        <time>2010-08-26T19:04:48Z</time>
      </trkpt>
      <trkpt lat="41.859417" lon="-8.080667">
        <ele>704.0</ele>
        <time>2010-08-26T19:04:49Z</time>
      </trkpt>
      <trkpt lat="41.859450" lon="-8.080700">
        <ele>704.0</ele>
        <time>2010-08-26T19:04:51Z</time>
      </trkpt>
      <trkpt lat="41.859483" lon="-8.080733">
        <ele>704.0</ele>
        <time>2010-08-26T19:04:53Z</time>
      </trkpt>
      <trkpt lat="41.859517" lon="-8.080750">
        <ele>703.0</ele>
        <time>2010-08-26T19:05:06Z</time>
      </trkpt>
      <trkpt lat="41.859567" lon="-8.080750">
        <ele>700.0</ele>
        <time>2010-08-26T19:05:49Z</time>
      </trkpt>
      <trkpt lat="41.859600" lon="-8.080783">
        <ele>701.0</ele>
        <time>2010-08-26T19:05:58Z</time>
      </trkpt>
      <trkpt lat="41.859617" lon="-8.080800">
        <ele>701.0</ele>
        <time>2010-08-26T19:05:59Z</time>
      </trkpt>
      <trkpt lat="41.859633" lon="-8.080817">
        <ele>701.0</ele>
        <time>2010-08-26T19:06:00Z</time>
      </trkpt>
      <trkpt lat="41.859650" lon="-8.080850">
        <ele>701.0</ele>
        <time>2010-08-26T19:06:01Z</time>
      </trkpt>
      <trkpt lat="41.859667" lon="-8.080867">
        <ele>701.0</ele>
        <time>2010-08-26T19:06:02Z</time>
      </trkpt>
      <trkpt lat="41.859700" lon="-8.080883">
        <ele>701.0</ele>
        <time>2010-08-26T19:06:03Z</time>
      </trkpt>
      <trkpt lat="41.859717" lon="-8.080900">
        <ele>701.0</ele>
        <time>2010-08-26T19:06:04Z</time>
      </trkpt>
      <trkpt lat="41.859733" lon="-8.080917">
        <ele>701.0</ele>
        <time>2010-08-26T19:06:05Z</time>
      </trkpt>
      <trkpt lat="41.859767" lon="-8.080950">
        <ele>702.0</ele>
        <time>2010-08-26T19:06:06Z</time>
      </trkpt>
      <trkpt lat="41.859783" lon="-8.080967">
        <ele>702.0</ele>
        <time>2010-08-26T19:06:07Z</time>
      </trkpt>
      <trkpt lat="41.859817" lon="-8.080983">
        <ele>702.0</ele>
        <time>2010-08-26T19:06:08Z</time>
      </trkpt>
      <trkpt lat="41.859833" lon="-8.081000">
        <ele>702.0</ele>
        <time>2010-08-26T19:06:09Z</time>
      </trkpt>
      <trkpt lat="41.859850" lon="-8.081033">
        <ele>702.0</ele>
        <time>2010-08-26T19:06:10Z</time>
      </trkpt>
      <trkpt lat="41.859883" lon="-8.081050">
        <ele>702.0</ele>
        <time>2010-08-26T19:06:11Z</time>
      </trkpt>
      <trkpt lat="41.859900" lon="-8.081083">
        <ele>702.0</ele>
        <time>2010-08-26T19:06:12Z</time>
      </trkpt>
      <trkpt lat="41.859933" lon="-8.081100">
        <ele>702.0</ele>
        <time>2010-08-26T19:06:13Z</time>
      </trkpt>
      <trkpt lat="41.859950" lon="-8.081133">
        <ele>703.0</ele>
        <time>2010-08-26T19:06:14Z</time>
      </trkpt>
      <trkpt lat="41.859983" lon="-8.081150">
        <ele>703.0</ele>
        <time>2010-08-26T19:06:15Z</time>
      </trkpt>
      <trkpt lat="41.860000" lon="-8.081183">
        <ele>703.0</ele>
        <time>2010-08-26T19:06:16Z</time>
      </trkpt>
      <trkpt lat="41.860017" lon="-8.081200">
        <ele>703.0</ele>
        <time>2010-08-26T19:06:17Z</time>
      </trkpt>
      <trkpt lat="41.860050" lon="-8.081233">
        <ele>703.0</ele>
        <time>2010-08-26T19:06:18Z</time>
      </trkpt>
      <trkpt lat="41.860067" lon="-8.081250">
        <ele>703.0</ele>
        <time>2010-08-26T19:06:19Z</time>
      </trkpt>
      <trkpt lat="41.860100" lon="-8.081283">
        <ele>703.0</ele>
        <time>2010-08-26T19:06:20Z</time>
      </trkpt>
      <trkpt lat="41.860117" lon="-8.081300">
        <ele>704.0</ele>
        <time>2010-08-26T19:06:21Z</time>
      </trkpt>
      <trkpt lat="41.860150" lon="-8.081333">
        <ele>704.0</ele>
        <time>2010-08-26T19:06:22Z</time>
      </trkpt>
      <trkpt lat="41.860167" lon="-8.081350">
        <ele>704.0</ele>
        <time>2010-08-26T19:06:23Z</time>
      </trkpt>
      <trkpt lat="41.860183" lon="-8.081367">
        <ele>704.0</ele>
        <time>2010-08-26T19:06:24Z</time>
      </trkpt>
      <trkpt lat="41.860200" lon="-8.081383">
        <ele>705.0</ele>
        <time>2010-08-26T19:06:25Z</time>
      </trkpt>
      <trkpt lat="41.860233" lon="-8.081400">
        <ele>705.0</ele>
        <time>2010-08-26T19:06:26Z</time>
      </trkpt>
      <trkpt lat="41.860250" lon="-8.081433">
        <ele>705.0</ele>
        <time>2010-08-26T19:06:27Z</time>
      </trkpt>
      <trkpt lat="41.860267" lon="-8.081450">
        <ele>705.0</ele>
        <time>2010-08-26T19:06:28Z</time>
      </trkpt>
      <trkpt lat="41.860283" lon="-8.081483">
        <ele>705.0</ele>
        <time>2010-08-26T19:06:29Z</time>
      </trkpt>
      <trkpt lat="41.860317" lon="-8.081500">
        <ele>705.0</ele>
        <time>2010-08-26T19:06:30Z</time>
      </trkpt>
      <trkpt lat="41.860333" lon="-8.081517">
        <ele>705.0</ele>
        <time>2010-08-26T19:06:31Z</time>
      </trkpt>
      <trkpt lat="41.860367" lon="-8.081533">
        <ele>705.0</ele>
        <time>2010-08-26T19:06:32Z</time>
      </trkpt>
      <trkpt lat="41.860400" lon="-8.081533">
        <ele>705.0</ele>
        <time>2010-08-26T19:06:33Z</time>
      </trkpt>
      <trkpt lat="41.860417" lon="-8.081550">
        <ele>705.0</ele>
        <time>2010-08-26T19:06:34Z</time>
      </trkpt>
      <trkpt lat="41.860450" lon="-8.081550">
        <ele>705.0</ele>
        <time>2010-08-26T19:06:35Z</time>
      </trkpt>
      <trkpt lat="41.860483" lon="-8.081550">
        <ele>705.0</ele>
        <time>2010-08-26T19:06:36Z</time>
      </trkpt>
      <trkpt lat="41.860517" lon="-8.081567">
        <ele>705.0</ele>
        <time>2010-08-26T19:06:38Z</time>
      </trkpt>
      <trkpt lat="41.860550" lon="-8.081583">
        <ele>705.0</ele>
        <time>2010-08-26T19:06:44Z</time>
      </trkpt>
      <trkpt lat="41.860600" lon="-8.081600">
        <ele>704.0</ele>
        <time>2010-08-26T19:06:48Z</time>
      </trkpt>
      <trkpt lat="41.860633" lon="-8.081617">
        <ele>704.0</ele>
        <time>2010-08-26T19:06:54Z</time>
      </trkpt>
      <trkpt lat="41.860667" lon="-8.081617">
        <ele>704.0</ele>
        <time>2010-08-26T19:06:56Z</time>
      </trkpt>
      <trkpt lat="41.860700" lon="-8.081633">
        <ele>704.0</ele>
        <time>2010-08-26T19:06:58Z</time>
      </trkpt>
      <trkpt lat="41.860733" lon="-8.081650">
        <ele>704.0</ele>
        <time>2010-08-26T19:07:00Z</time>
      </trkpt>
      <trkpt lat="41.860783" lon="-8.081650">
        <ele>704.0</ele>
        <time>2010-08-26T19:07:02Z</time>
      </trkpt>
      <trkpt lat="41.860817" lon="-8.081667">
        <ele>704.0</ele>
        <time>2010-08-26T19:07:04Z</time>
      </trkpt>
      <trkpt lat="41.860867" lon="-8.081683">
        <ele>704.0</ele>
        <time>2010-08-26T19:07:07Z</time>
      </trkpt>
      <trkpt lat="41.860900" lon="-8.081717">
        <ele>705.0</ele>
        <time>2010-08-26T19:07:12Z</time>
      </trkpt>
      <trkpt lat="41.860933" lon="-8.081733">
        <ele>705.0</ele>
        <time>2010-08-26T19:07:14Z</time>
      </trkpt>
      <trkpt lat="41.860967" lon="-8.081750">
        <ele>706.0</ele>
        <time>2010-08-26T19:07:16Z</time>
      </trkpt>
      <trkpt lat="41.861000" lon="-8.081767">
        <ele>707.0</ele>
        <time>2010-08-26T19:07:18Z</time>
      </trkpt>
      <trkpt lat="41.861033" lon="-8.081800">
        <ele>707.0</ele>
        <time>2010-08-26T19:07:21Z</time>
      </trkpt>
      <trkpt lat="41.861067" lon="-8.081817">
        <ele>708.0</ele>
        <time>2010-08-26T19:07:24Z</time>
      </trkpt>
      <trkpt lat="41.861100" lon="-8.081817">
        <ele>709.0</ele>
        <time>2010-08-26T19:07:26Z</time>
      </trkpt>
      <trkpt lat="41.861133" lon="-8.081833">
        <ele>709.0</ele>
        <time>2010-08-26T19:07:27Z</time>
      </trkpt>
      <trkpt lat="41.861150" lon="-8.081833">
        <ele>709.0</ele>
        <time>2010-08-26T19:07:28Z</time>
      </trkpt>
      <trkpt lat="41.861183" lon="-8.081833">
        <ele>709.0</ele>
        <time>2010-08-26T19:07:29Z</time>
      </trkpt>
      <trkpt lat="41.861217" lon="-8.081833">
        <ele>709.0</ele>
        <time>2010-08-26T19:07:30Z</time>
      </trkpt>
      <trkpt lat="41.861250" lon="-8.081833">
        <ele>709.0</ele>
        <time>2010-08-26T19:07:31Z</time>
      </trkpt>
      <trkpt lat="41.861267" lon="-8.081833">
        <ele>708.0</ele>
        <time>2010-08-26T19:07:32Z</time>
      </trkpt>
      <trkpt lat="41.861300" lon="-8.081833">
        <ele>708.0</ele>
        <time>2010-08-26T19:07:33Z</time>
      </trkpt>
      <trkpt lat="41.861333" lon="-8.081833">
        <ele>708.0</ele>
        <time>2010-08-26T19:07:34Z</time>
      </trkpt>
      <trkpt lat="41.861350" lon="-8.081833">
        <ele>708.0</ele>
        <time>2010-08-26T19:07:35Z</time>
      </trkpt>
      <trkpt lat="41.861383" lon="-8.081817">
        <ele>708.0</ele>
        <time>2010-08-26T19:07:36Z</time>
      </trkpt>
      <trkpt lat="41.861417" lon="-8.081800">
        <ele>708.0</ele>
        <time>2010-08-26T19:07:37Z</time>
      </trkpt>
      <trkpt lat="41.861433" lon="-8.081783">
        <ele>708.0</ele>
        <time>2010-08-26T19:07:38Z</time>
      </trkpt>
      <trkpt lat="41.861467" lon="-8.081783">
        <ele>708.0</ele>
        <time>2010-08-26T19:07:39Z</time>
      </trkpt>
      <trkpt lat="41.861483" lon="-8.081767">
        <ele>708.0</ele>
        <time>2010-08-26T19:07:40Z</time>
      </trkpt>
      <trkpt lat="41.861517" lon="-8.081767">
        <ele>708.0</ele>
        <time>2010-08-26T19:07:41Z</time>
      </trkpt>
      <trkpt lat="41.861550" lon="-8.081767">
        <ele>708.0</ele>
        <time>2010-08-26T19:07:42Z</time>
      </trkpt>
      <trkpt lat="41.861583" lon="-8.081767">
        <ele>707.0</ele>
        <time>2010-08-26T19:07:43Z</time>
      </trkpt>
      <trkpt lat="41.861617" lon="-8.081767">
        <ele>707.0</ele>
        <time>2010-08-26T19:07:44Z</time>
      </trkpt>
      <trkpt lat="41.861667" lon="-8.081783">
        <ele>707.0</ele>
        <time>2010-08-26T19:07:45Z</time>
      </trkpt>
      <trkpt lat="41.861700" lon="-8.081800">
        <ele>706.0</ele>
        <time>2010-08-26T19:07:46Z</time>
      </trkpt>
      <trkpt lat="41.861750" lon="-8.081817">
        <ele>706.0</ele>
        <time>2010-08-26T19:07:47Z</time>
      </trkpt>
      <trkpt lat="41.861783" lon="-8.081850">
        <ele>706.0</ele>
        <time>2010-08-26T19:07:48Z</time>
      </trkpt>
      <trkpt lat="41.861817" lon="-8.081867">
        <ele>706.0</ele>
        <time>2010-08-26T19:07:49Z</time>
      </trkpt>
      <trkpt lat="41.861850" lon="-8.081883">
        <ele>706.0</ele>
        <time>2010-08-26T19:07:50Z</time>
      </trkpt>
      <trkpt lat="41.861883" lon="-8.081883">
        <ele>705.0</ele>
        <time>2010-08-26T19:07:51Z</time>
      </trkpt>
      <trkpt lat="41.861900" lon="-8.081900">
        <ele>705.0</ele>
        <time>2010-08-26T19:07:52Z</time>
      </trkpt>
      <trkpt lat="41.861933" lon="-8.081900">
        <ele>705.0</ele>
        <time>2010-08-26T19:07:53Z</time>
      </trkpt>
      <trkpt lat="41.861967" lon="-8.081900">
        <ele>705.0</ele>
        <time>2010-08-26T19:07:54Z</time>
      </trkpt>
      <trkpt lat="41.861983" lon="-8.081900">
        <ele>705.0</ele>
        <time>2010-08-26T19:07:55Z</time>
      </trkpt>
      <trkpt lat="41.862017" lon="-8.081900">
        <ele>705.0</ele>
        <time>2010-08-26T19:07:56Z</time>
      </trkpt>
      <trkpt lat="41.862050" lon="-8.081900">
        <ele>705.0</ele>
        <time>2010-08-26T19:07:57Z</time>
      </trkpt>
      <trkpt lat="41.862067" lon="-8.081917">
        <ele>705.0</ele>
        <time>2010-08-26T19:07:58Z</time>
      </trkpt>
      <trkpt lat="41.862117" lon="-8.081917">
        <ele>705.0</ele>
        <time>2010-08-26T19:08:00Z</time>
      </trkpt>
      <trkpt lat="41.862150" lon="-8.081933">
        <ele>706.0</ele>
        <time>2010-08-26T19:08:02Z</time>
      </trkpt>
      <trkpt lat="41.862183" lon="-8.081933">
        <ele>706.0</ele>
        <time>2010-08-26T19:08:04Z</time>
      </trkpt>
      <trkpt lat="41.862217" lon="-8.081967">
        <ele>708.0</ele>
        <time>2010-08-26T19:08:38Z</time>
      </trkpt>
      <trkpt lat="41.862267" lon="-8.081967">
        <ele>709.0</ele>
        <time>2010-08-26T19:08:42Z</time>
      </trkpt>
      <trkpt lat="41.862300" lon="-8.081967">
        <ele>710.0</ele>
        <time>2010-08-26T19:08:46Z</time>
      </trkpt>
      <trkpt lat="41.862333" lon="-8.081983">
        <ele>710.0</ele>
        <time>2010-08-26T19:08:48Z</time>
      </trkpt>
      <trkpt lat="41.862367" lon="-8.082000">
        <ele>710.0</ele>
        <time>2010-08-26T19:08:49Z</time>
      </trkpt>
      <trkpt lat="41.862383" lon="-8.082017">
        <ele>710.0</ele>
        <time>2010-08-26T19:08:50Z</time>
      </trkpt>
      <trkpt lat="41.862400" lon="-8.082067">
        <ele>710.0</ele>
        <time>2010-08-26T19:08:59Z</time>
      </trkpt>
      <trkpt lat="41.862400" lon="-8.082117">
        <ele>714.0</ele>
        <time>2010-08-26T19:10:10Z</time>
      </trkpt>
      <trkpt lat="41.862367" lon="-8.082150">
        <ele>715.0</ele>
        <time>2010-08-26T19:10:13Z</time>
      </trkpt>
      <trkpt lat="41.862350" lon="-8.082183">
        <ele>715.0</ele>
        <time>2010-08-26T19:10:15Z</time>
      </trkpt>
      <trkpt lat="41.862333" lon="-8.082217">
        <ele>716.0</ele>
        <time>2010-08-26T19:10:17Z</time>
      </trkpt>
      <trkpt lat="41.862300" lon="-8.082233">
        <ele>717.0</ele>
        <time>2010-08-26T19:10:19Z</time>
      </trkpt>
      <trkpt lat="41.862283" lon="-8.082267">
        <ele>717.0</ele>
        <time>2010-08-26T19:10:21Z</time>
      </trkpt>
      <trkpt lat="41.862250" lon="-8.082300">
        <ele>717.0</ele>
        <time>2010-08-26T19:10:23Z</time>
      </trkpt>
      <trkpt lat="41.862233" lon="-8.082317">
        <ele>718.0</ele>
        <time>2010-08-26T19:10:25Z</time>
      </trkpt>
      <trkpt lat="41.862183" lon="-8.082350">
        <ele>719.0</ele>
        <time>2010-08-26T19:10:31Z</time>
      </trkpt>
      <trkpt lat="41.862183" lon="-8.082400">
        <ele>716.0</ele>
        <time>2010-08-26T19:10:54Z</time>
      </trkpt>
      <trkpt lat="41.862167" lon="-8.082450">
        <ele>717.0</ele>
        <time>2010-08-26T19:10:58Z</time>
      </trkpt>
      <trkpt lat="41.862183" lon="-8.082500">
        <ele>718.0</ele>
        <time>2010-08-26T19:11:02Z</time>
      </trkpt>
      <trkpt lat="41.862217" lon="-8.082533">
        <ele>719.0</ele>
        <time>2010-08-26T19:11:06Z</time>
      </trkpt>
      <trkpt lat="41.862233" lon="-8.082583">
        <ele>720.0</ele>
        <time>2010-08-26T19:11:10Z</time>
      </trkpt>
      <trkpt lat="41.862267" lon="-8.082617">
        <ele>720.0</ele>
        <time>2010-08-26T19:11:14Z</time>
      </trkpt>
      <trkpt lat="41.862300" lon="-8.082650">
        <ele>721.0</ele>
        <time>2010-08-26T19:11:18Z</time>
      </trkpt>
      <trkpt lat="41.862333" lon="-8.082667">
        <ele>722.0</ele>
        <time>2010-08-26T19:11:22Z</time>
      </trkpt>
      <trkpt lat="41.862367" lon="-8.082700">
        <ele>723.0</ele>
        <time>2010-08-26T19:11:26Z</time>
      </trkpt>
      <trkpt lat="41.862417" lon="-8.082700">
        <ele>723.0</ele>
        <time>2010-08-26T19:11:30Z</time>
      </trkpt>
      <trkpt lat="41.862450" lon="-8.082717">
        <ele>724.0</ele>
        <time>2010-08-26T19:11:34Z</time>
      </trkpt>
      <trkpt lat="41.862483" lon="-8.082717">
        <ele>724.0</ele>
        <time>2010-08-26T19:11:38Z</time>
      </trkpt>
      <trkpt lat="41.862533" lon="-8.082717">
        <ele>724.0</ele>
        <time>2010-08-26T19:11:42Z</time>
      </trkpt>
      <trkpt lat="41.862567" lon="-8.082733">
        <ele>724.0</ele>
        <time>2010-08-26T19:11:47Z</time>
      </trkpt>
      <trkpt lat="41.862600" lon="-8.082767">
        <ele>724.0</ele>
        <time>2010-08-26T19:11:51Z</time>
      </trkpt>
      <trkpt lat="41.862633" lon="-8.082800">
        <ele>725.0</ele>
        <time>2010-08-26T19:11:55Z</time>
      </trkpt>
      <trkpt lat="41.862650" lon="-8.082850">
        <ele>726.0</ele>
        <time>2010-08-26T19:12:00Z</time>
      </trkpt>
      <trkpt lat="41.862667" lon="-8.082900">
        <ele>727.0</ele>
        <time>2010-08-26T19:12:06Z</time>
      </trkpt>
      <trkpt lat="41.862683" lon="-8.082950">
        <ele>729.0</ele>
        <time>2010-08-26T19:12:11Z</time>
      </trkpt>
      <trkpt lat="41.862717" lon="-8.082967">
        <ele>730.0</ele>
        <time>2010-08-26T19:12:17Z</time>
      </trkpt>
      <trkpt lat="41.862750" lon="-8.083017">
        <ele>731.0</ele>
        <time>2010-08-26T19:12:23Z</time>
      </trkpt>
      <trkpt lat="41.862767" lon="-8.083067">
        <ele>732.0</ele>
        <time>2010-08-26T19:12:29Z</time>
      </trkpt>
      <trkpt lat="41.862783" lon="-8.083117">
        <ele>734.0</ele>
        <time>2010-08-26T19:12:35Z</time>
      </trkpt>
      <trkpt lat="41.862783" lon="-8.083167">
        <ele>735.0</ele>
        <time>2010-08-26T19:12:42Z</time>
      </trkpt>
      <trkpt lat="41.862783" lon="-8.083233">
        <ele>736.0</ele>
        <time>2010-08-26T19:12:47Z</time>
      </trkpt>
      <trkpt lat="41.862800" lon="-8.083283">
        <ele>737.0</ele>
        <time>2010-08-26T19:12:52Z</time>
      </trkpt>
      <trkpt lat="41.862800" lon="-8.083333">
        <ele>738.0</ele>
        <time>2010-08-26T19:13:01Z</time>
      </trkpt>
      <trkpt lat="41.862817" lon="-8.083383">
        <ele>739.0</ele>
        <time>2010-08-26T19:13:04Z</time>
      </trkpt>
      <trkpt lat="41.862817" lon="-8.083433">
        <ele>739.0</ele>
        <time>2010-08-26T19:13:07Z</time>
      </trkpt>
      <trkpt lat="41.862833" lon="-8.083483">
        <ele>739.0</ele>
        <time>2010-08-26T19:13:21Z</time>
      </trkpt>
      <trkpt lat="41.862850" lon="-8.083517">
        <ele>740.0</ele>
        <time>2010-08-26T19:13:23Z</time>
      </trkpt>
      <trkpt lat="41.862883" lon="-8.083567">
        <ele>740.0</ele>
        <time>2010-08-26T19:13:25Z</time>
      </trkpt>
      <trkpt lat="41.862900" lon="-8.083600">
        <ele>740.0</ele>
        <time>2010-08-26T19:13:27Z</time>
      </trkpt>
      <trkpt lat="41.862917" lon="-8.083633">
        <ele>740.0</ele>
        <time>2010-08-26T19:13:29Z</time>
      </trkpt>
      <trkpt lat="41.862933" lon="-8.083683">
        <ele>740.0</ele>
        <time>2010-08-26T19:13:31Z</time>
      </trkpt>
      <trkpt lat="41.862967" lon="-8.083733">
        <ele>740.0</ele>
        <time>2010-08-26T19:13:34Z</time>
      </trkpt>
      <trkpt lat="41.862983" lon="-8.083783">
        <ele>735.0</ele>
        <time>2010-08-26T19:14:25Z</time>
      </trkpt>
      <trkpt lat="41.863000" lon="-8.083817">
        <ele>736.0</ele>
        <time>2010-08-26T19:14:27Z</time>
      </trkpt>
      <trkpt lat="41.863017" lon="-8.083850">
        <ele>736.0</ele>
        <time>2010-08-26T19:14:28Z</time>
      </trkpt>
      <trkpt lat="41.863033" lon="-8.083883">
        <ele>736.0</ele>
        <time>2010-08-26T19:14:29Z</time>
      </trkpt>
      <trkpt lat="41.863050" lon="-8.083917">
        <ele>736.0</ele>
        <time>2010-08-26T19:14:30Z</time>
      </trkpt>
      <trkpt lat="41.863067" lon="-8.083950">
        <ele>735.0</ele>
        <time>2010-08-26T19:14:31Z</time>
      </trkpt>
      <trkpt lat="41.863083" lon="-8.084000">
        <ele>735.0</ele>
        <time>2010-08-26T19:14:32Z</time>
      </trkpt>
      <trkpt lat="41.863100" lon="-8.084033">
        <ele>735.0</ele>
        <time>2010-08-26T19:14:33Z</time>
      </trkpt>
      <trkpt lat="41.863117" lon="-8.084067">
        <ele>735.0</ele>
        <time>2010-08-26T19:14:34Z</time>
      </trkpt>
      <trkpt lat="41.863133" lon="-8.084117">
        <ele>735.0</ele>
        <time>2010-08-26T19:14:35Z</time>
      </trkpt>
      <trkpt lat="41.863150" lon="-8.084150">
        <ele>735.0</ele>
        <time>2010-08-26T19:14:36Z</time>
      </trkpt>
      <trkpt lat="41.863167" lon="-8.084183">
        <ele>735.0</ele>
        <time>2010-08-26T19:14:37Z</time>
      </trkpt>
      <trkpt lat="41.863200" lon="-8.084217">
        <ele>735.0</ele>
        <time>2010-08-26T19:14:38Z</time>
      </trkpt>
      <trkpt lat="41.863217" lon="-8.084250">
        <ele>735.0</ele>
        <time>2010-08-26T19:14:39Z</time>
      </trkpt>
      <trkpt lat="41.863233" lon="-8.084283">
        <ele>735.0</ele>
        <time>2010-08-26T19:14:40Z</time>
      </trkpt>
      <trkpt lat="41.863250" lon="-8.084317">
        <ele>735.0</ele>
        <time>2010-08-26T19:14:41Z</time>
      </trkpt>
      <trkpt lat="41.863267" lon="-8.084333">
        <ele>735.0</ele>
        <time>2010-08-26T19:14:42Z</time>
      </trkpt>
      <trkpt lat="41.863283" lon="-8.084383">
        <ele>735.0</ele>
        <time>2010-08-26T19:14:44Z</time>
      </trkpt>
      <trkpt lat="41.863300" lon="-8.084417">
        <ele>735.0</ele>
        <time>2010-08-26T19:14:45Z</time>
      </trkpt>
      <trkpt lat="41.863317" lon="-8.084450">
        <ele>735.0</ele>
        <time>2010-08-26T19:14:46Z</time>
      </trkpt>
      <trkpt lat="41.863317" lon="-8.084467">
        <ele>735.0</ele>
        <time>2010-08-26T19:14:47Z</time>
      </trkpt>
      <trkpt lat="41.863333" lon="-8.084500">
        <ele>735.0</ele>
        <time>2010-08-26T19:14:48Z</time>
      </trkpt>
      <trkpt lat="41.863333" lon="-8.084533">
        <ele>735.0</ele>
        <time>2010-08-26T19:14:49Z</time>
      </trkpt>
      <trkpt lat="41.863350" lon="-8.084567">
        <ele>735.0</ele>
        <time>2010-08-26T19:14:50Z</time>
      </trkpt>
      <trkpt lat="41.863350" lon="-8.084600">
        <ele>735.0</ele>
        <time>2010-08-26T19:14:51Z</time>
      </trkpt>
      <trkpt lat="41.863367" lon="-8.084633">
        <ele>735.0</ele>
        <time>2010-08-26T19:14:52Z</time>
      </trkpt>
      <trkpt lat="41.863367" lon="-8.084667">
        <ele>735.0</ele>
        <time>2010-08-26T19:14:53Z</time>
      </trkpt>
      <trkpt lat="41.863367" lon="-8.084700">
        <ele>735.0</ele>
        <time>2010-08-26T19:14:54Z</time>
      </trkpt>
      <trkpt lat="41.863383" lon="-8.084750">
        <ele>735.0</ele>
        <time>2010-08-26T19:14:55Z</time>
      </trkpt>
      <trkpt lat="41.863383" lon="-8.084783">
        <ele>735.0</ele>
        <time>2010-08-26T19:14:56Z</time>
      </trkpt>
      <trkpt lat="41.863400" lon="-8.084833">
        <ele>735.0</ele>
        <time>2010-08-26T19:14:57Z</time>
      </trkpt>
      <trkpt lat="41.863400" lon="-8.084867">
        <ele>735.0</ele>
        <time>2010-08-26T19:14:58Z</time>
      </trkpt>
      <trkpt lat="41.863417" lon="-8.084917">
        <ele>735.0</ele>
        <time>2010-08-26T19:14:59Z</time>
      </trkpt>
      <trkpt lat="41.863433" lon="-8.084950">
        <ele>736.0</ele>
        <time>2010-08-26T19:15:00Z</time>
      </trkpt>
      <trkpt lat="41.863433" lon="-8.085000">
        <ele>736.0</ele>
        <time>2010-08-26T19:15:01Z</time>
      </trkpt>
      <trkpt lat="41.863450" lon="-8.085033">
        <ele>736.0</ele>
        <time>2010-08-26T19:15:02Z</time>
      </trkpt>
      <trkpt lat="41.863450" lon="-8.085067">
        <ele>736.0</ele>
        <time>2010-08-26T19:15:03Z</time>
      </trkpt>
      <trkpt lat="41.863467" lon="-8.085100">
        <ele>736.0</ele>
        <time>2010-08-26T19:15:04Z</time>
      </trkpt>
      <trkpt lat="41.863467" lon="-8.085150">
        <ele>736.0</ele>
        <time>2010-08-26T19:15:05Z</time>
      </trkpt>
      <trkpt lat="41.863483" lon="-8.085167">
        <ele>736.0</ele>
        <time>2010-08-26T19:15:06Z</time>
      </trkpt>
      <trkpt lat="41.863483" lon="-8.085200">
        <ele>736.0</ele>
        <time>2010-08-26T19:15:07Z</time>
      </trkpt>
      <trkpt lat="41.863500" lon="-8.085267">
        <ele>736.0</ele>
        <time>2010-08-26T19:15:09Z</time>
      </trkpt>
      <trkpt lat="41.863517" lon="-8.085317">
        <ele>736.0</ele>
        <time>2010-08-26T19:15:11Z</time>
      </trkpt>
      <trkpt lat="41.863517" lon="-8.085367">
        <ele>737.0</ele>
        <time>2010-08-26T19:15:13Z</time>
      </trkpt>
      <trkpt lat="41.863533" lon="-8.085417">
        <ele>737.0</ele>
        <time>2010-08-26T19:15:15Z</time>
      </trkpt>
      <trkpt lat="41.863533" lon="-8.085467">
        <ele>737.0</ele>
        <time>2010-08-26T19:15:17Z</time>
      </trkpt>
      <trkpt lat="41.863533" lon="-8.085517">
        <ele>737.0</ele>
        <time>2010-08-26T19:15:19Z</time>
      </trkpt>
      <trkpt lat="41.863550" lon="-8.085550">
        <ele>737.0</ele>
        <time>2010-08-26T19:15:20Z</time>
      </trkpt>
      <trkpt lat="41.863550" lon="-8.085583">
        <ele>736.0</ele>
        <time>2010-08-26T19:15:21Z</time>
      </trkpt>
      <trkpt lat="41.863550" lon="-8.085633">
        <ele>736.0</ele>
        <time>2010-08-26T19:15:22Z</time>
      </trkpt>
      <trkpt lat="41.863550" lon="-8.085667">
        <ele>736.0</ele>
        <time>2010-08-26T19:15:23Z</time>
      </trkpt>
      <trkpt lat="41.863550" lon="-8.085717">
        <ele>736.0</ele>
        <time>2010-08-26T19:15:24Z</time>
      </trkpt>
      <trkpt lat="41.863550" lon="-8.085783">
        <ele>736.0</ele>
        <time>2010-08-26T19:15:25Z</time>
      </trkpt>
      <trkpt lat="41.863550" lon="-8.085833">
        <ele>736.0</ele>
        <time>2010-08-26T19:15:26Z</time>
      </trkpt>
      <trkpt lat="41.863533" lon="-8.085900">
        <ele>735.0</ele>
        <time>2010-08-26T19:15:27Z</time>
      </trkpt>
      <trkpt lat="41.863517" lon="-8.085967">
        <ele>735.0</ele>
        <time>2010-08-26T19:15:28Z</time>
      </trkpt>
      <trkpt lat="41.863517" lon="-8.086033">
        <ele>735.0</ele>
        <time>2010-08-26T19:15:29Z</time>
      </trkpt>
      <trkpt lat="41.863500" lon="-8.086100">
        <ele>735.0</ele>
        <time>2010-08-26T19:15:30Z</time>
      </trkpt>
      <trkpt lat="41.863500" lon="-8.086167">
        <ele>734.0</ele>
        <time>2010-08-26T19:15:31Z</time>
      </trkpt>
      <trkpt lat="41.863517" lon="-8.086250">
        <ele>734.0</ele>
        <time>2010-08-26T19:15:32Z</time>
      </trkpt>
      <trkpt lat="41.863550" lon="-8.086300">
        <ele>734.0</ele>
        <time>2010-08-26T19:15:33Z</time>
      </trkpt>
      <trkpt lat="41.863600" lon="-8.086350">
        <ele>734.0</ele>
        <time>2010-08-26T19:15:34Z</time>
      </trkpt>
      <trkpt lat="41.863650" lon="-8.086400">
        <ele>733.0</ele>
        <time>2010-08-26T19:15:35Z</time>
      </trkpt>
      <trkpt lat="41.863700" lon="-8.086417">
        <ele>733.0</ele>
        <time>2010-08-26T19:15:36Z</time>
      </trkpt>
      <trkpt lat="41.863750" lon="-8.086450">
        <ele>733.0</ele>
        <time>2010-08-26T19:15:37Z</time>
      </trkpt>
      <trkpt lat="41.863800" lon="-8.086483">
        <ele>733.0</ele>
        <time>2010-08-26T19:15:38Z</time>
      </trkpt>
      <trkpt lat="41.863867" lon="-8.086500">
        <ele>733.0</ele>
        <time>2010-08-26T19:15:39Z</time>
      </trkpt>
      <trkpt lat="41.863917" lon="-8.086500">
        <ele>733.0</ele>
        <time>2010-08-26T19:15:40Z</time>
      </trkpt>
      <trkpt lat="41.863967" lon="-8.086517">
        <ele>733.0</ele>
        <time>2010-08-26T19:15:41Z</time>
      </trkpt>
      <trkpt lat="41.864017" lon="-8.086533">
        <ele>733.0</ele>
        <time>2010-08-26T19:15:42Z</time>
      </trkpt>
      <trkpt lat="41.864083" lon="-8.086550">
        <ele>733.0</ele>
        <time>2010-08-26T19:15:43Z</time>
      </trkpt>
      <trkpt lat="41.864133" lon="-8.086567">
        <ele>733.0</ele>
        <time>2010-08-26T19:15:44Z</time>
      </trkpt>
      <trkpt lat="41.864183" lon="-8.086583">
        <ele>733.0</ele>
        <time>2010-08-26T19:15:45Z</time>
      </trkpt>
      <trkpt lat="41.864233" lon="-8.086600">
        <ele>733.0</ele>
        <time>2010-08-26T19:15:46Z</time>
      </trkpt>
      <trkpt lat="41.864283" lon="-8.086617">
        <ele>733.0</ele>
        <time>2010-08-26T19:15:47Z</time>
      </trkpt>
      <trkpt lat="41.864317" lon="-8.086650">
        <ele>733.0</ele>
        <time>2010-08-26T19:15:48Z</time>
      </trkpt>
      <trkpt lat="41.864367" lon="-8.086683">
        <ele>733.0</ele>
        <time>2010-08-26T19:15:49Z</time>
      </trkpt>
      <trkpt lat="41.864400" lon="-8.086717">
        <ele>733.0</ele>
        <time>2010-08-26T19:15:50Z</time>
      </trkpt>
      <trkpt lat="41.864433" lon="-8.086750">
        <ele>733.0</ele>
        <time>2010-08-26T19:15:51Z</time>
      </trkpt>
      <trkpt lat="41.864467" lon="-8.086800">
        <ele>733.0</ele>
        <time>2010-08-26T19:15:52Z</time>
      </trkpt>
      <trkpt lat="41.864483" lon="-8.086850">
        <ele>733.0</ele>
        <time>2010-08-26T19:15:53Z</time>
      </trkpt>
      <trkpt lat="41.864500" lon="-8.086900">
        <ele>733.0</ele>
        <time>2010-08-26T19:15:54Z</time>
      </trkpt>
      <trkpt lat="41.864533" lon="-8.086950">
        <ele>733.0</ele>
        <time>2010-08-26T19:15:55Z</time>
      </trkpt>
      <trkpt lat="41.864550" lon="-8.087017">
        <ele>733.0</ele>
        <time>2010-08-26T19:15:56Z</time>
      </trkpt>
      <trkpt lat="41.864583" lon="-8.087067">
        <ele>733.0</ele>
        <time>2010-08-26T19:15:57Z</time>
      </trkpt>
      <trkpt lat="41.864617" lon="-8.087133">
        <ele>732.0</ele>
        <time>2010-08-26T19:15:58Z</time>
      </trkpt>
      <trkpt lat="41.864650" lon="-8.087167">
        <ele>732.0</ele>
        <time>2010-08-26T19:15:59Z</time>
      </trkpt>
      <trkpt lat="41.864683" lon="-8.087200">
        <ele>732.0</ele>
        <time>2010-08-26T19:16:00Z</time>
      </trkpt>
      <trkpt lat="41.864717" lon="-8.087217">
        <ele>731.0</ele>
        <time>2010-08-26T19:16:01Z</time>
      </trkpt>
      <trkpt lat="41.864767" lon="-8.087233">
        <ele>731.0</ele>
        <time>2010-08-26T19:16:03Z</time>
      </trkpt>
      <trkpt lat="41.864800" lon="-8.087233">
        <ele>731.0</ele>
        <time>2010-08-26T19:16:05Z</time>
      </trkpt>
      <trkpt lat="41.864833" lon="-8.087233">
        <ele>731.0</ele>
        <time>2010-08-26T19:16:06Z</time>
      </trkpt>
      <trkpt lat="41.864850" lon="-8.087233">
        <ele>730.0</ele>
        <time>2010-08-26T19:16:07Z</time>
      </trkpt>
      <trkpt lat="41.864883" lon="-8.087233">
        <ele>730.0</ele>
        <time>2010-08-26T19:16:08Z</time>
      </trkpt>
      <trkpt lat="41.864917" lon="-8.087250">
        <ele>730.0</ele>
        <time>2010-08-26T19:16:09Z</time>
      </trkpt>
      <trkpt lat="41.864967" lon="-8.087250">
        <ele>730.0</ele>
        <time>2010-08-26T19:16:10Z</time>
      </trkpt>
      <trkpt lat="41.865017" lon="-8.087250">
        <ele>730.0</ele>
        <time>2010-08-26T19:16:11Z</time>
      </trkpt>
      <trkpt lat="41.865067" lon="-8.087267">
        <ele>730.0</ele>
        <time>2010-08-26T19:16:12Z</time>
      </trkpt>
      <trkpt lat="41.865117" lon="-8.087267">
        <ele>729.0</ele>
        <time>2010-08-26T19:16:13Z</time>
      </trkpt>
      <trkpt lat="41.865167" lon="-8.087300">
        <ele>729.0</ele>
        <time>2010-08-26T19:16:14Z</time>
      </trkpt>
      <trkpt lat="41.865217" lon="-8.087317">
        <ele>729.0</ele>
        <time>2010-08-26T19:16:15Z</time>
      </trkpt>
      <trkpt lat="41.865267" lon="-8.087333">
        <ele>728.0</ele>
        <time>2010-08-26T19:16:16Z</time>
      </trkpt>
      <trkpt lat="41.865317" lon="-8.087367">
        <ele>728.0</ele>
        <time>2010-08-26T19:16:17Z</time>
      </trkpt>
      <trkpt lat="41.865367" lon="-8.087383">
        <ele>727.0</ele>
        <time>2010-08-26T19:16:18Z</time>
      </trkpt>
      <trkpt lat="41.865417" lon="-8.087417">
        <ele>727.0</ele>
        <time>2010-08-26T19:16:19Z</time>
      </trkpt>
      <trkpt lat="41.865467" lon="-8.087450">
        <ele>727.0</ele>
        <time>2010-08-26T19:16:20Z</time>
      </trkpt>
      <trkpt lat="41.865500" lon="-8.087483">
        <ele>726.0</ele>
        <time>2010-08-26T19:16:21Z</time>
      </trkpt>
      <trkpt lat="41.865550" lon="-8.087533">
        <ele>726.0</ele>
        <time>2010-08-26T19:16:22Z</time>
      </trkpt>
      <trkpt lat="41.865583" lon="-8.087567">
        <ele>725.0</ele>
        <time>2010-08-26T19:16:23Z</time>
      </trkpt>
      <trkpt lat="41.865617" lon="-8.087617">
        <ele>725.0</ele>
        <time>2010-08-26T19:16:24Z</time>
      </trkpt>
      <trkpt lat="41.865650" lon="-8.087683">
        <ele>725.0</ele>
        <time>2010-08-26T19:16:25Z</time>
      </trkpt>
      <trkpt lat="41.865650" lon="-8.087733">
        <ele>724.0</ele>
        <time>2010-08-26T19:16:26Z</time>
      </trkpt>
      <trkpt lat="41.865667" lon="-8.087800">
        <ele>724.0</ele>
        <time>2010-08-26T19:16:27Z</time>
      </trkpt>
      <trkpt lat="41.865667" lon="-8.087867">
        <ele>724.0</ele>
        <time>2010-08-26T19:16:28Z</time>
      </trkpt>
      <trkpt lat="41.865650" lon="-8.087933">
        <ele>723.0</ele>
        <time>2010-08-26T19:16:29Z</time>
      </trkpt>
      <trkpt lat="41.865650" lon="-8.088000">
        <ele>723.0</ele>
        <time>2010-08-26T19:16:30Z</time>
      </trkpt>
      <trkpt lat="41.865650" lon="-8.088067">
        <ele>722.0</ele>
        <time>2010-08-26T19:16:31Z</time>
      </trkpt>
      <trkpt lat="41.865650" lon="-8.088150">
        <ele>722.0</ele>
        <time>2010-08-26T19:16:32Z</time>
      </trkpt>
      <trkpt lat="41.865650" lon="-8.088217">
        <ele>722.0</ele>
        <time>2010-08-26T19:16:33Z</time>
      </trkpt>
      <trkpt lat="41.865633" lon="-8.088283">
        <ele>721.0</ele>
        <time>2010-08-26T19:16:34Z</time>
      </trkpt>
      <trkpt lat="41.865633" lon="-8.088367">
        <ele>721.0</ele>
        <time>2010-08-26T19:16:35Z</time>
      </trkpt>
      <trkpt lat="41.865633" lon="-8.088450">
        <ele>720.0</ele>
        <time>2010-08-26T19:16:36Z</time>
      </trkpt>
      <trkpt lat="41.865633" lon="-8.088533">
        <ele>720.0</ele>
        <time>2010-08-26T19:16:37Z</time>
      </trkpt>
      <trkpt lat="41.865650" lon="-8.088617">
        <ele>719.0</ele>
        <time>2010-08-26T19:16:38Z</time>
      </trkpt>
      <trkpt lat="41.865683" lon="-8.088683">
        <ele>718.0</ele>
        <time>2010-08-26T19:16:39Z</time>
      </trkpt>
      <trkpt lat="41.865717" lon="-8.088733">
        <ele>718.0</ele>
        <time>2010-08-26T19:16:40Z</time>
      </trkpt>
      <trkpt lat="41.865783" lon="-8.088750">
        <ele>717.0</ele>
        <time>2010-08-26T19:16:41Z</time>
      </trkpt>
      <trkpt lat="41.865833" lon="-8.088767">
        <ele>717.0</ele>
        <time>2010-08-26T19:16:42Z</time>
      </trkpt>
      <trkpt lat="41.865900" lon="-8.088783">
        <ele>716.0</ele>
        <time>2010-08-26T19:16:43Z</time>
      </trkpt>
      <trkpt lat="41.865950" lon="-8.088800">
        <ele>716.0</ele>
        <time>2010-08-26T19:16:44Z</time>
      </trkpt>
      <trkpt lat="41.866000" lon="-8.088833">
        <ele>716.0</ele>
        <time>2010-08-26T19:16:45Z</time>
      </trkpt>
      <trkpt lat="41.866033" lon="-8.088867">
        <ele>715.0</ele>
        <time>2010-08-26T19:16:46Z</time>
      </trkpt>
      <trkpt lat="41.866067" lon="-8.088917">
        <ele>715.0</ele>
        <time>2010-08-26T19:16:47Z</time>
      </trkpt>
      <trkpt lat="41.866100" lon="-8.088983">
        <ele>715.0</ele>
        <time>2010-08-26T19:16:48Z</time>
      </trkpt>
      <trkpt lat="41.866117" lon="-8.089050">
        <ele>715.0</ele>
        <time>2010-08-26T19:16:49Z</time>
      </trkpt>
      <trkpt lat="41.866133" lon="-8.089100">
        <ele>715.0</ele>
        <time>2010-08-26T19:16:50Z</time>
      </trkpt>
      <trkpt lat="41.866150" lon="-8.089167">
        <ele>714.0</ele>
        <time>2010-08-26T19:16:51Z</time>
      </trkpt>
      <trkpt lat="41.866183" lon="-8.089233">
        <ele>714.0</ele>
        <time>2010-08-26T19:16:52Z</time>
      </trkpt>
      <trkpt lat="41.866217" lon="-8.089283">
        <ele>714.0</ele>
        <time>2010-08-26T19:16:53Z</time>
      </trkpt>
      <trkpt lat="41.866250" lon="-8.089333">
        <ele>714.0</ele>
        <time>2010-08-26T19:16:54Z</time>
      </trkpt>
      <trkpt lat="41.866283" lon="-8.089367">
        <ele>714.0</ele>
        <time>2010-08-26T19:16:55Z</time>
      </trkpt>
      <trkpt lat="41.866333" lon="-8.089400">
        <ele>714.0</ele>
        <time>2010-08-26T19:16:56Z</time>
      </trkpt>
      <trkpt lat="41.866383" lon="-8.089417">
        <ele>714.0</ele>
        <time>2010-08-26T19:16:57Z</time>
      </trkpt>
      <trkpt lat="41.866433" lon="-8.089417">
        <ele>714.0</ele>
        <time>2010-08-26T19:16:58Z</time>
      </trkpt>
      <trkpt lat="41.866467" lon="-8.089400">
        <ele>714.0</ele>
        <time>2010-08-26T19:16:59Z</time>
      </trkpt>
      <trkpt lat="41.866517" lon="-8.089383">
        <ele>714.0</ele>
        <time>2010-08-26T19:17:00Z</time>
      </trkpt>
      <trkpt lat="41.866567" lon="-8.089383">
        <ele>714.0</ele>
        <time>2010-08-26T19:17:01Z</time>
      </trkpt>
      <trkpt lat="41.866617" lon="-8.089383">
        <ele>714.0</ele>
        <time>2010-08-26T19:17:02Z</time>
      </trkpt>
      <trkpt lat="41.866650" lon="-8.089383">
        <ele>714.0</ele>
        <time>2010-08-26T19:17:03Z</time>
      </trkpt>
      <trkpt lat="41.866700" lon="-8.089400">
        <ele>714.0</ele>
        <time>2010-08-26T19:17:04Z</time>
      </trkpt>
      <trkpt lat="41.866750" lon="-8.089400">
        <ele>714.0</ele>
        <time>2010-08-26T19:17:05Z</time>
      </trkpt>
      <trkpt lat="41.866800" lon="-8.089400">
        <ele>714.0</ele>
        <time>2010-08-26T19:17:06Z</time>
      </trkpt>
      <trkpt lat="41.866850" lon="-8.089400">
        <ele>714.0</ele>
        <time>2010-08-26T19:17:07Z</time>
      </trkpt>
      <trkpt lat="41.866883" lon="-8.089383">
        <ele>714.0</ele>
        <time>2010-08-26T19:17:08Z</time>
      </trkpt>
      <trkpt lat="41.866933" lon="-8.089367">
        <ele>714.0</ele>
        <time>2010-08-26T19:17:09Z</time>
      </trkpt>
      <trkpt lat="41.866983" lon="-8.089350">
        <ele>714.0</ele>
        <time>2010-08-26T19:17:10Z</time>
      </trkpt>
      <trkpt lat="41.867017" lon="-8.089350">
        <ele>714.0</ele>
        <time>2010-08-26T19:17:11Z</time>
      </trkpt>
      <trkpt lat="41.867067" lon="-8.089333">
        <ele>714.0</ele>
        <time>2010-08-26T19:17:12Z</time>
      </trkpt>
      <trkpt lat="41.867100" lon="-8.089333">
        <ele>714.0</ele>
        <time>2010-08-26T19:17:13Z</time>
      </trkpt>
      <trkpt lat="41.867150" lon="-8.089333">
        <ele>714.0</ele>
        <time>2010-08-26T19:17:14Z</time>
      </trkpt>
      <trkpt lat="41.867200" lon="-8.089350">
        <ele>714.0</ele>
        <time>2010-08-26T19:17:15Z</time>
      </trkpt>
      <trkpt lat="41.867250" lon="-8.089367">
        <ele>714.0</ele>
        <time>2010-08-26T19:17:16Z</time>
      </trkpt>
      <trkpt lat="41.867300" lon="-8.089383">
        <ele>714.0</ele>
        <time>2010-08-26T19:17:17Z</time>
      </trkpt>
      <trkpt lat="41.867350" lon="-8.089400">
        <ele>714.0</ele>
        <time>2010-08-26T19:17:18Z</time>
      </trkpt>
      <trkpt lat="41.867383" lon="-8.089417">
        <ele>714.0</ele>
        <time>2010-08-26T19:17:19Z</time>
      </trkpt>
      <trkpt lat="41.867433" lon="-8.089433">
        <ele>714.0</ele>
        <time>2010-08-26T19:17:20Z</time>
      </trkpt>
      <trkpt lat="41.867467" lon="-8.089450">
        <ele>714.0</ele>
        <time>2010-08-26T19:17:21Z</time>
      </trkpt>
      <trkpt lat="41.867517" lon="-8.089483">
        <ele>714.0</ele>
        <time>2010-08-26T19:17:22Z</time>
      </trkpt>
      <trkpt lat="41.867550" lon="-8.089500">
        <ele>714.0</ele>
        <time>2010-08-26T19:17:23Z</time>
      </trkpt>
      <trkpt lat="41.867583" lon="-8.089533">
        <ele>714.0</ele>
        <time>2010-08-26T19:17:24Z</time>
      </trkpt>
      <trkpt lat="41.867617" lon="-8.089567">
        <ele>714.0</ele>
        <time>2010-08-26T19:17:25Z</time>
      </trkpt>
      <trkpt lat="41.867650" lon="-8.089600">
        <ele>714.0</ele>
        <time>2010-08-26T19:17:26Z</time>
      </trkpt>
      <trkpt lat="41.867683" lon="-8.089633">
        <ele>714.0</ele>
        <time>2010-08-26T19:17:27Z</time>
      </trkpt>
      <trkpt lat="41.867717" lon="-8.089667">
        <ele>714.0</ele>
        <time>2010-08-26T19:17:28Z</time>
      </trkpt>
      <trkpt lat="41.867733" lon="-8.089700">
        <ele>714.0</ele>
        <time>2010-08-26T19:17:29Z</time>
      </trkpt>
      <trkpt lat="41.867767" lon="-8.089717">
        <ele>714.0</ele>
        <time>2010-08-26T19:17:30Z</time>
      </trkpt>
      <trkpt lat="41.867800" lon="-8.089750">
        <ele>714.0</ele>
        <time>2010-08-26T19:17:31Z</time>
      </trkpt>
      <trkpt lat="41.867817" lon="-8.089783">
        <ele>714.0</ele>
        <time>2010-08-26T19:17:32Z</time>
      </trkpt>
      <trkpt lat="41.867850" lon="-8.089800">
        <ele>713.0</ele>
        <time>2010-08-26T19:17:33Z</time>
      </trkpt>
      <trkpt lat="41.867883" lon="-8.089850">
        <ele>713.0</ele>
        <time>2010-08-26T19:17:35Z</time>
      </trkpt>
      <trkpt lat="41.867917" lon="-8.089883">
        <ele>713.0</ele>
        <time>2010-08-26T19:17:37Z</time>
      </trkpt>
      <trkpt lat="41.867917" lon="-8.089900">
        <ele>713.0</ele>
        <time>2010-08-26T19:17:38Z</time>
      </trkpt>
      <trkpt lat="41.867933" lon="-8.089933">
        <ele>713.0</ele>
        <time>2010-08-26T19:17:39Z</time>
      </trkpt>
      <trkpt lat="41.867950" lon="-8.089950">
        <ele>713.0</ele>
        <time>2010-08-26T19:17:40Z</time>
      </trkpt>
      <trkpt lat="41.867983" lon="-8.089983">
        <ele>713.0</ele>
        <time>2010-08-26T19:17:41Z</time>
      </trkpt>
      <trkpt lat="41.868000" lon="-8.090017">
        <ele>713.0</ele>
        <time>2010-08-26T19:17:42Z</time>
      </trkpt>
      <trkpt lat="41.868017" lon="-8.090067">
        <ele>712.0</ele>
        <time>2010-08-26T19:17:56Z</time>
      </trkpt>
      <trkpt lat="41.868017" lon="-8.090133">
        <ele>711.0</ele>
        <time>2010-08-26T19:18:09Z</time>
      </trkpt>
      <trkpt lat="41.868050" lon="-8.090183">
        <ele>707.0</ele>
        <time>2010-08-26T19:19:53Z</time>
      </trkpt>
      <trkpt lat="41.868033" lon="-8.090233">
        <ele>705.0</ele>
        <time>2010-08-26T19:21:30Z</time>
      </trkpt>
      <trkpt lat="41.868017" lon="-8.090267">
        <ele>705.0</ele>
        <time>2010-08-26T19:21:32Z</time>
      </trkpt>
      <trkpt lat="41.868017" lon="-8.090300">
        <ele>704.0</ele>
        <time>2010-08-26T19:21:33Z</time>
      </trkpt>
      <trkpt lat="41.868000" lon="-8.090350">
        <ele>704.0</ele>
        <time>2010-08-26T19:21:34Z</time>
      </trkpt>
      <trkpt lat="41.867967" lon="-8.090383">
        <ele>704.0</ele>
        <time>2010-08-26T19:21:35Z</time>
      </trkpt>
      <trkpt lat="41.867933" lon="-8.090417">
        <ele>704.0</ele>
        <time>2010-08-26T19:21:36Z</time>
      </trkpt>
      <trkpt lat="41.867900" lon="-8.090450">
        <ele>703.0</ele>
        <time>2010-08-26T19:21:37Z</time>
      </trkpt>
      <trkpt lat="41.867850" lon="-8.090500">
        <ele>703.0</ele>
        <time>2010-08-26T19:21:38Z</time>
      </trkpt>
      <trkpt lat="41.867817" lon="-8.090550">
        <ele>702.0</ele>
        <time>2010-08-26T19:21:39Z</time>
      </trkpt>
      <trkpt lat="41.867783" lon="-8.090600">
        <ele>702.0</ele>
        <time>2010-08-26T19:21:40Z</time>
      </trkpt>
      <trkpt lat="41.867750" lon="-8.090667">
        <ele>702.0</ele>
        <time>2010-08-26T19:21:41Z</time>
      </trkpt>
      <trkpt lat="41.867717" lon="-8.090750">
        <ele>701.0</ele>
        <time>2010-08-26T19:21:42Z</time>
      </trkpt>
      <trkpt lat="41.867700" lon="-8.090833">
        <ele>701.0</ele>
        <time>2010-08-26T19:21:43Z</time>
      </trkpt>
      <trkpt lat="41.867683" lon="-8.090900">
        <ele>700.0</ele>
        <time>2010-08-26T19:21:44Z</time>
      </trkpt>
      <trkpt lat="41.867667" lon="-8.090983">
        <ele>700.0</ele>
        <time>2010-08-26T19:21:45Z</time>
      </trkpt>
      <trkpt lat="41.867633" lon="-8.091083">
        <ele>699.0</ele>
        <time>2010-08-26T19:21:46Z</time>
      </trkpt>
      <trkpt lat="41.867617" lon="-8.091167">
        <ele>699.0</ele>
        <time>2010-08-26T19:21:47Z</time>
      </trkpt>
      <trkpt lat="41.867583" lon="-8.091250">
        <ele>698.0</ele>
        <time>2010-08-26T19:21:48Z</time>
      </trkpt>
      <trkpt lat="41.867567" lon="-8.091350">
        <ele>697.0</ele>
        <time>2010-08-26T19:21:49Z</time>
      </trkpt>
      <trkpt lat="41.867550" lon="-8.091417">
        <ele>697.0</ele>
        <time>2010-08-26T19:21:50Z</time>
      </trkpt>
      <trkpt lat="41.867533" lon="-8.091483">
        <ele>696.0</ele>
        <time>2010-08-26T19:21:51Z</time>
      </trkpt>
      <trkpt lat="41.867517" lon="-8.091517">
        <ele>696.0</ele>
        <time>2010-08-26T19:21:52Z</time>
      </trkpt>
      <trkpt lat="41.867500" lon="-8.091567">
        <ele>696.0</ele>
        <time>2010-08-26T19:21:54Z</time>
      </trkpt>
      <trkpt lat="41.867467" lon="-8.091600">
        <ele>696.0</ele>
        <time>2010-08-26T19:21:56Z</time>
      </trkpt>
      <trkpt lat="41.867450" lon="-8.091633">
        <ele>696.0</ele>
        <time>2010-08-26T19:21:57Z</time>
      </trkpt>
      <trkpt lat="41.867433" lon="-8.091667">
        <ele>696.0</ele>
        <time>2010-08-26T19:21:58Z</time>
      </trkpt>
      <trkpt lat="41.867400" lon="-8.091683">
        <ele>695.0</ele>
        <time>2010-08-26T19:21:59Z</time>
      </trkpt>
      <trkpt lat="41.867367" lon="-8.091717">
        <ele>695.0</ele>
        <time>2010-08-26T19:22:00Z</time>
      </trkpt>
      <trkpt lat="41.867333" lon="-8.091733">
        <ele>695.0</ele>
        <time>2010-08-26T19:22:01Z</time>
      </trkpt>
      <trkpt lat="41.867300" lon="-8.091750">
        <ele>695.0</ele>
        <time>2010-08-26T19:22:02Z</time>
      </trkpt>
      <trkpt lat="41.867267" lon="-8.091767">
        <ele>695.0</ele>
        <time>2010-08-26T19:22:03Z</time>
      </trkpt>
      <trkpt lat="41.867233" lon="-8.091767">
        <ele>695.0</ele>
        <time>2010-08-26T19:22:04Z</time>
      </trkpt>
      <trkpt lat="41.867183" lon="-8.091783">
        <ele>695.0</ele>
        <time>2010-08-26T19:22:05Z</time>
      </trkpt>
      <trkpt lat="41.867150" lon="-8.091783">
        <ele>695.0</ele>
        <time>2010-08-26T19:22:06Z</time>
      </trkpt>
      <trkpt lat="41.867117" lon="-8.091767">
        <ele>695.0</ele>
        <time>2010-08-26T19:22:07Z</time>
      </trkpt>
      <trkpt lat="41.867083" lon="-8.091767">
        <ele>695.0</ele>
        <time>2010-08-26T19:22:08Z</time>
      </trkpt>
      <trkpt lat="41.867050" lon="-8.091767">
        <ele>696.0</ele>
        <time>2010-08-26T19:22:09Z</time>
      </trkpt>
      <trkpt lat="41.867000" lon="-8.091767">
        <ele>696.0</ele>
        <time>2010-08-26T19:22:10Z</time>
      </trkpt>
      <trkpt lat="41.866967" lon="-8.091783">
        <ele>696.0</ele>
        <time>2010-08-26T19:22:11Z</time>
      </trkpt>
      <trkpt lat="41.866933" lon="-8.091783">
        <ele>696.0</ele>
        <time>2010-08-26T19:22:12Z</time>
      </trkpt>
      <trkpt lat="41.866900" lon="-8.091783">
        <ele>696.0</ele>
        <time>2010-08-26T19:22:13Z</time>
      </trkpt>
      <trkpt lat="41.866883" lon="-8.091800">
        <ele>696.0</ele>
        <time>2010-08-26T19:22:14Z</time>
      </trkpt>
      <trkpt lat="41.866850" lon="-8.091817">
        <ele>696.0</ele>
        <time>2010-08-26T19:22:15Z</time>
      </trkpt>
      <trkpt lat="41.866817" lon="-8.091817">
        <ele>696.0</ele>
        <time>2010-08-26T19:22:16Z</time>
      </trkpt>
      <trkpt lat="41.866783" lon="-8.091833">
        <ele>696.0</ele>
        <time>2010-08-26T19:22:17Z</time>
      </trkpt>
      <trkpt lat="41.866767" lon="-8.091833">
        <ele>696.0</ele>
        <time>2010-08-26T19:22:18Z</time>
      </trkpt>
      <trkpt lat="41.866717" lon="-8.091850">
        <ele>696.0</ele>
        <time>2010-08-26T19:22:20Z</time>
      </trkpt>
      <trkpt lat="41.866700" lon="-8.091883">
        <ele>696.0</ele>
        <time>2010-08-26T19:22:22Z</time>
      </trkpt>
      <trkpt lat="41.866700" lon="-8.091917">
        <ele>696.0</ele>
        <time>2010-08-26T19:22:24Z</time>
      </trkpt>
      <trkpt lat="41.866750" lon="-8.091933">
        <ele>697.0</ele>
        <time>2010-08-26T19:22:26Z</time>
      </trkpt>
      <trkpt lat="41.866767" lon="-8.091933">
        <ele>697.0</ele>
        <time>2010-08-26T19:22:27Z</time>
      </trkpt>
      <trkpt lat="41.866800" lon="-8.091917">
        <ele>697.0</ele>
        <time>2010-08-26T19:22:28Z</time>
      </trkpt>
      <trkpt lat="41.866817" lon="-8.091900">
        <ele>697.0</ele>
        <time>2010-08-26T19:22:29Z</time>
      </trkpt>
      <trkpt lat="41.866850" lon="-8.091900">
        <ele>696.0</ele>
        <time>2010-08-26T19:22:30Z</time>
      </trkpt>
      <trkpt lat="41.866900" lon="-8.091883">
        <ele>696.0</ele>
        <time>2010-08-26T19:22:31Z</time>
      </trkpt>
      <trkpt lat="41.866933" lon="-8.091900">
        <ele>696.0</ele>
        <time>2010-08-26T19:22:32Z</time>
      </trkpt>
      <trkpt lat="41.866967" lon="-8.091900">
        <ele>696.0</ele>
        <time>2010-08-26T19:22:33Z</time>
      </trkpt>
      <trkpt lat="41.867017" lon="-8.091917">
        <ele>696.0</ele>
        <time>2010-08-26T19:22:35Z</time>
      </trkpt>
      <trkpt lat="41.867000" lon="-8.091967">
        <ele>696.0</ele>
        <time>2010-08-26T19:22:37Z</time>
      </trkpt>
      <trkpt lat="41.866983" lon="-8.092000">
        <ele>696.0</ele>
        <time>2010-08-26T19:22:38Z</time>
      </trkpt>
      <trkpt lat="41.866967" lon="-8.092017">
        <ele>695.0</ele>
        <time>2010-08-26T19:22:39Z</time>
      </trkpt>
      <trkpt lat="41.866950" lon="-8.092050">
        <ele>695.0</ele>
        <time>2010-08-26T19:22:40Z</time>
      </trkpt>
      <trkpt lat="41.866933" lon="-8.092083">
        <ele>695.0</ele>
        <time>2010-08-26T19:22:41Z</time>
      </trkpt>
      <trkpt lat="41.866900" lon="-8.092117">
        <ele>695.0</ele>
        <time>2010-08-26T19:22:42Z</time>
      </trkpt>
      <trkpt lat="41.866867" lon="-8.092150">
        <ele>695.0</ele>
        <time>2010-08-26T19:22:43Z</time>
      </trkpt>
      <trkpt lat="41.866850" lon="-8.092200">
        <ele>694.0</ele>
        <time>2010-08-26T19:22:44Z</time>
      </trkpt>
      <trkpt lat="41.866817" lon="-8.092233">
        <ele>694.0</ele>
        <time>2010-08-26T19:22:45Z</time>
      </trkpt>
      <trkpt lat="41.866783" lon="-8.092283">
        <ele>694.0</ele>
        <time>2010-08-26T19:22:46Z</time>
      </trkpt>
      <trkpt lat="41.866750" lon="-8.092317">
        <ele>694.0</ele>
        <time>2010-08-26T19:22:47Z</time>
      </trkpt>
      <trkpt lat="41.866733" lon="-8.092367">
        <ele>693.0</ele>
        <time>2010-08-26T19:22:48Z</time>
      </trkpt>
      <trkpt lat="41.866717" lon="-8.092400">
        <ele>693.0</ele>
        <time>2010-08-26T19:22:49Z</time>
      </trkpt>
      <trkpt lat="41.866700" lon="-8.092450">
        <ele>693.0</ele>
        <time>2010-08-26T19:22:50Z</time>
      </trkpt>
      <trkpt lat="41.866733" lon="-8.092450">
        <ele>692.0</ele>
        <time>2010-08-26T19:23:26Z</time>
      </trkpt>
      <trkpt lat="41.866767" lon="-8.092483">
        <ele>693.0</ele>
        <time>2010-08-26T19:23:29Z</time>
      </trkpt>
      <trkpt lat="41.866783" lon="-8.092533">
        <ele>696.0</ele>
        <time>2010-08-26T19:23:49Z</time>
      </trkpt>
      <trkpt lat="41.866783" lon="-8.092583">
        <ele>696.0</ele>
        <time>2010-08-26T19:23:52Z</time>
      </trkpt>
      <trkpt lat="41.866800" lon="-8.092633">
        <ele>696.0</ele>
        <time>2010-08-26T19:23:55Z</time>
      </trkpt>
      <trkpt lat="41.866800" lon="-8.092683">
        <ele>696.0</ele>
        <time>2010-08-26T19:23:57Z</time>
      </trkpt>
      <trkpt lat="41.866783" lon="-8.092733">
        <ele>696.0</ele>
        <time>2010-08-26T19:24:00Z</time>
      </trkpt>
      <trkpt lat="41.866767" lon="-8.092783">
        <ele>695.0</ele>
        <time>2010-08-26T19:24:04Z</time>
      </trkpt>
      <trkpt lat="41.866750" lon="-8.092850">
        <ele>694.0</ele>
        <time>2010-08-26T19:24:28Z</time>
      </trkpt>
      <trkpt lat="41.866750" lon="-8.092783">
        <ele>690.0</ele>
        <time>2010-08-26T19:24:54Z</time>
      </trkpt>
      <trkpt lat="41.866767" lon="-8.092733">
        <ele>690.0</ele>
        <time>2010-08-26T19:24:57Z</time>
      </trkpt>
      <trkpt lat="41.866767" lon="-8.092683">
        <ele>690.0</ele>
        <time>2010-08-26T19:25:00Z</time>
      </trkpt>
      <trkpt lat="41.866783" lon="-8.092633">
        <ele>691.0</ele>
        <time>2010-08-26T19:25:03Z</time>
      </trkpt>
      <trkpt lat="41.866783" lon="-8.092583">
        <ele>691.0</ele>
        <time>2010-08-26T19:25:07Z</time>
      </trkpt>
      <trkpt lat="41.866767" lon="-8.092533">
        <ele>692.0</ele>
        <time>2010-08-26T19:25:10Z</time>
      </trkpt>
      <trkpt lat="41.866733" lon="-8.092500">
        <ele>691.0</ele>
        <time>2010-08-26T19:25:13Z</time>
      </trkpt>
      <trkpt lat="41.866717" lon="-8.092450">
        <ele>691.0</ele>
        <time>2010-08-26T19:25:17Z</time>
      </trkpt>
      <trkpt lat="41.866683" lon="-8.092417">
        <ele>691.0</ele>
        <time>2010-08-26T19:25:29Z</time>
      </trkpt>
      <trkpt lat="41.866650" lon="-8.092450">
        <ele>690.0</ele>
        <time>2010-08-26T19:26:46Z</time>
      </trkpt>
      <trkpt lat="41.866617" lon="-8.092483">
        <ele>690.0</ele>
        <time>2010-08-26T19:26:48Z</time>
      </trkpt>
      <trkpt lat="41.866617" lon="-8.092517">
        <ele>690.0</ele>
        <time>2010-08-26T19:26:49Z</time>
      </trkpt>
      <trkpt lat="41.866600" lon="-8.092550">
        <ele>691.0</ele>
        <time>2010-08-26T19:26:50Z</time>
      </trkpt>
      <trkpt lat="41.866600" lon="-8.092583">
        <ele>691.0</ele>
        <time>2010-08-26T19:26:51Z</time>
      </trkpt>
      <trkpt lat="41.866583" lon="-8.092633">
        <ele>691.0</ele>
        <time>2010-08-26T19:26:52Z</time>
      </trkpt>
      <trkpt lat="41.866583" lon="-8.092667">
        <ele>691.0</ele>
        <time>2010-08-26T19:26:53Z</time>
      </trkpt>
      <trkpt lat="41.866567" lon="-8.092700">
        <ele>691.0</ele>
        <time>2010-08-26T19:26:54Z</time>
      </trkpt>
      <trkpt lat="41.866583" lon="-8.092733">
        <ele>691.0</ele>
        <time>2010-08-26T19:26:55Z</time>
      </trkpt>
      <trkpt lat="41.866600" lon="-8.092783">
        <ele>692.0</ele>
        <time>2010-08-26T19:26:57Z</time>
      </trkpt>
      <trkpt lat="41.866633" lon="-8.092833">
        <ele>692.0</ele>
        <time>2010-08-26T19:26:59Z</time>
      </trkpt>
      <trkpt lat="41.866667" lon="-8.092850">
        <ele>694.0</ele>
        <time>2010-08-26T19:27:24Z</time>
      </trkpt>
      <trkpt lat="41.866683" lon="-8.092833">
        <ele>694.0</ele>
        <time>2010-08-26T19:27:25Z</time>
      </trkpt>
      <trkpt lat="41.866700" lon="-8.092817">
        <ele>694.0</ele>
        <time>2010-08-26T19:27:26Z</time>
      </trkpt>
      <trkpt lat="41.866733" lon="-8.092783">
        <ele>694.0</ele>
        <time>2010-08-26T19:27:27Z</time>
      </trkpt>
      <trkpt lat="41.866733" lon="-8.092733">
        <ele>694.0</ele>
        <time>2010-08-26T19:27:28Z</time>
      </trkpt>
      <trkpt lat="41.866750" lon="-8.092700">
        <ele>694.0</ele>
        <time>2010-08-26T19:27:29Z</time>
      </trkpt>
      <trkpt lat="41.866750" lon="-8.092650">
        <ele>693.0</ele>
        <time>2010-08-26T19:27:30Z</time>
      </trkpt>
      <trkpt lat="41.866767" lon="-8.092617">
        <ele>693.0</ele>
        <time>2010-08-26T19:27:31Z</time>
      </trkpt>
      <trkpt lat="41.866767" lon="-8.092567">
        <ele>693.0</ele>
        <time>2010-08-26T19:27:32Z</time>
      </trkpt>
      <trkpt lat="41.866783" lon="-8.092533">
        <ele>693.0</ele>
        <time>2010-08-26T19:27:33Z</time>
      </trkpt>
      <trkpt lat="41.866800" lon="-8.092483">
        <ele>693.0</ele>
        <time>2010-08-26T19:27:34Z</time>
      </trkpt>
      <trkpt lat="41.866817" lon="-8.092433">
        <ele>693.0</ele>
        <time>2010-08-26T19:27:35Z</time>
      </trkpt>
      <trkpt lat="41.866833" lon="-8.092400">
        <ele>693.0</ele>
        <time>2010-08-26T19:27:36Z</time>
      </trkpt>
      <trkpt lat="41.866833" lon="-8.092350">
        <ele>693.0</ele>
        <time>2010-08-26T19:27:37Z</time>
      </trkpt>
      <trkpt lat="41.866850" lon="-8.092317">
        <ele>693.0</ele>
        <time>2010-08-26T19:27:38Z</time>
      </trkpt>
      <trkpt lat="41.866867" lon="-8.092267">
        <ele>693.0</ele>
        <time>2010-08-26T19:27:39Z</time>
      </trkpt>
      <trkpt lat="41.866883" lon="-8.092233">
        <ele>693.0</ele>
        <time>2010-08-26T19:27:40Z</time>
      </trkpt>
      <trkpt lat="41.866900" lon="-8.092183">
        <ele>693.0</ele>
        <time>2010-08-26T19:27:41Z</time>
      </trkpt>
      <trkpt lat="41.866917" lon="-8.092167">
        <ele>693.0</ele>
        <time>2010-08-26T19:27:42Z</time>
      </trkpt>
      <trkpt lat="41.866933" lon="-8.092133">
        <ele>693.0</ele>
        <time>2010-08-26T19:27:43Z</time>
      </trkpt>
      <trkpt lat="41.866950" lon="-8.092100">
        <ele>694.0</ele>
        <time>2010-08-26T19:27:44Z</time>
      </trkpt>
      <trkpt lat="41.866950" lon="-8.092067">
        <ele>694.0</ele>
        <time>2010-08-26T19:27:45Z</time>
      </trkpt>
      <trkpt lat="41.866967" lon="-8.092050">
        <ele>694.0</ele>
        <time>2010-08-26T19:27:46Z</time>
      </trkpt>
      <trkpt lat="41.866983" lon="-8.092017">
        <ele>694.0</ele>
        <time>2010-08-26T19:27:47Z</time>
      </trkpt>
      <trkpt lat="41.867000" lon="-8.091967">
        <ele>694.0</ele>
        <time>2010-08-26T19:27:49Z</time>
      </trkpt>
      <trkpt lat="41.867033" lon="-8.091950">
        <ele>694.0</ele>
        <time>2010-08-26T19:27:51Z</time>
      </trkpt>
      <trkpt lat="41.867050" lon="-8.091967">
        <ele>694.0</ele>
        <time>2010-08-26T19:27:52Z</time>
      </trkpt>
      <trkpt lat="41.867083" lon="-8.091983">
        <ele>695.0</ele>
        <time>2010-08-26T19:27:53Z</time>
      </trkpt>
      <trkpt lat="41.867100" lon="-8.092017">
        <ele>695.0</ele>
        <time>2010-08-26T19:27:54Z</time>
      </trkpt>
      <trkpt lat="41.867117" lon="-8.092050">
        <ele>695.0</ele>
        <time>2010-08-26T19:27:55Z</time>
      </trkpt>
      <trkpt lat="41.867133" lon="-8.092100">
        <ele>695.0</ele>
        <time>2010-08-26T19:27:56Z</time>
      </trkpt>
      <trkpt lat="41.867133" lon="-8.092133">
        <ele>695.0</ele>
        <time>2010-08-26T19:27:57Z</time>
      </trkpt>
      <trkpt lat="41.867133" lon="-8.092183">
        <ele>695.0</ele>
        <time>2010-08-26T19:27:58Z</time>
      </trkpt>
      <trkpt lat="41.867133" lon="-8.092233">
        <ele>695.0</ele>
        <time>2010-08-26T19:27:59Z</time>
      </trkpt>
      <trkpt lat="41.867117" lon="-8.092267">
        <ele>695.0</ele>
        <time>2010-08-26T19:28:00Z</time>
      </trkpt>
      <trkpt lat="41.867100" lon="-8.092317">
        <ele>695.0</ele>
        <time>2010-08-26T19:28:01Z</time>
      </trkpt>
      <trkpt lat="41.867083" lon="-8.092350">
        <ele>695.0</ele>
        <time>2010-08-26T19:28:02Z</time>
      </trkpt>
      <trkpt lat="41.867067" lon="-8.092383">
        <ele>695.0</ele>
        <time>2010-08-26T19:28:03Z</time>
      </trkpt>
      <trkpt lat="41.867050" lon="-8.092417">
        <ele>695.0</ele>
        <time>2010-08-26T19:28:04Z</time>
      </trkpt>
      <trkpt lat="41.867033" lon="-8.092433">
        <ele>695.0</ele>
        <time>2010-08-26T19:28:05Z</time>
      </trkpt>
      <trkpt lat="41.867017" lon="-8.092483">
        <ele>695.0</ele>
        <time>2010-08-26T19:28:07Z</time>
      </trkpt>
      <trkpt lat="41.867000" lon="-8.092533">
        <ele>694.0</ele>
        <time>2010-08-26T19:28:29Z</time>
      </trkpt>
      <trkpt lat="41.866983" lon="-8.092567">
        <ele>694.0</ele>
        <time>2010-08-26T19:28:32Z</time>
      </trkpt>
      <trkpt lat="41.866983" lon="-8.092617">
        <ele>694.0</ele>
        <time>2010-08-26T19:28:34Z</time>
      </trkpt>
      <trkpt lat="41.866967" lon="-8.092667">
        <ele>693.0</ele>
        <time>2010-08-26T19:28:36Z</time>
      </trkpt>
      <trkpt lat="41.866933" lon="-8.092700">
        <ele>692.0</ele>
        <time>2010-08-26T19:28:38Z</time>
      </trkpt>
      <trkpt lat="41.866917" lon="-8.092733">
        <ele>691.0</ele>
        <time>2010-08-26T19:28:39Z</time>
      </trkpt>
      <trkpt lat="41.866917" lon="-8.092800">
        <ele>690.0</ele>
        <time>2010-08-26T19:28:41Z</time>
      </trkpt>
      <trkpt lat="41.866933" lon="-8.092817">
        <ele>690.0</ele>
        <time>2010-08-26T19:28:42Z</time>
      </trkpt>
      <trkpt lat="41.866967" lon="-8.092833">
        <ele>689.0</ele>
        <time>2010-08-26T19:28:43Z</time>
      </trkpt>
      <trkpt lat="41.867000" lon="-8.092833">
        <ele>688.0</ele>
        <time>2010-08-26T19:28:44Z</time>
      </trkpt>
      <trkpt lat="41.867033" lon="-8.092817">
        <ele>688.0</ele>
        <time>2010-08-26T19:28:45Z</time>
      </trkpt>
      <trkpt lat="41.867067" lon="-8.092800">
        <ele>687.0</ele>
        <time>2010-08-26T19:28:46Z</time>
      </trkpt>
      <trkpt lat="41.867117" lon="-8.092783">
        <ele>686.0</ele>
        <time>2010-08-26T19:28:47Z</time>
      </trkpt>
      <trkpt lat="41.867150" lon="-8.092767">
        <ele>685.0</ele>
        <time>2010-08-26T19:28:48Z</time>
      </trkpt>
      <trkpt lat="41.867167" lon="-8.092750">
        <ele>685.0</ele>
        <time>2010-08-26T19:28:49Z</time>
      </trkpt>
      <trkpt lat="41.867200" lon="-8.092733">
        <ele>684.0</ele>
        <time>2010-08-26T19:28:50Z</time>
      </trkpt>
      <trkpt lat="41.867217" lon="-8.092733">
        <ele>684.0</ele>
        <time>2010-08-26T19:28:51Z</time>
      </trkpt>
      <trkpt lat="41.867250" lon="-8.092733">
        <ele>683.0</ele>
        <time>2010-08-26T19:28:52Z</time>
      </trkpt>
      <trkpt lat="41.867300" lon="-8.092733">
        <ele>682.0</ele>
        <time>2010-08-26T19:28:53Z</time>
      </trkpt>
      <trkpt lat="41.867333" lon="-8.092717">
        <ele>681.0</ele>
        <time>2010-08-26T19:28:54Z</time>
      </trkpt>
      <trkpt lat="41.867367" lon="-8.092700">
        <ele>680.0</ele>
        <time>2010-08-26T19:28:55Z</time>
      </trkpt>
      <trkpt lat="41.867400" lon="-8.092700">
        <ele>679.0</ele>
        <time>2010-08-26T19:28:56Z</time>
      </trkpt>
      <trkpt lat="41.867433" lon="-8.092683">
        <ele>678.0</ele>
        <time>2010-08-26T19:28:57Z</time>
      </trkpt>
      <trkpt lat="41.867467" lon="-8.092667">
        <ele>678.0</ele>
        <time>2010-08-26T19:28:58Z</time>
      </trkpt>
      <trkpt lat="41.867500" lon="-8.092650">
        <ele>677.0</ele>
        <time>2010-08-26T19:28:59Z</time>
      </trkpt>
      <trkpt lat="41.867533" lon="-8.092617">
        <ele>676.0</ele>
        <time>2010-08-26T19:29:00Z</time>
      </trkpt>
      <trkpt lat="41.867567" lon="-8.092600">
        <ele>675.0</ele>
        <time>2010-08-26T19:29:01Z</time>
      </trkpt>
      <trkpt lat="41.867583" lon="-8.092567">
        <ele>674.0</ele>
        <time>2010-08-26T19:29:02Z</time>
      </trkpt>
      <trkpt lat="41.867600" lon="-8.092533">
        <ele>673.0</ele>
        <time>2010-08-26T19:29:03Z</time>
      </trkpt>
      <trkpt lat="41.867633" lon="-8.092517">
        <ele>673.0</ele>
        <time>2010-08-26T19:29:04Z</time>
      </trkpt>
      <trkpt lat="41.867667" lon="-8.092517">
        <ele>670.0</ele>
        <time>2010-08-26T19:29:08Z</time>
      </trkpt>
      <trkpt lat="41.867667" lon="-8.092550">
        <ele>670.0</ele>
        <time>2010-08-26T19:29:09Z</time>
      </trkpt>
      <trkpt lat="41.867667" lon="-8.092583">
        <ele>670.0</ele>
        <time>2010-08-26T19:29:10Z</time>
      </trkpt>
      <trkpt lat="41.867650" lon="-8.092633">
        <ele>669.0</ele>
        <time>2010-08-26T19:29:11Z</time>
      </trkpt>
      <trkpt lat="41.867633" lon="-8.092667">
        <ele>669.0</ele>
        <time>2010-08-26T19:29:12Z</time>
      </trkpt>
      <trkpt lat="41.867633" lon="-8.092717">
        <ele>668.0</ele>
        <time>2010-08-26T19:29:13Z</time>
      </trkpt>
      <trkpt lat="41.867617" lon="-8.092750">
        <ele>668.0</ele>
        <time>2010-08-26T19:29:14Z</time>
      </trkpt>
      <trkpt lat="41.867600" lon="-8.092783">
        <ele>667.0</ele>
        <time>2010-08-26T19:29:15Z</time>
      </trkpt>
      <trkpt lat="41.867583" lon="-8.092817">
        <ele>666.0</ele>
        <time>2010-08-26T19:29:16Z</time>
      </trkpt>
      <trkpt lat="41.867583" lon="-8.092850">
        <ele>665.0</ele>
        <time>2010-08-26T19:29:17Z</time>
      </trkpt>
      <trkpt lat="41.867583" lon="-8.092883">
        <ele>665.0</ele>
        <time>2010-08-26T19:29:18Z</time>
      </trkpt>
      <trkpt lat="41.867583" lon="-8.092917">
        <ele>663.0</ele>
        <time>2010-08-26T19:29:20Z</time>
      </trkpt>
      <trkpt lat="41.867583" lon="-8.092967">
        <ele>662.0</ele>
        <time>2010-08-26T19:29:22Z</time>
      </trkpt>
      <trkpt lat="41.867567" lon="-8.093000">
        <ele>662.0</ele>
        <time>2010-08-26T19:29:23Z</time>
      </trkpt>
      <trkpt lat="41.867550" lon="-8.093050">
        <ele>661.0</ele>
        <time>2010-08-26T19:29:24Z</time>
      </trkpt>
      <trkpt lat="41.867533" lon="-8.093100">
        <ele>660.0</ele>
        <time>2010-08-26T19:29:25Z</time>
      </trkpt>
      <trkpt lat="41.867517" lon="-8.093133">
        <ele>660.0</ele>
        <time>2010-08-26T19:29:26Z</time>
      </trkpt>
      <trkpt lat="41.867500" lon="-8.093150">
        <ele>659.0</ele>
        <time>2010-08-26T19:29:27Z</time>
      </trkpt>
      <trkpt lat="41.867467" lon="-8.093183">
        <ele>659.0</ele>
        <time>2010-08-26T19:29:29Z</time>
      </trkpt>
      <trkpt lat="41.867450" lon="-8.093233">
        <ele>657.0</ele>
        <time>2010-08-26T19:29:31Z</time>
      </trkpt>
      <trkpt lat="41.867433" lon="-8.093267">
        <ele>657.0</ele>
        <time>2010-08-26T19:29:32Z</time>
      </trkpt>
      <trkpt lat="41.867417" lon="-8.093283">
        <ele>656.0</ele>
        <time>2010-08-26T19:29:33Z</time>
      </trkpt>
      <trkpt lat="41.867383" lon="-8.093300">
        <ele>655.0</ele>
        <time>2010-08-26T19:29:34Z</time>
      </trkpt>
      <trkpt lat="41.867367" lon="-8.093333">
        <ele>654.0</ele>
        <time>2010-08-26T19:29:35Z</time>
      </trkpt>
      <trkpt lat="41.867350" lon="-8.093350">
        <ele>653.0</ele>
        <time>2010-08-26T19:29:36Z</time>
      </trkpt>
      <trkpt lat="41.867333" lon="-8.093400">
        <ele>652.0</ele>
        <time>2010-08-26T19:29:37Z</time>
      </trkpt>
      <trkpt lat="41.867317" lon="-8.093433">
        <ele>652.0</ele>
        <time>2010-08-26T19:29:38Z</time>
      </trkpt>
      <trkpt lat="41.867300" lon="-8.093467">
        <ele>651.0</ele>
        <time>2010-08-26T19:29:39Z</time>
      </trkpt>
      <trkpt lat="41.867283" lon="-8.093517">
        <ele>650.0</ele>
        <time>2010-08-26T19:29:40Z</time>
      </trkpt>
      <trkpt lat="41.867267" lon="-8.093567">
        <ele>649.0</ele>
        <time>2010-08-26T19:29:41Z</time>
      </trkpt>
      <trkpt lat="41.867250" lon="-8.093600">
        <ele>648.0</ele>
        <time>2010-08-26T19:29:42Z</time>
      </trkpt>
      <trkpt lat="41.867233" lon="-8.093633">
        <ele>647.0</ele>
        <time>2010-08-26T19:29:43Z</time>
      </trkpt>
      <trkpt lat="41.867200" lon="-8.093683">
        <ele>646.0</ele>
        <time>2010-08-26T19:29:44Z</time>
      </trkpt>
      <trkpt lat="41.867167" lon="-8.093717">
        <ele>645.0</ele>
        <time>2010-08-26T19:29:45Z</time>
      </trkpt>
      <trkpt lat="41.867150" lon="-8.093750">
        <ele>645.0</ele>
        <time>2010-08-26T19:29:46Z</time>
      </trkpt>
      <trkpt lat="41.867133" lon="-8.093783">
        <ele>644.0</ele>
        <time>2010-08-26T19:29:47Z</time>
      </trkpt>
      <trkpt lat="41.867100" lon="-8.093800">
        <ele>644.0</ele>
        <time>2010-08-26T19:29:48Z</time>
      </trkpt>
      <trkpt lat="41.867083" lon="-8.093833">
        <ele>643.0</ele>
        <time>2010-08-26T19:29:49Z</time>
      </trkpt>
      <trkpt lat="41.867067" lon="-8.093883">
        <ele>642.0</ele>
        <time>2010-08-26T19:29:50Z</time>
      </trkpt>
      <trkpt lat="41.867050" lon="-8.093933">
        <ele>641.0</ele>
        <time>2010-08-26T19:29:51Z</time>
      </trkpt>
      <trkpt lat="41.867033" lon="-8.093983">
        <ele>640.0</ele>
        <time>2010-08-26T19:29:52Z</time>
      </trkpt>
      <trkpt lat="41.867017" lon="-8.094033">
        <ele>639.0</ele>
        <time>2010-08-26T19:29:53Z</time>
      </trkpt>
      <trkpt lat="41.867000" lon="-8.094083">
        <ele>638.0</ele>
        <time>2010-08-26T19:29:54Z</time>
      </trkpt>
      <trkpt lat="41.866967" lon="-8.094133">
        <ele>637.0</ele>
        <time>2010-08-26T19:29:55Z</time>
      </trkpt>
      <trkpt lat="41.866933" lon="-8.094167">
        <ele>636.0</ele>
        <time>2010-08-26T19:29:56Z</time>
      </trkpt>
      <trkpt lat="41.866900" lon="-8.094217">
        <ele>635.0</ele>
        <time>2010-08-26T19:29:57Z</time>
      </trkpt>
      <trkpt lat="41.866867" lon="-8.094250">
        <ele>634.0</ele>
        <time>2010-08-26T19:29:58Z</time>
      </trkpt>
      <trkpt lat="41.866833" lon="-8.094283">
        <ele>633.0</ele>
        <time>2010-08-26T19:29:59Z</time>
      </trkpt>
      <trkpt lat="41.866800" lon="-8.094300">
        <ele>632.0</ele>
        <time>2010-08-26T19:30:00Z</time>
      </trkpt>
      <trkpt lat="41.866750" lon="-8.094317">
        <ele>632.0</ele>
        <time>2010-08-26T19:30:01Z</time>
      </trkpt>
      <trkpt lat="41.866717" lon="-8.094317">
        <ele>631.0</ele>
        <time>2010-08-26T19:30:02Z</time>
      </trkpt>
      <trkpt lat="41.866667" lon="-8.094317">
        <ele>631.0</ele>
        <time>2010-08-26T19:30:03Z</time>
      </trkpt>
      <trkpt lat="41.866650" lon="-8.094333">
        <ele>630.0</ele>
        <time>2010-08-26T19:30:04Z</time>
      </trkpt>
      <trkpt lat="41.866650" lon="-8.094383">
        <ele>629.0</ele>
        <time>2010-08-26T19:30:08Z</time>
      </trkpt>
      <trkpt lat="41.866650" lon="-8.094450">
        <ele>628.0</ele>
        <time>2010-08-26T19:30:13Z</time>
      </trkpt>
      <trkpt lat="41.866600" lon="-8.094467">
        <ele>627.0</ele>
        <time>2010-08-26T19:30:16Z</time>
      </trkpt>
      <trkpt lat="41.866617" lon="-8.094500">
        <ele>625.0</ele>
        <time>2010-08-26T19:30:20Z</time>
      </trkpt>
      <trkpt lat="41.866633" lon="-8.094550">
        <ele>624.0</ele>
        <time>2010-08-26T19:30:23Z</time>
      </trkpt>
      <trkpt lat="41.866650" lon="-8.094600">
        <ele>623.0</ele>
        <time>2010-08-26T19:30:25Z</time>
      </trkpt>
      <trkpt lat="41.866633" lon="-8.094650">
        <ele>622.0</ele>
        <time>2010-08-26T19:30:27Z</time>
      </trkpt>
      <trkpt lat="41.866600" lon="-8.094667">
        <ele>621.0</ele>
        <time>2010-08-26T19:30:29Z</time>
      </trkpt>
      <trkpt lat="41.866600" lon="-8.094700">
        <ele>620.0</ele>
        <time>2010-08-26T19:30:31Z</time>
      </trkpt>
      <trkpt lat="41.866633" lon="-8.094717">
        <ele>619.0</ele>
        <time>2010-08-26T19:30:32Z</time>
      </trkpt>
      <trkpt lat="41.866650" lon="-8.094733">
        <ele>619.0</ele>
        <time>2010-08-26T19:30:33Z</time>
      </trkpt>
      <trkpt lat="41.866683" lon="-8.094750">
        <ele>619.0</ele>
        <time>2010-08-26T19:30:34Z</time>
      </trkpt>
      <trkpt lat="41.866733" lon="-8.094767">
        <ele>618.0</ele>
        <time>2010-08-26T19:30:35Z</time>
      </trkpt>
      <trkpt lat="41.866767" lon="-8.094783">
        <ele>618.0</ele>
        <time>2010-08-26T19:30:36Z</time>
      </trkpt>
      <trkpt lat="41.866817" lon="-8.094800">
        <ele>617.0</ele>
        <time>2010-08-26T19:30:37Z</time>
      </trkpt>
      <trkpt lat="41.866867" lon="-8.094800">
        <ele>617.0</ele>
        <time>2010-08-26T19:30:38Z</time>
      </trkpt>
      <trkpt lat="41.866900" lon="-8.094800">
        <ele>617.0</ele>
        <time>2010-08-26T19:30:39Z</time>
      </trkpt>
      <trkpt lat="41.866933" lon="-8.094783">
        <ele>616.0</ele>
        <time>2010-08-26T19:30:40Z</time>
      </trkpt>
      <trkpt lat="41.866967" lon="-8.094783">
        <ele>616.0</ele>
        <time>2010-08-26T19:30:41Z</time>
      </trkpt>
      <trkpt lat="41.866983" lon="-8.094783">
        <ele>616.0</ele>
        <time>2010-08-26T19:30:42Z</time>
      </trkpt>
      <trkpt lat="41.867000" lon="-8.094767">
        <ele>615.0</ele>
        <time>2010-08-26T19:30:43Z</time>
      </trkpt>
      <trkpt lat="41.867050" lon="-8.094750">
        <ele>615.0</ele>
        <time>2010-08-26T19:30:45Z</time>
      </trkpt>
      <trkpt lat="41.867083" lon="-8.094733">
        <ele>614.0</ele>
        <time>2010-08-26T19:30:48Z</time>
      </trkpt>
      <trkpt lat="41.867100" lon="-8.094700">
        <ele>614.0</ele>
        <time>2010-08-26T19:30:49Z</time>
      </trkpt>
      <trkpt lat="41.867133" lon="-8.094700">
        <ele>614.0</ele>
        <time>2010-08-26T19:30:50Z</time>
      </trkpt>
      <trkpt lat="41.867150" lon="-8.094683">
        <ele>614.0</ele>
        <time>2010-08-26T19:30:51Z</time>
      </trkpt>
      <trkpt lat="41.867183" lon="-8.094667">
        <ele>613.0</ele>
        <time>2010-08-26T19:30:52Z</time>
      </trkpt>
      <trkpt lat="41.867217" lon="-8.094650">
        <ele>613.0</ele>
        <time>2010-08-26T19:30:53Z</time>
      </trkpt>
      <trkpt lat="41.867250" lon="-8.094633">
        <ele>613.0</ele>
        <time>2010-08-26T19:30:54Z</time>
      </trkpt>
      <trkpt lat="41.867283" lon="-8.094617">
        <ele>613.0</ele>
        <time>2010-08-26T19:30:55Z</time>
      </trkpt>
      <trkpt lat="41.867300" lon="-8.094600">
        <ele>612.0</ele>
        <time>2010-08-26T19:30:56Z</time>
      </trkpt>
      <trkpt lat="41.867333" lon="-8.094583">
        <ele>612.0</ele>
        <time>2010-08-26T19:30:57Z</time>
      </trkpt>
      <trkpt lat="41.867350" lon="-8.094567">
        <ele>611.0</ele>
        <time>2010-08-26T19:30:58Z</time>
      </trkpt>
      <trkpt lat="41.867383" lon="-8.094550">
        <ele>611.0</ele>
        <time>2010-08-26T19:30:59Z</time>
      </trkpt>
      <trkpt lat="41.867400" lon="-8.094550">
        <ele>611.0</ele>
        <time>2010-08-26T19:31:00Z</time>
      </trkpt>
      <trkpt lat="41.867433" lon="-8.094533">
        <ele>610.0</ele>
        <time>2010-08-26T19:31:01Z</time>
      </trkpt>
      <trkpt lat="41.867450" lon="-8.094500">
        <ele>610.0</ele>
        <time>2010-08-26T19:31:02Z</time>
      </trkpt>
      <trkpt lat="41.867467" lon="-8.094483">
        <ele>610.0</ele>
        <time>2010-08-26T19:31:03Z</time>
      </trkpt>
      <trkpt lat="41.867500" lon="-8.094467">
        <ele>609.0</ele>
        <time>2010-08-26T19:31:05Z</time>
      </trkpt>
      <trkpt lat="41.867550" lon="-8.094467">
        <ele>608.0</ele>
        <time>2010-08-26T19:31:07Z</time>
      </trkpt>
      <trkpt lat="41.867583" lon="-8.094483">
        <ele>608.0</ele>
        <time>2010-08-26T19:31:09Z</time>
      </trkpt>
      <trkpt lat="41.867617" lon="-8.094483">
        <ele>607.0</ele>
        <time>2010-08-26T19:31:10Z</time>
      </trkpt>
      <trkpt lat="41.867650" lon="-8.094467">
        <ele>607.0</ele>
        <time>2010-08-26T19:31:11Z</time>
      </trkpt>
      <trkpt lat="41.867667" lon="-8.094467">
        <ele>606.0</ele>
        <time>2010-08-26T19:31:12Z</time>
      </trkpt>
      <trkpt lat="41.867700" lon="-8.094467">
        <ele>606.0</ele>
        <time>2010-08-26T19:31:13Z</time>
      </trkpt>
      <trkpt lat="41.867733" lon="-8.094450">
        <ele>605.0</ele>
        <time>2010-08-26T19:31:14Z</time>
      </trkpt>
      <trkpt lat="41.867767" lon="-8.094450">
        <ele>605.0</ele>
        <time>2010-08-26T19:31:15Z</time>
      </trkpt>
      <trkpt lat="41.867800" lon="-8.094433">
        <ele>605.0</ele>
        <time>2010-08-26T19:31:16Z</time>
      </trkpt>
      <trkpt lat="41.867833" lon="-8.094433">
        <ele>604.0</ele>
        <time>2010-08-26T19:31:17Z</time>
      </trkpt>
      <trkpt lat="41.867867" lon="-8.094433">
        <ele>604.0</ele>
        <time>2010-08-26T19:31:18Z</time>
      </trkpt>
      <trkpt lat="41.867917" lon="-8.094433">
        <ele>603.0</ele>
        <time>2010-08-26T19:31:19Z</time>
      </trkpt>
      <trkpt lat="41.867983" lon="-8.094433">
        <ele>603.0</ele>
        <time>2010-08-26T19:31:20Z</time>
      </trkpt>
      <trkpt lat="41.868033" lon="-8.094417">
        <ele>602.0</ele>
        <time>2010-08-26T19:31:21Z</time>
      </trkpt>
      <trkpt lat="41.868100" lon="-8.094417">
        <ele>601.0</ele>
        <time>2010-08-26T19:31:22Z</time>
      </trkpt>
      <trkpt lat="41.868167" lon="-8.094383">
        <ele>600.0</ele>
        <time>2010-08-26T19:31:23Z</time>
      </trkpt>
      <trkpt lat="41.868217" lon="-8.094350">
        <ele>599.0</ele>
        <time>2010-08-26T19:31:24Z</time>
      </trkpt>
      <trkpt lat="41.868267" lon="-8.094333">
        <ele>598.0</ele>
        <time>2010-08-26T19:31:25Z</time>
      </trkpt>
      <trkpt lat="41.868317" lon="-8.094283">
        <ele>597.0</ele>
        <time>2010-08-26T19:31:26Z</time>
      </trkpt>
      <trkpt lat="41.868333" lon="-8.094267">
        <ele>597.0</ele>
        <time>2010-08-26T19:31:27Z</time>
      </trkpt>
      <trkpt lat="41.868367" lon="-8.094250">
        <ele>596.0</ele>
        <time>2010-08-26T19:31:28Z</time>
      </trkpt>
      <trkpt lat="41.868400" lon="-8.094267">
        <ele>596.0</ele>
        <time>2010-08-26T19:31:29Z</time>
      </trkpt>
      <trkpt lat="41.868433" lon="-8.094250">
        <ele>595.0</ele>
        <time>2010-08-26T19:31:30Z</time>
      </trkpt>
      <trkpt lat="41.868483" lon="-8.094233">
        <ele>595.0</ele>
        <time>2010-08-26T19:31:31Z</time>
      </trkpt>
      <trkpt lat="41.868533" lon="-8.094217">
        <ele>594.0</ele>
        <time>2010-08-26T19:31:32Z</time>
      </trkpt>
      <trkpt lat="41.868600" lon="-8.094183">
        <ele>593.0</ele>
        <time>2010-08-26T19:31:33Z</time>
      </trkpt>
      <trkpt lat="41.868650" lon="-8.094150">
        <ele>592.0</ele>
        <time>2010-08-26T19:31:34Z</time>
      </trkpt>
      <trkpt lat="41.868700" lon="-8.094117">
        <ele>591.0</ele>
        <time>2010-08-26T19:31:35Z</time>
      </trkpt>
      <trkpt lat="41.868733" lon="-8.094067">
        <ele>590.0</ele>
        <time>2010-08-26T19:31:36Z</time>
      </trkpt>
      <trkpt lat="41.868750" lon="-8.094033">
        <ele>589.0</ele>
        <time>2010-08-26T19:31:37Z</time>
      </trkpt>
      <trkpt lat="41.868800" lon="-8.094000">
        <ele>587.0</ele>
        <time>2010-08-26T19:31:46Z</time>
      </trkpt>
      <trkpt lat="41.868817" lon="-8.094033">
        <ele>587.0</ele>
        <time>2010-08-26T19:31:48Z</time>
      </trkpt>
      <trkpt lat="41.868800" lon="-8.094083">
        <ele>587.0</ele>
        <time>2010-08-26T19:31:49Z</time>
      </trkpt>
      <trkpt lat="41.868800" lon="-8.094133">
        <ele>586.0</ele>
        <time>2010-08-26T19:31:50Z</time>
      </trkpt>
      <trkpt lat="41.868783" lon="-8.094200">
        <ele>586.0</ele>
        <time>2010-08-26T19:31:51Z</time>
      </trkpt>
      <trkpt lat="41.868783" lon="-8.094250">
        <ele>585.0</ele>
        <time>2010-08-26T19:31:52Z</time>
      </trkpt>
      <trkpt lat="41.868750" lon="-8.094283">
        <ele>584.0</ele>
        <time>2010-08-26T19:31:53Z</time>
      </trkpt>
      <trkpt lat="41.868733" lon="-8.094333">
        <ele>584.0</ele>
        <time>2010-08-26T19:31:54Z</time>
      </trkpt>
      <trkpt lat="41.868717" lon="-8.094367">
        <ele>583.0</ele>
        <time>2010-08-26T19:31:55Z</time>
      </trkpt>
      <trkpt lat="41.868700" lon="-8.094417">
        <ele>582.0</ele>
        <time>2010-08-26T19:31:56Z</time>
      </trkpt>
      <trkpt lat="41.868700" lon="-8.094467">
        <ele>581.0</ele>
        <time>2010-08-26T19:31:57Z</time>
      </trkpt>
      <trkpt lat="41.868683" lon="-8.094500">
        <ele>581.0</ele>
        <time>2010-08-26T19:31:58Z</time>
      </trkpt>
      <trkpt lat="41.868667" lon="-8.094533">
        <ele>580.0</ele>
        <time>2010-08-26T19:31:59Z</time>
      </trkpt>
      <trkpt lat="41.868650" lon="-8.094567">
        <ele>579.0</ele>
        <time>2010-08-26T19:32:00Z</time>
      </trkpt>
      <trkpt lat="41.868650" lon="-8.094617">
        <ele>578.0</ele>
        <time>2010-08-26T19:32:02Z</time>
      </trkpt>
      <trkpt lat="41.868683" lon="-8.094617">
        <ele>577.0</ele>
        <time>2010-08-26T19:32:04Z</time>
      </trkpt>
      <trkpt lat="41.868717" lon="-8.094600">
        <ele>576.0</ele>
        <time>2010-08-26T19:32:06Z</time>
      </trkpt>
      <trkpt lat="41.868733" lon="-8.094600">
        <ele>576.0</ele>
        <time>2010-08-26T19:32:07Z</time>
      </trkpt>
      <trkpt lat="41.868767" lon="-8.094600">
        <ele>576.0</ele>
        <time>2010-08-26T19:32:08Z</time>
      </trkpt>
      <trkpt lat="41.868783" lon="-8.094600">
        <ele>575.0</ele>
        <time>2010-08-26T19:32:09Z</time>
      </trkpt>
      <trkpt lat="41.868817" lon="-8.094583">
        <ele>575.0</ele>
        <time>2010-08-26T19:32:10Z</time>
      </trkpt>
      <trkpt lat="41.868833" lon="-8.094583">
        <ele>574.0</ele>
        <time>2010-08-26T19:32:11Z</time>
      </trkpt>
      <trkpt lat="41.868883" lon="-8.094567">
        <ele>573.0</ele>
        <time>2010-08-26T19:32:13Z</time>
      </trkpt>
      <trkpt lat="41.868917" lon="-8.094567">
        <ele>573.0</ele>
        <time>2010-08-26T19:32:14Z</time>
      </trkpt>
      <trkpt lat="41.868933" lon="-8.094567">
        <ele>573.0</ele>
        <time>2010-08-26T19:32:15Z</time>
      </trkpt>
      <trkpt lat="41.868950" lon="-8.094567">
        <ele>572.0</ele>
        <time>2010-08-26T19:32:16Z</time>
      </trkpt>
      <trkpt lat="41.868983" lon="-8.094567">
        <ele>572.0</ele>
        <time>2010-08-26T19:32:17Z</time>
      </trkpt>
      <trkpt lat="41.869000" lon="-8.094600">
        <ele>572.0</ele>
        <time>2010-08-26T19:32:18Z</time>
      </trkpt>
      <trkpt lat="41.869000" lon="-8.094633">
        <ele>571.0</ele>
        <time>2010-08-26T19:32:19Z</time>
      </trkpt>
      <trkpt lat="41.869000" lon="-8.094667">
        <ele>571.0</ele>
        <time>2010-08-26T19:32:20Z</time>
      </trkpt>
      <trkpt lat="41.868983" lon="-8.094700">
        <ele>570.0</ele>
        <time>2010-08-26T19:32:21Z</time>
      </trkpt>
      <trkpt lat="41.868950" lon="-8.094733">
        <ele>569.0</ele>
        <time>2010-08-26T19:32:22Z</time>
      </trkpt>
      <trkpt lat="41.868900" lon="-8.094767">
        <ele>569.0</ele>
        <time>2010-08-26T19:32:23Z</time>
      </trkpt>
      <trkpt lat="41.868867" lon="-8.094800">
        <ele>568.0</ele>
        <time>2010-08-26T19:32:24Z</time>
      </trkpt>
      <trkpt lat="41.868833" lon="-8.094850">
        <ele>568.0</ele>
        <time>2010-08-26T19:32:25Z</time>
      </trkpt>
      <trkpt lat="41.868800" lon="-8.094883">
        <ele>567.0</ele>
        <time>2010-08-26T19:32:26Z</time>
      </trkpt>
      <trkpt lat="41.868767" lon="-8.094917">
        <ele>566.0</ele>
        <time>2010-08-26T19:32:27Z</time>
      </trkpt>
      <trkpt lat="41.868767" lon="-8.094950">
        <ele>566.0</ele>
        <time>2010-08-26T19:32:28Z</time>
      </trkpt>
      <trkpt lat="41.868800" lon="-8.094983">
        <ele>565.0</ele>
        <time>2010-08-26T19:32:30Z</time>
      </trkpt>
      <trkpt lat="41.868833" lon="-8.094983">
        <ele>564.0</ele>
        <time>2010-08-26T19:32:31Z</time>
      </trkpt>
      <trkpt lat="41.868867" lon="-8.094983">
        <ele>564.0</ele>
        <time>2010-08-26T19:32:32Z</time>
      </trkpt>
      <trkpt lat="41.868900" lon="-8.094983">
        <ele>564.0</ele>
        <time>2010-08-26T19:32:33Z</time>
      </trkpt>
      <trkpt lat="41.868950" lon="-8.094967">
        <ele>563.0</ele>
        <time>2010-08-26T19:32:34Z</time>
      </trkpt>
      <trkpt lat="41.869000" lon="-8.094950">
        <ele>562.0</ele>
        <time>2010-08-26T19:32:35Z</time>
      </trkpt>
      <trkpt lat="41.869067" lon="-8.094950">
        <ele>562.0</ele>
        <time>2010-08-26T19:32:36Z</time>
      </trkpt>
      <trkpt lat="41.869117" lon="-8.094933">
        <ele>561.0</ele>
        <time>2010-08-26T19:32:37Z</time>
      </trkpt>
      <trkpt lat="41.869167" lon="-8.094917">
        <ele>560.0</ele>
        <time>2010-08-26T19:32:38Z</time>
      </trkpt>
      <trkpt lat="41.869233" lon="-8.094900">
        <ele>559.0</ele>
        <time>2010-08-26T19:32:39Z</time>
      </trkpt>
      <trkpt lat="41.869283" lon="-8.094900">
        <ele>559.0</ele>
        <time>2010-08-26T19:32:40Z</time>
      </trkpt>
      <trkpt lat="41.869333" lon="-8.094900">
        <ele>558.0</ele>
        <time>2010-08-26T19:32:41Z</time>
      </trkpt>
      <trkpt lat="41.869400" lon="-8.094883">
        <ele>557.0</ele>
        <time>2010-08-26T19:32:42Z</time>
      </trkpt>
      <trkpt lat="41.869450" lon="-8.094883">
        <ele>556.0</ele>
        <time>2010-08-26T19:32:43Z</time>
      </trkpt>
      <trkpt lat="41.869517" lon="-8.094867">
        <ele>555.0</ele>
        <time>2010-08-26T19:32:44Z</time>
      </trkpt>
      <trkpt lat="41.869567" lon="-8.094850">
        <ele>554.0</ele>
        <time>2010-08-26T19:32:45Z</time>
      </trkpt>
      <trkpt lat="41.869617" lon="-8.094833">
        <ele>554.0</ele>
        <time>2010-08-26T19:32:46Z</time>
      </trkpt>
      <trkpt lat="41.869667" lon="-8.094817">
        <ele>553.0</ele>
        <time>2010-08-26T19:32:47Z</time>
      </trkpt>
      <trkpt lat="41.869717" lon="-8.094817">
        <ele>552.0</ele>
        <time>2010-08-26T19:32:48Z</time>
      </trkpt>
      <trkpt lat="41.869767" lon="-8.094833">
        <ele>551.0</ele>
        <time>2010-08-26T19:32:49Z</time>
      </trkpt>
      <trkpt lat="41.869817" lon="-8.094817">
        <ele>551.0</ele>
        <time>2010-08-26T19:32:50Z</time>
      </trkpt>
      <trkpt lat="41.869850" lon="-8.094800">
        <ele>550.0</ele>
        <time>2010-08-26T19:32:51Z</time>
      </trkpt>
      <trkpt lat="41.869900" lon="-8.094800">
        <ele>549.0</ele>
        <time>2010-08-26T19:32:52Z</time>
      </trkpt>
      <trkpt lat="41.869950" lon="-8.094783">
        <ele>549.0</ele>
        <time>2010-08-26T19:32:53Z</time>
      </trkpt>
      <trkpt lat="41.870000" lon="-8.094783">
        <ele>548.0</ele>
        <time>2010-08-26T19:32:54Z</time>
      </trkpt>
      <trkpt lat="41.870067" lon="-8.094767">
        <ele>547.0</ele>
        <time>2010-08-26T19:32:55Z</time>
      </trkpt>
      <trkpt lat="41.870100" lon="-8.094750">
        <ele>546.0</ele>
        <time>2010-08-26T19:32:56Z</time>
      </trkpt>
      <trkpt lat="41.870150" lon="-8.094733">
        <ele>546.0</ele>
        <time>2010-08-26T19:32:57Z</time>
      </trkpt>
      <trkpt lat="41.870183" lon="-8.094717">
        <ele>545.0</ele>
        <time>2010-08-26T19:32:58Z</time>
      </trkpt>
      <trkpt lat="41.870217" lon="-8.094700">
        <ele>545.0</ele>
        <time>2010-08-26T19:32:59Z</time>
      </trkpt>
      <trkpt lat="41.870233" lon="-8.094667">
        <ele>544.0</ele>
        <time>2010-08-26T19:33:00Z</time>
      </trkpt>
      <trkpt lat="41.870283" lon="-8.094650">
        <ele>544.0</ele>
        <time>2010-08-26T19:33:01Z</time>
      </trkpt>
      <trkpt lat="41.870317" lon="-8.094617">
        <ele>543.0</ele>
        <time>2010-08-26T19:33:02Z</time>
      </trkpt>
      <trkpt lat="41.870350" lon="-8.094583">
        <ele>543.0</ele>
        <time>2010-08-26T19:33:03Z</time>
      </trkpt>
      <trkpt lat="41.870400" lon="-8.094550">
        <ele>542.0</ele>
        <time>2010-08-26T19:33:04Z</time>
      </trkpt>
      <trkpt lat="41.870450" lon="-8.094517">
        <ele>541.0</ele>
        <time>2010-08-26T19:33:05Z</time>
      </trkpt>
      <trkpt lat="41.870483" lon="-8.094467">
        <ele>540.0</ele>
        <time>2010-08-26T19:33:06Z</time>
      </trkpt>
      <trkpt lat="41.870533" lon="-8.094417">
        <ele>540.0</ele>
        <time>2010-08-26T19:33:07Z</time>
      </trkpt>
      <trkpt lat="41.870567" lon="-8.094400">
        <ele>539.0</ele>
        <time>2010-08-26T19:33:08Z</time>
      </trkpt>
      <trkpt lat="41.870600" lon="-8.094383">
        <ele>539.0</ele>
        <time>2010-08-26T19:33:09Z</time>
      </trkpt>
      <trkpt lat="41.870617" lon="-8.094333">
        <ele>538.0</ele>
        <time>2010-08-26T19:33:11Z</time>
      </trkpt>
      <trkpt lat="41.870667" lon="-8.094300">
        <ele>537.0</ele>
        <time>2010-08-26T19:33:13Z</time>
      </trkpt>
      <trkpt lat="41.870683" lon="-8.094317">
        <ele>536.0</ele>
        <time>2010-08-26T19:33:14Z</time>
      </trkpt>
      <trkpt lat="41.870717" lon="-8.094267">
        <ele>536.0</ele>
        <time>2010-08-26T19:33:16Z</time>
      </trkpt>
      <trkpt lat="41.870733" lon="-8.094217">
        <ele>536.0</ele>
        <time>2010-08-26T19:33:18Z</time>
      </trkpt>
      <trkpt lat="41.870750" lon="-8.094167">
        <ele>537.0</ele>
        <time>2010-08-26T19:33:22Z</time>
      </trkpt>
      <trkpt lat="41.870783" lon="-8.094150">
        <ele>537.0</ele>
        <time>2010-08-26T19:33:25Z</time>
      </trkpt>
      <trkpt lat="41.870800" lon="-8.094117">
        <ele>536.0</ele>
        <time>2010-08-26T19:33:27Z</time>
      </trkpt>
      <trkpt lat="41.870817" lon="-8.094100">
        <ele>535.0</ele>
        <time>2010-08-26T19:33:28Z</time>
      </trkpt>
      <trkpt lat="41.870850" lon="-8.094083">
        <ele>535.0</ele>
        <time>2010-08-26T19:33:29Z</time>
      </trkpt>
      <trkpt lat="41.870867" lon="-8.094067">
        <ele>534.0</ele>
        <time>2010-08-26T19:33:30Z</time>
      </trkpt>
      <trkpt lat="41.870900" lon="-8.094017">
        <ele>534.0</ele>
        <time>2010-08-26T19:33:31Z</time>
      </trkpt>
      <trkpt lat="41.870917" lon="-8.093983">
        <ele>533.0</ele>
        <time>2010-08-26T19:33:32Z</time>
      </trkpt>
      <trkpt lat="41.870950" lon="-8.093967">
        <ele>533.0</ele>
        <time>2010-08-26T19:33:33Z</time>
      </trkpt>
      <trkpt lat="41.870967" lon="-8.093917">
        <ele>532.0</ele>
        <time>2010-08-26T19:33:34Z</time>
      </trkpt>
      <trkpt lat="41.871000" lon="-8.093883">
        <ele>532.0</ele>
        <time>2010-08-26T19:33:35Z</time>
      </trkpt>
      <trkpt lat="41.871033" lon="-8.093833">
        <ele>531.0</ele>
        <time>2010-08-26T19:33:36Z</time>
      </trkpt>
      <trkpt lat="41.871067" lon="-8.093800">
        <ele>531.0</ele>
        <time>2010-08-26T19:33:37Z</time>
      </trkpt>
      <trkpt lat="41.871100" lon="-8.093750">
        <ele>530.0</ele>
        <time>2010-08-26T19:33:38Z</time>
      </trkpt>
      <trkpt lat="41.871133" lon="-8.093733">
        <ele>529.0</ele>
        <time>2010-08-26T19:33:39Z</time>
      </trkpt>
      <trkpt lat="41.871150" lon="-8.093717">
        <ele>529.0</ele>
        <time>2010-08-26T19:33:40Z</time>
      </trkpt>
      <trkpt lat="41.871183" lon="-8.093700">
        <ele>528.0</ele>
        <time>2010-08-26T19:33:42Z</time>
      </trkpt>
      <trkpt lat="41.871200" lon="-8.093717">
        <ele>528.0</ele>
        <time>2010-08-26T19:33:43Z</time>
      </trkpt>
      <trkpt lat="41.871217" lon="-8.093750">
        <ele>527.0</ele>
        <time>2010-08-26T19:33:44Z</time>
      </trkpt>
      <trkpt lat="41.871217" lon="-8.093783">
        <ele>527.0</ele>
        <time>2010-08-26T19:33:45Z</time>
      </trkpt>
      <trkpt lat="41.871217" lon="-8.093833">
        <ele>527.0</ele>
        <time>2010-08-26T19:33:46Z</time>
      </trkpt>
      <trkpt lat="41.871217" lon="-8.093883">
        <ele>526.0</ele>
        <time>2010-08-26T19:33:47Z</time>
      </trkpt>
      <trkpt lat="41.871217" lon="-8.093933">
        <ele>526.0</ele>
        <time>2010-08-26T19:33:48Z</time>
      </trkpt>
      <trkpt lat="41.871217" lon="-8.093967">
        <ele>526.0</ele>
        <time>2010-08-26T19:33:49Z</time>
      </trkpt>
      <trkpt lat="41.871217" lon="-8.094017">
        <ele>525.0</ele>
        <time>2010-08-26T19:33:50Z</time>
      </trkpt>
      <trkpt lat="41.871217" lon="-8.094067">
        <ele>525.0</ele>
        <time>2010-08-26T19:33:51Z</time>
      </trkpt>
      <trkpt lat="41.871217" lon="-8.094117">
        <ele>525.0</ele>
        <time>2010-08-26T19:33:52Z</time>
      </trkpt>
      <trkpt lat="41.871217" lon="-8.094167">
        <ele>524.0</ele>
        <time>2010-08-26T19:33:53Z</time>
      </trkpt>
      <trkpt lat="41.871250" lon="-8.094200">
        <ele>524.0</ele>
        <time>2010-08-26T19:33:54Z</time>
      </trkpt>
      <trkpt lat="41.871267" lon="-8.094217">
        <ele>524.0</ele>
        <time>2010-08-26T19:33:55Z</time>
      </trkpt>
      <trkpt lat="41.871300" lon="-8.094217">
        <ele>523.0</ele>
        <time>2010-08-26T19:33:56Z</time>
      </trkpt>
      <trkpt lat="41.871333" lon="-8.094233">
        <ele>523.0</ele>
        <time>2010-08-26T19:33:57Z</time>
      </trkpt>
      <trkpt lat="41.871367" lon="-8.094217">
        <ele>522.0</ele>
        <time>2010-08-26T19:33:58Z</time>
      </trkpt>
      <trkpt lat="41.871400" lon="-8.094200">
        <ele>522.0</ele>
        <time>2010-08-26T19:33:59Z</time>
      </trkpt>
      <trkpt lat="41.871433" lon="-8.094183">
        <ele>522.0</ele>
        <time>2010-08-26T19:34:00Z</time>
      </trkpt>
      <trkpt lat="41.871467" lon="-8.094150">
        <ele>521.0</ele>
        <time>2010-08-26T19:34:01Z</time>
      </trkpt>
      <trkpt lat="41.871500" lon="-8.094117">
        <ele>521.0</ele>
        <time>2010-08-26T19:34:02Z</time>
      </trkpt>
      <trkpt lat="41.871517" lon="-8.094083">
        <ele>520.0</ele>
        <time>2010-08-26T19:34:03Z</time>
      </trkpt>
      <trkpt lat="41.871533" lon="-8.094050">
        <ele>520.0</ele>
        <time>2010-08-26T19:34:04Z</time>
      </trkpt>
      <trkpt lat="41.871533" lon="-8.094000">
        <ele>519.0</ele>
        <time>2010-08-26T19:34:05Z</time>
      </trkpt>
      <trkpt lat="41.871533" lon="-8.093950">
        <ele>519.0</ele>
        <time>2010-08-26T19:34:06Z</time>
      </trkpt>
      <trkpt lat="41.871533" lon="-8.093917">
        <ele>519.0</ele>
        <time>2010-08-26T19:34:07Z</time>
      </trkpt>
      <trkpt lat="41.871533" lon="-8.093850">
        <ele>518.0</ele>
        <time>2010-08-26T19:34:08Z</time>
      </trkpt>
      <trkpt lat="41.871533" lon="-8.093800">
        <ele>518.0</ele>
        <time>2010-08-26T19:34:09Z</time>
      </trkpt>
      <trkpt lat="41.871517" lon="-8.093750">
        <ele>518.0</ele>
        <time>2010-08-26T19:34:10Z</time>
      </trkpt>
      <trkpt lat="41.871500" lon="-8.093717">
        <ele>517.0</ele>
        <time>2010-08-26T19:34:11Z</time>
      </trkpt>
      <trkpt lat="41.871500" lon="-8.093667">
        <ele>517.0</ele>
        <time>2010-08-26T19:34:12Z</time>
      </trkpt>
      <trkpt lat="41.871483" lon="-8.093617">
        <ele>517.0</ele>
        <time>2010-08-26T19:34:13Z</time>
      </trkpt>
      <trkpt lat="41.871500" lon="-8.093567">
        <ele>516.0</ele>
        <time>2010-08-26T19:34:14Z</time>
      </trkpt>
      <trkpt lat="41.871500" lon="-8.093517">
        <ele>516.0</ele>
        <time>2010-08-26T19:34:15Z</time>
      </trkpt>
      <trkpt lat="41.871517" lon="-8.093467">
        <ele>515.0</ele>
        <time>2010-08-26T19:34:16Z</time>
      </trkpt>
      <trkpt lat="41.871533" lon="-8.093417">
        <ele>515.0</ele>
        <time>2010-08-26T19:34:17Z</time>
      </trkpt>
      <trkpt lat="41.871567" lon="-8.093367">
        <ele>514.0</ele>
        <time>2010-08-26T19:34:18Z</time>
      </trkpt>
      <trkpt lat="41.871583" lon="-8.093333">
        <ele>513.0</ele>
        <time>2010-08-26T19:34:19Z</time>
      </trkpt>
      <trkpt lat="41.871600" lon="-8.093300">
        <ele>513.0</ele>
        <time>2010-08-26T19:34:20Z</time>
      </trkpt>
      <trkpt lat="41.871617" lon="-8.093283">
        <ele>513.0</ele>
        <time>2010-08-26T19:34:21Z</time>
      </trkpt>
      <trkpt lat="41.871633" lon="-8.093233">
        <ele>512.0</ele>
        <time>2010-08-26T19:34:22Z</time>
      </trkpt>
      <trkpt lat="41.871650" lon="-8.093200">
        <ele>512.0</ele>
        <time>2010-08-26T19:34:23Z</time>
      </trkpt>
      <trkpt lat="41.871683" lon="-8.093167">
        <ele>511.0</ele>
        <time>2010-08-26T19:34:24Z</time>
      </trkpt>
      <trkpt lat="41.871717" lon="-8.093133">
        <ele>511.0</ele>
        <time>2010-08-26T19:34:25Z</time>
      </trkpt>
      <trkpt lat="41.871733" lon="-8.093117">
        <ele>511.0</ele>
        <time>2010-08-26T19:34:26Z</time>
      </trkpt>
      <trkpt lat="41.871767" lon="-8.093117">
        <ele>510.0</ele>
        <time>2010-08-26T19:34:27Z</time>
      </trkpt>
      <trkpt lat="41.871783" lon="-8.093117">
        <ele>510.0</ele>
        <time>2010-08-26T19:34:28Z</time>
      </trkpt>
      <trkpt lat="41.871817" lon="-8.093083">
        <ele>509.0</ele>
        <time>2010-08-26T19:34:29Z</time>
      </trkpt>
      <trkpt lat="41.871850" lon="-8.093067">
        <ele>508.0</ele>
        <time>2010-08-26T19:34:30Z</time>
      </trkpt>
      <trkpt lat="41.871867" lon="-8.093017">
        <ele>508.0</ele>
        <time>2010-08-26T19:34:31Z</time>
      </trkpt>
      <trkpt lat="41.871867" lon="-8.092967">
        <ele>507.0</ele>
        <time>2010-08-26T19:34:32Z</time>
      </trkpt>
      <trkpt lat="41.871883" lon="-8.092917">
        <ele>507.0</ele>
        <time>2010-08-26T19:34:33Z</time>
      </trkpt>
      <trkpt lat="41.871883" lon="-8.092867">
        <ele>506.0</ele>
        <time>2010-08-26T19:34:34Z</time>
      </trkpt>
      <trkpt lat="41.871900" lon="-8.092800">
        <ele>506.0</ele>
        <time>2010-08-26T19:34:35Z</time>
      </trkpt>
      <trkpt lat="41.871933" lon="-8.092750">
        <ele>505.0</ele>
        <time>2010-08-26T19:34:36Z</time>
      </trkpt>
      <trkpt lat="41.871950" lon="-8.092700">
        <ele>505.0</ele>
        <time>2010-08-26T19:34:37Z</time>
      </trkpt>
      <trkpt lat="41.871983" lon="-8.092667">
        <ele>505.0</ele>
        <time>2010-08-26T19:34:38Z</time>
      </trkpt>
      <trkpt lat="41.872017" lon="-8.092633">
        <ele>505.0</ele>
        <time>2010-08-26T19:34:39Z</time>
      </trkpt>
      <trkpt lat="41.872050" lon="-8.092583">
        <ele>505.0</ele>
        <time>2010-08-26T19:34:40Z</time>
      </trkpt>
      <trkpt lat="41.872083" lon="-8.092550">
        <ele>505.0</ele>
        <time>2010-08-26T19:34:41Z</time>
      </trkpt>
      <trkpt lat="41.872100" lon="-8.092500">
        <ele>504.0</ele>
        <time>2010-08-26T19:34:42Z</time>
      </trkpt>
      <trkpt lat="41.872117" lon="-8.092483">
        <ele>504.0</ele>
        <time>2010-08-26T19:34:43Z</time>
      </trkpt>
      <trkpt lat="41.872150" lon="-8.092483">
        <ele>504.0</ele>
        <time>2010-08-26T19:34:44Z</time>
      </trkpt>
      <trkpt lat="41.872183" lon="-8.092500">
        <ele>504.0</ele>
        <time>2010-08-26T19:34:45Z</time>
      </trkpt>
      <trkpt lat="41.872183" lon="-8.092533">
        <ele>503.0</ele>
        <time>2010-08-26T19:34:46Z</time>
      </trkpt>
      <trkpt lat="41.872200" lon="-8.092567">
        <ele>503.0</ele>
        <time>2010-08-26T19:34:47Z</time>
      </trkpt>
      <trkpt lat="41.872200" lon="-8.092617">
        <ele>503.0</ele>
        <time>2010-08-26T19:34:48Z</time>
      </trkpt>
      <trkpt lat="41.872200" lon="-8.092667">
        <ele>502.0</ele>
        <time>2010-08-26T19:34:49Z</time>
      </trkpt>
      <trkpt lat="41.872200" lon="-8.092717">
        <ele>502.0</ele>
        <time>2010-08-26T19:34:50Z</time>
      </trkpt>
      <trkpt lat="41.872200" lon="-8.092750">
        <ele>501.0</ele>
        <time>2010-08-26T19:34:51Z</time>
      </trkpt>
      <trkpt lat="41.872200" lon="-8.092800">
        <ele>501.0</ele>
        <time>2010-08-26T19:34:52Z</time>
      </trkpt>
      <trkpt lat="41.872217" lon="-8.092850">
        <ele>500.0</ele>
        <time>2010-08-26T19:34:53Z</time>
      </trkpt>
      <trkpt lat="41.872217" lon="-8.092900">
        <ele>500.0</ele>
        <time>2010-08-26T19:34:54Z</time>
      </trkpt>
      <trkpt lat="41.872200" lon="-8.092950">
        <ele>499.0</ele>
        <time>2010-08-26T19:34:55Z</time>
      </trkpt>
      <trkpt lat="41.872200" lon="-8.093017">
        <ele>498.0</ele>
        <time>2010-08-26T19:34:56Z</time>
      </trkpt>
      <trkpt lat="41.872200" lon="-8.093083">
        <ele>497.0</ele>
        <time>2010-08-26T19:34:57Z</time>
      </trkpt>
      <trkpt lat="41.872183" lon="-8.093133">
        <ele>497.0</ele>
        <time>2010-08-26T19:34:58Z</time>
      </trkpt>
      <trkpt lat="41.872167" lon="-8.093200">
        <ele>496.0</ele>
        <time>2010-08-26T19:34:59Z</time>
      </trkpt>
      <trkpt lat="41.872167" lon="-8.093250">
        <ele>496.0</ele>
        <time>2010-08-26T19:35:00Z</time>
      </trkpt>
      <trkpt lat="41.872133" lon="-8.093283">
        <ele>496.0</ele>
        <time>2010-08-26T19:35:01Z</time>
      </trkpt>
      <trkpt lat="41.872133" lon="-8.093333">
        <ele>496.0</ele>
        <time>2010-08-26T19:35:02Z</time>
      </trkpt>
      <trkpt lat="41.872133" lon="-8.093350">
        <ele>496.0</ele>
        <time>2010-08-26T19:35:03Z</time>
      </trkpt>
      <trkpt lat="41.872167" lon="-8.093383">
        <ele>496.0</ele>
        <time>2010-08-26T19:35:04Z</time>
      </trkpt>
      <trkpt lat="41.872183" lon="-8.093433">
        <ele>496.0</ele>
        <time>2010-08-26T19:35:05Z</time>
      </trkpt>
      <trkpt lat="41.872183" lon="-8.093467">
        <ele>496.0</ele>
        <time>2010-08-26T19:35:06Z</time>
      </trkpt>
      <trkpt lat="41.872200" lon="-8.093517">
        <ele>495.0</ele>
        <time>2010-08-26T19:35:07Z</time>
      </trkpt>
      <trkpt lat="41.872217" lon="-8.093550">
        <ele>495.0</ele>
        <time>2010-08-26T19:35:08Z</time>
      </trkpt>
      <trkpt lat="41.872217" lon="-8.093600">
        <ele>495.0</ele>
        <time>2010-08-26T19:35:09Z</time>
      </trkpt>
      <trkpt lat="41.872233" lon="-8.093650">
        <ele>495.0</ele>
        <time>2010-08-26T19:35:10Z</time>
      </trkpt>
      <trkpt lat="41.872250" lon="-8.093700">
        <ele>495.0</ele>
        <time>2010-08-26T19:35:11Z</time>
      </trkpt>
      <trkpt lat="41.872267" lon="-8.093750">
        <ele>495.0</ele>
        <time>2010-08-26T19:35:12Z</time>
      </trkpt>
      <trkpt lat="41.872267" lon="-8.093783">
        <ele>495.0</ele>
        <time>2010-08-26T19:35:13Z</time>
      </trkpt>
      <trkpt lat="41.872267" lon="-8.093833">
        <ele>495.0</ele>
        <time>2010-08-26T19:35:15Z</time>
      </trkpt>
      <trkpt lat="41.872300" lon="-8.093867">
        <ele>495.0</ele>
        <time>2010-08-26T19:35:17Z</time>
      </trkpt>
      <trkpt lat="41.872317" lon="-8.093917">
        <ele>494.0</ele>
        <time>2010-08-26T19:35:19Z</time>
      </trkpt>
      <trkpt lat="41.872350" lon="-8.093917">
        <ele>494.0</ele>
        <time>2010-08-26T19:35:21Z</time>
      </trkpt>
      <trkpt lat="41.872367" lon="-8.093933">
        <ele>494.0</ele>
        <time>2010-08-26T19:35:22Z</time>
      </trkpt>
      <trkpt lat="41.872383" lon="-8.093983">
        <ele>493.0</ele>
        <time>2010-08-26T19:35:23Z</time>
      </trkpt>
      <trkpt lat="41.872417" lon="-8.094017">
        <ele>493.0</ele>
        <time>2010-08-26T19:35:24Z</time>
      </trkpt>
      <trkpt lat="41.872433" lon="-8.094050">
        <ele>493.0</ele>
        <time>2010-08-26T19:35:25Z</time>
      </trkpt>
      <trkpt lat="41.872450" lon="-8.094083">
        <ele>492.0</ele>
        <time>2010-08-26T19:35:26Z</time>
      </trkpt>
      <trkpt lat="41.872483" lon="-8.094117">
        <ele>491.0</ele>
        <time>2010-08-26T19:35:27Z</time>
      </trkpt>
      <trkpt lat="41.872500" lon="-8.094150">
        <ele>490.0</ele>
        <time>2010-08-26T19:35:28Z</time>
      </trkpt>
      <trkpt lat="41.872517" lon="-8.094183">
        <ele>490.0</ele>
        <time>2010-08-26T19:35:29Z</time>
      </trkpt>
      <trkpt lat="41.872533" lon="-8.094200">
        <ele>489.0</ele>
        <time>2010-08-26T19:35:30Z</time>
      </trkpt>
      <trkpt lat="41.872550" lon="-8.094233">
        <ele>488.0</ele>
        <time>2010-08-26T19:35:31Z</time>
      </trkpt>
      <trkpt lat="41.872567" lon="-8.094283">
        <ele>488.0</ele>
        <time>2010-08-26T19:35:32Z</time>
      </trkpt>
      <trkpt lat="41.872583" lon="-8.094317">
        <ele>487.0</ele>
        <time>2010-08-26T19:35:33Z</time>
      </trkpt>
      <trkpt lat="41.872600" lon="-8.094367">
        <ele>487.0</ele>
        <time>2010-08-26T19:35:34Z</time>
      </trkpt>
      <trkpt lat="41.872600" lon="-8.094433">
        <ele>487.0</ele>
        <time>2010-08-26T19:35:35Z</time>
      </trkpt>
      <trkpt lat="41.872600" lon="-8.094483">
        <ele>486.0</ele>
        <time>2010-08-26T19:35:36Z</time>
      </trkpt>
      <trkpt lat="41.872600" lon="-8.094533">
        <ele>486.0</ele>
        <time>2010-08-26T19:35:37Z</time>
      </trkpt>
      <trkpt lat="41.872600" lon="-8.094567">
        <ele>486.0</ele>
        <time>2010-08-26T19:35:38Z</time>
      </trkpt>
      <trkpt lat="41.872583" lon="-8.094617">
        <ele>486.0</ele>
        <time>2010-08-26T19:35:39Z</time>
      </trkpt>
      <trkpt lat="41.872583" lon="-8.094650">
        <ele>486.0</ele>
        <time>2010-08-26T19:35:40Z</time>
      </trkpt>
      <trkpt lat="41.872583" lon="-8.094700">
        <ele>486.0</ele>
        <time>2010-08-26T19:35:41Z</time>
      </trkpt>
      <trkpt lat="41.872600" lon="-8.094733">
        <ele>486.0</ele>
        <time>2010-08-26T19:35:42Z</time>
      </trkpt>
      <trkpt lat="41.872617" lon="-8.094767">
        <ele>486.0</ele>
        <time>2010-08-26T19:35:43Z</time>
      </trkpt>
      <trkpt lat="41.872617" lon="-8.094817">
        <ele>486.0</ele>
        <time>2010-08-26T19:35:44Z</time>
      </trkpt>
      <trkpt lat="41.872600" lon="-8.094867">
        <ele>486.0</ele>
        <time>2010-08-26T19:35:45Z</time>
      </trkpt>
      <trkpt lat="41.872600" lon="-8.094917">
        <ele>486.0</ele>
        <time>2010-08-26T19:35:46Z</time>
      </trkpt>
      <trkpt lat="41.872583" lon="-8.094967">
        <ele>485.0</ele>
        <time>2010-08-26T19:35:47Z</time>
      </trkpt>
      <trkpt lat="41.872583" lon="-8.095000">
        <ele>485.0</ele>
        <time>2010-08-26T19:35:48Z</time>
      </trkpt>
      <trkpt lat="41.872567" lon="-8.095050">
        <ele>485.0</ele>
        <time>2010-08-26T19:35:50Z</time>
      </trkpt>
      <trkpt lat="41.872550" lon="-8.095100">
        <ele>484.0</ele>
        <time>2010-08-26T19:35:52Z</time>
      </trkpt>
      <trkpt lat="41.872533" lon="-8.095133">
        <ele>484.0</ele>
        <time>2010-08-26T19:35:53Z</time>
      </trkpt>
      <trkpt lat="41.872517" lon="-8.095167">
        <ele>484.0</ele>
        <time>2010-08-26T19:35:54Z</time>
      </trkpt>
      <trkpt lat="41.872500" lon="-8.095200">
        <ele>484.0</ele>
        <time>2010-08-26T19:35:55Z</time>
      </trkpt>
      <trkpt lat="41.872483" lon="-8.095233">
        <ele>483.0</ele>
        <time>2010-08-26T19:35:56Z</time>
      </trkpt>
      <trkpt lat="41.872467" lon="-8.095283">
        <ele>483.0</ele>
        <time>2010-08-26T19:35:57Z</time>
      </trkpt>
      <trkpt lat="41.872450" lon="-8.095317">
        <ele>482.0</ele>
        <time>2010-08-26T19:35:58Z</time>
      </trkpt>
      <trkpt lat="41.872433" lon="-8.095367">
        <ele>481.0</ele>
        <time>2010-08-26T19:35:59Z</time>
      </trkpt>
      <trkpt lat="41.872417" lon="-8.095417">
        <ele>480.0</ele>
        <time>2010-08-26T19:36:00Z</time>
      </trkpt>
      <trkpt lat="41.872400" lon="-8.095483">
        <ele>480.0</ele>
        <time>2010-08-26T19:36:01Z</time>
      </trkpt>
      <trkpt lat="41.872383" lon="-8.095533">
        <ele>479.0</ele>
        <time>2010-08-26T19:36:02Z</time>
      </trkpt>
      <trkpt lat="41.872383" lon="-8.095583">
        <ele>479.0</ele>
        <time>2010-08-26T19:36:03Z</time>
      </trkpt>
      <trkpt lat="41.872383" lon="-8.095633">
        <ele>478.0</ele>
        <time>2010-08-26T19:36:04Z</time>
      </trkpt>
      <trkpt lat="41.872367" lon="-8.095667">
        <ele>478.0</ele>
        <time>2010-08-26T19:36:05Z</time>
      </trkpt>
      <trkpt lat="41.872367" lon="-8.095700">
        <ele>478.0</ele>
        <time>2010-08-26T19:36:06Z</time>
      </trkpt>
      <trkpt lat="41.872350" lon="-8.095733">
        <ele>477.0</ele>
        <time>2010-08-26T19:36:07Z</time>
      </trkpt>
      <trkpt lat="41.872350" lon="-8.095767">
        <ele>477.0</ele>
        <time>2010-08-26T19:36:08Z</time>
      </trkpt>
      <trkpt lat="41.872350" lon="-8.095800">
        <ele>477.0</ele>
        <time>2010-08-26T19:36:09Z</time>
      </trkpt>
      <trkpt lat="41.872333" lon="-8.095850">
        <ele>476.0</ele>
        <time>2010-08-26T19:36:11Z</time>
      </trkpt>
      <trkpt lat="41.872317" lon="-8.095900">
        <ele>475.0</ele>
        <time>2010-08-26T19:36:13Z</time>
      </trkpt>
      <trkpt lat="41.872300" lon="-8.095933">
        <ele>474.0</ele>
        <time>2010-08-26T19:36:14Z</time>
      </trkpt>
      <trkpt lat="41.872267" lon="-8.095967">
        <ele>474.0</ele>
        <time>2010-08-26T19:36:15Z</time>
      </trkpt>
      <trkpt lat="41.872233" lon="-8.096000">
        <ele>473.0</ele>
        <time>2010-08-26T19:36:17Z</time>
      </trkpt>
      <trkpt lat="41.872217" lon="-8.096017">
        <ele>473.0</ele>
        <time>2010-08-26T19:36:18Z</time>
      </trkpt>
      <trkpt lat="41.872200" lon="-8.096050">
        <ele>473.0</ele>
        <time>2010-08-26T19:36:19Z</time>
      </trkpt>
      <trkpt lat="41.872183" lon="-8.096067">
        <ele>472.0</ele>
        <time>2010-08-26T19:36:20Z</time>
      </trkpt>
      <trkpt lat="41.872167" lon="-8.096100">
        <ele>472.0</ele>
        <time>2010-08-26T19:36:21Z</time>
      </trkpt>
      <trkpt lat="41.872150" lon="-8.096150">
        <ele>471.0</ele>
        <time>2010-08-26T19:36:22Z</time>
      </trkpt>
      <trkpt lat="41.872117" lon="-8.096183">
        <ele>470.0</ele>
        <time>2010-08-26T19:36:23Z</time>
      </trkpt>
      <trkpt lat="41.872083" lon="-8.096233">
        <ele>470.0</ele>
        <time>2010-08-26T19:36:24Z</time>
      </trkpt>
      <trkpt lat="41.872050" lon="-8.096283">
        <ele>469.0</ele>
        <time>2010-08-26T19:36:25Z</time>
      </trkpt>
      <trkpt lat="41.872017" lon="-8.096317">
        <ele>469.0</ele>
        <time>2010-08-26T19:36:26Z</time>
      </trkpt>
      <trkpt lat="41.871983" lon="-8.096350">
        <ele>468.0</ele>
        <time>2010-08-26T19:36:27Z</time>
      </trkpt>
      <trkpt lat="41.871967" lon="-8.096383">
        <ele>468.0</ele>
        <time>2010-08-26T19:36:28Z</time>
      </trkpt>
      <trkpt lat="41.871933" lon="-8.096433">
        <ele>468.0</ele>
        <time>2010-08-26T19:36:30Z</time>
      </trkpt>
      <trkpt lat="41.871917" lon="-8.096467">
        <ele>468.0</ele>
        <time>2010-08-26T19:36:31Z</time>
      </trkpt>
      <trkpt lat="41.871883" lon="-8.096500">
        <ele>467.0</ele>
        <time>2010-08-26T19:36:32Z</time>
      </trkpt>
      <trkpt lat="41.871850" lon="-8.096533">
        <ele>467.0</ele>
        <time>2010-08-26T19:36:33Z</time>
      </trkpt>
      <trkpt lat="41.871833" lon="-8.096567">
        <ele>466.0</ele>
        <time>2010-08-26T19:36:34Z</time>
      </trkpt>
      <trkpt lat="41.871817" lon="-8.096600">
        <ele>466.0</ele>
        <time>2010-08-26T19:36:35Z</time>
      </trkpt>
      <trkpt lat="41.871800" lon="-8.096650">
        <ele>466.0</ele>
        <time>2010-08-26T19:36:36Z</time>
      </trkpt>
      <trkpt lat="41.871767" lon="-8.096683">
        <ele>466.0</ele>
        <time>2010-08-26T19:36:37Z</time>
      </trkpt>
      <trkpt lat="41.871750" lon="-8.096717">
        <ele>465.0</ele>
        <time>2010-08-26T19:36:38Z</time>
      </trkpt>
      <trkpt lat="41.871733" lon="-8.096750">
        <ele>465.0</ele>
        <time>2010-08-26T19:36:39Z</time>
      </trkpt>
      <trkpt lat="41.871717" lon="-8.096783">
        <ele>465.0</ele>
        <time>2010-08-26T19:36:40Z</time>
      </trkpt>
      <trkpt lat="41.871683" lon="-8.096817">
        <ele>465.0</ele>
        <time>2010-08-26T19:36:41Z</time>
      </trkpt>
      <trkpt lat="41.871650" lon="-8.096850">
        <ele>464.0</ele>
        <time>2010-08-26T19:36:42Z</time>
      </trkpt>
      <trkpt lat="41.871617" lon="-8.096883">
        <ele>464.0</ele>
        <time>2010-08-26T19:36:43Z</time>
      </trkpt>
      <trkpt lat="41.871583" lon="-8.096917">
        <ele>463.0</ele>
        <time>2010-08-26T19:36:44Z</time>
      </trkpt>
      <trkpt lat="41.871550" lon="-8.096950">
        <ele>463.0</ele>
        <time>2010-08-26T19:36:45Z</time>
      </trkpt>
      <trkpt lat="41.871517" lon="-8.096983">
        <ele>463.0</ele>
        <time>2010-08-26T19:36:46Z</time>
      </trkpt>
      <trkpt lat="41.871500" lon="-8.097000">
        <ele>462.0</ele>
        <time>2010-08-26T19:36:47Z</time>
      </trkpt>
      <trkpt lat="41.871467" lon="-8.097033">
        <ele>462.0</ele>
        <time>2010-08-26T19:36:48Z</time>
      </trkpt>
      <trkpt lat="41.871450" lon="-8.097083">
        <ele>461.0</ele>
        <time>2010-08-26T19:36:49Z</time>
      </trkpt>
      <trkpt lat="41.871417" lon="-8.097100">
        <ele>460.0</ele>
        <time>2010-08-26T19:36:50Z</time>
      </trkpt>
      <trkpt lat="41.871383" lon="-8.097133">
        <ele>460.0</ele>
        <time>2010-08-26T19:36:51Z</time>
      </trkpt>
      <trkpt lat="41.871367" lon="-8.097150">
        <ele>460.0</ele>
        <time>2010-08-26T19:36:52Z</time>
      </trkpt>
      <trkpt lat="41.871333" lon="-8.097183">
        <ele>459.0</ele>
        <time>2010-08-26T19:36:53Z</time>
      </trkpt>
      <trkpt lat="41.871317" lon="-8.097200">
        <ele>459.0</ele>
        <time>2010-08-26T19:36:54Z</time>
      </trkpt>
      <trkpt lat="41.871283" lon="-8.097217">
        <ele>458.0</ele>
        <time>2010-08-26T19:36:55Z</time>
      </trkpt>
      <trkpt lat="41.871250" lon="-8.097233">
        <ele>458.0</ele>
        <time>2010-08-26T19:36:56Z</time>
      </trkpt>
      <trkpt lat="41.871233" lon="-8.097267">
        <ele>458.0</ele>
        <time>2010-08-26T19:36:57Z</time>
      </trkpt>
      <trkpt lat="41.871200" lon="-8.097300">
        <ele>457.0</ele>
        <time>2010-08-26T19:36:58Z</time>
      </trkpt>
      <trkpt lat="41.871167" lon="-8.097333">
        <ele>457.0</ele>
        <time>2010-08-26T19:36:59Z</time>
      </trkpt>
      <trkpt lat="41.871133" lon="-8.097367">
        <ele>457.0</ele>
        <time>2010-08-26T19:37:00Z</time>
      </trkpt>
      <trkpt lat="41.871117" lon="-8.097400">
        <ele>456.0</ele>
        <time>2010-08-26T19:37:01Z</time>
      </trkpt>
      <trkpt lat="41.871083" lon="-8.097417">
        <ele>456.0</ele>
        <time>2010-08-26T19:37:02Z</time>
      </trkpt>
      <trkpt lat="41.871050" lon="-8.097433">
        <ele>456.0</ele>
        <time>2010-08-26T19:37:03Z</time>
      </trkpt>
      <trkpt lat="41.871017" lon="-8.097467">
        <ele>455.0</ele>
        <time>2010-08-26T19:37:04Z</time>
      </trkpt>
      <trkpt lat="41.871000" lon="-8.097500">
        <ele>455.0</ele>
        <time>2010-08-26T19:37:05Z</time>
      </trkpt>
      <trkpt lat="41.870967" lon="-8.097533">
        <ele>454.0</ele>
        <time>2010-08-26T19:37:06Z</time>
      </trkpt>
      <trkpt lat="41.870933" lon="-8.097583">
        <ele>454.0</ele>
        <time>2010-08-26T19:37:07Z</time>
      </trkpt>
      <trkpt lat="41.870900" lon="-8.097617">
        <ele>454.0</ele>
        <time>2010-08-26T19:37:08Z</time>
      </trkpt>
      <trkpt lat="41.870883" lon="-8.097667">
        <ele>454.0</ele>
        <time>2010-08-26T19:37:09Z</time>
      </trkpt>
      <trkpt lat="41.870867" lon="-8.097717">
        <ele>454.0</ele>
        <time>2010-08-26T19:37:10Z</time>
      </trkpt>
      <trkpt lat="41.870850" lon="-8.097767">
        <ele>453.0</ele>
        <time>2010-08-26T19:37:11Z</time>
      </trkpt>
      <trkpt lat="41.870833" lon="-8.097817">
        <ele>453.0</ele>
        <time>2010-08-26T19:37:12Z</time>
      </trkpt>
      <trkpt lat="41.870817" lon="-8.097867">
        <ele>453.0</ele>
        <time>2010-08-26T19:37:13Z</time>
      </trkpt>
      <trkpt lat="41.870817" lon="-8.097917">
        <ele>452.0</ele>
        <time>2010-08-26T19:37:14Z</time>
      </trkpt>
      <trkpt lat="41.870833" lon="-8.097950">
        <ele>452.0</ele>
        <time>2010-08-26T19:37:15Z</time>
      </trkpt>
      <trkpt lat="41.870833" lon="-8.097983">
        <ele>451.0</ele>
        <time>2010-08-26T19:37:16Z</time>
      </trkpt>
      <trkpt lat="41.870850" lon="-8.098017">
        <ele>451.0</ele>
        <time>2010-08-26T19:37:17Z</time>
      </trkpt>
      <trkpt lat="41.870850" lon="-8.098050">
        <ele>450.0</ele>
        <time>2010-08-26T19:37:18Z</time>
      </trkpt>
      <trkpt lat="41.870867" lon="-8.098100">
        <ele>450.0</ele>
        <time>2010-08-26T19:37:19Z</time>
      </trkpt>
      <trkpt lat="41.870883" lon="-8.098133">
        <ele>449.0</ele>
        <time>2010-08-26T19:37:20Z</time>
      </trkpt>
      <trkpt lat="41.870900" lon="-8.098167">
        <ele>449.0</ele>
        <time>2010-08-26T19:37:21Z</time>
      </trkpt>
      <trkpt lat="41.870917" lon="-8.098183">
        <ele>449.0</ele>
        <time>2010-08-26T19:37:22Z</time>
      </trkpt>
      <trkpt lat="41.870933" lon="-8.098217">
        <ele>448.0</ele>
        <time>2010-08-26T19:37:23Z</time>
      </trkpt>
      <trkpt lat="41.870950" lon="-8.098267">
        <ele>448.0</ele>
        <time>2010-08-26T19:37:24Z</time>
      </trkpt>
      <trkpt lat="41.870967" lon="-8.098317">
        <ele>448.0</ele>
        <time>2010-08-26T19:37:25Z</time>
      </trkpt>
      <trkpt lat="41.870983" lon="-8.098367">
        <ele>448.0</ele>
        <time>2010-08-26T19:37:26Z</time>
      </trkpt>
      <trkpt lat="41.871017" lon="-8.098417">
        <ele>447.0</ele>
        <time>2010-08-26T19:37:27Z</time>
      </trkpt>
      <trkpt lat="41.871050" lon="-8.098467">
        <ele>447.0</ele>
        <time>2010-08-26T19:37:28Z</time>
      </trkpt>
      <trkpt lat="41.871083" lon="-8.098533">
        <ele>447.0</ele>
        <time>2010-08-26T19:37:29Z</time>
      </trkpt>
      <trkpt lat="41.871117" lon="-8.098600">
        <ele>446.0</ele>
        <time>2010-08-26T19:37:30Z</time>
      </trkpt>
      <trkpt lat="41.871150" lon="-8.098667">
        <ele>446.0</ele>
        <time>2010-08-26T19:37:31Z</time>
      </trkpt>
      <trkpt lat="41.871183" lon="-8.098733">
        <ele>446.0</ele>
        <time>2010-08-26T19:37:32Z</time>
      </trkpt>
      <trkpt lat="41.871200" lon="-8.098783">
        <ele>445.0</ele>
        <time>2010-08-26T19:37:33Z</time>
      </trkpt>
      <trkpt lat="41.871217" lon="-8.098850">
        <ele>444.0</ele>
        <time>2010-08-26T19:37:34Z</time>
      </trkpt>
      <trkpt lat="41.871233" lon="-8.098900">
        <ele>443.0</ele>
        <time>2010-08-26T19:37:35Z</time>
      </trkpt>
      <trkpt lat="41.871250" lon="-8.098950">
        <ele>442.0</ele>
        <time>2010-08-26T19:37:37Z</time>
      </trkpt>
      <trkpt lat="41.871250" lon="-8.099000">
        <ele>439.0</ele>
        <time>2010-08-26T19:37:50Z</time>
      </trkpt>
      <trkpt lat="41.871267" lon="-8.099017">
        <ele>439.0</ele>
        <time>2010-08-26T19:37:51Z</time>
      </trkpt>
      <trkpt lat="41.871300" lon="-8.099033">
        <ele>439.0</ele>
        <time>2010-08-26T19:37:52Z</time>
      </trkpt>
      <trkpt lat="41.871333" lon="-8.099050">
        <ele>439.0</ele>
        <time>2010-08-26T19:37:53Z</time>
      </trkpt>
      <trkpt lat="41.871367" lon="-8.099050">
        <ele>438.0</ele>
        <time>2010-08-26T19:37:54Z</time>
      </trkpt>
      <trkpt lat="41.871400" lon="-8.099050">
        <ele>438.0</ele>
        <time>2010-08-26T19:37:56Z</time>
      </trkpt>
      <trkpt lat="41.871400" lon="-8.099100">
        <ele>438.0</ele>
        <time>2010-08-26T19:38:09Z</time>
      </trkpt>
      <trkpt lat="41.871367" lon="-8.099133">
        <ele>438.0</ele>
        <time>2010-08-26T19:38:10Z</time>
      </trkpt>
      <trkpt lat="41.871333" lon="-8.099183">
        <ele>437.0</ele>
        <time>2010-08-26T19:38:11Z</time>
      </trkpt>
      <trkpt lat="41.871283" lon="-8.099233">
        <ele>437.0</ele>
        <time>2010-08-26T19:38:12Z</time>
      </trkpt>
      <trkpt lat="41.871233" lon="-8.099283">
        <ele>436.0</ele>
        <time>2010-08-26T19:38:13Z</time>
      </trkpt>
      <trkpt lat="41.871200" lon="-8.099333">
        <ele>435.0</ele>
        <time>2010-08-26T19:38:14Z</time>
      </trkpt>
      <trkpt lat="41.871183" lon="-8.099400">
        <ele>434.0</ele>
        <time>2010-08-26T19:38:15Z</time>
      </trkpt>
      <trkpt lat="41.871200" lon="-8.099467">
        <ele>433.0</ele>
        <time>2010-08-26T19:38:16Z</time>
      </trkpt>
      <trkpt lat="41.871200" lon="-8.099533">
        <ele>433.0</ele>
        <time>2010-08-26T19:38:17Z</time>
      </trkpt>
      <trkpt lat="41.871183" lon="-8.099617">
        <ele>432.0</ele>
        <time>2010-08-26T19:38:18Z</time>
      </trkpt>
      <trkpt lat="41.871183" lon="-8.099667">
        <ele>431.0</ele>
        <time>2010-08-26T19:38:19Z</time>
      </trkpt>
      <trkpt lat="41.871167" lon="-8.099717">
        <ele>431.0</ele>
        <time>2010-08-26T19:38:20Z</time>
      </trkpt>
      <trkpt lat="41.871183" lon="-8.099750">
        <ele>430.0</ele>
        <time>2010-08-26T19:38:21Z</time>
      </trkpt>
      <trkpt lat="41.871200" lon="-8.099783">
        <ele>430.0</ele>
        <time>2010-08-26T19:38:22Z</time>
      </trkpt>
      <trkpt lat="41.871233" lon="-8.099817">
        <ele>429.0</ele>
        <time>2010-08-26T19:38:23Z</time>
      </trkpt>
      <trkpt lat="41.871267" lon="-8.099850">
        <ele>429.0</ele>
        <time>2010-08-26T19:38:24Z</time>
      </trkpt>
      <trkpt lat="41.871300" lon="-8.099900">
        <ele>428.0</ele>
        <time>2010-08-26T19:38:25Z</time>
      </trkpt>
      <trkpt lat="41.871317" lon="-8.099933">
        <ele>428.0</ele>
        <time>2010-08-26T19:38:26Z</time>
      </trkpt>
      <trkpt lat="41.871333" lon="-8.099967">
        <ele>428.0</ele>
        <time>2010-08-26T19:38:27Z</time>
      </trkpt>
      <trkpt lat="41.871333" lon="-8.100000">
        <ele>427.0</ele>
        <time>2010-08-26T19:38:28Z</time>
      </trkpt>
      <trkpt lat="41.871333" lon="-8.100033">
        <ele>427.0</ele>
        <time>2010-08-26T19:38:29Z</time>
      </trkpt>
      <trkpt lat="41.871367" lon="-8.100050">
        <ele>427.0</ele>
        <time>2010-08-26T19:38:30Z</time>
      </trkpt>
      <trkpt lat="41.871400" lon="-8.100067">
        <ele>426.0</ele>
        <time>2010-08-26T19:38:31Z</time>
      </trkpt>
      <trkpt lat="41.871450" lon="-8.100100">
        <ele>426.0</ele>
        <time>2010-08-26T19:38:32Z</time>
      </trkpt>
      <trkpt lat="41.871483" lon="-8.100117">
        <ele>426.0</ele>
        <time>2010-08-26T19:38:33Z</time>
      </trkpt>
      <trkpt lat="41.871533" lon="-8.100117">
        <ele>425.0</ele>
        <time>2010-08-26T19:38:34Z</time>
      </trkpt>
      <trkpt lat="41.871583" lon="-8.100117">
        <ele>425.0</ele>
        <time>2010-08-26T19:38:35Z</time>
      </trkpt>
      <trkpt lat="41.871617" lon="-8.100117">
        <ele>425.0</ele>
        <time>2010-08-26T19:38:36Z</time>
      </trkpt>
      <trkpt lat="41.871650" lon="-8.100133">
        <ele>425.0</ele>
        <time>2010-08-26T19:38:37Z</time>
      </trkpt>
      <trkpt lat="41.871683" lon="-8.100133">
        <ele>425.0</ele>
        <time>2010-08-26T19:38:38Z</time>
      </trkpt>
      <trkpt lat="41.871717" lon="-8.100150">
        <ele>425.0</ele>
        <time>2010-08-26T19:38:39Z</time>
      </trkpt>
      <trkpt lat="41.871700" lon="-8.100150">
        <ele>426.0</ele>
        <time>2010-08-26T19:38:46Z</time>
      </trkpt>
      <trkpt lat="41.871667" lon="-8.100150">
        <ele>427.0</ele>
        <time>2010-08-26T19:38:47Z</time>
      </trkpt>
      <trkpt lat="41.871633" lon="-8.100150">
        <ele>427.0</ele>
        <time>2010-08-26T19:38:48Z</time>
      </trkpt>
      <trkpt lat="41.871600" lon="-8.100183">
        <ele>427.0</ele>
        <time>2010-08-26T19:38:56Z</time>
      </trkpt>
      <trkpt lat="41.871583" lon="-8.100217">
        <ele>427.0</ele>
        <time>2010-08-26T19:38:57Z</time>
      </trkpt>
      <trkpt lat="41.871567" lon="-8.100233">
        <ele>427.0</ele>
        <time>2010-08-26T19:38:58Z</time>
      </trkpt>
      <trkpt lat="41.871533" lon="-8.100267">
        <ele>427.0</ele>
        <time>2010-08-26T19:38:59Z</time>
      </trkpt>
      <trkpt lat="41.871500" lon="-8.100317">
        <ele>428.0</ele>
        <time>2010-08-26T19:39:00Z</time>
      </trkpt>
      <trkpt lat="41.871450" lon="-8.100367">
        <ele>429.0</ele>
        <time>2010-08-26T19:39:01Z</time>
      </trkpt>
      <trkpt lat="41.871400" lon="-8.100400">
        <ele>430.0</ele>
        <time>2010-08-26T19:39:02Z</time>
      </trkpt>
      <trkpt lat="41.871350" lon="-8.100433">
        <ele>430.0</ele>
        <time>2010-08-26T19:39:03Z</time>
      </trkpt>
      <trkpt lat="41.871283" lon="-8.100467">
        <ele>430.0</ele>
        <time>2010-08-26T19:39:04Z</time>
      </trkpt>
      <trkpt lat="41.871200" lon="-8.100483">
        <ele>430.0</ele>
        <time>2010-08-26T19:39:05Z</time>
      </trkpt>
      <trkpt lat="41.871150" lon="-8.100517">
        <ele>429.0</ele>
        <time>2010-08-26T19:39:06Z</time>
      </trkpt>
      <trkpt lat="41.871083" lon="-8.100550">
        <ele>429.0</ele>
        <time>2010-08-26T19:39:07Z</time>
      </trkpt>
      <trkpt lat="41.871017" lon="-8.100600">
        <ele>429.0</ele>
        <time>2010-08-26T19:39:08Z</time>
      </trkpt>
      <trkpt lat="41.870967" lon="-8.100667">
        <ele>429.0</ele>
        <time>2010-08-26T19:39:09Z</time>
      </trkpt>
      <trkpt lat="41.870917" lon="-8.100733">
        <ele>428.0</ele>
        <time>2010-08-26T19:39:10Z</time>
      </trkpt>
      <trkpt lat="41.870850" lon="-8.100800">
        <ele>427.0</ele>
        <time>2010-08-26T19:39:11Z</time>
      </trkpt>
      <trkpt lat="41.870783" lon="-8.100867">
        <ele>426.0</ele>
        <time>2010-08-26T19:39:12Z</time>
      </trkpt>
      <trkpt lat="41.870717" lon="-8.100917">
        <ele>425.0</ele>
        <time>2010-08-26T19:39:13Z</time>
      </trkpt>
      <trkpt lat="41.870650" lon="-8.100983">
        <ele>424.0</ele>
        <time>2010-08-26T19:39:14Z</time>
      </trkpt>
      <trkpt lat="41.870583" lon="-8.101050">
        <ele>423.0</ele>
        <time>2010-08-26T19:39:15Z</time>
      </trkpt>
      <trkpt lat="41.870517" lon="-8.101117">
        <ele>422.0</ele>
        <time>2010-08-26T19:39:16Z</time>
      </trkpt>
      <trkpt lat="41.870450" lon="-8.101183">
        <ele>420.0</ele>
        <time>2010-08-26T19:39:17Z</time>
      </trkpt>
      <trkpt lat="41.870400" lon="-8.101267">
        <ele>419.0</ele>
        <time>2010-08-26T19:39:18Z</time>
      </trkpt>
      <trkpt lat="41.870367" lon="-8.101367">
        <ele>418.0</ele>
        <time>2010-08-26T19:39:19Z</time>
      </trkpt>
      <trkpt lat="41.870333" lon="-8.101467">
        <ele>417.0</ele>
        <time>2010-08-26T19:39:20Z</time>
      </trkpt>
      <trkpt lat="41.870300" lon="-8.101567">
        <ele>416.0</ele>
        <time>2010-08-26T19:39:21Z</time>
      </trkpt>
      <trkpt lat="41.870267" lon="-8.101667">
        <ele>415.0</ele>
        <time>2010-08-26T19:39:22Z</time>
      </trkpt>
      <trkpt lat="41.870233" lon="-8.101767">
        <ele>414.0</ele>
        <time>2010-08-26T19:39:23Z</time>
      </trkpt>
      <trkpt lat="41.870200" lon="-8.101833">
        <ele>413.0</ele>
        <time>2010-08-26T19:39:24Z</time>
      </trkpt>
      <trkpt lat="41.870183" lon="-8.101900">
        <ele>412.0</ele>
        <time>2010-08-26T19:39:25Z</time>
      </trkpt>
      <trkpt lat="41.870150" lon="-8.101950">
        <ele>412.0</ele>
        <time>2010-08-26T19:39:26Z</time>
      </trkpt>
      <trkpt lat="41.870133" lon="-8.102000">
        <ele>411.0</ele>
        <time>2010-08-26T19:39:27Z</time>
      </trkpt>
      <trkpt lat="41.870117" lon="-8.102033">
        <ele>410.0</ele>
        <time>2010-08-26T19:39:29Z</time>
      </trkpt>
      <trkpt lat="41.870083" lon="-8.102067">
        <ele>399.0</ele>
        <time>2010-08-26T19:41:12Z</time>
      </trkpt>
      <trkpt lat="41.870067" lon="-8.102067">
        <ele>399.0</ele>
        <time>2010-08-26T19:41:13Z</time>
      </trkpt>
      <trkpt lat="41.870033" lon="-8.102083">
        <ele>399.0</ele>
        <time>2010-08-26T19:41:14Z</time>
      </trkpt>
      <trkpt lat="41.870017" lon="-8.102083">
        <ele>399.0</ele>
        <time>2010-08-26T19:41:15Z</time>
      </trkpt>
      <trkpt lat="41.869983" lon="-8.102100">
        <ele>399.0</ele>
        <time>2010-08-26T19:41:16Z</time>
      </trkpt>
      <trkpt lat="41.869950" lon="-8.102100">
        <ele>399.0</ele>
        <time>2010-08-26T19:41:17Z</time>
      </trkpt>
      <trkpt lat="41.869917" lon="-8.102100">
        <ele>399.0</ele>
        <time>2010-08-26T19:41:18Z</time>
      </trkpt>
      <trkpt lat="41.869883" lon="-8.102117">
        <ele>399.0</ele>
        <time>2010-08-26T19:41:19Z</time>
      </trkpt>
      <trkpt lat="41.869850" lon="-8.102117">
        <ele>399.0</ele>
        <time>2010-08-26T19:41:20Z</time>
      </trkpt>
      <trkpt lat="41.869817" lon="-8.102133">
        <ele>399.0</ele>
        <time>2010-08-26T19:41:21Z</time>
      </trkpt>
      <trkpt lat="41.869767" lon="-8.102133">
        <ele>399.0</ele>
        <time>2010-08-26T19:41:22Z</time>
      </trkpt>
      <trkpt lat="41.869733" lon="-8.102150">
        <ele>398.0</ele>
        <time>2010-08-26T19:41:23Z</time>
      </trkpt>
      <trkpt lat="41.869700" lon="-8.102150">
        <ele>398.0</ele>
        <time>2010-08-26T19:41:24Z</time>
      </trkpt>
      <trkpt lat="41.869667" lon="-8.102167">
        <ele>398.0</ele>
        <time>2010-08-26T19:41:25Z</time>
      </trkpt>
      <trkpt lat="41.869633" lon="-8.102183">
        <ele>398.0</ele>
        <time>2010-08-26T19:41:26Z</time>
      </trkpt>
      <trkpt lat="41.869600" lon="-8.102183">
        <ele>398.0</ele>
        <time>2010-08-26T19:41:27Z</time>
      </trkpt>
      <trkpt lat="41.869550" lon="-8.102200">
        <ele>398.0</ele>
        <time>2010-08-26T19:41:28Z</time>
      </trkpt>
      <trkpt lat="41.869517" lon="-8.102200">
        <ele>398.0</ele>
        <time>2010-08-26T19:41:29Z</time>
      </trkpt>
      <trkpt lat="41.869467" lon="-8.102217">
        <ele>398.0</ele>
        <time>2010-08-26T19:41:30Z</time>
      </trkpt>
      <trkpt lat="41.869433" lon="-8.102233">
        <ele>398.0</ele>
        <time>2010-08-26T19:41:31Z</time>
      </trkpt>
      <trkpt lat="41.869400" lon="-8.102250">
        <ele>397.0</ele>
        <time>2010-08-26T19:41:32Z</time>
      </trkpt>
      <trkpt lat="41.869350" lon="-8.102267">
        <ele>397.0</ele>
        <time>2010-08-26T19:41:33Z</time>
      </trkpt>
      <trkpt lat="41.869317" lon="-8.102283">
        <ele>397.0</ele>
        <time>2010-08-26T19:41:34Z</time>
      </trkpt>
      <trkpt lat="41.869267" lon="-8.102300">
        <ele>397.0</ele>
        <time>2010-08-26T19:41:35Z</time>
      </trkpt>
      <trkpt lat="41.869233" lon="-8.102333">
        <ele>397.0</ele>
        <time>2010-08-26T19:41:36Z</time>
      </trkpt>
      <trkpt lat="41.869183" lon="-8.102350">
        <ele>397.0</ele>
        <time>2010-08-26T19:41:37Z</time>
      </trkpt>
      <trkpt lat="41.869133" lon="-8.102383">
        <ele>397.0</ele>
        <time>2010-08-26T19:41:38Z</time>
      </trkpt>
      <trkpt lat="41.869083" lon="-8.102417">
        <ele>397.0</ele>
        <time>2010-08-26T19:41:39Z</time>
      </trkpt>
      <trkpt lat="41.869050" lon="-8.102433">
        <ele>397.0</ele>
        <time>2010-08-26T19:41:40Z</time>
      </trkpt>
      <trkpt lat="41.869000" lon="-8.102467">
        <ele>397.0</ele>
        <time>2010-08-26T19:41:41Z</time>
      </trkpt>
      <trkpt lat="41.868967" lon="-8.102500">
        <ele>397.0</ele>
        <time>2010-08-26T19:41:42Z</time>
      </trkpt>
      <trkpt lat="41.868917" lon="-8.102533">
        <ele>397.0</ele>
        <time>2010-08-26T19:41:43Z</time>
      </trkpt>
      <trkpt lat="41.868883" lon="-8.102567">
        <ele>397.0</ele>
        <time>2010-08-26T19:41:44Z</time>
      </trkpt>
      <trkpt lat="41.868850" lon="-8.102583">
        <ele>396.0</ele>
        <time>2010-08-26T19:41:45Z</time>
      </trkpt>
      <trkpt lat="41.868817" lon="-8.102617">
        <ele>396.0</ele>
        <time>2010-08-26T19:41:46Z</time>
      </trkpt>
      <trkpt lat="41.868783" lon="-8.102650">
        <ele>397.0</ele>
        <time>2010-08-26T19:41:47Z</time>
      </trkpt>
      <trkpt lat="41.868750" lon="-8.102700">
        <ele>397.0</ele>
        <time>2010-08-26T19:41:48Z</time>
      </trkpt>
      <trkpt lat="41.868733" lon="-8.102733">
        <ele>397.0</ele>
        <time>2010-08-26T19:41:49Z</time>
      </trkpt>
      <trkpt lat="41.868700" lon="-8.102767">
        <ele>397.0</ele>
        <time>2010-08-26T19:41:50Z</time>
      </trkpt>
      <trkpt lat="41.868667" lon="-8.102800">
        <ele>397.0</ele>
        <time>2010-08-26T19:41:51Z</time>
      </trkpt>
      <trkpt lat="41.868633" lon="-8.102833">
        <ele>397.0</ele>
        <time>2010-08-26T19:41:52Z</time>
      </trkpt>
      <trkpt lat="41.868617" lon="-8.102850">
        <ele>397.0</ele>
        <time>2010-08-26T19:41:53Z</time>
      </trkpt>
      <trkpt lat="41.868583" lon="-8.102883">
        <ele>397.0</ele>
        <time>2010-08-26T19:41:54Z</time>
      </trkpt>
      <trkpt lat="41.868550" lon="-8.102917">
        <ele>397.0</ele>
        <time>2010-08-26T19:41:55Z</time>
      </trkpt>
      <trkpt lat="41.868533" lon="-8.102950">
        <ele>397.0</ele>
        <time>2010-08-26T19:41:56Z</time>
      </trkpt>
      <trkpt lat="41.868500" lon="-8.102983">
        <ele>397.0</ele>
        <time>2010-08-26T19:41:57Z</time>
      </trkpt>
      <trkpt lat="41.868467" lon="-8.103033">
        <ele>396.0</ele>
        <time>2010-08-26T19:41:58Z</time>
      </trkpt>
      <trkpt lat="41.868450" lon="-8.103067">
        <ele>396.0</ele>
        <time>2010-08-26T19:41:59Z</time>
      </trkpt>
      <trkpt lat="41.868417" lon="-8.103100">
        <ele>396.0</ele>
        <time>2010-08-26T19:42:00Z</time>
      </trkpt>
      <trkpt lat="41.868383" lon="-8.103133">
        <ele>396.0</ele>
        <time>2010-08-26T19:42:01Z</time>
      </trkpt>
      <trkpt lat="41.868350" lon="-8.103167">
        <ele>396.0</ele>
        <time>2010-08-26T19:42:02Z</time>
      </trkpt>
      <trkpt lat="41.868317" lon="-8.103200">
        <ele>396.0</ele>
        <time>2010-08-26T19:42:03Z</time>
      </trkpt>
      <trkpt lat="41.868283" lon="-8.103233">
        <ele>396.0</ele>
        <time>2010-08-26T19:42:04Z</time>
      </trkpt>
      <trkpt lat="41.868267" lon="-8.103267">
        <ele>396.0</ele>
        <time>2010-08-26T19:42:05Z</time>
      </trkpt>
      <trkpt lat="41.868233" lon="-8.103300">
        <ele>395.0</ele>
        <time>2010-08-26T19:42:06Z</time>
      </trkpt>
      <trkpt lat="41.868200" lon="-8.103350">
        <ele>395.0</ele>
        <time>2010-08-26T19:42:07Z</time>
      </trkpt>
      <trkpt lat="41.868167" lon="-8.103383">
        <ele>395.0</ele>
        <time>2010-08-26T19:42:08Z</time>
      </trkpt>
      <trkpt lat="41.868133" lon="-8.103433">
        <ele>395.0</ele>
        <time>2010-08-26T19:42:09Z</time>
      </trkpt>
      <trkpt lat="41.868083" lon="-8.103467">
        <ele>395.0</ele>
        <time>2010-08-26T19:42:10Z</time>
      </trkpt>
      <trkpt lat="41.868050" lon="-8.103500">
        <ele>395.0</ele>
        <time>2010-08-26T19:42:11Z</time>
      </trkpt>
      <trkpt lat="41.868017" lon="-8.103550">
        <ele>394.0</ele>
        <time>2010-08-26T19:42:12Z</time>
      </trkpt>
      <trkpt lat="41.867983" lon="-8.103583">
        <ele>394.0</ele>
        <time>2010-08-26T19:42:13Z</time>
      </trkpt>
      <trkpt lat="41.867950" lon="-8.103617">
        <ele>394.0</ele>
        <time>2010-08-26T19:42:14Z</time>
      </trkpt>
      <trkpt lat="41.867900" lon="-8.103650">
        <ele>394.0</ele>
        <time>2010-08-26T19:42:15Z</time>
      </trkpt>
      <trkpt lat="41.867867" lon="-8.103667">
        <ele>394.0</ele>
        <time>2010-08-26T19:42:16Z</time>
      </trkpt>
      <trkpt lat="41.867817" lon="-8.103683">
        <ele>394.0</ele>
        <time>2010-08-26T19:42:17Z</time>
      </trkpt>
      <trkpt lat="41.867783" lon="-8.103700">
        <ele>394.0</ele>
        <time>2010-08-26T19:42:18Z</time>
      </trkpt>
      <trkpt lat="41.867733" lon="-8.103717">
        <ele>393.0</ele>
        <time>2010-08-26T19:42:19Z</time>
      </trkpt>
      <trkpt lat="41.867683" lon="-8.103733">
        <ele>393.0</ele>
        <time>2010-08-26T19:42:20Z</time>
      </trkpt>
      <trkpt lat="41.867633" lon="-8.103750">
        <ele>393.0</ele>
        <time>2010-08-26T19:42:21Z</time>
      </trkpt>
      <trkpt lat="41.867583" lon="-8.103767">
        <ele>393.0</ele>
        <time>2010-08-26T19:42:22Z</time>
      </trkpt>
      <trkpt lat="41.867533" lon="-8.103783">
        <ele>393.0</ele>
        <time>2010-08-26T19:42:23Z</time>
      </trkpt>
      <trkpt lat="41.867500" lon="-8.103800">
        <ele>393.0</ele>
        <time>2010-08-26T19:42:24Z</time>
      </trkpt>
      <trkpt lat="41.867450" lon="-8.103833">
        <ele>393.0</ele>
        <time>2010-08-26T19:42:25Z</time>
      </trkpt>
      <trkpt lat="41.867400" lon="-8.103850">
        <ele>393.0</ele>
        <time>2010-08-26T19:42:26Z</time>
      </trkpt>
      <trkpt lat="41.867367" lon="-8.103883">
        <ele>393.0</ele>
        <time>2010-08-26T19:42:27Z</time>
      </trkpt>
      <trkpt lat="41.867317" lon="-8.103900">
        <ele>393.0</ele>
        <time>2010-08-26T19:42:28Z</time>
      </trkpt>
      <trkpt lat="41.867283" lon="-8.103933">
        <ele>393.0</ele>
        <time>2010-08-26T19:42:29Z</time>
      </trkpt>
      <trkpt lat="41.867250" lon="-8.103967">
        <ele>393.0</ele>
        <time>2010-08-26T19:42:30Z</time>
      </trkpt>
      <trkpt lat="41.867233" lon="-8.104000">
        <ele>393.0</ele>
        <time>2010-08-26T19:42:31Z</time>
      </trkpt>
      <trkpt lat="41.867200" lon="-8.104033">
        <ele>393.0</ele>
        <time>2010-08-26T19:42:32Z</time>
      </trkpt>
      <trkpt lat="41.867167" lon="-8.104067">
        <ele>393.0</ele>
        <time>2010-08-26T19:42:33Z</time>
      </trkpt>
      <trkpt lat="41.867150" lon="-8.104117">
        <ele>392.0</ele>
        <time>2010-08-26T19:42:34Z</time>
      </trkpt>
      <trkpt lat="41.867117" lon="-8.104167">
        <ele>392.0</ele>
        <time>2010-08-26T19:42:35Z</time>
      </trkpt>
      <trkpt lat="41.867100" lon="-8.104200">
        <ele>392.0</ele>
        <time>2010-08-26T19:42:36Z</time>
      </trkpt>
      <trkpt lat="41.867083" lon="-8.104250">
        <ele>391.0</ele>
        <time>2010-08-26T19:42:37Z</time>
      </trkpt>
      <trkpt lat="41.867067" lon="-8.104283">
        <ele>391.0</ele>
        <time>2010-08-26T19:42:38Z</time>
      </trkpt>
      <trkpt lat="41.867050" lon="-8.104317">
        <ele>390.0</ele>
        <time>2010-08-26T19:42:39Z</time>
      </trkpt>
      <trkpt lat="41.867033" lon="-8.104350">
        <ele>390.0</ele>
        <time>2010-08-26T19:42:40Z</time>
      </trkpt>
      <trkpt lat="41.867033" lon="-8.104383">
        <ele>390.0</ele>
        <time>2010-08-26T19:42:41Z</time>
      </trkpt>
      <trkpt lat="41.867017" lon="-8.104417">
        <ele>389.0</ele>
        <time>2010-08-26T19:42:42Z</time>
      </trkpt>
      <trkpt lat="41.866983" lon="-8.104450">
        <ele>389.0</ele>
        <time>2010-08-26T19:42:43Z</time>
      </trkpt>
      <trkpt lat="41.866950" lon="-8.104483">
        <ele>389.0</ele>
        <time>2010-08-26T19:42:44Z</time>
      </trkpt>
      <trkpt lat="41.866900" lon="-8.104517">
        <ele>389.0</ele>
        <time>2010-08-26T19:42:45Z</time>
      </trkpt>
      <trkpt lat="41.866850" lon="-8.104550">
        <ele>389.0</ele>
        <time>2010-08-26T19:42:46Z</time>
      </trkpt>
      <trkpt lat="41.866800" lon="-8.104583">
        <ele>389.0</ele>
        <time>2010-08-26T19:42:47Z</time>
      </trkpt>
      <trkpt lat="41.866767" lon="-8.104600">
        <ele>389.0</ele>
        <time>2010-08-26T19:42:48Z</time>
      </trkpt>
      <trkpt lat="41.866717" lon="-8.104633">
        <ele>388.0</ele>
        <time>2010-08-26T19:42:49Z</time>
      </trkpt>
      <trkpt lat="41.866667" lon="-8.104667">
        <ele>388.0</ele>
        <time>2010-08-26T19:42:50Z</time>
      </trkpt>
      <trkpt lat="41.866617" lon="-8.104683">
        <ele>388.0</ele>
        <time>2010-08-26T19:42:51Z</time>
      </trkpt>
      <trkpt lat="41.866583" lon="-8.104700">
        <ele>388.0</ele>
        <time>2010-08-26T19:42:52Z</time>
      </trkpt>
      <trkpt lat="41.866533" lon="-8.104733">
        <ele>388.0</ele>
        <time>2010-08-26T19:42:53Z</time>
      </trkpt>
      <trkpt lat="41.866483" lon="-8.104750">
        <ele>388.0</ele>
        <time>2010-08-26T19:42:54Z</time>
      </trkpt>
      <trkpt lat="41.866433" lon="-8.104783">
        <ele>388.0</ele>
        <time>2010-08-26T19:42:55Z</time>
      </trkpt>
      <trkpt lat="41.866400" lon="-8.104817">
        <ele>388.0</ele>
        <time>2010-08-26T19:42:56Z</time>
      </trkpt>
      <trkpt lat="41.866350" lon="-8.104850">
        <ele>388.0</ele>
        <time>2010-08-26T19:42:57Z</time>
      </trkpt>
      <trkpt lat="41.866300" lon="-8.104883">
        <ele>388.0</ele>
        <time>2010-08-26T19:42:58Z</time>
      </trkpt>
      <trkpt lat="41.866250" lon="-8.104900">
        <ele>388.0</ele>
        <time>2010-08-26T19:42:59Z</time>
      </trkpt>
      <trkpt lat="41.866200" lon="-8.104933">
        <ele>387.0</ele>
        <time>2010-08-26T19:43:00Z</time>
      </trkpt>
      <trkpt lat="41.866150" lon="-8.104950">
        <ele>387.0</ele>
        <time>2010-08-26T19:43:01Z</time>
      </trkpt>
      <trkpt lat="41.866100" lon="-8.104967">
        <ele>387.0</ele>
        <time>2010-08-26T19:43:02Z</time>
      </trkpt>
      <trkpt lat="41.866067" lon="-8.105000">
        <ele>387.0</ele>
        <time>2010-08-26T19:43:03Z</time>
      </trkpt>
      <trkpt lat="41.866033" lon="-8.105017">
        <ele>387.0</ele>
        <time>2010-08-26T19:43:04Z</time>
      </trkpt>
      <trkpt lat="41.866000" lon="-8.105050">
        <ele>387.0</ele>
        <time>2010-08-26T19:43:05Z</time>
      </trkpt>
      <trkpt lat="41.865950" lon="-8.105067">
        <ele>387.0</ele>
        <time>2010-08-26T19:43:06Z</time>
      </trkpt>
      <trkpt lat="41.865917" lon="-8.105100">
        <ele>387.0</ele>
        <time>2010-08-26T19:43:07Z</time>
      </trkpt>
      <trkpt lat="41.865883" lon="-8.105117">
        <ele>387.0</ele>
        <time>2010-08-26T19:43:08Z</time>
      </trkpt>
      <trkpt lat="41.865833" lon="-8.105133">
        <ele>387.0</ele>
        <time>2010-08-26T19:43:09Z</time>
      </trkpt>
      <trkpt lat="41.865800" lon="-8.105167">
        <ele>387.0</ele>
        <time>2010-08-26T19:43:10Z</time>
      </trkpt>
      <trkpt lat="41.865767" lon="-8.105183">
        <ele>387.0</ele>
        <time>2010-08-26T19:43:11Z</time>
      </trkpt>
      <trkpt lat="41.865733" lon="-8.105200">
        <ele>387.0</ele>
        <time>2010-08-26T19:43:12Z</time>
      </trkpt>
      <trkpt lat="41.865700" lon="-8.105217">
        <ele>387.0</ele>
        <time>2010-08-26T19:43:13Z</time>
      </trkpt>
      <trkpt lat="41.865667" lon="-8.105233">
        <ele>387.0</ele>
        <time>2010-08-26T19:43:14Z</time>
      </trkpt>
      <trkpt lat="41.865633" lon="-8.105250">
        <ele>387.0</ele>
        <time>2010-08-26T19:43:15Z</time>
      </trkpt>
      <trkpt lat="41.865600" lon="-8.105267">
        <ele>387.0</ele>
        <time>2010-08-26T19:43:16Z</time>
      </trkpt>
      <trkpt lat="41.865567" lon="-8.105283">
        <ele>387.0</ele>
        <time>2010-08-26T19:43:17Z</time>
      </trkpt>
      <trkpt lat="41.865533" lon="-8.105300">
        <ele>387.0</ele>
        <time>2010-08-26T19:43:18Z</time>
      </trkpt>
      <trkpt lat="41.865500" lon="-8.105317">
        <ele>387.0</ele>
        <time>2010-08-26T19:43:19Z</time>
      </trkpt>
      <trkpt lat="41.865467" lon="-8.105350">
        <ele>387.0</ele>
        <time>2010-08-26T19:43:20Z</time>
      </trkpt>
      <trkpt lat="41.865433" lon="-8.105367">
        <ele>387.0</ele>
        <time>2010-08-26T19:43:21Z</time>
      </trkpt>
      <trkpt lat="41.865400" lon="-8.105383">
        <ele>387.0</ele>
        <time>2010-08-26T19:43:22Z</time>
      </trkpt>
      <trkpt lat="41.865367" lon="-8.105400">
        <ele>387.0</ele>
        <time>2010-08-26T19:43:23Z</time>
      </trkpt>
      <trkpt lat="41.865333" lon="-8.105417">
        <ele>387.0</ele>
        <time>2010-08-26T19:43:24Z</time>
      </trkpt>
      <trkpt lat="41.865300" lon="-8.105433">
        <ele>387.0</ele>
        <time>2010-08-26T19:43:25Z</time>
      </trkpt>
      <trkpt lat="41.865267" lon="-8.105467">
        <ele>387.0</ele>
        <time>2010-08-26T19:43:26Z</time>
      </trkpt>
      <trkpt lat="41.865233" lon="-8.105483">
        <ele>387.0</ele>
        <time>2010-08-26T19:43:27Z</time>
      </trkpt>
      <trkpt lat="41.865217" lon="-8.105517">
        <ele>387.0</ele>
        <time>2010-08-26T19:43:28Z</time>
      </trkpt>
      <trkpt lat="41.865183" lon="-8.105550">
        <ele>387.0</ele>
        <time>2010-08-26T19:43:29Z</time>
      </trkpt>
      <trkpt lat="41.865150" lon="-8.105583">
        <ele>387.0</ele>
        <time>2010-08-26T19:43:30Z</time>
      </trkpt>
      <trkpt lat="41.865117" lon="-8.105633">
        <ele>387.0</ele>
        <time>2010-08-26T19:43:31Z</time>
      </trkpt>
      <trkpt lat="41.865083" lon="-8.105667">
        <ele>387.0</ele>
        <time>2010-08-26T19:43:32Z</time>
      </trkpt>
      <trkpt lat="41.865067" lon="-8.105717">
        <ele>387.0</ele>
        <time>2010-08-26T19:43:33Z</time>
      </trkpt>
      <trkpt lat="41.865050" lon="-8.105750">
        <ele>387.0</ele>
        <time>2010-08-26T19:43:34Z</time>
      </trkpt>
      <trkpt lat="41.865033" lon="-8.105800">
        <ele>387.0</ele>
        <time>2010-08-26T19:43:35Z</time>
      </trkpt>
      <trkpt lat="41.865000" lon="-8.105850">
        <ele>387.0</ele>
        <time>2010-08-26T19:43:36Z</time>
      </trkpt>
      <trkpt lat="41.864983" lon="-8.105900">
        <ele>387.0</ele>
        <time>2010-08-26T19:43:37Z</time>
      </trkpt>
      <trkpt lat="41.864967" lon="-8.105950">
        <ele>387.0</ele>
        <time>2010-08-26T19:43:38Z</time>
      </trkpt>
      <trkpt lat="41.864967" lon="-8.106000">
        <ele>387.0</ele>
        <time>2010-08-26T19:43:39Z</time>
      </trkpt>
      <trkpt lat="41.864950" lon="-8.106050">
        <ele>387.0</ele>
        <time>2010-08-26T19:43:40Z</time>
      </trkpt>
      <trkpt lat="41.864933" lon="-8.106100">
        <ele>387.0</ele>
        <time>2010-08-26T19:43:41Z</time>
      </trkpt>
      <trkpt lat="41.864917" lon="-8.106150">
        <ele>387.0</ele>
        <time>2010-08-26T19:43:42Z</time>
      </trkpt>
      <trkpt lat="41.864900" lon="-8.106200">
        <ele>388.0</ele>
        <time>2010-08-26T19:43:43Z</time>
      </trkpt>
      <trkpt lat="41.864867" lon="-8.106233">
        <ele>388.0</ele>
        <time>2010-08-26T19:43:44Z</time>
      </trkpt>
      <trkpt lat="41.864833" lon="-8.106267">
        <ele>388.0</ele>
        <time>2010-08-26T19:43:45Z</time>
      </trkpt>
      <trkpt lat="41.864800" lon="-8.106283">
        <ele>387.0</ele>
        <time>2010-08-26T19:43:46Z</time>
      </trkpt>
      <trkpt lat="41.864750" lon="-8.106300">
        <ele>387.0</ele>
        <time>2010-08-26T19:43:47Z</time>
      </trkpt>
      <trkpt lat="41.864700" lon="-8.106317">
        <ele>387.0</ele>
        <time>2010-08-26T19:43:48Z</time>
      </trkpt>
      <trkpt lat="41.864650" lon="-8.106333">
        <ele>387.0</ele>
        <time>2010-08-26T19:43:49Z</time>
      </trkpt>
      <trkpt lat="41.864600" lon="-8.106350">
        <ele>387.0</ele>
        <time>2010-08-26T19:43:50Z</time>
      </trkpt>
      <trkpt lat="41.864550" lon="-8.106350">
        <ele>387.0</ele>
        <time>2010-08-26T19:43:51Z</time>
      </trkpt>
      <trkpt lat="41.864500" lon="-8.106367">
        <ele>387.0</ele>
        <time>2010-08-26T19:43:52Z</time>
      </trkpt>
      <trkpt lat="41.864450" lon="-8.106383">
        <ele>386.0</ele>
        <time>2010-08-26T19:43:53Z</time>
      </trkpt>
      <trkpt lat="41.864400" lon="-8.106383">
        <ele>386.0</ele>
        <time>2010-08-26T19:43:54Z</time>
      </trkpt>
      <trkpt lat="41.864350" lon="-8.106383">
        <ele>386.0</ele>
        <time>2010-08-26T19:43:55Z</time>
      </trkpt>
      <trkpt lat="41.864300" lon="-8.106400">
        <ele>386.0</ele>
        <time>2010-08-26T19:43:56Z</time>
      </trkpt>
      <trkpt lat="41.864267" lon="-8.106400">
        <ele>386.0</ele>
        <time>2010-08-26T19:43:57Z</time>
      </trkpt>
      <trkpt lat="41.864217" lon="-8.106400">
        <ele>386.0</ele>
        <time>2010-08-26T19:43:58Z</time>
      </trkpt>
      <trkpt lat="41.864167" lon="-8.106400">
        <ele>386.0</ele>
        <time>2010-08-26T19:43:59Z</time>
      </trkpt>
      <trkpt lat="41.864133" lon="-8.106383">
        <ele>386.0</ele>
        <time>2010-08-26T19:44:00Z</time>
      </trkpt>
      <trkpt lat="41.864100" lon="-8.106383">
        <ele>386.0</ele>
        <time>2010-08-26T19:44:01Z</time>
      </trkpt>
      <trkpt lat="41.864067" lon="-8.106383">
        <ele>386.0</ele>
        <time>2010-08-26T19:44:02Z</time>
      </trkpt>
      <trkpt lat="41.864033" lon="-8.106383">
        <ele>386.0</ele>
        <time>2010-08-26T19:44:03Z</time>
      </trkpt>
      <trkpt lat="41.864017" lon="-8.106383">
        <ele>386.0</ele>
        <time>2010-08-26T19:44:04Z</time>
      </trkpt>
      <trkpt lat="41.863983" lon="-8.106383">
        <ele>386.0</ele>
        <time>2010-08-26T19:44:05Z</time>
      </trkpt>
      <trkpt lat="41.863967" lon="-8.106367">
        <ele>386.0</ele>
        <time>2010-08-26T19:44:06Z</time>
      </trkpt>
      <trkpt lat="41.863917" lon="-8.106367">
        <ele>386.0</ele>
        <time>2010-08-26T19:44:08Z</time>
      </trkpt>
      <trkpt lat="41.863883" lon="-8.106367">
        <ele>386.0</ele>
        <time>2010-08-26T19:44:10Z</time>
      </trkpt>
      <trkpt lat="41.863850" lon="-8.106367">
        <ele>386.0</ele>
        <time>2010-08-26T19:44:12Z</time>
      </trkpt>
      <trkpt lat="41.863800" lon="-8.106367">
        <ele>387.0</ele>
        <time>2010-08-26T19:44:14Z</time>
      </trkpt>
      <trkpt lat="41.863783" lon="-8.106367">
        <ele>387.0</ele>
        <time>2010-08-26T19:44:15Z</time>
      </trkpt>
      <trkpt lat="41.863750" lon="-8.106367">
        <ele>387.0</ele>
        <time>2010-08-26T19:44:16Z</time>
      </trkpt>
      <trkpt lat="41.863717" lon="-8.106367">
        <ele>387.0</ele>
        <time>2010-08-26T19:44:17Z</time>
      </trkpt>
      <trkpt lat="41.863700" lon="-8.106367">
        <ele>387.0</ele>
        <time>2010-08-26T19:44:18Z</time>
      </trkpt>
      <trkpt lat="41.863667" lon="-8.106367">
        <ele>387.0</ele>
        <time>2010-08-26T19:44:19Z</time>
      </trkpt>
      <trkpt lat="41.863633" lon="-8.106383">
        <ele>387.0</ele>
        <time>2010-08-26T19:44:21Z</time>
      </trkpt>
      <trkpt lat="41.863600" lon="-8.106383">
        <ele>388.0</ele>
        <time>2010-08-26T19:44:23Z</time>
      </trkpt>
      <trkpt lat="41.863567" lon="-8.106383">
        <ele>388.0</ele>
        <time>2010-08-26T19:44:25Z</time>
      </trkpt>
      <trkpt lat="41.863517" lon="-8.106367">
        <ele>387.0</ele>
        <time>2010-08-26T19:44:53Z</time>
      </trkpt>
      <trkpt lat="41.863500" lon="-8.106367">
        <ele>387.0</ele>
        <time>2010-08-26T19:44:55Z</time>
      </trkpt>
      <trkpt lat="41.863450" lon="-8.106367">
        <ele>387.0</ele>
        <time>2010-08-26T19:44:57Z</time>
      </trkpt>
      <trkpt lat="41.863417" lon="-8.106350">
        <ele>387.0</ele>
        <time>2010-08-26T19:44:59Z</time>
      </trkpt>
      <trkpt lat="41.863383" lon="-8.106350">
        <ele>387.0</ele>
        <time>2010-08-26T19:45:00Z</time>
      </trkpt>
      <trkpt lat="41.863367" lon="-8.106350">
        <ele>387.0</ele>
        <time>2010-08-26T19:45:01Z</time>
      </trkpt>
      <trkpt lat="41.863333" lon="-8.106350">
        <ele>387.0</ele>
        <time>2010-08-26T19:45:02Z</time>
      </trkpt>
      <trkpt lat="41.863317" lon="-8.106333">
        <ele>387.0</ele>
        <time>2010-08-26T19:45:03Z</time>
      </trkpt>
      <trkpt lat="41.863283" lon="-8.106333">
        <ele>387.0</ele>
        <time>2010-08-26T19:45:04Z</time>
      </trkpt>
      <trkpt lat="41.863250" lon="-8.106333">
        <ele>387.0</ele>
        <time>2010-08-26T19:45:05Z</time>
      </trkpt>
      <trkpt lat="41.863233" lon="-8.106333">
        <ele>387.0</ele>
        <time>2010-08-26T19:45:06Z</time>
      </trkpt>
      <trkpt lat="41.863200" lon="-8.106333">
        <ele>387.0</ele>
        <time>2010-08-26T19:45:07Z</time>
      </trkpt>
      <trkpt lat="41.863167" lon="-8.106317">
        <ele>387.0</ele>
        <time>2010-08-26T19:45:08Z</time>
      </trkpt>
      <trkpt lat="41.863150" lon="-8.106317">
        <ele>387.0</ele>
        <time>2010-08-26T19:45:09Z</time>
      </trkpt>
      <trkpt lat="41.863117" lon="-8.106317">
        <ele>387.0</ele>
        <time>2010-08-26T19:45:10Z</time>
      </trkpt>
      <trkpt lat="41.863100" lon="-8.106317">
        <ele>387.0</ele>
        <time>2010-08-26T19:45:11Z</time>
      </trkpt>
      <trkpt lat="41.863067" lon="-8.106317">
        <ele>387.0</ele>
        <time>2010-08-26T19:45:12Z</time>
      </trkpt>
      <trkpt lat="41.863050" lon="-8.106300">
        <ele>387.0</ele>
        <time>2010-08-26T19:45:13Z</time>
      </trkpt>
      <trkpt lat="41.863033" lon="-8.106300">
        <ele>387.0</ele>
        <time>2010-08-26T19:45:14Z</time>
      </trkpt>
      <trkpt lat="41.863000" lon="-8.106300">
        <ele>387.0</ele>
        <time>2010-08-26T19:45:15Z</time>
      </trkpt>
      <trkpt lat="41.862983" lon="-8.106300">
        <ele>387.0</ele>
        <time>2010-08-26T19:45:16Z</time>
      </trkpt>
      <trkpt lat="41.862950" lon="-8.106300">
        <ele>387.0</ele>
        <time>2010-08-26T19:45:17Z</time>
      </trkpt>
      <trkpt lat="41.862933" lon="-8.106283">
        <ele>387.0</ele>
        <time>2010-08-26T19:45:18Z</time>
      </trkpt>
      <trkpt lat="41.862900" lon="-8.106283">
        <ele>387.0</ele>
        <time>2010-08-26T19:45:19Z</time>
      </trkpt>
      <trkpt lat="41.862883" lon="-8.106283">
        <ele>387.0</ele>
        <time>2010-08-26T19:45:20Z</time>
      </trkpt>
      <trkpt lat="41.862867" lon="-8.106283">
        <ele>387.0</ele>
        <time>2010-08-26T19:45:21Z</time>
      </trkpt>
      <trkpt lat="41.862817" lon="-8.106267">
        <ele>387.0</ele>
        <time>2010-08-26T19:45:23Z</time>
      </trkpt>
      <trkpt lat="41.862783" lon="-8.106267">
        <ele>387.0</ele>
        <time>2010-08-26T19:45:25Z</time>
      </trkpt>
      <trkpt lat="41.862733" lon="-8.106283">
        <ele>387.0</ele>
        <time>2010-08-26T19:45:27Z</time>
      </trkpt>
      <trkpt lat="41.862700" lon="-8.106283">
        <ele>387.0</ele>
        <time>2010-08-26T19:45:29Z</time>
      </trkpt>
      <trkpt lat="41.862667" lon="-8.106250">
        <ele>387.0</ele>
        <time>2010-08-26T19:45:31Z</time>
      </trkpt>
      <trkpt lat="41.862633" lon="-8.106250">
        <ele>387.0</ele>
        <time>2010-08-26T19:45:32Z</time>
      </trkpt>
      <trkpt lat="41.862617" lon="-8.106250">
        <ele>387.0</ele>
        <time>2010-08-26T19:45:33Z</time>
      </trkpt>
      <trkpt lat="41.862567" lon="-8.106250">
        <ele>387.0</ele>
        <time>2010-08-26T19:45:35Z</time>
      </trkpt>
      <trkpt lat="41.862533" lon="-8.106283">
        <ele>387.0</ele>
        <time>2010-08-26T19:45:37Z</time>
      </trkpt>
      <trkpt lat="41.862500" lon="-8.106283">
        <ele>387.0</ele>
        <time>2010-08-26T19:45:38Z</time>
      </trkpt>
      <trkpt lat="41.862483" lon="-8.106300">
        <ele>387.0</ele>
        <time>2010-08-26T19:45:39Z</time>
      </trkpt>
      <trkpt lat="41.862450" lon="-8.106300">
        <ele>387.0</ele>
        <time>2010-08-26T19:45:40Z</time>
      </trkpt>
      <trkpt lat="41.862433" lon="-8.106300">
        <ele>387.0</ele>
        <time>2010-08-26T19:45:41Z</time>
      </trkpt>
      <trkpt lat="41.862400" lon="-8.106300">
        <ele>387.0</ele>
        <time>2010-08-26T19:45:42Z</time>
      </trkpt>
      <trkpt lat="41.862367" lon="-8.106300">
        <ele>387.0</ele>
        <time>2010-08-26T19:45:43Z</time>
      </trkpt>
      <trkpt lat="41.862333" lon="-8.106300">
        <ele>387.0</ele>
        <time>2010-08-26T19:45:44Z</time>
      </trkpt>
      <trkpt lat="41.862317" lon="-8.106300">
        <ele>387.0</ele>
        <time>2010-08-26T19:45:45Z</time>
      </trkpt>
      <trkpt lat="41.862283" lon="-8.106317">
        <ele>387.0</ele>
        <time>2010-08-26T19:45:46Z</time>
      </trkpt>
      <trkpt lat="41.862250" lon="-8.106300">
        <ele>391.0</ele>
        <time>2010-08-26T19:46:31Z</time>
      </trkpt>
    </trkseg>
  </trk></gpx>